<?xml version="1.0" encoding="UTF-8" standalone="no" ?>
<gpx xmlns="http://www.topografix.com/GPX/1/1" xmlns:xsi="http://www.w3.org/2001/XMLSchema-instance" xsi:schemaLocation="http://www.topografix.com/GPX/1/1 http://www.topografix.com/GPX/1/1/gpx.xsd" version="1.1" creator="VisuGPX - https://www.visugpx.com">
  <metadata>
    <name>Étape 2</name>
  </metadata>
  <trk>
    <name><![CDATA[Trace 1787804923965]]></name>
    <extensions>
      <line xmlns="http://www.topografix.com/GPX/gpx_style/0/2">
        <color>0000FF</color>
        <width>4</width>
      </line>
    </extensions>
    <trkseg>
      <trkpt lat="47.83034" lon="6.87616">
        <ele>1090.6</ele>
        <time>2026-08-27T04:28:43.965Z</time>
      </trkpt>
      <trkpt lat="47.83034" lon="6.87616">
        <ele>1090.4</ele>
        <time>2026-08-27T04:28:44.973Z</time>
      </trkpt>
      <trkpt lat="47.83033" lon="6.87616">
        <ele>1090.3</ele>
        <time>2026-08-27T04:28:45.981Z</time>
      </trkpt>
      <trkpt lat="47.83033" lon="6.87616">
        <ele>1090.3</ele>
        <time>2026-08-27T04:28:46.989Z</time>
      </trkpt>
      <trkpt lat="47.83033" lon="6.87616">
        <ele>1090.3</ele>
        <time>2026-08-27T04:28:47.997Z</time>
      </trkpt>
      <trkpt lat="47.83033" lon="6.87616">
        <ele>1090.2</ele>
        <time>2026-08-27T04:28:49.005Z</time>
      </trkpt>
      <trkpt lat="47.83033" lon="6.87616">
        <ele>1089.4</ele>
        <time>2026-08-27T04:28:50.013Z</time>
      </trkpt>
      <trkpt lat="47.83033" lon="6.87617">
        <ele>1090.1</ele>
        <time>2026-08-27T04:28:51.021Z</time>
      </trkpt>
      <trkpt lat="47.83034" lon="6.87619">
        <ele>1089.3</ele>
        <time>2026-08-27T04:28:52.937Z</time>
      </trkpt>
      <trkpt lat="47.83033" lon="6.8762">
        <ele>1089.3</ele>
        <time>2026-08-27T04:28:53.944Z</time>
      </trkpt>
      <trkpt lat="47.83033" lon="6.87621">
        <ele>1089.3</ele>
        <time>2026-08-27T04:28:54.953Z</time>
      </trkpt>
      <trkpt lat="47.83033" lon="6.87621">
        <ele>1089.1</ele>
        <time>2026-08-27T04:28:55.960Z</time>
      </trkpt>
      <trkpt lat="47.83034" lon="6.87622">
        <ele>1089</ele>
        <time>2026-08-27T04:28:57.976Z</time>
      </trkpt>
      <trkpt lat="47.83034" lon="6.87622">
        <ele>1088.3</ele>
        <time>2026-08-27T04:28:58.984Z</time>
      </trkpt>
      <trkpt lat="47.83035" lon="6.87623">
        <ele>1088.3</ele>
        <time>2026-08-27T04:28:59.992Z</time>
      </trkpt>
      <trkpt lat="47.83035" lon="6.87624">
        <ele>1087.9</ele>
        <time>2026-08-27T04:29:01.001Z</time>
      </trkpt>
      <trkpt lat="47.83036" lon="6.87628">
        <ele>1087.8</ele>
        <time>2026-08-27T04:29:02.874Z</time>
      </trkpt>
      <trkpt lat="47.83036" lon="6.8763">
        <ele>1087.7</ele>
        <time>2026-08-27T04:29:04.034Z</time>
      </trkpt>
      <trkpt lat="47.83037" lon="6.87631">
        <ele>1087.4</ele>
        <time>2026-08-27T04:29:05.294Z</time>
      </trkpt>
      <trkpt lat="47.83037" lon="6.87633">
        <ele>1087.3</ele>
        <time>2026-08-27T04:29:06.453Z</time>
      </trkpt>
      <trkpt lat="47.83037" lon="6.87634">
        <ele>1087</ele>
        <time>2026-08-27T04:29:07.520Z</time>
      </trkpt>
      <trkpt lat="47.83038" lon="6.87636">
        <ele>1087</ele>
        <time>2026-08-27T04:29:08.594Z</time>
      </trkpt>
      <trkpt lat="47.83038" lon="6.87637">
        <ele>1086.9</ele>
        <time>2026-08-27T04:29:09.897Z</time>
      </trkpt>
      <trkpt lat="47.83039" lon="6.87638">
        <ele>1086.7</ele>
        <time>2026-08-27T04:29:10.981Z</time>
      </trkpt>
      <trkpt lat="47.8304" lon="6.8764">
        <ele>1086.4</ele>
        <time>2026-08-27T04:29:11.989Z</time>
      </trkpt>
      <trkpt lat="47.83041" lon="6.87641">
        <ele>1086.2</ele>
        <time>2026-08-27T04:29:12.997Z</time>
      </trkpt>
      <trkpt lat="47.83041" lon="6.87642">
        <ele>1086.1</ele>
        <time>2026-08-27T04:29:14.005Z</time>
      </trkpt>
      <trkpt lat="47.83042" lon="6.87643">
        <ele>1085.9</ele>
        <time>2026-08-27T04:29:15.012Z</time>
      </trkpt>
      <trkpt lat="47.83043" lon="6.87645">
        <ele>1085.6</ele>
        <time>2026-08-27T04:29:16.936Z</time>
      </trkpt>
      <trkpt lat="47.83044" lon="6.87646">
        <ele>1085.3</ele>
        <time>2026-08-27T04:29:17.936Z</time>
      </trkpt>
      <trkpt lat="47.83045" lon="6.87646">
        <ele>1085.2</ele>
        <time>2026-08-27T04:29:18.943Z</time>
      </trkpt>
      <trkpt lat="47.83045" lon="6.87647">
        <ele>1085.2</ele>
        <time>2026-08-27T04:29:19.994Z</time>
      </trkpt>
      <trkpt lat="47.83045" lon="6.87649">
        <ele>1084.8</ele>
        <time>2026-08-27T04:29:21.967Z</time>
      </trkpt>
      <trkpt lat="47.83045" lon="6.87649">
        <ele>1084.8</ele>
        <time>2026-08-27T04:29:22.975Z</time>
      </trkpt>
      <trkpt lat="47.83046" lon="6.8765">
        <ele>1084.6</ele>
        <time>2026-08-27T04:29:23.983Z</time>
      </trkpt>
      <trkpt lat="47.83047" lon="6.87652">
        <ele>1084.6</ele>
        <time>2026-08-27T04:29:25.958Z</time>
      </trkpt>
      <trkpt lat="47.83047" lon="6.87653">
        <ele>1084.6</ele>
        <time>2026-08-27T04:29:27.008Z</time>
      </trkpt>
      <trkpt lat="47.83047" lon="6.87654">
        <ele>1084.6</ele>
        <time>2026-08-27T04:29:28.016Z</time>
      </trkpt>
      <trkpt lat="47.83049" lon="6.87655">
        <ele>1084.5</ele>
        <time>2026-08-27T04:29:30.032Z</time>
      </trkpt>
      <trkpt lat="47.8305" lon="6.87656">
        <ele>1084.5</ele>
        <time>2026-08-27T04:29:31.948Z</time>
      </trkpt>
      <trkpt lat="47.83051" lon="6.87657">
        <ele>1084.5</ele>
        <time>2026-08-27T04:29:32.956Z</time>
      </trkpt>
      <trkpt lat="47.83051" lon="6.87658">
        <ele>1084.6</ele>
        <time>2026-08-27T04:29:33.963Z</time>
      </trkpt>
      <trkpt lat="47.83052" lon="6.87659">
        <ele>1084.6</ele>
        <time>2026-08-27T04:29:34.997Z</time>
      </trkpt>
      <trkpt lat="47.83053" lon="6.87661">
        <ele>1083.5</ele>
        <time>2026-08-27T04:29:37.013Z</time>
      </trkpt>
      <trkpt lat="47.83054" lon="6.87663">
        <ele>1083.5</ele>
        <time>2026-08-27T04:29:39.004Z</time>
      </trkpt>
      <trkpt lat="47.83054" lon="6.87667">
        <ele>1083.5</ele>
        <time>2026-08-27T04:29:41.019Z</time>
      </trkpt>
      <trkpt lat="47.83054" lon="6.87669">
        <ele>1083.4</ele>
        <time>2026-08-27T04:29:42.028Z</time>
      </trkpt>
      <trkpt lat="47.83053" lon="6.87671">
        <ele>1083.4</ele>
        <time>2026-08-27T04:29:43.037Z</time>
      </trkpt>
      <trkpt lat="47.83053" lon="6.87673">
        <ele>1083.2</ele>
        <time>2026-08-27T04:29:44.044Z</time>
      </trkpt>
      <trkpt lat="47.83052" lon="6.87677">
        <ele>1083.2</ele>
        <time>2026-08-27T04:29:45.959Z</time>
      </trkpt>
      <trkpt lat="47.83052" lon="6.87681">
        <ele>1083.1</ele>
        <time>2026-08-27T04:29:47.975Z</time>
      </trkpt>
      <trkpt lat="47.83051" lon="6.87682">
        <ele>1083.1</ele>
        <time>2026-08-27T04:29:48.984Z</time>
      </trkpt>
      <trkpt lat="47.83051" lon="6.87684">
        <ele>1083</ele>
        <time>2026-08-27T04:29:49.991Z</time>
      </trkpt>
      <trkpt lat="47.83052" lon="6.87686">
        <ele>1083</ele>
        <time>2026-08-27T04:29:51.000Z</time>
      </trkpt>
      <trkpt lat="47.83052" lon="6.87687">
        <ele>1083.1</ele>
        <time>2026-08-27T04:29:52.008Z</time>
      </trkpt>
      <trkpt lat="47.83053" lon="6.87689">
        <ele>1083.1</ele>
        <time>2026-08-27T04:29:53.015Z</time>
      </trkpt>
      <trkpt lat="47.83053" lon="6.87691">
        <ele>1083</ele>
        <time>2026-08-27T04:29:54.024Z</time>
      </trkpt>
      <trkpt lat="47.83053" lon="6.87692">
        <ele>1082.9</ele>
        <time>2026-08-27T04:29:55.032Z</time>
      </trkpt>
      <trkpt lat="47.83053" lon="6.87694">
        <ele>1083</ele>
        <time>2026-08-27T04:29:56.040Z</time>
      </trkpt>
      <trkpt lat="47.83054" lon="6.87696">
        <ele>1083</ele>
        <time>2026-08-27T04:29:57.954Z</time>
      </trkpt>
      <trkpt lat="47.83055" lon="6.87698">
        <ele>1083</ele>
        <time>2026-08-27T04:29:58.962Z</time>
      </trkpt>
      <trkpt lat="47.83055" lon="6.87699">
        <ele>1083</ele>
        <time>2026-08-27T04:29:59.970Z</time>
      </trkpt>
      <trkpt lat="47.83056" lon="6.87703">
        <ele>1083</ele>
        <time>2026-08-27T04:30:02.053Z</time>
      </trkpt>
      <trkpt lat="47.83057" lon="6.87705">
        <ele>1083.1</ele>
        <time>2026-08-27T04:30:04.002Z</time>
      </trkpt>
      <trkpt lat="47.83057" lon="6.87706">
        <ele>1083.2</ele>
        <time>2026-08-27T04:30:05.052Z</time>
      </trkpt>
      <trkpt lat="47.83058" lon="6.87708">
        <ele>1083.3</ele>
        <time>2026-08-27T04:30:07.026Z</time>
      </trkpt>
      <trkpt lat="47.83058" lon="6.8771">
        <ele>1083.4</ele>
        <time>2026-08-27T04:30:08.034Z</time>
      </trkpt>
      <trkpt lat="47.83059" lon="6.87711">
        <ele>1083.4</ele>
        <time>2026-08-27T04:30:09.034Z</time>
      </trkpt>
      <trkpt lat="47.8306" lon="6.87713">
        <ele>1083.6</ele>
        <time>2026-08-27T04:30:11.058Z</time>
      </trkpt>
      <trkpt lat="47.83061" lon="6.87716">
        <ele>1083.9</ele>
        <time>2026-08-27T04:30:12.973Z</time>
      </trkpt>
      <trkpt lat="47.83062" lon="6.87717">
        <ele>1084</ele>
        <time>2026-08-27T04:30:13.981Z</time>
      </trkpt>
      <trkpt lat="47.83063" lon="6.87719">
        <ele>1084</ele>
        <time>2026-08-27T04:30:15.015Z</time>
      </trkpt>
      <trkpt lat="47.83064" lon="6.87722">
        <ele>1084.1</ele>
        <time>2026-08-27T04:30:17.005Z</time>
      </trkpt>
      <trkpt lat="47.83064" lon="6.87723">
        <ele>1084.1</ele>
        <time>2026-08-27T04:30:18.039Z</time>
      </trkpt>
      <trkpt lat="47.83065" lon="6.87726">
        <ele>1084.3</ele>
        <time>2026-08-27T04:30:19.954Z</time>
      </trkpt>
      <trkpt lat="47.83065" lon="6.87728">
        <ele>1084.4</ele>
        <time>2026-08-27T04:30:21.037Z</time>
      </trkpt>
      <trkpt lat="47.83065" lon="6.8773">
        <ele>1084.4</ele>
        <time>2026-08-27T04:30:22.045Z</time>
      </trkpt>
      <trkpt lat="47.83066" lon="6.87733">
        <ele>1084.5</ele>
        <time>2026-08-27T04:30:23.960Z</time>
      </trkpt>
      <trkpt lat="47.83066" lon="6.87733">
        <ele>1084.5</ele>
        <time>2026-08-27T04:30:24.968Z</time>
      </trkpt>
      <trkpt lat="47.83067" lon="6.87734">
        <ele>1084.5</ele>
        <time>2026-08-27T04:30:25.977Z</time>
      </trkpt>
      <trkpt lat="47.83067" lon="6.87735">
        <ele>1084.4</ele>
        <time>2026-08-27T04:30:26.984Z</time>
      </trkpt>
      <trkpt lat="47.83068" lon="6.87735">
        <ele>1084.4</ele>
        <time>2026-08-27T04:30:27.992Z</time>
      </trkpt>
      <trkpt lat="47.83068" lon="6.87737">
        <ele>1084.3</ele>
        <time>2026-08-27T04:30:29.001Z</time>
      </trkpt>
      <trkpt lat="47.83069" lon="6.87738">
        <ele>1084.1</ele>
        <time>2026-08-27T04:30:30.008Z</time>
      </trkpt>
      <trkpt lat="47.83069" lon="6.87739">
        <ele>1084</ele>
        <time>2026-08-27T04:30:31.017Z</time>
      </trkpt>
      <trkpt lat="47.83069" lon="6.87741">
        <ele>1083.7</ele>
        <time>2026-08-27T04:30:32.025Z</time>
      </trkpt>
      <trkpt lat="47.8307" lon="6.87742">
        <ele>1083.6</ele>
        <time>2026-08-27T04:30:33.032Z</time>
      </trkpt>
      <trkpt lat="47.8307" lon="6.87742">
        <ele>1083.4</ele>
        <time>2026-08-27T04:30:34.040Z</time>
      </trkpt>
      <trkpt lat="47.8307" lon="6.87743">
        <ele>1083.4</ele>
        <time>2026-08-27T04:30:35.048Z</time>
      </trkpt>
      <trkpt lat="47.83071" lon="6.87744">
        <ele>1083</ele>
        <time>2026-08-27T04:30:36.056Z</time>
      </trkpt>
      <trkpt lat="47.83073" lon="6.87745">
        <ele>1082.9</ele>
        <time>2026-08-27T04:30:37.897Z</time>
      </trkpt>
      <trkpt lat="47.83074" lon="6.87746">
        <ele>1082.7</ele>
        <time>2026-08-27T04:30:39.055Z</time>
      </trkpt>
      <trkpt lat="47.83075" lon="6.87747">
        <ele>1082.2</ele>
        <time>2026-08-27T04:30:40.953Z</time>
      </trkpt>
      <trkpt lat="47.83075" lon="6.87748">
        <ele>1081.9</ele>
        <time>2026-08-27T04:30:42.003Z</time>
      </trkpt>
      <trkpt lat="47.83075" lon="6.87748">
        <ele>1081.7</ele>
        <time>2026-08-27T04:30:43.012Z</time>
      </trkpt>
      <trkpt lat="47.83075" lon="6.87749">
        <ele>1081.6</ele>
        <time>2026-08-27T04:30:44.019Z</time>
      </trkpt>
      <trkpt lat="47.83075" lon="6.87751">
        <ele>1081.2</ele>
        <time>2026-08-27T04:30:45.934Z</time>
      </trkpt>
      <trkpt lat="47.83075" lon="6.87752">
        <ele>1081.2</ele>
        <time>2026-08-27T04:30:46.935Z</time>
      </trkpt>
      <trkpt lat="47.83076" lon="6.87753">
        <ele>1080.9</ele>
        <time>2026-08-27T04:30:47.950Z</time>
      </trkpt>
      <trkpt lat="47.83076" lon="6.87753">
        <ele>1080.9</ele>
        <time>2026-08-27T04:30:48.958Z</time>
      </trkpt>
      <trkpt lat="47.83076" lon="6.87754">
        <ele>1080.7</ele>
        <time>2026-08-27T04:30:49.967Z</time>
      </trkpt>
      <trkpt lat="47.83077" lon="6.87755">
        <ele>1080.6</ele>
        <time>2026-08-27T04:30:50.974Z</time>
      </trkpt>
      <trkpt lat="47.83077" lon="6.87755">
        <ele>1080.6</ele>
        <time>2026-08-27T04:30:51.974Z</time>
      </trkpt>
      <trkpt lat="47.83077" lon="6.87756">
        <ele>1080.3</ele>
        <time>2026-08-27T04:30:52.990Z</time>
      </trkpt>
      <trkpt lat="47.83077" lon="6.87758">
        <ele>1079.9</ele>
        <time>2026-08-27T04:30:55.057Z</time>
      </trkpt>
      <trkpt lat="47.83078" lon="6.8776">
        <ele>1079.6</ele>
        <time>2026-08-27T04:30:57.057Z</time>
      </trkpt>
      <trkpt lat="47.83079" lon="6.87762">
        <ele>1079.3</ele>
        <time>2026-08-27T04:30:58.937Z</time>
      </trkpt>
      <trkpt lat="47.83079" lon="6.87763">
        <ele>1079.3</ele>
        <time>2026-08-27T04:31:00.012Z</time>
      </trkpt>
      <trkpt lat="47.83081" lon="6.87764">
        <ele>1078.8</ele>
        <time>2026-08-27T04:31:01.962Z</time>
      </trkpt>
      <trkpt lat="47.83081" lon="6.87765">
        <ele>1078.5</ele>
        <time>2026-08-27T04:31:02.970Z</time>
      </trkpt>
      <trkpt lat="47.83082" lon="6.87766">
        <ele>1078.4</ele>
        <time>2026-08-27T04:31:03.978Z</time>
      </trkpt>
      <trkpt lat="47.83082" lon="6.87767">
        <ele>1078.2</ele>
        <time>2026-08-27T04:31:04.985Z</time>
      </trkpt>
      <trkpt lat="47.83083" lon="6.87767">
        <ele>1077.9</ele>
        <time>2026-08-27T04:31:05.993Z</time>
      </trkpt>
      <trkpt lat="47.83084" lon="6.87768">
        <ele>1077.6</ele>
        <time>2026-08-27T04:31:07.001Z</time>
      </trkpt>
      <trkpt lat="47.83085" lon="6.8777">
        <ele>1077.5</ele>
        <time>2026-08-27T04:31:08.916Z</time>
      </trkpt>
      <trkpt lat="47.83086" lon="6.87771">
        <ele>1077.4</ele>
        <time>2026-08-27T04:31:10.033Z</time>
      </trkpt>
      <trkpt lat="47.83088" lon="6.87774">
        <ele>1077</ele>
        <time>2026-08-27T04:31:12.042Z</time>
      </trkpt>
      <trkpt lat="47.8309" lon="6.87775">
        <ele>1076.8</ele>
        <time>2026-08-27T04:31:13.856Z</time>
      </trkpt>
      <trkpt lat="47.8309" lon="6.87777">
        <ele>1076.8</ele>
        <time>2026-08-27T04:31:15.039Z</time>
      </trkpt>
      <trkpt lat="47.83092" lon="6.87778">
        <ele>1076.3</ele>
        <time>2026-08-27T04:31:16.981Z</time>
      </trkpt>
      <trkpt lat="47.83092" lon="6.87779">
        <ele>1076.4</ele>
        <time>2026-08-27T04:31:17.988Z</time>
      </trkpt>
      <trkpt lat="47.83093" lon="6.8778">
        <ele>1076.2</ele>
        <time>2026-08-27T04:31:18.996Z</time>
      </trkpt>
      <trkpt lat="47.83093" lon="6.8778">
        <ele>1076.4</ele>
        <time>2026-08-27T04:31:20.005Z</time>
      </trkpt>
      <trkpt lat="47.83094" lon="6.87781">
        <ele>1076.3</ele>
        <time>2026-08-27T04:31:21.012Z</time>
      </trkpt>
      <trkpt lat="47.83094" lon="6.87782">
        <ele>1076.3</ele>
        <time>2026-08-27T04:31:22.020Z</time>
      </trkpt>
      <trkpt lat="47.83094" lon="6.87783">
        <ele>1076.3</ele>
        <time>2026-08-27T04:31:23.037Z</time>
      </trkpt>
      <trkpt lat="47.83095" lon="6.87784">
        <ele>1076.4</ele>
        <time>2026-08-27T04:31:24.037Z</time>
      </trkpt>
      <trkpt lat="47.83096" lon="6.87786">
        <ele>1076.2</ele>
        <time>2026-08-27T04:31:26.051Z</time>
      </trkpt>
      <trkpt lat="47.83097" lon="6.87787">
        <ele>1076.2</ele>
        <time>2026-08-27T04:31:27.976Z</time>
      </trkpt>
      <trkpt lat="47.83098" lon="6.87788">
        <ele>1076.1</ele>
        <time>2026-08-27T04:31:29.983Z</time>
      </trkpt>
      <trkpt lat="47.83099" lon="6.87789">
        <ele>1076.1</ele>
        <time>2026-08-27T04:31:31.016Z</time>
      </trkpt>
      <trkpt lat="47.831" lon="6.87791">
        <ele>1076.1</ele>
        <time>2026-08-27T04:31:33.015Z</time>
      </trkpt>
      <trkpt lat="47.83101" lon="6.87793">
        <ele>1075.9</ele>
        <time>2026-08-27T04:31:35.023Z</time>
      </trkpt>
      <trkpt lat="47.83102" lon="6.87796">
        <ele>1076</ele>
        <time>2026-08-27T04:31:37.038Z</time>
      </trkpt>
      <trkpt lat="47.83103" lon="6.87797">
        <ele>1075.8</ele>
        <time>2026-08-27T04:31:38.047Z</time>
      </trkpt>
      <trkpt lat="47.83103" lon="6.878">
        <ele>1075.6</ele>
        <time>2026-08-27T04:31:39.953Z</time>
      </trkpt>
      <trkpt lat="47.83104" lon="6.87802">
        <ele>1075.6</ele>
        <time>2026-08-27T04:31:41.054Z</time>
      </trkpt>
      <trkpt lat="47.83105" lon="6.87805">
        <ele>1075.5</ele>
        <time>2026-08-27T04:31:42.986Z</time>
      </trkpt>
      <trkpt lat="47.83106" lon="6.87806">
        <ele>1075.4</ele>
        <time>2026-08-27T04:31:43.993Z</time>
      </trkpt>
      <trkpt lat="47.83106" lon="6.87807">
        <ele>1075.4</ele>
        <time>2026-08-27T04:31:45.002Z</time>
      </trkpt>
      <trkpt lat="47.83107" lon="6.87808">
        <ele>1075.3</ele>
        <time>2026-08-27T04:31:46.009Z</time>
      </trkpt>
      <trkpt lat="47.83107" lon="6.87809">
        <ele>1075.3</ele>
        <time>2026-08-27T04:31:47.059Z</time>
      </trkpt>
      <trkpt lat="47.83108" lon="6.87812">
        <ele>1075.2</ele>
        <time>2026-08-27T04:31:49.033Z</time>
      </trkpt>
      <trkpt lat="47.83109" lon="6.87814">
        <ele>1075.2</ele>
        <time>2026-08-27T04:31:50.042Z</time>
      </trkpt>
      <trkpt lat="47.83109" lon="6.87817">
        <ele>1075</ele>
        <time>2026-08-27T04:31:51.956Z</time>
      </trkpt>
      <trkpt lat="47.8311" lon="6.87819">
        <ele>1075</ele>
        <time>2026-08-27T04:31:52.956Z</time>
      </trkpt>
      <trkpt lat="47.8311" lon="6.87821">
        <ele>1075.1</ele>
        <time>2026-08-27T04:31:53.972Z</time>
      </trkpt>
      <trkpt lat="47.8311" lon="6.87823">
        <ele>1075.1</ele>
        <time>2026-08-27T04:31:54.980Z</time>
      </trkpt>
      <trkpt lat="47.83111" lon="6.87824">
        <ele>1075.1</ele>
        <time>2026-08-27T04:31:56.038Z</time>
      </trkpt>
      <trkpt lat="47.83112" lon="6.87827">
        <ele>1075.2</ele>
        <time>2026-08-27T04:31:58.005Z</time>
      </trkpt>
      <trkpt lat="47.83112" lon="6.8783">
        <ele>1075.4</ele>
        <time>2026-08-27T04:32:00.053Z</time>
      </trkpt>
      <trkpt lat="47.83113" lon="6.87832">
        <ele>1075.6</ele>
        <time>2026-08-27T04:32:02.037Z</time>
      </trkpt>
      <trkpt lat="47.83114" lon="6.87833">
        <ele>1075.6</ele>
        <time>2026-08-27T04:32:03.045Z</time>
      </trkpt>
      <trkpt lat="47.83115" lon="6.87835">
        <ele>1075.5</ele>
        <time>2026-08-27T04:32:04.960Z</time>
      </trkpt>
      <trkpt lat="47.83115" lon="6.87837">
        <ele>1075.6</ele>
        <time>2026-08-27T04:32:05.968Z</time>
      </trkpt>
      <trkpt lat="47.83115" lon="6.87838">
        <ele>1075.6</ele>
        <time>2026-08-27T04:32:07.075Z</time>
      </trkpt>
      <trkpt lat="47.83116" lon="6.87841">
        <ele>1075.6</ele>
        <time>2026-08-27T04:32:08.992Z</time>
      </trkpt>
      <trkpt lat="47.83117" lon="6.87843">
        <ele>1075.5</ele>
        <time>2026-08-27T04:32:11.006Z</time>
      </trkpt>
      <trkpt lat="47.83118" lon="6.87844">
        <ele>1075.5</ele>
        <time>2026-08-27T04:32:12.014Z</time>
      </trkpt>
      <trkpt lat="47.83118" lon="6.87845">
        <ele>1075.5</ele>
        <time>2026-08-27T04:32:13.022Z</time>
      </trkpt>
      <trkpt lat="47.83118" lon="6.87846">
        <ele>1075.5</ele>
        <time>2026-08-27T04:32:14.031Z</time>
      </trkpt>
      <trkpt lat="47.83119" lon="6.87847">
        <ele>1075.5</ele>
        <time>2026-08-27T04:32:15.038Z</time>
      </trkpt>
      <trkpt lat="47.8312" lon="6.87849">
        <ele>1075.9</ele>
        <time>2026-08-27T04:32:16.954Z</time>
      </trkpt>
      <trkpt lat="47.8312" lon="6.8785">
        <ele>1076.1</ele>
        <time>2026-08-27T04:32:17.962Z</time>
      </trkpt>
      <trkpt lat="47.83121" lon="6.87851">
        <ele>1076.1</ele>
        <time>2026-08-27T04:32:18.995Z</time>
      </trkpt>
      <trkpt lat="47.83122" lon="6.87852">
        <ele>1076.2</ele>
        <time>2026-08-27T04:32:20.918Z</time>
      </trkpt>
      <trkpt lat="47.83122" lon="6.87853">
        <ele>1076.4</ele>
        <time>2026-08-27T04:32:21.993Z</time>
      </trkpt>
      <trkpt lat="47.83123" lon="6.87853">
        <ele>1076.5</ele>
        <time>2026-08-27T04:32:23.002Z</time>
      </trkpt>
      <trkpt lat="47.83124" lon="6.87854">
        <ele>1076.6</ele>
        <time>2026-08-27T04:32:25.018Z</time>
      </trkpt>
      <trkpt lat="47.83124" lon="6.87855">
        <ele>1076.8</ele>
        <time>2026-08-27T04:32:26.025Z</time>
      </trkpt>
      <trkpt lat="47.83124" lon="6.87856">
        <ele>1076.9</ele>
        <time>2026-08-27T04:32:27.033Z</time>
      </trkpt>
      <trkpt lat="47.83124" lon="6.87857">
        <ele>1077.1</ele>
        <time>2026-08-27T04:32:28.042Z</time>
      </trkpt>
      <trkpt lat="47.83124" lon="6.87858">
        <ele>1076.9</ele>
        <time>2026-08-27T04:32:29.049Z</time>
      </trkpt>
      <trkpt lat="47.83125" lon="6.87861">
        <ele>1076.9</ele>
        <time>2026-08-27T04:32:30.972Z</time>
      </trkpt>
      <trkpt lat="47.83125" lon="6.87862">
        <ele>1077</ele>
        <time>2026-08-27T04:32:32.039Z</time>
      </trkpt>
      <trkpt lat="47.83127" lon="6.87864">
        <ele>1076.6</ele>
        <time>2026-08-27T04:32:33.989Z</time>
      </trkpt>
      <trkpt lat="47.83127" lon="6.87865">
        <ele>1076.5</ele>
        <time>2026-08-27T04:32:34.996Z</time>
      </trkpt>
      <trkpt lat="47.83128" lon="6.87866">
        <ele>1076.1</ele>
        <time>2026-08-27T04:32:36.004Z</time>
      </trkpt>
      <trkpt lat="47.83129" lon="6.87867">
        <ele>1076.1</ele>
        <time>2026-08-27T04:32:37.013Z</time>
      </trkpt>
      <trkpt lat="47.8313" lon="6.8787">
        <ele>1075.4</ele>
        <time>2026-08-27T04:32:39.029Z</time>
      </trkpt>
      <trkpt lat="47.83131" lon="6.87871">
        <ele>1075.2</ele>
        <time>2026-08-27T04:32:40.036Z</time>
      </trkpt>
      <trkpt lat="47.83131" lon="6.87872">
        <ele>1075</ele>
        <time>2026-08-27T04:32:41.045Z</time>
      </trkpt>
      <trkpt lat="47.83132" lon="6.87874">
        <ele>1074.7</ele>
        <time>2026-08-27T04:32:42.959Z</time>
      </trkpt>
      <trkpt lat="47.83132" lon="6.87876">
        <ele>1074.5</ele>
        <time>2026-08-27T04:32:43.967Z</time>
      </trkpt>
      <trkpt lat="47.83132" lon="6.87877">
        <ele>1074.5</ele>
        <time>2026-08-27T04:32:44.975Z</time>
      </trkpt>
      <trkpt lat="47.83133" lon="6.8788">
        <ele>1074.2</ele>
        <time>2026-08-27T04:32:46.991Z</time>
      </trkpt>
      <trkpt lat="47.83133" lon="6.87882">
        <ele>1074</ele>
        <time>2026-08-27T04:32:47.999Z</time>
      </trkpt>
      <trkpt lat="47.83134" lon="6.87883">
        <ele>1074</ele>
        <time>2026-08-27T04:32:49.032Z</time>
      </trkpt>
      <trkpt lat="47.83134" lon="6.87884">
        <ele>1073.7</ele>
        <time>2026-08-27T04:32:50.073Z</time>
      </trkpt>
      <trkpt lat="47.83135" lon="6.87887">
        <ele>1073.5</ele>
        <time>2026-08-27T04:32:52.030Z</time>
      </trkpt>
      <trkpt lat="47.83136" lon="6.87888">
        <ele>1073.5</ele>
        <time>2026-08-27T04:32:53.056Z</time>
      </trkpt>
      <trkpt lat="47.83135" lon="6.87892">
        <ele>1072.8</ele>
        <time>2026-08-27T04:32:54.954Z</time>
      </trkpt>
      <trkpt lat="47.83135" lon="6.87893">
        <ele>1073</ele>
        <time>2026-08-27T04:32:55.961Z</time>
      </trkpt>
      <trkpt lat="47.83135" lon="6.87895">
        <ele>1072.6</ele>
        <time>2026-08-27T04:32:56.969Z</time>
      </trkpt>
      <trkpt lat="47.83135" lon="6.87897">
        <ele>1072.2</ele>
        <time>2026-08-27T04:32:57.977Z</time>
      </trkpt>
      <trkpt lat="47.83135" lon="6.87899">
        <ele>1072.2</ele>
        <time>2026-08-27T04:32:58.985Z</time>
      </trkpt>
      <trkpt lat="47.83135" lon="6.87901">
        <ele>1072.3</ele>
        <time>2026-08-27T04:32:59.993Z</time>
      </trkpt>
      <trkpt lat="47.83135" lon="6.87906">
        <ele>1072</ele>
        <time>2026-08-27T04:33:01.975Z</time>
      </trkpt>
      <trkpt lat="47.83134" lon="6.87908">
        <ele>1071.7</ele>
        <time>2026-08-27T04:33:03.017Z</time>
      </trkpt>
      <trkpt lat="47.83134" lon="6.8791">
        <ele>1071.5</ele>
        <time>2026-08-27T04:33:04.026Z</time>
      </trkpt>
      <trkpt lat="47.83133" lon="6.87912">
        <ele>1071.4</ele>
        <time>2026-08-27T04:33:05.033Z</time>
      </trkpt>
      <trkpt lat="47.83133" lon="6.87914">
        <ele>1071.2</ele>
        <time>2026-08-27T04:33:06.041Z</time>
      </trkpt>
      <trkpt lat="47.83134" lon="6.87918">
        <ele>1071</ele>
        <time>2026-08-27T04:33:08.058Z</time>
      </trkpt>
      <trkpt lat="47.83134" lon="6.87922">
        <ele>1070.9</ele>
        <time>2026-08-27T04:33:09.896Z</time>
      </trkpt>
      <trkpt lat="47.83134" lon="6.87924">
        <ele>1070.5</ele>
        <time>2026-08-27T04:33:10.981Z</time>
      </trkpt>
      <trkpt lat="47.83133" lon="6.87926">
        <ele>1070.2</ele>
        <time>2026-08-27T04:33:11.988Z</time>
      </trkpt>
      <trkpt lat="47.83133" lon="6.87927">
        <ele>1070</ele>
        <time>2026-08-27T04:33:12.996Z</time>
      </trkpt>
      <trkpt lat="47.83132" lon="6.87929">
        <ele>1069.9</ele>
        <time>2026-08-27T04:33:14.005Z</time>
      </trkpt>
      <trkpt lat="47.83131" lon="6.8793">
        <ele>1069.8</ele>
        <time>2026-08-27T04:33:15.012Z</time>
      </trkpt>
      <trkpt lat="47.83131" lon="6.87932">
        <ele>1069.7</ele>
        <time>2026-08-27T04:33:16.021Z</time>
      </trkpt>
      <trkpt lat="47.8313" lon="6.87933">
        <ele>1069.6</ele>
        <time>2026-08-27T04:33:17.029Z</time>
      </trkpt>
      <trkpt lat="47.8313" lon="6.87934">
        <ele>1069.7</ele>
        <time>2026-08-27T04:33:18.036Z</time>
      </trkpt>
      <trkpt lat="47.83128" lon="6.87936">
        <ele>1069.6</ele>
        <time>2026-08-27T04:33:20.018Z</time>
      </trkpt>
      <trkpt lat="47.83127" lon="6.87938">
        <ele>1069.3</ele>
        <time>2026-08-27T04:33:21.967Z</time>
      </trkpt>
      <trkpt lat="47.83126" lon="6.87939">
        <ele>1069</ele>
        <time>2026-08-27T04:33:22.974Z</time>
      </trkpt>
      <trkpt lat="47.83125" lon="6.87939">
        <ele>1068.9</ele>
        <time>2026-08-27T04:33:23.983Z</time>
      </trkpt>
      <trkpt lat="47.83124" lon="6.8794">
        <ele>1068.7</ele>
        <time>2026-08-27T04:33:24.990Z</time>
      </trkpt>
      <trkpt lat="47.83123" lon="6.87941">
        <ele>1068.5</ele>
        <time>2026-08-27T04:33:25.998Z</time>
      </trkpt>
      <trkpt lat="47.83123" lon="6.87942">
        <ele>1068.4</ele>
        <time>2026-08-27T04:33:27.006Z</time>
      </trkpt>
      <trkpt lat="47.83122" lon="6.87943">
        <ele>1068.1</ele>
        <time>2026-08-27T04:33:28.014Z</time>
      </trkpt>
      <trkpt lat="47.83121" lon="6.87944">
        <ele>1067.8</ele>
        <time>2026-08-27T04:33:29.022Z</time>
      </trkpt>
      <trkpt lat="47.8312" lon="6.87946">
        <ele>1067.5</ele>
        <time>2026-08-27T04:33:30.980Z</time>
      </trkpt>
      <trkpt lat="47.83118" lon="6.87946">
        <ele>1067.1</ele>
        <time>2026-08-27T04:33:32.995Z</time>
      </trkpt>
      <trkpt lat="47.83117" lon="6.87947">
        <ele>1066.1</ele>
        <time>2026-08-27T04:33:34.969Z</time>
      </trkpt>
      <trkpt lat="47.83117" lon="6.87947">
        <ele>1065.9</ele>
        <time>2026-08-27T04:33:35.977Z</time>
      </trkpt>
      <trkpt lat="47.83116" lon="6.87948">
        <ele>1065.7</ele>
        <time>2026-08-27T04:33:36.985Z</time>
      </trkpt>
      <trkpt lat="47.83116" lon="6.87951">
        <ele>1065.5</ele>
        <time>2026-08-27T04:33:39.036Z</time>
      </trkpt>
      <trkpt lat="47.83115" lon="6.87954">
        <ele>1064.7</ele>
        <time>2026-08-27T04:33:41.017Z</time>
      </trkpt>
      <trkpt lat="47.83115" lon="6.87955">
        <ele>1064.3</ele>
        <time>2026-08-27T04:33:43.033Z</time>
      </trkpt>
      <trkpt lat="47.83115" lon="6.87956">
        <ele>1064.1</ele>
        <time>2026-08-27T04:33:44.041Z</time>
      </trkpt>
      <trkpt lat="47.83115" lon="6.87957">
        <ele>1063.9</ele>
        <time>2026-08-27T04:33:45.957Z</time>
      </trkpt>
      <trkpt lat="47.83115" lon="6.87958">
        <ele>1063.7</ele>
        <time>2026-08-27T04:33:46.965Z</time>
      </trkpt>
      <trkpt lat="47.83116" lon="6.87959">
        <ele>1063.7</ele>
        <time>2026-08-27T04:33:47.973Z</time>
      </trkpt>
      <trkpt lat="47.83115" lon="6.87962">
        <ele>1063.7</ele>
        <time>2026-08-27T04:33:49.989Z</time>
      </trkpt>
      <trkpt lat="47.83115" lon="6.87963">
        <ele>1063.5</ele>
        <time>2026-08-27T04:33:50.996Z</time>
      </trkpt>
      <trkpt lat="47.83115" lon="6.87965">
        <ele>1063.6</ele>
        <time>2026-08-27T04:33:52.004Z</time>
      </trkpt>
      <trkpt lat="47.83114" lon="6.87968">
        <ele>1063.8</ele>
        <time>2026-08-27T04:33:54.019Z</time>
      </trkpt>
      <trkpt lat="47.83113" lon="6.87969">
        <ele>1063.9</ele>
        <time>2026-08-27T04:33:55.027Z</time>
      </trkpt>
      <trkpt lat="47.83113" lon="6.87971">
        <ele>1064.1</ele>
        <time>2026-08-27T04:33:56.035Z</time>
      </trkpt>
      <trkpt lat="47.83113" lon="6.87973">
        <ele>1063.9</ele>
        <time>2026-08-27T04:33:57.043Z</time>
      </trkpt>
      <trkpt lat="47.83113" lon="6.87976">
        <ele>1064.3</ele>
        <time>2026-08-27T04:33:58.959Z</time>
      </trkpt>
      <trkpt lat="47.83113" lon="6.87978">
        <ele>1064.4</ele>
        <time>2026-08-27T04:33:59.966Z</time>
      </trkpt>
      <trkpt lat="47.83113" lon="6.87981">
        <ele>1064.6</ele>
        <time>2026-08-27T04:34:01.982Z</time>
      </trkpt>
      <trkpt lat="47.83114" lon="6.87983">
        <ele>1064.7</ele>
        <time>2026-08-27T04:34:02.990Z</time>
      </trkpt>
      <trkpt lat="47.83114" lon="6.87984">
        <ele>1064.7</ele>
        <time>2026-08-27T04:34:03.999Z</time>
      </trkpt>
      <trkpt lat="47.83114" lon="6.87986">
        <ele>1064.8</ele>
        <time>2026-08-27T04:34:05.006Z</time>
      </trkpt>
      <trkpt lat="47.83114" lon="6.87988">
        <ele>1064.8</ele>
        <time>2026-08-27T04:34:06.039Z</time>
      </trkpt>
      <trkpt lat="47.83113" lon="6.87991">
        <ele>1065</ele>
        <time>2026-08-27T04:34:08.030Z</time>
      </trkpt>
      <trkpt lat="47.83113" lon="6.87992">
        <ele>1065.1</ele>
        <time>2026-08-27T04:34:09.039Z</time>
      </trkpt>
      <trkpt lat="47.83112" lon="6.87996">
        <ele>1065.1</ele>
        <time>2026-08-27T04:34:10.954Z</time>
      </trkpt>
      <trkpt lat="47.83112" lon="6.87997">
        <ele>1065.1</ele>
        <time>2026-08-27T04:34:11.961Z</time>
      </trkpt>
      <trkpt lat="47.83112" lon="6.87999">
        <ele>1065.2</ele>
        <time>2026-08-27T04:34:12.969Z</time>
      </trkpt>
      <trkpt lat="47.83112" lon="6.88003">
        <ele>1065.1</ele>
        <time>2026-08-27T04:34:14.985Z</time>
      </trkpt>
      <trkpt lat="47.83112" lon="6.88004">
        <ele>1065.2</ele>
        <time>2026-08-27T04:34:15.993Z</time>
      </trkpt>
      <trkpt lat="47.83112" lon="6.88006">
        <ele>1065.2</ele>
        <time>2026-08-27T04:34:17.002Z</time>
      </trkpt>
      <trkpt lat="47.83111" lon="6.88009">
        <ele>1065.4</ele>
        <time>2026-08-27T04:34:19.018Z</time>
      </trkpt>
      <trkpt lat="47.83111" lon="6.88011">
        <ele>1065.4</ele>
        <time>2026-08-27T04:34:20.025Z</time>
      </trkpt>
      <trkpt lat="47.83111" lon="6.88012">
        <ele>1065.5</ele>
        <time>2026-08-27T04:34:21.032Z</time>
      </trkpt>
      <trkpt lat="47.83111" lon="6.88014">
        <ele>1065.5</ele>
        <time>2026-08-27T04:34:22.040Z</time>
      </trkpt>
      <trkpt lat="47.83111" lon="6.88017">
        <ele>1065.6</ele>
        <time>2026-08-27T04:34:23.956Z</time>
      </trkpt>
      <trkpt lat="47.8311" lon="6.88018">
        <ele>1065.6</ele>
        <time>2026-08-27T04:34:24.956Z</time>
      </trkpt>
      <trkpt lat="47.8311" lon="6.8802">
        <ele>1065.8</ele>
        <time>2026-08-27T04:34:25.971Z</time>
      </trkpt>
      <trkpt lat="47.8311" lon="6.88021">
        <ele>1065.8</ele>
        <time>2026-08-27T04:34:26.979Z</time>
      </trkpt>
      <trkpt lat="47.83109" lon="6.88023">
        <ele>1065.9</ele>
        <time>2026-08-27T04:34:27.988Z</time>
      </trkpt>
      <trkpt lat="47.83109" lon="6.88025">
        <ele>1065.9</ele>
        <time>2026-08-27T04:34:28.995Z</time>
      </trkpt>
      <trkpt lat="47.83109" lon="6.88027">
        <ele>1066</ele>
        <time>2026-08-27T04:34:30.004Z</time>
      </trkpt>
      <trkpt lat="47.83109" lon="6.88029">
        <ele>1066.1</ele>
        <time>2026-08-27T04:34:31.012Z</time>
      </trkpt>
      <trkpt lat="47.83108" lon="6.88031">
        <ele>1066.2</ele>
        <time>2026-08-27T04:34:32.019Z</time>
      </trkpt>
      <trkpt lat="47.83108" lon="6.88033">
        <ele>1066.2</ele>
        <time>2026-08-27T04:34:34.035Z</time>
      </trkpt>
      <trkpt lat="47.83107" lon="6.88034">
        <ele>1066.2</ele>
        <time>2026-08-27T04:34:35.043Z</time>
      </trkpt>
      <trkpt lat="47.83107" lon="6.88035">
        <ele>1066.3</ele>
        <time>2026-08-27T04:34:36.051Z</time>
      </trkpt>
      <trkpt lat="47.83107" lon="6.88038">
        <ele>1066.5</ele>
        <time>2026-08-27T04:34:37.966Z</time>
      </trkpt>
      <trkpt lat="47.83106" lon="6.88039">
        <ele>1066.6</ele>
        <time>2026-08-27T04:34:38.975Z</time>
      </trkpt>
      <trkpt lat="47.83106" lon="6.8804">
        <ele>1066.6</ele>
        <time>2026-08-27T04:34:39.999Z</time>
      </trkpt>
      <trkpt lat="47.83106" lon="6.88044">
        <ele>1066.7</ele>
        <time>2026-08-27T04:34:41.998Z</time>
      </trkpt>
      <trkpt lat="47.83107" lon="6.88047">
        <ele>1066.9</ele>
        <time>2026-08-27T04:34:44.014Z</time>
      </trkpt>
      <trkpt lat="47.83107" lon="6.88049">
        <ele>1067</ele>
        <time>2026-08-27T04:34:45.022Z</time>
      </trkpt>
      <trkpt lat="47.83107" lon="6.88051">
        <ele>1067</ele>
        <time>2026-08-27T04:34:46.030Z</time>
      </trkpt>
      <trkpt lat="47.83107" lon="6.88052">
        <ele>1067.1</ele>
        <time>2026-08-27T04:34:47.038Z</time>
      </trkpt>
      <trkpt lat="47.83107" lon="6.88054">
        <ele>1067</ele>
        <time>2026-08-27T04:34:48.045Z</time>
      </trkpt>
      <trkpt lat="47.83108" lon="6.88057">
        <ele>1067.3</ele>
        <time>2026-08-27T04:34:49.962Z</time>
      </trkpt>
      <trkpt lat="47.83108" lon="6.8806">
        <ele>1067.6</ele>
        <time>2026-08-27T04:34:51.976Z</time>
      </trkpt>
      <trkpt lat="47.83108" lon="6.88061">
        <ele>1067.7</ele>
        <time>2026-08-27T04:34:52.985Z</time>
      </trkpt>
      <trkpt lat="47.83108" lon="6.88062">
        <ele>1067.8</ele>
        <time>2026-08-27T04:34:54.061Z</time>
      </trkpt>
      <trkpt lat="47.83107" lon="6.88064">
        <ele>1067.8</ele>
        <time>2026-08-27T04:34:56.009Z</time>
      </trkpt>
      <trkpt lat="47.83107" lon="6.88066">
        <ele>1067.8</ele>
        <time>2026-08-27T04:34:57.016Z</time>
      </trkpt>
      <trkpt lat="47.83107" lon="6.88067">
        <ele>1067.8</ele>
        <time>2026-08-27T04:34:58.024Z</time>
      </trkpt>
      <trkpt lat="47.83107" lon="6.88069">
        <ele>1067.9</ele>
        <time>2026-08-27T04:34:59.033Z</time>
      </trkpt>
      <trkpt lat="47.83108" lon="6.8807">
        <ele>1067.9</ele>
        <time>2026-08-27T04:35:00.041Z</time>
      </trkpt>
      <trkpt lat="47.83109" lon="6.88073">
        <ele>1067.8</ele>
        <time>2026-08-27T04:35:01.955Z</time>
      </trkpt>
      <trkpt lat="47.83109" lon="6.88074">
        <ele>1067.8</ele>
        <time>2026-08-27T04:35:02.963Z</time>
      </trkpt>
      <trkpt lat="47.8311" lon="6.88076">
        <ele>1067.9</ele>
        <time>2026-08-27T04:35:03.972Z</time>
      </trkpt>
      <trkpt lat="47.8311" lon="6.88077">
        <ele>1068</ele>
        <time>2026-08-27T04:35:04.979Z</time>
      </trkpt>
      <trkpt lat="47.83109" lon="6.88078">
        <ele>1068.2</ele>
        <time>2026-08-27T04:35:05.987Z</time>
      </trkpt>
      <trkpt lat="47.8311" lon="6.88078">
        <ele>1068.2</ele>
        <time>2026-08-27T04:35:06.995Z</time>
      </trkpt>
      <trkpt lat="47.8311" lon="6.8808">
        <ele>1068.2</ele>
        <time>2026-08-27T04:35:08.003Z</time>
      </trkpt>
      <trkpt lat="47.8311" lon="6.88081">
        <ele>1068</ele>
        <time>2026-08-27T04:35:09.012Z</time>
      </trkpt>
      <trkpt lat="47.8311" lon="6.88082">
        <ele>1068</ele>
        <time>2026-08-27T04:35:10.019Z</time>
      </trkpt>
      <trkpt lat="47.83111" lon="6.88084">
        <ele>1067.9</ele>
        <time>2026-08-27T04:35:11.027Z</time>
      </trkpt>
      <trkpt lat="47.83111" lon="6.88086">
        <ele>1067.8</ele>
        <time>2026-08-27T04:35:13.043Z</time>
      </trkpt>
      <trkpt lat="47.83112" lon="6.88086">
        <ele>1068.2</ele>
        <time>2026-08-27T04:35:14.051Z</time>
      </trkpt>
      <trkpt lat="47.83113" lon="6.88089">
        <ele>1068.2</ele>
        <time>2026-08-27T04:35:16.033Z</time>
      </trkpt>
      <trkpt lat="47.83113" lon="6.88089">
        <ele>1068.3</ele>
        <time>2026-08-27T04:35:17.059Z</time>
      </trkpt>
      <trkpt lat="47.83113" lon="6.88091">
        <ele>1068.4</ele>
        <time>2026-08-27T04:35:19.031Z</time>
      </trkpt>
      <trkpt lat="47.83113" lon="6.88093">
        <ele>1068.2</ele>
        <time>2026-08-27T04:35:21.005Z</time>
      </trkpt>
      <trkpt lat="47.83112" lon="6.88096">
        <ele>1068.5</ele>
        <time>2026-08-27T04:35:23.022Z</time>
      </trkpt>
      <trkpt lat="47.83112" lon="6.88098">
        <ele>1068.5</ele>
        <time>2026-08-27T04:35:24.029Z</time>
      </trkpt>
      <trkpt lat="47.83112" lon="6.881">
        <ele>1068.6</ele>
        <time>2026-08-27T04:35:25.037Z</time>
      </trkpt>
      <trkpt lat="47.83111" lon="6.88102">
        <ele>1068.6</ele>
        <time>2026-08-27T04:35:26.045Z</time>
      </trkpt>
      <trkpt lat="47.8311" lon="6.88104">
        <ele>1068.6</ele>
        <time>2026-08-27T04:35:27.053Z</time>
      </trkpt>
      <trkpt lat="47.83109" lon="6.88108">
        <ele>1068.2</ele>
        <time>2026-08-27T04:35:28.968Z</time>
      </trkpt>
      <trkpt lat="47.83108" lon="6.88111">
        <ele>1068.2</ele>
        <time>2026-08-27T04:35:29.977Z</time>
      </trkpt>
      <trkpt lat="47.83107" lon="6.88113">
        <ele>1068.7</ele>
        <time>2026-08-27T04:35:30.985Z</time>
      </trkpt>
      <trkpt lat="47.83107" lon="6.88115">
        <ele>1068.7</ele>
        <time>2026-08-27T04:35:31.992Z</time>
      </trkpt>
      <trkpt lat="47.83106" lon="6.88117">
        <ele>1068.8</ele>
        <time>2026-08-27T04:35:33.001Z</time>
      </trkpt>
      <trkpt lat="47.83104" lon="6.8812">
        <ele>1068.9</ele>
        <time>2026-08-27T04:35:35.017Z</time>
      </trkpt>
      <trkpt lat="47.83103" lon="6.88121">
        <ele>1069</ele>
        <time>2026-08-27T04:35:36.024Z</time>
      </trkpt>
      <trkpt lat="47.83102" lon="6.88124">
        <ele>1069.1</ele>
        <time>2026-08-27T04:35:38.041Z</time>
      </trkpt>
      <trkpt lat="47.83101" lon="6.88124">
        <ele>1069.2</ele>
        <time>2026-08-27T04:35:39.048Z</time>
      </trkpt>
      <trkpt lat="47.83099" lon="6.88125">
        <ele>1069</ele>
        <time>2026-08-27T04:35:40.963Z</time>
      </trkpt>
      <trkpt lat="47.83098" lon="6.88126">
        <ele>1068.6</ele>
        <time>2026-08-27T04:35:41.971Z</time>
      </trkpt>
      <trkpt lat="47.83097" lon="6.88128">
        <ele>1068.6</ele>
        <time>2026-08-27T04:35:43.987Z</time>
      </trkpt>
      <trkpt lat="47.83097" lon="6.88129">
        <ele>1068.5</ele>
        <time>2026-08-27T04:35:46.002Z</time>
      </trkpt>
      <trkpt lat="47.83096" lon="6.8813">
        <ele>1068.5</ele>
        <time>2026-08-27T04:35:47.010Z</time>
      </trkpt>
      <trkpt lat="47.83096" lon="6.8813">
        <ele>1068.6</ele>
        <time>2026-08-27T04:35:48.018Z</time>
      </trkpt>
      <trkpt lat="47.83095" lon="6.88131">
        <ele>1068.3</ele>
        <time>2026-08-27T04:35:49.026Z</time>
      </trkpt>
      <trkpt lat="47.83095" lon="6.88131">
        <ele>1068.3</ele>
        <time>2026-08-27T04:35:50.034Z</time>
      </trkpt>
      <trkpt lat="47.83093" lon="6.8813">
        <ele>1068.7</ele>
        <time>2026-08-27T04:35:52.051Z</time>
      </trkpt>
      <trkpt lat="47.8309" lon="6.8813">
        <ele>1068.8</ele>
        <time>2026-08-27T04:35:53.966Z</time>
      </trkpt>
      <trkpt lat="47.83089" lon="6.8813">
        <ele>1068.8</ele>
        <time>2026-08-27T04:35:54.998Z</time>
      </trkpt>
      <trkpt lat="47.83089" lon="6.88131">
        <ele>1068.5</ele>
        <time>2026-08-27T04:35:56.057Z</time>
      </trkpt>
      <trkpt lat="47.83088" lon="6.88134">
        <ele>1068.8</ele>
        <time>2026-08-27T04:35:57.997Z</time>
      </trkpt>
      <trkpt lat="47.83088" lon="6.88135">
        <ele>1068.8</ele>
        <time>2026-08-27T04:35:59.006Z</time>
      </trkpt>
      <trkpt lat="47.83087" lon="6.88138">
        <ele>1068.6</ele>
        <time>2026-08-27T04:36:01.021Z</time>
      </trkpt>
      <trkpt lat="47.83087" lon="6.88139">
        <ele>1068.6</ele>
        <time>2026-08-27T04:36:02.029Z</time>
      </trkpt>
      <trkpt lat="47.83087" lon="6.8814">
        <ele>1068.7</ele>
        <time>2026-08-27T04:36:03.038Z</time>
      </trkpt>
      <trkpt lat="47.83087" lon="6.88141">
        <ele>1068.8</ele>
        <time>2026-08-27T04:36:04.045Z</time>
      </trkpt>
      <trkpt lat="47.83087" lon="6.88142">
        <ele>1067.6</ele>
        <time>2026-08-27T04:36:05.054Z</time>
      </trkpt>
      <trkpt lat="47.83087" lon="6.88144">
        <ele>1067.9</ele>
        <time>2026-08-27T04:36:06.969Z</time>
      </trkpt>
      <trkpt lat="47.83086" lon="6.88146">
        <ele>1068.3</ele>
        <time>2026-08-27T04:36:08.984Z</time>
      </trkpt>
      <trkpt lat="47.83085" lon="6.88147">
        <ele>1068.3</ele>
        <time>2026-08-27T04:36:10.017Z</time>
      </trkpt>
      <trkpt lat="47.83085" lon="6.88149">
        <ele>1068.8</ele>
        <time>2026-08-27T04:36:12.007Z</time>
      </trkpt>
      <trkpt lat="47.83085" lon="6.88151">
        <ele>1068.8</ele>
        <time>2026-08-27T04:36:14.024Z</time>
      </trkpt>
      <trkpt lat="47.83085" lon="6.88152">
        <ele>1068.9</ele>
        <time>2026-08-27T04:36:15.031Z</time>
      </trkpt>
      <trkpt lat="47.83085" lon="6.88154">
        <ele>1069</ele>
        <time>2026-08-27T04:36:16.039Z</time>
      </trkpt>
      <trkpt lat="47.83084" lon="6.88155">
        <ele>1069.2</ele>
        <time>2026-08-27T04:36:17.047Z</time>
      </trkpt>
      <trkpt lat="47.83084" lon="6.88158">
        <ele>1069.7</ele>
        <time>2026-08-27T04:36:19.063Z</time>
      </trkpt>
      <trkpt lat="47.83084" lon="6.88161">
        <ele>1070.6</ele>
        <time>2026-08-27T04:36:20.978Z</time>
      </trkpt>
      <trkpt lat="47.83084" lon="6.88163">
        <ele>1070.6</ele>
        <time>2026-08-27T04:36:21.987Z</time>
      </trkpt>
      <trkpt lat="47.83084" lon="6.88165">
        <ele>1070.5</ele>
        <time>2026-08-27T04:36:22.995Z</time>
      </trkpt>
      <trkpt lat="47.83084" lon="6.88167">
        <ele>1070.5</ele>
        <time>2026-08-27T04:36:24.002Z</time>
      </trkpt>
      <trkpt lat="47.83084" lon="6.88168">
        <ele>1070.4</ele>
        <time>2026-08-27T04:36:25.011Z</time>
      </trkpt>
      <trkpt lat="47.83084" lon="6.88171">
        <ele>1070.2</ele>
        <time>2026-08-27T04:36:27.026Z</time>
      </trkpt>
      <trkpt lat="47.83084" lon="6.88173">
        <ele>1070.2</ele>
        <time>2026-08-27T04:36:28.035Z</time>
      </trkpt>
      <trkpt lat="47.83083" lon="6.88174">
        <ele>1070.3</ele>
        <time>2026-08-27T04:36:29.043Z</time>
      </trkpt>
      <trkpt lat="47.83083" lon="6.88177">
        <ele>1069.6</ele>
        <time>2026-08-27T04:36:30.957Z</time>
      </trkpt>
      <trkpt lat="47.83083" lon="6.88179">
        <ele>1069.7</ele>
        <time>2026-08-27T04:36:31.965Z</time>
      </trkpt>
      <trkpt lat="47.83083" lon="6.8818">
        <ele>1069.7</ele>
        <time>2026-08-27T04:36:32.974Z</time>
      </trkpt>
      <trkpt lat="47.83083" lon="6.88184">
        <ele>1069.8</ele>
        <time>2026-08-27T04:36:35.015Z</time>
      </trkpt>
      <trkpt lat="47.83084" lon="6.88187">
        <ele>1070.1</ele>
        <time>2026-08-27T04:36:36.912Z</time>
      </trkpt>
      <trkpt lat="47.83084" lon="6.88189">
        <ele>1070.2</ele>
        <time>2026-08-27T04:36:38.012Z</time>
      </trkpt>
      <trkpt lat="47.83084" lon="6.88191">
        <ele>1070.1</ele>
        <time>2026-08-27T04:36:39.021Z</time>
      </trkpt>
      <trkpt lat="47.83085" lon="6.88192">
        <ele>1070.2</ele>
        <time>2026-08-27T04:36:40.029Z</time>
      </trkpt>
      <trkpt lat="47.83086" lon="6.88194">
        <ele>1070.7</ele>
        <time>2026-08-27T04:36:42.045Z</time>
      </trkpt>
      <trkpt lat="47.83087" lon="6.88197">
        <ele>1070.9</ele>
        <time>2026-08-27T04:36:44.060Z</time>
      </trkpt>
      <trkpt lat="47.83087" lon="6.882">
        <ele>1071.2</ele>
        <time>2026-08-27T04:36:46.059Z</time>
      </trkpt>
      <trkpt lat="47.83088" lon="6.88202">
        <ele>1071.6</ele>
        <time>2026-08-27T04:36:47.933Z</time>
      </trkpt>
      <trkpt lat="47.83089" lon="6.88203">
        <ele>1071.9</ele>
        <time>2026-08-27T04:36:48.999Z</time>
      </trkpt>
      <trkpt lat="47.83089" lon="6.88203">
        <ele>1072.1</ele>
        <time>2026-08-27T04:36:50.008Z</time>
      </trkpt>
      <trkpt lat="47.8309" lon="6.88205">
        <ele>1072.1</ele>
        <time>2026-08-27T04:36:52.040Z</time>
      </trkpt>
      <trkpt lat="47.8309" lon="6.88207">
        <ele>1072.2</ele>
        <time>2026-08-27T04:36:54.039Z</time>
      </trkpt>
      <trkpt lat="47.83091" lon="6.88208">
        <ele>1072.6</ele>
        <time>2026-08-27T04:36:56.055Z</time>
      </trkpt>
      <trkpt lat="47.83091" lon="6.8821">
        <ele>1072.8</ele>
        <time>2026-08-27T04:36:57.970Z</time>
      </trkpt>
      <trkpt lat="47.83091" lon="6.8821">
        <ele>1072.5</ele>
        <time>2026-08-27T04:36:58.979Z</time>
      </trkpt>
      <trkpt lat="47.83092" lon="6.88212">
        <ele>1072.6</ele>
        <time>2026-08-27T04:37:00.994Z</time>
      </trkpt>
      <trkpt lat="47.83092" lon="6.88213">
        <ele>1072.7</ele>
        <time>2026-08-27T04:37:02.002Z</time>
      </trkpt>
      <trkpt lat="47.83092" lon="6.88214">
        <ele>1073.2</ele>
        <time>2026-08-27T04:37:03.009Z</time>
      </trkpt>
      <trkpt lat="47.83093" lon="6.88215">
        <ele>1073.3</ele>
        <time>2026-08-27T04:37:04.018Z</time>
      </trkpt>
      <trkpt lat="47.83094" lon="6.88216">
        <ele>1073.3</ele>
        <time>2026-08-27T04:37:05.025Z</time>
      </trkpt>
      <trkpt lat="47.83094" lon="6.88216">
        <ele>1073.3</ele>
        <time>2026-08-27T04:37:06.033Z</time>
      </trkpt>
      <trkpt lat="47.83095" lon="6.88217">
        <ele>1073.4</ele>
        <time>2026-08-27T04:37:07.041Z</time>
      </trkpt>
      <trkpt lat="47.83096" lon="6.88217">
        <ele>1073.5</ele>
        <time>2026-08-27T04:37:08.049Z</time>
      </trkpt>
      <trkpt lat="47.83097" lon="6.88219">
        <ele>1073.8</ele>
        <time>2026-08-27T04:37:09.964Z</time>
      </trkpt>
      <trkpt lat="47.83098" lon="6.8822">
        <ele>1073.2</ele>
        <time>2026-08-27T04:37:10.972Z</time>
      </trkpt>
      <trkpt lat="47.83098" lon="6.88221">
        <ele>1074.1</ele>
        <time>2026-08-27T04:37:11.981Z</time>
      </trkpt>
      <trkpt lat="47.83098" lon="6.88221">
        <ele>1073.8</ele>
        <time>2026-08-27T04:37:12.988Z</time>
      </trkpt>
      <trkpt lat="47.83098" lon="6.88223">
        <ele>1074.1</ele>
        <time>2026-08-27T04:37:15.055Z</time>
      </trkpt>
      <trkpt lat="47.83097" lon="6.88226">
        <ele>1074.6</ele>
        <time>2026-08-27T04:37:17.020Z</time>
      </trkpt>
      <trkpt lat="47.83097" lon="6.88228">
        <ele>1074.6</ele>
        <time>2026-08-27T04:37:18.020Z</time>
      </trkpt>
      <trkpt lat="47.83097" lon="6.88229">
        <ele>1074.7</ele>
        <time>2026-08-27T04:37:19.036Z</time>
      </trkpt>
      <trkpt lat="47.83098" lon="6.8823">
        <ele>1074.7</ele>
        <time>2026-08-27T04:37:20.044Z</time>
      </trkpt>
      <trkpt lat="47.83098" lon="6.88232">
        <ele>1074.9</ele>
        <time>2026-08-27T04:37:21.052Z</time>
      </trkpt>
      <trkpt lat="47.83098" lon="6.88233">
        <ele>1074.9</ele>
        <time>2026-08-27T04:37:22.061Z</time>
      </trkpt>
      <trkpt lat="47.83099" lon="6.88236">
        <ele>1075.1</ele>
        <time>2026-08-27T04:37:23.975Z</time>
      </trkpt>
      <trkpt lat="47.83099" lon="6.88237">
        <ele>1075.2</ele>
        <time>2026-08-27T04:37:24.983Z</time>
      </trkpt>
      <trkpt lat="47.831" lon="6.88239">
        <ele>1075.6</ele>
        <time>2026-08-27T04:37:25.992Z</time>
      </trkpt>
      <trkpt lat="47.831" lon="6.8824">
        <ele>1075.6</ele>
        <time>2026-08-27T04:37:27.032Z</time>
      </trkpt>
      <trkpt lat="47.83101" lon="6.88242">
        <ele>1075.9</ele>
        <time>2026-08-27T04:37:29.015Z</time>
      </trkpt>
      <trkpt lat="47.83102" lon="6.88243">
        <ele>1076.1</ele>
        <time>2026-08-27T04:37:30.023Z</time>
      </trkpt>
      <trkpt lat="47.83102" lon="6.88244">
        <ele>1075.8</ele>
        <time>2026-08-27T04:37:31.030Z</time>
      </trkpt>
      <trkpt lat="47.83103" lon="6.88245">
        <ele>1075.4</ele>
        <time>2026-08-27T04:37:32.038Z</time>
      </trkpt>
      <trkpt lat="47.83103" lon="6.88247">
        <ele>1076.3</ele>
        <time>2026-08-27T04:37:34.054Z</time>
      </trkpt>
      <trkpt lat="47.83104" lon="6.8825">
        <ele>1076.7</ele>
        <time>2026-08-27T04:37:35.969Z</time>
      </trkpt>
      <trkpt lat="47.83104" lon="6.88251">
        <ele>1077</ele>
        <time>2026-08-27T04:37:36.977Z</time>
      </trkpt>
      <trkpt lat="47.83104" lon="6.88252">
        <ele>1077</ele>
        <time>2026-08-27T04:37:37.978Z</time>
      </trkpt>
      <trkpt lat="47.83104" lon="6.88253">
        <ele>1077.1</ele>
        <time>2026-08-27T04:37:39.052Z</time>
      </trkpt>
      <trkpt lat="47.83104" lon="6.88256">
        <ele>1076.9</ele>
        <time>2026-08-27T04:37:41.010Z</time>
      </trkpt>
      <trkpt lat="47.83104" lon="6.88257">
        <ele>1076.9</ele>
        <time>2026-08-27T04:37:42.017Z</time>
      </trkpt>
      <trkpt lat="47.83104" lon="6.88259">
        <ele>1076.9</ele>
        <time>2026-08-27T04:37:43.033Z</time>
      </trkpt>
      <trkpt lat="47.83104" lon="6.8826">
        <ele>1076.8</ele>
        <time>2026-08-27T04:37:44.033Z</time>
      </trkpt>
      <trkpt lat="47.83104" lon="6.88262">
        <ele>1076.8</ele>
        <time>2026-08-27T04:37:45.041Z</time>
      </trkpt>
      <trkpt lat="47.83105" lon="6.88265">
        <ele>1076.6</ele>
        <time>2026-08-27T04:37:47.057Z</time>
      </trkpt>
      <trkpt lat="47.83107" lon="6.88267">
        <ele>1076.6</ele>
        <time>2026-08-27T04:37:48.973Z</time>
      </trkpt>
      <trkpt lat="47.83108" lon="6.88268">
        <ele>1076.6</ele>
        <time>2026-08-27T04:37:50.013Z</time>
      </trkpt>
      <trkpt lat="47.83109" lon="6.88271">
        <ele>1076.5</ele>
        <time>2026-08-27T04:37:51.996Z</time>
      </trkpt>
      <trkpt lat="47.8311" lon="6.88272">
        <ele>1076.5</ele>
        <time>2026-08-27T04:37:53.055Z</time>
      </trkpt>
      <trkpt lat="47.83111" lon="6.88275">
        <ele>1076.9</ele>
        <time>2026-08-27T04:37:55.020Z</time>
      </trkpt>
      <trkpt lat="47.83111" lon="6.88276">
        <ele>1077</ele>
        <time>2026-08-27T04:37:56.027Z</time>
      </trkpt>
      <trkpt lat="47.83112" lon="6.88278">
        <ele>1076.8</ele>
        <time>2026-08-27T04:37:57.035Z</time>
      </trkpt>
      <trkpt lat="47.83112" lon="6.88279">
        <ele>1077</ele>
        <time>2026-08-27T04:37:58.044Z</time>
      </trkpt>
      <trkpt lat="47.83113" lon="6.88281">
        <ele>1077</ele>
        <time>2026-08-27T04:37:59.051Z</time>
      </trkpt>
      <trkpt lat="47.83114" lon="6.88283">
        <ele>1076.8</ele>
        <time>2026-08-27T04:38:00.967Z</time>
      </trkpt>
      <trkpt lat="47.83114" lon="6.88285">
        <ele>1076.9</ele>
        <time>2026-08-27T04:38:01.975Z</time>
      </trkpt>
      <trkpt lat="47.83116" lon="6.88287">
        <ele>1077.4</ele>
        <time>2026-08-27T04:38:03.990Z</time>
      </trkpt>
      <trkpt lat="47.83116" lon="6.88289">
        <ele>1077.2</ele>
        <time>2026-08-27T04:38:04.998Z</time>
      </trkpt>
      <trkpt lat="47.83117" lon="6.8829">
        <ele>1077.2</ele>
        <time>2026-08-27T04:38:05.998Z</time>
      </trkpt>
      <trkpt lat="47.83117" lon="6.88291">
        <ele>1077.6</ele>
        <time>2026-08-27T04:38:07.014Z</time>
      </trkpt>
      <trkpt lat="47.83118" lon="6.88292">
        <ele>1077.8</ele>
        <time>2026-08-27T04:38:08.022Z</time>
      </trkpt>
      <trkpt lat="47.83119" lon="6.88292">
        <ele>1077.7</ele>
        <time>2026-08-27T04:38:09.031Z</time>
      </trkpt>
      <trkpt lat="47.83119" lon="6.88293">
        <ele>1077.9</ele>
        <time>2026-08-27T04:38:10.038Z</time>
      </trkpt>
      <trkpt lat="47.8312" lon="6.88294">
        <ele>1077.7</ele>
        <time>2026-08-27T04:38:11.046Z</time>
      </trkpt>
      <trkpt lat="47.83121" lon="6.88297">
        <ele>1078.1</ele>
        <time>2026-08-27T04:38:12.936Z</time>
      </trkpt>
      <trkpt lat="47.83122" lon="6.88298">
        <ele>1078.7</ele>
        <time>2026-08-27T04:38:13.969Z</time>
      </trkpt>
      <trkpt lat="47.83122" lon="6.88299">
        <ele>1079.6</ele>
        <time>2026-08-27T04:38:14.978Z</time>
      </trkpt>
      <trkpt lat="47.83123" lon="6.88299">
        <ele>1079.7</ele>
        <time>2026-08-27T04:38:15.985Z</time>
      </trkpt>
      <trkpt lat="47.83124" lon="6.88301">
        <ele>1079.7</ele>
        <time>2026-08-27T04:38:17.018Z</time>
      </trkpt>
      <trkpt lat="47.83125" lon="6.88302">
        <ele>1079.7</ele>
        <time>2026-08-27T04:38:19.060Z</time>
      </trkpt>
      <trkpt lat="47.83127" lon="6.88303">
        <ele>1080.4</ele>
        <time>2026-08-27T04:38:21.026Z</time>
      </trkpt>
      <trkpt lat="47.83128" lon="6.88303">
        <ele>1080.6</ele>
        <time>2026-08-27T04:38:22.033Z</time>
      </trkpt>
      <trkpt lat="47.8313" lon="6.88304">
        <ele>1080.9</ele>
        <time>2026-08-27T04:38:23.948Z</time>
      </trkpt>
      <trkpt lat="47.83131" lon="6.88305">
        <ele>1080.9</ele>
        <time>2026-08-27T04:38:24.998Z</time>
      </trkpt>
      <trkpt lat="47.83132" lon="6.88307">
        <ele>1080</ele>
        <time>2026-08-27T04:38:26.972Z</time>
      </trkpt>
      <trkpt lat="47.83132" lon="6.88308">
        <ele>1080</ele>
        <time>2026-08-27T04:38:27.980Z</time>
      </trkpt>
      <trkpt lat="47.83132" lon="6.88309">
        <ele>1080.2</ele>
        <time>2026-08-27T04:38:28.987Z</time>
      </trkpt>
      <trkpt lat="47.83132" lon="6.8831">
        <ele>1080.2</ele>
        <time>2026-08-27T04:38:30.054Z</time>
      </trkpt>
      <trkpt lat="47.83133" lon="6.88312">
        <ele>1081.3</ele>
        <time>2026-08-27T04:38:32.012Z</time>
      </trkpt>
      <trkpt lat="47.83134" lon="6.88313">
        <ele>1081.4</ele>
        <time>2026-08-27T04:38:33.053Z</time>
      </trkpt>
      <trkpt lat="47.83135" lon="6.88316">
        <ele>1081</ele>
        <time>2026-08-27T04:38:34.993Z</time>
      </trkpt>
      <trkpt lat="47.83135" lon="6.88317">
        <ele>1081.1</ele>
        <time>2026-08-27T04:38:35.993Z</time>
      </trkpt>
      <trkpt lat="47.83136" lon="6.88321">
        <ele>1080.8</ele>
        <time>2026-08-27T04:38:38.060Z</time>
      </trkpt>
      <trkpt lat="47.83137" lon="6.88324">
        <ele>1081</ele>
        <time>2026-08-27T04:38:39.974Z</time>
      </trkpt>
      <trkpt lat="47.83137" lon="6.88325">
        <ele>1081.1</ele>
        <time>2026-08-27T04:38:40.990Z</time>
      </trkpt>
      <trkpt lat="47.83136" lon="6.88325">
        <ele>1080.9</ele>
        <time>2026-08-27T04:38:42.898Z</time>
      </trkpt>
      <trkpt lat="47.83136" lon="6.88326">
        <ele>1080.6</ele>
        <time>2026-08-27T04:38:44.014Z</time>
      </trkpt>
      <trkpt lat="47.83136" lon="6.88326">
        <ele>1080.3</ele>
        <time>2026-08-27T04:38:45.022Z</time>
      </trkpt>
      <trkpt lat="47.83136" lon="6.88327">
        <ele>1080.2</ele>
        <time>2026-08-27T04:38:46.030Z</time>
      </trkpt>
      <trkpt lat="47.83136" lon="6.88327">
        <ele>1080.2</ele>
        <time>2026-08-27T04:38:47.038Z</time>
      </trkpt>
      <trkpt lat="47.83135" lon="6.88328">
        <ele>1079.2</ele>
        <time>2026-08-27T04:38:48.046Z</time>
      </trkpt>
      <trkpt lat="47.83135" lon="6.88329">
        <ele>1079.9</ele>
        <time>2026-08-27T04:38:49.055Z</time>
      </trkpt>
      <trkpt lat="47.83135" lon="6.8833">
        <ele>1078</ele>
        <time>2026-08-27T04:38:50.970Z</time>
      </trkpt>
      <trkpt lat="47.83135" lon="6.8833">
        <ele>1077.8</ele>
        <time>2026-08-27T04:38:51.977Z</time>
      </trkpt>
      <trkpt lat="47.83135" lon="6.88331">
        <ele>1077.8</ele>
        <time>2026-08-27T04:38:52.985Z</time>
      </trkpt>
      <trkpt lat="47.83135" lon="6.88332">
        <ele>1077.5</ele>
        <time>2026-08-27T04:38:53.993Z</time>
      </trkpt>
      <trkpt lat="47.83134" lon="6.88335">
        <ele>1077</ele>
        <time>2026-08-27T04:38:56.017Z</time>
      </trkpt>
      <trkpt lat="47.83134" lon="6.88337">
        <ele>1076.5</ele>
        <time>2026-08-27T04:38:57.017Z</time>
      </trkpt>
      <trkpt lat="47.83134" lon="6.88339">
        <ele>1076.7</ele>
        <time>2026-08-27T04:38:58.025Z</time>
      </trkpt>
      <trkpt lat="47.83135" lon="6.88341">
        <ele>1077</ele>
        <time>2026-08-27T04:38:59.032Z</time>
      </trkpt>
      <trkpt lat="47.83136" lon="6.88344">
        <ele>1076.5</ele>
        <time>2026-08-27T04:39:01.048Z</time>
      </trkpt>
      <trkpt lat="47.83137" lon="6.88347">
        <ele>1076.1</ele>
        <time>2026-08-27T04:39:03.015Z</time>
      </trkpt>
      <trkpt lat="47.83136" lon="6.8835">
        <ele>1076</ele>
        <time>2026-08-27T04:39:04.980Z</time>
      </trkpt>
      <trkpt lat="47.83136" lon="6.88352">
        <ele>1076</ele>
        <time>2026-08-27T04:39:06.039Z</time>
      </trkpt>
      <trkpt lat="47.83135" lon="6.88354">
        <ele>1075.9</ele>
        <time>2026-08-27T04:39:08.003Z</time>
      </trkpt>
      <trkpt lat="47.83134" lon="6.88355">
        <ele>1076</ele>
        <time>2026-08-27T04:39:09.011Z</time>
      </trkpt>
      <trkpt lat="47.83133" lon="6.88356">
        <ele>1076</ele>
        <time>2026-08-27T04:39:10.036Z</time>
      </trkpt>
      <trkpt lat="47.83132" lon="6.88358">
        <ele>1075.1</ele>
        <time>2026-08-27T04:39:12.035Z</time>
      </trkpt>
      <trkpt lat="47.83131" lon="6.8836">
        <ele>1074.7</ele>
        <time>2026-08-27T04:39:13.876Z</time>
      </trkpt>
      <trkpt lat="47.8313" lon="6.88361">
        <ele>1074.7</ele>
        <time>2026-08-27T04:39:14.934Z</time>
      </trkpt>
      <trkpt lat="47.83129" lon="6.88362">
        <ele>1074.2</ele>
        <time>2026-08-27T04:39:16.017Z</time>
      </trkpt>
      <trkpt lat="47.83127" lon="6.88362">
        <ele>1073.2</ele>
        <time>2026-08-27T04:39:17.982Z</time>
      </trkpt>
      <trkpt lat="47.83126" lon="6.88362">
        <ele>1073.2</ele>
        <time>2026-08-27T04:39:18.991Z</time>
      </trkpt>
      <trkpt lat="47.83125" lon="6.88362">
        <ele>1073.1</ele>
        <time>2026-08-27T04:39:19.998Z</time>
      </trkpt>
      <trkpt lat="47.83123" lon="6.88363">
        <ele>1073.1</ele>
        <time>2026-08-27T04:39:22.015Z</time>
      </trkpt>
      <trkpt lat="47.83122" lon="6.88363">
        <ele>1073.3</ele>
        <time>2026-08-27T04:39:23.022Z</time>
      </trkpt>
      <trkpt lat="47.83122" lon="6.88365">
        <ele>1073.3</ele>
        <time>2026-08-27T04:39:24.031Z</time>
      </trkpt>
      <trkpt lat="47.83121" lon="6.88366">
        <ele>1073.6</ele>
        <time>2026-08-27T04:39:25.037Z</time>
      </trkpt>
      <trkpt lat="47.83121" lon="6.88367">
        <ele>1073.5</ele>
        <time>2026-08-27T04:39:26.045Z</time>
      </trkpt>
      <trkpt lat="47.83122" lon="6.88369">
        <ele>1073.9</ele>
        <time>2026-08-27T04:39:27.053Z</time>
      </trkpt>
      <trkpt lat="47.83122" lon="6.8837">
        <ele>1073.9</ele>
        <time>2026-08-27T04:39:28.053Z</time>
      </trkpt>
      <trkpt lat="47.83121" lon="6.88373">
        <ele>1074.5</ele>
        <time>2026-08-27T04:39:29.976Z</time>
      </trkpt>
      <trkpt lat="47.8312" lon="6.88374">
        <ele>1074.2</ele>
        <time>2026-08-27T04:39:30.984Z</time>
      </trkpt>
      <trkpt lat="47.83119" lon="6.88374">
        <ele>1074.7</ele>
        <time>2026-08-27T04:39:31.992Z</time>
      </trkpt>
      <trkpt lat="47.83118" lon="6.88375">
        <ele>1074.8</ele>
        <time>2026-08-27T04:39:33.000Z</time>
      </trkpt>
      <trkpt lat="47.83118" lon="6.88375">
        <ele>1075.4</ele>
        <time>2026-08-27T04:39:34.009Z</time>
      </trkpt>
      <trkpt lat="47.83117" lon="6.88375">
        <ele>1075</ele>
        <time>2026-08-27T04:39:35.017Z</time>
      </trkpt>
      <trkpt lat="47.83117" lon="6.88375">
        <ele>1075.9</ele>
        <time>2026-08-27T04:39:36.024Z</time>
      </trkpt>
      <trkpt lat="47.83117" lon="6.88375">
        <ele>1075.6</ele>
        <time>2026-08-27T04:39:37.940Z</time>
      </trkpt>
      <trkpt lat="47.83117" lon="6.88375">
        <ele>1076</ele>
        <time>2026-08-27T04:39:38.964Z</time>
      </trkpt>
      <trkpt lat="47.83116" lon="6.88375">
        <ele>1075.8</ele>
        <time>2026-08-27T04:39:40.964Z</time>
      </trkpt>
      <trkpt lat="47.83116" lon="6.88376">
        <ele>1075.4</ele>
        <time>2026-08-27T04:39:41.971Z</time>
      </trkpt>
      <trkpt lat="47.83116" lon="6.88376">
        <ele>1074.9</ele>
        <time>2026-08-27T04:39:42.979Z</time>
      </trkpt>
      <trkpt lat="47.83116" lon="6.88376">
        <ele>1074.5</ele>
        <time>2026-08-27T04:39:43.987Z</time>
      </trkpt>
      <trkpt lat="47.83116" lon="6.88376">
        <ele>1074.8</ele>
        <time>2026-08-27T04:39:44.996Z</time>
      </trkpt>
      <trkpt lat="47.83116" lon="6.88376">
        <ele>1074.6</ele>
        <time>2026-08-27T04:39:46.003Z</time>
      </trkpt>
      <trkpt lat="47.83116" lon="6.88376">
        <ele>1074.5</ele>
        <time>2026-08-27T04:39:47.011Z</time>
      </trkpt>
      <trkpt lat="47.83115" lon="6.88375">
        <ele>1074.5</ele>
        <time>2026-08-27T04:39:48.045Z</time>
      </trkpt>
      <trkpt lat="47.83115" lon="6.88375">
        <ele>1074.3</ele>
        <time>2026-08-27T04:39:49.144Z</time>
      </trkpt>
      <trkpt lat="47.83115" lon="6.88375">
        <ele>1074.4</ele>
        <time>2026-08-27T04:39:50.144Z</time>
      </trkpt>
      <trkpt lat="47.83115" lon="6.88375">
        <ele>1074.6</ele>
        <time>2026-08-27T04:39:51.379Z</time>
      </trkpt>
      <trkpt lat="47.83115" lon="6.88375">
        <ele>1074.7</ele>
        <time>2026-08-27T04:39:52.958Z</time>
      </trkpt>
      <trkpt lat="47.83115" lon="6.88376">
        <ele>1074.6</ele>
        <time>2026-08-27T04:39:53.966Z</time>
      </trkpt>
      <trkpt lat="47.83115" lon="6.88376">
        <ele>1074.7</ele>
        <time>2026-08-27T04:39:54.974Z</time>
      </trkpt>
      <trkpt lat="47.83115" lon="6.88376">
        <ele>1074.7</ele>
        <time>2026-08-27T04:39:55.982Z</time>
      </trkpt>
      <trkpt lat="47.83115" lon="6.88376">
        <ele>1074.8</ele>
        <time>2026-08-27T04:39:56.990Z</time>
      </trkpt>
      <trkpt lat="47.83115" lon="6.88376">
        <ele>1074.9</ele>
        <time>2026-08-27T04:39:57.998Z</time>
      </trkpt>
      <trkpt lat="47.83115" lon="6.88376">
        <ele>1074.7</ele>
        <time>2026-08-27T04:39:59.007Z</time>
      </trkpt>
      <trkpt lat="47.83116" lon="6.88377">
        <ele>1074.4</ele>
        <time>2026-08-27T04:40:00.014Z</time>
      </trkpt>
      <trkpt lat="47.83116" lon="6.88377">
        <ele>1074.4</ele>
        <time>2026-08-27T04:40:01.022Z</time>
      </trkpt>
      <trkpt lat="47.83116" lon="6.88377">
        <ele>1074.4</ele>
        <time>2026-08-27T04:40:02.030Z</time>
      </trkpt>
      <trkpt lat="47.83116" lon="6.88377">
        <ele>1074.8</ele>
        <time>2026-08-27T04:40:03.038Z</time>
      </trkpt>
      <trkpt lat="47.83116" lon="6.88377">
        <ele>1075.1</ele>
        <time>2026-08-27T04:40:04.953Z</time>
      </trkpt>
      <trkpt lat="47.83116" lon="6.88377">
        <ele>1075.1</ele>
        <time>2026-08-27T04:40:05.962Z</time>
      </trkpt>
      <trkpt lat="47.83116" lon="6.88377">
        <ele>1074.8</ele>
        <time>2026-08-27T04:40:06.969Z</time>
      </trkpt>
      <trkpt lat="47.83116" lon="6.88377">
        <ele>1074.9</ele>
        <time>2026-08-27T04:40:07.978Z</time>
      </trkpt>
      <trkpt lat="47.83116" lon="6.88377">
        <ele>1075.1</ele>
        <time>2026-08-27T04:40:08.985Z</time>
      </trkpt>
      <trkpt lat="47.83116" lon="6.88377">
        <ele>1075.1</ele>
        <time>2026-08-27T04:40:09.993Z</time>
      </trkpt>
      <trkpt lat="47.83116" lon="6.88377">
        <ele>1075.2</ele>
        <time>2026-08-27T04:40:11.001Z</time>
      </trkpt>
      <trkpt lat="47.83116" lon="6.88377">
        <ele>1075</ele>
        <time>2026-08-27T04:40:12.010Z</time>
      </trkpt>
      <trkpt lat="47.83116" lon="6.88377">
        <ele>1074.8</ele>
        <time>2026-08-27T04:40:13.017Z</time>
      </trkpt>
      <trkpt lat="47.83116" lon="6.88377">
        <ele>1074.9</ele>
        <time>2026-08-27T04:40:14.025Z</time>
      </trkpt>
      <trkpt lat="47.83116" lon="6.88377">
        <ele>1074.7</ele>
        <time>2026-08-27T04:40:15.033Z</time>
      </trkpt>
      <trkpt lat="47.83116" lon="6.88377">
        <ele>1074.9</ele>
        <time>2026-08-27T04:40:16.950Z</time>
      </trkpt>
      <trkpt lat="47.83116" lon="6.88377">
        <ele>1074.9</ele>
        <time>2026-08-27T04:40:17.958Z</time>
      </trkpt>
      <trkpt lat="47.83116" lon="6.88377">
        <ele>1074.7</ele>
        <time>2026-08-27T04:40:19.973Z</time>
      </trkpt>
      <trkpt lat="47.83116" lon="6.88377">
        <ele>1074.7</ele>
        <time>2026-08-27T04:40:20.981Z</time>
      </trkpt>
      <trkpt lat="47.83116" lon="6.88377">
        <ele>1075</ele>
        <time>2026-08-27T04:40:21.989Z</time>
      </trkpt>
      <trkpt lat="47.83116" lon="6.88377">
        <ele>1075</ele>
        <time>2026-08-27T04:40:22.998Z</time>
      </trkpt>
      <trkpt lat="47.83116" lon="6.88377">
        <ele>1074.9</ele>
        <time>2026-08-27T04:40:24.005Z</time>
      </trkpt>
      <trkpt lat="47.83116" lon="6.88377">
        <ele>1075</ele>
        <time>2026-08-27T04:40:25.013Z</time>
      </trkpt>
      <trkpt lat="47.83116" lon="6.88377">
        <ele>1075</ele>
        <time>2026-08-27T04:40:26.021Z</time>
      </trkpt>
      <trkpt lat="47.83116" lon="6.88377">
        <ele>1074.9</ele>
        <time>2026-08-27T04:40:27.030Z</time>
      </trkpt>
      <trkpt lat="47.83116" lon="6.88377">
        <ele>1074.9</ele>
        <time>2026-08-27T04:40:28.037Z</time>
      </trkpt>
      <trkpt lat="47.83116" lon="6.88377">
        <ele>1074.9</ele>
        <time>2026-08-27T04:40:29.953Z</time>
      </trkpt>
      <trkpt lat="47.83116" lon="6.88377">
        <ele>1075.1</ele>
        <time>2026-08-27T04:40:30.960Z</time>
      </trkpt>
      <trkpt lat="47.83116" lon="6.88377">
        <ele>1074.7</ele>
        <time>2026-08-27T04:40:31.969Z</time>
      </trkpt>
      <trkpt lat="47.83116" lon="6.88378">
        <ele>1074.8</ele>
        <time>2026-08-27T04:40:32.976Z</time>
      </trkpt>
      <trkpt lat="47.83116" lon="6.88378">
        <ele>1075.2</ele>
        <time>2026-08-27T04:40:33.984Z</time>
      </trkpt>
      <trkpt lat="47.83116" lon="6.88378">
        <ele>1075.1</ele>
        <time>2026-08-27T04:40:34.992Z</time>
      </trkpt>
      <trkpt lat="47.83116" lon="6.88377">
        <ele>1075.1</ele>
        <time>2026-08-27T04:40:36.000Z</time>
      </trkpt>
      <trkpt lat="47.83116" lon="6.88378">
        <ele>1075.1</ele>
        <time>2026-08-27T04:40:37.009Z</time>
      </trkpt>
      <trkpt lat="47.83116" lon="6.88378">
        <ele>1075.3</ele>
        <time>2026-08-27T04:40:38.017Z</time>
      </trkpt>
      <trkpt lat="47.83116" lon="6.88378">
        <ele>1075.3</ele>
        <time>2026-08-27T04:40:39.024Z</time>
      </trkpt>
      <trkpt lat="47.83116" lon="6.88378">
        <ele>1075.3</ele>
        <time>2026-08-27T04:40:40.032Z</time>
      </trkpt>
      <trkpt lat="47.83116" lon="6.88378">
        <ele>1075.2</ele>
        <time>2026-08-27T04:40:41.040Z</time>
      </trkpt>
      <trkpt lat="47.83116" lon="6.88378">
        <ele>1075.1</ele>
        <time>2026-08-27T04:40:42.956Z</time>
      </trkpt>
      <trkpt lat="47.83116" lon="6.88378">
        <ele>1075.1</ele>
        <time>2026-08-27T04:40:43.965Z</time>
      </trkpt>
      <trkpt lat="47.83116" lon="6.88378">
        <ele>1075.1</ele>
        <time>2026-08-27T04:40:44.972Z</time>
      </trkpt>
      <trkpt lat="47.83116" lon="6.88378">
        <ele>1075.1</ele>
        <time>2026-08-27T04:40:45.980Z</time>
      </trkpt>
      <trkpt lat="47.83116" lon="6.88378">
        <ele>1075.1</ele>
        <time>2026-08-27T04:40:46.988Z</time>
      </trkpt>
      <trkpt lat="47.83116" lon="6.88378">
        <ele>1075.2</ele>
        <time>2026-08-27T04:40:47.996Z</time>
      </trkpt>
      <trkpt lat="47.83116" lon="6.88378">
        <ele>1075.3</ele>
        <time>2026-08-27T04:40:49.005Z</time>
      </trkpt>
      <trkpt lat="47.83116" lon="6.88378">
        <ele>1075.4</ele>
        <time>2026-08-27T04:40:50.012Z</time>
      </trkpt>
      <trkpt lat="47.83116" lon="6.88378">
        <ele>1075.4</ele>
        <time>2026-08-27T04:40:51.020Z</time>
      </trkpt>
      <trkpt lat="47.83116" lon="6.88378">
        <ele>1075.4</ele>
        <time>2026-08-27T04:40:53.037Z</time>
      </trkpt>
      <trkpt lat="47.83116" lon="6.88378">
        <ele>1075.4</ele>
        <time>2026-08-27T04:40:54.951Z</time>
      </trkpt>
      <trkpt lat="47.83116" lon="6.88378">
        <ele>1075.2</ele>
        <time>2026-08-27T04:40:55.959Z</time>
      </trkpt>
      <trkpt lat="47.83116" lon="6.88378">
        <ele>1075.4</ele>
        <time>2026-08-27T04:40:56.968Z</time>
      </trkpt>
      <trkpt lat="47.83117" lon="6.88378">
        <ele>1075.5</ele>
        <time>2026-08-27T04:40:58.983Z</time>
      </trkpt>
      <trkpt lat="47.83117" lon="6.88378">
        <ele>1075.5</ele>
        <time>2026-08-27T04:40:59.992Z</time>
      </trkpt>
      <trkpt lat="47.83117" lon="6.88378">
        <ele>1075.4</ele>
        <time>2026-08-27T04:41:00.999Z</time>
      </trkpt>
      <trkpt lat="47.83117" lon="6.88378">
        <ele>1075.5</ele>
        <time>2026-08-27T04:41:02.008Z</time>
      </trkpt>
      <trkpt lat="47.83116" lon="6.88378">
        <ele>1075.4</ele>
        <time>2026-08-27T04:41:03.015Z</time>
      </trkpt>
      <trkpt lat="47.83116" lon="6.88378">
        <ele>1075.4</ele>
        <time>2026-08-27T04:41:04.023Z</time>
      </trkpt>
      <trkpt lat="47.83116" lon="6.88379">
        <ele>1075.5</ele>
        <time>2026-08-27T04:41:05.939Z</time>
      </trkpt>
      <trkpt lat="47.83116" lon="6.88379">
        <ele>1075.4</ele>
        <time>2026-08-27T04:41:06.948Z</time>
      </trkpt>
      <trkpt lat="47.83116" lon="6.88379">
        <ele>1075.4</ele>
        <time>2026-08-27T04:41:07.955Z</time>
      </trkpt>
      <trkpt lat="47.83116" lon="6.88379">
        <ele>1075.4</ele>
        <time>2026-08-27T04:41:09.971Z</time>
      </trkpt>
      <trkpt lat="47.83115" lon="6.88379">
        <ele>1075.4</ele>
        <time>2026-08-27T04:41:10.979Z</time>
      </trkpt>
      <trkpt lat="47.83115" lon="6.88379">
        <ele>1075.4</ele>
        <time>2026-08-27T04:41:11.988Z</time>
      </trkpt>
      <trkpt lat="47.83115" lon="6.88379">
        <ele>1075.4</ele>
        <time>2026-08-27T04:41:12.995Z</time>
      </trkpt>
      <trkpt lat="47.83115" lon="6.88379">
        <ele>1075.5</ele>
        <time>2026-08-27T04:41:14.004Z</time>
      </trkpt>
      <trkpt lat="47.83115" lon="6.88379">
        <ele>1075.5</ele>
        <time>2026-08-27T04:41:15.046Z</time>
      </trkpt>
      <trkpt lat="47.83115" lon="6.88379">
        <ele>1075.4</ele>
        <time>2026-08-27T04:41:16.985Z</time>
      </trkpt>
      <trkpt lat="47.83116" lon="6.8838">
        <ele>1075.5</ele>
        <time>2026-08-27T04:41:18.943Z</time>
      </trkpt>
      <trkpt lat="47.83116" lon="6.88381">
        <ele>1075.2</ele>
        <time>2026-08-27T04:41:19.950Z</time>
      </trkpt>
      <trkpt lat="47.83116" lon="6.88382">
        <ele>1075.5</ele>
        <time>2026-08-27T04:41:21.059Z</time>
      </trkpt>
      <trkpt lat="47.83117" lon="6.88386">
        <ele>1075.3</ele>
        <time>2026-08-27T04:41:22.975Z</time>
      </trkpt>
      <trkpt lat="47.83117" lon="6.88388">
        <ele>1075.2</ele>
        <time>2026-08-27T04:41:23.983Z</time>
      </trkpt>
      <trkpt lat="47.83118" lon="6.88391">
        <ele>1074.8</ele>
        <time>2026-08-27T04:41:24.991Z</time>
      </trkpt>
      <trkpt lat="47.83118" lon="6.88395">
        <ele>1074.7</ele>
        <time>2026-08-27T04:41:27.024Z</time>
      </trkpt>
      <trkpt lat="47.83119" lon="6.88398">
        <ele>1074.4</ele>
        <time>2026-08-27T04:41:29.024Z</time>
      </trkpt>
      <trkpt lat="47.8312" lon="6.884">
        <ele>1074.3</ele>
        <time>2026-08-27T04:41:30.031Z</time>
      </trkpt>
      <trkpt lat="47.83121" lon="6.88403">
        <ele>1074.5</ele>
        <time>2026-08-27T04:41:31.980Z</time>
      </trkpt>
      <trkpt lat="47.83121" lon="6.88405">
        <ele>1074.5</ele>
        <time>2026-08-27T04:41:33.081Z</time>
      </trkpt>
      <trkpt lat="47.8312" lon="6.88407">
        <ele>1074.6</ele>
        <time>2026-08-27T04:41:34.197Z</time>
      </trkpt>
      <trkpt lat="47.8312" lon="6.8841">
        <ele>1074.8</ele>
        <time>2026-08-27T04:41:35.819Z</time>
      </trkpt>
      <trkpt lat="47.8312" lon="6.88412">
        <ele>1075.1</ele>
        <time>2026-08-27T04:41:36.986Z</time>
      </trkpt>
      <trkpt lat="47.83121" lon="6.88414">
        <ele>1075.2</ele>
        <time>2026-08-27T04:41:37.995Z</time>
      </trkpt>
      <trkpt lat="47.83121" lon="6.88416">
        <ele>1075.2</ele>
        <time>2026-08-27T04:41:39.002Z</time>
      </trkpt>
      <trkpt lat="47.83121" lon="6.88418">
        <ele>1075.2</ele>
        <time>2026-08-27T04:41:40.010Z</time>
      </trkpt>
      <trkpt lat="47.8312" lon="6.88419">
        <ele>1075.3</ele>
        <time>2026-08-27T04:41:41.019Z</time>
      </trkpt>
      <trkpt lat="47.8312" lon="6.8842">
        <ele>1075.3</ele>
        <time>2026-08-27T04:41:42.026Z</time>
      </trkpt>
      <trkpt lat="47.8312" lon="6.88421">
        <ele>1075.3</ele>
        <time>2026-08-27T04:41:43.035Z</time>
      </trkpt>
      <trkpt lat="47.8312" lon="6.88424">
        <ele>1075.6</ele>
        <time>2026-08-27T04:41:44.950Z</time>
      </trkpt>
      <trkpt lat="47.83121" lon="6.88425">
        <ele>1075.7</ele>
        <time>2026-08-27T04:41:45.958Z</time>
      </trkpt>
      <trkpt lat="47.83121" lon="6.88426">
        <ele>1075.7</ele>
        <time>2026-08-27T04:41:46.967Z</time>
      </trkpt>
      <trkpt lat="47.83122" lon="6.88427">
        <ele>1075.7</ele>
        <time>2026-08-27T04:41:47.974Z</time>
      </trkpt>
      <trkpt lat="47.83123" lon="6.88428">
        <ele>1075.9</ele>
        <time>2026-08-27T04:41:48.982Z</time>
      </trkpt>
      <trkpt lat="47.83123" lon="6.88429">
        <ele>1076</ele>
        <time>2026-08-27T04:41:49.990Z</time>
      </trkpt>
      <trkpt lat="47.83124" lon="6.88431">
        <ele>1076</ele>
        <time>2026-08-27T04:41:52.039Z</time>
      </trkpt>
      <trkpt lat="47.83124" lon="6.88433">
        <ele>1075.8</ele>
        <time>2026-08-27T04:41:54.023Z</time>
      </trkpt>
      <trkpt lat="47.83124" lon="6.88433">
        <ele>1075.7</ele>
        <time>2026-08-27T04:41:55.031Z</time>
      </trkpt>
      <trkpt lat="47.83124" lon="6.88435">
        <ele>1075.4</ele>
        <time>2026-08-27T04:41:56.945Z</time>
      </trkpt>
      <trkpt lat="47.83124" lon="6.88436">
        <ele>1075.3</ele>
        <time>2026-08-27T04:41:57.953Z</time>
      </trkpt>
      <trkpt lat="47.83124" lon="6.88437">
        <ele>1075.3</ele>
        <time>2026-08-27T04:41:59.003Z</time>
      </trkpt>
      <trkpt lat="47.83124" lon="6.88438">
        <ele>1074.7</ele>
        <time>2026-08-27T04:42:00.021Z</time>
      </trkpt>
      <trkpt lat="47.83125" lon="6.88439">
        <ele>1074.1</ele>
        <time>2026-08-27T04:42:01.985Z</time>
      </trkpt>
      <trkpt lat="47.83125" lon="6.8844">
        <ele>1074.1</ele>
        <time>2026-08-27T04:42:03.061Z</time>
      </trkpt>
      <trkpt lat="47.83126" lon="6.88442">
        <ele>1073.2</ele>
        <time>2026-08-27T04:42:05.010Z</time>
      </trkpt>
      <trkpt lat="47.83127" lon="6.88443">
        <ele>1072.4</ele>
        <time>2026-08-27T04:42:07.027Z</time>
      </trkpt>
      <trkpt lat="47.83129" lon="6.88445">
        <ele>1072</ele>
        <time>2026-08-27T04:42:09.042Z</time>
      </trkpt>
      <trkpt lat="47.8313" lon="6.88447">
        <ele>1071.8</ele>
        <time>2026-08-27T04:42:10.865Z</time>
      </trkpt>
      <trkpt lat="47.83131" lon="6.88449">
        <ele>1071.2</ele>
        <time>2026-08-27T04:42:12.973Z</time>
      </trkpt>
      <trkpt lat="47.83131" lon="6.88451">
        <ele>1071</ele>
        <time>2026-08-27T04:42:13.982Z</time>
      </trkpt>
      <trkpt lat="47.83132" lon="6.88453">
        <ele>1070.9</ele>
        <time>2026-08-27T04:42:14.990Z</time>
      </trkpt>
      <trkpt lat="47.83132" lon="6.88454">
        <ele>1070.7</ele>
        <time>2026-08-27T04:42:15.997Z</time>
      </trkpt>
      <trkpt lat="47.83133" lon="6.88456">
        <ele>1070.7</ele>
        <time>2026-08-27T04:42:17.022Z</time>
      </trkpt>
      <trkpt lat="47.83134" lon="6.88459">
        <ele>1069.9</ele>
        <time>2026-08-27T04:42:19.021Z</time>
      </trkpt>
      <trkpt lat="47.83135" lon="6.88461">
        <ele>1069.8</ele>
        <time>2026-08-27T04:42:20.030Z</time>
      </trkpt>
      <trkpt lat="47.83135" lon="6.88462">
        <ele>1069.7</ele>
        <time>2026-08-27T04:42:21.037Z</time>
      </trkpt>
      <trkpt lat="47.83135" lon="6.88466">
        <ele>1069.4</ele>
        <time>2026-08-27T04:42:22.962Z</time>
      </trkpt>
      <trkpt lat="47.83136" lon="6.8847">
        <ele>1068.9</ele>
        <time>2026-08-27T04:42:24.970Z</time>
      </trkpt>
      <trkpt lat="47.83136" lon="6.88471">
        <ele>1069.3</ele>
        <time>2026-08-27T04:42:25.977Z</time>
      </trkpt>
      <trkpt lat="47.83137" lon="6.88472">
        <ele>1068.9</ele>
        <time>2026-08-27T04:42:26.986Z</time>
      </trkpt>
      <trkpt lat="47.83137" lon="6.88474">
        <ele>1069.1</ele>
        <time>2026-08-27T04:42:27.994Z</time>
      </trkpt>
      <trkpt lat="47.83137" lon="6.88477">
        <ele>1068.7</ele>
        <time>2026-08-27T04:42:30.009Z</time>
      </trkpt>
      <trkpt lat="47.83138" lon="6.88478">
        <ele>1068.7</ele>
        <time>2026-08-27T04:42:31.018Z</time>
      </trkpt>
      <trkpt lat="47.83138" lon="6.8848">
        <ele>1068.7</ele>
        <time>2026-08-27T04:42:32.025Z</time>
      </trkpt>
      <trkpt lat="47.83138" lon="6.88481">
        <ele>1068.7</ele>
        <time>2026-08-27T04:42:33.033Z</time>
      </trkpt>
      <trkpt lat="47.83138" lon="6.88484">
        <ele>1068.9</ele>
        <time>2026-08-27T04:42:35.049Z</time>
      </trkpt>
      <trkpt lat="47.83138" lon="6.88486">
        <ele>1068.7</ele>
        <time>2026-08-27T04:42:36.965Z</time>
      </trkpt>
      <trkpt lat="47.83139" lon="6.88489">
        <ele>1068.7</ele>
        <time>2026-08-27T04:42:39.024Z</time>
      </trkpt>
      <trkpt lat="47.8314" lon="6.88492">
        <ele>1068.3</ele>
        <time>2026-08-27T04:42:41.006Z</time>
      </trkpt>
      <trkpt lat="47.8314" lon="6.88494">
        <ele>1068.1</ele>
        <time>2026-08-27T04:42:42.013Z</time>
      </trkpt>
      <trkpt lat="47.83141" lon="6.88496">
        <ele>1067.7</ele>
        <time>2026-08-27T04:42:44.030Z</time>
      </trkpt>
      <trkpt lat="47.83141" lon="6.88498">
        <ele>1067.6</ele>
        <time>2026-08-27T04:42:45.038Z</time>
      </trkpt>
      <trkpt lat="47.83142" lon="6.88501">
        <ele>1067.4</ele>
        <time>2026-08-27T04:42:46.953Z</time>
      </trkpt>
      <trkpt lat="47.83142" lon="6.88502">
        <ele>1067.9</ele>
        <time>2026-08-27T04:42:47.961Z</time>
      </trkpt>
      <trkpt lat="47.83143" lon="6.88504">
        <ele>1067.9</ele>
        <time>2026-08-27T04:42:48.970Z</time>
      </trkpt>
      <trkpt lat="47.83143" lon="6.88505">
        <ele>1067.7</ele>
        <time>2026-08-27T04:42:49.977Z</time>
      </trkpt>
      <trkpt lat="47.83144" lon="6.88506">
        <ele>1068.3</ele>
        <time>2026-08-27T04:42:50.986Z</time>
      </trkpt>
      <trkpt lat="47.83145" lon="6.88507">
        <ele>1067.9</ele>
        <time>2026-08-27T04:42:51.994Z</time>
      </trkpt>
      <trkpt lat="47.83145" lon="6.88508">
        <ele>1067.6</ele>
        <time>2026-08-27T04:42:53.001Z</time>
      </trkpt>
      <trkpt lat="47.83146" lon="6.8851">
        <ele>1067.7</ele>
        <time>2026-08-27T04:42:54.009Z</time>
      </trkpt>
      <trkpt lat="47.83147" lon="6.8851">
        <ele>1067.7</ele>
        <time>2026-08-27T04:42:55.017Z</time>
      </trkpt>
      <trkpt lat="47.83148" lon="6.88511">
        <ele>1068</ele>
        <time>2026-08-27T04:42:56.025Z</time>
      </trkpt>
      <trkpt lat="47.83148" lon="6.88512">
        <ele>1067.8</ele>
        <time>2026-08-27T04:42:57.033Z</time>
      </trkpt>
      <trkpt lat="47.8315" lon="6.88514">
        <ele>1068.1</ele>
        <time>2026-08-27T04:42:59.050Z</time>
      </trkpt>
      <trkpt lat="47.83151" lon="6.88515">
        <ele>1068.6</ele>
        <time>2026-08-27T04:43:00.965Z</time>
      </trkpt>
      <trkpt lat="47.83152" lon="6.88516">
        <ele>1068.6</ele>
        <time>2026-08-27T04:43:02.024Z</time>
      </trkpt>
      <trkpt lat="47.83153" lon="6.88518">
        <ele>1068.9</ele>
        <time>2026-08-27T04:43:04.005Z</time>
      </trkpt>
      <trkpt lat="47.83154" lon="6.8852">
        <ele>1069.3</ele>
        <time>2026-08-27T04:43:06.005Z</time>
      </trkpt>
      <trkpt lat="47.83154" lon="6.88521">
        <ele>1069.2</ele>
        <time>2026-08-27T04:43:07.013Z</time>
      </trkpt>
      <trkpt lat="47.83155" lon="6.88521">
        <ele>1069.5</ele>
        <time>2026-08-27T04:43:08.022Z</time>
      </trkpt>
      <trkpt lat="47.83155" lon="6.88522">
        <ele>1069.6</ele>
        <time>2026-08-27T04:43:09.029Z</time>
      </trkpt>
      <trkpt lat="47.83155" lon="6.88522">
        <ele>1069.8</ele>
        <time>2026-08-27T04:43:11.045Z</time>
      </trkpt>
      <trkpt lat="47.83155" lon="6.88523">
        <ele>1070</ele>
        <time>2026-08-27T04:43:13.002Z</time>
      </trkpt>
      <trkpt lat="47.83156" lon="6.88524">
        <ele>1070.7</ele>
        <time>2026-08-27T04:43:14.976Z</time>
      </trkpt>
      <trkpt lat="47.83156" lon="6.88524">
        <ele>1071.4</ele>
        <time>2026-08-27T04:43:15.984Z</time>
      </trkpt>
      <trkpt lat="47.83156" lon="6.88525">
        <ele>1071.2</ele>
        <time>2026-08-27T04:43:16.992Z</time>
      </trkpt>
      <trkpt lat="47.83157" lon="6.88525">
        <ele>1071.5</ele>
        <time>2026-08-27T04:43:18.002Z</time>
      </trkpt>
      <trkpt lat="47.83157" lon="6.88525">
        <ele>1071.6</ele>
        <time>2026-08-27T04:43:19.009Z</time>
      </trkpt>
      <trkpt lat="47.83158" lon="6.88526">
        <ele>1071.4</ele>
        <time>2026-08-27T04:43:20.018Z</time>
      </trkpt>
      <trkpt lat="47.83159" lon="6.88527">
        <ele>1071.8</ele>
        <time>2026-08-27T04:43:21.025Z</time>
      </trkpt>
      <trkpt lat="47.83159" lon="6.88527">
        <ele>1072</ele>
        <time>2026-08-27T04:43:22.034Z</time>
      </trkpt>
      <trkpt lat="47.8316" lon="6.88528">
        <ele>1072.1</ele>
        <time>2026-08-27T04:43:23.042Z</time>
      </trkpt>
      <trkpt lat="47.83161" lon="6.88528">
        <ele>1072.3</ele>
        <time>2026-08-27T04:43:24.957Z</time>
      </trkpt>
      <trkpt lat="47.83162" lon="6.88529">
        <ele>1072.6</ele>
        <time>2026-08-27T04:43:25.964Z</time>
      </trkpt>
      <trkpt lat="47.83163" lon="6.88529">
        <ele>1072.6</ele>
        <time>2026-08-27T04:43:26.989Z</time>
      </trkpt>
      <trkpt lat="47.83164" lon="6.8853">
        <ele>1072.8</ele>
        <time>2026-08-27T04:43:28.988Z</time>
      </trkpt>
      <trkpt lat="47.83165" lon="6.88531">
        <ele>1072.9</ele>
        <time>2026-08-27T04:43:31.004Z</time>
      </trkpt>
      <trkpt lat="47.83166" lon="6.88533">
        <ele>1073.5</ele>
        <time>2026-08-27T04:43:33.021Z</time>
      </trkpt>
      <trkpt lat="47.83166" lon="6.88534">
        <ele>1073.6</ele>
        <time>2026-08-27T04:43:34.029Z</time>
      </trkpt>
      <trkpt lat="47.83166" lon="6.88535">
        <ele>1073.7</ele>
        <time>2026-08-27T04:43:35.037Z</time>
      </trkpt>
      <trkpt lat="47.83167" lon="6.88538">
        <ele>1073.6</ele>
        <time>2026-08-27T04:43:37.054Z</time>
      </trkpt>
      <trkpt lat="47.83168" lon="6.8854">
        <ele>1073.5</ele>
        <time>2026-08-27T04:43:38.968Z</time>
      </trkpt>
      <trkpt lat="47.83169" lon="6.88543">
        <ele>1074</ele>
        <time>2026-08-27T04:43:40.985Z</time>
      </trkpt>
      <trkpt lat="47.83169" lon="6.88545">
        <ele>1074</ele>
        <time>2026-08-27T04:43:41.992Z</time>
      </trkpt>
      <trkpt lat="47.8317" lon="6.88547">
        <ele>1073.9</ele>
        <time>2026-08-27T04:43:44.008Z</time>
      </trkpt>
      <trkpt lat="47.83171" lon="6.88547">
        <ele>1073.6</ele>
        <time>2026-08-27T04:43:45.016Z</time>
      </trkpt>
      <trkpt lat="47.83171" lon="6.88548">
        <ele>1073.5</ele>
        <time>2026-08-27T04:43:46.025Z</time>
      </trkpt>
      <trkpt lat="47.83172" lon="6.88548">
        <ele>1073.5</ele>
        <time>2026-08-27T04:43:47.049Z</time>
      </trkpt>
      <trkpt lat="47.83173" lon="6.88548">
        <ele>1073.4</ele>
        <time>2026-08-27T04:43:48.108Z</time>
      </trkpt>
      <trkpt lat="47.83175" lon="6.88547">
        <ele>1073.2</ele>
        <time>2026-08-27T04:43:49.956Z</time>
      </trkpt>
      <trkpt lat="47.83175" lon="6.88546">
        <ele>1073.2</ele>
        <time>2026-08-27T04:43:50.964Z</time>
      </trkpt>
      <trkpt lat="47.83176" lon="6.88546">
        <ele>1073.3</ele>
        <time>2026-08-27T04:43:51.972Z</time>
      </trkpt>
      <trkpt lat="47.83177" lon="6.88546">
        <ele>1073.2</ele>
        <time>2026-08-27T04:43:52.980Z</time>
      </trkpt>
      <trkpt lat="47.83178" lon="6.88546">
        <ele>1073.2</ele>
        <time>2026-08-27T04:43:53.988Z</time>
      </trkpt>
      <trkpt lat="47.83178" lon="6.88547">
        <ele>1073.4</ele>
        <time>2026-08-27T04:43:54.996Z</time>
      </trkpt>
      <trkpt lat="47.83179" lon="6.88547">
        <ele>1073.3</ele>
        <time>2026-08-27T04:43:56.004Z</time>
      </trkpt>
      <trkpt lat="47.83179" lon="6.88547">
        <ele>1073.2</ele>
        <time>2026-08-27T04:43:57.013Z</time>
      </trkpt>
      <trkpt lat="47.8318" lon="6.88546">
        <ele>1073.2</ele>
        <time>2026-08-27T04:43:58.029Z</time>
      </trkpt>
      <trkpt lat="47.83181" lon="6.88546">
        <ele>1073.2</ele>
        <time>2026-08-27T04:43:59.937Z</time>
      </trkpt>
      <trkpt lat="47.83182" lon="6.88546">
        <ele>1073.2</ele>
        <time>2026-08-27T04:44:01.045Z</time>
      </trkpt>
      <trkpt lat="47.83184" lon="6.88548">
        <ele>1072.4</ele>
        <time>2026-08-27T04:44:02.960Z</time>
      </trkpt>
      <trkpt lat="47.83185" lon="6.88549">
        <ele>1072.3</ele>
        <time>2026-08-27T04:44:05.027Z</time>
      </trkpt>
      <trkpt lat="47.83187" lon="6.88549">
        <ele>1071.9</ele>
        <time>2026-08-27T04:44:06.888Z</time>
      </trkpt>
      <trkpt lat="47.83188" lon="6.88549">
        <ele>1071.8</ele>
        <time>2026-08-27T04:44:08.005Z</time>
      </trkpt>
      <trkpt lat="47.83189" lon="6.88549">
        <ele>1071.6</ele>
        <time>2026-08-27T04:44:09.013Z</time>
      </trkpt>
      <trkpt lat="47.8319" lon="6.8855">
        <ele>1071.1</ele>
        <time>2026-08-27T04:44:10.020Z</time>
      </trkpt>
      <trkpt lat="47.83191" lon="6.8855">
        <ele>1071.2</ele>
        <time>2026-08-27T04:44:11.045Z</time>
      </trkpt>
      <trkpt lat="47.83193" lon="6.88552">
        <ele>1070.8</ele>
        <time>2026-08-27T04:44:12.961Z</time>
      </trkpt>
      <trkpt lat="47.83193" lon="6.88553">
        <ele>1070.8</ele>
        <time>2026-08-27T04:44:13.970Z</time>
      </trkpt>
      <trkpt lat="47.83194" lon="6.88555">
        <ele>1070.7</ele>
        <time>2026-08-27T04:44:14.978Z</time>
      </trkpt>
      <trkpt lat="47.83194" lon="6.88556">
        <ele>1070.5</ele>
        <time>2026-08-27T04:44:15.985Z</time>
      </trkpt>
      <trkpt lat="47.83194" lon="6.88557">
        <ele>1070.5</ele>
        <time>2026-08-27T04:44:16.993Z</time>
      </trkpt>
      <trkpt lat="47.83195" lon="6.88559">
        <ele>1070.4</ele>
        <time>2026-08-27T04:44:18.001Z</time>
      </trkpt>
      <trkpt lat="47.83195" lon="6.88562">
        <ele>1070.3</ele>
        <time>2026-08-27T04:44:20.017Z</time>
      </trkpt>
      <trkpt lat="47.83196" lon="6.88563">
        <ele>1070.6</ele>
        <time>2026-08-27T04:44:21.025Z</time>
      </trkpt>
      <trkpt lat="47.83196" lon="6.88565">
        <ele>1070.5</ele>
        <time>2026-08-27T04:44:22.034Z</time>
      </trkpt>
      <trkpt lat="47.83196" lon="6.88566">
        <ele>1070.8</ele>
        <time>2026-08-27T04:44:23.041Z</time>
      </trkpt>
      <trkpt lat="47.83196" lon="6.88569">
        <ele>1070.9</ele>
        <time>2026-08-27T04:44:25.003Z</time>
      </trkpt>
      <trkpt lat="47.83197" lon="6.88572">
        <ele>1071.1</ele>
        <time>2026-08-27T04:44:26.943Z</time>
      </trkpt>
      <trkpt lat="47.83197" lon="6.88574">
        <ele>1071.4</ele>
        <time>2026-08-27T04:44:27.981Z</time>
      </trkpt>
      <trkpt lat="47.83197" lon="6.88575">
        <ele>1071.4</ele>
        <time>2026-08-27T04:44:28.989Z</time>
      </trkpt>
      <trkpt lat="47.83197" lon="6.88577">
        <ele>1071.2</ele>
        <time>2026-08-27T04:44:29.997Z</time>
      </trkpt>
      <trkpt lat="47.83197" lon="6.8858">
        <ele>1071.2</ele>
        <time>2026-08-27T04:44:32.013Z</time>
      </trkpt>
      <trkpt lat="47.83197" lon="6.88582">
        <ele>1071.1</ele>
        <time>2026-08-27T04:44:33.021Z</time>
      </trkpt>
      <trkpt lat="47.83197" lon="6.88583">
        <ele>1071.1</ele>
        <time>2026-08-27T04:44:34.030Z</time>
      </trkpt>
      <trkpt lat="47.83198" lon="6.88585">
        <ele>1070.7</ele>
        <time>2026-08-27T04:44:35.037Z</time>
      </trkpt>
      <trkpt lat="47.83198" lon="6.88586">
        <ele>1070.8</ele>
        <time>2026-08-27T04:44:36.045Z</time>
      </trkpt>
      <trkpt lat="47.83199" lon="6.88589">
        <ele>1071.1</ele>
        <time>2026-08-27T04:44:37.960Z</time>
      </trkpt>
      <trkpt lat="47.83198" lon="6.8859">
        <ele>1071.1</ele>
        <time>2026-08-27T04:44:38.969Z</time>
      </trkpt>
      <trkpt lat="47.83199" lon="6.88591">
        <ele>1071.1</ele>
        <time>2026-08-27T04:44:40.006Z</time>
      </trkpt>
      <trkpt lat="47.832" lon="6.88592">
        <ele>1070.7</ele>
        <time>2026-08-27T04:44:41.993Z</time>
      </trkpt>
      <trkpt lat="47.83201" lon="6.88592">
        <ele>1070.8</ele>
        <time>2026-08-27T04:44:43.001Z</time>
      </trkpt>
      <trkpt lat="47.83201" lon="6.88593">
        <ele>1070.8</ele>
        <time>2026-08-27T04:44:44.005Z</time>
      </trkpt>
      <trkpt lat="47.83201" lon="6.88594">
        <ele>1070.3</ele>
        <time>2026-08-27T04:44:45.018Z</time>
      </trkpt>
      <trkpt lat="47.83202" lon="6.88595">
        <ele>1070.4</ele>
        <time>2026-08-27T04:44:46.025Z</time>
      </trkpt>
      <trkpt lat="47.83202" lon="6.88595">
        <ele>1070.6</ele>
        <time>2026-08-27T04:44:47.034Z</time>
      </trkpt>
      <trkpt lat="47.83202" lon="6.88597">
        <ele>1070.6</ele>
        <time>2026-08-27T04:44:48.944Z</time>
      </trkpt>
      <trkpt lat="47.83203" lon="6.88597">
        <ele>1071.2</ele>
        <time>2026-08-27T04:44:49.956Z</time>
      </trkpt>
      <trkpt lat="47.83203" lon="6.88598">
        <ele>1071.5</ele>
        <time>2026-08-27T04:44:50.965Z</time>
      </trkpt>
      <trkpt lat="47.83203" lon="6.88598">
        <ele>1071.5</ele>
        <time>2026-08-27T04:44:51.968Z</time>
      </trkpt>
      <trkpt lat="47.83204" lon="6.88599">
        <ele>1072.1</ele>
        <time>2026-08-27T04:44:52.981Z</time>
      </trkpt>
      <trkpt lat="47.83204" lon="6.886">
        <ele>1072.3</ele>
        <time>2026-08-27T04:44:53.989Z</time>
      </trkpt>
      <trkpt lat="47.83205" lon="6.88602">
        <ele>1072.3</ele>
        <time>2026-08-27T04:44:55.009Z</time>
      </trkpt>
      <trkpt lat="47.83206" lon="6.88604">
        <ele>1072.7</ele>
        <time>2026-08-27T04:44:57.013Z</time>
      </trkpt>
      <trkpt lat="47.83207" lon="6.88605">
        <ele>1072.8</ele>
        <time>2026-08-27T04:44:58.021Z</time>
      </trkpt>
      <trkpt lat="47.83207" lon="6.88606">
        <ele>1073</ele>
        <time>2026-08-27T04:44:59.029Z</time>
      </trkpt>
      <trkpt lat="47.83208" lon="6.88608">
        <ele>1073.2</ele>
        <time>2026-08-27T04:45:01.045Z</time>
      </trkpt>
      <trkpt lat="47.83208" lon="6.8861">
        <ele>1073.2</ele>
        <time>2026-08-27T04:45:02.960Z</time>
      </trkpt>
      <trkpt lat="47.83209" lon="6.8861">
        <ele>1073.1</ele>
        <time>2026-08-27T04:45:03.969Z</time>
      </trkpt>
      <trkpt lat="47.83209" lon="6.88611">
        <ele>1073.1</ele>
        <time>2026-08-27T04:45:04.977Z</time>
      </trkpt>
      <trkpt lat="47.83209" lon="6.88611">
        <ele>1073</ele>
        <time>2026-08-27T04:45:05.985Z</time>
      </trkpt>
      <trkpt lat="47.83209" lon="6.88613">
        <ele>1072.9</ele>
        <time>2026-08-27T04:45:08.047Z</time>
      </trkpt>
      <trkpt lat="47.83209" lon="6.88614">
        <ele>1072.8</ele>
        <time>2026-08-27T04:45:10.018Z</time>
      </trkpt>
      <trkpt lat="47.8321" lon="6.88615">
        <ele>1072.6</ele>
        <time>2026-08-27T04:45:11.025Z</time>
      </trkpt>
      <trkpt lat="47.83212" lon="6.88616">
        <ele>1072.7</ele>
        <time>2026-08-27T04:45:12.033Z</time>
      </trkpt>
      <trkpt lat="47.83213" lon="6.88618">
        <ele>1072.5</ele>
        <time>2026-08-27T04:45:13.041Z</time>
      </trkpt>
      <trkpt lat="47.83214" lon="6.88621">
        <ele>1072.2</ele>
        <time>2026-08-27T04:45:15.011Z</time>
      </trkpt>
      <trkpt lat="47.83215" lon="6.88624">
        <ele>1070.4</ele>
        <time>2026-08-27T04:45:16.972Z</time>
      </trkpt>
      <trkpt lat="47.83215" lon="6.88626">
        <ele>1070.5</ele>
        <time>2026-08-27T04:45:17.981Z</time>
      </trkpt>
      <trkpt lat="47.83215" lon="6.88628">
        <ele>1070.5</ele>
        <time>2026-08-27T04:45:18.989Z</time>
      </trkpt>
      <trkpt lat="47.83215" lon="6.8863">
        <ele>1070.7</ele>
        <time>2026-08-27T04:45:19.997Z</time>
      </trkpt>
      <trkpt lat="47.83216" lon="6.88632">
        <ele>1070.7</ele>
        <time>2026-08-27T04:45:21.005Z</time>
      </trkpt>
      <trkpt lat="47.83216" lon="6.88633">
        <ele>1070.8</ele>
        <time>2026-08-27T04:45:22.014Z</time>
      </trkpt>
      <trkpt lat="47.83216" lon="6.88635">
        <ele>1071.6</ele>
        <time>2026-08-27T04:45:23.022Z</time>
      </trkpt>
      <trkpt lat="47.83217" lon="6.88638">
        <ele>1071.6</ele>
        <time>2026-08-27T04:45:25.038Z</time>
      </trkpt>
      <trkpt lat="47.83218" lon="6.8864">
        <ele>1071.7</ele>
        <time>2026-08-27T04:45:26.953Z</time>
      </trkpt>
      <trkpt lat="47.83219" lon="6.88641">
        <ele>1071.7</ele>
        <time>2026-08-27T04:45:27.960Z</time>
      </trkpt>
      <trkpt lat="47.83219" lon="6.88642">
        <ele>1072</ele>
        <time>2026-08-27T04:45:28.968Z</time>
      </trkpt>
      <trkpt lat="47.8322" lon="6.88643">
        <ele>1072</ele>
        <time>2026-08-27T04:45:30.871Z</time>
      </trkpt>
      <trkpt lat="47.8322" lon="6.88644">
        <ele>1072.3</ele>
        <time>2026-08-27T04:45:31.994Z</time>
      </trkpt>
      <trkpt lat="47.83221" lon="6.88645">
        <ele>1072.4</ele>
        <time>2026-08-27T04:45:33.001Z</time>
      </trkpt>
      <trkpt lat="47.83222" lon="6.88646">
        <ele>1072.5</ele>
        <time>2026-08-27T04:45:34.009Z</time>
      </trkpt>
      <trkpt lat="47.83223" lon="6.88648">
        <ele>1072.8</ele>
        <time>2026-08-27T04:45:36.025Z</time>
      </trkpt>
      <trkpt lat="47.83224" lon="6.88649">
        <ele>1072.6</ele>
        <time>2026-08-27T04:45:37.034Z</time>
      </trkpt>
      <trkpt lat="47.83225" lon="6.88649">
        <ele>1072.6</ele>
        <time>2026-08-27T04:45:38.042Z</time>
      </trkpt>
      <trkpt lat="47.83226" lon="6.8865">
        <ele>1072.6</ele>
        <time>2026-08-27T04:45:39.045Z</time>
      </trkpt>
      <trkpt lat="47.83228" lon="6.88652">
        <ele>1072.9</ele>
        <time>2026-08-27T04:45:40.965Z</time>
      </trkpt>
      <trkpt lat="47.83229" lon="6.88653">
        <ele>1073.1</ele>
        <time>2026-08-27T04:45:41.973Z</time>
      </trkpt>
      <trkpt lat="47.83229" lon="6.88653">
        <ele>1073.2</ele>
        <time>2026-08-27T04:45:43.044Z</time>
      </trkpt>
      <trkpt lat="47.83231" lon="6.88653">
        <ele>1073.4</ele>
        <time>2026-08-27T04:45:44.997Z</time>
      </trkpt>
      <trkpt lat="47.83231" lon="6.88654">
        <ele>1073.5</ele>
        <time>2026-08-27T04:45:46.005Z</time>
      </trkpt>
      <trkpt lat="47.83232" lon="6.88655">
        <ele>1073.8</ele>
        <time>2026-08-27T04:45:47.014Z</time>
      </trkpt>
      <trkpt lat="47.83232" lon="6.88656">
        <ele>1074.1</ele>
        <time>2026-08-27T04:45:48.021Z</time>
      </trkpt>
      <trkpt lat="47.83233" lon="6.88657">
        <ele>1074.1</ele>
        <time>2026-08-27T04:45:49.025Z</time>
      </trkpt>
      <trkpt lat="47.83233" lon="6.88657">
        <ele>1074.3</ele>
        <time>2026-08-27T04:45:50.037Z</time>
      </trkpt>
      <trkpt lat="47.83234" lon="6.88657">
        <ele>1074.3</ele>
        <time>2026-08-27T04:45:51.045Z</time>
      </trkpt>
      <trkpt lat="47.83236" lon="6.88658">
        <ele>1074.4</ele>
        <time>2026-08-27T04:45:52.948Z</time>
      </trkpt>
      <trkpt lat="47.83237" lon="6.88659">
        <ele>1074.2</ele>
        <time>2026-08-27T04:45:53.970Z</time>
      </trkpt>
      <trkpt lat="47.83239" lon="6.88659">
        <ele>1074.1</ele>
        <time>2026-08-27T04:45:55.985Z</time>
      </trkpt>
      <trkpt lat="47.8324" lon="6.8866">
        <ele>1073.9</ele>
        <time>2026-08-27T04:45:56.993Z</time>
      </trkpt>
      <trkpt lat="47.83242" lon="6.88659">
        <ele>1073.9</ele>
        <time>2026-08-27T04:45:59.009Z</time>
      </trkpt>
      <trkpt lat="47.83243" lon="6.8866">
        <ele>1074</ele>
        <time>2026-08-27T04:46:00.018Z</time>
      </trkpt>
      <trkpt lat="47.83243" lon="6.88661">
        <ele>1074.1</ele>
        <time>2026-08-27T04:46:01.026Z</time>
      </trkpt>
      <trkpt lat="47.83244" lon="6.88662">
        <ele>1074.1</ele>
        <time>2026-08-27T04:46:02.033Z</time>
      </trkpt>
      <trkpt lat="47.83244" lon="6.88663">
        <ele>1074.1</ele>
        <time>2026-08-27T04:46:03.046Z</time>
      </trkpt>
      <trkpt lat="47.83244" lon="6.88664">
        <ele>1074.8</ele>
        <time>2026-08-27T04:46:05.057Z</time>
      </trkpt>
      <trkpt lat="47.83244" lon="6.88666">
        <ele>1074.2</ele>
        <time>2026-08-27T04:46:06.969Z</time>
      </trkpt>
      <trkpt lat="47.83244" lon="6.88667">
        <ele>1074.1</ele>
        <time>2026-08-27T04:46:07.985Z</time>
      </trkpt>
      <trkpt lat="47.83245" lon="6.88667">
        <ele>1073.8</ele>
        <time>2026-08-27T04:46:08.994Z</time>
      </trkpt>
      <trkpt lat="47.83246" lon="6.8867">
        <ele>1073.5</ele>
        <time>2026-08-27T04:46:11.010Z</time>
      </trkpt>
      <trkpt lat="47.83246" lon="6.88673">
        <ele>1073.5</ele>
        <time>2026-08-27T04:46:13.042Z</time>
      </trkpt>
      <trkpt lat="47.83247" lon="6.88675">
        <ele>1073.3</ele>
        <time>2026-08-27T04:46:15.043Z</time>
      </trkpt>
      <trkpt lat="47.83247" lon="6.88678">
        <ele>1073.5</ele>
        <time>2026-08-27T04:46:16.957Z</time>
      </trkpt>
      <trkpt lat="47.83247" lon="6.8868">
        <ele>1073.5</ele>
        <time>2026-08-27T04:46:17.966Z</time>
      </trkpt>
      <trkpt lat="47.83247" lon="6.88682">
        <ele>1073.5</ele>
        <time>2026-08-27T04:46:18.973Z</time>
      </trkpt>
      <trkpt lat="47.83247" lon="6.88684">
        <ele>1073.3</ele>
        <time>2026-08-27T04:46:19.981Z</time>
      </trkpt>
      <trkpt lat="47.83247" lon="6.88685">
        <ele>1073.3</ele>
        <time>2026-08-27T04:46:21.048Z</time>
      </trkpt>
      <trkpt lat="47.83247" lon="6.88688">
        <ele>1073.4</ele>
        <time>2026-08-27T04:46:23.005Z</time>
      </trkpt>
      <trkpt lat="47.83247" lon="6.8869">
        <ele>1073.6</ele>
        <time>2026-08-27T04:46:24.013Z</time>
      </trkpt>
      <trkpt lat="47.83247" lon="6.88691">
        <ele>1073.6</ele>
        <time>2026-08-27T04:46:25.022Z</time>
      </trkpt>
      <trkpt lat="47.83247" lon="6.88693">
        <ele>1074.1</ele>
        <time>2026-08-27T04:46:27.038Z</time>
      </trkpt>
      <trkpt lat="47.83247" lon="6.88696">
        <ele>1073.7</ele>
        <time>2026-08-27T04:46:29.054Z</time>
      </trkpt>
      <trkpt lat="47.83247" lon="6.88698">
        <ele>1074</ele>
        <time>2026-08-27T04:46:30.969Z</time>
      </trkpt>
      <trkpt lat="47.83246" lon="6.88699">
        <ele>1074</ele>
        <time>2026-08-27T04:46:32.028Z</time>
      </trkpt>
      <trkpt lat="47.83245" lon="6.88701">
        <ele>1074.6</ele>
        <time>2026-08-27T04:46:33.993Z</time>
      </trkpt>
      <trkpt lat="47.83245" lon="6.88702">
        <ele>1074.9</ele>
        <time>2026-08-27T04:46:35.003Z</time>
      </trkpt>
      <trkpt lat="47.83245" lon="6.88703">
        <ele>1075.1</ele>
        <time>2026-08-27T04:46:36.010Z</time>
      </trkpt>
      <trkpt lat="47.83244" lon="6.88704">
        <ele>1075.1</ele>
        <time>2026-08-27T04:46:37.019Z</time>
      </trkpt>
      <trkpt lat="47.83244" lon="6.88705">
        <ele>1075.2</ele>
        <time>2026-08-27T04:46:38.027Z</time>
      </trkpt>
      <trkpt lat="47.83244" lon="6.88706">
        <ele>1075.3</ele>
        <time>2026-08-27T04:46:39.042Z</time>
      </trkpt>
      <trkpt lat="47.83244" lon="6.88707">
        <ele>1075.7</ele>
        <time>2026-08-27T04:46:40.404Z</time>
      </trkpt>
      <trkpt lat="47.83244" lon="6.88709">
        <ele>1076.3</ele>
        <time>2026-08-27T04:46:41.849Z</time>
      </trkpt>
      <trkpt lat="47.83244" lon="6.8871">
        <ele>1076.8</ele>
        <time>2026-08-27T04:46:42.966Z</time>
      </trkpt>
      <trkpt lat="47.83244" lon="6.88712">
        <ele>1077.5</ele>
        <time>2026-08-27T04:46:44.982Z</time>
      </trkpt>
      <trkpt lat="47.83244" lon="6.88713">
        <ele>1077.6</ele>
        <time>2026-08-27T04:46:45.991Z</time>
      </trkpt>
      <trkpt lat="47.83244" lon="6.88714">
        <ele>1077.7</ele>
        <time>2026-08-27T04:46:46.998Z</time>
      </trkpt>
      <trkpt lat="47.83244" lon="6.88716">
        <ele>1078.1</ele>
        <time>2026-08-27T04:46:49.014Z</time>
      </trkpt>
      <trkpt lat="47.83244" lon="6.88717">
        <ele>1078.3</ele>
        <time>2026-08-27T04:46:50.023Z</time>
      </trkpt>
      <trkpt lat="47.83245" lon="6.88718">
        <ele>1078.6</ele>
        <time>2026-08-27T04:46:51.937Z</time>
      </trkpt>
      <trkpt lat="47.83245" lon="6.88719">
        <ele>1078.5</ele>
        <time>2026-08-27T04:46:53.046Z</time>
      </trkpt>
      <trkpt lat="47.83246" lon="6.88721">
        <ele>1078.5</ele>
        <time>2026-08-27T04:46:55.020Z</time>
      </trkpt>
      <trkpt lat="47.83247" lon="6.88723">
        <ele>1078.8</ele>
        <time>2026-08-27T04:46:56.902Z</time>
      </trkpt>
      <trkpt lat="47.83248" lon="6.88724">
        <ele>1079.2</ele>
        <time>2026-08-27T04:46:57.986Z</time>
      </trkpt>
      <trkpt lat="47.83249" lon="6.88725">
        <ele>1079.2</ele>
        <time>2026-08-27T04:46:59.027Z</time>
      </trkpt>
      <trkpt lat="47.83251" lon="6.88727">
        <ele>1079.7</ele>
        <time>2026-08-27T04:47:01.010Z</time>
      </trkpt>
      <trkpt lat="47.83252" lon="6.88728">
        <ele>1079.1</ele>
        <time>2026-08-27T04:47:02.018Z</time>
      </trkpt>
      <trkpt lat="47.83253" lon="6.88728">
        <ele>1079.1</ele>
        <time>2026-08-27T04:47:03.026Z</time>
      </trkpt>
      <trkpt lat="47.83254" lon="6.88728">
        <ele>1079.1</ele>
        <time>2026-08-27T04:47:04.027Z</time>
      </trkpt>
      <trkpt lat="47.83256" lon="6.8873">
        <ele>1079.5</ele>
        <time>2026-08-27T04:47:05.950Z</time>
      </trkpt>
      <trkpt lat="47.83257" lon="6.88731">
        <ele>1079.3</ele>
        <time>2026-08-27T04:47:06.959Z</time>
      </trkpt>
      <trkpt lat="47.83257" lon="6.88732">
        <ele>1079.4</ele>
        <time>2026-08-27T04:47:07.966Z</time>
      </trkpt>
      <trkpt lat="47.83258" lon="6.88733">
        <ele>1080.1</ele>
        <time>2026-08-27T04:47:08.974Z</time>
      </trkpt>
      <trkpt lat="47.83258" lon="6.88735">
        <ele>1080.1</ele>
        <time>2026-08-27T04:47:09.983Z</time>
      </trkpt>
      <trkpt lat="47.83259" lon="6.88738">
        <ele>1080.3</ele>
        <time>2026-08-27T04:47:11.981Z</time>
      </trkpt>
      <trkpt lat="47.83259" lon="6.88739">
        <ele>1080.5</ele>
        <time>2026-08-27T04:47:13.006Z</time>
      </trkpt>
      <trkpt lat="47.83259" lon="6.88741">
        <ele>1080.6</ele>
        <time>2026-08-27T04:47:14.014Z</time>
      </trkpt>
      <trkpt lat="47.83259" lon="6.88741">
        <ele>1080.6</ele>
        <time>2026-08-27T04:47:15.022Z</time>
      </trkpt>
      <trkpt lat="47.83258" lon="6.88741">
        <ele>1081.1</ele>
        <time>2026-08-27T04:47:16.030Z</time>
      </trkpt>
      <trkpt lat="47.83258" lon="6.88741">
        <ele>1081</ele>
        <time>2026-08-27T04:47:17.947Z</time>
      </trkpt>
      <trkpt lat="47.83258" lon="6.88741">
        <ele>1081</ele>
        <time>2026-08-27T04:47:18.954Z</time>
      </trkpt>
      <trkpt lat="47.83258" lon="6.88741">
        <ele>1081</ele>
        <time>2026-08-27T04:47:19.962Z</time>
      </trkpt>
      <trkpt lat="47.83258" lon="6.88741">
        <ele>1080.9</ele>
        <time>2026-08-27T04:47:20.970Z</time>
      </trkpt>
      <trkpt lat="47.83258" lon="6.88741">
        <ele>1080.7</ele>
        <time>2026-08-27T04:47:21.978Z</time>
      </trkpt>
      <trkpt lat="47.83258" lon="6.88741">
        <ele>1080.5</ele>
        <time>2026-08-27T04:47:22.987Z</time>
      </trkpt>
      <trkpt lat="47.83258" lon="6.88741">
        <ele>1080.5</ele>
        <time>2026-08-27T04:47:23.994Z</time>
      </trkpt>
      <trkpt lat="47.83258" lon="6.88741">
        <ele>1080.5</ele>
        <time>2026-08-27T04:47:26.002Z</time>
      </trkpt>
      <trkpt lat="47.83258" lon="6.88741">
        <ele>1080.6</ele>
        <time>2026-08-27T04:47:27.019Z</time>
      </trkpt>
      <trkpt lat="47.83259" lon="6.88741">
        <ele>1080.6</ele>
        <time>2026-08-27T04:47:28.027Z</time>
      </trkpt>
      <trkpt lat="47.83261" lon="6.88744">
        <ele>1080.5</ele>
        <time>2026-08-27T04:47:30.001Z</time>
      </trkpt>
      <trkpt lat="47.83262" lon="6.88747">
        <ele>1080.5</ele>
        <time>2026-08-27T04:47:31.958Z</time>
      </trkpt>
      <trkpt lat="47.83263" lon="6.88748">
        <ele>1080.6</ele>
        <time>2026-08-27T04:47:32.967Z</time>
      </trkpt>
      <trkpt lat="47.83264" lon="6.88749">
        <ele>1080.5</ele>
        <time>2026-08-27T04:47:33.975Z</time>
      </trkpt>
      <trkpt lat="47.83265" lon="6.88749">
        <ele>1080.3</ele>
        <time>2026-08-27T04:47:34.984Z</time>
      </trkpt>
      <trkpt lat="47.83266" lon="6.8875">
        <ele>1080.1</ele>
        <time>2026-08-27T04:47:35.992Z</time>
      </trkpt>
      <trkpt lat="47.83267" lon="6.88754">
        <ele>1079.9</ele>
        <time>2026-08-27T04:47:38.007Z</time>
      </trkpt>
      <trkpt lat="47.83267" lon="6.88756">
        <ele>1079.9</ele>
        <time>2026-08-27T04:47:39.015Z</time>
      </trkpt>
      <trkpt lat="47.83268" lon="6.88757">
        <ele>1079.9</ele>
        <time>2026-08-27T04:47:40.023Z</time>
      </trkpt>
      <trkpt lat="47.83268" lon="6.88759">
        <ele>1079.9</ele>
        <time>2026-08-27T04:47:41.031Z</time>
      </trkpt>
      <trkpt lat="47.83269" lon="6.8876">
        <ele>1079.8</ele>
        <time>2026-08-27T04:47:42.039Z</time>
      </trkpt>
      <trkpt lat="47.83269" lon="6.88761">
        <ele>1080</ele>
        <time>2026-08-27T04:47:43.048Z</time>
      </trkpt>
      <trkpt lat="47.8327" lon="6.88764">
        <ele>1080</ele>
        <time>2026-08-27T04:47:44.963Z</time>
      </trkpt>
      <trkpt lat="47.83271" lon="6.88766">
        <ele>1080.5</ele>
        <time>2026-08-27T04:47:45.971Z</time>
      </trkpt>
      <trkpt lat="47.83271" lon="6.88767">
        <ele>1080.9</ele>
        <time>2026-08-27T04:47:46.979Z</time>
      </trkpt>
      <trkpt lat="47.83272" lon="6.88769">
        <ele>1081</ele>
        <time>2026-08-27T04:47:47.987Z</time>
      </trkpt>
      <trkpt lat="47.83272" lon="6.8877">
        <ele>1081.2</ele>
        <time>2026-08-27T04:47:48.996Z</time>
      </trkpt>
      <trkpt lat="47.83273" lon="6.88772">
        <ele>1081.2</ele>
        <time>2026-08-27T04:47:50.003Z</time>
      </trkpt>
      <trkpt lat="47.83273" lon="6.88773">
        <ele>1081.3</ele>
        <time>2026-08-27T04:47:51.012Z</time>
      </trkpt>
      <trkpt lat="47.83274" lon="6.88776">
        <ele>1081.4</ele>
        <time>2026-08-27T04:47:53.028Z</time>
      </trkpt>
      <trkpt lat="47.83274" lon="6.88777">
        <ele>1081.4</ele>
        <time>2026-08-27T04:47:54.037Z</time>
      </trkpt>
      <trkpt lat="47.83274" lon="6.88779">
        <ele>1081.4</ele>
        <time>2026-08-27T04:47:55.062Z</time>
      </trkpt>
      <trkpt lat="47.83274" lon="6.88781">
        <ele>1080.9</ele>
        <time>2026-08-27T04:47:57.060Z</time>
      </trkpt>
      <trkpt lat="47.83274" lon="6.88784">
        <ele>1080.8</ele>
        <time>2026-08-27T04:47:58.975Z</time>
      </trkpt>
      <trkpt lat="47.83275" lon="6.88786">
        <ele>1080.7</ele>
        <time>2026-08-27T04:47:59.983Z</time>
      </trkpt>
      <trkpt lat="47.83275" lon="6.88787">
        <ele>1080.7</ele>
        <time>2026-08-27T04:48:00.983Z</time>
      </trkpt>
      <trkpt lat="47.83275" lon="6.88788">
        <ele>1080.5</ele>
        <time>2026-08-27T04:48:02.000Z</time>
      </trkpt>
      <trkpt lat="47.83275" lon="6.88789">
        <ele>1080.4</ele>
        <time>2026-08-27T04:48:03.008Z</time>
      </trkpt>
      <trkpt lat="47.83275" lon="6.8879">
        <ele>1080.2</ele>
        <time>2026-08-27T04:48:04.017Z</time>
      </trkpt>
      <trkpt lat="47.83275" lon="6.88792">
        <ele>1080.3</ele>
        <time>2026-08-27T04:48:06.040Z</time>
      </trkpt>
      <trkpt lat="47.83276" lon="6.88792">
        <ele>1080.2</ele>
        <time>2026-08-27T04:48:07.048Z</time>
      </trkpt>
      <trkpt lat="47.83276" lon="6.88793">
        <ele>1080.2</ele>
        <time>2026-08-27T04:48:08.048Z</time>
      </trkpt>
      <trkpt lat="47.83276" lon="6.88794">
        <ele>1079.1</ele>
        <time>2026-08-27T04:48:09.971Z</time>
      </trkpt>
      <trkpt lat="47.83276" lon="6.88794">
        <ele>1079.1</ele>
        <time>2026-08-27T04:48:11.031Z</time>
      </trkpt>
      <trkpt lat="47.83276" lon="6.88796">
        <ele>1079</ele>
        <time>2026-08-27T04:48:12.997Z</time>
      </trkpt>
      <trkpt lat="47.83276" lon="6.88797">
        <ele>1078.7</ele>
        <time>2026-08-27T04:48:14.004Z</time>
      </trkpt>
      <trkpt lat="47.83276" lon="6.888">
        <ele>1078.6</ele>
        <time>2026-08-27T04:48:16.020Z</time>
      </trkpt>
      <trkpt lat="47.83276" lon="6.88802">
        <ele>1078.3</ele>
        <time>2026-08-27T04:48:17.029Z</time>
      </trkpt>
      <trkpt lat="47.83276" lon="6.88803">
        <ele>1078.1</ele>
        <time>2026-08-27T04:48:18.037Z</time>
      </trkpt>
      <trkpt lat="47.83276" lon="6.88805">
        <ele>1077.7</ele>
        <time>2026-08-27T04:48:19.044Z</time>
      </trkpt>
      <trkpt lat="47.83275" lon="6.88807">
        <ele>1077.7</ele>
        <time>2026-08-27T04:48:20.052Z</time>
      </trkpt>
      <trkpt lat="47.83275" lon="6.88808">
        <ele>1077.5</ele>
        <time>2026-08-27T04:48:21.060Z</time>
      </trkpt>
      <trkpt lat="47.83275" lon="6.88811">
        <ele>1077.3</ele>
        <time>2026-08-27T04:48:22.950Z</time>
      </trkpt>
      <trkpt lat="47.83275" lon="6.88812">
        <ele>1077.2</ele>
        <time>2026-08-27T04:48:24.050Z</time>
      </trkpt>
      <trkpt lat="47.83276" lon="6.88813">
        <ele>1076.5</ele>
        <time>2026-08-27T04:48:25.999Z</time>
      </trkpt>
      <trkpt lat="47.83277" lon="6.88814">
        <ele>1076.3</ele>
        <time>2026-08-27T04:48:27.007Z</time>
      </trkpt>
      <trkpt lat="47.83277" lon="6.88815">
        <ele>1076</ele>
        <time>2026-08-27T04:48:28.015Z</time>
      </trkpt>
      <trkpt lat="47.83278" lon="6.88816">
        <ele>1075.8</ele>
        <time>2026-08-27T04:48:29.024Z</time>
      </trkpt>
      <trkpt lat="47.83278" lon="6.88816">
        <ele>1075.5</ele>
        <time>2026-08-27T04:48:30.032Z</time>
      </trkpt>
      <trkpt lat="47.83279" lon="6.88816">
        <ele>1075.3</ele>
        <time>2026-08-27T04:48:31.040Z</time>
      </trkpt>
      <trkpt lat="47.83279" lon="6.88816">
        <ele>1075.3</ele>
        <time>2026-08-27T04:48:32.048Z</time>
      </trkpt>
      <trkpt lat="47.8328" lon="6.88816">
        <ele>1075.1</ele>
        <time>2026-08-27T04:48:33.057Z</time>
      </trkpt>
      <trkpt lat="47.83281" lon="6.88817">
        <ele>1074.6</ele>
        <time>2026-08-27T04:48:34.971Z</time>
      </trkpt>
      <trkpt lat="47.83281" lon="6.88818">
        <ele>1074.4</ele>
        <time>2026-08-27T04:48:35.979Z</time>
      </trkpt>
      <trkpt lat="47.83282" lon="6.88818">
        <ele>1074.4</ele>
        <time>2026-08-27T04:48:36.987Z</time>
      </trkpt>
      <trkpt lat="47.83282" lon="6.88819">
        <ele>1074.4</ele>
        <time>2026-08-27T04:48:38.071Z</time>
      </trkpt>
      <trkpt lat="47.83284" lon="6.88819">
        <ele>1073.8</ele>
        <time>2026-08-27T04:48:40.011Z</time>
      </trkpt>
      <trkpt lat="47.83285" lon="6.88819">
        <ele>1073.6</ele>
        <time>2026-08-27T04:48:41.019Z</time>
      </trkpt>
      <trkpt lat="47.83287" lon="6.8882">
        <ele>1073.3</ele>
        <time>2026-08-27T04:48:43.069Z</time>
      </trkpt>
      <trkpt lat="47.83288" lon="6.88821">
        <ele>1073</ele>
        <time>2026-08-27T04:48:44.976Z</time>
      </trkpt>
      <trkpt lat="47.83289" lon="6.88821">
        <ele>1072.6</ele>
        <time>2026-08-27T04:48:46.059Z</time>
      </trkpt>
      <trkpt lat="47.83289" lon="6.88822">
        <ele>1072.4</ele>
        <time>2026-08-27T04:48:47.067Z</time>
      </trkpt>
      <trkpt lat="47.8329" lon="6.88823">
        <ele>1072.2</ele>
        <time>2026-08-27T04:48:48.075Z</time>
      </trkpt>
      <trkpt lat="47.83289" lon="6.88825">
        <ele>1071.9</ele>
        <time>2026-08-27T04:48:49.991Z</time>
      </trkpt>
      <trkpt lat="47.83289" lon="6.88825">
        <ele>1071.8</ele>
        <time>2026-08-27T04:48:50.999Z</time>
      </trkpt>
      <trkpt lat="47.83289" lon="6.88824">
        <ele>1071.8</ele>
        <time>2026-08-27T04:48:52.006Z</time>
      </trkpt>
      <trkpt lat="47.8329" lon="6.88824">
        <ele>1071.7</ele>
        <time>2026-08-27T04:48:53.014Z</time>
      </trkpt>
      <trkpt lat="47.83291" lon="6.88826">
        <ele>1071.6</ele>
        <time>2026-08-27T04:48:55.031Z</time>
      </trkpt>
      <trkpt lat="47.83292" lon="6.88826">
        <ele>1071.8</ele>
        <time>2026-08-27T04:48:56.039Z</time>
      </trkpt>
      <trkpt lat="47.83293" lon="6.88827">
        <ele>1071.7</ele>
        <time>2026-08-27T04:48:57.047Z</time>
      </trkpt>
      <trkpt lat="47.83294" lon="6.88829">
        <ele>1071.1</ele>
        <time>2026-08-27T04:48:58.970Z</time>
      </trkpt>
      <trkpt lat="47.83295" lon="6.8883">
        <ele>1070.6</ele>
        <time>2026-08-27T04:49:00.012Z</time>
      </trkpt>
      <trkpt lat="47.83296" lon="6.88831">
        <ele>1070.5</ele>
        <time>2026-08-27T04:49:01.935Z</time>
      </trkpt>
      <trkpt lat="47.83297" lon="6.88832">
        <ele>1070.1</ele>
        <time>2026-08-27T04:49:02.994Z</time>
      </trkpt>
      <trkpt lat="47.83297" lon="6.88833">
        <ele>1070</ele>
        <time>2026-08-27T04:49:04.003Z</time>
      </trkpt>
      <trkpt lat="47.83296" lon="6.88837">
        <ele>1069.7</ele>
        <time>2026-08-27T04:49:06.052Z</time>
      </trkpt>
      <trkpt lat="47.83296" lon="6.88839">
        <ele>1068.8</ele>
        <time>2026-08-27T04:49:08.034Z</time>
      </trkpt>
      <trkpt lat="47.83296" lon="6.8884">
        <ele>1068.4</ele>
        <time>2026-08-27T04:49:09.042Z</time>
      </trkpt>
      <trkpt lat="47.83296" lon="6.88841">
        <ele>1068.2</ele>
        <time>2026-08-27T04:49:10.051Z</time>
      </trkpt>
      <trkpt lat="47.83297" lon="6.88842">
        <ele>1068</ele>
        <time>2026-08-27T04:49:11.058Z</time>
      </trkpt>
      <trkpt lat="47.83298" lon="6.88844">
        <ele>1067.6</ele>
        <time>2026-08-27T04:49:12.990Z</time>
      </trkpt>
      <trkpt lat="47.83298" lon="6.88845">
        <ele>1067.3</ele>
        <time>2026-08-27T04:49:14.074Z</time>
      </trkpt>
      <trkpt lat="47.83299" lon="6.88848">
        <ele>1067</ele>
        <time>2026-08-27T04:49:15.997Z</time>
      </trkpt>
      <trkpt lat="47.833" lon="6.88849">
        <ele>1066.9</ele>
        <time>2026-08-27T04:49:17.006Z</time>
      </trkpt>
      <trkpt lat="47.833" lon="6.88851">
        <ele>1066.8</ele>
        <time>2026-08-27T04:49:18.014Z</time>
      </trkpt>
      <trkpt lat="47.833" lon="6.88852">
        <ele>1066.8</ele>
        <time>2026-08-27T04:49:19.022Z</time>
      </trkpt>
      <trkpt lat="47.83301" lon="6.88853">
        <ele>1066.7</ele>
        <time>2026-08-27T04:49:20.030Z</time>
      </trkpt>
      <trkpt lat="47.83301" lon="6.88854">
        <ele>1067.1</ele>
        <time>2026-08-27T04:49:21.041Z</time>
      </trkpt>
      <trkpt lat="47.833" lon="6.88856">
        <ele>1067.6</ele>
        <time>2026-08-27T04:49:22.049Z</time>
      </trkpt>
      <trkpt lat="47.833" lon="6.88857">
        <ele>1067.6</ele>
        <time>2026-08-27T04:49:23.058Z</time>
      </trkpt>
      <trkpt lat="47.83299" lon="6.88858">
        <ele>1067.6</ele>
        <time>2026-08-27T04:49:24.066Z</time>
      </trkpt>
      <trkpt lat="47.83299" lon="6.88861">
        <ele>1067.6</ele>
        <time>2026-08-27T04:49:25.981Z</time>
      </trkpt>
      <trkpt lat="47.83299" lon="6.88863">
        <ele>1067.1</ele>
        <time>2026-08-27T04:49:26.990Z</time>
      </trkpt>
      <trkpt lat="47.83299" lon="6.88865">
        <ele>1067.1</ele>
        <time>2026-08-27T04:49:27.997Z</time>
      </trkpt>
      <trkpt lat="47.83299" lon="6.88866">
        <ele>1067.1</ele>
        <time>2026-08-27T04:49:29.005Z</time>
      </trkpt>
      <trkpt lat="47.83299" lon="6.8887">
        <ele>1068</ele>
        <time>2026-08-27T04:49:31.021Z</time>
      </trkpt>
      <trkpt lat="47.83299" lon="6.88871">
        <ele>1067.8</ele>
        <time>2026-08-27T04:49:32.029Z</time>
      </trkpt>
      <trkpt lat="47.83298" lon="6.88875">
        <ele>1067.5</ele>
        <time>2026-08-27T04:49:34.045Z</time>
      </trkpt>
      <trkpt lat="47.83297" lon="6.88877">
        <ele>1067.7</ele>
        <time>2026-08-27T04:49:36.061Z</time>
      </trkpt>
      <trkpt lat="47.83297" lon="6.88879">
        <ele>1068.3</ele>
        <time>2026-08-27T04:49:37.977Z</time>
      </trkpt>
      <trkpt lat="47.83297" lon="6.8888">
        <ele>1068.6</ele>
        <time>2026-08-27T04:49:38.984Z</time>
      </trkpt>
      <trkpt lat="47.83296" lon="6.88882">
        <ele>1069.2</ele>
        <time>2026-08-27T04:49:41.001Z</time>
      </trkpt>
      <trkpt lat="47.83295" lon="6.88884">
        <ele>1069.1</ele>
        <time>2026-08-27T04:49:43.038Z</time>
      </trkpt>
      <trkpt lat="47.83295" lon="6.88886">
        <ele>1069.2</ele>
        <time>2026-08-27T04:49:45.033Z</time>
      </trkpt>
      <trkpt lat="47.83295" lon="6.88888">
        <ele>1069.3</ele>
        <time>2026-08-27T04:49:46.040Z</time>
      </trkpt>
      <trkpt lat="47.83294" lon="6.88889">
        <ele>1069.3</ele>
        <time>2026-08-27T04:49:47.048Z</time>
      </trkpt>
      <trkpt lat="47.83294" lon="6.88892">
        <ele>1069.4</ele>
        <time>2026-08-27T04:49:48.964Z</time>
      </trkpt>
      <trkpt lat="47.83293" lon="6.88893">
        <ele>1069.9</ele>
        <time>2026-08-27T04:49:49.971Z</time>
      </trkpt>
      <trkpt lat="47.83293" lon="6.88894">
        <ele>1069.9</ele>
        <time>2026-08-27T04:49:50.979Z</time>
      </trkpt>
      <trkpt lat="47.83293" lon="6.88896">
        <ele>1069.7</ele>
        <time>2026-08-27T04:49:51.987Z</time>
      </trkpt>
      <trkpt lat="47.83292" lon="6.88897">
        <ele>1070</ele>
        <time>2026-08-27T04:49:52.996Z</time>
      </trkpt>
      <trkpt lat="47.83292" lon="6.88898">
        <ele>1069.8</ele>
        <time>2026-08-27T04:49:54.003Z</time>
      </trkpt>
      <trkpt lat="47.83292" lon="6.88899">
        <ele>1069.9</ele>
        <time>2026-08-27T04:49:55.011Z</time>
      </trkpt>
      <trkpt lat="47.83291" lon="6.88899">
        <ele>1069.9</ele>
        <time>2026-08-27T04:49:56.019Z</time>
      </trkpt>
      <trkpt lat="47.83291" lon="6.889">
        <ele>1070</ele>
        <time>2026-08-27T04:49:57.027Z</time>
      </trkpt>
      <trkpt lat="47.8329" lon="6.88901">
        <ele>1070</ele>
        <time>2026-08-27T04:49:58.036Z</time>
      </trkpt>
      <trkpt lat="47.8329" lon="6.88905">
        <ele>1070.2</ele>
        <time>2026-08-27T04:50:00.051Z</time>
      </trkpt>
      <trkpt lat="47.83289" lon="6.88909">
        <ele>1070</ele>
        <time>2026-08-27T04:50:02.046Z</time>
      </trkpt>
      <trkpt lat="47.83289" lon="6.88912">
        <ele>1069.3</ele>
        <time>2026-08-27T04:50:03.983Z</time>
      </trkpt>
      <trkpt lat="47.83289" lon="6.88913">
        <ele>1069.2</ele>
        <time>2026-08-27T04:50:04.991Z</time>
      </trkpt>
      <trkpt lat="47.83288" lon="6.88916">
        <ele>1068.5</ele>
        <time>2026-08-27T04:50:07.007Z</time>
      </trkpt>
      <trkpt lat="47.83287" lon="6.88917">
        <ele>1068.6</ele>
        <time>2026-08-27T04:50:08.015Z</time>
      </trkpt>
      <trkpt lat="47.83287" lon="6.88918">
        <ele>1068.5</ele>
        <time>2026-08-27T04:50:09.023Z</time>
      </trkpt>
      <trkpt lat="47.83286" lon="6.88919">
        <ele>1068.8</ele>
        <time>2026-08-27T04:50:10.031Z</time>
      </trkpt>
      <trkpt lat="47.83285" lon="6.8892">
        <ele>1068.7</ele>
        <time>2026-08-27T04:50:11.040Z</time>
      </trkpt>
      <trkpt lat="47.83284" lon="6.88921">
        <ele>1068.7</ele>
        <time>2026-08-27T04:50:12.048Z</time>
      </trkpt>
      <trkpt lat="47.83283" lon="6.88923">
        <ele>1068.7</ele>
        <time>2026-08-27T04:50:13.055Z</time>
      </trkpt>
      <trkpt lat="47.83283" lon="6.88924">
        <ele>1068.4</ele>
        <time>2026-08-27T04:50:14.063Z</time>
      </trkpt>
      <trkpt lat="47.83281" lon="6.88926">
        <ele>1068.4</ele>
        <time>2026-08-27T04:50:15.979Z</time>
      </trkpt>
      <trkpt lat="47.8328" lon="6.88926">
        <ele>1068.4</ele>
        <time>2026-08-27T04:50:16.987Z</time>
      </trkpt>
      <trkpt lat="47.8328" lon="6.88926">
        <ele>1068.3</ele>
        <time>2026-08-27T04:50:17.994Z</time>
      </trkpt>
      <trkpt lat="47.83281" lon="6.88926">
        <ele>1068.4</ele>
        <time>2026-08-27T04:50:19.002Z</time>
      </trkpt>
      <trkpt lat="47.83281" lon="6.88926">
        <ele>1068.7</ele>
        <time>2026-08-27T04:50:20.010Z</time>
      </trkpt>
      <trkpt lat="47.83281" lon="6.88925">
        <ele>1068.7</ele>
        <time>2026-08-27T04:50:21.018Z</time>
      </trkpt>
      <trkpt lat="47.83281" lon="6.88925">
        <ele>1068.6</ele>
        <time>2026-08-27T04:50:22.026Z</time>
      </trkpt>
      <trkpt lat="47.83281" lon="6.88925">
        <ele>1068.6</ele>
        <time>2026-08-27T04:50:23.035Z</time>
      </trkpt>
      <trkpt lat="47.83281" lon="6.88925">
        <ele>1068.4</ele>
        <time>2026-08-27T04:50:24.042Z</time>
      </trkpt>
      <trkpt lat="47.83281" lon="6.88925">
        <ele>1068.4</ele>
        <time>2026-08-27T04:50:25.050Z</time>
      </trkpt>
      <trkpt lat="47.8328" lon="6.88926">
        <ele>1068.4</ele>
        <time>2026-08-27T04:50:27.079Z</time>
      </trkpt>
      <trkpt lat="47.83279" lon="6.88927">
        <ele>1068.5</ele>
        <time>2026-08-27T04:50:28.919Z</time>
      </trkpt>
      <trkpt lat="47.83279" lon="6.88928">
        <ele>1068.8</ele>
        <time>2026-08-27T04:50:29.989Z</time>
      </trkpt>
      <trkpt lat="47.83278" lon="6.88929">
        <ele>1068.6</ele>
        <time>2026-08-27T04:50:30.997Z</time>
      </trkpt>
      <trkpt lat="47.83277" lon="6.88929">
        <ele>1068.5</ele>
        <time>2026-08-27T04:50:32.005Z</time>
      </trkpt>
      <trkpt lat="47.83276" lon="6.8893">
        <ele>1068.5</ele>
        <time>2026-08-27T04:50:33.013Z</time>
      </trkpt>
      <trkpt lat="47.83276" lon="6.88931">
        <ele>1068.5</ele>
        <time>2026-08-27T04:50:34.021Z</time>
      </trkpt>
      <trkpt lat="47.83275" lon="6.88932">
        <ele>1069.2</ele>
        <time>2026-08-27T04:50:35.029Z</time>
      </trkpt>
      <trkpt lat="47.83276" lon="6.88933">
        <ele>1069.3</ele>
        <time>2026-08-27T04:50:36.042Z</time>
      </trkpt>
      <trkpt lat="47.83276" lon="6.88934">
        <ele>1069.1</ele>
        <time>2026-08-27T04:50:37.045Z</time>
      </trkpt>
      <trkpt lat="47.83276" lon="6.88935">
        <ele>1068.9</ele>
        <time>2026-08-27T04:50:38.053Z</time>
      </trkpt>
      <trkpt lat="47.83276" lon="6.88936">
        <ele>1068.9</ele>
        <time>2026-08-27T04:50:39.082Z</time>
      </trkpt>
      <trkpt lat="47.83276" lon="6.88938">
        <ele>1069.2</ele>
        <time>2026-08-27T04:50:41.098Z</time>
      </trkpt>
      <trkpt lat="47.83276" lon="6.88939">
        <ele>1069</ele>
        <time>2026-08-27T04:50:42.182Z</time>
      </trkpt>
      <trkpt lat="47.83277" lon="6.88941">
        <ele>1069.3</ele>
        <time>2026-08-27T04:50:43.316Z</time>
      </trkpt>
      <trkpt lat="47.83277" lon="6.88942">
        <ele>1070.1</ele>
        <time>2026-08-27T04:50:45.010Z</time>
      </trkpt>
      <trkpt lat="47.83278" lon="6.88943">
        <ele>1070.2</ele>
        <time>2026-08-27T04:50:46.017Z</time>
      </trkpt>
      <trkpt lat="47.83278" lon="6.88944">
        <ele>1070.2</ele>
        <time>2026-08-27T04:50:47.025Z</time>
      </trkpt>
      <trkpt lat="47.83278" lon="6.88946">
        <ele>1069.8</ele>
        <time>2026-08-27T04:50:48.033Z</time>
      </trkpt>
      <trkpt lat="47.83277" lon="6.88947">
        <ele>1070</ele>
        <time>2026-08-27T04:50:49.041Z</time>
      </trkpt>
      <trkpt lat="47.83278" lon="6.88948">
        <ele>1070.4</ele>
        <time>2026-08-27T04:50:50.050Z</time>
      </trkpt>
      <trkpt lat="47.83278" lon="6.8895">
        <ele>1070.6</ele>
        <time>2026-08-27T04:50:51.964Z</time>
      </trkpt>
      <trkpt lat="47.83279" lon="6.88951">
        <ele>1070.4</ele>
        <time>2026-08-27T04:50:52.972Z</time>
      </trkpt>
      <trkpt lat="47.83278" lon="6.88953">
        <ele>1070.6</ele>
        <time>2026-08-27T04:50:53.980Z</time>
      </trkpt>
      <trkpt lat="47.83278" lon="6.88954">
        <ele>1070.5</ele>
        <time>2026-08-27T04:50:54.988Z</time>
      </trkpt>
      <trkpt lat="47.83278" lon="6.88956">
        <ele>1070.4</ele>
        <time>2026-08-27T04:50:55.997Z</time>
      </trkpt>
      <trkpt lat="47.83277" lon="6.88959">
        <ele>1070</ele>
        <time>2026-08-27T04:50:58.012Z</time>
      </trkpt>
      <trkpt lat="47.83277" lon="6.88961">
        <ele>1070</ele>
        <time>2026-08-27T04:50:59.058Z</time>
      </trkpt>
      <trkpt lat="47.83278" lon="6.88963">
        <ele>1069.4</ele>
        <time>2026-08-27T04:51:01.040Z</time>
      </trkpt>
      <trkpt lat="47.83278" lon="6.88964">
        <ele>1069</ele>
        <time>2026-08-27T04:51:02.049Z</time>
      </trkpt>
      <trkpt lat="47.83279" lon="6.88965">
        <ele>1068.7</ele>
        <time>2026-08-27T04:51:03.057Z</time>
      </trkpt>
      <trkpt lat="47.8328" lon="6.88966">
        <ele>1068.6</ele>
        <time>2026-08-27T04:51:04.065Z</time>
      </trkpt>
      <trkpt lat="47.8328" lon="6.88968">
        <ele>1068.4</ele>
        <time>2026-08-27T04:51:05.072Z</time>
      </trkpt>
      <trkpt lat="47.83279" lon="6.8897">
        <ele>1068.2</ele>
        <time>2026-08-27T04:51:06.988Z</time>
      </trkpt>
      <trkpt lat="47.83279" lon="6.8897">
        <ele>1068</ele>
        <time>2026-08-27T04:51:07.996Z</time>
      </trkpt>
      <trkpt lat="47.83279" lon="6.88971">
        <ele>1067.8</ele>
        <time>2026-08-27T04:51:09.005Z</time>
      </trkpt>
      <trkpt lat="47.83278" lon="6.88971">
        <ele>1067.5</ele>
        <time>2026-08-27T04:51:10.012Z</time>
      </trkpt>
      <trkpt lat="47.83278" lon="6.88971">
        <ele>1067.1</ele>
        <time>2026-08-27T04:51:11.020Z</time>
      </trkpt>
      <trkpt lat="47.83277" lon="6.88973">
        <ele>1067.4</ele>
        <time>2026-08-27T04:51:13.062Z</time>
      </trkpt>
      <trkpt lat="47.83276" lon="6.88975">
        <ele>1067.1</ele>
        <time>2026-08-27T04:51:15.052Z</time>
      </trkpt>
      <trkpt lat="47.83276" lon="6.88977">
        <ele>1066.9</ele>
        <time>2026-08-27T04:51:16.060Z</time>
      </trkpt>
      <trkpt lat="47.83275" lon="6.88979">
        <ele>1066.6</ele>
        <time>2026-08-27T04:51:17.942Z</time>
      </trkpt>
      <trkpt lat="47.83275" lon="6.8898">
        <ele>1066.4</ele>
        <time>2026-08-27T04:51:19.008Z</time>
      </trkpt>
      <trkpt lat="47.83275" lon="6.88981">
        <ele>1066.2</ele>
        <time>2026-08-27T04:51:20.016Z</time>
      </trkpt>
      <trkpt lat="47.83274" lon="6.88982">
        <ele>1066</ele>
        <time>2026-08-27T04:51:21.025Z</time>
      </trkpt>
      <trkpt lat="47.83274" lon="6.88985">
        <ele>1065.5</ele>
        <time>2026-08-27T04:51:23.040Z</time>
      </trkpt>
      <trkpt lat="47.83274" lon="6.88986">
        <ele>1065.2</ele>
        <time>2026-08-27T04:51:24.049Z</time>
      </trkpt>
      <trkpt lat="47.83274" lon="6.88988">
        <ele>1065</ele>
        <time>2026-08-27T04:51:25.056Z</time>
      </trkpt>
      <trkpt lat="47.83274" lon="6.8899">
        <ele>1064.8</ele>
        <time>2026-08-27T04:51:26.065Z</time>
      </trkpt>
      <trkpt lat="47.83274" lon="6.88991">
        <ele>1064.9</ele>
        <time>2026-08-27T04:51:27.072Z</time>
      </trkpt>
      <trkpt lat="47.83274" lon="6.88993">
        <ele>1064.6</ele>
        <time>2026-08-27T04:51:28.081Z</time>
      </trkpt>
      <trkpt lat="47.83273" lon="6.88996">
        <ele>1064.8</ele>
        <time>2026-08-27T04:51:29.996Z</time>
      </trkpt>
      <trkpt lat="47.83273" lon="6.88997">
        <ele>1064.6</ele>
        <time>2026-08-27T04:51:31.003Z</time>
      </trkpt>
      <trkpt lat="47.83272" lon="6.88999">
        <ele>1064.6</ele>
        <time>2026-08-27T04:51:32.087Z</time>
      </trkpt>
      <trkpt lat="47.83272" lon="6.89001">
        <ele>1064.6</ele>
        <time>2026-08-27T04:51:34.027Z</time>
      </trkpt>
      <trkpt lat="47.83271" lon="6.89002">
        <ele>1064.1</ele>
        <time>2026-08-27T04:51:35.036Z</time>
      </trkpt>
      <trkpt lat="47.8327" lon="6.89005">
        <ele>1063.9</ele>
        <time>2026-08-27T04:51:37.051Z</time>
      </trkpt>
      <trkpt lat="47.83268" lon="6.89006">
        <ele>1063.6</ele>
        <time>2026-08-27T04:51:39.068Z</time>
      </trkpt>
      <trkpt lat="47.83267" lon="6.89009">
        <ele>1063.3</ele>
        <time>2026-08-27T04:51:40.983Z</time>
      </trkpt>
      <trkpt lat="47.83267" lon="6.89009">
        <ele>1063.7</ele>
        <time>2026-08-27T04:51:41.991Z</time>
      </trkpt>
      <trkpt lat="47.83267" lon="6.8901">
        <ele>1063.7</ele>
        <time>2026-08-27T04:51:42.999Z</time>
      </trkpt>
      <trkpt lat="47.83268" lon="6.89012">
        <ele>1063.6</ele>
        <time>2026-08-27T04:51:45.014Z</time>
      </trkpt>
      <trkpt lat="47.83267" lon="6.89014">
        <ele>1063.3</ele>
        <time>2026-08-27T04:51:47.031Z</time>
      </trkpt>
      <trkpt lat="47.83267" lon="6.89014">
        <ele>1063.5</ele>
        <time>2026-08-27T04:51:48.038Z</time>
      </trkpt>
      <trkpt lat="47.83267" lon="6.89013">
        <ele>1063.8</ele>
        <time>2026-08-27T04:51:49.046Z</time>
      </trkpt>
      <trkpt lat="47.83267" lon="6.89013">
        <ele>1064.1</ele>
        <time>2026-08-27T04:51:50.054Z</time>
      </trkpt>
      <trkpt lat="47.83267" lon="6.89013">
        <ele>1064.1</ele>
        <time>2026-08-27T04:51:51.062Z</time>
      </trkpt>
      <trkpt lat="47.83267" lon="6.89012">
        <ele>1064</ele>
        <time>2026-08-27T04:51:52.070Z</time>
      </trkpt>
      <trkpt lat="47.83267" lon="6.89012">
        <ele>1064</ele>
        <time>2026-08-27T04:51:53.987Z</time>
      </trkpt>
      <trkpt lat="47.83267" lon="6.89012">
        <ele>1064</ele>
        <time>2026-08-27T04:51:54.994Z</time>
      </trkpt>
      <trkpt lat="47.83267" lon="6.89012">
        <ele>1064.1</ele>
        <time>2026-08-27T04:51:56.002Z</time>
      </trkpt>
      <trkpt lat="47.83267" lon="6.89012">
        <ele>1064</ele>
        <time>2026-08-27T04:51:57.010Z</time>
      </trkpt>
      <trkpt lat="47.83267" lon="6.89012">
        <ele>1063.7</ele>
        <time>2026-08-27T04:51:58.019Z</time>
      </trkpt>
      <trkpt lat="47.83267" lon="6.89012">
        <ele>1064</ele>
        <time>2026-08-27T04:51:59.027Z</time>
      </trkpt>
      <trkpt lat="47.83266" lon="6.89012">
        <ele>1063.9</ele>
        <time>2026-08-27T04:52:00.034Z</time>
      </trkpt>
      <trkpt lat="47.83266" lon="6.89013">
        <ele>1063.7</ele>
        <time>2026-08-27T04:52:01.043Z</time>
      </trkpt>
      <trkpt lat="47.83265" lon="6.89014">
        <ele>1063.9</ele>
        <time>2026-08-27T04:52:02.050Z</time>
      </trkpt>
      <trkpt lat="47.83262" lon="6.89017">
        <ele>1063</ele>
        <time>2026-08-27T04:52:03.969Z</time>
      </trkpt>
      <trkpt lat="47.83262" lon="6.89019">
        <ele>1062.9</ele>
        <time>2026-08-27T04:52:04.978Z</time>
      </trkpt>
      <trkpt lat="47.83261" lon="6.89021">
        <ele>1062.9</ele>
        <time>2026-08-27T04:52:06.006Z</time>
      </trkpt>
      <trkpt lat="47.8326" lon="6.89025">
        <ele>1063</ele>
        <time>2026-08-27T04:52:08.001Z</time>
      </trkpt>
      <trkpt lat="47.8326" lon="6.89026">
        <ele>1063</ele>
        <time>2026-08-27T04:52:09.065Z</time>
      </trkpt>
      <trkpt lat="47.83259" lon="6.89029">
        <ele>1063.4</ele>
        <time>2026-08-27T04:52:11.025Z</time>
      </trkpt>
      <trkpt lat="47.83258" lon="6.8903">
        <ele>1063.5</ele>
        <time>2026-08-27T04:52:12.033Z</time>
      </trkpt>
      <trkpt lat="47.83258" lon="6.89033">
        <ele>1063.7</ele>
        <time>2026-08-27T04:52:14.049Z</time>
      </trkpt>
      <trkpt lat="47.83258" lon="6.89036">
        <ele>1062.7</ele>
        <time>2026-08-27T04:52:16.025Z</time>
      </trkpt>
      <trkpt lat="47.83258" lon="6.89037">
        <ele>1062.6</ele>
        <time>2026-08-27T04:52:17.073Z</time>
      </trkpt>
      <trkpt lat="47.83258" lon="6.8904">
        <ele>1062.3</ele>
        <time>2026-08-27T04:52:18.989Z</time>
      </trkpt>
      <trkpt lat="47.83258" lon="6.89042">
        <ele>1062.1</ele>
        <time>2026-08-27T04:52:19.997Z</time>
      </trkpt>
      <trkpt lat="47.83258" lon="6.89044">
        <ele>1062</ele>
        <time>2026-08-27T04:52:21.005Z</time>
      </trkpt>
      <trkpt lat="47.83258" lon="6.89045">
        <ele>1061.7</ele>
        <time>2026-08-27T04:52:22.013Z</time>
      </trkpt>
      <trkpt lat="47.83258" lon="6.89046">
        <ele>1061.6</ele>
        <time>2026-08-27T04:52:23.020Z</time>
      </trkpt>
      <trkpt lat="47.83258" lon="6.89047">
        <ele>1061.4</ele>
        <time>2026-08-27T04:52:24.028Z</time>
      </trkpt>
      <trkpt lat="47.83258" lon="6.8905">
        <ele>1061.2</ele>
        <time>2026-08-27T04:52:26.045Z</time>
      </trkpt>
      <trkpt lat="47.83258" lon="6.89051">
        <ele>1061</ele>
        <time>2026-08-27T04:52:27.052Z</time>
      </trkpt>
      <trkpt lat="47.83258" lon="6.89053">
        <ele>1060.7</ele>
        <time>2026-08-27T04:52:28.061Z</time>
      </trkpt>
      <trkpt lat="47.83258" lon="6.89055">
        <ele>1060.5</ele>
        <time>2026-08-27T04:52:29.069Z</time>
      </trkpt>
      <trkpt lat="47.83258" lon="6.89058">
        <ele>1060.2</ele>
        <time>2026-08-27T04:52:30.983Z</time>
      </trkpt>
      <trkpt lat="47.83257" lon="6.89059">
        <ele>1060.2</ele>
        <time>2026-08-27T04:52:32.046Z</time>
      </trkpt>
      <trkpt lat="47.83257" lon="6.89062">
        <ele>1059.6</ele>
        <time>2026-08-27T04:52:34.007Z</time>
      </trkpt>
      <trkpt lat="47.83257" lon="6.89062">
        <ele>1059.5</ele>
        <time>2026-08-27T04:52:35.016Z</time>
      </trkpt>
      <trkpt lat="47.83256" lon="6.89063">
        <ele>1059.7</ele>
        <time>2026-08-27T04:52:36.023Z</time>
      </trkpt>
      <trkpt lat="47.83256" lon="6.89065">
        <ele>1059</ele>
        <time>2026-08-27T04:52:38.039Z</time>
      </trkpt>
      <trkpt lat="47.83256" lon="6.89066">
        <ele>1059.2</ele>
        <time>2026-08-27T04:52:39.047Z</time>
      </trkpt>
      <trkpt lat="47.83257" lon="6.89067">
        <ele>1059.1</ele>
        <time>2026-08-27T04:52:40.055Z</time>
      </trkpt>
      <trkpt lat="47.83258" lon="6.8907">
        <ele>1058.7</ele>
        <time>2026-08-27T04:52:41.970Z</time>
      </trkpt>
      <trkpt lat="47.83258" lon="6.89071">
        <ele>1058.1</ele>
        <time>2026-08-27T04:52:42.978Z</time>
      </trkpt>
      <trkpt lat="47.83258" lon="6.89073">
        <ele>1057.5</ele>
        <time>2026-08-27T04:52:43.987Z</time>
      </trkpt>
      <trkpt lat="47.83259" lon="6.89074">
        <ele>1057.1</ele>
        <time>2026-08-27T04:52:44.994Z</time>
      </trkpt>
      <trkpt lat="47.83259" lon="6.89075">
        <ele>1056.6</ele>
        <time>2026-08-27T04:52:46.002Z</time>
      </trkpt>
      <trkpt lat="47.8326" lon="6.89076">
        <ele>1056.8</ele>
        <time>2026-08-27T04:52:47.010Z</time>
      </trkpt>
      <trkpt lat="47.8326" lon="6.89077">
        <ele>1056.8</ele>
        <time>2026-08-27T04:52:48.018Z</time>
      </trkpt>
      <trkpt lat="47.83259" lon="6.89078">
        <ele>1056.2</ele>
        <time>2026-08-27T04:52:49.027Z</time>
      </trkpt>
      <trkpt lat="47.83259" lon="6.89079">
        <ele>1056.2</ele>
        <time>2026-08-27T04:52:50.034Z</time>
      </trkpt>
      <trkpt lat="47.83259" lon="6.89081">
        <ele>1056.1</ele>
        <time>2026-08-27T04:52:51.043Z</time>
      </trkpt>
      <trkpt lat="47.83258" lon="6.89082">
        <ele>1056</ele>
        <time>2026-08-27T04:52:52.051Z</time>
      </trkpt>
      <trkpt lat="47.83258" lon="6.89083">
        <ele>1056.2</ele>
        <time>2026-08-27T04:52:53.058Z</time>
      </trkpt>
      <trkpt lat="47.83257" lon="6.89085">
        <ele>1055.9</ele>
        <time>2026-08-27T04:52:55.074Z</time>
      </trkpt>
      <trkpt lat="47.83255" lon="6.89087">
        <ele>1055.4</ele>
        <time>2026-08-27T04:52:56.989Z</time>
      </trkpt>
      <trkpt lat="47.83255" lon="6.89088">
        <ele>1055.2</ele>
        <time>2026-08-27T04:52:57.997Z</time>
      </trkpt>
      <trkpt lat="47.83254" lon="6.89092">
        <ele>1054.9</ele>
        <time>2026-08-27T04:53:00.068Z</time>
      </trkpt>
      <trkpt lat="47.83255" lon="6.89094">
        <ele>1054.2</ele>
        <time>2026-08-27T04:53:02.034Z</time>
      </trkpt>
      <trkpt lat="47.83255" lon="6.89096">
        <ele>1054.4</ele>
        <time>2026-08-27T04:53:03.043Z</time>
      </trkpt>
      <trkpt lat="47.83255" lon="6.89098">
        <ele>1054.1</ele>
        <time>2026-08-27T04:53:04.050Z</time>
      </trkpt>
      <trkpt lat="47.83255" lon="6.891">
        <ele>1054.2</ele>
        <time>2026-08-27T04:53:05.058Z</time>
      </trkpt>
      <trkpt lat="47.83255" lon="6.89102">
        <ele>1054.1</ele>
        <time>2026-08-27T04:53:06.067Z</time>
      </trkpt>
      <trkpt lat="47.83256" lon="6.89105">
        <ele>1053.9</ele>
        <time>2026-08-27T04:53:07.905Z</time>
      </trkpt>
      <trkpt lat="47.83256" lon="6.89106">
        <ele>1053.8</ele>
        <time>2026-08-27T04:53:08.989Z</time>
      </trkpt>
      <trkpt lat="47.83256" lon="6.89107">
        <ele>1053.7</ele>
        <time>2026-08-27T04:53:09.997Z</time>
      </trkpt>
      <trkpt lat="47.83256" lon="6.89107">
        <ele>1054</ele>
        <time>2026-08-27T04:53:11.005Z</time>
      </trkpt>
      <trkpt lat="47.83256" lon="6.89107">
        <ele>1053.7</ele>
        <time>2026-08-27T04:53:12.013Z</time>
      </trkpt>
      <trkpt lat="47.83256" lon="6.89107">
        <ele>1053.5</ele>
        <time>2026-08-27T04:53:13.021Z</time>
      </trkpt>
      <trkpt lat="47.83256" lon="6.89106">
        <ele>1053.6</ele>
        <time>2026-08-27T04:53:14.029Z</time>
      </trkpt>
      <trkpt lat="47.83256" lon="6.89106">
        <ele>1054.2</ele>
        <time>2026-08-27T04:53:15.038Z</time>
      </trkpt>
      <trkpt lat="47.83256" lon="6.89105">
        <ele>1054.2</ele>
        <time>2026-08-27T04:53:16.046Z</time>
      </trkpt>
      <trkpt lat="47.83257" lon="6.89105">
        <ele>1053.9</ele>
        <time>2026-08-27T04:53:17.053Z</time>
      </trkpt>
      <trkpt lat="47.83257" lon="6.89105">
        <ele>1053.2</ele>
        <time>2026-08-27T04:53:18.062Z</time>
      </trkpt>
      <trkpt lat="47.83257" lon="6.89105">
        <ele>1053.3</ele>
        <time>2026-08-27T04:53:19.069Z</time>
      </trkpt>
      <trkpt lat="47.83258" lon="6.89105">
        <ele>1053.2</ele>
        <time>2026-08-27T04:53:20.077Z</time>
      </trkpt>
      <trkpt lat="47.83258" lon="6.89106">
        <ele>1053.7</ele>
        <time>2026-08-27T04:53:21.992Z</time>
      </trkpt>
      <trkpt lat="47.83258" lon="6.89108">
        <ele>1054.2</ele>
        <time>2026-08-27T04:53:23.000Z</time>
      </trkpt>
      <trkpt lat="47.83259" lon="6.89109">
        <ele>1054.3</ele>
        <time>2026-08-27T04:53:24.008Z</time>
      </trkpt>
      <trkpt lat="47.83259" lon="6.8911">
        <ele>1054.6</ele>
        <time>2026-08-27T04:53:25.016Z</time>
      </trkpt>
      <trkpt lat="47.83259" lon="6.89111">
        <ele>1055.1</ele>
        <time>2026-08-27T04:53:26.024Z</time>
      </trkpt>
      <trkpt lat="47.83259" lon="6.89112">
        <ele>1055</ele>
        <time>2026-08-27T04:53:27.032Z</time>
      </trkpt>
      <trkpt lat="47.8326" lon="6.89112">
        <ele>1055.4</ele>
        <time>2026-08-27T04:53:28.041Z</time>
      </trkpt>
      <trkpt lat="47.8326" lon="6.89113">
        <ele>1055.4</ele>
        <time>2026-08-27T04:53:29.048Z</time>
      </trkpt>
      <trkpt lat="47.8326" lon="6.89112">
        <ele>1055.6</ele>
        <time>2026-08-27T04:53:30.057Z</time>
      </trkpt>
      <trkpt lat="47.8326" lon="6.89111">
        <ele>1055.9</ele>
        <time>2026-08-27T04:53:31.064Z</time>
      </trkpt>
      <trkpt lat="47.8326" lon="6.89111">
        <ele>1055.9</ele>
        <time>2026-08-27T04:53:32.064Z</time>
      </trkpt>
      <trkpt lat="47.8326" lon="6.8911">
        <ele>1056.2</ele>
        <time>2026-08-27T04:53:33.988Z</time>
      </trkpt>
      <trkpt lat="47.83261" lon="6.8911">
        <ele>1056.6</ele>
        <time>2026-08-27T04:53:34.996Z</time>
      </trkpt>
      <trkpt lat="47.83261" lon="6.89111">
        <ele>1056.9</ele>
        <time>2026-08-27T04:53:36.003Z</time>
      </trkpt>
      <trkpt lat="47.83261" lon="6.89111">
        <ele>1057.1</ele>
        <time>2026-08-27T04:53:38.019Z</time>
      </trkpt>
      <trkpt lat="47.83261" lon="6.89111">
        <ele>1057.2</ele>
        <time>2026-08-27T04:53:39.027Z</time>
      </trkpt>
      <trkpt lat="47.83262" lon="6.89112">
        <ele>1057.2</ele>
        <time>2026-08-27T04:53:40.068Z</time>
      </trkpt>
      <trkpt lat="47.83262" lon="6.89114">
        <ele>1057.8</ele>
        <time>2026-08-27T04:53:42.051Z</time>
      </trkpt>
      <trkpt lat="47.83262" lon="6.89115">
        <ele>1058.3</ele>
        <time>2026-08-27T04:53:43.059Z</time>
      </trkpt>
      <trkpt lat="47.83262" lon="6.89116">
        <ele>1058.5</ele>
        <time>2026-08-27T04:53:44.068Z</time>
      </trkpt>
      <trkpt lat="47.83263" lon="6.89116">
        <ele>1058.5</ele>
        <time>2026-08-27T04:53:45.075Z</time>
      </trkpt>
      <trkpt lat="47.83263" lon="6.89118">
        <ele>1058.6</ele>
        <time>2026-08-27T04:53:46.990Z</time>
      </trkpt>
      <trkpt lat="47.83264" lon="6.89119">
        <ele>1058.8</ele>
        <time>2026-08-27T04:53:47.998Z</time>
      </trkpt>
      <trkpt lat="47.83264" lon="6.89119">
        <ele>1058.9</ele>
        <time>2026-08-27T04:53:49.006Z</time>
      </trkpt>
      <trkpt lat="47.83265" lon="6.8912">
        <ele>1058.4</ele>
        <time>2026-08-27T04:53:50.014Z</time>
      </trkpt>
      <trkpt lat="47.83265" lon="6.89121">
        <ele>1058.5</ele>
        <time>2026-08-27T04:53:51.023Z</time>
      </trkpt>
      <trkpt lat="47.83265" lon="6.89122">
        <ele>1059</ele>
        <time>2026-08-27T04:53:52.030Z</time>
      </trkpt>
      <trkpt lat="47.83266" lon="6.89124">
        <ele>1059.1</ele>
        <time>2026-08-27T04:53:53.039Z</time>
      </trkpt>
      <trkpt lat="47.83266" lon="6.89125">
        <ele>1059.4</ele>
        <time>2026-08-27T04:53:54.046Z</time>
      </trkpt>
      <trkpt lat="47.83266" lon="6.89127">
        <ele>1059.4</ele>
        <time>2026-08-27T04:53:55.055Z</time>
      </trkpt>
      <trkpt lat="47.83266" lon="6.8913">
        <ele>1059.5</ele>
        <time>2026-08-27T04:53:57.070Z</time>
      </trkpt>
      <trkpt lat="47.83266" lon="6.89133">
        <ele>1059.7</ele>
        <time>2026-08-27T04:53:58.985Z</time>
      </trkpt>
      <trkpt lat="47.83265" lon="6.89134">
        <ele>1060.3</ele>
        <time>2026-08-27T04:53:59.993Z</time>
      </trkpt>
      <trkpt lat="47.83265" lon="6.89135">
        <ele>1060.3</ele>
        <time>2026-08-27T04:54:01.043Z</time>
      </trkpt>
      <trkpt lat="47.83265" lon="6.89138">
        <ele>1060.5</ele>
        <time>2026-08-27T04:54:03.018Z</time>
      </trkpt>
      <trkpt lat="47.83265" lon="6.8914">
        <ele>1060.7</ele>
        <time>2026-08-27T04:54:04.068Z</time>
      </trkpt>
      <trkpt lat="47.83265" lon="6.89142">
        <ele>1061.2</ele>
        <time>2026-08-27T04:54:06.041Z</time>
      </trkpt>
      <trkpt lat="47.83266" lon="6.89142">
        <ele>1061.1</ele>
        <time>2026-08-27T04:54:07.049Z</time>
      </trkpt>
      <trkpt lat="47.83267" lon="6.89142">
        <ele>1061.4</ele>
        <time>2026-08-27T04:54:09.065Z</time>
      </trkpt>
      <trkpt lat="47.83267" lon="6.89143">
        <ele>1061.1</ele>
        <time>2026-08-27T04:54:10.074Z</time>
      </trkpt>
      <trkpt lat="47.83268" lon="6.89145">
        <ele>1061.5</ele>
        <time>2026-08-27T04:54:11.989Z</time>
      </trkpt>
      <trkpt lat="47.83268" lon="6.89146">
        <ele>1062</ele>
        <time>2026-08-27T04:54:12.996Z</time>
      </trkpt>
      <trkpt lat="47.83268" lon="6.89147">
        <ele>1062.2</ele>
        <time>2026-08-27T04:54:14.004Z</time>
      </trkpt>
      <trkpt lat="47.83269" lon="6.89148">
        <ele>1061.8</ele>
        <time>2026-08-27T04:54:16.021Z</time>
      </trkpt>
      <trkpt lat="47.83269" lon="6.8915">
        <ele>1062.3</ele>
        <time>2026-08-27T04:54:18.036Z</time>
      </trkpt>
      <trkpt lat="47.83269" lon="6.89151">
        <ele>1062.3</ele>
        <time>2026-08-27T04:54:19.044Z</time>
      </trkpt>
      <trkpt lat="47.83269" lon="6.89152">
        <ele>1062.6</ele>
        <time>2026-08-27T04:54:20.052Z</time>
      </trkpt>
      <trkpt lat="47.83269" lon="6.89153">
        <ele>1062.7</ele>
        <time>2026-08-27T04:54:21.060Z</time>
      </trkpt>
      <trkpt lat="47.8327" lon="6.89155">
        <ele>1063.3</ele>
        <time>2026-08-27T04:54:23.077Z</time>
      </trkpt>
      <trkpt lat="47.83271" lon="6.89157">
        <ele>1063.7</ele>
        <time>2026-08-27T04:54:24.991Z</time>
      </trkpt>
      <trkpt lat="47.83271" lon="6.89158">
        <ele>1063.7</ele>
        <time>2026-08-27T04:54:25.999Z</time>
      </trkpt>
      <trkpt lat="47.83271" lon="6.89159">
        <ele>1063.6</ele>
        <time>2026-08-27T04:54:27.007Z</time>
      </trkpt>
      <trkpt lat="47.83271" lon="6.8916">
        <ele>1063.6</ele>
        <time>2026-08-27T04:54:28.048Z</time>
      </trkpt>
      <trkpt lat="47.83272" lon="6.89162">
        <ele>1064.2</ele>
        <time>2026-08-27T04:54:30.031Z</time>
      </trkpt>
      <trkpt lat="47.83272" lon="6.89163">
        <ele>1064.1</ele>
        <time>2026-08-27T04:54:31.039Z</time>
      </trkpt>
      <trkpt lat="47.83272" lon="6.89163">
        <ele>1064.4</ele>
        <time>2026-08-27T04:54:32.047Z</time>
      </trkpt>
      <trkpt lat="47.83273" lon="6.89164">
        <ele>1064.6</ele>
        <time>2026-08-27T04:54:33.055Z</time>
      </trkpt>
      <trkpt lat="47.83273" lon="6.89165">
        <ele>1064.7</ele>
        <time>2026-08-27T04:54:34.063Z</time>
      </trkpt>
      <trkpt lat="47.83274" lon="6.89166">
        <ele>1064.8</ele>
        <time>2026-08-27T04:54:35.071Z</time>
      </trkpt>
      <trkpt lat="47.83275" lon="6.89168">
        <ele>1064.6</ele>
        <time>2026-08-27T04:54:36.987Z</time>
      </trkpt>
      <trkpt lat="47.83275" lon="6.8917">
        <ele>1064.8</ele>
        <time>2026-08-27T04:54:37.995Z</time>
      </trkpt>
      <trkpt lat="47.83276" lon="6.89172">
        <ele>1064.6</ele>
        <time>2026-08-27T04:54:39.002Z</time>
      </trkpt>
      <trkpt lat="47.83276" lon="6.89174">
        <ele>1064.9</ele>
        <time>2026-08-27T04:54:40.011Z</time>
      </trkpt>
      <trkpt lat="47.83276" lon="6.89177">
        <ele>1065.5</ele>
        <time>2026-08-27T04:54:42.026Z</time>
      </trkpt>
      <trkpt lat="47.83277" lon="6.89179">
        <ele>1065.4</ele>
        <time>2026-08-27T04:54:43.035Z</time>
      </trkpt>
      <trkpt lat="47.83277" lon="6.8918">
        <ele>1065.4</ele>
        <time>2026-08-27T04:54:44.043Z</time>
      </trkpt>
      <trkpt lat="47.83278" lon="6.89183">
        <ele>1065.6</ele>
        <time>2026-08-27T04:54:46.059Z</time>
      </trkpt>
      <trkpt lat="47.83278" lon="6.89183">
        <ele>1065.7</ele>
        <time>2026-08-27T04:54:47.067Z</time>
      </trkpt>
      <trkpt lat="47.83279" lon="6.89184">
        <ele>1065.3</ele>
        <time>2026-08-27T04:54:48.074Z</time>
      </trkpt>
      <trkpt lat="47.8328" lon="6.89185">
        <ele>1065.9</ele>
        <time>2026-08-27T04:54:49.989Z</time>
      </trkpt>
      <trkpt lat="47.8328" lon="6.89186">
        <ele>1065.9</ele>
        <time>2026-08-27T04:54:51.047Z</time>
      </trkpt>
      <trkpt lat="47.8328" lon="6.89187">
        <ele>1066.4</ele>
        <time>2026-08-27T04:54:53.013Z</time>
      </trkpt>
      <trkpt lat="47.8328" lon="6.89188">
        <ele>1066.5</ele>
        <time>2026-08-27T04:54:54.021Z</time>
      </trkpt>
      <trkpt lat="47.83281" lon="6.89188">
        <ele>1066.6</ele>
        <time>2026-08-27T04:54:55.029Z</time>
      </trkpt>
      <trkpt lat="47.83281" lon="6.89189">
        <ele>1066.6</ele>
        <time>2026-08-27T04:54:56.037Z</time>
      </trkpt>
      <trkpt lat="47.83282" lon="6.8919">
        <ele>1066.6</ele>
        <time>2026-08-27T04:54:57.046Z</time>
      </trkpt>
      <trkpt lat="47.83282" lon="6.89191">
        <ele>1067.2</ele>
        <time>2026-08-27T04:54:58.053Z</time>
      </trkpt>
      <trkpt lat="47.83283" lon="6.89192">
        <ele>1067.2</ele>
        <time>2026-08-27T04:54:59.061Z</time>
      </trkpt>
      <trkpt lat="47.83283" lon="6.89193">
        <ele>1067.2</ele>
        <time>2026-08-27T04:55:00.069Z</time>
      </trkpt>
      <trkpt lat="47.83284" lon="6.89195">
        <ele>1067.6</ele>
        <time>2026-08-27T04:55:01.985Z</time>
      </trkpt>
      <trkpt lat="47.83285" lon="6.89196">
        <ele>1067.8</ele>
        <time>2026-08-27T04:55:02.993Z</time>
      </trkpt>
      <trkpt lat="47.83285" lon="6.89196">
        <ele>1067.8</ele>
        <time>2026-08-27T04:55:04.000Z</time>
      </trkpt>
      <trkpt lat="47.83286" lon="6.89197">
        <ele>1067.7</ele>
        <time>2026-08-27T04:55:05.009Z</time>
      </trkpt>
      <trkpt lat="47.83286" lon="6.89198">
        <ele>1068</ele>
        <time>2026-08-27T04:55:06.016Z</time>
      </trkpt>
      <trkpt lat="47.83286" lon="6.892">
        <ele>1068.1</ele>
        <time>2026-08-27T04:55:07.024Z</time>
      </trkpt>
      <trkpt lat="47.83286" lon="6.89201">
        <ele>1068.4</ele>
        <time>2026-08-27T04:55:08.032Z</time>
      </trkpt>
      <trkpt lat="47.83286" lon="6.89202">
        <ele>1068.7</ele>
        <time>2026-08-27T04:55:09.040Z</time>
      </trkpt>
      <trkpt lat="47.83285" lon="6.89203">
        <ele>1069</ele>
        <time>2026-08-27T04:55:11.056Z</time>
      </trkpt>
      <trkpt lat="47.83284" lon="6.89202">
        <ele>1069.2</ele>
        <time>2026-08-27T04:55:12.971Z</time>
      </trkpt>
      <trkpt lat="47.83284" lon="6.89202">
        <ele>1068.9</ele>
        <time>2026-08-27T04:55:13.979Z</time>
      </trkpt>
      <trkpt lat="47.83284" lon="6.89201">
        <ele>1068.6</ele>
        <time>2026-08-27T04:55:14.987Z</time>
      </trkpt>
      <trkpt lat="47.83284" lon="6.89201">
        <ele>1068.6</ele>
        <time>2026-08-27T04:55:15.995Z</time>
      </trkpt>
      <trkpt lat="47.83284" lon="6.89201">
        <ele>1068.6</ele>
        <time>2026-08-27T04:55:17.003Z</time>
      </trkpt>
      <trkpt lat="47.83284" lon="6.89201">
        <ele>1068.6</ele>
        <time>2026-08-27T04:55:18.011Z</time>
      </trkpt>
      <trkpt lat="47.83284" lon="6.89201">
        <ele>1069</ele>
        <time>2026-08-27T04:55:19.020Z</time>
      </trkpt>
      <trkpt lat="47.83284" lon="6.892">
        <ele>1069.2</ele>
        <time>2026-08-27T04:55:20.027Z</time>
      </trkpt>
      <trkpt lat="47.83284" lon="6.89201">
        <ele>1069.1</ele>
        <time>2026-08-27T04:55:21.035Z</time>
      </trkpt>
      <trkpt lat="47.83284" lon="6.89201">
        <ele>1069.1</ele>
        <time>2026-08-27T04:55:22.951Z</time>
      </trkpt>
      <trkpt lat="47.83284" lon="6.89201">
        <ele>1069.1</ele>
        <time>2026-08-27T04:55:23.951Z</time>
      </trkpt>
      <trkpt lat="47.83284" lon="6.89201">
        <ele>1069</ele>
        <time>2026-08-27T04:55:24.966Z</time>
      </trkpt>
      <trkpt lat="47.83284" lon="6.89201">
        <ele>1068.9</ele>
        <time>2026-08-27T04:55:25.975Z</time>
      </trkpt>
      <trkpt lat="47.83285" lon="6.89201">
        <ele>1069</ele>
        <time>2026-08-27T04:55:26.983Z</time>
      </trkpt>
      <trkpt lat="47.83285" lon="6.89201">
        <ele>1069.3</ele>
        <time>2026-08-27T04:55:27.991Z</time>
      </trkpt>
      <trkpt lat="47.83285" lon="6.89201">
        <ele>1069.1</ele>
        <time>2026-08-27T04:55:28.999Z</time>
      </trkpt>
      <trkpt lat="47.83285" lon="6.89201">
        <ele>1069.3</ele>
        <time>2026-08-27T04:55:30.007Z</time>
      </trkpt>
      <trkpt lat="47.83285" lon="6.89202">
        <ele>1069.5</ele>
        <time>2026-08-27T04:55:31.016Z</time>
      </trkpt>
      <trkpt lat="47.83285" lon="6.89202">
        <ele>1069.6</ele>
        <time>2026-08-27T04:55:32.023Z</time>
      </trkpt>
      <trkpt lat="47.83285" lon="6.89203">
        <ele>1069.6</ele>
        <time>2026-08-27T04:55:33.031Z</time>
      </trkpt>
      <trkpt lat="47.83285" lon="6.89205">
        <ele>1069.5</ele>
        <time>2026-08-27T04:55:34.947Z</time>
      </trkpt>
      <trkpt lat="47.83286" lon="6.89206">
        <ele>1069.4</ele>
        <time>2026-08-27T04:55:35.954Z</time>
      </trkpt>
      <trkpt lat="47.83286" lon="6.89207">
        <ele>1069.1</ele>
        <time>2026-08-27T04:55:36.963Z</time>
      </trkpt>
      <trkpt lat="47.83287" lon="6.89209">
        <ele>1069.6</ele>
        <time>2026-08-27T04:55:37.970Z</time>
      </trkpt>
      <trkpt lat="47.83287" lon="6.8921">
        <ele>1069.6</ele>
        <time>2026-08-27T04:55:38.980Z</time>
      </trkpt>
      <trkpt lat="47.83287" lon="6.89211">
        <ele>1069.6</ele>
        <time>2026-08-27T04:55:39.988Z</time>
      </trkpt>
      <trkpt lat="47.83287" lon="6.89212">
        <ele>1069.6</ele>
        <time>2026-08-27T04:55:40.995Z</time>
      </trkpt>
      <trkpt lat="47.83287" lon="6.89213">
        <ele>1069.4</ele>
        <time>2026-08-27T04:55:42.003Z</time>
      </trkpt>
      <trkpt lat="47.83287" lon="6.89214">
        <ele>1069.2</ele>
        <time>2026-08-27T04:55:43.011Z</time>
      </trkpt>
      <trkpt lat="47.83288" lon="6.89216">
        <ele>1069.1</ele>
        <time>2026-08-27T04:55:44.020Z</time>
      </trkpt>
      <trkpt lat="47.83288" lon="6.89217">
        <ele>1069.1</ele>
        <time>2026-08-27T04:55:45.027Z</time>
      </trkpt>
      <trkpt lat="47.83289" lon="6.89219">
        <ele>1069.2</ele>
        <time>2026-08-27T04:55:47.043Z</time>
      </trkpt>
      <trkpt lat="47.8329" lon="6.89222">
        <ele>1070</ele>
        <time>2026-08-27T04:55:48.959Z</time>
      </trkpt>
      <trkpt lat="47.83291" lon="6.89223">
        <ele>1070.2</ele>
        <time>2026-08-27T04:55:49.967Z</time>
      </trkpt>
      <trkpt lat="47.83292" lon="6.89225">
        <ele>1070.1</ele>
        <time>2026-08-27T04:55:50.975Z</time>
      </trkpt>
      <trkpt lat="47.83292" lon="6.89226">
        <ele>1070.4</ele>
        <time>2026-08-27T04:55:51.984Z</time>
      </trkpt>
      <trkpt lat="47.83292" lon="6.89228">
        <ele>1070.5</ele>
        <time>2026-08-27T04:55:52.992Z</time>
      </trkpt>
      <trkpt lat="47.83292" lon="6.89229">
        <ele>1070.5</ele>
        <time>2026-08-27T04:55:53.999Z</time>
      </trkpt>
      <trkpt lat="47.83292" lon="6.8923">
        <ele>1070.5</ele>
        <time>2026-08-27T04:55:55.008Z</time>
      </trkpt>
      <trkpt lat="47.83292" lon="6.89231">
        <ele>1070.7</ele>
        <time>2026-08-27T04:55:56.015Z</time>
      </trkpt>
      <trkpt lat="47.83293" lon="6.89232">
        <ele>1071.4</ele>
        <time>2026-08-27T04:55:57.024Z</time>
      </trkpt>
      <trkpt lat="47.83293" lon="6.89233">
        <ele>1071.4</ele>
        <time>2026-08-27T04:55:58.031Z</time>
      </trkpt>
      <trkpt lat="47.83293" lon="6.89234">
        <ele>1071.7</ele>
        <time>2026-08-27T04:55:59.040Z</time>
      </trkpt>
      <trkpt lat="47.83293" lon="6.89237">
        <ele>1072.1</ele>
        <time>2026-08-27T04:56:00.955Z</time>
      </trkpt>
      <trkpt lat="47.83293" lon="6.89238">
        <ele>1072.4</ele>
        <time>2026-08-27T04:56:01.963Z</time>
      </trkpt>
      <trkpt lat="47.83293" lon="6.89239">
        <ele>1072.4</ele>
        <time>2026-08-27T04:56:02.971Z</time>
      </trkpt>
      <trkpt lat="47.83293" lon="6.89241">
        <ele>1072.7</ele>
        <time>2026-08-27T04:56:03.979Z</time>
      </trkpt>
      <trkpt lat="47.83293" lon="6.89242">
        <ele>1072.8</ele>
        <time>2026-08-27T04:56:04.987Z</time>
      </trkpt>
      <trkpt lat="47.83293" lon="6.89243">
        <ele>1072.6</ele>
        <time>2026-08-27T04:56:05.997Z</time>
      </trkpt>
      <trkpt lat="47.83293" lon="6.89245">
        <ele>1073</ele>
        <time>2026-08-27T04:56:07.004Z</time>
      </trkpt>
      <trkpt lat="47.83293" lon="6.89246">
        <ele>1073.5</ele>
        <time>2026-08-27T04:56:08.012Z</time>
      </trkpt>
      <trkpt lat="47.83293" lon="6.89247">
        <ele>1073.4</ele>
        <time>2026-08-27T04:56:09.021Z</time>
      </trkpt>
      <trkpt lat="47.83292" lon="6.89248">
        <ele>1073.8</ele>
        <time>2026-08-27T04:56:10.029Z</time>
      </trkpt>
      <trkpt lat="47.83292" lon="6.89249">
        <ele>1073.6</ele>
        <time>2026-08-27T04:56:11.037Z</time>
      </trkpt>
      <trkpt lat="47.83291" lon="6.8925">
        <ele>1073.5</ele>
        <time>2026-08-27T04:56:12.952Z</time>
      </trkpt>
      <trkpt lat="47.83291" lon="6.89252">
        <ele>1073.5</ele>
        <time>2026-08-27T04:56:13.977Z</time>
      </trkpt>
      <trkpt lat="47.8329" lon="6.89253">
        <ele>1073.7</ele>
        <time>2026-08-27T04:56:15.976Z</time>
      </trkpt>
      <trkpt lat="47.83289" lon="6.89255">
        <ele>1074.2</ele>
        <time>2026-08-27T04:56:17.052Z</time>
      </trkpt>
      <trkpt lat="47.83288" lon="6.89256">
        <ele>1074.4</ele>
        <time>2026-08-27T04:56:19.002Z</time>
      </trkpt>
      <trkpt lat="47.83288" lon="6.89257">
        <ele>1075</ele>
        <time>2026-08-27T04:56:21.018Z</time>
      </trkpt>
      <trkpt lat="47.83287" lon="6.89259">
        <ele>1075.1</ele>
        <time>2026-08-27T04:56:23.033Z</time>
      </trkpt>
      <trkpt lat="47.83287" lon="6.89261">
        <ele>1074.8</ele>
        <time>2026-08-27T04:56:24.975Z</time>
      </trkpt>
      <trkpt lat="47.83287" lon="6.89264">
        <ele>1075.4</ele>
        <time>2026-08-27T04:56:26.965Z</time>
      </trkpt>
      <trkpt lat="47.83286" lon="6.89266">
        <ele>1075.5</ele>
        <time>2026-08-27T04:56:27.974Z</time>
      </trkpt>
      <trkpt lat="47.83286" lon="6.89267">
        <ele>1075.7</ele>
        <time>2026-08-27T04:56:28.982Z</time>
      </trkpt>
      <trkpt lat="47.83285" lon="6.8927">
        <ele>1076</ele>
        <time>2026-08-27T04:56:30.990Z</time>
      </trkpt>
      <trkpt lat="47.83285" lon="6.89271">
        <ele>1076</ele>
        <time>2026-08-27T04:56:32.006Z</time>
      </trkpt>
      <trkpt lat="47.83285" lon="6.89272">
        <ele>1076.2</ele>
        <time>2026-08-27T04:56:33.014Z</time>
      </trkpt>
      <trkpt lat="47.83285" lon="6.89273">
        <ele>1076.2</ele>
        <time>2026-08-27T04:56:34.023Z</time>
      </trkpt>
      <trkpt lat="47.83285" lon="6.89273">
        <ele>1076.6</ele>
        <time>2026-08-27T04:56:35.032Z</time>
      </trkpt>
      <trkpt lat="47.83286" lon="6.89273">
        <ele>1076.6</ele>
        <time>2026-08-27T04:56:36.930Z</time>
      </trkpt>
      <trkpt lat="47.83286" lon="6.89272">
        <ele>1076.8</ele>
        <time>2026-08-27T04:56:37.956Z</time>
      </trkpt>
      <trkpt lat="47.83286" lon="6.89273">
        <ele>1076.8</ele>
        <time>2026-08-27T04:56:38.963Z</time>
      </trkpt>
      <trkpt lat="47.83286" lon="6.89275">
        <ele>1076.7</ele>
        <time>2026-08-27T04:56:39.971Z</time>
      </trkpt>
      <trkpt lat="47.83285" lon="6.89277">
        <ele>1076.5</ele>
        <time>2026-08-27T04:56:40.979Z</time>
      </trkpt>
      <trkpt lat="47.83285" lon="6.89279">
        <ele>1076.2</ele>
        <time>2026-08-27T04:56:41.987Z</time>
      </trkpt>
      <trkpt lat="47.83285" lon="6.8928">
        <ele>1076.2</ele>
        <time>2026-08-27T04:56:42.995Z</time>
      </trkpt>
      <trkpt lat="47.83285" lon="6.8928">
        <ele>1076.5</ele>
        <time>2026-08-27T04:56:44.005Z</time>
      </trkpt>
      <trkpt lat="47.83286" lon="6.8928">
        <ele>1077.1</ele>
        <time>2026-08-27T04:56:45.919Z</time>
      </trkpt>
      <trkpt lat="47.83286" lon="6.8928">
        <ele>1077.3</ele>
        <time>2026-08-27T04:56:46.928Z</time>
      </trkpt>
      <trkpt lat="47.83286" lon="6.8928">
        <ele>1077.2</ele>
        <time>2026-08-27T04:56:47.936Z</time>
      </trkpt>
      <trkpt lat="47.83286" lon="6.89281">
        <ele>1077</ele>
        <time>2026-08-27T04:56:48.944Z</time>
      </trkpt>
      <trkpt lat="47.83286" lon="6.89281">
        <ele>1077.2</ele>
        <time>2026-08-27T04:56:49.953Z</time>
      </trkpt>
      <trkpt lat="47.83286" lon="6.89281">
        <ele>1077.2</ele>
        <time>2026-08-27T04:56:50.960Z</time>
      </trkpt>
      <trkpt lat="47.83286" lon="6.89281">
        <ele>1077.1</ele>
        <time>2026-08-27T04:56:51.968Z</time>
      </trkpt>
      <trkpt lat="47.83286" lon="6.89281">
        <ele>1077</ele>
        <time>2026-08-27T04:56:52.978Z</time>
      </trkpt>
      <trkpt lat="47.83286" lon="6.89281">
        <ele>1077.1</ele>
        <time>2026-08-27T04:56:53.985Z</time>
      </trkpt>
      <trkpt lat="47.83286" lon="6.89281">
        <ele>1077.4</ele>
        <time>2026-08-27T04:56:54.994Z</time>
      </trkpt>
      <trkpt lat="47.83285" lon="6.89282">
        <ele>1077.4</ele>
        <time>2026-08-27T04:56:56.910Z</time>
      </trkpt>
      <trkpt lat="47.83285" lon="6.89282">
        <ele>1077.6</ele>
        <time>2026-08-27T04:56:57.918Z</time>
      </trkpt>
      <trkpt lat="47.83285" lon="6.89282">
        <ele>1077.7</ele>
        <time>2026-08-27T04:56:59.026Z</time>
      </trkpt>
      <trkpt lat="47.83285" lon="6.89282">
        <ele>1077.5</ele>
        <time>2026-08-27T04:57:00.942Z</time>
      </trkpt>
      <trkpt lat="47.83285" lon="6.89282">
        <ele>1077.7</ele>
        <time>2026-08-27T04:57:01.950Z</time>
      </trkpt>
      <trkpt lat="47.83285" lon="6.89282">
        <ele>1077.8</ele>
        <time>2026-08-27T04:57:02.958Z</time>
      </trkpt>
      <trkpt lat="47.83285" lon="6.89282">
        <ele>1077.8</ele>
        <time>2026-08-27T04:57:03.966Z</time>
      </trkpt>
      <trkpt lat="47.83285" lon="6.89282">
        <ele>1078</ele>
        <time>2026-08-27T04:57:04.975Z</time>
      </trkpt>
      <trkpt lat="47.83285" lon="6.89282">
        <ele>1077.9</ele>
        <time>2026-08-27T04:57:05.984Z</time>
      </trkpt>
      <trkpt lat="47.83285" lon="6.89282">
        <ele>1078.2</ele>
        <time>2026-08-27T04:57:06.991Z</time>
      </trkpt>
      <trkpt lat="47.83285" lon="6.89283">
        <ele>1077.8</ele>
        <time>2026-08-27T04:57:08.840Z</time>
      </trkpt>
      <trkpt lat="47.83285" lon="6.89283">
        <ele>1077.7</ele>
        <time>2026-08-27T04:57:09.882Z</time>
      </trkpt>
      <trkpt lat="47.83285" lon="6.89283">
        <ele>1077.4</ele>
        <time>2026-08-27T04:57:10.924Z</time>
      </trkpt>
      <trkpt lat="47.83285" lon="6.89283">
        <ele>1077.1</ele>
        <time>2026-08-27T04:57:11.933Z</time>
      </trkpt>
      <trkpt lat="47.83285" lon="6.89282">
        <ele>1077.2</ele>
        <time>2026-08-27T04:57:12.941Z</time>
      </trkpt>
      <trkpt lat="47.83285" lon="6.89282">
        <ele>1077.2</ele>
        <time>2026-08-27T04:57:13.949Z</time>
      </trkpt>
      <trkpt lat="47.83285" lon="6.89282">
        <ele>1077.1</ele>
        <time>2026-08-27T04:57:14.958Z</time>
      </trkpt>
      <trkpt lat="47.83285" lon="6.89282">
        <ele>1077.3</ele>
        <time>2026-08-27T04:57:15.967Z</time>
      </trkpt>
      <trkpt lat="47.83285" lon="6.89282">
        <ele>1077.3</ele>
        <time>2026-08-27T04:57:16.976Z</time>
      </trkpt>
      <trkpt lat="47.83286" lon="6.89282">
        <ele>1077.4</ele>
        <time>2026-08-27T04:57:17.983Z</time>
      </trkpt>
      <trkpt lat="47.83286" lon="6.89282">
        <ele>1077.4</ele>
        <time>2026-08-27T04:57:19.001Z</time>
      </trkpt>
      <trkpt lat="47.83286" lon="6.89283">
        <ele>1077.3</ele>
        <time>2026-08-27T04:57:20.218Z</time>
      </trkpt>
      <trkpt lat="47.83286" lon="6.89283">
        <ele>1077.2</ele>
        <time>2026-08-27T04:57:21.462Z</time>
      </trkpt>
      <trkpt lat="47.83286" lon="6.89283">
        <ele>1077.5</ele>
        <time>2026-08-27T04:57:22.681Z</time>
      </trkpt>
      <trkpt lat="47.83286" lon="6.89284">
        <ele>1077.6</ele>
        <time>2026-08-27T04:57:23.883Z</time>
      </trkpt>
      <trkpt lat="47.83286" lon="6.89284">
        <ele>1077.4</ele>
        <time>2026-08-27T04:57:24.942Z</time>
      </trkpt>
      <trkpt lat="47.83286" lon="6.89284">
        <ele>1077.7</ele>
        <time>2026-08-27T04:57:25.951Z</time>
      </trkpt>
      <trkpt lat="47.83286" lon="6.89284">
        <ele>1077.8</ele>
        <time>2026-08-27T04:57:27.002Z</time>
      </trkpt>
      <trkpt lat="47.83286" lon="6.89285">
        <ele>1078.2</ele>
        <time>2026-08-27T04:57:28.901Z</time>
      </trkpt>
      <trkpt lat="47.83286" lon="6.89285">
        <ele>1078.1</ele>
        <time>2026-08-27T04:57:30.001Z</time>
      </trkpt>
      <trkpt lat="47.83286" lon="6.89285">
        <ele>1078</ele>
        <time>2026-08-27T04:57:31.001Z</time>
      </trkpt>
      <trkpt lat="47.83286" lon="6.89286">
        <ele>1078.4</ele>
        <time>2026-08-27T04:57:32.909Z</time>
      </trkpt>
      <trkpt lat="47.83286" lon="6.89286">
        <ele>1078.3</ele>
        <time>2026-08-27T04:57:33.918Z</time>
      </trkpt>
      <trkpt lat="47.83286" lon="6.89286">
        <ele>1078.5</ele>
        <time>2026-08-27T04:57:34.926Z</time>
      </trkpt>
      <trkpt lat="47.83285" lon="6.89286">
        <ele>1078.1</ele>
        <time>2026-08-27T04:57:36.943Z</time>
      </trkpt>
      <trkpt lat="47.83285" lon="6.89285">
        <ele>1077.9</ele>
        <time>2026-08-27T04:57:37.953Z</time>
      </trkpt>
      <trkpt lat="47.83286" lon="6.89285">
        <ele>1077.9</ele>
        <time>2026-08-27T04:57:38.961Z</time>
      </trkpt>
      <trkpt lat="47.83286" lon="6.89284">
        <ele>1077.6</ele>
        <time>2026-08-27T04:57:39.969Z</time>
      </trkpt>
      <trkpt lat="47.83286" lon="6.89284">
        <ele>1077.6</ele>
        <time>2026-08-27T04:57:40.979Z</time>
      </trkpt>
      <trkpt lat="47.83286" lon="6.89284">
        <ele>1077.5</ele>
        <time>2026-08-27T04:57:41.986Z</time>
      </trkpt>
      <trkpt lat="47.83286" lon="6.89283">
        <ele>1077.4</ele>
        <time>2026-08-27T04:57:43.861Z</time>
      </trkpt>
      <trkpt lat="47.83286" lon="6.89283">
        <ele>1077.6</ele>
        <time>2026-08-27T04:57:45.760Z</time>
      </trkpt>
      <trkpt lat="47.83286" lon="6.89283">
        <ele>1078</ele>
        <time>2026-08-27T04:57:46.862Z</time>
      </trkpt>
      <trkpt lat="47.83286" lon="6.89283">
        <ele>1077.8</ele>
        <time>2026-08-27T04:57:48.001Z</time>
      </trkpt>
      <trkpt lat="47.83286" lon="6.89283">
        <ele>1078</ele>
        <time>2026-08-27T04:57:49.972Z</time>
      </trkpt>
      <trkpt lat="47.83286" lon="6.89283">
        <ele>1078</ele>
        <time>2026-08-27T04:57:50.979Z</time>
      </trkpt>
      <trkpt lat="47.83286" lon="6.89283">
        <ele>1077.9</ele>
        <time>2026-08-27T04:57:51.988Z</time>
      </trkpt>
      <trkpt lat="47.83286" lon="6.89283">
        <ele>1077.7</ele>
        <time>2026-08-27T04:57:54.005Z</time>
      </trkpt>
      <trkpt lat="47.83286" lon="6.89284">
        <ele>1078.1</ele>
        <time>2026-08-27T04:57:55.921Z</time>
      </trkpt>
      <trkpt lat="47.83286" lon="6.89285">
        <ele>1078.2</ele>
        <time>2026-08-27T04:57:57.913Z</time>
      </trkpt>
      <trkpt lat="47.83286" lon="6.89285">
        <ele>1077.9</ele>
        <time>2026-08-27T04:57:58.948Z</time>
      </trkpt>
      <trkpt lat="47.83285" lon="6.89286">
        <ele>1078.3</ele>
        <time>2026-08-27T04:57:59.955Z</time>
      </trkpt>
      <trkpt lat="47.83285" lon="6.89286">
        <ele>1078.2</ele>
        <time>2026-08-27T04:58:01.972Z</time>
      </trkpt>
      <trkpt lat="47.83285" lon="6.89287">
        <ele>1078.5</ele>
        <time>2026-08-27T04:58:02.981Z</time>
      </trkpt>
      <trkpt lat="47.83285" lon="6.89287">
        <ele>1078.4</ele>
        <time>2026-08-27T04:58:03.989Z</time>
      </trkpt>
      <trkpt lat="47.83285" lon="6.89287">
        <ele>1078.1</ele>
        <time>2026-08-27T04:58:05.906Z</time>
      </trkpt>
      <trkpt lat="47.83284" lon="6.89288">
        <ele>1078.1</ele>
        <time>2026-08-27T04:58:06.915Z</time>
      </trkpt>
      <trkpt lat="47.83284" lon="6.89288">
        <ele>1077.8</ele>
        <time>2026-08-27T04:58:07.922Z</time>
      </trkpt>
      <trkpt lat="47.83284" lon="6.89288">
        <ele>1077.9</ele>
        <time>2026-08-27T04:58:09.914Z</time>
      </trkpt>
      <trkpt lat="47.83284" lon="6.89288">
        <ele>1077.9</ele>
        <time>2026-08-27T04:58:10.998Z</time>
      </trkpt>
      <trkpt lat="47.83284" lon="6.89288">
        <ele>1077.7</ele>
        <time>2026-08-27T04:58:12.873Z</time>
      </trkpt>
      <trkpt lat="47.83283" lon="6.89288">
        <ele>1077.6</ele>
        <time>2026-08-27T04:58:13.915Z</time>
      </trkpt>
      <trkpt lat="47.83283" lon="6.89288">
        <ele>1078.2</ele>
        <time>2026-08-27T04:58:14.975Z</time>
      </trkpt>
      <trkpt lat="47.83283" lon="6.89288">
        <ele>1078.3</ele>
        <time>2026-08-27T04:58:15.991Z</time>
      </trkpt>
      <trkpt lat="47.83283" lon="6.89287">
        <ele>1078.2</ele>
        <time>2026-08-27T04:58:17.907Z</time>
      </trkpt>
      <trkpt lat="47.83282" lon="6.89286">
        <ele>1078.2</ele>
        <time>2026-08-27T04:58:18.915Z</time>
      </trkpt>
      <trkpt lat="47.83282" lon="6.89286">
        <ele>1078.2</ele>
        <time>2026-08-27T04:58:19.932Z</time>
      </trkpt>
      <trkpt lat="47.83282" lon="6.89286">
        <ele>1078.2</ele>
        <time>2026-08-27T04:58:20.933Z</time>
      </trkpt>
      <trkpt lat="47.83282" lon="6.89286">
        <ele>1078</ele>
        <time>2026-08-27T04:58:21.942Z</time>
      </trkpt>
      <trkpt lat="47.83282" lon="6.89285">
        <ele>1078.1</ele>
        <time>2026-08-27T04:58:23.958Z</time>
      </trkpt>
      <trkpt lat="47.83282" lon="6.89285">
        <ele>1078.4</ele>
        <time>2026-08-27T04:58:24.967Z</time>
      </trkpt>
      <trkpt lat="47.83282" lon="6.89284">
        <ele>1078.3</ele>
        <time>2026-08-27T04:58:25.975Z</time>
      </trkpt>
      <trkpt lat="47.83282" lon="6.89284">
        <ele>1078.1</ele>
        <time>2026-08-27T04:58:26.983Z</time>
      </trkpt>
      <trkpt lat="47.83282" lon="6.89284">
        <ele>1078.1</ele>
        <time>2026-08-27T04:58:27.992Z</time>
      </trkpt>
      <trkpt lat="47.83282" lon="6.89285">
        <ele>1078.3</ele>
        <time>2026-08-27T04:58:29.909Z</time>
      </trkpt>
      <trkpt lat="47.83282" lon="6.89285">
        <ele>1078.4</ele>
        <time>2026-08-27T04:58:30.917Z</time>
      </trkpt>
      <trkpt lat="47.83282" lon="6.89286">
        <ele>1078.4</ele>
        <time>2026-08-27T04:58:32.977Z</time>
      </trkpt>
      <trkpt lat="47.83282" lon="6.89287">
        <ele>1078.4</ele>
        <time>2026-08-27T04:58:34.952Z</time>
      </trkpt>
      <trkpt lat="47.83282" lon="6.89287">
        <ele>1078.4</ele>
        <time>2026-08-27T04:58:36.918Z</time>
      </trkpt>
      <trkpt lat="47.83282" lon="6.89288">
        <ele>1078.3</ele>
        <time>2026-08-27T04:58:37.976Z</time>
      </trkpt>
      <trkpt lat="47.83282" lon="6.89288">
        <ele>1078.2</ele>
        <time>2026-08-27T04:58:38.985Z</time>
      </trkpt>
      <trkpt lat="47.83282" lon="6.89288">
        <ele>1077.5</ele>
        <time>2026-08-27T04:58:40.801Z</time>
      </trkpt>
      <trkpt lat="47.83282" lon="6.89288">
        <ele>1077.5</ele>
        <time>2026-08-27T04:58:41.909Z</time>
      </trkpt>
      <trkpt lat="47.83282" lon="6.89288">
        <ele>1078</ele>
        <time>2026-08-27T04:58:42.918Z</time>
      </trkpt>
      <trkpt lat="47.83282" lon="6.89289">
        <ele>1078</ele>
        <time>2026-08-27T04:58:43.951Z</time>
      </trkpt>
      <trkpt lat="47.83283" lon="6.89289">
        <ele>1078.1</ele>
        <time>2026-08-27T04:58:44.952Z</time>
      </trkpt>
      <trkpt lat="47.83283" lon="6.89289">
        <ele>1078</ele>
        <time>2026-08-27T04:58:45.977Z</time>
      </trkpt>
      <trkpt lat="47.83283" lon="6.89289">
        <ele>1077.7</ele>
        <time>2026-08-27T04:58:46.994Z</time>
      </trkpt>
      <trkpt lat="47.83284" lon="6.8929">
        <ele>1078</ele>
        <time>2026-08-27T04:58:48.969Z</time>
      </trkpt>
      <trkpt lat="47.83284" lon="6.8929">
        <ele>1078.1</ele>
        <time>2026-08-27T04:58:49.977Z</time>
      </trkpt>
      <trkpt lat="47.83284" lon="6.8929">
        <ele>1077.7</ele>
        <time>2026-08-27T04:58:50.987Z</time>
      </trkpt>
      <trkpt lat="47.83284" lon="6.8929">
        <ele>1077.9</ele>
        <time>2026-08-27T04:58:52.903Z</time>
      </trkpt>
      <trkpt lat="47.83284" lon="6.8929">
        <ele>1077.9</ele>
        <time>2026-08-27T04:58:53.910Z</time>
      </trkpt>
      <trkpt lat="47.83284" lon="6.89291">
        <ele>1078</ele>
        <time>2026-08-27T04:58:55.927Z</time>
      </trkpt>
      <trkpt lat="47.83284" lon="6.89291">
        <ele>1078</ele>
        <time>2026-08-27T04:58:56.936Z</time>
      </trkpt>
      <trkpt lat="47.83284" lon="6.89291">
        <ele>1078.2</ele>
        <time>2026-08-27T04:58:57.944Z</time>
      </trkpt>
      <trkpt lat="47.83284" lon="6.89291">
        <ele>1078.2</ele>
        <time>2026-08-27T04:58:58.953Z</time>
      </trkpt>
      <trkpt lat="47.83284" lon="6.89291">
        <ele>1078.3</ele>
        <time>2026-08-27T04:58:59.961Z</time>
      </trkpt>
      <trkpt lat="47.83284" lon="6.89291">
        <ele>1078.4</ele>
        <time>2026-08-27T04:59:00.971Z</time>
      </trkpt>
      <trkpt lat="47.83284" lon="6.89291">
        <ele>1078.3</ele>
        <time>2026-08-27T04:59:01.979Z</time>
      </trkpt>
      <trkpt lat="47.83284" lon="6.89291">
        <ele>1078.2</ele>
        <time>2026-08-27T04:59:02.987Z</time>
      </trkpt>
      <trkpt lat="47.83284" lon="6.89291">
        <ele>1078.2</ele>
        <time>2026-08-27T04:59:04.903Z</time>
      </trkpt>
      <trkpt lat="47.83284" lon="6.89291">
        <ele>1078.2</ele>
        <time>2026-08-27T04:59:05.912Z</time>
      </trkpt>
      <trkpt lat="47.83284" lon="6.89292">
        <ele>1078</ele>
        <time>2026-08-27T04:59:06.920Z</time>
      </trkpt>
      <trkpt lat="47.83284" lon="6.89292">
        <ele>1078</ele>
        <time>2026-08-27T04:59:07.929Z</time>
      </trkpt>
      <trkpt lat="47.83284" lon="6.89292">
        <ele>1077.7</ele>
        <time>2026-08-27T04:59:08.937Z</time>
      </trkpt>
      <trkpt lat="47.83284" lon="6.89292">
        <ele>1078.3</ele>
        <time>2026-08-27T04:59:09.945Z</time>
      </trkpt>
      <trkpt lat="47.83284" lon="6.89291">
        <ele>1077.5</ele>
        <time>2026-08-27T04:59:10.954Z</time>
      </trkpt>
      <trkpt lat="47.83284" lon="6.89291">
        <ele>1077.8</ele>
        <time>2026-08-27T04:59:11.962Z</time>
      </trkpt>
      <trkpt lat="47.83284" lon="6.89291">
        <ele>1077.9</ele>
        <time>2026-08-27T04:59:12.971Z</time>
      </trkpt>
      <trkpt lat="47.83284" lon="6.8929">
        <ele>1078.1</ele>
        <time>2026-08-27T04:59:13.979Z</time>
      </trkpt>
      <trkpt lat="47.83284" lon="6.8929">
        <ele>1078</ele>
        <time>2026-08-27T04:59:15.895Z</time>
      </trkpt>
      <trkpt lat="47.83285" lon="6.8929">
        <ele>1078.1</ele>
        <time>2026-08-27T04:59:16.904Z</time>
      </trkpt>
      <trkpt lat="47.83285" lon="6.89289">
        <ele>1078</ele>
        <time>2026-08-27T04:59:17.913Z</time>
      </trkpt>
      <trkpt lat="47.83285" lon="6.89289">
        <ele>1078</ele>
        <time>2026-08-27T04:59:19.895Z</time>
      </trkpt>
      <trkpt lat="47.83285" lon="6.89289">
        <ele>1077.8</ele>
        <time>2026-08-27T04:59:20.937Z</time>
      </trkpt>
      <trkpt lat="47.83285" lon="6.89289">
        <ele>1078.1</ele>
        <time>2026-08-27T04:59:21.947Z</time>
      </trkpt>
      <trkpt lat="47.83285" lon="6.89288">
        <ele>1078.1</ele>
        <time>2026-08-27T04:59:23.812Z</time>
      </trkpt>
      <trkpt lat="47.83285" lon="6.89288">
        <ele>1078.2</ele>
        <time>2026-08-27T04:59:24.837Z</time>
      </trkpt>
      <trkpt lat="47.83285" lon="6.89288">
        <ele>1078.1</ele>
        <time>2026-08-27T04:59:25.897Z</time>
      </trkpt>
      <trkpt lat="47.83285" lon="6.89288">
        <ele>1078.2</ele>
        <time>2026-08-27T04:59:26.956Z</time>
      </trkpt>
      <trkpt lat="47.83285" lon="6.89287">
        <ele>1078.4</ele>
        <time>2026-08-27T04:59:28.904Z</time>
      </trkpt>
      <trkpt lat="47.83285" lon="6.89287">
        <ele>1078.4</ele>
        <time>2026-08-27T04:59:29.914Z</time>
      </trkpt>
      <trkpt lat="47.83285" lon="6.89286">
        <ele>1078.5</ele>
        <time>2026-08-27T04:59:31.972Z</time>
      </trkpt>
      <trkpt lat="47.83285" lon="6.89286">
        <ele>1078.5</ele>
        <time>2026-08-27T04:59:33.972Z</time>
      </trkpt>
      <trkpt lat="47.83285" lon="6.89286">
        <ele>1078.5</ele>
        <time>2026-08-27T04:59:35.955Z</time>
      </trkpt>
      <trkpt lat="47.83285" lon="6.89286">
        <ele>1078.4</ele>
        <time>2026-08-27T04:59:36.973Z</time>
      </trkpt>
      <trkpt lat="47.83285" lon="6.89285">
        <ele>1078.7</ele>
        <time>2026-08-27T04:59:38.895Z</time>
      </trkpt>
      <trkpt lat="47.83285" lon="6.89285">
        <ele>1078.7</ele>
        <time>2026-08-27T04:59:39.897Z</time>
      </trkpt>
      <trkpt lat="47.83285" lon="6.89285">
        <ele>1078.5</ele>
        <time>2026-08-27T04:59:40.905Z</time>
      </trkpt>
      <trkpt lat="47.83285" lon="6.89285">
        <ele>1078.4</ele>
        <time>2026-08-27T04:59:41.914Z</time>
      </trkpt>
      <trkpt lat="47.83285" lon="6.89285">
        <ele>1078.7</ele>
        <time>2026-08-27T04:59:42.923Z</time>
      </trkpt>
      <trkpt lat="47.83284" lon="6.89285">
        <ele>1078.8</ele>
        <time>2026-08-27T04:59:43.930Z</time>
      </trkpt>
      <trkpt lat="47.83284" lon="6.89285">
        <ele>1078.6</ele>
        <time>2026-08-27T04:59:44.939Z</time>
      </trkpt>
      <trkpt lat="47.83284" lon="6.89285">
        <ele>1078.6</ele>
        <time>2026-08-27T04:59:45.947Z</time>
      </trkpt>
      <trkpt lat="47.83284" lon="6.89286">
        <ele>1078.7</ele>
        <time>2026-08-27T04:59:46.956Z</time>
      </trkpt>
      <trkpt lat="47.83284" lon="6.89286">
        <ele>1078.5</ele>
        <time>2026-08-27T04:59:47.964Z</time>
      </trkpt>
      <trkpt lat="47.83284" lon="6.89286">
        <ele>1078.7</ele>
        <time>2026-08-27T04:59:48.973Z</time>
      </trkpt>
      <trkpt lat="47.83284" lon="6.89286">
        <ele>1078.4</ele>
        <time>2026-08-27T04:59:49.981Z</time>
      </trkpt>
      <trkpt lat="47.83284" lon="6.89286">
        <ele>1078.6</ele>
        <time>2026-08-27T04:59:50.990Z</time>
      </trkpt>
      <trkpt lat="47.83284" lon="6.89287">
        <ele>1078.5</ele>
        <time>2026-08-27T04:59:52.906Z</time>
      </trkpt>
      <trkpt lat="47.83284" lon="6.89287">
        <ele>1078.5</ele>
        <time>2026-08-27T04:59:53.914Z</time>
      </trkpt>
      <trkpt lat="47.83284" lon="6.89287">
        <ele>1079</ele>
        <time>2026-08-27T04:59:54.924Z</time>
      </trkpt>
      <trkpt lat="47.83284" lon="6.89287">
        <ele>1078.8</ele>
        <time>2026-08-27T04:59:55.932Z</time>
      </trkpt>
      <trkpt lat="47.83284" lon="6.89288">
        <ele>1078.8</ele>
        <time>2026-08-27T04:59:56.941Z</time>
      </trkpt>
      <trkpt lat="47.83284" lon="6.89288">
        <ele>1078.7</ele>
        <time>2026-08-27T04:59:57.948Z</time>
      </trkpt>
      <trkpt lat="47.83285" lon="6.89288">
        <ele>1078.9</ele>
        <time>2026-08-27T04:59:58.957Z</time>
      </trkpt>
      <trkpt lat="47.83285" lon="6.89288">
        <ele>1079</ele>
        <time>2026-08-27T04:59:59.966Z</time>
      </trkpt>
      <trkpt lat="47.83285" lon="6.89288">
        <ele>1078.6</ele>
        <time>2026-08-27T05:00:00.975Z</time>
      </trkpt>
      <trkpt lat="47.83285" lon="6.89288">
        <ele>1078.9</ele>
        <time>2026-08-27T05:00:01.983Z</time>
      </trkpt>
      <trkpt lat="47.83285" lon="6.89288">
        <ele>1079</ele>
        <time>2026-08-27T05:00:02.992Z</time>
      </trkpt>
      <trkpt lat="47.83285" lon="6.89289">
        <ele>1078.5</ele>
        <time>2026-08-27T05:00:04.907Z</time>
      </trkpt>
      <trkpt lat="47.83285" lon="6.89289">
        <ele>1078.7</ele>
        <time>2026-08-27T05:00:05.915Z</time>
      </trkpt>
      <trkpt lat="47.83285" lon="6.89289">
        <ele>1078.9</ele>
        <time>2026-08-27T05:00:06.924Z</time>
      </trkpt>
      <trkpt lat="47.83285" lon="6.89289">
        <ele>1078.9</ele>
        <time>2026-08-27T05:00:07.932Z</time>
      </trkpt>
      <trkpt lat="47.83285" lon="6.89289">
        <ele>1078.9</ele>
        <time>2026-08-27T05:00:08.941Z</time>
      </trkpt>
      <trkpt lat="47.83285" lon="6.89289">
        <ele>1078.6</ele>
        <time>2026-08-27T05:00:09.949Z</time>
      </trkpt>
      <trkpt lat="47.83285" lon="6.8929">
        <ele>1078.6</ele>
        <time>2026-08-27T05:00:10.959Z</time>
      </trkpt>
      <trkpt lat="47.83285" lon="6.8929">
        <ele>1078.7</ele>
        <time>2026-08-27T05:00:11.966Z</time>
      </trkpt>
      <trkpt lat="47.83285" lon="6.8929">
        <ele>1079.1</ele>
        <time>2026-08-27T05:00:12.976Z</time>
      </trkpt>
      <trkpt lat="47.83285" lon="6.8929">
        <ele>1078.7</ele>
        <time>2026-08-27T05:00:13.983Z</time>
      </trkpt>
      <trkpt lat="47.83285" lon="6.8929">
        <ele>1078.7</ele>
        <time>2026-08-27T05:00:16.000Z</time>
      </trkpt>
      <trkpt lat="47.83285" lon="6.8929">
        <ele>1078.6</ele>
        <time>2026-08-27T05:00:17.009Z</time>
      </trkpt>
      <trkpt lat="47.83285" lon="6.8929">
        <ele>1078.7</ele>
        <time>2026-08-27T05:00:18.017Z</time>
      </trkpt>
      <trkpt lat="47.83285" lon="6.89291">
        <ele>1078.7</ele>
        <time>2026-08-27T05:00:19.026Z</time>
      </trkpt>
      <trkpt lat="47.83285" lon="6.89291">
        <ele>1078.7</ele>
        <time>2026-08-27T05:00:20.035Z</time>
      </trkpt>
      <trkpt lat="47.83285" lon="6.89291">
        <ele>1078.7</ele>
        <time>2026-08-27T05:00:22.051Z</time>
      </trkpt>
      <trkpt lat="47.83285" lon="6.89291">
        <ele>1078.7</ele>
        <time>2026-08-27T05:00:23.967Z</time>
      </trkpt>
      <trkpt lat="47.83285" lon="6.89291">
        <ele>1078.9</ele>
        <time>2026-08-27T05:00:24.975Z</time>
      </trkpt>
      <trkpt lat="47.83285" lon="6.89291">
        <ele>1078.9</ele>
        <time>2026-08-27T05:00:25.985Z</time>
      </trkpt>
      <trkpt lat="47.83285" lon="6.89291">
        <ele>1078.9</ele>
        <time>2026-08-27T05:00:26.992Z</time>
      </trkpt>
      <trkpt lat="47.83285" lon="6.89291">
        <ele>1079</ele>
        <time>2026-08-27T05:00:28.000Z</time>
      </trkpt>
      <trkpt lat="47.83285" lon="6.89291">
        <ele>1079.4</ele>
        <time>2026-08-27T05:00:29.009Z</time>
      </trkpt>
      <trkpt lat="47.83285" lon="6.89291">
        <ele>1079.3</ele>
        <time>2026-08-27T05:00:30.018Z</time>
      </trkpt>
      <trkpt lat="47.83285" lon="6.89291">
        <ele>1079.1</ele>
        <time>2026-08-27T05:00:31.026Z</time>
      </trkpt>
      <trkpt lat="47.83285" lon="6.89291">
        <ele>1079.4</ele>
        <time>2026-08-27T05:00:32.035Z</time>
      </trkpt>
      <trkpt lat="47.83285" lon="6.89291">
        <ele>1078.7</ele>
        <time>2026-08-27T05:00:33.950Z</time>
      </trkpt>
      <trkpt lat="47.83285" lon="6.89291">
        <ele>1079.3</ele>
        <time>2026-08-27T05:00:34.958Z</time>
      </trkpt>
      <trkpt lat="47.83285" lon="6.89291">
        <ele>1079.3</ele>
        <time>2026-08-27T05:00:35.967Z</time>
      </trkpt>
      <trkpt lat="47.83285" lon="6.89291">
        <ele>1079.1</ele>
        <time>2026-08-27T05:00:36.975Z</time>
      </trkpt>
      <trkpt lat="47.83285" lon="6.89291">
        <ele>1079.1</ele>
        <time>2026-08-27T05:00:37.985Z</time>
      </trkpt>
      <trkpt lat="47.83285" lon="6.89291">
        <ele>1079.2</ele>
        <time>2026-08-27T05:00:38.992Z</time>
      </trkpt>
      <trkpt lat="47.83285" lon="6.89291">
        <ele>1079</ele>
        <time>2026-08-27T05:00:40.000Z</time>
      </trkpt>
      <trkpt lat="47.83285" lon="6.89291">
        <ele>1078.9</ele>
        <time>2026-08-27T05:00:41.010Z</time>
      </trkpt>
      <trkpt lat="47.83285" lon="6.89292">
        <ele>1079.3</ele>
        <time>2026-08-27T05:00:42.018Z</time>
      </trkpt>
      <trkpt lat="47.83285" lon="6.89292">
        <ele>1079.3</ele>
        <time>2026-08-27T05:00:43.026Z</time>
      </trkpt>
      <trkpt lat="47.83285" lon="6.89292">
        <ele>1079</ele>
        <time>2026-08-27T05:00:44.034Z</time>
      </trkpt>
      <trkpt lat="47.83285" lon="6.89292">
        <ele>1078.8</ele>
        <time>2026-08-27T05:00:45.951Z</time>
      </trkpt>
      <trkpt lat="47.83285" lon="6.89292">
        <ele>1078.8</ele>
        <time>2026-08-27T05:00:46.958Z</time>
      </trkpt>
      <trkpt lat="47.83285" lon="6.89292">
        <ele>1078.8</ele>
        <time>2026-08-27T05:00:47.968Z</time>
      </trkpt>
      <trkpt lat="47.83285" lon="6.89292">
        <ele>1078.9</ele>
        <time>2026-08-27T05:00:48.975Z</time>
      </trkpt>
      <trkpt lat="47.83285" lon="6.89292">
        <ele>1078.8</ele>
        <time>2026-08-27T05:00:49.983Z</time>
      </trkpt>
      <trkpt lat="47.83285" lon="6.89292">
        <ele>1078.8</ele>
        <time>2026-08-27T05:00:50.993Z</time>
      </trkpt>
      <trkpt lat="47.83285" lon="6.89292">
        <ele>1078.8</ele>
        <time>2026-08-27T05:00:52.000Z</time>
      </trkpt>
      <trkpt lat="47.83285" lon="6.89292">
        <ele>1079</ele>
        <time>2026-08-27T05:00:53.009Z</time>
      </trkpt>
      <trkpt lat="47.83285" lon="6.89292">
        <ele>1079</ele>
        <time>2026-08-27T05:00:54.017Z</time>
      </trkpt>
      <trkpt lat="47.83285" lon="6.89292">
        <ele>1079</ele>
        <time>2026-08-27T05:00:55.026Z</time>
      </trkpt>
      <trkpt lat="47.83285" lon="6.89292">
        <ele>1079.1</ele>
        <time>2026-08-27T05:00:56.034Z</time>
      </trkpt>
      <trkpt lat="47.83285" lon="6.89292">
        <ele>1078.9</ele>
        <time>2026-08-27T05:00:57.043Z</time>
      </trkpt>
      <trkpt lat="47.83285" lon="6.89292">
        <ele>1079.1</ele>
        <time>2026-08-27T05:00:58.051Z</time>
      </trkpt>
      <trkpt lat="47.83285" lon="6.89292">
        <ele>1079.1</ele>
        <time>2026-08-27T05:00:59.967Z</time>
      </trkpt>
      <trkpt lat="47.83285" lon="6.89292">
        <ele>1079.4</ele>
        <time>2026-08-27T05:01:00.976Z</time>
      </trkpt>
      <trkpt lat="47.83285" lon="6.89292">
        <ele>1079.2</ele>
        <time>2026-08-27T05:01:01.984Z</time>
      </trkpt>
      <trkpt lat="47.83285" lon="6.89292">
        <ele>1079.3</ele>
        <time>2026-08-27T05:01:02.993Z</time>
      </trkpt>
      <trkpt lat="47.83285" lon="6.89292">
        <ele>1079.2</ele>
        <time>2026-08-27T05:01:04.000Z</time>
      </trkpt>
      <trkpt lat="47.83285" lon="6.89292">
        <ele>1079.4</ele>
        <time>2026-08-27T05:01:05.009Z</time>
      </trkpt>
      <trkpt lat="47.83285" lon="6.89292">
        <ele>1079.2</ele>
        <time>2026-08-27T05:01:06.018Z</time>
      </trkpt>
      <trkpt lat="47.83285" lon="6.89292">
        <ele>1079</ele>
        <time>2026-08-27T05:01:07.025Z</time>
      </trkpt>
      <trkpt lat="47.83285" lon="6.89292">
        <ele>1079.1</ele>
        <time>2026-08-27T05:01:08.034Z</time>
      </trkpt>
      <trkpt lat="47.83285" lon="6.89292">
        <ele>1079.3</ele>
        <time>2026-08-27T05:01:09.042Z</time>
      </trkpt>
      <trkpt lat="47.83285" lon="6.89292">
        <ele>1079.2</ele>
        <time>2026-08-27T05:01:11.060Z</time>
      </trkpt>
      <trkpt lat="47.83285" lon="6.89292">
        <ele>1079</ele>
        <time>2026-08-27T05:01:12.975Z</time>
      </trkpt>
      <trkpt lat="47.83285" lon="6.89292">
        <ele>1078.9</ele>
        <time>2026-08-27T05:01:13.984Z</time>
      </trkpt>
      <trkpt lat="47.83285" lon="6.89292">
        <ele>1079</ele>
        <time>2026-08-27T05:01:15.092Z</time>
      </trkpt>
      <trkpt lat="47.83285" lon="6.89292">
        <ele>1078.7</ele>
        <time>2026-08-27T05:01:17.009Z</time>
      </trkpt>
      <trkpt lat="47.83285" lon="6.89292">
        <ele>1078.8</ele>
        <time>2026-08-27T05:01:18.017Z</time>
      </trkpt>
      <trkpt lat="47.83285" lon="6.89292">
        <ele>1078.6</ele>
        <time>2026-08-27T05:01:19.025Z</time>
      </trkpt>
      <trkpt lat="47.83285" lon="6.89291">
        <ele>1078.7</ele>
        <time>2026-08-27T05:01:21.043Z</time>
      </trkpt>
      <trkpt lat="47.83285" lon="6.89291">
        <ele>1079</ele>
        <time>2026-08-27T05:01:22.050Z</time>
      </trkpt>
      <trkpt lat="47.83285" lon="6.89291">
        <ele>1079</ele>
        <time>2026-08-27T05:01:23.075Z</time>
      </trkpt>
      <trkpt lat="47.83285" lon="6.89293">
        <ele>1079.1</ele>
        <time>2026-08-27T05:01:24.958Z</time>
      </trkpt>
      <trkpt lat="47.83284" lon="6.89295">
        <ele>1078.8</ele>
        <time>2026-08-27T05:01:26.083Z</time>
      </trkpt>
      <trkpt lat="47.83284" lon="6.89298">
        <ele>1079.5</ele>
        <time>2026-08-27T05:01:27.999Z</time>
      </trkpt>
      <trkpt lat="47.83284" lon="6.89298">
        <ele>1079.4</ele>
        <time>2026-08-27T05:01:29.008Z</time>
      </trkpt>
      <trkpt lat="47.83284" lon="6.893">
        <ele>1079.4</ele>
        <time>2026-08-27T05:01:30.016Z</time>
      </trkpt>
      <trkpt lat="47.83283" lon="6.89302">
        <ele>1079.9</ele>
        <time>2026-08-27T05:01:31.025Z</time>
      </trkpt>
      <trkpt lat="47.83283" lon="6.89304">
        <ele>1079.8</ele>
        <time>2026-08-27T05:01:32.032Z</time>
      </trkpt>
      <trkpt lat="47.83282" lon="6.89306">
        <ele>1079.9</ele>
        <time>2026-08-27T05:01:33.040Z</time>
      </trkpt>
      <trkpt lat="47.83282" lon="6.89308">
        <ele>1079.9</ele>
        <time>2026-08-27T05:01:34.049Z</time>
      </trkpt>
      <trkpt lat="47.83281" lon="6.89311">
        <ele>1079.6</ele>
        <time>2026-08-27T05:01:36.065Z</time>
      </trkpt>
      <trkpt lat="47.8328" lon="6.89314">
        <ele>1079.9</ele>
        <time>2026-08-27T05:01:38.082Z</time>
      </trkpt>
      <trkpt lat="47.83279" lon="6.89316">
        <ele>1079.8</ele>
        <time>2026-08-27T05:01:39.998Z</time>
      </trkpt>
      <trkpt lat="47.83278" lon="6.89317">
        <ele>1079.6</ele>
        <time>2026-08-27T05:01:41.006Z</time>
      </trkpt>
      <trkpt lat="47.83278" lon="6.89318">
        <ele>1079.7</ele>
        <time>2026-08-27T05:01:42.014Z</time>
      </trkpt>
      <trkpt lat="47.83277" lon="6.89321">
        <ele>1079.9</ele>
        <time>2026-08-27T05:01:44.030Z</time>
      </trkpt>
      <trkpt lat="47.83276" lon="6.89323">
        <ele>1080.5</ele>
        <time>2026-08-27T05:01:46.047Z</time>
      </trkpt>
      <trkpt lat="47.83275" lon="6.89323">
        <ele>1080.7</ele>
        <time>2026-08-27T05:01:47.055Z</time>
      </trkpt>
      <trkpt lat="47.83274" lon="6.89324">
        <ele>1080.5</ele>
        <time>2026-08-27T05:01:48.064Z</time>
      </trkpt>
      <trkpt lat="47.83274" lon="6.89326">
        <ele>1080.4</ele>
        <time>2026-08-27T05:01:49.072Z</time>
      </trkpt>
      <trkpt lat="47.83273" lon="6.89328">
        <ele>1081</ele>
        <time>2026-08-27T05:01:50.988Z</time>
      </trkpt>
      <trkpt lat="47.83272" lon="6.8933">
        <ele>1080.8</ele>
        <time>2026-08-27T05:01:51.995Z</time>
      </trkpt>
      <trkpt lat="47.83272" lon="6.89331">
        <ele>1080.9</ele>
        <time>2026-08-27T05:01:53.003Z</time>
      </trkpt>
      <trkpt lat="47.83272" lon="6.89332">
        <ele>1080.6</ele>
        <time>2026-08-27T05:01:54.012Z</time>
      </trkpt>
      <trkpt lat="47.83271" lon="6.89334">
        <ele>1080.4</ele>
        <time>2026-08-27T05:01:55.021Z</time>
      </trkpt>
      <trkpt lat="47.83271" lon="6.89335">
        <ele>1080.4</ele>
        <time>2026-08-27T05:01:56.036Z</time>
      </trkpt>
      <trkpt lat="47.83271" lon="6.89336">
        <ele>1080.5</ele>
        <time>2026-08-27T05:01:57.036Z</time>
      </trkpt>
      <trkpt lat="47.83271" lon="6.89338">
        <ele>1080.5</ele>
        <time>2026-08-27T05:01:58.044Z</time>
      </trkpt>
      <trkpt lat="47.8327" lon="6.8934">
        <ele>1080.7</ele>
        <time>2026-08-27T05:01:59.052Z</time>
      </trkpt>
      <trkpt lat="47.8327" lon="6.89341">
        <ele>1080.4</ele>
        <time>2026-08-27T05:02:00.062Z</time>
      </trkpt>
      <trkpt lat="47.83269" lon="6.89343">
        <ele>1080.3</ele>
        <time>2026-08-27T05:02:01.069Z</time>
      </trkpt>
      <trkpt lat="47.83269" lon="6.89345">
        <ele>1080.2</ele>
        <time>2026-08-27T05:02:02.078Z</time>
      </trkpt>
      <trkpt lat="47.83267" lon="6.89348">
        <ele>1080.1</ele>
        <time>2026-08-27T05:02:03.992Z</time>
      </trkpt>
      <trkpt lat="47.83267" lon="6.89349">
        <ele>1079.9</ele>
        <time>2026-08-27T05:02:05.001Z</time>
      </trkpt>
      <trkpt lat="47.83266" lon="6.89351">
        <ele>1079.7</ele>
        <time>2026-08-27T05:02:06.009Z</time>
      </trkpt>
      <trkpt lat="47.83266" lon="6.89352">
        <ele>1079.8</ele>
        <time>2026-08-27T05:02:07.017Z</time>
      </trkpt>
      <trkpt lat="47.83264" lon="6.89355">
        <ele>1079.4</ele>
        <time>2026-08-27T05:02:09.034Z</time>
      </trkpt>
      <trkpt lat="47.83264" lon="6.89356">
        <ele>1079.1</ele>
        <time>2026-08-27T05:02:10.041Z</time>
      </trkpt>
      <trkpt lat="47.83263" lon="6.89357">
        <ele>1079</ele>
        <time>2026-08-27T05:02:11.050Z</time>
      </trkpt>
      <trkpt lat="47.83263" lon="6.89359">
        <ele>1078.8</ele>
        <time>2026-08-27T05:02:12.058Z</time>
      </trkpt>
      <trkpt lat="47.83261" lon="6.89362">
        <ele>1078.7</ele>
        <time>2026-08-27T05:02:13.956Z</time>
      </trkpt>
      <trkpt lat="47.83261" lon="6.89363">
        <ele>1078.9</ele>
        <time>2026-08-27T05:02:15.083Z</time>
      </trkpt>
      <trkpt lat="47.8326" lon="6.89365">
        <ele>1078.6</ele>
        <time>2026-08-27T05:02:17.007Z</time>
      </trkpt>
      <trkpt lat="47.8326" lon="6.89365">
        <ele>1078.3</ele>
        <time>2026-08-27T05:02:18.014Z</time>
      </trkpt>
      <trkpt lat="47.83259" lon="6.89368">
        <ele>1078.3</ele>
        <time>2026-08-27T05:02:20.014Z</time>
      </trkpt>
      <trkpt lat="47.83258" lon="6.8937">
        <ele>1078.7</ele>
        <time>2026-08-27T05:02:21.039Z</time>
      </trkpt>
      <trkpt lat="47.83256" lon="6.89373">
        <ele>1078.6</ele>
        <time>2026-08-27T05:02:23.055Z</time>
      </trkpt>
      <trkpt lat="47.83256" lon="6.89374">
        <ele>1077.9</ele>
        <time>2026-08-27T05:02:24.063Z</time>
      </trkpt>
      <trkpt lat="47.83254" lon="6.89377">
        <ele>1078.1</ele>
        <time>2026-08-27T05:02:25.980Z</time>
      </trkpt>
      <trkpt lat="47.83254" lon="6.89378">
        <ele>1078.1</ele>
        <time>2026-08-27T05:02:26.987Z</time>
      </trkpt>
      <trkpt lat="47.83253" lon="6.89379">
        <ele>1078.1</ele>
        <time>2026-08-27T05:02:28.020Z</time>
      </trkpt>
      <trkpt lat="47.83253" lon="6.89381">
        <ele>1077.9</ele>
        <time>2026-08-27T05:02:29.935Z</time>
      </trkpt>
      <trkpt lat="47.83252" lon="6.89382">
        <ele>1077.9</ele>
        <time>2026-08-27T05:02:31.019Z</time>
      </trkpt>
      <trkpt lat="47.83252" lon="6.89384">
        <ele>1078.2</ele>
        <time>2026-08-27T05:02:33.035Z</time>
      </trkpt>
      <trkpt lat="47.83252" lon="6.89386">
        <ele>1078.3</ele>
        <time>2026-08-27T05:02:34.044Z</time>
      </trkpt>
      <trkpt lat="47.83251" lon="6.89387">
        <ele>1078.6</ele>
        <time>2026-08-27T05:02:35.053Z</time>
      </trkpt>
      <trkpt lat="47.83252" lon="6.89389">
        <ele>1079</ele>
        <time>2026-08-27T05:02:37.068Z</time>
      </trkpt>
      <trkpt lat="47.83252" lon="6.8939">
        <ele>1079.1</ele>
        <time>2026-08-27T05:02:38.076Z</time>
      </trkpt>
      <trkpt lat="47.83252" lon="6.89392">
        <ele>1079.5</ele>
        <time>2026-08-27T05:02:39.992Z</time>
      </trkpt>
      <trkpt lat="47.83252" lon="6.89392">
        <ele>1079.6</ele>
        <time>2026-08-27T05:02:41.000Z</time>
      </trkpt>
      <trkpt lat="47.83252" lon="6.89393">
        <ele>1079.6</ele>
        <time>2026-08-27T05:02:42.075Z</time>
      </trkpt>
      <trkpt lat="47.83252" lon="6.89395">
        <ele>1080.5</ele>
        <time>2026-08-27T05:02:44.025Z</time>
      </trkpt>
      <trkpt lat="47.83252" lon="6.89395">
        <ele>1080.6</ele>
        <time>2026-08-27T05:02:45.032Z</time>
      </trkpt>
      <trkpt lat="47.83251" lon="6.89396">
        <ele>1080.9</ele>
        <time>2026-08-27T05:02:46.040Z</time>
      </trkpt>
      <trkpt lat="47.83251" lon="6.89396">
        <ele>1080.8</ele>
        <time>2026-08-27T05:02:47.048Z</time>
      </trkpt>
      <trkpt lat="47.83251" lon="6.89397">
        <ele>1081.6</ele>
        <time>2026-08-27T05:02:49.065Z</time>
      </trkpt>
      <trkpt lat="47.8325" lon="6.89399">
        <ele>1081.8</ele>
        <time>2026-08-27T05:02:51.072Z</time>
      </trkpt>
      <trkpt lat="47.83249" lon="6.89401">
        <ele>1082.3</ele>
        <time>2026-08-27T05:02:52.895Z</time>
      </trkpt>
      <trkpt lat="47.83249" lon="6.89402">
        <ele>1082.4</ele>
        <time>2026-08-27T05:02:54.004Z</time>
      </trkpt>
      <trkpt lat="47.83248" lon="6.89403">
        <ele>1082.7</ele>
        <time>2026-08-27T05:02:55.012Z</time>
      </trkpt>
      <trkpt lat="47.83248" lon="6.89404">
        <ele>1083.2</ele>
        <time>2026-08-27T05:02:56.022Z</time>
      </trkpt>
      <trkpt lat="47.83247" lon="6.89405">
        <ele>1083.2</ele>
        <time>2026-08-27T05:02:57.029Z</time>
      </trkpt>
      <trkpt lat="47.83247" lon="6.89406">
        <ele>1083.2</ele>
        <time>2026-08-27T05:02:58.096Z</time>
      </trkpt>
      <trkpt lat="47.83247" lon="6.89409">
        <ele>1083.3</ele>
        <time>2026-08-27T05:03:00.054Z</time>
      </trkpt>
      <trkpt lat="47.83246" lon="6.8941">
        <ele>1083.5</ele>
        <time>2026-08-27T05:03:01.062Z</time>
      </trkpt>
      <trkpt lat="47.83246" lon="6.89411">
        <ele>1083.5</ele>
        <time>2026-08-27T05:03:02.069Z</time>
      </trkpt>
      <trkpt lat="47.83246" lon="6.89413">
        <ele>1083.8</ele>
        <time>2026-08-27T05:03:03.986Z</time>
      </trkpt>
      <trkpt lat="47.83246" lon="6.89414">
        <ele>1084</ele>
        <time>2026-08-27T05:03:04.993Z</time>
      </trkpt>
      <trkpt lat="47.83245" lon="6.89415">
        <ele>1084</ele>
        <time>2026-08-27T05:03:06.017Z</time>
      </trkpt>
      <trkpt lat="47.83244" lon="6.89417">
        <ele>1083.9</ele>
        <time>2026-08-27T05:03:08.017Z</time>
      </trkpt>
      <trkpt lat="47.83244" lon="6.89418">
        <ele>1084</ele>
        <time>2026-08-27T05:03:09.025Z</time>
      </trkpt>
      <trkpt lat="47.83244" lon="6.89419">
        <ele>1084.1</ele>
        <time>2026-08-27T05:03:10.033Z</time>
      </trkpt>
      <trkpt lat="47.83244" lon="6.8942">
        <ele>1084.2</ele>
        <time>2026-08-27T05:03:11.041Z</time>
      </trkpt>
      <trkpt lat="47.83244" lon="6.89421">
        <ele>1084.4</ele>
        <time>2026-08-27T05:03:12.049Z</time>
      </trkpt>
      <trkpt lat="47.83244" lon="6.89422">
        <ele>1084.7</ele>
        <time>2026-08-27T05:03:13.057Z</time>
      </trkpt>
      <trkpt lat="47.83243" lon="6.89424">
        <ele>1084.6</ele>
        <time>2026-08-27T05:03:15.074Z</time>
      </trkpt>
      <trkpt lat="47.83242" lon="6.89426">
        <ele>1084.7</ele>
        <time>2026-08-27T05:03:16.990Z</time>
      </trkpt>
      <trkpt lat="47.83242" lon="6.89427">
        <ele>1085.2</ele>
        <time>2026-08-27T05:03:17.997Z</time>
      </trkpt>
      <trkpt lat="47.83242" lon="6.89429">
        <ele>1085.4</ele>
        <time>2026-08-27T05:03:19.005Z</time>
      </trkpt>
      <trkpt lat="47.83241" lon="6.89431">
        <ele>1085.7</ele>
        <time>2026-08-27T05:03:21.021Z</time>
      </trkpt>
      <trkpt lat="47.83241" lon="6.89431">
        <ele>1085.6</ele>
        <time>2026-08-27T05:03:22.029Z</time>
      </trkpt>
      <trkpt lat="47.83241" lon="6.89431">
        <ele>1085.7</ele>
        <time>2026-08-27T05:03:23.038Z</time>
      </trkpt>
      <trkpt lat="47.83241" lon="6.89431">
        <ele>1085.9</ele>
        <time>2026-08-27T05:03:24.046Z</time>
      </trkpt>
      <trkpt lat="47.83241" lon="6.89431">
        <ele>1086</ele>
        <time>2026-08-27T05:03:25.054Z</time>
      </trkpt>
      <trkpt lat="47.83241" lon="6.89431">
        <ele>1086</ele>
        <time>2026-08-27T05:03:26.095Z</time>
      </trkpt>
      <trkpt lat="47.83241" lon="6.89431">
        <ele>1086.1</ele>
        <time>2026-08-27T05:03:28.078Z</time>
      </trkpt>
      <trkpt lat="47.8324" lon="6.89433">
        <ele>1086</ele>
        <time>2026-08-27T05:03:29.993Z</time>
      </trkpt>
      <trkpt lat="47.8324" lon="6.89435">
        <ele>1086.1</ele>
        <time>2026-08-27T05:03:31.002Z</time>
      </trkpt>
      <trkpt lat="47.83239" lon="6.89436">
        <ele>1085.9</ele>
        <time>2026-08-27T05:03:32.009Z</time>
      </trkpt>
      <trkpt lat="47.83239" lon="6.89439">
        <ele>1086.2</ele>
        <time>2026-08-27T05:03:34.026Z</time>
      </trkpt>
      <trkpt lat="47.83239" lon="6.89441">
        <ele>1086.3</ele>
        <time>2026-08-27T05:03:35.034Z</time>
      </trkpt>
      <trkpt lat="47.83239" lon="6.89443">
        <ele>1086.4</ele>
        <time>2026-08-27T05:03:37.051Z</time>
      </trkpt>
      <trkpt lat="47.83238" lon="6.89444">
        <ele>1086.5</ele>
        <time>2026-08-27T05:03:38.058Z</time>
      </trkpt>
      <trkpt lat="47.83238" lon="6.89445">
        <ele>1086.5</ele>
        <time>2026-08-27T05:03:39.066Z</time>
      </trkpt>
      <trkpt lat="47.83238" lon="6.89447">
        <ele>1086.9</ele>
        <time>2026-08-27T05:03:40.075Z</time>
      </trkpt>
      <trkpt lat="47.83238" lon="6.8945">
        <ele>1087.2</ele>
        <time>2026-08-27T05:03:42.090Z</time>
      </trkpt>
      <trkpt lat="47.83238" lon="6.89452">
        <ele>1087.1</ele>
        <time>2026-08-27T05:03:44.007Z</time>
      </trkpt>
      <trkpt lat="47.83238" lon="6.89453">
        <ele>1086.8</ele>
        <time>2026-08-27T05:03:45.015Z</time>
      </trkpt>
      <trkpt lat="47.83238" lon="6.89454">
        <ele>1086.7</ele>
        <time>2026-08-27T05:03:46.023Z</time>
      </trkpt>
      <trkpt lat="47.83238" lon="6.89454">
        <ele>1087.1</ele>
        <time>2026-08-27T05:03:47.030Z</time>
      </trkpt>
      <trkpt lat="47.83238" lon="6.89455">
        <ele>1087.1</ele>
        <time>2026-08-27T05:03:48.038Z</time>
      </trkpt>
      <trkpt lat="47.83238" lon="6.89457">
        <ele>1087.1</ele>
        <time>2026-08-27T05:03:49.046Z</time>
      </trkpt>
      <trkpt lat="47.83238" lon="6.89458">
        <ele>1086.9</ele>
        <time>2026-08-27T05:03:50.055Z</time>
      </trkpt>
      <trkpt lat="47.83238" lon="6.8946">
        <ele>1086.7</ele>
        <time>2026-08-27T05:03:51.062Z</time>
      </trkpt>
      <trkpt lat="47.83238" lon="6.89461">
        <ele>1086.3</ele>
        <time>2026-08-27T05:03:52.071Z</time>
      </trkpt>
      <trkpt lat="47.83239" lon="6.89463">
        <ele>1086.2</ele>
        <time>2026-08-27T05:03:53.079Z</time>
      </trkpt>
      <trkpt lat="47.83239" lon="6.89465">
        <ele>1085.9</ele>
        <time>2026-08-27T05:03:54.994Z</time>
      </trkpt>
      <trkpt lat="47.83239" lon="6.89468">
        <ele>1085.9</ele>
        <time>2026-08-27T05:03:57.094Z</time>
      </trkpt>
      <trkpt lat="47.83239" lon="6.89471">
        <ele>1085.3</ele>
        <time>2026-08-27T05:03:59.026Z</time>
      </trkpt>
      <trkpt lat="47.83239" lon="6.89473">
        <ele>1085.1</ele>
        <time>2026-08-27T05:04:00.034Z</time>
      </trkpt>
      <trkpt lat="47.83239" lon="6.89476">
        <ele>1085.1</ele>
        <time>2026-08-27T05:04:02.050Z</time>
      </trkpt>
      <trkpt lat="47.83238" lon="6.89479">
        <ele>1084.8</ele>
        <time>2026-08-27T05:04:04.066Z</time>
      </trkpt>
      <trkpt lat="47.83237" lon="6.89482">
        <ele>1084.6</ele>
        <time>2026-08-27T05:04:05.983Z</time>
      </trkpt>
      <trkpt lat="47.83237" lon="6.89484">
        <ele>1084.4</ele>
        <time>2026-08-27T05:04:07.092Z</time>
      </trkpt>
      <trkpt lat="47.83237" lon="6.89487">
        <ele>1084.5</ele>
        <time>2026-08-27T05:04:09.006Z</time>
      </trkpt>
      <trkpt lat="47.83236" lon="6.89488">
        <ele>1084.8</ele>
        <time>2026-08-27T05:04:10.014Z</time>
      </trkpt>
      <trkpt lat="47.83236" lon="6.8949">
        <ele>1084.7</ele>
        <time>2026-08-27T05:04:11.022Z</time>
      </trkpt>
      <trkpt lat="47.83236" lon="6.89491">
        <ele>1084.7</ele>
        <time>2026-08-27T05:04:12.030Z</time>
      </trkpt>
      <trkpt lat="47.83235" lon="6.89493">
        <ele>1084.3</ele>
        <time>2026-08-27T05:04:13.038Z</time>
      </trkpt>
      <trkpt lat="47.83234" lon="6.89494">
        <ele>1084.4</ele>
        <time>2026-08-27T05:04:14.047Z</time>
      </trkpt>
      <trkpt lat="47.83234" lon="6.89496">
        <ele>1084.5</ele>
        <time>2026-08-27T05:04:15.055Z</time>
      </trkpt>
      <trkpt lat="47.83233" lon="6.89497">
        <ele>1084.8</ele>
        <time>2026-08-27T05:04:16.062Z</time>
      </trkpt>
      <trkpt lat="47.83232" lon="6.895">
        <ele>1085.1</ele>
        <time>2026-08-27T05:04:18.079Z</time>
      </trkpt>
      <trkpt lat="47.83231" lon="6.89503">
        <ele>1085.1</ele>
        <time>2026-08-27T05:04:19.994Z</time>
      </trkpt>
      <trkpt lat="47.83231" lon="6.89504">
        <ele>1085.1</ele>
        <time>2026-08-27T05:04:21.003Z</time>
      </trkpt>
      <trkpt lat="47.83231" lon="6.89505">
        <ele>1085.1</ele>
        <time>2026-08-27T05:04:22.060Z</time>
      </trkpt>
      <trkpt lat="47.8323" lon="6.89508">
        <ele>1085.7</ele>
        <time>2026-08-27T05:04:24.026Z</time>
      </trkpt>
      <trkpt lat="47.8323" lon="6.89509">
        <ele>1085.6</ele>
        <time>2026-08-27T05:04:25.034Z</time>
      </trkpt>
      <trkpt lat="47.8323" lon="6.8951">
        <ele>1085.6</ele>
        <time>2026-08-27T05:04:26.043Z</time>
      </trkpt>
      <trkpt lat="47.8323" lon="6.89511">
        <ele>1085.4</ele>
        <time>2026-08-27T05:04:27.050Z</time>
      </trkpt>
      <trkpt lat="47.8323" lon="6.89511">
        <ele>1085.7</ele>
        <time>2026-08-27T05:04:28.058Z</time>
      </trkpt>
      <trkpt lat="47.83229" lon="6.89512">
        <ele>1086</ele>
        <time>2026-08-27T05:04:29.067Z</time>
      </trkpt>
      <trkpt lat="47.83229" lon="6.89513">
        <ele>1086</ele>
        <time>2026-08-27T05:04:30.074Z</time>
      </trkpt>
      <trkpt lat="47.83229" lon="6.89514">
        <ele>1086.2</ele>
        <time>2026-08-27T05:04:31.082Z</time>
      </trkpt>
      <trkpt lat="47.83229" lon="6.89516">
        <ele>1086.3</ele>
        <time>2026-08-27T05:04:32.998Z</time>
      </trkpt>
      <trkpt lat="47.83229" lon="6.89517">
        <ele>1086.4</ele>
        <time>2026-08-27T05:04:34.006Z</time>
      </trkpt>
      <trkpt lat="47.83229" lon="6.89518">
        <ele>1086.4</ele>
        <time>2026-08-27T05:04:35.040Z</time>
      </trkpt>
      <trkpt lat="47.83229" lon="6.8952">
        <ele>1086.4</ele>
        <time>2026-08-27T05:04:37.038Z</time>
      </trkpt>
      <trkpt lat="47.83228" lon="6.89521">
        <ele>1087</ele>
        <time>2026-08-27T05:04:38.039Z</time>
      </trkpt>
      <trkpt lat="47.83228" lon="6.89522">
        <ele>1087.4</ele>
        <time>2026-08-27T05:04:39.046Z</time>
      </trkpt>
      <trkpt lat="47.83228" lon="6.89523">
        <ele>1087.4</ele>
        <time>2026-08-27T05:04:40.054Z</time>
      </trkpt>
      <trkpt lat="47.83228" lon="6.89524">
        <ele>1087.6</ele>
        <time>2026-08-27T05:04:41.063Z</time>
      </trkpt>
      <trkpt lat="47.83227" lon="6.89525">
        <ele>1087.5</ele>
        <time>2026-08-27T05:04:42.070Z</time>
      </trkpt>
      <trkpt lat="47.83226" lon="6.89527">
        <ele>1087.7</ele>
        <time>2026-08-27T05:04:44.087Z</time>
      </trkpt>
      <trkpt lat="47.83226" lon="6.89529">
        <ele>1088.4</ele>
        <time>2026-08-27T05:04:46.002Z</time>
      </trkpt>
      <trkpt lat="47.83226" lon="6.8953">
        <ele>1088.6</ele>
        <time>2026-08-27T05:04:47.010Z</time>
      </trkpt>
      <trkpt lat="47.83226" lon="6.89531">
        <ele>1088.7</ele>
        <time>2026-08-27T05:04:48.018Z</time>
      </trkpt>
      <trkpt lat="47.83226" lon="6.89532">
        <ele>1088.8</ele>
        <time>2026-08-27T05:04:49.026Z</time>
      </trkpt>
      <trkpt lat="47.83225" lon="6.89533">
        <ele>1088.8</ele>
        <time>2026-08-27T05:04:50.034Z</time>
      </trkpt>
      <trkpt lat="47.83225" lon="6.89534">
        <ele>1088.9</ele>
        <time>2026-08-27T05:04:51.042Z</time>
      </trkpt>
      <trkpt lat="47.83225" lon="6.89535">
        <ele>1089.2</ele>
        <time>2026-08-27T05:04:52.050Z</time>
      </trkpt>
      <trkpt lat="47.83225" lon="6.89536">
        <ele>1089.4</ele>
        <time>2026-08-27T05:04:53.059Z</time>
      </trkpt>
      <trkpt lat="47.83225" lon="6.89537">
        <ele>1089.4</ele>
        <time>2026-08-27T05:04:54.066Z</time>
      </trkpt>
      <trkpt lat="47.83224" lon="6.89538">
        <ele>1089.4</ele>
        <time>2026-08-27T05:04:55.075Z</time>
      </trkpt>
      <trkpt lat="47.83224" lon="6.89539">
        <ele>1089.1</ele>
        <time>2026-08-27T05:04:56.082Z</time>
      </trkpt>
      <trkpt lat="47.83223" lon="6.89542">
        <ele>1089.4</ele>
        <time>2026-08-27T05:04:57.972Z</time>
      </trkpt>
      <trkpt lat="47.83223" lon="6.89543">
        <ele>1089.5</ele>
        <time>2026-08-27T05:04:59.006Z</time>
      </trkpt>
      <trkpt lat="47.83223" lon="6.89545">
        <ele>1089.5</ele>
        <time>2026-08-27T05:05:00.014Z</time>
      </trkpt>
      <trkpt lat="47.83222" lon="6.89547">
        <ele>1089.4</ele>
        <time>2026-08-27T05:05:02.030Z</time>
      </trkpt>
      <trkpt lat="47.83222" lon="6.89547">
        <ele>1089.4</ele>
        <time>2026-08-27T05:05:03.038Z</time>
      </trkpt>
      <trkpt lat="47.83222" lon="6.89548">
        <ele>1089.5</ele>
        <time>2026-08-27T05:05:04.047Z</time>
      </trkpt>
      <trkpt lat="47.83222" lon="6.89548">
        <ele>1089.3</ele>
        <time>2026-08-27T05:05:05.054Z</time>
      </trkpt>
      <trkpt lat="47.83221" lon="6.89549">
        <ele>1089.9</ele>
        <time>2026-08-27T05:05:06.062Z</time>
      </trkpt>
      <trkpt lat="47.83221" lon="6.8955">
        <ele>1090</ele>
        <time>2026-08-27T05:05:07.070Z</time>
      </trkpt>
      <trkpt lat="47.83221" lon="6.89551">
        <ele>1089.8</ele>
        <time>2026-08-27T05:05:08.078Z</time>
      </trkpt>
      <trkpt lat="47.83221" lon="6.89553">
        <ele>1089.9</ele>
        <time>2026-08-27T05:05:10.095Z</time>
      </trkpt>
      <trkpt lat="47.83221" lon="6.89556">
        <ele>1089.7</ele>
        <time>2026-08-27T05:05:12.009Z</time>
      </trkpt>
      <trkpt lat="47.83221" lon="6.89557">
        <ele>1089.7</ele>
        <time>2026-08-27T05:05:13.017Z</time>
      </trkpt>
      <trkpt lat="47.83221" lon="6.89559">
        <ele>1090.1</ele>
        <time>2026-08-27T05:05:14.026Z</time>
      </trkpt>
      <trkpt lat="47.83221" lon="6.8956">
        <ele>1090.1</ele>
        <time>2026-08-27T05:05:15.035Z</time>
      </trkpt>
      <trkpt lat="47.83221" lon="6.89562">
        <ele>1090.1</ele>
        <time>2026-08-27T05:05:17.050Z</time>
      </trkpt>
      <trkpt lat="47.83221" lon="6.89563">
        <ele>1090.4</ele>
        <time>2026-08-27T05:05:18.059Z</time>
      </trkpt>
      <trkpt lat="47.83221" lon="6.89566">
        <ele>1090.2</ele>
        <time>2026-08-27T05:05:20.075Z</time>
      </trkpt>
      <trkpt lat="47.83221" lon="6.89568">
        <ele>1090.5</ele>
        <time>2026-08-27T05:05:21.082Z</time>
      </trkpt>
      <trkpt lat="47.83221" lon="6.89571">
        <ele>1090.8</ele>
        <time>2026-08-27T05:05:22.997Z</time>
      </trkpt>
      <trkpt lat="47.83221" lon="6.89573">
        <ele>1090.8</ele>
        <time>2026-08-27T05:05:24.099Z</time>
      </trkpt>
      <trkpt lat="47.8322" lon="6.89576">
        <ele>1090.5</ele>
        <time>2026-08-27T05:05:26.021Z</time>
      </trkpt>
      <trkpt lat="47.83221" lon="6.89578">
        <ele>1090.4</ele>
        <time>2026-08-27T05:05:27.029Z</time>
      </trkpt>
      <trkpt lat="47.83221" lon="6.89582">
        <ele>1090.5</ele>
        <time>2026-08-27T05:05:29.046Z</time>
      </trkpt>
      <trkpt lat="47.8322" lon="6.89584">
        <ele>1090.4</ele>
        <time>2026-08-27T05:05:30.054Z</time>
      </trkpt>
      <trkpt lat="47.8322" lon="6.89585">
        <ele>1090.3</ele>
        <time>2026-08-27T05:05:31.062Z</time>
      </trkpt>
      <trkpt lat="47.8322" lon="6.89587">
        <ele>1090.2</ele>
        <time>2026-08-27T05:05:32.070Z</time>
      </trkpt>
      <trkpt lat="47.8322" lon="6.8959">
        <ele>1090.2</ele>
        <time>2026-08-27T05:05:34.035Z</time>
      </trkpt>
      <trkpt lat="47.83221" lon="6.89593">
        <ele>1090.3</ele>
        <time>2026-08-27T05:05:36.002Z</time>
      </trkpt>
      <trkpt lat="47.83221" lon="6.89595">
        <ele>1090.3</ele>
        <time>2026-08-27T05:05:37.018Z</time>
      </trkpt>
      <trkpt lat="47.83221" lon="6.89597">
        <ele>1090.2</ele>
        <time>2026-08-27T05:05:39.025Z</time>
      </trkpt>
      <trkpt lat="47.83221" lon="6.89599">
        <ele>1089.9</ele>
        <time>2026-08-27T05:05:40.033Z</time>
      </trkpt>
      <trkpt lat="47.83221" lon="6.896">
        <ele>1089.7</ele>
        <time>2026-08-27T05:05:41.041Z</time>
      </trkpt>
      <trkpt lat="47.83221" lon="6.89601">
        <ele>1089.8</ele>
        <time>2026-08-27T05:05:42.049Z</time>
      </trkpt>
      <trkpt lat="47.83221" lon="6.89603">
        <ele>1089.9</ele>
        <time>2026-08-27T05:05:43.057Z</time>
      </trkpt>
      <trkpt lat="47.83221" lon="6.89604">
        <ele>1089.7</ele>
        <time>2026-08-27T05:05:44.065Z</time>
      </trkpt>
      <trkpt lat="47.83221" lon="6.89607">
        <ele>1089.5</ele>
        <time>2026-08-27T05:05:46.081Z</time>
      </trkpt>
      <trkpt lat="47.83221" lon="6.89611">
        <ele>1089.8</ele>
        <time>2026-08-27T05:05:47.938Z</time>
      </trkpt>
      <trkpt lat="47.83221" lon="6.89612">
        <ele>1089.5</ele>
        <time>2026-08-27T05:05:49.005Z</time>
      </trkpt>
      <trkpt lat="47.83221" lon="6.89615">
        <ele>1089.7</ele>
        <time>2026-08-27T05:05:51.021Z</time>
      </trkpt>
      <trkpt lat="47.83221" lon="6.89617">
        <ele>1089.9</ele>
        <time>2026-08-27T05:05:52.029Z</time>
      </trkpt>
      <trkpt lat="47.83221" lon="6.89618">
        <ele>1089.9</ele>
        <time>2026-08-27T05:05:53.037Z</time>
      </trkpt>
      <trkpt lat="47.83221" lon="6.89619">
        <ele>1089.5</ele>
        <time>2026-08-27T05:05:54.046Z</time>
      </trkpt>
      <trkpt lat="47.83221" lon="6.89621">
        <ele>1089.7</ele>
        <time>2026-08-27T05:05:55.054Z</time>
      </trkpt>
      <trkpt lat="47.83222" lon="6.89622">
        <ele>1089.7</ele>
        <time>2026-08-27T05:05:56.061Z</time>
      </trkpt>
      <trkpt lat="47.83222" lon="6.89624">
        <ele>1089.8</ele>
        <time>2026-08-27T05:05:57.069Z</time>
      </trkpt>
      <trkpt lat="47.83222" lon="6.89626">
        <ele>1089.8</ele>
        <time>2026-08-27T05:05:58.984Z</time>
      </trkpt>
      <trkpt lat="47.83222" lon="6.89627">
        <ele>1089.8</ele>
        <time>2026-08-27T05:06:00.093Z</time>
      </trkpt>
      <trkpt lat="47.83223" lon="6.8963">
        <ele>1089.8</ele>
        <time>2026-08-27T05:06:02.076Z</time>
      </trkpt>
      <trkpt lat="47.83223" lon="6.89633">
        <ele>1090.1</ele>
        <time>2026-08-27T05:06:04.025Z</time>
      </trkpt>
      <trkpt lat="47.83223" lon="6.89634">
        <ele>1090.2</ele>
        <time>2026-08-27T05:06:05.033Z</time>
      </trkpt>
      <trkpt lat="47.83223" lon="6.89635">
        <ele>1090.1</ele>
        <time>2026-08-27T05:06:06.042Z</time>
      </trkpt>
      <trkpt lat="47.83223" lon="6.89637">
        <ele>1090</ele>
        <time>2026-08-27T05:06:07.050Z</time>
      </trkpt>
      <trkpt lat="47.83224" lon="6.89637">
        <ele>1090</ele>
        <time>2026-08-27T05:06:08.057Z</time>
      </trkpt>
      <trkpt lat="47.83224" lon="6.89638">
        <ele>1090</ele>
        <time>2026-08-27T05:06:09.066Z</time>
      </trkpt>
      <trkpt lat="47.83225" lon="6.89639">
        <ele>1090.2</ele>
        <time>2026-08-27T05:06:10.073Z</time>
      </trkpt>
      <trkpt lat="47.83225" lon="6.8964">
        <ele>1090.1</ele>
        <time>2026-08-27T05:06:11.082Z</time>
      </trkpt>
      <trkpt lat="47.83225" lon="6.89641">
        <ele>1090.3</ele>
        <time>2026-08-27T05:06:13.013Z</time>
      </trkpt>
      <trkpt lat="47.83225" lon="6.89643">
        <ele>1090.5</ele>
        <time>2026-08-27T05:06:15.013Z</time>
      </trkpt>
      <trkpt lat="47.83225" lon="6.89644">
        <ele>1090.7</ele>
        <time>2026-08-27T05:06:16.021Z</time>
      </trkpt>
      <trkpt lat="47.83226" lon="6.89647">
        <ele>1090.8</ele>
        <time>2026-08-27T05:06:18.037Z</time>
      </trkpt>
      <trkpt lat="47.83226" lon="6.8965">
        <ele>1090.9</ele>
        <time>2026-08-27T05:06:20.053Z</time>
      </trkpt>
      <trkpt lat="47.83226" lon="6.89652">
        <ele>1091.1</ele>
        <time>2026-08-27T05:06:21.060Z</time>
      </trkpt>
      <trkpt lat="47.83226" lon="6.89654">
        <ele>1090.7</ele>
        <time>2026-08-27T05:06:22.069Z</time>
      </trkpt>
      <trkpt lat="47.83226" lon="6.89655">
        <ele>1090.6</ele>
        <time>2026-08-27T05:06:23.077Z</time>
      </trkpt>
      <trkpt lat="47.83226" lon="6.89657">
        <ele>1090.8</ele>
        <time>2026-08-27T05:06:24.086Z</time>
      </trkpt>
      <trkpt lat="47.83226" lon="6.8966">
        <ele>1090.9</ele>
        <time>2026-08-27T05:06:26.075Z</time>
      </trkpt>
      <trkpt lat="47.83226" lon="6.89662">
        <ele>1090.8</ele>
        <time>2026-08-27T05:06:28.100Z</time>
      </trkpt>
      <trkpt lat="47.83226" lon="6.89665">
        <ele>1090.6</ele>
        <time>2026-08-27T05:06:30.032Z</time>
      </trkpt>
      <trkpt lat="47.83227" lon="6.89666">
        <ele>1090.5</ele>
        <time>2026-08-27T05:06:31.040Z</time>
      </trkpt>
      <trkpt lat="47.83227" lon="6.89668">
        <ele>1090.7</ele>
        <time>2026-08-27T05:06:32.048Z</time>
      </trkpt>
      <trkpt lat="47.83227" lon="6.89669">
        <ele>1090.6</ele>
        <time>2026-08-27T05:06:33.057Z</time>
      </trkpt>
      <trkpt lat="47.83227" lon="6.8967">
        <ele>1090.9</ele>
        <time>2026-08-27T05:06:34.065Z</time>
      </trkpt>
      <trkpt lat="47.83228" lon="6.89673">
        <ele>1090.6</ele>
        <time>2026-08-27T05:06:36.080Z</time>
      </trkpt>
      <trkpt lat="47.83228" lon="6.89676">
        <ele>1090.4</ele>
        <time>2026-08-27T05:06:37.995Z</time>
      </trkpt>
      <trkpt lat="47.83228" lon="6.89678">
        <ele>1090.5</ele>
        <time>2026-08-27T05:06:39.003Z</time>
      </trkpt>
      <trkpt lat="47.83229" lon="6.8968">
        <ele>1090.5</ele>
        <time>2026-08-27T05:06:40.079Z</time>
      </trkpt>
      <trkpt lat="47.83229" lon="6.89683">
        <ele>1090.6</ele>
        <time>2026-08-27T05:06:42.029Z</time>
      </trkpt>
      <trkpt lat="47.83229" lon="6.89684">
        <ele>1090.6</ele>
        <time>2026-08-27T05:06:43.061Z</time>
      </trkpt>
      <trkpt lat="47.8323" lon="6.89687">
        <ele>1090.6</ele>
        <time>2026-08-27T05:06:45.053Z</time>
      </trkpt>
      <trkpt lat="47.8323" lon="6.89688">
        <ele>1090.7</ele>
        <time>2026-08-27T05:06:46.061Z</time>
      </trkpt>
      <trkpt lat="47.8323" lon="6.89689">
        <ele>1090.7</ele>
        <time>2026-08-27T05:06:47.068Z</time>
      </trkpt>
      <trkpt lat="47.83231" lon="6.89691">
        <ele>1090.8</ele>
        <time>2026-08-27T05:06:48.076Z</time>
      </trkpt>
      <trkpt lat="47.83232" lon="6.89693">
        <ele>1090.8</ele>
        <time>2026-08-27T05:06:49.991Z</time>
      </trkpt>
      <trkpt lat="47.83232" lon="6.89694">
        <ele>1090.8</ele>
        <time>2026-08-27T05:06:51.000Z</time>
      </trkpt>
      <trkpt lat="47.83232" lon="6.89696">
        <ele>1090.6</ele>
        <time>2026-08-27T05:06:52.007Z</time>
      </trkpt>
      <trkpt lat="47.83232" lon="6.89699">
        <ele>1090.8</ele>
        <time>2026-08-27T05:06:54.023Z</time>
      </trkpt>
      <trkpt lat="47.83232" lon="6.89702">
        <ele>1090.7</ele>
        <time>2026-08-27T05:06:56.039Z</time>
      </trkpt>
      <trkpt lat="47.83232" lon="6.89704">
        <ele>1090.6</ele>
        <time>2026-08-27T05:06:57.048Z</time>
      </trkpt>
      <trkpt lat="47.83233" lon="6.89705">
        <ele>1090.5</ele>
        <time>2026-08-27T05:06:58.056Z</time>
      </trkpt>
      <trkpt lat="47.83233" lon="6.89706">
        <ele>1090.4</ele>
        <time>2026-08-27T05:06:59.064Z</time>
      </trkpt>
      <trkpt lat="47.83234" lon="6.89708">
        <ele>1090.3</ele>
        <time>2026-08-27T05:07:00.071Z</time>
      </trkpt>
      <trkpt lat="47.83235" lon="6.89709">
        <ele>1090.6</ele>
        <time>2026-08-27T05:07:01.079Z</time>
      </trkpt>
      <trkpt lat="47.83236" lon="6.89711">
        <ele>1090.8</ele>
        <time>2026-08-27T05:07:03.070Z</time>
      </trkpt>
      <trkpt lat="47.83237" lon="6.89713">
        <ele>1090.8</ele>
        <time>2026-08-27T05:07:05.011Z</time>
      </trkpt>
      <trkpt lat="47.83238" lon="6.89714">
        <ele>1090.8</ele>
        <time>2026-08-27T05:07:06.019Z</time>
      </trkpt>
      <trkpt lat="47.8324" lon="6.89716">
        <ele>1090.7</ele>
        <time>2026-08-27T05:07:08.035Z</time>
      </trkpt>
      <trkpt lat="47.8324" lon="6.89716">
        <ele>1091</ele>
        <time>2026-08-27T05:07:09.043Z</time>
      </trkpt>
      <trkpt lat="47.83241" lon="6.89718">
        <ele>1091.1</ele>
        <time>2026-08-27T05:07:10.051Z</time>
      </trkpt>
      <trkpt lat="47.83242" lon="6.89719">
        <ele>1090.8</ele>
        <time>2026-08-27T05:07:11.059Z</time>
      </trkpt>
      <trkpt lat="47.83243" lon="6.8972">
        <ele>1090.7</ele>
        <time>2026-08-27T05:07:12.067Z</time>
      </trkpt>
      <trkpt lat="47.83243" lon="6.8972">
        <ele>1090.8</ele>
        <time>2026-08-27T05:07:13.075Z</time>
      </trkpt>
      <trkpt lat="47.83244" lon="6.89721">
        <ele>1091.1</ele>
        <time>2026-08-27T05:07:14.084Z</time>
      </trkpt>
      <trkpt lat="47.83246" lon="6.89722">
        <ele>1091.2</ele>
        <time>2026-08-27T05:07:15.999Z</time>
      </trkpt>
      <trkpt lat="47.83246" lon="6.89723">
        <ele>1091.7</ele>
        <time>2026-08-27T05:07:17.007Z</time>
      </trkpt>
      <trkpt lat="47.83247" lon="6.89724">
        <ele>1091.7</ele>
        <time>2026-08-27T05:07:18.048Z</time>
      </trkpt>
      <trkpt lat="47.83247" lon="6.89726">
        <ele>1091.6</ele>
        <time>2026-08-27T05:07:20.030Z</time>
      </trkpt>
      <trkpt lat="47.83248" lon="6.89728">
        <ele>1091.5</ele>
        <time>2026-08-27T05:07:21.038Z</time>
      </trkpt>
      <trkpt lat="47.83248" lon="6.89731">
        <ele>1091.8</ele>
        <time>2026-08-27T05:07:22.955Z</time>
      </trkpt>
      <trkpt lat="47.83249" lon="6.89733">
        <ele>1091.8</ele>
        <time>2026-08-27T05:07:23.962Z</time>
      </trkpt>
      <trkpt lat="47.8325" lon="6.89735">
        <ele>1091.7</ele>
        <time>2026-08-27T05:07:24.971Z</time>
      </trkpt>
      <trkpt lat="47.83252" lon="6.89737">
        <ele>1091.5</ele>
        <time>2026-08-27T05:07:26.986Z</time>
      </trkpt>
      <trkpt lat="47.83253" lon="6.89738">
        <ele>1091.5</ele>
        <time>2026-08-27T05:07:27.994Z</time>
      </trkpt>
      <trkpt lat="47.83254" lon="6.8974">
        <ele>1091.8</ele>
        <time>2026-08-27T05:07:29.002Z</time>
      </trkpt>
      <trkpt lat="47.83254" lon="6.8974">
        <ele>1091.8</ele>
        <time>2026-08-27T05:07:30.010Z</time>
      </trkpt>
      <trkpt lat="47.83257" lon="6.89741">
        <ele>1091.8</ele>
        <time>2026-08-27T05:07:32.026Z</time>
      </trkpt>
      <trkpt lat="47.83259" lon="6.89741">
        <ele>1091.9</ele>
        <time>2026-08-27T05:07:33.941Z</time>
      </trkpt>
      <trkpt lat="47.83261" lon="6.89741">
        <ele>1091.7</ele>
        <time>2026-08-27T05:07:34.950Z</time>
      </trkpt>
      <trkpt lat="47.83262" lon="6.89741">
        <ele>1091.7</ele>
        <time>2026-08-27T05:07:35.991Z</time>
      </trkpt>
      <trkpt lat="47.83264" lon="6.8974">
        <ele>1092.1</ele>
        <time>2026-08-27T05:07:37.973Z</time>
      </trkpt>
      <trkpt lat="47.83265" lon="6.8974">
        <ele>1092.1</ele>
        <time>2026-08-27T05:07:38.981Z</time>
      </trkpt>
      <trkpt lat="47.83266" lon="6.8974">
        <ele>1092.1</ele>
        <time>2026-08-27T05:07:39.989Z</time>
      </trkpt>
      <trkpt lat="47.83267" lon="6.8974">
        <ele>1091.6</ele>
        <time>2026-08-27T05:07:40.997Z</time>
      </trkpt>
      <trkpt lat="47.83268" lon="6.89739">
        <ele>1091.8</ele>
        <time>2026-08-27T05:07:42.006Z</time>
      </trkpt>
      <trkpt lat="47.83268" lon="6.89739">
        <ele>1091.9</ele>
        <time>2026-08-27T05:07:43.014Z</time>
      </trkpt>
      <trkpt lat="47.83269" lon="6.89738">
        <ele>1092.1</ele>
        <time>2026-08-27T05:07:44.023Z</time>
      </trkpt>
      <trkpt lat="47.8327" lon="6.89736">
        <ele>1092.3</ele>
        <time>2026-08-27T05:07:45.031Z</time>
      </trkpt>
      <trkpt lat="47.83272" lon="6.89735">
        <ele>1092.8</ele>
        <time>2026-08-27T05:07:46.945Z</time>
      </trkpt>
      <trkpt lat="47.83274" lon="6.89734">
        <ele>1092.6</ele>
        <time>2026-08-27T05:07:47.954Z</time>
      </trkpt>
      <trkpt lat="47.83275" lon="6.89733">
        <ele>1092.7</ele>
        <time>2026-08-27T05:07:48.961Z</time>
      </trkpt>
      <trkpt lat="47.83278" lon="6.89734">
        <ele>1092.9</ele>
        <time>2026-08-27T05:07:50.978Z</time>
      </trkpt>
      <trkpt lat="47.83278" lon="6.89734">
        <ele>1093.2</ele>
        <time>2026-08-27T05:07:51.986Z</time>
      </trkpt>
      <trkpt lat="47.83279" lon="6.89734">
        <ele>1093.4</ele>
        <time>2026-08-27T05:07:52.994Z</time>
      </trkpt>
      <trkpt lat="47.8328" lon="6.89734">
        <ele>1093.1</ele>
        <time>2026-08-27T05:07:54.001Z</time>
      </trkpt>
      <trkpt lat="47.83281" lon="6.89734">
        <ele>1093.1</ele>
        <time>2026-08-27T05:07:55.010Z</time>
      </trkpt>
      <trkpt lat="47.83282" lon="6.89734">
        <ele>1092.8</ele>
        <time>2026-08-27T05:07:56.017Z</time>
      </trkpt>
      <trkpt lat="47.83284" lon="6.89733">
        <ele>1093.1</ele>
        <time>2026-08-27T05:07:57.932Z</time>
      </trkpt>
      <trkpt lat="47.83286" lon="6.89732">
        <ele>1092.9</ele>
        <time>2026-08-27T05:07:58.940Z</time>
      </trkpt>
      <trkpt lat="47.83287" lon="6.89731">
        <ele>1092.9</ele>
        <time>2026-08-27T05:07:59.949Z</time>
      </trkpt>
      <trkpt lat="47.83288" lon="6.89731">
        <ele>1092.9</ele>
        <time>2026-08-27T05:08:01.008Z</time>
      </trkpt>
      <trkpt lat="47.83289" lon="6.8973">
        <ele>1092.6</ele>
        <time>2026-08-27T05:08:02.972Z</time>
      </trkpt>
      <trkpt lat="47.8329" lon="6.8973">
        <ele>1092.4</ele>
        <time>2026-08-27T05:08:03.980Z</time>
      </trkpt>
      <trkpt lat="47.83291" lon="6.89729">
        <ele>1092.8</ele>
        <time>2026-08-27T05:08:04.988Z</time>
      </trkpt>
      <trkpt lat="47.83292" lon="6.89728">
        <ele>1092.4</ele>
        <time>2026-08-27T05:08:05.996Z</time>
      </trkpt>
      <trkpt lat="47.83293" lon="6.89728">
        <ele>1093.3</ele>
        <time>2026-08-27T05:08:07.005Z</time>
      </trkpt>
      <trkpt lat="47.83294" lon="6.89727">
        <ele>1093.2</ele>
        <time>2026-08-27T05:08:08.013Z</time>
      </trkpt>
      <trkpt lat="47.83295" lon="6.89725">
        <ele>1093.2</ele>
        <time>2026-08-27T05:08:10.030Z</time>
      </trkpt>
      <trkpt lat="47.83296" lon="6.89725">
        <ele>1093.3</ele>
        <time>2026-08-27T05:08:11.038Z</time>
      </trkpt>
      <trkpt lat="47.83296" lon="6.89725">
        <ele>1093.5</ele>
        <time>2026-08-27T05:08:12.953Z</time>
      </trkpt>
      <trkpt lat="47.83296" lon="6.89726">
        <ele>1093.9</ele>
        <time>2026-08-27T05:08:13.960Z</time>
      </trkpt>
      <trkpt lat="47.83296" lon="6.89727">
        <ele>1093.9</ele>
        <time>2026-08-27T05:08:14.986Z</time>
      </trkpt>
      <trkpt lat="47.83298" lon="6.89729">
        <ele>1093.9</ele>
        <time>2026-08-27T05:08:16.925Z</time>
      </trkpt>
      <trkpt lat="47.83299" lon="6.8973">
        <ele>1094.5</ele>
        <time>2026-08-27T05:08:17.992Z</time>
      </trkpt>
      <trkpt lat="47.833" lon="6.89731">
        <ele>1094.6</ele>
        <time>2026-08-27T05:08:19.001Z</time>
      </trkpt>
      <trkpt lat="47.83301" lon="6.89733">
        <ele>1094.1</ele>
        <time>2026-08-27T05:08:20.009Z</time>
      </trkpt>
      <trkpt lat="47.83303" lon="6.89734">
        <ele>1094.3</ele>
        <time>2026-08-27T05:08:22.024Z</time>
      </trkpt>
      <trkpt lat="47.83303" lon="6.89735">
        <ele>1094.4</ele>
        <time>2026-08-27T05:08:23.033Z</time>
      </trkpt>
      <trkpt lat="47.83305" lon="6.89737">
        <ele>1094.2</ele>
        <time>2026-08-27T05:08:24.948Z</time>
      </trkpt>
      <trkpt lat="47.83305" lon="6.89737">
        <ele>1094.2</ele>
        <time>2026-08-27T05:08:25.955Z</time>
      </trkpt>
      <trkpt lat="47.83306" lon="6.89737">
        <ele>1094.2</ele>
        <time>2026-08-27T05:08:26.990Z</time>
      </trkpt>
      <trkpt lat="47.83308" lon="6.89738">
        <ele>1093.6</ele>
        <time>2026-08-27T05:08:28.979Z</time>
      </trkpt>
      <trkpt lat="47.83309" lon="6.89739">
        <ele>1093.7</ele>
        <time>2026-08-27T05:08:29.987Z</time>
      </trkpt>
      <trkpt lat="47.8331" lon="6.8974">
        <ele>1093.5</ele>
        <time>2026-08-27T05:08:30.995Z</time>
      </trkpt>
      <trkpt lat="47.8331" lon="6.89741">
        <ele>1093.7</ele>
        <time>2026-08-27T05:08:32.004Z</time>
      </trkpt>
      <trkpt lat="47.83311" lon="6.89742">
        <ele>1093.9</ele>
        <time>2026-08-27T05:08:33.012Z</time>
      </trkpt>
      <trkpt lat="47.83312" lon="6.89743">
        <ele>1093</ele>
        <time>2026-08-27T05:08:34.020Z</time>
      </trkpt>
      <trkpt lat="47.83314" lon="6.89745">
        <ele>1093.2</ele>
        <time>2026-08-27T05:08:36.028Z</time>
      </trkpt>
      <trkpt lat="47.83315" lon="6.89746">
        <ele>1093.9</ele>
        <time>2026-08-27T05:08:37.044Z</time>
      </trkpt>
      <trkpt lat="47.83316" lon="6.89746">
        <ele>1093.6</ele>
        <time>2026-08-27T05:08:38.959Z</time>
      </trkpt>
      <trkpt lat="47.83317" lon="6.89746">
        <ele>1093.6</ele>
        <time>2026-08-27T05:08:40.068Z</time>
      </trkpt>
      <trkpt lat="47.83318" lon="6.89747">
        <ele>1093.7</ele>
        <time>2026-08-27T05:08:41.907Z</time>
      </trkpt>
      <trkpt lat="47.83319" lon="6.89748">
        <ele>1094.4</ele>
        <time>2026-08-27T05:08:42.991Z</time>
      </trkpt>
      <trkpt lat="47.8332" lon="6.89748">
        <ele>1094.5</ele>
        <time>2026-08-27T05:08:44.000Z</time>
      </trkpt>
      <trkpt lat="47.83323" lon="6.8975">
        <ele>1094.9</ele>
        <time>2026-08-27T05:08:45.990Z</time>
      </trkpt>
      <trkpt lat="47.83325" lon="6.89751">
        <ele>1095.3</ele>
        <time>2026-08-27T05:08:47.023Z</time>
      </trkpt>
      <trkpt lat="47.83326" lon="6.89752">
        <ele>1095.5</ele>
        <time>2026-08-27T05:08:48.031Z</time>
      </trkpt>
      <trkpt lat="47.83328" lon="6.89753">
        <ele>1095.9</ele>
        <time>2026-08-27T05:08:49.946Z</time>
      </trkpt>
      <trkpt lat="47.83329" lon="6.89754">
        <ele>1095.7</ele>
        <time>2026-08-27T05:08:50.954Z</time>
      </trkpt>
      <trkpt lat="47.8333" lon="6.89755">
        <ele>1095.7</ele>
        <time>2026-08-27T05:08:52.088Z</time>
      </trkpt>
      <trkpt lat="47.8333" lon="6.89755">
        <ele>1096.2</ele>
        <time>2026-08-27T05:08:53.627Z</time>
      </trkpt>
      <trkpt lat="47.8333" lon="6.89755">
        <ele>1096</ele>
        <time>2026-08-27T05:08:54.986Z</time>
      </trkpt>
      <trkpt lat="47.83331" lon="6.89755">
        <ele>1096</ele>
        <time>2026-08-27T05:08:55.994Z</time>
      </trkpt>
      <trkpt lat="47.83333" lon="6.89755">
        <ele>1096.4</ele>
        <time>2026-08-27T05:08:58.010Z</time>
      </trkpt>
      <trkpt lat="47.83335" lon="6.89753">
        <ele>1096.6</ele>
        <time>2026-08-27T05:09:00.026Z</time>
      </trkpt>
      <trkpt lat="47.83337" lon="6.89753">
        <ele>1096.6</ele>
        <time>2026-08-27T05:09:01.086Z</time>
      </trkpt>
      <trkpt lat="47.83339" lon="6.89752">
        <ele>1097.3</ele>
        <time>2026-08-27T05:09:03.050Z</time>
      </trkpt>
      <trkpt lat="47.83339" lon="6.89752">
        <ele>1097.3</ele>
        <time>2026-08-27T05:09:04.050Z</time>
      </trkpt>
      <trkpt lat="47.8334" lon="6.89751">
        <ele>1097</ele>
        <time>2026-08-27T05:09:05.974Z</time>
      </trkpt>
      <trkpt lat="47.83341" lon="6.89752">
        <ele>1097.3</ele>
        <time>2026-08-27T05:09:07.991Z</time>
      </trkpt>
      <trkpt lat="47.83342" lon="6.89753">
        <ele>1097.3</ele>
        <time>2026-08-27T05:09:09.031Z</time>
      </trkpt>
      <trkpt lat="47.83343" lon="6.89754">
        <ele>1097</ele>
        <time>2026-08-27T05:09:10.989Z</time>
      </trkpt>
      <trkpt lat="47.83344" lon="6.89754">
        <ele>1097.8</ele>
        <time>2026-08-27T05:09:12.023Z</time>
      </trkpt>
      <trkpt lat="47.83345" lon="6.89754">
        <ele>1098.1</ele>
        <time>2026-08-27T05:09:13.031Z</time>
      </trkpt>
      <trkpt lat="47.83346" lon="6.89753">
        <ele>1098.6</ele>
        <time>2026-08-27T05:09:14.945Z</time>
      </trkpt>
      <trkpt lat="47.83347" lon="6.89752">
        <ele>1098.6</ele>
        <time>2026-08-27T05:09:15.988Z</time>
      </trkpt>
      <trkpt lat="47.83348" lon="6.89752">
        <ele>1100.3</ele>
        <time>2026-08-27T05:09:17.969Z</time>
      </trkpt>
      <trkpt lat="47.83349" lon="6.89752">
        <ele>1100.3</ele>
        <time>2026-08-27T05:09:18.977Z</time>
      </trkpt>
      <trkpt lat="47.83349" lon="6.89752">
        <ele>1099.6</ele>
        <time>2026-08-27T05:09:19.985Z</time>
      </trkpt>
      <trkpt lat="47.83349" lon="6.89751">
        <ele>1099.7</ele>
        <time>2026-08-27T05:09:20.993Z</time>
      </trkpt>
      <trkpt lat="47.83349" lon="6.89751">
        <ele>1099.7</ele>
        <time>2026-08-27T05:09:22.027Z</time>
      </trkpt>
      <trkpt lat="47.8335" lon="6.89751">
        <ele>1100.6</ele>
        <time>2026-08-27T05:09:24.017Z</time>
      </trkpt>
      <trkpt lat="47.83351" lon="6.89751">
        <ele>1100.7</ele>
        <time>2026-08-27T05:09:25.025Z</time>
      </trkpt>
      <trkpt lat="47.83352" lon="6.89751">
        <ele>1100.4</ele>
        <time>2026-08-27T05:09:26.941Z</time>
      </trkpt>
      <trkpt lat="47.83353" lon="6.89751">
        <ele>1100.5</ele>
        <time>2026-08-27T05:09:27.949Z</time>
      </trkpt>
      <trkpt lat="47.83353" lon="6.89751">
        <ele>1100.2</ele>
        <time>2026-08-27T05:09:28.957Z</time>
      </trkpt>
      <trkpt lat="47.83353" lon="6.89751">
        <ele>1100.9</ele>
        <time>2026-08-27T05:09:29.966Z</time>
      </trkpt>
      <trkpt lat="47.83353" lon="6.89751">
        <ele>1100.8</ele>
        <time>2026-08-27T05:09:30.974Z</time>
      </trkpt>
      <trkpt lat="47.83353" lon="6.89751">
        <ele>1100.5</ele>
        <time>2026-08-27T05:09:31.982Z</time>
      </trkpt>
      <trkpt lat="47.83353" lon="6.89751">
        <ele>1100.5</ele>
        <time>2026-08-27T05:09:32.989Z</time>
      </trkpt>
      <trkpt lat="47.83353" lon="6.89751">
        <ele>1100.1</ele>
        <time>2026-08-27T05:09:33.997Z</time>
      </trkpt>
      <trkpt lat="47.83353" lon="6.89751">
        <ele>1100</ele>
        <time>2026-08-27T05:09:35.005Z</time>
      </trkpt>
      <trkpt lat="47.83353" lon="6.89751">
        <ele>1100.2</ele>
        <time>2026-08-27T05:09:36.920Z</time>
      </trkpt>
      <trkpt lat="47.83353" lon="6.8975">
        <ele>1101.1</ele>
        <time>2026-08-27T05:09:37.929Z</time>
      </trkpt>
      <trkpt lat="47.83353" lon="6.8975">
        <ele>1100.7</ele>
        <time>2026-08-27T05:09:38.936Z</time>
      </trkpt>
      <trkpt lat="47.83354" lon="6.8975">
        <ele>1100.6</ele>
        <time>2026-08-27T05:09:39.945Z</time>
      </trkpt>
      <trkpt lat="47.83354" lon="6.8975">
        <ele>1100.6</ele>
        <time>2026-08-27T05:09:40.952Z</time>
      </trkpt>
      <trkpt lat="47.83354" lon="6.8975">
        <ele>1101.7</ele>
        <time>2026-08-27T05:09:41.960Z</time>
      </trkpt>
      <trkpt lat="47.83354" lon="6.8975">
        <ele>1102.1</ele>
        <time>2026-08-27T05:09:42.968Z</time>
      </trkpt>
      <trkpt lat="47.83354" lon="6.8975">
        <ele>1102.1</ele>
        <time>2026-08-27T05:09:43.977Z</time>
      </trkpt>
      <trkpt lat="47.83354" lon="6.89749">
        <ele>1102.4</ele>
        <time>2026-08-27T05:09:44.985Z</time>
      </trkpt>
      <trkpt lat="47.83354" lon="6.89749">
        <ele>1102.5</ele>
        <time>2026-08-27T05:09:45.992Z</time>
      </trkpt>
      <trkpt lat="47.83354" lon="6.89749">
        <ele>1102.1</ele>
        <time>2026-08-27T05:09:47.907Z</time>
      </trkpt>
      <trkpt lat="47.83354" lon="6.89749">
        <ele>1102.2</ele>
        <time>2026-08-27T05:09:48.915Z</time>
      </trkpt>
      <trkpt lat="47.83354" lon="6.89748">
        <ele>1101.9</ele>
        <time>2026-08-27T05:09:49.924Z</time>
      </trkpt>
      <trkpt lat="47.83354" lon="6.89748">
        <ele>1101.7</ele>
        <time>2026-08-27T05:09:50.933Z</time>
      </trkpt>
      <trkpt lat="47.83355" lon="6.89748">
        <ele>1101.8</ele>
        <time>2026-08-27T05:09:51.940Z</time>
      </trkpt>
      <trkpt lat="47.83355" lon="6.89748">
        <ele>1101.8</ele>
        <time>2026-08-27T05:09:52.948Z</time>
      </trkpt>
      <trkpt lat="47.83355" lon="6.89748">
        <ele>1101.8</ele>
        <time>2026-08-27T05:09:53.956Z</time>
      </trkpt>
      <trkpt lat="47.83355" lon="6.89748">
        <ele>1101.6</ele>
        <time>2026-08-27T05:09:54.964Z</time>
      </trkpt>
      <trkpt lat="47.83355" lon="6.89748">
        <ele>1101.3</ele>
        <time>2026-08-27T05:09:55.972Z</time>
      </trkpt>
      <trkpt lat="47.83355" lon="6.89748">
        <ele>1101.4</ele>
        <time>2026-08-27T05:09:56.981Z</time>
      </trkpt>
      <trkpt lat="47.83355" lon="6.89748">
        <ele>1101.7</ele>
        <time>2026-08-27T05:09:57.988Z</time>
      </trkpt>
      <trkpt lat="47.83355" lon="6.89748">
        <ele>1101.9</ele>
        <time>2026-08-27T05:09:58.997Z</time>
      </trkpt>
      <trkpt lat="47.83355" lon="6.89748">
        <ele>1101.7</ele>
        <time>2026-08-27T05:10:00.938Z</time>
      </trkpt>
      <trkpt lat="47.83355" lon="6.89748">
        <ele>1101.4</ele>
        <time>2026-08-27T05:10:02.021Z</time>
      </trkpt>
      <trkpt lat="47.83355" lon="6.89748">
        <ele>1101.1</ele>
        <time>2026-08-27T05:10:03.030Z</time>
      </trkpt>
      <trkpt lat="47.83355" lon="6.89748">
        <ele>1100.8</ele>
        <time>2026-08-27T05:10:04.037Z</time>
      </trkpt>
      <trkpt lat="47.83355" lon="6.89748">
        <ele>1101.6</ele>
        <time>2026-08-27T05:10:05.046Z</time>
      </trkpt>
      <trkpt lat="47.83355" lon="6.89748">
        <ele>1100.7</ele>
        <time>2026-08-27T05:10:06.053Z</time>
      </trkpt>
      <trkpt lat="47.83355" lon="6.89748">
        <ele>1101.7</ele>
        <time>2026-08-27T05:10:07.061Z</time>
      </trkpt>
      <trkpt lat="47.83355" lon="6.89748">
        <ele>1102.2</ele>
        <time>2026-08-27T05:10:09.077Z</time>
      </trkpt>
      <trkpt lat="47.83355" lon="6.89748">
        <ele>1102.4</ele>
        <time>2026-08-27T05:10:10.994Z</time>
      </trkpt>
      <trkpt lat="47.83355" lon="6.89748">
        <ele>1102.3</ele>
        <time>2026-08-27T05:10:12.001Z</time>
      </trkpt>
      <trkpt lat="47.83355" lon="6.89748">
        <ele>1102.3</ele>
        <time>2026-08-27T05:10:13.009Z</time>
      </trkpt>
      <trkpt lat="47.83355" lon="6.89748">
        <ele>1102.8</ele>
        <time>2026-08-27T05:10:14.018Z</time>
      </trkpt>
      <trkpt lat="47.83355" lon="6.89748">
        <ele>1102.8</ele>
        <time>2026-08-27T05:10:15.025Z</time>
      </trkpt>
      <trkpt lat="47.83355" lon="6.89748">
        <ele>1102.8</ele>
        <time>2026-08-27T05:10:16.033Z</time>
      </trkpt>
      <trkpt lat="47.83355" lon="6.89748">
        <ele>1102.9</ele>
        <time>2026-08-27T05:10:17.042Z</time>
      </trkpt>
      <trkpt lat="47.83355" lon="6.89748">
        <ele>1102.9</ele>
        <time>2026-08-27T05:10:18.050Z</time>
      </trkpt>
      <trkpt lat="47.83355" lon="6.89748">
        <ele>1102.8</ele>
        <time>2026-08-27T05:10:19.058Z</time>
      </trkpt>
      <trkpt lat="47.83355" lon="6.89748">
        <ele>1102.5</ele>
        <time>2026-08-27T05:10:20.974Z</time>
      </trkpt>
      <trkpt lat="47.83355" lon="6.89748">
        <ele>1102.3</ele>
        <time>2026-08-27T05:10:21.981Z</time>
      </trkpt>
      <trkpt lat="47.83355" lon="6.89748">
        <ele>1101.9</ele>
        <time>2026-08-27T05:10:22.989Z</time>
      </trkpt>
      <trkpt lat="47.83355" lon="6.89748">
        <ele>1101.8</ele>
        <time>2026-08-27T05:10:23.998Z</time>
      </trkpt>
      <trkpt lat="47.83355" lon="6.89748">
        <ele>1101.7</ele>
        <time>2026-08-27T05:10:25.006Z</time>
      </trkpt>
      <trkpt lat="47.83355" lon="6.89748">
        <ele>1101.8</ele>
        <time>2026-08-27T05:10:26.015Z</time>
      </trkpt>
      <trkpt lat="47.83355" lon="6.89748">
        <ele>1102.2</ele>
        <time>2026-08-27T05:10:27.022Z</time>
      </trkpt>
      <trkpt lat="47.83355" lon="6.89748">
        <ele>1102.5</ele>
        <time>2026-08-27T05:10:28.030Z</time>
      </trkpt>
      <trkpt lat="47.83355" lon="6.89748">
        <ele>1102.6</ele>
        <time>2026-08-27T05:10:29.038Z</time>
      </trkpt>
      <trkpt lat="47.83355" lon="6.89748">
        <ele>1102.1</ele>
        <time>2026-08-27T05:10:30.046Z</time>
      </trkpt>
      <trkpt lat="47.83355" lon="6.89748">
        <ele>1102.5</ele>
        <time>2026-08-27T05:10:31.054Z</time>
      </trkpt>
      <trkpt lat="47.83355" lon="6.89748">
        <ele>1102.7</ele>
        <time>2026-08-27T05:10:32.971Z</time>
      </trkpt>
      <trkpt lat="47.83355" lon="6.89748">
        <ele>1101.8</ele>
        <time>2026-08-27T05:10:33.978Z</time>
      </trkpt>
      <trkpt lat="47.83355" lon="6.89748">
        <ele>1102.5</ele>
        <time>2026-08-27T05:10:34.987Z</time>
      </trkpt>
      <trkpt lat="47.83355" lon="6.89748">
        <ele>1102.2</ele>
        <time>2026-08-27T05:10:35.995Z</time>
      </trkpt>
      <trkpt lat="47.83355" lon="6.89748">
        <ele>1102.1</ele>
        <time>2026-08-27T05:10:37.002Z</time>
      </trkpt>
      <trkpt lat="47.83355" lon="6.89748">
        <ele>1102.4</ele>
        <time>2026-08-27T05:10:38.011Z</time>
      </trkpt>
      <trkpt lat="47.83355" lon="6.89748">
        <ele>1102.5</ele>
        <time>2026-08-27T05:10:39.019Z</time>
      </trkpt>
      <trkpt lat="47.83355" lon="6.89748">
        <ele>1102.5</ele>
        <time>2026-08-27T05:10:40.027Z</time>
      </trkpt>
      <trkpt lat="47.83355" lon="6.89748">
        <ele>1102.6</ele>
        <time>2026-08-27T05:10:41.035Z</time>
      </trkpt>
      <trkpt lat="47.83355" lon="6.89748">
        <ele>1103.1</ele>
        <time>2026-08-27T05:10:42.044Z</time>
      </trkpt>
      <trkpt lat="47.83356" lon="6.89748">
        <ele>1103.1</ele>
        <time>2026-08-27T05:10:44.059Z</time>
      </trkpt>
      <trkpt lat="47.83357" lon="6.89748">
        <ele>1103.3</ele>
        <time>2026-08-27T05:10:45.067Z</time>
      </trkpt>
      <trkpt lat="47.83358" lon="6.89749">
        <ele>1103.5</ele>
        <time>2026-08-27T05:10:46.076Z</time>
      </trkpt>
      <trkpt lat="47.8336" lon="6.8975">
        <ele>1103.4</ele>
        <time>2026-08-27T05:10:47.991Z</time>
      </trkpt>
      <trkpt lat="47.83362" lon="6.8975">
        <ele>1103.5</ele>
        <time>2026-08-27T05:10:49.100Z</time>
      </trkpt>
      <trkpt lat="47.83363" lon="6.8975">
        <ele>1103.8</ele>
        <time>2026-08-27T05:10:51.019Z</time>
      </trkpt>
      <trkpt lat="47.83364" lon="6.89751">
        <ele>1103.9</ele>
        <time>2026-08-27T05:10:52.032Z</time>
      </trkpt>
      <trkpt lat="47.83365" lon="6.89751">
        <ele>1103.4</ele>
        <time>2026-08-27T05:10:53.040Z</time>
      </trkpt>
      <trkpt lat="47.83366" lon="6.89751">
        <ele>1103.4</ele>
        <time>2026-08-27T05:10:54.048Z</time>
      </trkpt>
      <trkpt lat="47.83367" lon="6.89751">
        <ele>1103.6</ele>
        <time>2026-08-27T05:10:55.056Z</time>
      </trkpt>
      <trkpt lat="47.83368" lon="6.89751">
        <ele>1104</ele>
        <time>2026-08-27T05:10:56.064Z</time>
      </trkpt>
      <trkpt lat="47.83369" lon="6.89752">
        <ele>1104.5</ele>
        <time>2026-08-27T05:10:57.073Z</time>
      </trkpt>
      <trkpt lat="47.8337" lon="6.89753">
        <ele>1104.2</ele>
        <time>2026-08-27T05:10:58.987Z</time>
      </trkpt>
      <trkpt lat="47.83371" lon="6.89753">
        <ele>1104.2</ele>
        <time>2026-08-27T05:11:00.030Z</time>
      </trkpt>
      <trkpt lat="47.83373" lon="6.89753">
        <ele>1104.3</ele>
        <time>2026-08-27T05:11:02.013Z</time>
      </trkpt>
      <trkpt lat="47.83373" lon="6.89753">
        <ele>1104.3</ele>
        <time>2026-08-27T05:11:03.021Z</time>
      </trkpt>
      <trkpt lat="47.83374" lon="6.89754">
        <ele>1105.1</ele>
        <time>2026-08-27T05:11:04.028Z</time>
      </trkpt>
      <trkpt lat="47.83374" lon="6.89754">
        <ele>1104.8</ele>
        <time>2026-08-27T05:11:05.036Z</time>
      </trkpt>
      <trkpt lat="47.83375" lon="6.89754">
        <ele>1104.9</ele>
        <time>2026-08-27T05:11:06.044Z</time>
      </trkpt>
      <trkpt lat="47.83376" lon="6.89754">
        <ele>1105.3</ele>
        <time>2026-08-27T05:11:07.053Z</time>
      </trkpt>
      <trkpt lat="47.83377" lon="6.89754">
        <ele>1105.3</ele>
        <time>2026-08-27T05:11:08.070Z</time>
      </trkpt>
      <trkpt lat="47.83378" lon="6.89755">
        <ele>1105.8</ele>
        <time>2026-08-27T05:11:10.077Z</time>
      </trkpt>
      <trkpt lat="47.8338" lon="6.89756">
        <ele>1106.6</ele>
        <time>2026-08-27T05:11:12.109Z</time>
      </trkpt>
      <trkpt lat="47.83381" lon="6.89756">
        <ele>1107</ele>
        <time>2026-08-27T05:11:13.428Z</time>
      </trkpt>
      <trkpt lat="47.83382" lon="6.89757">
        <ele>1107</ele>
        <time>2026-08-27T05:11:14.671Z</time>
      </trkpt>
      <trkpt lat="47.83383" lon="6.89757">
        <ele>1107.3</ele>
        <time>2026-08-27T05:11:16.007Z</time>
      </trkpt>
      <trkpt lat="47.83384" lon="6.89757">
        <ele>1107.2</ele>
        <time>2026-08-27T05:11:17.032Z</time>
      </trkpt>
      <trkpt lat="47.83385" lon="6.89757">
        <ele>1107.2</ele>
        <time>2026-08-27T05:11:18.032Z</time>
      </trkpt>
      <trkpt lat="47.83386" lon="6.89758">
        <ele>1107.3</ele>
        <time>2026-08-27T05:11:19.048Z</time>
      </trkpt>
      <trkpt lat="47.83386" lon="6.89758">
        <ele>1107.4</ele>
        <time>2026-08-27T05:11:20.056Z</time>
      </trkpt>
      <trkpt lat="47.83388" lon="6.89759">
        <ele>1106.9</ele>
        <time>2026-08-27T05:11:21.971Z</time>
      </trkpt>
      <trkpt lat="47.83389" lon="6.8976">
        <ele>1106.9</ele>
        <time>2026-08-27T05:11:23.987Z</time>
      </trkpt>
      <trkpt lat="47.8339" lon="6.89761">
        <ele>1108</ele>
        <time>2026-08-27T05:11:26.004Z</time>
      </trkpt>
      <trkpt lat="47.83391" lon="6.89761">
        <ele>1108</ele>
        <time>2026-08-27T05:11:27.012Z</time>
      </trkpt>
      <trkpt lat="47.83391" lon="6.89762">
        <ele>1107.8</ele>
        <time>2026-08-27T05:11:28.021Z</time>
      </trkpt>
      <trkpt lat="47.83392" lon="6.89763">
        <ele>1107.3</ele>
        <time>2026-08-27T05:11:29.028Z</time>
      </trkpt>
      <trkpt lat="47.83392" lon="6.89763">
        <ele>1106.8</ele>
        <time>2026-08-27T05:11:30.036Z</time>
      </trkpt>
      <trkpt lat="47.83392" lon="6.89763">
        <ele>1107.1</ele>
        <time>2026-08-27T05:11:31.045Z</time>
      </trkpt>
      <trkpt lat="47.83394" lon="6.89763">
        <ele>1107</ele>
        <time>2026-08-27T05:11:33.060Z</time>
      </trkpt>
      <trkpt lat="47.83394" lon="6.89764">
        <ele>1108.1</ele>
        <time>2026-08-27T05:11:34.068Z</time>
      </trkpt>
      <trkpt lat="47.83395" lon="6.89764">
        <ele>1108.1</ele>
        <time>2026-08-27T05:11:35.110Z</time>
      </trkpt>
      <trkpt lat="47.83397" lon="6.89764">
        <ele>1109.1</ele>
        <time>2026-08-27T05:11:36.991Z</time>
      </trkpt>
      <trkpt lat="47.83398" lon="6.89764">
        <ele>1109.4</ele>
        <time>2026-08-27T05:11:37.999Z</time>
      </trkpt>
      <trkpt lat="47.83399" lon="6.89765">
        <ele>1110.2</ele>
        <time>2026-08-27T05:11:40.015Z</time>
      </trkpt>
      <trkpt lat="47.834" lon="6.89765">
        <ele>1110.4</ele>
        <time>2026-08-27T05:11:41.024Z</time>
      </trkpt>
      <trkpt lat="47.83402" lon="6.89766">
        <ele>1110.7</ele>
        <time>2026-08-27T05:11:43.039Z</time>
      </trkpt>
      <trkpt lat="47.83402" lon="6.89766">
        <ele>1111.1</ele>
        <time>2026-08-27T05:11:44.048Z</time>
      </trkpt>
      <trkpt lat="47.83403" lon="6.89767">
        <ele>1110.9</ele>
        <time>2026-08-27T05:11:45.056Z</time>
      </trkpt>
      <trkpt lat="47.83404" lon="6.89767">
        <ele>1110.8</ele>
        <time>2026-08-27T05:11:46.065Z</time>
      </trkpt>
      <trkpt lat="47.83404" lon="6.89767">
        <ele>1110.7</ele>
        <time>2026-08-27T05:11:47.072Z</time>
      </trkpt>
      <trkpt lat="47.83405" lon="6.89768">
        <ele>1110.8</ele>
        <time>2026-08-27T05:11:48.080Z</time>
      </trkpt>
      <trkpt lat="47.83406" lon="6.89769">
        <ele>1110.6</ele>
        <time>2026-08-27T05:11:50.097Z</time>
      </trkpt>
      <trkpt lat="47.83407" lon="6.8977">
        <ele>1110.5</ele>
        <time>2026-08-27T05:11:51.995Z</time>
      </trkpt>
      <trkpt lat="47.83408" lon="6.8977">
        <ele>1110.6</ele>
        <time>2026-08-27T05:11:53.019Z</time>
      </trkpt>
      <trkpt lat="47.8341" lon="6.89771">
        <ele>1110.8</ele>
        <time>2026-08-27T05:11:55.035Z</time>
      </trkpt>
      <trkpt lat="47.83411" lon="6.89772">
        <ele>1110.7</ele>
        <time>2026-08-27T05:11:56.043Z</time>
      </trkpt>
      <trkpt lat="47.83411" lon="6.89772">
        <ele>1110.5</ele>
        <time>2026-08-27T05:11:57.052Z</time>
      </trkpt>
      <trkpt lat="47.83412" lon="6.89773">
        <ele>1110.7</ele>
        <time>2026-08-27T05:11:58.060Z</time>
      </trkpt>
      <trkpt lat="47.83413" lon="6.89773">
        <ele>1110.2</ele>
        <time>2026-08-27T05:11:59.067Z</time>
      </trkpt>
      <trkpt lat="47.83414" lon="6.89773">
        <ele>1110.2</ele>
        <time>2026-08-27T05:12:00.075Z</time>
      </trkpt>
      <trkpt lat="47.83415" lon="6.89773">
        <ele>1110.6</ele>
        <time>2026-08-27T05:12:02.092Z</time>
      </trkpt>
      <trkpt lat="47.83416" lon="6.89774">
        <ele>1110.9</ele>
        <time>2026-08-27T05:12:04.008Z</time>
      </trkpt>
      <trkpt lat="47.83417" lon="6.89774">
        <ele>1110.9</ele>
        <time>2026-08-27T05:12:05.016Z</time>
      </trkpt>
      <trkpt lat="47.83418" lon="6.89775">
        <ele>1112.2</ele>
        <time>2026-08-27T05:12:07.031Z</time>
      </trkpt>
      <trkpt lat="47.83419" lon="6.89776">
        <ele>1113.1</ele>
        <time>2026-08-27T05:12:08.039Z</time>
      </trkpt>
      <trkpt lat="47.8342" lon="6.89777">
        <ele>1113.7</ele>
        <time>2026-08-27T05:12:09.047Z</time>
      </trkpt>
      <trkpt lat="47.8342" lon="6.89777">
        <ele>1113.6</ele>
        <time>2026-08-27T05:12:10.055Z</time>
      </trkpt>
      <trkpt lat="47.83421" lon="6.89777">
        <ele>1113.8</ele>
        <time>2026-08-27T05:12:11.064Z</time>
      </trkpt>
      <trkpt lat="47.83422" lon="6.89777">
        <ele>1113.7</ele>
        <time>2026-08-27T05:12:12.072Z</time>
      </trkpt>
      <trkpt lat="47.83423" lon="6.89777">
        <ele>1114</ele>
        <time>2026-08-27T05:12:13.080Z</time>
      </trkpt>
      <trkpt lat="47.83424" lon="6.89777">
        <ele>1113.8</ele>
        <time>2026-08-27T05:12:14.087Z</time>
      </trkpt>
      <trkpt lat="47.83425" lon="6.89776">
        <ele>1113.6</ele>
        <time>2026-08-27T05:12:16.002Z</time>
      </trkpt>
      <trkpt lat="47.83425" lon="6.89776">
        <ele>1113.7</ele>
        <time>2026-08-27T05:12:17.010Z</time>
      </trkpt>
      <trkpt lat="47.83426" lon="6.89776">
        <ele>1113.7</ele>
        <time>2026-08-27T05:12:18.019Z</time>
      </trkpt>
      <trkpt lat="47.83427" lon="6.89776">
        <ele>1113.6</ele>
        <time>2026-08-27T05:12:20.034Z</time>
      </trkpt>
      <trkpt lat="47.83427" lon="6.89776">
        <ele>1113.4</ele>
        <time>2026-08-27T05:12:21.043Z</time>
      </trkpt>
      <trkpt lat="47.83428" lon="6.89776">
        <ele>1113.4</ele>
        <time>2026-08-27T05:12:22.050Z</time>
      </trkpt>
      <trkpt lat="47.83429" lon="6.89776">
        <ele>1113.4</ele>
        <time>2026-08-27T05:12:24.066Z</time>
      </trkpt>
      <trkpt lat="47.8343" lon="6.89776">
        <ele>1113.7</ele>
        <time>2026-08-27T05:12:25.075Z</time>
      </trkpt>
      <trkpt lat="47.83431" lon="6.89776">
        <ele>1113.8</ele>
        <time>2026-08-27T05:12:26.082Z</time>
      </trkpt>
      <trkpt lat="47.83432" lon="6.89776">
        <ele>1113.4</ele>
        <time>2026-08-27T05:12:28.099Z</time>
      </trkpt>
      <trkpt lat="47.83434" lon="6.89776">
        <ele>1113.6</ele>
        <time>2026-08-27T05:12:30.013Z</time>
      </trkpt>
      <trkpt lat="47.83435" lon="6.89776">
        <ele>1113.6</ele>
        <time>2026-08-27T05:12:31.090Z</time>
      </trkpt>
      <trkpt lat="47.83436" lon="6.89776">
        <ele>1113.5</ele>
        <time>2026-08-27T05:12:33.039Z</time>
      </trkpt>
      <trkpt lat="47.83437" lon="6.89776">
        <ele>1113.8</ele>
        <time>2026-08-27T05:12:34.089Z</time>
      </trkpt>
      <trkpt lat="47.83439" lon="6.89777">
        <ele>1115.4</ele>
        <time>2026-08-27T05:12:36.063Z</time>
      </trkpt>
      <trkpt lat="47.8344" lon="6.89777">
        <ele>1115.9</ele>
        <time>2026-08-27T05:12:37.070Z</time>
      </trkpt>
      <trkpt lat="47.83441" lon="6.89777">
        <ele>1116.7</ele>
        <time>2026-08-27T05:12:38.078Z</time>
      </trkpt>
      <trkpt lat="47.83443" lon="6.89777">
        <ele>1116.6</ele>
        <time>2026-08-27T05:12:40.068Z</time>
      </trkpt>
      <trkpt lat="47.83445" lon="6.89777">
        <ele>1117.1</ele>
        <time>2026-08-27T05:12:42.009Z</time>
      </trkpt>
      <trkpt lat="47.83446" lon="6.89777">
        <ele>1116.8</ele>
        <time>2026-08-27T05:12:43.018Z</time>
      </trkpt>
      <trkpt lat="47.83446" lon="6.89777">
        <ele>1116.7</ele>
        <time>2026-08-27T05:12:44.025Z</time>
      </trkpt>
      <trkpt lat="47.83448" lon="6.89777">
        <ele>1116.6</ele>
        <time>2026-08-27T05:12:46.042Z</time>
      </trkpt>
      <trkpt lat="47.83449" lon="6.89778">
        <ele>1116.2</ele>
        <time>2026-08-27T05:12:47.049Z</time>
      </trkpt>
      <trkpt lat="47.8345" lon="6.89778">
        <ele>1116</ele>
        <time>2026-08-27T05:12:48.057Z</time>
      </trkpt>
      <trkpt lat="47.8345" lon="6.89779">
        <ele>1115.9</ele>
        <time>2026-08-27T05:12:49.065Z</time>
      </trkpt>
      <trkpt lat="47.83452" lon="6.89779">
        <ele>1115.6</ele>
        <time>2026-08-27T05:12:51.082Z</time>
      </trkpt>
      <trkpt lat="47.83453" lon="6.8978">
        <ele>1115.9</ele>
        <time>2026-08-27T05:12:52.997Z</time>
      </trkpt>
      <trkpt lat="47.83453" lon="6.89781">
        <ele>1116</ele>
        <time>2026-08-27T05:12:54.004Z</time>
      </trkpt>
      <trkpt lat="47.83454" lon="6.89781">
        <ele>1116.2</ele>
        <time>2026-08-27T05:12:55.012Z</time>
      </trkpt>
      <trkpt lat="47.83454" lon="6.89782">
        <ele>1115.8</ele>
        <time>2026-08-27T05:12:56.021Z</time>
      </trkpt>
      <trkpt lat="47.83455" lon="6.89783">
        <ele>1115.8</ele>
        <time>2026-08-27T05:12:57.028Z</time>
      </trkpt>
      <trkpt lat="47.83456" lon="6.89784">
        <ele>1115.9</ele>
        <time>2026-08-27T05:12:59.045Z</time>
      </trkpt>
      <trkpt lat="47.83457" lon="6.89785">
        <ele>1115.8</ele>
        <time>2026-08-27T05:13:00.052Z</time>
      </trkpt>
      <trkpt lat="47.83458" lon="6.89785">
        <ele>1115.4</ele>
        <time>2026-08-27T05:13:01.060Z</time>
      </trkpt>
      <trkpt lat="47.83458" lon="6.89786">
        <ele>1115.8</ele>
        <time>2026-08-27T05:13:02.068Z</time>
      </trkpt>
      <trkpt lat="47.8346" lon="6.89787">
        <ele>1116</ele>
        <time>2026-08-27T05:13:04.085Z</time>
      </trkpt>
      <trkpt lat="47.83461" lon="6.89788">
        <ele>1117.5</ele>
        <time>2026-08-27T05:13:05.092Z</time>
      </trkpt>
      <trkpt lat="47.83463" lon="6.89789">
        <ele>1118.9</ele>
        <time>2026-08-27T05:13:07.008Z</time>
      </trkpt>
      <trkpt lat="47.83464" lon="6.89789">
        <ele>1118.8</ele>
        <time>2026-08-27T05:13:08.016Z</time>
      </trkpt>
      <trkpt lat="47.83465" lon="6.8979">
        <ele>1118.9</ele>
        <time>2026-08-27T05:13:09.024Z</time>
      </trkpt>
      <trkpt lat="47.83466" lon="6.89791">
        <ele>1119.1</ele>
        <time>2026-08-27T05:13:11.040Z</time>
      </trkpt>
      <trkpt lat="47.83467" lon="6.89792">
        <ele>1119.1</ele>
        <time>2026-08-27T05:13:12.048Z</time>
      </trkpt>
      <trkpt lat="47.83468" lon="6.89792">
        <ele>1118.6</ele>
        <time>2026-08-27T05:13:13.056Z</time>
      </trkpt>
      <trkpt lat="47.83469" lon="6.89793">
        <ele>1118.5</ele>
        <time>2026-08-27T05:13:15.013Z</time>
      </trkpt>
      <trkpt lat="47.83469" lon="6.89795">
        <ele>1118.8</ele>
        <time>2026-08-27T05:13:16.080Z</time>
      </trkpt>
      <trkpt lat="47.8347" lon="6.89796">
        <ele>1118.7</ele>
        <time>2026-08-27T05:13:17.088Z</time>
      </trkpt>
      <trkpt lat="47.83471" lon="6.89799">
        <ele>1117.9</ele>
        <time>2026-08-27T05:13:19.004Z</time>
      </trkpt>
      <trkpt lat="47.83471" lon="6.898">
        <ele>1117.7</ele>
        <time>2026-08-27T05:13:20.011Z</time>
      </trkpt>
      <trkpt lat="47.83471" lon="6.89801">
        <ele>1117.7</ele>
        <time>2026-08-27T05:13:21.019Z</time>
      </trkpt>
      <trkpt lat="47.83471" lon="6.898">
        <ele>1117.6</ele>
        <time>2026-08-27T05:13:22.028Z</time>
      </trkpt>
      <trkpt lat="47.83471" lon="6.898">
        <ele>1117.2</ele>
        <time>2026-08-27T05:13:23.035Z</time>
      </trkpt>
      <trkpt lat="47.8347" lon="6.898">
        <ele>1117.3</ele>
        <time>2026-08-27T05:13:24.043Z</time>
      </trkpt>
      <trkpt lat="47.8347" lon="6.898">
        <ele>1117.1</ele>
        <time>2026-08-27T05:13:25.051Z</time>
      </trkpt>
      <trkpt lat="47.8347" lon="6.898">
        <ele>1116.7</ele>
        <time>2026-08-27T05:13:26.059Z</time>
      </trkpt>
      <trkpt lat="47.8347" lon="6.898">
        <ele>1116.7</ele>
        <time>2026-08-27T05:13:27.067Z</time>
      </trkpt>
      <trkpt lat="47.8347" lon="6.89799">
        <ele>1116.8</ele>
        <time>2026-08-27T05:13:28.075Z</time>
      </trkpt>
      <trkpt lat="47.8347" lon="6.89799">
        <ele>1117.8</ele>
        <time>2026-08-27T05:13:29.084Z</time>
      </trkpt>
      <trkpt lat="47.8347" lon="6.89799">
        <ele>1118.1</ele>
        <time>2026-08-27T05:13:30.092Z</time>
      </trkpt>
      <trkpt lat="47.8347" lon="6.89799">
        <ele>1118.4</ele>
        <time>2026-08-27T05:13:32.007Z</time>
      </trkpt>
      <trkpt lat="47.8347" lon="6.89799">
        <ele>1118.5</ele>
        <time>2026-08-27T05:13:33.014Z</time>
      </trkpt>
      <trkpt lat="47.8347" lon="6.89799">
        <ele>1119</ele>
        <time>2026-08-27T05:13:34.023Z</time>
      </trkpt>
      <trkpt lat="47.8347" lon="6.89799">
        <ele>1119.1</ele>
        <time>2026-08-27T05:13:35.030Z</time>
      </trkpt>
      <trkpt lat="47.8347" lon="6.89799">
        <ele>1119.3</ele>
        <time>2026-08-27T05:13:37.046Z</time>
      </trkpt>
      <trkpt lat="47.83471" lon="6.898">
        <ele>1119.2</ele>
        <time>2026-08-27T05:13:38.055Z</time>
      </trkpt>
      <trkpt lat="47.83472" lon="6.89801">
        <ele>1119.5</ele>
        <time>2026-08-27T05:13:39.063Z</time>
      </trkpt>
      <trkpt lat="47.83472" lon="6.89801">
        <ele>1119.1</ele>
        <time>2026-08-27T05:13:40.070Z</time>
      </trkpt>
      <trkpt lat="47.83474" lon="6.89802">
        <ele>1118.9</ele>
        <time>2026-08-27T05:13:41.078Z</time>
      </trkpt>
      <trkpt lat="47.83475" lon="6.89802">
        <ele>1118.2</ele>
        <time>2026-08-27T05:13:42.086Z</time>
      </trkpt>
      <trkpt lat="47.83477" lon="6.89804">
        <ele>1118.8</ele>
        <time>2026-08-27T05:13:44.078Z</time>
      </trkpt>
      <trkpt lat="47.83479" lon="6.89806">
        <ele>1118.2</ele>
        <time>2026-08-27T05:13:46.076Z</time>
      </trkpt>
      <trkpt lat="47.8348" lon="6.89808">
        <ele>1118</ele>
        <time>2026-08-27T05:13:48.034Z</time>
      </trkpt>
      <trkpt lat="47.83481" lon="6.89809">
        <ele>1117.9</ele>
        <time>2026-08-27T05:13:49.042Z</time>
      </trkpt>
      <trkpt lat="47.83482" lon="6.8981">
        <ele>1117.9</ele>
        <time>2026-08-27T05:13:50.058Z</time>
      </trkpt>
      <trkpt lat="47.83483" lon="6.89811">
        <ele>1117.6</ele>
        <time>2026-08-27T05:13:51.058Z</time>
      </trkpt>
      <trkpt lat="47.83483" lon="6.89811">
        <ele>1117.6</ele>
        <time>2026-08-27T05:13:52.099Z</time>
      </trkpt>
      <trkpt lat="47.83485" lon="6.89812">
        <ele>1117</ele>
        <time>2026-08-27T05:13:53.982Z</time>
      </trkpt>
      <trkpt lat="47.83485" lon="6.89813">
        <ele>1116.2</ele>
        <time>2026-08-27T05:13:55.090Z</time>
      </trkpt>
      <trkpt lat="47.83486" lon="6.89815">
        <ele>1115.9</ele>
        <time>2026-08-27T05:13:57.006Z</time>
      </trkpt>
      <trkpt lat="47.83486" lon="6.89816">
        <ele>1116.8</ele>
        <time>2026-08-27T05:13:58.013Z</time>
      </trkpt>
      <trkpt lat="47.83487" lon="6.89816">
        <ele>1116.8</ele>
        <time>2026-08-27T05:13:59.054Z</time>
      </trkpt>
      <trkpt lat="47.83487" lon="6.89816">
        <ele>1117.2</ele>
        <time>2026-08-27T05:14:01.037Z</time>
      </trkpt>
      <trkpt lat="47.83487" lon="6.89816">
        <ele>1117.3</ele>
        <time>2026-08-27T05:14:02.045Z</time>
      </trkpt>
      <trkpt lat="47.83487" lon="6.89816">
        <ele>1117.7</ele>
        <time>2026-08-27T05:14:03.054Z</time>
      </trkpt>
      <trkpt lat="47.83487" lon="6.89817">
        <ele>1118.1</ele>
        <time>2026-08-27T05:14:04.062Z</time>
      </trkpt>
      <trkpt lat="47.83488" lon="6.89817">
        <ele>1118.1</ele>
        <time>2026-08-27T05:14:05.077Z</time>
      </trkpt>
      <trkpt lat="47.83489" lon="6.89817">
        <ele>1117.7</ele>
        <time>2026-08-27T05:14:06.077Z</time>
      </trkpt>
      <trkpt lat="47.83491" lon="6.89818">
        <ele>1118</ele>
        <time>2026-08-27T05:14:08.093Z</time>
      </trkpt>
      <trkpt lat="47.83493" lon="6.89818">
        <ele>1117.5</ele>
        <time>2026-08-27T05:14:10.008Z</time>
      </trkpt>
      <trkpt lat="47.83494" lon="6.89818">
        <ele>1117</ele>
        <time>2026-08-27T05:14:11.016Z</time>
      </trkpt>
      <trkpt lat="47.83495" lon="6.89819">
        <ele>1117.4</ele>
        <time>2026-08-27T05:14:12.025Z</time>
      </trkpt>
      <trkpt lat="47.83497" lon="6.8982">
        <ele>1117.3</ele>
        <time>2026-08-27T05:14:14.041Z</time>
      </trkpt>
      <trkpt lat="47.83499" lon="6.89821">
        <ele>1117.5</ele>
        <time>2026-08-27T05:14:16.056Z</time>
      </trkpt>
      <trkpt lat="47.835" lon="6.89821">
        <ele>1117.2</ele>
        <time>2026-08-27T05:14:17.064Z</time>
      </trkpt>
      <trkpt lat="47.83501" lon="6.89822">
        <ele>1117.2</ele>
        <time>2026-08-27T05:14:18.072Z</time>
      </trkpt>
      <trkpt lat="47.83502" lon="6.89822">
        <ele>1117.2</ele>
        <time>2026-08-27T05:14:19.080Z</time>
      </trkpt>
      <trkpt lat="47.83503" lon="6.89822">
        <ele>1117.4</ele>
        <time>2026-08-27T05:14:21.097Z</time>
      </trkpt>
      <trkpt lat="47.83505" lon="6.89821">
        <ele>1116.8</ele>
        <time>2026-08-27T05:14:22.994Z</time>
      </trkpt>
      <trkpt lat="47.83506" lon="6.89821">
        <ele>1116.3</ele>
        <time>2026-08-27T05:14:24.061Z</time>
      </trkpt>
      <trkpt lat="47.83508" lon="6.89821">
        <ele>1115.8</ele>
        <time>2026-08-27T05:14:26.035Z</time>
      </trkpt>
      <trkpt lat="47.83508" lon="6.89821">
        <ele>1116.6</ele>
        <time>2026-08-27T05:14:27.043Z</time>
      </trkpt>
      <trkpt lat="47.83508" lon="6.89821">
        <ele>1116.9</ele>
        <time>2026-08-27T05:14:28.052Z</time>
      </trkpt>
      <trkpt lat="47.83509" lon="6.89822">
        <ele>1117.1</ele>
        <time>2026-08-27T05:14:29.060Z</time>
      </trkpt>
      <trkpt lat="47.83509" lon="6.89822">
        <ele>1117.1</ele>
        <time>2026-08-27T05:14:30.067Z</time>
      </trkpt>
      <trkpt lat="47.83509" lon="6.89823">
        <ele>1117.1</ele>
        <time>2026-08-27T05:14:31.075Z</time>
      </trkpt>
      <trkpt lat="47.83509" lon="6.89823">
        <ele>1117.3</ele>
        <time>2026-08-27T05:14:32.084Z</time>
      </trkpt>
      <trkpt lat="47.8351" lon="6.89824">
        <ele>1117.5</ele>
        <time>2026-08-27T05:14:33.091Z</time>
      </trkpt>
      <trkpt lat="47.83512" lon="6.89824">
        <ele>1116.8</ele>
        <time>2026-08-27T05:14:35.007Z</time>
      </trkpt>
      <trkpt lat="47.83513" lon="6.89825">
        <ele>1116.8</ele>
        <time>2026-08-27T05:14:36.015Z</time>
      </trkpt>
      <trkpt lat="47.83514" lon="6.89826">
        <ele>1116.7</ele>
        <time>2026-08-27T05:14:37.024Z</time>
      </trkpt>
      <trkpt lat="47.83514" lon="6.89826">
        <ele>1116.2</ele>
        <time>2026-08-27T05:14:38.031Z</time>
      </trkpt>
      <trkpt lat="47.83515" lon="6.89827">
        <ele>1115.3</ele>
        <time>2026-08-27T05:14:39.039Z</time>
      </trkpt>
      <trkpt lat="47.83516" lon="6.89827">
        <ele>1115.2</ele>
        <time>2026-08-27T05:14:40.047Z</time>
      </trkpt>
      <trkpt lat="47.83517" lon="6.89827">
        <ele>1115.2</ele>
        <time>2026-08-27T05:14:41.097Z</time>
      </trkpt>
      <trkpt lat="47.83519" lon="6.89827">
        <ele>1115.1</ele>
        <time>2026-08-27T05:14:43.072Z</time>
      </trkpt>
      <trkpt lat="47.8352" lon="6.89827">
        <ele>1115</ele>
        <time>2026-08-27T05:14:44.079Z</time>
      </trkpt>
      <trkpt lat="47.83522" lon="6.89827">
        <ele>1114.7</ele>
        <time>2026-08-27T05:14:46.096Z</time>
      </trkpt>
      <trkpt lat="47.83524" lon="6.89827">
        <ele>1114.5</ele>
        <time>2026-08-27T05:14:47.959Z</time>
      </trkpt>
      <trkpt lat="47.83525" lon="6.89828">
        <ele>1114.7</ele>
        <time>2026-08-27T05:14:49.018Z</time>
      </trkpt>
      <trkpt lat="47.83526" lon="6.89828">
        <ele>1114.6</ele>
        <time>2026-08-27T05:14:50.026Z</time>
      </trkpt>
      <trkpt lat="47.83527" lon="6.89828">
        <ele>1114.6</ele>
        <time>2026-08-27T05:14:51.034Z</time>
      </trkpt>
      <trkpt lat="47.83528" lon="6.89829">
        <ele>1113.8</ele>
        <time>2026-08-27T05:14:52.042Z</time>
      </trkpt>
      <trkpt lat="47.83529" lon="6.89829">
        <ele>1114</ele>
        <time>2026-08-27T05:14:53.050Z</time>
      </trkpt>
      <trkpt lat="47.8353" lon="6.8983">
        <ele>1114.7</ele>
        <time>2026-08-27T05:14:54.058Z</time>
      </trkpt>
      <trkpt lat="47.83531" lon="6.8983">
        <ele>1115.2</ele>
        <time>2026-08-27T05:14:55.066Z</time>
      </trkpt>
      <trkpt lat="47.83532" lon="6.89831">
        <ele>1115.3</ele>
        <time>2026-08-27T05:14:56.074Z</time>
      </trkpt>
      <trkpt lat="47.83533" lon="6.89831">
        <ele>1116</ele>
        <time>2026-08-27T05:14:58.090Z</time>
      </trkpt>
      <trkpt lat="47.83534" lon="6.89831">
        <ele>1116</ele>
        <time>2026-08-27T05:14:59.115Z</time>
      </trkpt>
      <trkpt lat="47.83535" lon="6.89832">
        <ele>1116.4</ele>
        <time>2026-08-27T05:15:00.400Z</time>
      </trkpt>
      <trkpt lat="47.83537" lon="6.89832">
        <ele>1117</ele>
        <time>2026-08-27T05:15:01.703Z</time>
      </trkpt>
      <trkpt lat="47.83538" lon="6.89832">
        <ele>1117.5</ele>
        <time>2026-08-27T05:15:02.995Z</time>
      </trkpt>
      <trkpt lat="47.83539" lon="6.89833">
        <ele>1117.6</ele>
        <time>2026-08-27T05:15:04.037Z</time>
      </trkpt>
      <trkpt lat="47.8354" lon="6.89833">
        <ele>1117.5</ele>
        <time>2026-08-27T05:15:05.046Z</time>
      </trkpt>
      <trkpt lat="47.8354" lon="6.89833">
        <ele>1117.7</ele>
        <time>2026-08-27T05:15:06.053Z</time>
      </trkpt>
      <trkpt lat="47.83541" lon="6.89833">
        <ele>1116.8</ele>
        <time>2026-08-27T05:15:07.061Z</time>
      </trkpt>
      <trkpt lat="47.83542" lon="6.89834">
        <ele>1117.3</ele>
        <time>2026-08-27T05:15:08.069Z</time>
      </trkpt>
      <trkpt lat="47.83544" lon="6.89834">
        <ele>1117.3</ele>
        <time>2026-08-27T05:15:10.085Z</time>
      </trkpt>
      <trkpt lat="47.83546" lon="6.89833">
        <ele>1117.4</ele>
        <time>2026-08-27T05:15:12.000Z</time>
      </trkpt>
      <trkpt lat="47.83547" lon="6.89832">
        <ele>1117.6</ele>
        <time>2026-08-27T05:15:13.008Z</time>
      </trkpt>
      <trkpt lat="47.83548" lon="6.89831">
        <ele>1117.6</ele>
        <time>2026-08-27T05:15:14.016Z</time>
      </trkpt>
      <trkpt lat="47.83549" lon="6.89831">
        <ele>1117.6</ele>
        <time>2026-08-27T05:15:16.033Z</time>
      </trkpt>
      <trkpt lat="47.8355" lon="6.89831">
        <ele>1117.2</ele>
        <time>2026-08-27T05:15:17.041Z</time>
      </trkpt>
      <trkpt lat="47.83551" lon="6.89831">
        <ele>1117.4</ele>
        <time>2026-08-27T05:15:18.048Z</time>
      </trkpt>
      <trkpt lat="47.83552" lon="6.89831">
        <ele>1117.5</ele>
        <time>2026-08-27T05:15:19.056Z</time>
      </trkpt>
      <trkpt lat="47.83553" lon="6.89831">
        <ele>1116.9</ele>
        <time>2026-08-27T05:15:20.064Z</time>
      </trkpt>
      <trkpt lat="47.83555" lon="6.8983">
        <ele>1116.7</ele>
        <time>2026-08-27T05:15:22.080Z</time>
      </trkpt>
      <trkpt lat="47.83556" lon="6.8983">
        <ele>1116.7</ele>
        <time>2026-08-27T05:15:23.097Z</time>
      </trkpt>
      <trkpt lat="47.83557" lon="6.8983">
        <ele>1117.3</ele>
        <time>2026-08-27T05:15:24.415Z</time>
      </trkpt>
      <trkpt lat="47.83558" lon="6.8983">
        <ele>1117.5</ele>
        <time>2026-08-27T05:15:25.675Z</time>
      </trkpt>
      <trkpt lat="47.8356" lon="6.89829">
        <ele>1117.9</ele>
        <time>2026-08-27T05:15:27.061Z</time>
      </trkpt>
      <trkpt lat="47.83562" lon="6.89829">
        <ele>1118.7</ele>
        <time>2026-08-27T05:15:29.035Z</time>
      </trkpt>
      <trkpt lat="47.83563" lon="6.89828">
        <ele>1119.4</ele>
        <time>2026-08-27T05:15:30.044Z</time>
      </trkpt>
      <trkpt lat="47.83563" lon="6.89828">
        <ele>1120</ele>
        <time>2026-08-27T05:15:31.051Z</time>
      </trkpt>
      <trkpt lat="47.83564" lon="6.89828">
        <ele>1120.3</ele>
        <time>2026-08-27T05:15:33.068Z</time>
      </trkpt>
      <trkpt lat="47.83565" lon="6.89827">
        <ele>1120.5</ele>
        <time>2026-08-27T05:15:34.100Z</time>
      </trkpt>
      <trkpt lat="47.83566" lon="6.89826">
        <ele>1120.6</ele>
        <time>2026-08-27T05:15:35.990Z</time>
      </trkpt>
      <trkpt lat="47.83567" lon="6.89826">
        <ele>1120.6</ele>
        <time>2026-08-27T05:15:37.040Z</time>
      </trkpt>
      <trkpt lat="47.83568" lon="6.89825">
        <ele>1120.7</ele>
        <time>2026-08-27T05:15:39.014Z</time>
      </trkpt>
      <trkpt lat="47.8357" lon="6.89825">
        <ele>1120.9</ele>
        <time>2026-08-27T05:15:41.030Z</time>
      </trkpt>
      <trkpt lat="47.8357" lon="6.89826">
        <ele>1121</ele>
        <time>2026-08-27T05:15:42.038Z</time>
      </trkpt>
      <trkpt lat="47.83571" lon="6.89826">
        <ele>1121</ele>
        <time>2026-08-27T05:15:43.046Z</time>
      </trkpt>
      <trkpt lat="47.83572" lon="6.89826">
        <ele>1120.8</ele>
        <time>2026-08-27T05:15:44.054Z</time>
      </trkpt>
      <trkpt lat="47.83573" lon="6.89826">
        <ele>1120.3</ele>
        <time>2026-08-27T05:15:45.062Z</time>
      </trkpt>
      <trkpt lat="47.83574" lon="6.89826">
        <ele>1120.2</ele>
        <time>2026-08-27T05:15:46.071Z</time>
      </trkpt>
      <trkpt lat="47.83575" lon="6.89826">
        <ele>1120.1</ele>
        <time>2026-08-27T05:15:47.078Z</time>
      </trkpt>
      <trkpt lat="47.83577" lon="6.89825">
        <ele>1119.5</ele>
        <time>2026-08-27T05:15:48.994Z</time>
      </trkpt>
      <trkpt lat="47.83578" lon="6.89825">
        <ele>1118.8</ele>
        <time>2026-08-27T05:15:50.003Z</time>
      </trkpt>
      <trkpt lat="47.83579" lon="6.89825">
        <ele>1118.8</ele>
        <time>2026-08-27T05:15:51.018Z</time>
      </trkpt>
      <trkpt lat="47.8358" lon="6.89825">
        <ele>1118.4</ele>
        <time>2026-08-27T05:15:52.018Z</time>
      </trkpt>
      <trkpt lat="47.83582" lon="6.89825">
        <ele>1118.9</ele>
        <time>2026-08-27T05:15:54.033Z</time>
      </trkpt>
      <trkpt lat="47.83583" lon="6.89825">
        <ele>1118.8</ele>
        <time>2026-08-27T05:15:55.042Z</time>
      </trkpt>
      <trkpt lat="47.83583" lon="6.89825">
        <ele>1119</ele>
        <time>2026-08-27T05:15:56.050Z</time>
      </trkpt>
      <trkpt lat="47.83584" lon="6.89825">
        <ele>1119.2</ele>
        <time>2026-08-27T05:15:57.057Z</time>
      </trkpt>
      <trkpt lat="47.83585" lon="6.89825">
        <ele>1119.4</ele>
        <time>2026-08-27T05:15:58.066Z</time>
      </trkpt>
      <trkpt lat="47.83587" lon="6.89825">
        <ele>1120.9</ele>
        <time>2026-08-27T05:15:59.982Z</time>
      </trkpt>
      <trkpt lat="47.83588" lon="6.89826">
        <ele>1120.9</ele>
        <time>2026-08-27T05:16:00.998Z</time>
      </trkpt>
      <trkpt lat="47.8359" lon="6.89827">
        <ele>1120.4</ele>
        <time>2026-08-27T05:16:02.921Z</time>
      </trkpt>
      <trkpt lat="47.83591" lon="6.89827">
        <ele>1120.1</ele>
        <time>2026-08-27T05:16:04.013Z</time>
      </trkpt>
      <trkpt lat="47.83591" lon="6.89828">
        <ele>1120.1</ele>
        <time>2026-08-27T05:16:05.037Z</time>
      </trkpt>
      <trkpt lat="47.83592" lon="6.89828">
        <ele>1120.3</ele>
        <time>2026-08-27T05:16:06.962Z</time>
      </trkpt>
      <trkpt lat="47.83593" lon="6.89829">
        <ele>1120.2</ele>
        <time>2026-08-27T05:16:08.046Z</time>
      </trkpt>
      <trkpt lat="47.83594" lon="6.89829">
        <ele>1120.2</ele>
        <time>2026-08-27T05:16:09.054Z</time>
      </trkpt>
      <trkpt lat="47.83594" lon="6.89829">
        <ele>1119.9</ele>
        <time>2026-08-27T05:16:10.061Z</time>
      </trkpt>
      <trkpt lat="47.83595" lon="6.8983">
        <ele>1120.2</ele>
        <time>2026-08-27T05:16:11.069Z</time>
      </trkpt>
      <trkpt lat="47.83596" lon="6.89831">
        <ele>1119.6</ele>
        <time>2026-08-27T05:16:12.078Z</time>
      </trkpt>
      <trkpt lat="47.83597" lon="6.89831">
        <ele>1119.3</ele>
        <time>2026-08-27T05:16:13.085Z</time>
      </trkpt>
      <trkpt lat="47.83599" lon="6.89832">
        <ele>1119.1</ele>
        <time>2026-08-27T05:16:15.000Z</time>
      </trkpt>
      <trkpt lat="47.836" lon="6.89832">
        <ele>1118.7</ele>
        <time>2026-08-27T05:16:16.009Z</time>
      </trkpt>
      <trkpt lat="47.83601" lon="6.89832">
        <ele>1118.8</ele>
        <time>2026-08-27T05:16:17.016Z</time>
      </trkpt>
      <trkpt lat="47.83602" lon="6.89832">
        <ele>1118.8</ele>
        <time>2026-08-27T05:16:18.024Z</time>
      </trkpt>
      <trkpt lat="47.83603" lon="6.89833">
        <ele>1118.4</ele>
        <time>2026-08-27T05:16:19.032Z</time>
      </trkpt>
      <trkpt lat="47.83604" lon="6.89833">
        <ele>1118.4</ele>
        <time>2026-08-27T05:16:20.041Z</time>
      </trkpt>
      <trkpt lat="47.83606" lon="6.89834">
        <ele>1118.6</ele>
        <time>2026-08-27T05:16:22.056Z</time>
      </trkpt>
      <trkpt lat="47.83607" lon="6.89835">
        <ele>1119.3</ele>
        <time>2026-08-27T05:16:23.064Z</time>
      </trkpt>
      <trkpt lat="47.83607" lon="6.89835">
        <ele>1119.5</ele>
        <time>2026-08-27T05:16:24.097Z</time>
      </trkpt>
      <trkpt lat="47.83609" lon="6.89836">
        <ele>1119.4</ele>
        <time>2026-08-27T05:16:26.088Z</time>
      </trkpt>
      <trkpt lat="47.8361" lon="6.89836">
        <ele>1120.4</ele>
        <time>2026-08-27T05:16:27.994Z</time>
      </trkpt>
      <trkpt lat="47.83611" lon="6.89837">
        <ele>1121.4</ele>
        <time>2026-08-27T05:16:29.011Z</time>
      </trkpt>
      <trkpt lat="47.83613" lon="6.89838">
        <ele>1121.2</ele>
        <time>2026-08-27T05:16:31.028Z</time>
      </trkpt>
      <trkpt lat="47.83615" lon="6.89839">
        <ele>1121.1</ele>
        <time>2026-08-27T05:16:33.043Z</time>
      </trkpt>
      <trkpt lat="47.83616" lon="6.89839">
        <ele>1121.2</ele>
        <time>2026-08-27T05:16:34.052Z</time>
      </trkpt>
      <trkpt lat="47.83617" lon="6.89839">
        <ele>1121.1</ele>
        <time>2026-08-27T05:16:35.060Z</time>
      </trkpt>
      <trkpt lat="47.83617" lon="6.8984">
        <ele>1121.3</ele>
        <time>2026-08-27T05:16:36.067Z</time>
      </trkpt>
      <trkpt lat="47.83619" lon="6.8984">
        <ele>1121.3</ele>
        <time>2026-08-27T05:16:37.100Z</time>
      </trkpt>
      <trkpt lat="47.8362" lon="6.8984">
        <ele>1121.8</ele>
        <time>2026-08-27T05:16:39.091Z</time>
      </trkpt>
      <trkpt lat="47.83622" lon="6.8984">
        <ele>1121.9</ele>
        <time>2026-08-27T05:16:40.915Z</time>
      </trkpt>
      <trkpt lat="47.83623" lon="6.89841">
        <ele>1121.7</ele>
        <time>2026-08-27T05:16:42.014Z</time>
      </trkpt>
      <trkpt lat="47.83624" lon="6.89841">
        <ele>1120.7</ele>
        <time>2026-08-27T05:16:43.023Z</time>
      </trkpt>
      <trkpt lat="47.83625" lon="6.89841">
        <ele>1120.5</ele>
        <time>2026-08-27T05:16:44.030Z</time>
      </trkpt>
      <trkpt lat="47.83626" lon="6.89841">
        <ele>1120.5</ele>
        <time>2026-08-27T05:16:45.038Z</time>
      </trkpt>
      <trkpt lat="47.83627" lon="6.8984">
        <ele>1120.7</ele>
        <time>2026-08-27T05:16:46.046Z</time>
      </trkpt>
      <trkpt lat="47.83628" lon="6.8984">
        <ele>1120.7</ele>
        <time>2026-08-27T05:16:47.054Z</time>
      </trkpt>
      <trkpt lat="47.83628" lon="6.8984">
        <ele>1120.6</ele>
        <time>2026-08-27T05:16:48.122Z</time>
      </trkpt>
      <trkpt lat="47.83629" lon="6.89841">
        <ele>1120.4</ele>
        <time>2026-08-27T05:16:50.078Z</time>
      </trkpt>
      <trkpt lat="47.8363" lon="6.89841">
        <ele>1120.8</ele>
        <time>2026-08-27T05:16:51.958Z</time>
      </trkpt>
      <trkpt lat="47.8363" lon="6.89841">
        <ele>1120.5</ele>
        <time>2026-08-27T05:16:53.001Z</time>
      </trkpt>
      <trkpt lat="47.83631" lon="6.89842">
        <ele>1120.5</ele>
        <time>2026-08-27T05:16:54.001Z</time>
      </trkpt>
      <trkpt lat="47.83631" lon="6.89843">
        <ele>1120.4</ele>
        <time>2026-08-27T05:16:55.017Z</time>
      </trkpt>
      <trkpt lat="47.83632" lon="6.89844">
        <ele>1121.1</ele>
        <time>2026-08-27T05:16:56.026Z</time>
      </trkpt>
      <trkpt lat="47.83633" lon="6.89845">
        <ele>1121.5</ele>
        <time>2026-08-27T05:16:58.101Z</time>
      </trkpt>
      <trkpt lat="47.83635" lon="6.89846">
        <ele>1121.8</ele>
        <time>2026-08-27T05:17:00.016Z</time>
      </trkpt>
      <trkpt lat="47.83636" lon="6.89846">
        <ele>1120.9</ele>
        <time>2026-08-27T05:17:01.066Z</time>
      </trkpt>
      <trkpt lat="47.83637" lon="6.89847">
        <ele>1120.7</ele>
        <time>2026-08-27T05:17:02.073Z</time>
      </trkpt>
      <trkpt lat="47.83638" lon="6.89848">
        <ele>1120.7</ele>
        <time>2026-08-27T05:17:03.082Z</time>
      </trkpt>
      <trkpt lat="47.8364" lon="6.89849">
        <ele>1120.4</ele>
        <time>2026-08-27T05:17:05.038Z</time>
      </trkpt>
      <trkpt lat="47.83642" lon="6.89849">
        <ele>1120.5</ele>
        <time>2026-08-27T05:17:06.936Z</time>
      </trkpt>
      <trkpt lat="47.83643" lon="6.8985">
        <ele>1120.1</ele>
        <time>2026-08-27T05:17:08.020Z</time>
      </trkpt>
      <trkpt lat="47.83644" lon="6.8985">
        <ele>1119.9</ele>
        <time>2026-08-27T05:17:09.028Z</time>
      </trkpt>
      <trkpt lat="47.83645" lon="6.89851">
        <ele>1119.6</ele>
        <time>2026-08-27T05:17:10.036Z</time>
      </trkpt>
      <trkpt lat="47.83646" lon="6.89851">
        <ele>1118.8</ele>
        <time>2026-08-27T05:17:11.044Z</time>
      </trkpt>
      <trkpt lat="47.83647" lon="6.89852">
        <ele>1118.4</ele>
        <time>2026-08-27T05:17:12.052Z</time>
      </trkpt>
      <trkpt lat="47.83648" lon="6.89852">
        <ele>1118.4</ele>
        <time>2026-08-27T05:17:13.061Z</time>
      </trkpt>
      <trkpt lat="47.8365" lon="6.89853">
        <ele>1117.9</ele>
        <time>2026-08-27T05:17:15.035Z</time>
      </trkpt>
      <trkpt lat="47.83651" lon="6.89853">
        <ele>1117.9</ele>
        <time>2026-08-27T05:17:16.084Z</time>
      </trkpt>
      <trkpt lat="47.83653" lon="6.89854">
        <ele>1117.6</ele>
        <time>2026-08-27T05:17:17.999Z</time>
      </trkpt>
      <trkpt lat="47.83656" lon="6.89855">
        <ele>1117.2</ele>
        <time>2026-08-27T05:17:20.016Z</time>
      </trkpt>
      <trkpt lat="47.83657" lon="6.89856">
        <ele>1117.6</ele>
        <time>2026-08-27T05:17:21.023Z</time>
      </trkpt>
      <trkpt lat="47.83658" lon="6.89856">
        <ele>1117.4</ele>
        <time>2026-08-27T05:17:22.031Z</time>
      </trkpt>
      <trkpt lat="47.83659" lon="6.89856">
        <ele>1117.4</ele>
        <time>2026-08-27T05:17:23.039Z</time>
      </trkpt>
      <trkpt lat="47.8366" lon="6.89856">
        <ele>1117.3</ele>
        <time>2026-08-27T05:17:24.048Z</time>
      </trkpt>
      <trkpt lat="47.83661" lon="6.89857">
        <ele>1118.3</ele>
        <time>2026-08-27T05:17:25.055Z</time>
      </trkpt>
      <trkpt lat="47.83662" lon="6.89857">
        <ele>1118.8</ele>
        <time>2026-08-27T05:17:26.064Z</time>
      </trkpt>
      <trkpt lat="47.83663" lon="6.89858">
        <ele>1119.1</ele>
        <time>2026-08-27T05:17:27.071Z</time>
      </trkpt>
      <trkpt lat="47.83664" lon="6.89858">
        <ele>1118.9</ele>
        <time>2026-08-27T05:17:28.080Z</time>
      </trkpt>
      <trkpt lat="47.83664" lon="6.89858">
        <ele>1118.7</ele>
        <time>2026-08-27T05:17:29.087Z</time>
      </trkpt>
      <trkpt lat="47.83666" lon="6.89858">
        <ele>1118.9</ele>
        <time>2026-08-27T05:17:31.003Z</time>
      </trkpt>
      <trkpt lat="47.83667" lon="6.89859">
        <ele>1118.9</ele>
        <time>2026-08-27T05:17:32.010Z</time>
      </trkpt>
      <trkpt lat="47.83668" lon="6.89859">
        <ele>1118.9</ele>
        <time>2026-08-27T05:17:33.018Z</time>
      </trkpt>
      <trkpt lat="47.8367" lon="6.8986">
        <ele>1119.1</ele>
        <time>2026-08-27T05:17:35.059Z</time>
      </trkpt>
      <trkpt lat="47.83672" lon="6.89861">
        <ele>1119.4</ele>
        <time>2026-08-27T05:17:37.050Z</time>
      </trkpt>
      <trkpt lat="47.83673" lon="6.89861">
        <ele>1119.3</ele>
        <time>2026-08-27T05:17:38.058Z</time>
      </trkpt>
      <trkpt lat="47.83674" lon="6.89862">
        <ele>1119.3</ele>
        <time>2026-08-27T05:17:39.066Z</time>
      </trkpt>
      <trkpt lat="47.83677" lon="6.89862">
        <ele>1118.8</ele>
        <time>2026-08-27T05:17:41.083Z</time>
      </trkpt>
      <trkpt lat="47.83678" lon="6.89863">
        <ele>1118.9</ele>
        <time>2026-08-27T05:17:42.091Z</time>
      </trkpt>
      <trkpt lat="47.83679" lon="6.89863">
        <ele>1118.3</ele>
        <time>2026-08-27T05:17:43.098Z</time>
      </trkpt>
      <trkpt lat="47.83681" lon="6.89863">
        <ele>1118.2</ele>
        <time>2026-08-27T05:17:45.014Z</time>
      </trkpt>
      <trkpt lat="47.83682" lon="6.89863">
        <ele>1118.2</ele>
        <time>2026-08-27T05:17:46.021Z</time>
      </trkpt>
      <trkpt lat="47.83683" lon="6.89863">
        <ele>1118.1</ele>
        <time>2026-08-27T05:17:47.029Z</time>
      </trkpt>
      <trkpt lat="47.83684" lon="6.89862">
        <ele>1117.9</ele>
        <time>2026-08-27T05:17:48.038Z</time>
      </trkpt>
      <trkpt lat="47.83684" lon="6.89862">
        <ele>1118.4</ele>
        <time>2026-08-27T05:17:49.045Z</time>
      </trkpt>
      <trkpt lat="47.83685" lon="6.89861">
        <ele>1118.4</ele>
        <time>2026-08-27T05:17:50.054Z</time>
      </trkpt>
      <trkpt lat="47.83686" lon="6.89861">
        <ele>1118.2</ele>
        <time>2026-08-27T05:17:51.062Z</time>
      </trkpt>
      <trkpt lat="47.83688" lon="6.8986">
        <ele>1118.2</ele>
        <time>2026-08-27T05:17:52.069Z</time>
      </trkpt>
      <trkpt lat="47.8369" lon="6.8986">
        <ele>1119.1</ele>
        <time>2026-08-27T05:17:54.085Z</time>
      </trkpt>
      <trkpt lat="47.83691" lon="6.8986">
        <ele>1119.6</ele>
        <time>2026-08-27T05:17:55.093Z</time>
      </trkpt>
      <trkpt lat="47.83693" lon="6.89861">
        <ele>1119.5</ele>
        <time>2026-08-27T05:17:57.008Z</time>
      </trkpt>
      <trkpt lat="47.83695" lon="6.89862">
        <ele>1119.2</ele>
        <time>2026-08-27T05:17:59.101Z</time>
      </trkpt>
      <trkpt lat="47.83697" lon="6.89862">
        <ele>1118.9</ele>
        <time>2026-08-27T05:18:01.041Z</time>
      </trkpt>
      <trkpt lat="47.83698" lon="6.89862">
        <ele>1118.8</ele>
        <time>2026-08-27T05:18:02.049Z</time>
      </trkpt>
      <trkpt lat="47.83699" lon="6.89862">
        <ele>1118.8</ele>
        <time>2026-08-27T05:18:03.057Z</time>
      </trkpt>
      <trkpt lat="47.83699" lon="6.89863">
        <ele>1118.7</ele>
        <time>2026-08-27T05:18:04.064Z</time>
      </trkpt>
      <trkpt lat="47.837" lon="6.89863">
        <ele>1118.4</ele>
        <time>2026-08-27T05:18:05.073Z</time>
      </trkpt>
      <trkpt lat="47.83701" lon="6.89863">
        <ele>1118.6</ele>
        <time>2026-08-27T05:18:06.080Z</time>
      </trkpt>
      <trkpt lat="47.83702" lon="6.89863">
        <ele>1118.4</ele>
        <time>2026-08-27T05:18:07.088Z</time>
      </trkpt>
      <trkpt lat="47.83703" lon="6.89863">
        <ele>1117.7</ele>
        <time>2026-08-27T05:18:09.003Z</time>
      </trkpt>
      <trkpt lat="47.83704" lon="6.89863">
        <ele>1117.5</ele>
        <time>2026-08-27T05:18:10.011Z</time>
      </trkpt>
      <trkpt lat="47.83705" lon="6.89862">
        <ele>1117.4</ele>
        <time>2026-08-27T05:18:11.027Z</time>
      </trkpt>
      <trkpt lat="47.83707" lon="6.89861">
        <ele>1117.2</ele>
        <time>2026-08-27T05:18:13.120Z</time>
      </trkpt>
      <trkpt lat="47.83709" lon="6.89861">
        <ele>1116.2</ele>
        <time>2026-08-27T05:18:15.059Z</time>
      </trkpt>
      <trkpt lat="47.83711" lon="6.89861">
        <ele>1115.5</ele>
        <time>2026-08-27T05:18:17.081Z</time>
      </trkpt>
      <trkpt lat="47.83712" lon="6.89862">
        <ele>1115.9</ele>
        <time>2026-08-27T05:18:18.088Z</time>
      </trkpt>
      <trkpt lat="47.83715" lon="6.89862">
        <ele>1115.7</ele>
        <time>2026-08-27T05:18:20.004Z</time>
      </trkpt>
      <trkpt lat="47.83716" lon="6.89862">
        <ele>1115.6</ele>
        <time>2026-08-27T05:18:21.011Z</time>
      </trkpt>
      <trkpt lat="47.83717" lon="6.89863">
        <ele>1115.4</ele>
        <time>2026-08-27T05:18:22.020Z</time>
      </trkpt>
      <trkpt lat="47.83718" lon="6.89863">
        <ele>1116.5</ele>
        <time>2026-08-27T05:18:23.028Z</time>
      </trkpt>
      <trkpt lat="47.83719" lon="6.89863">
        <ele>1117</ele>
        <time>2026-08-27T05:18:24.035Z</time>
      </trkpt>
      <trkpt lat="47.8372" lon="6.89863">
        <ele>1117</ele>
        <time>2026-08-27T05:18:25.047Z</time>
      </trkpt>
      <trkpt lat="47.83721" lon="6.89863">
        <ele>1117.2</ele>
        <time>2026-08-27T05:18:26.051Z</time>
      </trkpt>
      <trkpt lat="47.83722" lon="6.89864">
        <ele>1117.1</ele>
        <time>2026-08-27T05:18:27.060Z</time>
      </trkpt>
      <trkpt lat="47.83723" lon="6.89864">
        <ele>1117.1</ele>
        <time>2026-08-27T05:18:28.067Z</time>
      </trkpt>
      <trkpt lat="47.83724" lon="6.89863">
        <ele>1117.1</ele>
        <time>2026-08-27T05:18:29.076Z</time>
      </trkpt>
      <trkpt lat="47.83725" lon="6.89863">
        <ele>1116.9</ele>
        <time>2026-08-27T05:18:30.083Z</time>
      </trkpt>
      <trkpt lat="47.83727" lon="6.89861">
        <ele>1117.1</ele>
        <time>2026-08-27T05:18:31.998Z</time>
      </trkpt>
      <trkpt lat="47.83728" lon="6.89861">
        <ele>1117.2</ele>
        <time>2026-08-27T05:18:33.007Z</time>
      </trkpt>
      <trkpt lat="47.83728" lon="6.8986">
        <ele>1117.2</ele>
        <time>2026-08-27T05:18:34.026Z</time>
      </trkpt>
      <trkpt lat="47.8373" lon="6.89859">
        <ele>1117.3</ele>
        <time>2026-08-27T05:18:36.030Z</time>
      </trkpt>
      <trkpt lat="47.8373" lon="6.89858">
        <ele>1117</ele>
        <time>2026-08-27T05:18:37.038Z</time>
      </trkpt>
      <trkpt lat="47.83731" lon="6.89857">
        <ele>1116.5</ele>
        <time>2026-08-27T05:18:38.047Z</time>
      </trkpt>
      <trkpt lat="47.83732" lon="6.89856">
        <ele>1116.4</ele>
        <time>2026-08-27T05:18:39.054Z</time>
      </trkpt>
      <trkpt lat="47.83733" lon="6.89856">
        <ele>1116.2</ele>
        <time>2026-08-27T05:18:40.063Z</time>
      </trkpt>
      <trkpt lat="47.83734" lon="6.89855">
        <ele>1116.2</ele>
        <time>2026-08-27T05:18:41.083Z</time>
      </trkpt>
      <trkpt lat="47.83736" lon="6.89854">
        <ele>1115.2</ele>
        <time>2026-08-27T05:18:43.086Z</time>
      </trkpt>
      <trkpt lat="47.83737" lon="6.89854">
        <ele>1115.1</ele>
        <time>2026-08-27T05:18:44.093Z</time>
      </trkpt>
      <trkpt lat="47.83739" lon="6.89853">
        <ele>1114.5</ele>
        <time>2026-08-27T05:18:46.009Z</time>
      </trkpt>
      <trkpt lat="47.8374" lon="6.89853">
        <ele>1115.4</ele>
        <time>2026-08-27T05:18:47.105Z</time>
      </trkpt>
      <trkpt lat="47.83742" lon="6.89852">
        <ele>1114.6</ele>
        <time>2026-08-27T05:18:49.034Z</time>
      </trkpt>
      <trkpt lat="47.83743" lon="6.89852">
        <ele>1114.5</ele>
        <time>2026-08-27T05:18:50.041Z</time>
      </trkpt>
      <trkpt lat="47.83744" lon="6.89852">
        <ele>1115.4</ele>
        <time>2026-08-27T05:18:51.049Z</time>
      </trkpt>
      <trkpt lat="47.83745" lon="6.89851">
        <ele>1115.9</ele>
        <time>2026-08-27T05:18:52.056Z</time>
      </trkpt>
      <trkpt lat="47.83747" lon="6.89851">
        <ele>1116.5</ele>
        <time>2026-08-27T05:18:54.072Z</time>
      </trkpt>
      <trkpt lat="47.83749" lon="6.89852">
        <ele>1115.6</ele>
        <time>2026-08-27T05:18:56.088Z</time>
      </trkpt>
      <trkpt lat="47.83751" lon="6.89853">
        <ele>1115.3</ele>
        <time>2026-08-27T05:18:58.105Z</time>
      </trkpt>
      <trkpt lat="47.83753" lon="6.89854">
        <ele>1115</ele>
        <time>2026-08-27T05:19:00.020Z</time>
      </trkpt>
      <trkpt lat="47.83755" lon="6.89853">
        <ele>1114.9</ele>
        <time>2026-08-27T05:19:02.035Z</time>
      </trkpt>
      <trkpt lat="47.83755" lon="6.89854">
        <ele>1114.9</ele>
        <time>2026-08-27T05:19:03.043Z</time>
      </trkpt>
      <trkpt lat="47.83756" lon="6.89855">
        <ele>1114.8</ele>
        <time>2026-08-27T05:19:04.052Z</time>
      </trkpt>
      <trkpt lat="47.83758" lon="6.89854">
        <ele>1114.4</ele>
        <time>2026-08-27T05:19:06.068Z</time>
      </trkpt>
      <trkpt lat="47.83759" lon="6.89854">
        <ele>1113.8</ele>
        <time>2026-08-27T05:19:07.076Z</time>
      </trkpt>
      <trkpt lat="47.8376" lon="6.89853">
        <ele>1113.6</ele>
        <time>2026-08-27T05:19:08.083Z</time>
      </trkpt>
      <trkpt lat="47.83761" lon="6.89853">
        <ele>1113.4</ele>
        <time>2026-08-27T05:19:09.091Z</time>
      </trkpt>
      <trkpt lat="47.83762" lon="6.89854">
        <ele>1113.5</ele>
        <time>2026-08-27T05:19:10.943Z</time>
      </trkpt>
      <trkpt lat="47.83763" lon="6.89854">
        <ele>1112.2</ele>
        <time>2026-08-27T05:19:12.015Z</time>
      </trkpt>
      <trkpt lat="47.83764" lon="6.89854">
        <ele>1112.1</ele>
        <time>2026-08-27T05:19:13.022Z</time>
      </trkpt>
      <trkpt lat="47.83765" lon="6.89854">
        <ele>1111.7</ele>
        <time>2026-08-27T05:19:14.030Z</time>
      </trkpt>
      <trkpt lat="47.83765" lon="6.89854">
        <ele>1112.2</ele>
        <time>2026-08-27T05:19:15.038Z</time>
      </trkpt>
      <trkpt lat="47.83766" lon="6.89854">
        <ele>1112.2</ele>
        <time>2026-08-27T05:19:16.059Z</time>
      </trkpt>
      <trkpt lat="47.83767" lon="6.89855">
        <ele>1111</ele>
        <time>2026-08-27T05:19:18.063Z</time>
      </trkpt>
      <trkpt lat="47.83769" lon="6.89856">
        <ele>1111.5</ele>
        <time>2026-08-27T05:19:20.079Z</time>
      </trkpt>
      <trkpt lat="47.83769" lon="6.89856">
        <ele>1111.7</ele>
        <time>2026-08-27T05:19:21.087Z</time>
      </trkpt>
      <trkpt lat="47.8377" lon="6.89857">
        <ele>1112</ele>
        <time>2026-08-27T05:19:23.001Z</time>
      </trkpt>
      <trkpt lat="47.8377" lon="6.89858">
        <ele>1112</ele>
        <time>2026-08-27T05:19:24.039Z</time>
      </trkpt>
      <trkpt lat="47.83772" lon="6.89858">
        <ele>1110.8</ele>
        <time>2026-08-27T05:19:26.004Z</time>
      </trkpt>
      <trkpt lat="47.83772" lon="6.89858">
        <ele>1110.4</ele>
        <time>2026-08-27T05:19:27.033Z</time>
      </trkpt>
      <trkpt lat="47.83773" lon="6.89858">
        <ele>1110</ele>
        <time>2026-08-27T05:19:28.041Z</time>
      </trkpt>
      <trkpt lat="47.83774" lon="6.89858">
        <ele>1109.9</ele>
        <time>2026-08-27T05:19:29.049Z</time>
      </trkpt>
      <trkpt lat="47.83775" lon="6.89858">
        <ele>1109.7</ele>
        <time>2026-08-27T05:19:30.057Z</time>
      </trkpt>
      <trkpt lat="47.83776" lon="6.89859">
        <ele>1109.5</ele>
        <time>2026-08-27T05:19:31.065Z</time>
      </trkpt>
      <trkpt lat="47.83777" lon="6.8986">
        <ele>1109.3</ele>
        <time>2026-08-27T05:19:32.074Z</time>
      </trkpt>
      <trkpt lat="47.83777" lon="6.89861">
        <ele>1109.1</ele>
        <time>2026-08-27T05:19:33.081Z</time>
      </trkpt>
      <trkpt lat="47.83778" lon="6.89861">
        <ele>1108.8</ele>
        <time>2026-08-27T05:19:34.090Z</time>
      </trkpt>
      <trkpt lat="47.83779" lon="6.8986">
        <ele>1108.4</ele>
        <time>2026-08-27T05:19:35.098Z</time>
      </trkpt>
      <trkpt lat="47.8378" lon="6.89859">
        <ele>1107.8</ele>
        <time>2026-08-27T05:19:37.025Z</time>
      </trkpt>
      <trkpt lat="47.83782" lon="6.8986">
        <ele>1107.3</ele>
        <time>2026-08-27T05:19:39.029Z</time>
      </trkpt>
      <trkpt lat="47.83782" lon="6.89861">
        <ele>1107.3</ele>
        <time>2026-08-27T05:19:40.041Z</time>
      </trkpt>
      <trkpt lat="47.83783" lon="6.89863">
        <ele>1106.2</ele>
        <time>2026-08-27T05:19:41.045Z</time>
      </trkpt>
      <trkpt lat="47.83785" lon="6.89865">
        <ele>1106.3</ele>
        <time>2026-08-27T05:19:43.099Z</time>
      </trkpt>
      <trkpt lat="47.83786" lon="6.89866">
        <ele>1105.4</ele>
        <time>2026-08-27T05:19:45.077Z</time>
      </trkpt>
      <trkpt lat="47.83787" lon="6.89866">
        <ele>1104.9</ele>
        <time>2026-08-27T05:19:46.084Z</time>
      </trkpt>
      <trkpt lat="47.83788" lon="6.89866">
        <ele>1104.8</ele>
        <time>2026-08-27T05:19:47.092Z</time>
      </trkpt>
      <trkpt lat="47.83789" lon="6.89866">
        <ele>1104.6</ele>
        <time>2026-08-27T05:19:48.962Z</time>
      </trkpt>
      <trkpt lat="47.8379" lon="6.89866">
        <ele>1105.7</ele>
        <time>2026-08-27T05:19:50.015Z</time>
      </trkpt>
      <trkpt lat="47.83791" lon="6.89867">
        <ele>1105.8</ele>
        <time>2026-08-27T05:19:51.023Z</time>
      </trkpt>
      <trkpt lat="47.83793" lon="6.89867">
        <ele>1105.1</ele>
        <time>2026-08-27T05:19:53.039Z</time>
      </trkpt>
      <trkpt lat="47.83793" lon="6.89868">
        <ele>1104.8</ele>
        <time>2026-08-27T05:19:54.047Z</time>
      </trkpt>
      <trkpt lat="47.83795" lon="6.89869">
        <ele>1104.2</ele>
        <time>2026-08-27T05:19:56.063Z</time>
      </trkpt>
      <trkpt lat="47.83796" lon="6.89869">
        <ele>1103.9</ele>
        <time>2026-08-27T05:19:57.071Z</time>
      </trkpt>
      <trkpt lat="47.83797" lon="6.89869">
        <ele>1103.7</ele>
        <time>2026-08-27T05:19:58.079Z</time>
      </trkpt>
      <trkpt lat="47.83799" lon="6.89869">
        <ele>1103.4</ele>
        <time>2026-08-27T05:19:59.994Z</time>
      </trkpt>
      <trkpt lat="47.838" lon="6.89869">
        <ele>1103.4</ele>
        <time>2026-08-27T05:20:01.040Z</time>
      </trkpt>
      <trkpt lat="47.83802" lon="6.89869">
        <ele>1103</ele>
        <time>2026-08-27T05:20:03.018Z</time>
      </trkpt>
      <trkpt lat="47.83803" lon="6.89869">
        <ele>1102.6</ele>
        <time>2026-08-27T05:20:04.026Z</time>
      </trkpt>
      <trkpt lat="47.83805" lon="6.8987">
        <ele>1101.9</ele>
        <time>2026-08-27T05:20:06.042Z</time>
      </trkpt>
      <trkpt lat="47.83806" lon="6.8987">
        <ele>1101.9</ele>
        <time>2026-08-27T05:20:07.050Z</time>
      </trkpt>
      <trkpt lat="47.83807" lon="6.89871">
        <ele>1101.9</ele>
        <time>2026-08-27T05:20:08.062Z</time>
      </trkpt>
      <trkpt lat="47.83808" lon="6.89871">
        <ele>1101</ele>
        <time>2026-08-27T05:20:09.067Z</time>
      </trkpt>
      <trkpt lat="47.83809" lon="6.89871">
        <ele>1100.6</ele>
        <time>2026-08-27T05:20:10.074Z</time>
      </trkpt>
      <trkpt lat="47.83809" lon="6.89871">
        <ele>1100.4</ele>
        <time>2026-08-27T05:20:11.082Z</time>
      </trkpt>
      <trkpt lat="47.83811" lon="6.89872">
        <ele>1100</ele>
        <time>2026-08-27T05:20:13.098Z</time>
      </trkpt>
      <trkpt lat="47.83812" lon="6.89871">
        <ele>1100</ele>
        <time>2026-08-27T05:20:14.102Z</time>
      </trkpt>
      <trkpt lat="47.83813" lon="6.89872">
        <ele>1099.4</ele>
        <time>2026-08-27T05:20:16.022Z</time>
      </trkpt>
      <trkpt lat="47.83815" lon="6.89873">
        <ele>1099.1</ele>
        <time>2026-08-27T05:20:17.999Z</time>
      </trkpt>
      <trkpt lat="47.83816" lon="6.89874">
        <ele>1100.1</ele>
        <time>2026-08-27T05:20:19.046Z</time>
      </trkpt>
      <trkpt lat="47.83817" lon="6.89874">
        <ele>1099.9</ele>
        <time>2026-08-27T05:20:20.053Z</time>
      </trkpt>
      <trkpt lat="47.83818" lon="6.89875">
        <ele>1099.9</ele>
        <time>2026-08-27T05:20:21.082Z</time>
      </trkpt>
      <trkpt lat="47.83819" lon="6.89874">
        <ele>1099.4</ele>
        <time>2026-08-27T05:20:23.077Z</time>
      </trkpt>
      <trkpt lat="47.8382" lon="6.89874">
        <ele>1099.2</ele>
        <time>2026-08-27T05:20:24.085Z</time>
      </trkpt>
      <trkpt lat="47.83822" lon="6.89874">
        <ele>1099</ele>
        <time>2026-08-27T05:20:25.093Z</time>
      </trkpt>
      <trkpt lat="47.83822" lon="6.89875">
        <ele>1098.7</ele>
        <time>2026-08-27T05:20:26.102Z</time>
      </trkpt>
      <trkpt lat="47.83824" lon="6.89876">
        <ele>1098.2</ele>
        <time>2026-08-27T05:20:28.016Z</time>
      </trkpt>
      <trkpt lat="47.83825" lon="6.89876">
        <ele>1098.5</ele>
        <time>2026-08-27T05:20:29.024Z</time>
      </trkpt>
      <trkpt lat="47.83827" lon="6.89877">
        <ele>1098.3</ele>
        <time>2026-08-27T05:20:30.032Z</time>
      </trkpt>
      <trkpt lat="47.83828" lon="6.89877">
        <ele>1098.3</ele>
        <time>2026-08-27T05:20:31.044Z</time>
      </trkpt>
      <trkpt lat="47.83829" lon="6.89878">
        <ele>1097.6</ele>
        <time>2026-08-27T05:20:32.048Z</time>
      </trkpt>
      <trkpt lat="47.8383" lon="6.89878">
        <ele>1097.8</ele>
        <time>2026-08-27T05:20:33.056Z</time>
      </trkpt>
      <trkpt lat="47.83831" lon="6.89879">
        <ele>1097.4</ele>
        <time>2026-08-27T05:20:34.064Z</time>
      </trkpt>
      <trkpt lat="47.83832" lon="6.89879">
        <ele>1097.2</ele>
        <time>2026-08-27T05:20:35.073Z</time>
      </trkpt>
      <trkpt lat="47.83833" lon="6.8988">
        <ele>1096.9</ele>
        <time>2026-08-27T05:20:36.080Z</time>
      </trkpt>
      <trkpt lat="47.83835" lon="6.89882">
        <ele>1097</ele>
        <time>2026-08-27T05:20:38.084Z</time>
      </trkpt>
      <trkpt lat="47.83837" lon="6.89884">
        <ele>1095.9</ele>
        <time>2026-08-27T05:20:40.040Z</time>
      </trkpt>
      <trkpt lat="47.83838" lon="6.89886">
        <ele>1094.9</ele>
        <time>2026-08-27T05:20:42.027Z</time>
      </trkpt>
      <trkpt lat="47.83839" lon="6.89887">
        <ele>1095.3</ele>
        <time>2026-08-27T05:20:43.035Z</time>
      </trkpt>
      <trkpt lat="47.83841" lon="6.89889">
        <ele>1094.9</ele>
        <time>2026-08-27T05:20:45.050Z</time>
      </trkpt>
      <trkpt lat="47.83842" lon="6.89892">
        <ele>1094.3</ele>
        <time>2026-08-27T05:20:47.066Z</time>
      </trkpt>
      <trkpt lat="47.83842" lon="6.89893">
        <ele>1095.3</ele>
        <time>2026-08-27T05:20:48.074Z</time>
      </trkpt>
      <trkpt lat="47.83843" lon="6.89895">
        <ele>1095.4</ele>
        <time>2026-08-27T05:20:49.082Z</time>
      </trkpt>
      <trkpt lat="47.83843" lon="6.89897">
        <ele>1095.3</ele>
        <time>2026-08-27T05:20:50.999Z</time>
      </trkpt>
      <trkpt lat="47.83844" lon="6.89899">
        <ele>1095.3</ele>
        <time>2026-08-27T05:20:52.001Z</time>
      </trkpt>
      <trkpt lat="47.83844" lon="6.899">
        <ele>1095.1</ele>
        <time>2026-08-27T05:20:53.014Z</time>
      </trkpt>
      <trkpt lat="47.83845" lon="6.89901">
        <ele>1095</ele>
        <time>2026-08-27T05:20:54.021Z</time>
      </trkpt>
      <trkpt lat="47.83846" lon="6.89903">
        <ele>1094.8</ele>
        <time>2026-08-27T05:20:55.030Z</time>
      </trkpt>
      <trkpt lat="47.83847" lon="6.89904">
        <ele>1094.3</ele>
        <time>2026-08-27T05:20:56.058Z</time>
      </trkpt>
      <trkpt lat="47.83848" lon="6.89907">
        <ele>1094.3</ele>
        <time>2026-08-27T05:20:58.110Z</time>
      </trkpt>
      <trkpt lat="47.8385" lon="6.89908">
        <ele>1094.6</ele>
        <time>2026-08-27T05:21:00.090Z</time>
      </trkpt>
      <trkpt lat="47.83852" lon="6.89909">
        <ele>1094</ele>
        <time>2026-08-27T05:21:02.107Z</time>
      </trkpt>
      <trkpt lat="47.83855" lon="6.89911">
        <ele>1094</ele>
        <time>2026-08-27T05:21:03.972Z</time>
      </trkpt>
      <trkpt lat="47.83856" lon="6.89911">
        <ele>1093.9</ele>
        <time>2026-08-27T05:21:05.029Z</time>
      </trkpt>
      <trkpt lat="47.83858" lon="6.89911">
        <ele>1093.4</ele>
        <time>2026-08-27T05:21:07.046Z</time>
      </trkpt>
      <trkpt lat="47.8386" lon="6.89911">
        <ele>1093.2</ele>
        <time>2026-08-27T05:21:08.053Z</time>
      </trkpt>
      <trkpt lat="47.83861" lon="6.89911">
        <ele>1093.2</ele>
        <time>2026-08-27T05:21:09.061Z</time>
      </trkpt>
      <trkpt lat="47.83862" lon="6.89911">
        <ele>1093</ele>
        <time>2026-08-27T05:21:10.070Z</time>
      </trkpt>
      <trkpt lat="47.83863" lon="6.89911">
        <ele>1093</ele>
        <time>2026-08-27T05:21:11.094Z</time>
      </trkpt>
      <trkpt lat="47.83866" lon="6.89912">
        <ele>1092.8</ele>
        <time>2026-08-27T05:21:13.093Z</time>
      </trkpt>
      <trkpt lat="47.83867" lon="6.89914">
        <ele>1092.8</ele>
        <time>2026-08-27T05:21:15.008Z</time>
      </trkpt>
      <trkpt lat="47.83868" lon="6.89915">
        <ele>1092.5</ele>
        <time>2026-08-27T05:21:16.016Z</time>
      </trkpt>
      <trkpt lat="47.83868" lon="6.89917">
        <ele>1092.6</ele>
        <time>2026-08-27T05:21:18.033Z</time>
      </trkpt>
      <trkpt lat="47.83869" lon="6.89918">
        <ele>1092.8</ele>
        <time>2026-08-27T05:21:19.040Z</time>
      </trkpt>
      <trkpt lat="47.83869" lon="6.8992">
        <ele>1093.2</ele>
        <time>2026-08-27T05:21:20.049Z</time>
      </trkpt>
      <trkpt lat="47.83869" lon="6.89921">
        <ele>1093.1</ele>
        <time>2026-08-27T05:21:21.060Z</time>
      </trkpt>
      <trkpt lat="47.8387" lon="6.89922">
        <ele>1093.1</ele>
        <time>2026-08-27T05:21:22.068Z</time>
      </trkpt>
      <trkpt lat="47.8387" lon="6.89924">
        <ele>1093</ele>
        <time>2026-08-27T05:21:23.076Z</time>
      </trkpt>
      <trkpt lat="47.8387" lon="6.89925">
        <ele>1093.1</ele>
        <time>2026-08-27T05:21:24.084Z</time>
      </trkpt>
      <trkpt lat="47.8387" lon="6.89926">
        <ele>1093.3</ele>
        <time>2026-08-27T05:21:25.093Z</time>
      </trkpt>
      <trkpt lat="47.83871" lon="6.89927">
        <ele>1093.3</ele>
        <time>2026-08-27T05:21:26.101Z</time>
      </trkpt>
      <trkpt lat="47.83872" lon="6.89929">
        <ele>1093.3</ele>
        <time>2026-08-27T05:21:28.015Z</time>
      </trkpt>
      <trkpt lat="47.83872" lon="6.8993">
        <ele>1093.6</ele>
        <time>2026-08-27T05:21:29.023Z</time>
      </trkpt>
      <trkpt lat="47.83873" lon="6.89931">
        <ele>1093.4</ele>
        <time>2026-08-27T05:21:30.031Z</time>
      </trkpt>
      <trkpt lat="47.83874" lon="6.89931">
        <ele>1093.4</ele>
        <time>2026-08-27T05:21:31.039Z</time>
      </trkpt>
      <trkpt lat="47.83875" lon="6.89932">
        <ele>1093.2</ele>
        <time>2026-08-27T05:21:32.047Z</time>
      </trkpt>
      <trkpt lat="47.83876" lon="6.89933">
        <ele>1093.4</ele>
        <time>2026-08-27T05:21:33.055Z</time>
      </trkpt>
      <trkpt lat="47.83877" lon="6.89933">
        <ele>1093</ele>
        <time>2026-08-27T05:21:34.063Z</time>
      </trkpt>
      <trkpt lat="47.83879" lon="6.89935">
        <ele>1093.3</ele>
        <time>2026-08-27T05:21:36.079Z</time>
      </trkpt>
      <trkpt lat="47.83879" lon="6.89935">
        <ele>1093.1</ele>
        <time>2026-08-27T05:21:37.088Z</time>
      </trkpt>
      <trkpt lat="47.83881" lon="6.89937">
        <ele>1093.3</ele>
        <time>2026-08-27T05:21:38.905Z</time>
      </trkpt>
      <trkpt lat="47.83882" lon="6.89938">
        <ele>1093.1</ele>
        <time>2026-08-27T05:21:40.010Z</time>
      </trkpt>
      <trkpt lat="47.83883" lon="6.89938">
        <ele>1092.9</ele>
        <time>2026-08-27T05:21:41.018Z</time>
      </trkpt>
      <trkpt lat="47.83884" lon="6.89939">
        <ele>1093.6</ele>
        <time>2026-08-27T05:21:42.026Z</time>
      </trkpt>
      <trkpt lat="47.83885" lon="6.8994">
        <ele>1093.6</ele>
        <time>2026-08-27T05:21:43.035Z</time>
      </trkpt>
      <trkpt lat="47.83886" lon="6.8994">
        <ele>1093.6</ele>
        <time>2026-08-27T05:21:44.042Z</time>
      </trkpt>
      <trkpt lat="47.83888" lon="6.89942">
        <ele>1093.7</ele>
        <time>2026-08-27T05:21:46.059Z</time>
      </trkpt>
      <trkpt lat="47.83889" lon="6.89942">
        <ele>1093.8</ele>
        <time>2026-08-27T05:21:47.067Z</time>
      </trkpt>
      <trkpt lat="47.8389" lon="6.89943">
        <ele>1094.2</ele>
        <time>2026-08-27T05:21:48.075Z</time>
      </trkpt>
      <trkpt lat="47.83891" lon="6.89944">
        <ele>1094.1</ele>
        <time>2026-08-27T05:21:49.082Z</time>
      </trkpt>
      <trkpt lat="47.83891" lon="6.89944">
        <ele>1094.4</ele>
        <time>2026-08-27T05:21:50.090Z</time>
      </trkpt>
      <trkpt lat="47.83892" lon="6.89945">
        <ele>1094.8</ele>
        <time>2026-08-27T05:21:51.099Z</time>
      </trkpt>
      <trkpt lat="47.83894" lon="6.89946">
        <ele>1094.7</ele>
        <time>2026-08-27T05:21:53.084Z</time>
      </trkpt>
      <trkpt lat="47.83895" lon="6.89947">
        <ele>1095.2</ele>
        <time>2026-08-27T05:21:55.029Z</time>
      </trkpt>
      <trkpt lat="47.83896" lon="6.89947">
        <ele>1095.5</ele>
        <time>2026-08-27T05:21:56.037Z</time>
      </trkpt>
      <trkpt lat="47.83897" lon="6.89947">
        <ele>1095.5</ele>
        <time>2026-08-27T05:21:57.066Z</time>
      </trkpt>
      <trkpt lat="47.83898" lon="6.89948">
        <ele>1094.6</ele>
        <time>2026-08-27T05:21:59.061Z</time>
      </trkpt>
      <trkpt lat="47.83899" lon="6.89948">
        <ele>1095.2</ele>
        <time>2026-08-27T05:22:00.069Z</time>
      </trkpt>
      <trkpt lat="47.839" lon="6.89948">
        <ele>1095.5</ele>
        <time>2026-08-27T05:22:01.077Z</time>
      </trkpt>
      <trkpt lat="47.839" lon="6.89949">
        <ele>1095.2</ele>
        <time>2026-08-27T05:22:02.086Z</time>
      </trkpt>
      <trkpt lat="47.83901" lon="6.89949">
        <ele>1095.3</ele>
        <time>2026-08-27T05:22:03.092Z</time>
      </trkpt>
      <trkpt lat="47.83903" lon="6.8995">
        <ele>1095.5</ele>
        <time>2026-08-27T05:22:05.008Z</time>
      </trkpt>
      <trkpt lat="47.83904" lon="6.8995">
        <ele>1095.5</ele>
        <time>2026-08-27T05:22:06.029Z</time>
      </trkpt>
      <trkpt lat="47.83907" lon="6.89951">
        <ele>1094.8</ele>
        <time>2026-08-27T05:22:08.032Z</time>
      </trkpt>
      <trkpt lat="47.83908" lon="6.89951">
        <ele>1094.8</ele>
        <time>2026-08-27T05:22:09.039Z</time>
      </trkpt>
      <trkpt lat="47.83909" lon="6.89952">
        <ele>1094.5</ele>
        <time>2026-08-27T05:22:10.047Z</time>
      </trkpt>
      <trkpt lat="47.8391" lon="6.89952">
        <ele>1094.5</ele>
        <time>2026-08-27T05:22:11.068Z</time>
      </trkpt>
      <trkpt lat="47.83911" lon="6.89954">
        <ele>1094.9</ele>
        <time>2026-08-27T05:22:13.071Z</time>
      </trkpt>
      <trkpt lat="47.83913" lon="6.89955">
        <ele>1095.3</ele>
        <time>2026-08-27T05:22:15.007Z</time>
      </trkpt>
      <trkpt lat="47.83913" lon="6.89956">
        <ele>1095.4</ele>
        <time>2026-08-27T05:22:16.095Z</time>
      </trkpt>
      <trkpt lat="47.83914" lon="6.89957">
        <ele>1095.7</ele>
        <time>2026-08-27T05:22:18.111Z</time>
      </trkpt>
      <trkpt lat="47.83915" lon="6.89957">
        <ele>1096.2</ele>
        <time>2026-08-27T05:22:20.026Z</time>
      </trkpt>
      <trkpt lat="47.83917" lon="6.89958">
        <ele>1096.1</ele>
        <time>2026-08-27T05:22:22.042Z</time>
      </trkpt>
      <trkpt lat="47.83917" lon="6.89958">
        <ele>1096.1</ele>
        <time>2026-08-27T05:22:23.088Z</time>
      </trkpt>
      <trkpt lat="47.83919" lon="6.89959">
        <ele>1097</ele>
        <time>2026-08-27T05:22:25.066Z</time>
      </trkpt>
      <trkpt lat="47.8392" lon="6.89959">
        <ele>1096.4</ele>
        <time>2026-08-27T05:22:26.074Z</time>
      </trkpt>
      <trkpt lat="47.83921" lon="6.8996">
        <ele>1095.8</ele>
        <time>2026-08-27T05:22:27.083Z</time>
      </trkpt>
      <trkpt lat="47.83922" lon="6.89961">
        <ele>1095.7</ele>
        <time>2026-08-27T05:22:28.091Z</time>
      </trkpt>
      <trkpt lat="47.83923" lon="6.89962">
        <ele>1095.7</ele>
        <time>2026-08-27T05:22:29.098Z</time>
      </trkpt>
      <trkpt lat="47.83925" lon="6.89965">
        <ele>1095.8</ele>
        <time>2026-08-27T05:22:31.093Z</time>
      </trkpt>
      <trkpt lat="47.83926" lon="6.89966">
        <ele>1096.4</ele>
        <time>2026-08-27T05:22:32.932Z</time>
      </trkpt>
      <trkpt lat="47.83927" lon="6.89967">
        <ele>1096.5</ele>
        <time>2026-08-27T05:22:34.037Z</time>
      </trkpt>
      <trkpt lat="47.83928" lon="6.89968">
        <ele>1096.3</ele>
        <time>2026-08-27T05:22:35.045Z</time>
      </trkpt>
      <trkpt lat="47.83928" lon="6.89969">
        <ele>1096.2</ele>
        <time>2026-08-27T05:22:36.091Z</time>
      </trkpt>
      <trkpt lat="47.83929" lon="6.89972">
        <ele>1096</ele>
        <time>2026-08-27T05:22:37.998Z</time>
      </trkpt>
      <trkpt lat="47.83929" lon="6.89973">
        <ele>1095.8</ele>
        <time>2026-08-27T05:22:39.077Z</time>
      </trkpt>
      <trkpt lat="47.8393" lon="6.89974">
        <ele>1096</ele>
        <time>2026-08-27T05:22:40.085Z</time>
      </trkpt>
      <trkpt lat="47.83931" lon="6.89977">
        <ele>1096.1</ele>
        <time>2026-08-27T05:22:42.101Z</time>
      </trkpt>
      <trkpt lat="47.83932" lon="6.89979">
        <ele>1096.5</ele>
        <time>2026-08-27T05:22:44.016Z</time>
      </trkpt>
      <trkpt lat="47.83933" lon="6.8998">
        <ele>1096.5</ele>
        <time>2026-08-27T05:22:45.024Z</time>
      </trkpt>
      <trkpt lat="47.83935" lon="6.89982">
        <ele>1096.9</ele>
        <time>2026-08-27T05:22:47.040Z</time>
      </trkpt>
      <trkpt lat="47.83936" lon="6.89983">
        <ele>1097.1</ele>
        <time>2026-08-27T05:22:48.049Z</time>
      </trkpt>
      <trkpt lat="47.83937" lon="6.89984">
        <ele>1097.3</ele>
        <time>2026-08-27T05:22:49.057Z</time>
      </trkpt>
      <trkpt lat="47.83938" lon="6.89985">
        <ele>1097.2</ele>
        <time>2026-08-27T05:22:50.065Z</time>
      </trkpt>
      <trkpt lat="47.83939" lon="6.89986">
        <ele>1097.3</ele>
        <time>2026-08-27T05:22:51.072Z</time>
      </trkpt>
      <trkpt lat="47.8394" lon="6.89987">
        <ele>1097.2</ele>
        <time>2026-08-27T05:22:52.079Z</time>
      </trkpt>
      <trkpt lat="47.8394" lon="6.89988">
        <ele>1097.7</ele>
        <time>2026-08-27T05:22:53.087Z</time>
      </trkpt>
      <trkpt lat="47.83941" lon="6.89988">
        <ele>1097.5</ele>
        <time>2026-08-27T05:22:54.096Z</time>
      </trkpt>
      <trkpt lat="47.83942" lon="6.8999">
        <ele>1097.2</ele>
        <time>2026-08-27T05:22:55.949Z</time>
      </trkpt>
      <trkpt lat="47.83943" lon="6.89991">
        <ele>1097.2</ele>
        <time>2026-08-27T05:22:57.018Z</time>
      </trkpt>
      <trkpt lat="47.83944" lon="6.89992">
        <ele>1097.3</ele>
        <time>2026-08-27T05:22:58.026Z</time>
      </trkpt>
      <trkpt lat="47.83945" lon="6.89993">
        <ele>1097.4</ele>
        <time>2026-08-27T05:22:59.035Z</time>
      </trkpt>
      <trkpt lat="47.83945" lon="6.89994">
        <ele>1097.7</ele>
        <time>2026-08-27T05:23:00.043Z</time>
      </trkpt>
      <trkpt lat="47.83946" lon="6.89995">
        <ele>1097.8</ele>
        <time>2026-08-27T05:23:01.051Z</time>
      </trkpt>
      <trkpt lat="47.83946" lon="6.89995">
        <ele>1097.9</ele>
        <time>2026-08-27T05:23:02.058Z</time>
      </trkpt>
      <trkpt lat="47.83945" lon="6.89995">
        <ele>1098</ele>
        <time>2026-08-27T05:23:03.066Z</time>
      </trkpt>
      <trkpt lat="47.83945" lon="6.89994">
        <ele>1097.7</ele>
        <time>2026-08-27T05:23:04.981Z</time>
      </trkpt>
      <trkpt lat="47.83945" lon="6.89994">
        <ele>1097.4</ele>
        <time>2026-08-27T05:23:05.990Z</time>
      </trkpt>
      <trkpt lat="47.83947" lon="6.89996">
        <ele>1097.1</ele>
        <time>2026-08-27T05:23:08.005Z</time>
      </trkpt>
      <trkpt lat="47.83948" lon="6.89997">
        <ele>1097.4</ele>
        <time>2026-08-27T05:23:09.014Z</time>
      </trkpt>
      <trkpt lat="47.83949" lon="6.89998">
        <ele>1097.2</ele>
        <time>2026-08-27T05:23:10.022Z</time>
      </trkpt>
      <trkpt lat="47.8395" lon="6.89998">
        <ele>1097.4</ele>
        <time>2026-08-27T05:23:11.031Z</time>
      </trkpt>
      <trkpt lat="47.83951" lon="6.89999">
        <ele>1097.7</ele>
        <time>2026-08-27T05:23:12.038Z</time>
      </trkpt>
      <trkpt lat="47.83952" lon="6.9">
        <ele>1097.7</ele>
        <time>2026-08-27T05:23:13.047Z</time>
      </trkpt>
      <trkpt lat="47.83953" lon="6.90001">
        <ele>1097.7</ele>
        <time>2026-08-27T05:23:14.066Z</time>
      </trkpt>
      <trkpt lat="47.83954" lon="6.90002">
        <ele>1098</ele>
        <time>2026-08-27T05:23:15.293Z</time>
      </trkpt>
      <trkpt lat="47.83955" lon="6.90003">
        <ele>1098.2</ele>
        <time>2026-08-27T05:23:16.487Z</time>
      </trkpt>
      <trkpt lat="47.83956" lon="6.90004">
        <ele>1098.4</ele>
        <time>2026-08-27T05:23:17.788Z</time>
      </trkpt>
      <trkpt lat="47.83957" lon="6.90005">
        <ele>1098.6</ele>
        <time>2026-08-27T05:23:18.993Z</time>
      </trkpt>
      <trkpt lat="47.83958" lon="6.90006">
        <ele>1098.4</ele>
        <time>2026-08-27T05:23:20.001Z</time>
      </trkpt>
      <trkpt lat="47.83959" lon="6.90006">
        <ele>1098.5</ele>
        <time>2026-08-27T05:23:21.073Z</time>
      </trkpt>
      <trkpt lat="47.83961" lon="6.90006">
        <ele>1099.2</ele>
        <time>2026-08-27T05:23:23.071Z</time>
      </trkpt>
      <trkpt lat="47.83962" lon="6.90007">
        <ele>1098.4</ele>
        <time>2026-08-27T05:23:25.041Z</time>
      </trkpt>
      <trkpt lat="47.83963" lon="6.90008">
        <ele>1098.6</ele>
        <time>2026-08-27T05:23:26.049Z</time>
      </trkpt>
      <trkpt lat="47.83964" lon="6.90008">
        <ele>1098.5</ele>
        <time>2026-08-27T05:23:27.058Z</time>
      </trkpt>
      <trkpt lat="47.83966" lon="6.90008">
        <ele>1098.4</ele>
        <time>2026-08-27T05:23:28.927Z</time>
      </trkpt>
      <trkpt lat="47.83967" lon="6.90009">
        <ele>1099.1</ele>
        <time>2026-08-27T05:23:29.982Z</time>
      </trkpt>
      <trkpt lat="47.83968" lon="6.90009">
        <ele>1099.2</ele>
        <time>2026-08-27T05:23:30.989Z</time>
      </trkpt>
      <trkpt lat="47.8397" lon="6.9001">
        <ele>1099.2</ele>
        <time>2026-08-27T05:23:33.006Z</time>
      </trkpt>
      <trkpt lat="47.83971" lon="6.9001">
        <ele>1099.1</ele>
        <time>2026-08-27T05:23:34.013Z</time>
      </trkpt>
      <trkpt lat="47.83972" lon="6.9001">
        <ele>1099.1</ele>
        <time>2026-08-27T05:23:35.052Z</time>
      </trkpt>
      <trkpt lat="47.83973" lon="6.9001">
        <ele>1099.2</ele>
        <time>2026-08-27T05:23:36.967Z</time>
      </trkpt>
      <trkpt lat="47.83974" lon="6.9001">
        <ele>1099.1</ele>
        <time>2026-08-27T05:23:37.991Z</time>
      </trkpt>
      <trkpt lat="47.83975" lon="6.90011">
        <ele>1099.4</ele>
        <time>2026-08-27T05:23:39.054Z</time>
      </trkpt>
      <trkpt lat="47.83977" lon="6.90011">
        <ele>1100</ele>
        <time>2026-08-27T05:23:40.970Z</time>
      </trkpt>
      <trkpt lat="47.83977" lon="6.90012">
        <ele>1100.1</ele>
        <time>2026-08-27T05:23:41.977Z</time>
      </trkpt>
      <trkpt lat="47.83978" lon="6.90012">
        <ele>1100.1</ele>
        <time>2026-08-27T05:23:42.985Z</time>
      </trkpt>
      <trkpt lat="47.83978" lon="6.90012">
        <ele>1100.2</ele>
        <time>2026-08-27T05:23:44.090Z</time>
      </trkpt>
      <trkpt lat="47.83978" lon="6.90012">
        <ele>1100.5</ele>
        <time>2026-08-27T05:23:46.009Z</time>
      </trkpt>
      <trkpt lat="47.83978" lon="6.90012">
        <ele>1100.7</ele>
        <time>2026-08-27T05:23:47.018Z</time>
      </trkpt>
      <trkpt lat="47.83978" lon="6.90012">
        <ele>1100.7</ele>
        <time>2026-08-27T05:23:48.047Z</time>
      </trkpt>
      <trkpt lat="47.83978" lon="6.90012">
        <ele>1100.5</ele>
        <time>2026-08-27T05:23:49.105Z</time>
      </trkpt>
      <trkpt lat="47.83978" lon="6.90012">
        <ele>1100.5</ele>
        <time>2026-08-27T05:23:50.988Z</time>
      </trkpt>
      <trkpt lat="47.83978" lon="6.90012">
        <ele>1100.8</ele>
        <time>2026-08-27T05:23:52.059Z</time>
      </trkpt>
      <trkpt lat="47.83978" lon="6.90012">
        <ele>1100.6</ele>
        <time>2026-08-27T05:23:53.066Z</time>
      </trkpt>
      <trkpt lat="47.83978" lon="6.90012">
        <ele>1100.3</ele>
        <time>2026-08-27T05:23:54.074Z</time>
      </trkpt>
      <trkpt lat="47.83978" lon="6.90013">
        <ele>1100.3</ele>
        <time>2026-08-27T05:23:55.087Z</time>
      </trkpt>
      <trkpt lat="47.83979" lon="6.90014">
        <ele>1100.6</ele>
        <time>2026-08-27T05:23:56.090Z</time>
      </trkpt>
      <trkpt lat="47.8398" lon="6.90014">
        <ele>1100.6</ele>
        <time>2026-08-27T05:23:57.098Z</time>
      </trkpt>
      <trkpt lat="47.8398" lon="6.90016">
        <ele>1101</ele>
        <time>2026-08-27T05:23:59.026Z</time>
      </trkpt>
      <trkpt lat="47.83981" lon="6.90018">
        <ele>1101.2</ele>
        <time>2026-08-27T05:24:01.030Z</time>
      </trkpt>
      <trkpt lat="47.83981" lon="6.90019">
        <ele>1101.3</ele>
        <time>2026-08-27T05:24:02.039Z</time>
      </trkpt>
      <trkpt lat="47.83982" lon="6.9002">
        <ele>1101.6</ele>
        <time>2026-08-27T05:24:03.046Z</time>
      </trkpt>
      <trkpt lat="47.83982" lon="6.9002">
        <ele>1101.2</ele>
        <time>2026-08-27T05:24:04.054Z</time>
      </trkpt>
      <trkpt lat="47.83983" lon="6.9002">
        <ele>1101.5</ele>
        <time>2026-08-27T05:24:05.062Z</time>
      </trkpt>
      <trkpt lat="47.83983" lon="6.9002">
        <ele>1101.4</ele>
        <time>2026-08-27T05:24:06.070Z</time>
      </trkpt>
      <trkpt lat="47.83983" lon="6.9002">
        <ele>1101.4</ele>
        <time>2026-08-27T05:24:07.091Z</time>
      </trkpt>
      <trkpt lat="47.83984" lon="6.9002">
        <ele>1101.9</ele>
        <time>2026-08-27T05:24:08.994Z</time>
      </trkpt>
      <trkpt lat="47.83984" lon="6.9002">
        <ele>1102.1</ele>
        <time>2026-08-27T05:24:10.003Z</time>
      </trkpt>
      <trkpt lat="47.83985" lon="6.90021">
        <ele>1102.3</ele>
        <time>2026-08-27T05:24:11.011Z</time>
      </trkpt>
      <trkpt lat="47.83985" lon="6.90021">
        <ele>1102.5</ele>
        <time>2026-08-27T05:24:12.018Z</time>
      </trkpt>
      <trkpt lat="47.83985" lon="6.90021">
        <ele>1102.6</ele>
        <time>2026-08-27T05:24:13.026Z</time>
      </trkpt>
      <trkpt lat="47.83985" lon="6.90021">
        <ele>1102.8</ele>
        <time>2026-08-27T05:24:14.035Z</time>
      </trkpt>
      <trkpt lat="47.83986" lon="6.90021">
        <ele>1103</ele>
        <time>2026-08-27T05:24:15.042Z</time>
      </trkpt>
      <trkpt lat="47.83986" lon="6.90021">
        <ele>1103.3</ele>
        <time>2026-08-27T05:24:16.050Z</time>
      </trkpt>
      <trkpt lat="47.83986" lon="6.90022">
        <ele>1103.4</ele>
        <time>2026-08-27T05:24:17.058Z</time>
      </trkpt>
      <trkpt lat="47.83986" lon="6.90022">
        <ele>1103.8</ele>
        <time>2026-08-27T05:24:18.066Z</time>
      </trkpt>
      <trkpt lat="47.83986" lon="6.90023">
        <ele>1103.7</ele>
        <time>2026-08-27T05:24:19.074Z</time>
      </trkpt>
      <trkpt lat="47.83986" lon="6.90024">
        <ele>1104</ele>
        <time>2026-08-27T05:24:20.082Z</time>
      </trkpt>
      <trkpt lat="47.83986" lon="6.90027">
        <ele>1104</ele>
        <time>2026-08-27T05:24:21.998Z</time>
      </trkpt>
      <trkpt lat="47.83986" lon="6.90028">
        <ele>1104.1</ele>
        <time>2026-08-27T05:24:23.006Z</time>
      </trkpt>
      <trkpt lat="47.83986" lon="6.9003">
        <ele>1104.3</ele>
        <time>2026-08-27T05:24:25.022Z</time>
      </trkpt>
      <trkpt lat="47.83986" lon="6.90031">
        <ele>1104.5</ele>
        <time>2026-08-27T05:24:26.030Z</time>
      </trkpt>
      <trkpt lat="47.83986" lon="6.90032">
        <ele>1104.6</ele>
        <time>2026-08-27T05:24:27.037Z</time>
      </trkpt>
      <trkpt lat="47.83987" lon="6.90032">
        <ele>1104.7</ele>
        <time>2026-08-27T05:24:28.045Z</time>
      </trkpt>
      <trkpt lat="47.83987" lon="6.90032">
        <ele>1104.7</ele>
        <time>2026-08-27T05:24:29.053Z</time>
      </trkpt>
      <trkpt lat="47.83988" lon="6.90033">
        <ele>1104.9</ele>
        <time>2026-08-27T05:24:30.061Z</time>
      </trkpt>
      <trkpt lat="47.83988" lon="6.90033">
        <ele>1105</ele>
        <time>2026-08-27T05:24:31.069Z</time>
      </trkpt>
      <trkpt lat="47.83988" lon="6.90033">
        <ele>1105.2</ele>
        <time>2026-08-27T05:24:32.078Z</time>
      </trkpt>
      <trkpt lat="47.83988" lon="6.90033">
        <ele>1104.9</ele>
        <time>2026-08-27T05:24:34.047Z</time>
      </trkpt>
      <trkpt lat="47.83988" lon="6.90033">
        <ele>1105.3</ele>
        <time>2026-08-27T05:24:36.010Z</time>
      </trkpt>
      <trkpt lat="47.83988" lon="6.90033">
        <ele>1105.5</ele>
        <time>2026-08-27T05:24:37.018Z</time>
      </trkpt>
      <trkpt lat="47.83989" lon="6.90033">
        <ele>1105.8</ele>
        <time>2026-08-27T05:24:38.025Z</time>
      </trkpt>
      <trkpt lat="47.8399" lon="6.90033">
        <ele>1106.3</ele>
        <time>2026-08-27T05:24:39.033Z</time>
      </trkpt>
      <trkpt lat="47.83991" lon="6.90034">
        <ele>1106.1</ele>
        <time>2026-08-27T05:24:40.041Z</time>
      </trkpt>
      <trkpt lat="47.83991" lon="6.90034">
        <ele>1106.3</ele>
        <time>2026-08-27T05:24:41.049Z</time>
      </trkpt>
      <trkpt lat="47.83992" lon="6.90034">
        <ele>1106.7</ele>
        <time>2026-08-27T05:24:42.057Z</time>
      </trkpt>
      <trkpt lat="47.83992" lon="6.90034">
        <ele>1106.9</ele>
        <time>2026-08-27T05:24:43.065Z</time>
      </trkpt>
      <trkpt lat="47.83992" lon="6.90034">
        <ele>1106.7</ele>
        <time>2026-08-27T05:24:44.074Z</time>
      </trkpt>
      <trkpt lat="47.83992" lon="6.90034">
        <ele>1107.2</ele>
        <time>2026-08-27T05:24:45.081Z</time>
      </trkpt>
      <trkpt lat="47.83992" lon="6.90034">
        <ele>1107.2</ele>
        <time>2026-08-27T05:24:46.089Z</time>
      </trkpt>
      <trkpt lat="47.83992" lon="6.90034">
        <ele>1107.3</ele>
        <time>2026-08-27T05:24:47.097Z</time>
      </trkpt>
      <trkpt lat="47.83992" lon="6.90034">
        <ele>1107.3</ele>
        <time>2026-08-27T05:24:49.012Z</time>
      </trkpt>
      <trkpt lat="47.83992" lon="6.90034">
        <ele>1107.2</ele>
        <time>2026-08-27T05:24:50.021Z</time>
      </trkpt>
      <trkpt lat="47.83992" lon="6.90034">
        <ele>1107.1</ele>
        <time>2026-08-27T05:24:51.028Z</time>
      </trkpt>
      <trkpt lat="47.83992" lon="6.90034">
        <ele>1106.9</ele>
        <time>2026-08-27T05:24:52.036Z</time>
      </trkpt>
      <trkpt lat="47.83992" lon="6.90034">
        <ele>1106.9</ele>
        <time>2026-08-27T05:24:53.045Z</time>
      </trkpt>
      <trkpt lat="47.83992" lon="6.90034">
        <ele>1106.7</ele>
        <time>2026-08-27T05:24:54.052Z</time>
      </trkpt>
      <trkpt lat="47.83992" lon="6.90034">
        <ele>1106.7</ele>
        <time>2026-08-27T05:24:55.060Z</time>
      </trkpt>
      <trkpt lat="47.83993" lon="6.90034">
        <ele>1106.7</ele>
        <time>2026-08-27T05:24:56.069Z</time>
      </trkpt>
      <trkpt lat="47.83993" lon="6.90034">
        <ele>1106.6</ele>
        <time>2026-08-27T05:24:57.983Z</time>
      </trkpt>
      <trkpt lat="47.83994" lon="6.90034">
        <ele>1106.4</ele>
        <time>2026-08-27T05:24:58.991Z</time>
      </trkpt>
      <trkpt lat="47.83994" lon="6.90034">
        <ele>1106.4</ele>
        <time>2026-08-27T05:25:00.079Z</time>
      </trkpt>
      <trkpt lat="47.83995" lon="6.90035">
        <ele>1106.9</ele>
        <time>2026-08-27T05:25:02.007Z</time>
      </trkpt>
      <trkpt lat="47.83995" lon="6.90035">
        <ele>1106.8</ele>
        <time>2026-08-27T05:25:03.023Z</time>
      </trkpt>
      <trkpt lat="47.83997" lon="6.90036">
        <ele>1107.4</ele>
        <time>2026-08-27T05:25:05.056Z</time>
      </trkpt>
      <trkpt lat="47.83998" lon="6.90037">
        <ele>1107.4</ele>
        <time>2026-08-27T05:25:06.102Z</time>
      </trkpt>
      <trkpt lat="47.84" lon="6.90039">
        <ele>1108</ele>
        <time>2026-08-27T05:25:08.080Z</time>
      </trkpt>
      <trkpt lat="47.84002" lon="6.9004">
        <ele>1108.1</ele>
        <time>2026-08-27T05:25:09.089Z</time>
      </trkpt>
      <trkpt lat="47.84003" lon="6.90041">
        <ele>1108.2</ele>
        <time>2026-08-27T05:25:10.096Z</time>
      </trkpt>
      <trkpt lat="47.84005" lon="6.90042">
        <ele>1108.3</ele>
        <time>2026-08-27T05:25:12.011Z</time>
      </trkpt>
      <trkpt lat="47.84005" lon="6.90043">
        <ele>1108.5</ele>
        <time>2026-08-27T05:25:13.019Z</time>
      </trkpt>
      <trkpt lat="47.84006" lon="6.90044">
        <ele>1108.7</ele>
        <time>2026-08-27T05:25:14.082Z</time>
      </trkpt>
      <trkpt lat="47.84007" lon="6.90045">
        <ele>1108.9</ele>
        <time>2026-08-27T05:25:16.043Z</time>
      </trkpt>
      <trkpt lat="47.84008" lon="6.90046">
        <ele>1109</ele>
        <time>2026-08-27T05:25:17.051Z</time>
      </trkpt>
      <trkpt lat="47.84008" lon="6.90047">
        <ele>1109.1</ele>
        <time>2026-08-27T05:25:18.059Z</time>
      </trkpt>
      <trkpt lat="47.84009" lon="6.90048">
        <ele>1109.2</ele>
        <time>2026-08-27T05:25:19.067Z</time>
      </trkpt>
      <trkpt lat="47.84009" lon="6.90048">
        <ele>1109.1</ele>
        <time>2026-08-27T05:25:20.075Z</time>
      </trkpt>
      <trkpt lat="47.8401" lon="6.90049">
        <ele>1109.3</ele>
        <time>2026-08-27T05:25:21.919Z</time>
      </trkpt>
      <trkpt lat="47.84011" lon="6.90049">
        <ele>1109.3</ele>
        <time>2026-08-27T05:25:23.000Z</time>
      </trkpt>
      <trkpt lat="47.84011" lon="6.90049">
        <ele>1109.4</ele>
        <time>2026-08-27T05:25:24.007Z</time>
      </trkpt>
      <trkpt lat="47.84012" lon="6.9005">
        <ele>1109.6</ele>
        <time>2026-08-27T05:25:25.015Z</time>
      </trkpt>
      <trkpt lat="47.84012" lon="6.90052">
        <ele>1109.7</ele>
        <time>2026-08-27T05:25:27.031Z</time>
      </trkpt>
      <trkpt lat="47.84013" lon="6.90053">
        <ele>1109.7</ele>
        <time>2026-08-27T05:25:28.039Z</time>
      </trkpt>
      <trkpt lat="47.84013" lon="6.90054">
        <ele>1110.2</ele>
        <time>2026-08-27T05:25:29.047Z</time>
      </trkpt>
      <trkpt lat="47.84013" lon="6.90055">
        <ele>1110.2</ele>
        <time>2026-08-27T05:25:30.056Z</time>
      </trkpt>
      <trkpt lat="47.84014" lon="6.90055">
        <ele>1109.8</ele>
        <time>2026-08-27T05:25:31.063Z</time>
      </trkpt>
      <trkpt lat="47.84014" lon="6.90056">
        <ele>1110.1</ele>
        <time>2026-08-27T05:25:32.071Z</time>
      </trkpt>
      <trkpt lat="47.84014" lon="6.90057">
        <ele>1110.2</ele>
        <time>2026-08-27T05:25:33.080Z</time>
      </trkpt>
      <trkpt lat="47.84014" lon="6.90058">
        <ele>1110.4</ele>
        <time>2026-08-27T05:25:34.087Z</time>
      </trkpt>
      <trkpt lat="47.84014" lon="6.9006">
        <ele>1110.8</ele>
        <time>2026-08-27T05:25:35.095Z</time>
      </trkpt>
      <trkpt lat="47.84014" lon="6.90062">
        <ele>1110.8</ele>
        <time>2026-08-27T05:25:37.010Z</time>
      </trkpt>
      <trkpt lat="47.84015" lon="6.90064">
        <ele>1111.2</ele>
        <time>2026-08-27T05:25:38.018Z</time>
      </trkpt>
      <trkpt lat="47.84015" lon="6.90065">
        <ele>1111.4</ele>
        <time>2026-08-27T05:25:39.027Z</time>
      </trkpt>
      <trkpt lat="47.84015" lon="6.90065">
        <ele>1111.4</ele>
        <time>2026-08-27T05:25:40.038Z</time>
      </trkpt>
      <trkpt lat="47.84016" lon="6.90066">
        <ele>1111.5</ele>
        <time>2026-08-27T05:25:41.042Z</time>
      </trkpt>
      <trkpt lat="47.84016" lon="6.90067">
        <ele>1111.7</ele>
        <time>2026-08-27T05:25:42.051Z</time>
      </trkpt>
      <trkpt lat="47.84016" lon="6.90068">
        <ele>1111.9</ele>
        <time>2026-08-27T05:25:43.058Z</time>
      </trkpt>
      <trkpt lat="47.84017" lon="6.90069">
        <ele>1112.1</ele>
        <time>2026-08-27T05:25:44.067Z</time>
      </trkpt>
      <trkpt lat="47.84017" lon="6.9007">
        <ele>1112.1</ele>
        <time>2026-08-27T05:25:45.137Z</time>
      </trkpt>
      <trkpt lat="47.84017" lon="6.90073">
        <ele>1112.4</ele>
        <time>2026-08-27T05:25:46.990Z</time>
      </trkpt>
      <trkpt lat="47.84018" lon="6.90074">
        <ele>1112.4</ele>
        <time>2026-08-27T05:25:47.997Z</time>
      </trkpt>
      <trkpt lat="47.84018" lon="6.90075">
        <ele>1112.4</ele>
        <time>2026-08-27T05:25:49.076Z</time>
      </trkpt>
      <trkpt lat="47.84019" lon="6.90077">
        <ele>1112.6</ele>
        <time>2026-08-27T05:25:51.021Z</time>
      </trkpt>
      <trkpt lat="47.84019" lon="6.90078">
        <ele>1112.7</ele>
        <time>2026-08-27T05:25:52.030Z</time>
      </trkpt>
      <trkpt lat="47.84019" lon="6.90079">
        <ele>1112.7</ele>
        <time>2026-08-27T05:25:53.038Z</time>
      </trkpt>
      <trkpt lat="47.8402" lon="6.9008">
        <ele>1112.7</ele>
        <time>2026-08-27T05:25:54.045Z</time>
      </trkpt>
      <trkpt lat="47.8402" lon="6.90081">
        <ele>1112.7</ele>
        <time>2026-08-27T05:25:55.053Z</time>
      </trkpt>
      <trkpt lat="47.84021" lon="6.90081">
        <ele>1113</ele>
        <time>2026-08-27T05:25:56.061Z</time>
      </trkpt>
      <trkpt lat="47.84021" lon="6.90081">
        <ele>1113</ele>
        <time>2026-08-27T05:25:57.069Z</time>
      </trkpt>
      <trkpt lat="47.84021" lon="6.90081">
        <ele>1113.6</ele>
        <time>2026-08-27T05:25:58.077Z</time>
      </trkpt>
      <trkpt lat="47.84021" lon="6.9008">
        <ele>1113.5</ele>
        <time>2026-08-27T05:25:59.085Z</time>
      </trkpt>
      <trkpt lat="47.8402" lon="6.9008">
        <ele>1113.2</ele>
        <time>2026-08-27T05:26:00.093Z</time>
      </trkpt>
      <trkpt lat="47.8402" lon="6.9008">
        <ele>1113.2</ele>
        <time>2026-08-27T05:26:01.102Z</time>
      </trkpt>
      <trkpt lat="47.8402" lon="6.9008">
        <ele>1113.5</ele>
        <time>2026-08-27T05:26:03.016Z</time>
      </trkpt>
      <trkpt lat="47.8402" lon="6.9008">
        <ele>1113.7</ele>
        <time>2026-08-27T05:26:04.024Z</time>
      </trkpt>
      <trkpt lat="47.8402" lon="6.9008">
        <ele>1113.6</ele>
        <time>2026-08-27T05:26:05.033Z</time>
      </trkpt>
      <trkpt lat="47.8402" lon="6.9008">
        <ele>1113.8</ele>
        <time>2026-08-27T05:26:06.040Z</time>
      </trkpt>
      <trkpt lat="47.8402" lon="6.90079">
        <ele>1114.3</ele>
        <time>2026-08-27T05:26:07.049Z</time>
      </trkpt>
      <trkpt lat="47.8402" lon="6.90079">
        <ele>1114.5</ele>
        <time>2026-08-27T05:26:08.057Z</time>
      </trkpt>
      <trkpt lat="47.8402" lon="6.90079">
        <ele>1114.5</ele>
        <time>2026-08-27T05:26:09.065Z</time>
      </trkpt>
      <trkpt lat="47.8402" lon="6.90079">
        <ele>1114.5</ele>
        <time>2026-08-27T05:26:10.980Z</time>
      </trkpt>
      <trkpt lat="47.8402" lon="6.90079">
        <ele>1114.6</ele>
        <time>2026-08-27T05:26:11.988Z</time>
      </trkpt>
      <trkpt lat="47.8402" lon="6.90079">
        <ele>1114.7</ele>
        <time>2026-08-27T05:26:12.995Z</time>
      </trkpt>
      <trkpt lat="47.8402" lon="6.90079">
        <ele>1114.8</ele>
        <time>2026-08-27T05:26:14.003Z</time>
      </trkpt>
      <trkpt lat="47.8402" lon="6.90079">
        <ele>1114.7</ele>
        <time>2026-08-27T05:26:15.011Z</time>
      </trkpt>
      <trkpt lat="47.8402" lon="6.90079">
        <ele>1114.7</ele>
        <time>2026-08-27T05:26:16.019Z</time>
      </trkpt>
      <trkpt lat="47.8402" lon="6.90079">
        <ele>1114.6</ele>
        <time>2026-08-27T05:26:17.027Z</time>
      </trkpt>
      <trkpt lat="47.8402" lon="6.90079">
        <ele>1114.5</ele>
        <time>2026-08-27T05:26:18.035Z</time>
      </trkpt>
      <trkpt lat="47.8402" lon="6.90079">
        <ele>1114.5</ele>
        <time>2026-08-27T05:26:19.043Z</time>
      </trkpt>
      <trkpt lat="47.8402" lon="6.90079">
        <ele>1114.4</ele>
        <time>2026-08-27T05:26:20.051Z</time>
      </trkpt>
      <trkpt lat="47.8402" lon="6.9008">
        <ele>1114.4</ele>
        <time>2026-08-27T05:26:21.059Z</time>
      </trkpt>
      <trkpt lat="47.84021" lon="6.9008">
        <ele>1114.3</ele>
        <time>2026-08-27T05:26:22.068Z</time>
      </trkpt>
      <trkpt lat="47.84022" lon="6.90081">
        <ele>1114.1</ele>
        <time>2026-08-27T05:26:23.077Z</time>
      </trkpt>
      <trkpt lat="47.84024" lon="6.90082">
        <ele>1114.1</ele>
        <time>2026-08-27T05:26:24.084Z</time>
      </trkpt>
      <trkpt lat="47.84026" lon="6.90081">
        <ele>1114.1</ele>
        <time>2026-08-27T05:26:25.895Z</time>
      </trkpt>
      <trkpt lat="47.84028" lon="6.90081">
        <ele>1114.4</ele>
        <time>2026-08-27T05:26:27.007Z</time>
      </trkpt>
      <trkpt lat="47.84029" lon="6.90081">
        <ele>1114.2</ele>
        <time>2026-08-27T05:26:28.015Z</time>
      </trkpt>
      <trkpt lat="47.8403" lon="6.90081">
        <ele>1114</ele>
        <time>2026-08-27T05:26:29.023Z</time>
      </trkpt>
      <trkpt lat="47.84031" lon="6.9008">
        <ele>1114.1</ele>
        <time>2026-08-27T05:26:30.032Z</time>
      </trkpt>
      <trkpt lat="47.84032" lon="6.9008">
        <ele>1114.4</ele>
        <time>2026-08-27T05:26:31.039Z</time>
      </trkpt>
      <trkpt lat="47.84034" lon="6.90081">
        <ele>1114.5</ele>
        <time>2026-08-27T05:26:32.047Z</time>
      </trkpt>
      <trkpt lat="47.84034" lon="6.90081">
        <ele>1114.9</ele>
        <time>2026-08-27T05:26:33.056Z</time>
      </trkpt>
      <trkpt lat="47.84036" lon="6.90081">
        <ele>1115.1</ele>
        <time>2026-08-27T05:26:34.971Z</time>
      </trkpt>
      <trkpt lat="47.84037" lon="6.90081">
        <ele>1115.4</ele>
        <time>2026-08-27T05:26:36.079Z</time>
      </trkpt>
      <trkpt lat="47.84038" lon="6.90081">
        <ele>1115.6</ele>
        <time>2026-08-27T05:26:37.087Z</time>
      </trkpt>
      <trkpt lat="47.84039" lon="6.90081">
        <ele>1115.9</ele>
        <time>2026-08-27T05:26:38.095Z</time>
      </trkpt>
      <trkpt lat="47.8404" lon="6.90081">
        <ele>1115.8</ele>
        <time>2026-08-27T05:26:39.103Z</time>
      </trkpt>
      <trkpt lat="47.84042" lon="6.90081">
        <ele>1116.2</ele>
        <time>2026-08-27T05:26:41.019Z</time>
      </trkpt>
      <trkpt lat="47.84043" lon="6.90081">
        <ele>1116.4</ele>
        <time>2026-08-27T05:26:42.028Z</time>
      </trkpt>
      <trkpt lat="47.84044" lon="6.90082">
        <ele>1116.6</ele>
        <time>2026-08-27T05:26:44.043Z</time>
      </trkpt>
      <trkpt lat="47.84045" lon="6.90082">
        <ele>1116.7</ele>
        <time>2026-08-27T05:26:45.052Z</time>
      </trkpt>
      <trkpt lat="47.84046" lon="6.90082">
        <ele>1116.7</ele>
        <time>2026-08-27T05:26:46.059Z</time>
      </trkpt>
      <trkpt lat="47.84046" lon="6.90082">
        <ele>1116.7</ele>
        <time>2026-08-27T05:26:47.067Z</time>
      </trkpt>
      <trkpt lat="47.84047" lon="6.90082">
        <ele>1116.9</ele>
        <time>2026-08-27T05:26:48.076Z</time>
      </trkpt>
      <trkpt lat="47.84048" lon="6.90081">
        <ele>1117</ele>
        <time>2026-08-27T05:26:49.084Z</time>
      </trkpt>
      <trkpt lat="47.8405" lon="6.90081">
        <ele>1117.1</ele>
        <time>2026-08-27T05:26:51.099Z</time>
      </trkpt>
      <trkpt lat="47.84051" lon="6.90081">
        <ele>1117</ele>
        <time>2026-08-27T05:26:53.014Z</time>
      </trkpt>
      <trkpt lat="47.84052" lon="6.90082">
        <ele>1117.3</ele>
        <time>2026-08-27T05:26:54.023Z</time>
      </trkpt>
      <trkpt lat="47.84052" lon="6.90082">
        <ele>1117.2</ele>
        <time>2026-08-27T05:26:55.030Z</time>
      </trkpt>
      <trkpt lat="47.84053" lon="6.90082">
        <ele>1117.8</ele>
        <time>2026-08-27T05:26:56.038Z</time>
      </trkpt>
      <trkpt lat="47.84054" lon="6.90082">
        <ele>1117.7</ele>
        <time>2026-08-27T05:26:57.047Z</time>
      </trkpt>
      <trkpt lat="47.84054" lon="6.90082">
        <ele>1117.3</ele>
        <time>2026-08-27T05:26:58.054Z</time>
      </trkpt>
      <trkpt lat="47.84055" lon="6.90082">
        <ele>1117.6</ele>
        <time>2026-08-27T05:26:59.062Z</time>
      </trkpt>
      <trkpt lat="47.84056" lon="6.90082">
        <ele>1117.8</ele>
        <time>2026-08-27T05:27:00.070Z</time>
      </trkpt>
      <trkpt lat="47.84056" lon="6.90082">
        <ele>1117.9</ele>
        <time>2026-08-27T05:27:01.079Z</time>
      </trkpt>
      <trkpt lat="47.84057" lon="6.90082">
        <ele>1118.2</ele>
        <time>2026-08-27T05:27:02.087Z</time>
      </trkpt>
      <trkpt lat="47.84058" lon="6.90082">
        <ele>1118.7</ele>
        <time>2026-08-27T05:27:04.002Z</time>
      </trkpt>
      <trkpt lat="47.84059" lon="6.90082">
        <ele>1119</ele>
        <time>2026-08-27T05:27:05.009Z</time>
      </trkpt>
      <trkpt lat="47.8406" lon="6.90082">
        <ele>1119.2</ele>
        <time>2026-08-27T05:27:06.017Z</time>
      </trkpt>
      <trkpt lat="47.84061" lon="6.90083">
        <ele>1119.3</ele>
        <time>2026-08-27T05:27:07.025Z</time>
      </trkpt>
      <trkpt lat="47.84062" lon="6.90083">
        <ele>1119.3</ele>
        <time>2026-08-27T05:27:08.072Z</time>
      </trkpt>
      <trkpt lat="47.84063" lon="6.90084">
        <ele>1119.9</ele>
        <time>2026-08-27T05:27:10.050Z</time>
      </trkpt>
      <trkpt lat="47.84063" lon="6.90085">
        <ele>1120.2</ele>
        <time>2026-08-27T05:27:11.057Z</time>
      </trkpt>
      <trkpt lat="47.84064" lon="6.90086">
        <ele>1120.3</ele>
        <time>2026-08-27T05:27:12.066Z</time>
      </trkpt>
      <trkpt lat="47.84064" lon="6.90087">
        <ele>1120.4</ele>
        <time>2026-08-27T05:27:13.073Z</time>
      </trkpt>
      <trkpt lat="47.84065" lon="6.90088">
        <ele>1120.5</ele>
        <time>2026-08-27T05:27:14.081Z</time>
      </trkpt>
      <trkpt lat="47.84065" lon="6.90089">
        <ele>1120.5</ele>
        <time>2026-08-27T05:27:15.089Z</time>
      </trkpt>
      <trkpt lat="47.84066" lon="6.9009">
        <ele>1120.5</ele>
        <time>2026-08-27T05:27:16.098Z</time>
      </trkpt>
      <trkpt lat="47.84067" lon="6.90092">
        <ele>1120.7</ele>
        <time>2026-08-27T05:27:18.013Z</time>
      </trkpt>
      <trkpt lat="47.84067" lon="6.90093">
        <ele>1120.8</ele>
        <time>2026-08-27T05:27:19.020Z</time>
      </trkpt>
      <trkpt lat="47.84067" lon="6.90094">
        <ele>1120.9</ele>
        <time>2026-08-27T05:27:21.037Z</time>
      </trkpt>
      <trkpt lat="47.84068" lon="6.90095">
        <ele>1120.7</ele>
        <time>2026-08-27T05:27:22.045Z</time>
      </trkpt>
      <trkpt lat="47.84068" lon="6.90096">
        <ele>1120.7</ele>
        <time>2026-08-27T05:27:23.074Z</time>
      </trkpt>
      <trkpt lat="47.84068" lon="6.90098">
        <ele>1121.3</ele>
        <time>2026-08-27T05:27:25.068Z</time>
      </trkpt>
      <trkpt lat="47.84068" lon="6.90099">
        <ele>1121.2</ele>
        <time>2026-08-27T05:27:26.076Z</time>
      </trkpt>
      <trkpt lat="47.84068" lon="6.901">
        <ele>1120.7</ele>
        <time>2026-08-27T05:27:27.084Z</time>
      </trkpt>
      <trkpt lat="47.84067" lon="6.90101">
        <ele>1121.2</ele>
        <time>2026-08-27T05:27:28.092Z</time>
      </trkpt>
      <trkpt lat="47.84067" lon="6.90103">
        <ele>1121.5</ele>
        <time>2026-08-27T05:27:30.007Z</time>
      </trkpt>
      <trkpt lat="47.84067" lon="6.90104">
        <ele>1121.5</ele>
        <time>2026-08-27T05:27:31.015Z</time>
      </trkpt>
      <trkpt lat="47.84067" lon="6.90106">
        <ele>1121.7</ele>
        <time>2026-08-27T05:27:32.023Z</time>
      </trkpt>
      <trkpt lat="47.84067" lon="6.90107">
        <ele>1122.2</ele>
        <time>2026-08-27T05:27:33.031Z</time>
      </trkpt>
      <trkpt lat="47.84067" lon="6.90108">
        <ele>1122.2</ele>
        <time>2026-08-27T05:27:34.040Z</time>
      </trkpt>
      <trkpt lat="47.84066" lon="6.90108">
        <ele>1122.3</ele>
        <time>2026-08-27T05:27:35.047Z</time>
      </trkpt>
      <trkpt lat="47.84066" lon="6.90108">
        <ele>1122.6</ele>
        <time>2026-08-27T05:27:36.060Z</time>
      </trkpt>
      <trkpt lat="47.84065" lon="6.90108">
        <ele>1122.4</ele>
        <time>2026-08-27T05:27:37.068Z</time>
      </trkpt>
      <trkpt lat="47.84065" lon="6.90107">
        <ele>1122.8</ele>
        <time>2026-08-27T05:27:38.983Z</time>
      </trkpt>
      <trkpt lat="47.84066" lon="6.90107">
        <ele>1123</ele>
        <time>2026-08-27T05:27:39.990Z</time>
      </trkpt>
      <trkpt lat="47.84066" lon="6.90106">
        <ele>1123</ele>
        <time>2026-08-27T05:27:40.998Z</time>
      </trkpt>
      <trkpt lat="47.84066" lon="6.90106">
        <ele>1123.2</ele>
        <time>2026-08-27T05:27:42.007Z</time>
      </trkpt>
      <trkpt lat="47.84066" lon="6.90106">
        <ele>1123.4</ele>
        <time>2026-08-27T05:27:43.015Z</time>
      </trkpt>
      <trkpt lat="47.84066" lon="6.90106">
        <ele>1123.3</ele>
        <time>2026-08-27T05:27:44.022Z</time>
      </trkpt>
      <trkpt lat="47.84066" lon="6.90106">
        <ele>1123</ele>
        <time>2026-08-27T05:27:45.031Z</time>
      </trkpt>
      <trkpt lat="47.84066" lon="6.90105">
        <ele>1122.9</ele>
        <time>2026-08-27T05:27:46.038Z</time>
      </trkpt>
      <trkpt lat="47.84066" lon="6.90105">
        <ele>1122.9</ele>
        <time>2026-08-27T05:27:47.047Z</time>
      </trkpt>
      <trkpt lat="47.84066" lon="6.90105">
        <ele>1122.8</ele>
        <time>2026-08-27T05:27:48.054Z</time>
      </trkpt>
      <trkpt lat="47.84066" lon="6.90105">
        <ele>1122.7</ele>
        <time>2026-08-27T05:27:49.062Z</time>
      </trkpt>
      <trkpt lat="47.84066" lon="6.90105">
        <ele>1122.3</ele>
        <time>2026-08-27T05:27:50.979Z</time>
      </trkpt>
      <trkpt lat="47.84066" lon="6.90105">
        <ele>1122.5</ele>
        <time>2026-08-27T05:27:51.987Z</time>
      </trkpt>
      <trkpt lat="47.84066" lon="6.90105">
        <ele>1122.9</ele>
        <time>2026-08-27T05:27:52.994Z</time>
      </trkpt>
      <trkpt lat="47.84066" lon="6.90106">
        <ele>1122.9</ele>
        <time>2026-08-27T05:27:54.002Z</time>
      </trkpt>
      <trkpt lat="47.84065" lon="6.90107">
        <ele>1122.7</ele>
        <time>2026-08-27T05:27:55.010Z</time>
      </trkpt>
      <trkpt lat="47.84065" lon="6.90108">
        <ele>1122.7</ele>
        <time>2026-08-27T05:27:56.018Z</time>
      </trkpt>
      <trkpt lat="47.84065" lon="6.9011">
        <ele>1122.4</ele>
        <time>2026-08-27T05:27:57.027Z</time>
      </trkpt>
      <trkpt lat="47.84064" lon="6.90111">
        <ele>1122.7</ele>
        <time>2026-08-27T05:27:58.034Z</time>
      </trkpt>
      <trkpt lat="47.84064" lon="6.90112">
        <ele>1122.9</ele>
        <time>2026-08-27T05:27:59.042Z</time>
      </trkpt>
      <trkpt lat="47.84064" lon="6.90114">
        <ele>1123.1</ele>
        <time>2026-08-27T05:28:00.050Z</time>
      </trkpt>
      <trkpt lat="47.84064" lon="6.90115">
        <ele>1123.3</ele>
        <time>2026-08-27T05:28:01.059Z</time>
      </trkpt>
      <trkpt lat="47.84064" lon="6.90116">
        <ele>1123.4</ele>
        <time>2026-08-27T05:28:02.066Z</time>
      </trkpt>
      <trkpt lat="47.84064" lon="6.90117">
        <ele>1123.8</ele>
        <time>2026-08-27T05:28:03.981Z</time>
      </trkpt>
      <trkpt lat="47.84064" lon="6.90116">
        <ele>1124.2</ele>
        <time>2026-08-27T05:28:04.989Z</time>
      </trkpt>
      <trkpt lat="47.84064" lon="6.90116">
        <ele>1124.3</ele>
        <time>2026-08-27T05:28:05.999Z</time>
      </trkpt>
      <trkpt lat="47.84064" lon="6.90115">
        <ele>1124.2</ele>
        <time>2026-08-27T05:28:07.007Z</time>
      </trkpt>
      <trkpt lat="47.84064" lon="6.90115">
        <ele>1124.3</ele>
        <time>2026-08-27T05:28:08.014Z</time>
      </trkpt>
      <trkpt lat="47.84064" lon="6.90115">
        <ele>1124.5</ele>
        <time>2026-08-27T05:28:09.022Z</time>
      </trkpt>
      <trkpt lat="47.84064" lon="6.90115">
        <ele>1124.6</ele>
        <time>2026-08-27T05:28:10.030Z</time>
      </trkpt>
      <trkpt lat="47.84064" lon="6.90115">
        <ele>1124.5</ele>
        <time>2026-08-27T05:28:11.039Z</time>
      </trkpt>
      <trkpt lat="47.84064" lon="6.90115">
        <ele>1124.8</ele>
        <time>2026-08-27T05:28:12.046Z</time>
      </trkpt>
      <trkpt lat="47.84064" lon="6.90115">
        <ele>1124.6</ele>
        <time>2026-08-27T05:28:13.055Z</time>
      </trkpt>
      <trkpt lat="47.84064" lon="6.90115">
        <ele>1124.5</ele>
        <time>2026-08-27T05:28:14.062Z</time>
      </trkpt>
      <trkpt lat="47.84064" lon="6.90115">
        <ele>1124.6</ele>
        <time>2026-08-27T05:28:15.070Z</time>
      </trkpt>
      <trkpt lat="47.84064" lon="6.90115">
        <ele>1124.3</ele>
        <time>2026-08-27T05:28:16.985Z</time>
      </trkpt>
      <trkpt lat="47.84064" lon="6.90115">
        <ele>1124.7</ele>
        <time>2026-08-27T05:28:19.003Z</time>
      </trkpt>
      <trkpt lat="47.84064" lon="6.90116">
        <ele>1124.3</ele>
        <time>2026-08-27T05:28:20.011Z</time>
      </trkpt>
      <trkpt lat="47.84064" lon="6.90117">
        <ele>1124.4</ele>
        <time>2026-08-27T05:28:21.018Z</time>
      </trkpt>
      <trkpt lat="47.84064" lon="6.90119">
        <ele>1124.5</ele>
        <time>2026-08-27T05:28:22.027Z</time>
      </trkpt>
      <trkpt lat="47.84063" lon="6.90121">
        <ele>1124.6</ele>
        <time>2026-08-27T05:28:23.035Z</time>
      </trkpt>
      <trkpt lat="47.84063" lon="6.90122">
        <ele>1124.6</ele>
        <time>2026-08-27T05:28:24.060Z</time>
      </trkpt>
      <trkpt lat="47.84063" lon="6.90125">
        <ele>1124.6</ele>
        <time>2026-08-27T05:28:26.058Z</time>
      </trkpt>
      <trkpt lat="47.84064" lon="6.90126">
        <ele>1124.6</ele>
        <time>2026-08-27T05:28:27.066Z</time>
      </trkpt>
      <trkpt lat="47.84063" lon="6.90128">
        <ele>1124.9</ele>
        <time>2026-08-27T05:28:28.075Z</time>
      </trkpt>
      <trkpt lat="47.84063" lon="6.9013">
        <ele>1125.1</ele>
        <time>2026-08-27T05:28:29.082Z</time>
      </trkpt>
      <trkpt lat="47.84062" lon="6.90131">
        <ele>1125.4</ele>
        <time>2026-08-27T05:28:30.090Z</time>
      </trkpt>
      <trkpt lat="47.84062" lon="6.90133">
        <ele>1125.6</ele>
        <time>2026-08-27T05:28:31.099Z</time>
      </trkpt>
      <trkpt lat="47.84061" lon="6.90136">
        <ele>1125.7</ele>
        <time>2026-08-27T05:28:33.014Z</time>
      </trkpt>
      <trkpt lat="47.84061" lon="6.90138">
        <ele>1125.7</ele>
        <time>2026-08-27T05:28:34.022Z</time>
      </trkpt>
      <trkpt lat="47.8406" lon="6.90139">
        <ele>1125.7</ele>
        <time>2026-08-27T05:28:35.055Z</time>
      </trkpt>
      <trkpt lat="47.8406" lon="6.90143">
        <ele>1126.1</ele>
        <time>2026-08-27T05:28:37.046Z</time>
      </trkpt>
      <trkpt lat="47.8406" lon="6.90146">
        <ele>1126.5</ele>
        <time>2026-08-27T05:28:39.062Z</time>
      </trkpt>
      <trkpt lat="47.8406" lon="6.90149">
        <ele>1126.7</ele>
        <time>2026-08-27T05:28:41.079Z</time>
      </trkpt>
      <trkpt lat="47.8406" lon="6.9015">
        <ele>1126.9</ele>
        <time>2026-08-27T05:28:42.087Z</time>
      </trkpt>
      <trkpt lat="47.8406" lon="6.90153">
        <ele>1126.5</ele>
        <time>2026-08-27T05:28:44.002Z</time>
      </trkpt>
      <trkpt lat="47.84061" lon="6.90155">
        <ele>1126.5</ele>
        <time>2026-08-27T05:28:45.035Z</time>
      </trkpt>
      <trkpt lat="47.84061" lon="6.90158">
        <ele>1126.4</ele>
        <time>2026-08-27T05:28:47.019Z</time>
      </trkpt>
      <trkpt lat="47.84061" lon="6.9016">
        <ele>1126.9</ele>
        <time>2026-08-27T05:28:48.035Z</time>
      </trkpt>
      <trkpt lat="47.8406" lon="6.90163">
        <ele>1127</ele>
        <time>2026-08-27T05:28:50.050Z</time>
      </trkpt>
      <trkpt lat="47.8406" lon="6.90165">
        <ele>1127</ele>
        <time>2026-08-27T05:28:51.101Z</time>
      </trkpt>
      <trkpt lat="47.8406" lon="6.90167">
        <ele>1127.1</ele>
        <time>2026-08-27T05:28:53.016Z</time>
      </trkpt>
      <trkpt lat="47.84059" lon="6.9017">
        <ele>1127.1</ele>
        <time>2026-08-27T05:28:55.090Z</time>
      </trkpt>
      <trkpt lat="47.84059" lon="6.90171">
        <ele>1127.3</ele>
        <time>2026-08-27T05:28:56.099Z</time>
      </trkpt>
      <trkpt lat="47.84059" lon="6.90173">
        <ele>1127.6</ele>
        <time>2026-08-27T05:28:58.098Z</time>
      </trkpt>
      <trkpt lat="47.84058" lon="6.90176">
        <ele>1128.1</ele>
        <time>2026-08-27T05:29:00.031Z</time>
      </trkpt>
      <trkpt lat="47.84058" lon="6.90178">
        <ele>1128.2</ele>
        <time>2026-08-27T05:29:02.046Z</time>
      </trkpt>
      <trkpt lat="47.84058" lon="6.9018">
        <ele>1128.2</ele>
        <time>2026-08-27T05:29:03.138Z</time>
      </trkpt>
      <trkpt lat="47.84058" lon="6.90182">
        <ele>1128.7</ele>
        <time>2026-08-27T05:29:05.071Z</time>
      </trkpt>
      <trkpt lat="47.84058" lon="6.90184">
        <ele>1129.3</ele>
        <time>2026-08-27T05:29:07.086Z</time>
      </trkpt>
      <trkpt lat="47.84058" lon="6.90186">
        <ele>1129.4</ele>
        <time>2026-08-27T05:29:08.095Z</time>
      </trkpt>
      <trkpt lat="47.84057" lon="6.90187">
        <ele>1129.7</ele>
        <time>2026-08-27T05:29:10.009Z</time>
      </trkpt>
      <trkpt lat="47.84057" lon="6.9019">
        <ele>1129.4</ele>
        <time>2026-08-27T05:29:12.025Z</time>
      </trkpt>
      <trkpt lat="47.84057" lon="6.90191">
        <ele>1129.6</ele>
        <time>2026-08-27T05:29:13.033Z</time>
      </trkpt>
      <trkpt lat="47.84057" lon="6.90192">
        <ele>1129.5</ele>
        <time>2026-08-27T05:29:14.041Z</time>
      </trkpt>
      <trkpt lat="47.84057" lon="6.90193">
        <ele>1129.6</ele>
        <time>2026-08-27T05:29:15.050Z</time>
      </trkpt>
      <trkpt lat="47.84057" lon="6.90194">
        <ele>1129.9</ele>
        <time>2026-08-27T05:29:16.058Z</time>
      </trkpt>
      <trkpt lat="47.84057" lon="6.90195">
        <ele>1130.6</ele>
        <time>2026-08-27T05:29:17.066Z</time>
      </trkpt>
      <trkpt lat="47.84056" lon="6.90197">
        <ele>1130.4</ele>
        <time>2026-08-27T05:29:18.073Z</time>
      </trkpt>
      <trkpt lat="47.84056" lon="6.90198">
        <ele>1130.6</ele>
        <time>2026-08-27T05:29:19.081Z</time>
      </trkpt>
      <trkpt lat="47.84056" lon="6.90199">
        <ele>1130.5</ele>
        <time>2026-08-27T05:29:20.089Z</time>
      </trkpt>
      <trkpt lat="47.84056" lon="6.902">
        <ele>1130.5</ele>
        <time>2026-08-27T05:29:21.098Z</time>
      </trkpt>
      <trkpt lat="47.84056" lon="6.90203">
        <ele>1130.4</ele>
        <time>2026-08-27T05:29:23.139Z</time>
      </trkpt>
      <trkpt lat="47.84056" lon="6.90205">
        <ele>1130.3</ele>
        <time>2026-08-27T05:29:24.718Z</time>
      </trkpt>
      <trkpt lat="47.84056" lon="6.90206">
        <ele>1130.4</ele>
        <time>2026-08-27T05:29:26.037Z</time>
      </trkpt>
      <trkpt lat="47.84056" lon="6.90207">
        <ele>1130.7</ele>
        <time>2026-08-27T05:29:27.046Z</time>
      </trkpt>
      <trkpt lat="47.84055" lon="6.90207">
        <ele>1131</ele>
        <time>2026-08-27T05:29:28.053Z</time>
      </trkpt>
      <trkpt lat="47.84055" lon="6.90208">
        <ele>1131</ele>
        <time>2026-08-27T05:29:29.094Z</time>
      </trkpt>
      <trkpt lat="47.84055" lon="6.90208">
        <ele>1131.4</ele>
        <time>2026-08-27T05:29:31.078Z</time>
      </trkpt>
      <trkpt lat="47.84055" lon="6.90209">
        <ele>1131.4</ele>
        <time>2026-08-27T05:29:32.086Z</time>
      </trkpt>
      <trkpt lat="47.84055" lon="6.90209">
        <ele>1131.7</ele>
        <time>2026-08-27T05:29:33.094Z</time>
      </trkpt>
      <trkpt lat="47.84055" lon="6.9021">
        <ele>1131.9</ele>
        <time>2026-08-27T05:29:34.101Z</time>
      </trkpt>
      <trkpt lat="47.84055" lon="6.90211">
        <ele>1132.1</ele>
        <time>2026-08-27T05:29:35.110Z</time>
      </trkpt>
      <trkpt lat="47.84054" lon="6.90214">
        <ele>1132.5</ele>
        <time>2026-08-27T05:29:37.024Z</time>
      </trkpt>
      <trkpt lat="47.84054" lon="6.90215">
        <ele>1132.6</ele>
        <time>2026-08-27T05:29:38.033Z</time>
      </trkpt>
      <trkpt lat="47.84054" lon="6.90217">
        <ele>1132.9</ele>
        <time>2026-08-27T05:29:39.040Z</time>
      </trkpt>
      <trkpt lat="47.84054" lon="6.9022">
        <ele>1132.7</ele>
        <time>2026-08-27T05:29:41.057Z</time>
      </trkpt>
      <trkpt lat="47.84054" lon="6.90223">
        <ele>1132.8</ele>
        <time>2026-08-27T05:29:43.072Z</time>
      </trkpt>
      <trkpt lat="47.84054" lon="6.90226">
        <ele>1133.4</ele>
        <time>2026-08-27T05:29:45.089Z</time>
      </trkpt>
      <trkpt lat="47.84054" lon="6.90227">
        <ele>1133.6</ele>
        <time>2026-08-27T05:29:46.097Z</time>
      </trkpt>
      <trkpt lat="47.84054" lon="6.90229">
        <ele>1133.8</ele>
        <time>2026-08-27T05:29:47.105Z</time>
      </trkpt>
      <trkpt lat="47.84054" lon="6.90232">
        <ele>1133.6</ele>
        <time>2026-08-27T05:29:49.019Z</time>
      </trkpt>
      <trkpt lat="47.84054" lon="6.90234">
        <ele>1133.7</ele>
        <time>2026-08-27T05:29:50.028Z</time>
      </trkpt>
      <trkpt lat="47.84054" lon="6.90235">
        <ele>1133.5</ele>
        <time>2026-08-27T05:29:51.035Z</time>
      </trkpt>
      <trkpt lat="47.84054" lon="6.90236">
        <ele>1133.5</ele>
        <time>2026-08-27T05:29:52.044Z</time>
      </trkpt>
      <trkpt lat="47.84054" lon="6.90239">
        <ele>1133.3</ele>
        <time>2026-08-27T05:29:54.059Z</time>
      </trkpt>
      <trkpt lat="47.84054" lon="6.9024">
        <ele>1133.6</ele>
        <time>2026-08-27T05:29:56.075Z</time>
      </trkpt>
      <trkpt lat="47.84054" lon="6.9024">
        <ele>1133.9</ele>
        <time>2026-08-27T05:29:57.083Z</time>
      </trkpt>
      <trkpt lat="47.84053" lon="6.90241">
        <ele>1133.6</ele>
        <time>2026-08-27T05:29:58.092Z</time>
      </trkpt>
      <trkpt lat="47.84053" lon="6.9024">
        <ele>1133.6</ele>
        <time>2026-08-27T05:29:59.099Z</time>
      </trkpt>
      <trkpt lat="47.84053" lon="6.9024">
        <ele>1133.7</ele>
        <time>2026-08-27T05:30:00.107Z</time>
      </trkpt>
      <trkpt lat="47.84053" lon="6.9024">
        <ele>1134</ele>
        <time>2026-08-27T05:30:02.123Z</time>
      </trkpt>
      <trkpt lat="47.84053" lon="6.9024">
        <ele>1133.9</ele>
        <time>2026-08-27T05:30:04.038Z</time>
      </trkpt>
      <trkpt lat="47.84053" lon="6.9024">
        <ele>1134.2</ele>
        <time>2026-08-27T05:30:05.046Z</time>
      </trkpt>
      <trkpt lat="47.84053" lon="6.9024">
        <ele>1134.1</ele>
        <time>2026-08-27T05:30:06.055Z</time>
      </trkpt>
      <trkpt lat="47.84053" lon="6.9024">
        <ele>1134.2</ele>
        <time>2026-08-27T05:30:07.062Z</time>
      </trkpt>
      <trkpt lat="47.84053" lon="6.9024">
        <ele>1134.3</ele>
        <time>2026-08-27T05:30:08.071Z</time>
      </trkpt>
      <trkpt lat="47.84053" lon="6.9024">
        <ele>1134.1</ele>
        <time>2026-08-27T05:30:09.079Z</time>
      </trkpt>
      <trkpt lat="47.84053" lon="6.9024">
        <ele>1133.8</ele>
        <time>2026-08-27T05:30:10.086Z</time>
      </trkpt>
      <trkpt lat="47.84053" lon="6.9024">
        <ele>1133.8</ele>
        <time>2026-08-27T05:30:11.094Z</time>
      </trkpt>
      <trkpt lat="47.84053" lon="6.9024">
        <ele>1133.6</ele>
        <time>2026-08-27T05:30:12.103Z</time>
      </trkpt>
      <trkpt lat="47.84053" lon="6.9024">
        <ele>1133.6</ele>
        <time>2026-08-27T05:30:13.111Z</time>
      </trkpt>
      <trkpt lat="47.84053" lon="6.9024">
        <ele>1134</ele>
        <time>2026-08-27T05:30:15.026Z</time>
      </trkpt>
      <trkpt lat="47.84053" lon="6.9024">
        <ele>1134.1</ele>
        <time>2026-08-27T05:30:16.034Z</time>
      </trkpt>
      <trkpt lat="47.84054" lon="6.9024">
        <ele>1133.8</ele>
        <time>2026-08-27T05:30:18.050Z</time>
      </trkpt>
      <trkpt lat="47.84055" lon="6.9024">
        <ele>1133.9</ele>
        <time>2026-08-27T05:30:19.057Z</time>
      </trkpt>
      <trkpt lat="47.84056" lon="6.90241">
        <ele>1133.6</ele>
        <time>2026-08-27T05:30:20.065Z</time>
      </trkpt>
      <trkpt lat="47.84057" lon="6.90241">
        <ele>1133.5</ele>
        <time>2026-08-27T05:30:21.073Z</time>
      </trkpt>
      <trkpt lat="47.84058" lon="6.90242">
        <ele>1133.4</ele>
        <time>2026-08-27T05:30:22.082Z</time>
      </trkpt>
      <trkpt lat="47.8406" lon="6.90244">
        <ele>1133.6</ele>
        <time>2026-08-27T05:30:24.097Z</time>
      </trkpt>
      <trkpt lat="47.84061" lon="6.90246">
        <ele>1133.9</ele>
        <time>2026-08-27T05:30:26.012Z</time>
      </trkpt>
      <trkpt lat="47.84062" lon="6.90247">
        <ele>1133.9</ele>
        <time>2026-08-27T05:30:27.021Z</time>
      </trkpt>
      <trkpt lat="47.84062" lon="6.90248">
        <ele>1134.1</ele>
        <time>2026-08-27T05:30:28.028Z</time>
      </trkpt>
      <trkpt lat="47.84063" lon="6.90249">
        <ele>1134.3</ele>
        <time>2026-08-27T05:30:29.036Z</time>
      </trkpt>
      <trkpt lat="47.84064" lon="6.9025">
        <ele>1134.2</ele>
        <time>2026-08-27T05:30:30.044Z</time>
      </trkpt>
      <trkpt lat="47.84065" lon="6.90251">
        <ele>1134.3</ele>
        <time>2026-08-27T05:30:31.052Z</time>
      </trkpt>
      <trkpt lat="47.84066" lon="6.90252">
        <ele>1134.5</ele>
        <time>2026-08-27T05:30:32.060Z</time>
      </trkpt>
      <trkpt lat="47.84066" lon="6.90253">
        <ele>1134.7</ele>
        <time>2026-08-27T05:30:33.069Z</time>
      </trkpt>
      <trkpt lat="47.84067" lon="6.90254">
        <ele>1134.9</ele>
        <time>2026-08-27T05:30:34.077Z</time>
      </trkpt>
      <trkpt lat="47.84068" lon="6.90256">
        <ele>1135.4</ele>
        <time>2026-08-27T05:30:36.092Z</time>
      </trkpt>
      <trkpt lat="47.84068" lon="6.90256">
        <ele>1135.1</ele>
        <time>2026-08-27T05:30:37.101Z</time>
      </trkpt>
      <trkpt lat="47.84069" lon="6.90259">
        <ele>1135.4</ele>
        <time>2026-08-27T05:30:39.015Z</time>
      </trkpt>
      <trkpt lat="47.8407" lon="6.9026">
        <ele>1135.6</ele>
        <time>2026-08-27T05:30:40.023Z</time>
      </trkpt>
      <trkpt lat="47.84071" lon="6.90263">
        <ele>1135.5</ele>
        <time>2026-08-27T05:30:42.040Z</time>
      </trkpt>
      <trkpt lat="47.84071" lon="6.90264">
        <ele>1135.9</ele>
        <time>2026-08-27T05:30:43.048Z</time>
      </trkpt>
      <trkpt lat="47.84072" lon="6.90266">
        <ele>1136</ele>
        <time>2026-08-27T05:30:44.056Z</time>
      </trkpt>
      <trkpt lat="47.84072" lon="6.90267">
        <ele>1136.3</ele>
        <time>2026-08-27T05:30:45.064Z</time>
      </trkpt>
      <trkpt lat="47.84073" lon="6.90268">
        <ele>1136.2</ele>
        <time>2026-08-27T05:30:46.071Z</time>
      </trkpt>
      <trkpt lat="47.84073" lon="6.9027">
        <ele>1136.3</ele>
        <time>2026-08-27T05:30:47.079Z</time>
      </trkpt>
      <trkpt lat="47.84074" lon="6.90272">
        <ele>1136.1</ele>
        <time>2026-08-27T05:30:49.095Z</time>
      </trkpt>
      <trkpt lat="47.84075" lon="6.90273">
        <ele>1136.1</ele>
        <time>2026-08-27T05:30:50.104Z</time>
      </trkpt>
      <trkpt lat="47.84076" lon="6.90275">
        <ele>1136.1</ele>
        <time>2026-08-27T05:30:52.019Z</time>
      </trkpt>
      <trkpt lat="47.84076" lon="6.90276">
        <ele>1136.1</ele>
        <time>2026-08-27T05:30:53.060Z</time>
      </trkpt>
      <trkpt lat="47.84077" lon="6.90279">
        <ele>1136.1</ele>
        <time>2026-08-27T05:30:55.042Z</time>
      </trkpt>
      <trkpt lat="47.84078" lon="6.9028">
        <ele>1136.5</ele>
        <time>2026-08-27T05:30:56.051Z</time>
      </trkpt>
      <trkpt lat="47.84078" lon="6.90281">
        <ele>1136.7</ele>
        <time>2026-08-27T05:30:57.058Z</time>
      </trkpt>
      <trkpt lat="47.84079" lon="6.90282">
        <ele>1136.8</ele>
        <time>2026-08-27T05:30:58.066Z</time>
      </trkpt>
      <trkpt lat="47.84079" lon="6.90283">
        <ele>1136.8</ele>
        <time>2026-08-27T05:30:59.074Z</time>
      </trkpt>
      <trkpt lat="47.8408" lon="6.90285">
        <ele>1137.1</ele>
        <time>2026-08-27T05:31:01.091Z</time>
      </trkpt>
      <trkpt lat="47.84081" lon="6.90286">
        <ele>1137.5</ele>
        <time>2026-08-27T05:31:03.005Z</time>
      </trkpt>
      <trkpt lat="47.84082" lon="6.90287">
        <ele>1137.7</ele>
        <time>2026-08-27T05:31:04.114Z</time>
      </trkpt>
      <trkpt lat="47.84084" lon="6.90289">
        <ele>1137.6</ele>
        <time>2026-08-27T05:31:06.029Z</time>
      </trkpt>
      <trkpt lat="47.84085" lon="6.9029">
        <ele>1137.8</ele>
        <time>2026-08-27T05:31:08.045Z</time>
      </trkpt>
      <trkpt lat="47.84087" lon="6.9029">
        <ele>1137.9</ele>
        <time>2026-08-27T05:31:10.061Z</time>
      </trkpt>
      <trkpt lat="47.84088" lon="6.9029">
        <ele>1138</ele>
        <time>2026-08-27T05:31:11.069Z</time>
      </trkpt>
      <trkpt lat="47.84089" lon="6.9029">
        <ele>1138.2</ele>
        <time>2026-08-27T05:31:12.077Z</time>
      </trkpt>
      <trkpt lat="47.8409" lon="6.90291">
        <ele>1138.4</ele>
        <time>2026-08-27T05:31:13.086Z</time>
      </trkpt>
      <trkpt lat="47.84091" lon="6.90291">
        <ele>1138.3</ele>
        <time>2026-08-27T05:31:14.093Z</time>
      </trkpt>
      <trkpt lat="47.84092" lon="6.90291">
        <ele>1138.3</ele>
        <time>2026-08-27T05:31:15.100Z</time>
      </trkpt>
      <trkpt lat="47.84094" lon="6.90291">
        <ele>1138.2</ele>
        <time>2026-08-27T05:31:16.109Z</time>
      </trkpt>
      <trkpt lat="47.84096" lon="6.90291">
        <ele>1138.3</ele>
        <time>2026-08-27T05:31:18.025Z</time>
      </trkpt>
      <trkpt lat="47.84097" lon="6.90291">
        <ele>1138.2</ele>
        <time>2026-08-27T05:31:19.032Z</time>
      </trkpt>
      <trkpt lat="47.84098" lon="6.9029">
        <ele>1138</ele>
        <time>2026-08-27T05:31:20.040Z</time>
      </trkpt>
      <trkpt lat="47.841" lon="6.9029">
        <ele>1138.1</ele>
        <time>2026-08-27T05:31:22.056Z</time>
      </trkpt>
      <trkpt lat="47.84101" lon="6.90291">
        <ele>1138.2</ele>
        <time>2026-08-27T05:31:23.063Z</time>
      </trkpt>
      <trkpt lat="47.84102" lon="6.90291">
        <ele>1137.9</ele>
        <time>2026-08-27T05:31:24.071Z</time>
      </trkpt>
      <trkpt lat="47.84104" lon="6.90291">
        <ele>1138.3</ele>
        <time>2026-08-27T05:31:26.087Z</time>
      </trkpt>
      <trkpt lat="47.84105" lon="6.90291">
        <ele>1138.3</ele>
        <time>2026-08-27T05:31:27.096Z</time>
      </trkpt>
      <trkpt lat="47.84106" lon="6.90291">
        <ele>1138.2</ele>
        <time>2026-08-27T05:31:28.103Z</time>
      </trkpt>
      <trkpt lat="47.84107" lon="6.90291">
        <ele>1138.3</ele>
        <time>2026-08-27T05:31:29.112Z</time>
      </trkpt>
      <trkpt lat="47.84109" lon="6.90293">
        <ele>1138.4</ele>
        <time>2026-08-27T05:31:31.027Z</time>
      </trkpt>
      <trkpt lat="47.8411" lon="6.90293">
        <ele>1138.7</ele>
        <time>2026-08-27T05:31:32.035Z</time>
      </trkpt>
      <trkpt lat="47.84111" lon="6.90294">
        <ele>1138.6</ele>
        <time>2026-08-27T05:31:33.042Z</time>
      </trkpt>
      <trkpt lat="47.84112" lon="6.90295">
        <ele>1138.4</ele>
        <time>2026-08-27T05:31:34.051Z</time>
      </trkpt>
      <trkpt lat="47.84114" lon="6.90297">
        <ele>1138.2</ele>
        <time>2026-08-27T05:31:36.067Z</time>
      </trkpt>
      <trkpt lat="47.84115" lon="6.90299">
        <ele>1138.1</ele>
        <time>2026-08-27T05:31:38.083Z</time>
      </trkpt>
      <trkpt lat="47.84116" lon="6.903">
        <ele>1138.2</ele>
        <time>2026-08-27T05:31:39.090Z</time>
      </trkpt>
      <trkpt lat="47.84117" lon="6.90301">
        <ele>1138.2</ele>
        <time>2026-08-27T05:31:40.098Z</time>
      </trkpt>
      <trkpt lat="47.84118" lon="6.90303">
        <ele>1138.5</ele>
        <time>2026-08-27T05:31:42.013Z</time>
      </trkpt>
      <trkpt lat="47.84119" lon="6.90305">
        <ele>1138.4</ele>
        <time>2026-08-27T05:31:43.021Z</time>
      </trkpt>
      <trkpt lat="47.84119" lon="6.90306">
        <ele>1138.3</ele>
        <time>2026-08-27T05:31:44.029Z</time>
      </trkpt>
      <trkpt lat="47.84121" lon="6.90308">
        <ele>1138.2</ele>
        <time>2026-08-27T05:31:46.045Z</time>
      </trkpt>
      <trkpt lat="47.84123" lon="6.9031">
        <ele>1137.7</ele>
        <time>2026-08-27T05:31:48.061Z</time>
      </trkpt>
      <trkpt lat="47.84123" lon="6.90311">
        <ele>1137.8</ele>
        <time>2026-08-27T05:31:49.069Z</time>
      </trkpt>
      <trkpt lat="47.84125" lon="6.90312">
        <ele>1137.8</ele>
        <time>2026-08-27T05:31:51.085Z</time>
      </trkpt>
      <trkpt lat="47.84126" lon="6.90312">
        <ele>1137.9</ele>
        <time>2026-08-27T05:31:52.094Z</time>
      </trkpt>
      <trkpt lat="47.84128" lon="6.90314">
        <ele>1137.5</ele>
        <time>2026-08-27T05:31:53.958Z</time>
      </trkpt>
      <trkpt lat="47.84128" lon="6.90315">
        <ele>1137.8</ele>
        <time>2026-08-27T05:31:55.016Z</time>
      </trkpt>
      <trkpt lat="47.84129" lon="6.90317">
        <ele>1137.8</ele>
        <time>2026-08-27T05:31:56.100Z</time>
      </trkpt>
      <trkpt lat="47.8413" lon="6.90319">
        <ele>1137.7</ele>
        <time>2026-08-27T05:31:58.040Z</time>
      </trkpt>
      <trkpt lat="47.84131" lon="6.90322">
        <ele>1137.8</ele>
        <time>2026-08-27T05:32:00.056Z</time>
      </trkpt>
      <trkpt lat="47.84132" lon="6.90323">
        <ele>1138.2</ele>
        <time>2026-08-27T05:32:01.064Z</time>
      </trkpt>
      <trkpt lat="47.84133" lon="6.90324">
        <ele>1138.1</ele>
        <time>2026-08-27T05:32:02.072Z</time>
      </trkpt>
      <trkpt lat="47.84134" lon="6.90324">
        <ele>1137.9</ele>
        <time>2026-08-27T05:32:03.080Z</time>
      </trkpt>
      <trkpt lat="47.84136" lon="6.90326">
        <ele>1137.7</ele>
        <time>2026-08-27T05:32:05.097Z</time>
      </trkpt>
      <trkpt lat="47.84136" lon="6.90327">
        <ele>1137.7</ele>
        <time>2026-08-27T05:32:06.104Z</time>
      </trkpt>
      <trkpt lat="47.84138" lon="6.90328">
        <ele>1137.6</ele>
        <time>2026-08-27T05:32:07.935Z</time>
      </trkpt>
      <trkpt lat="47.84139" lon="6.90329">
        <ele>1137.7</ele>
        <time>2026-08-27T05:32:09.027Z</time>
      </trkpt>
      <trkpt lat="47.8414" lon="6.9033">
        <ele>1137.7</ele>
        <time>2026-08-27T05:32:10.119Z</time>
      </trkpt>
      <trkpt lat="47.84141" lon="6.90331">
        <ele>1137.9</ele>
        <time>2026-08-27T05:32:12.052Z</time>
      </trkpt>
      <trkpt lat="47.84142" lon="6.90332">
        <ele>1137.9</ele>
        <time>2026-08-27T05:32:13.060Z</time>
      </trkpt>
      <trkpt lat="47.84143" lon="6.90333">
        <ele>1137.7</ele>
        <time>2026-08-27T05:32:14.068Z</time>
      </trkpt>
      <trkpt lat="47.84144" lon="6.90334">
        <ele>1137.6</ele>
        <time>2026-08-27T05:32:15.075Z</time>
      </trkpt>
      <trkpt lat="47.84145" lon="6.90335">
        <ele>1137.5</ele>
        <time>2026-08-27T05:32:16.083Z</time>
      </trkpt>
      <trkpt lat="47.84146" lon="6.90336">
        <ele>1137.2</ele>
        <time>2026-08-27T05:32:17.091Z</time>
      </trkpt>
      <trkpt lat="47.84147" lon="6.90337">
        <ele>1137.3</ele>
        <time>2026-08-27T05:32:18.099Z</time>
      </trkpt>
      <trkpt lat="47.84148" lon="6.90339">
        <ele>1137.3</ele>
        <time>2026-08-27T05:32:20.014Z</time>
      </trkpt>
      <trkpt lat="47.84149" lon="6.9034">
        <ele>1137.2</ele>
        <time>2026-08-27T05:32:21.022Z</time>
      </trkpt>
      <trkpt lat="47.84149" lon="6.9034">
        <ele>1137</ele>
        <time>2026-08-27T05:32:22.031Z</time>
      </trkpt>
      <trkpt lat="47.8415" lon="6.90341">
        <ele>1137.2</ele>
        <time>2026-08-27T05:32:23.038Z</time>
      </trkpt>
      <trkpt lat="47.84151" lon="6.90342">
        <ele>1137.4</ele>
        <time>2026-08-27T05:32:24.047Z</time>
      </trkpt>
      <trkpt lat="47.84152" lon="6.90342">
        <ele>1137.2</ele>
        <time>2026-08-27T05:32:25.054Z</time>
      </trkpt>
      <trkpt lat="47.84152" lon="6.90343">
        <ele>1137.2</ele>
        <time>2026-08-27T05:32:26.062Z</time>
      </trkpt>
      <trkpt lat="47.84152" lon="6.90343">
        <ele>1137.3</ele>
        <time>2026-08-27T05:32:27.070Z</time>
      </trkpt>
      <trkpt lat="47.84153" lon="6.90343">
        <ele>1137.4</ele>
        <time>2026-08-27T05:32:28.078Z</time>
      </trkpt>
      <trkpt lat="47.84153" lon="6.90344">
        <ele>1137.5</ele>
        <time>2026-08-27T05:32:29.086Z</time>
      </trkpt>
      <trkpt lat="47.84154" lon="6.90344">
        <ele>1137.5</ele>
        <time>2026-08-27T05:32:30.094Z</time>
      </trkpt>
      <trkpt lat="47.84155" lon="6.90345">
        <ele>1137.5</ele>
        <time>2026-08-27T05:32:31.102Z</time>
      </trkpt>
      <trkpt lat="47.84157" lon="6.90346">
        <ele>1137.2</ele>
        <time>2026-08-27T05:32:33.017Z</time>
      </trkpt>
      <trkpt lat="47.84158" lon="6.90347">
        <ele>1137.2</ele>
        <time>2026-08-27T05:32:34.025Z</time>
      </trkpt>
      <trkpt lat="47.84159" lon="6.90348">
        <ele>1137.2</ele>
        <time>2026-08-27T05:32:35.076Z</time>
      </trkpt>
      <trkpt lat="47.84161" lon="6.90349">
        <ele>1137.1</ele>
        <time>2026-08-27T05:32:37.050Z</time>
      </trkpt>
      <trkpt lat="47.84163" lon="6.9035">
        <ele>1137.2</ele>
        <time>2026-08-27T05:32:38.057Z</time>
      </trkpt>
      <trkpt lat="47.84164" lon="6.9035">
        <ele>1137.3</ele>
        <time>2026-08-27T05:32:39.065Z</time>
      </trkpt>
      <trkpt lat="47.84165" lon="6.90351">
        <ele>1137.1</ele>
        <time>2026-08-27T05:32:40.073Z</time>
      </trkpt>
      <trkpt lat="47.84166" lon="6.90351">
        <ele>1137</ele>
        <time>2026-08-27T05:32:41.081Z</time>
      </trkpt>
      <trkpt lat="47.84167" lon="6.90351">
        <ele>1137</ele>
        <time>2026-08-27T05:32:42.089Z</time>
      </trkpt>
      <trkpt lat="47.84168" lon="6.90352">
        <ele>1137.1</ele>
        <time>2026-08-27T05:32:43.096Z</time>
      </trkpt>
      <trkpt lat="47.8417" lon="6.90353">
        <ele>1136.8</ele>
        <time>2026-08-27T05:32:45.012Z</time>
      </trkpt>
      <trkpt lat="47.84171" lon="6.90354">
        <ele>1136.8</ele>
        <time>2026-08-27T05:32:46.020Z</time>
      </trkpt>
      <trkpt lat="47.84172" lon="6.90354">
        <ele>1136.8</ele>
        <time>2026-08-27T05:32:47.029Z</time>
      </trkpt>
      <trkpt lat="47.84173" lon="6.90355">
        <ele>1136.9</ele>
        <time>2026-08-27T05:32:48.036Z</time>
      </trkpt>
      <trkpt lat="47.84173" lon="6.90356">
        <ele>1136.8</ele>
        <time>2026-08-27T05:32:49.044Z</time>
      </trkpt>
      <trkpt lat="47.84174" lon="6.90357">
        <ele>1136.9</ele>
        <time>2026-08-27T05:32:50.051Z</time>
      </trkpt>
      <trkpt lat="47.84175" lon="6.90358">
        <ele>1136.7</ele>
        <time>2026-08-27T05:32:51.059Z</time>
      </trkpt>
      <trkpt lat="47.84175" lon="6.90359">
        <ele>1136.7</ele>
        <time>2026-08-27T05:32:52.060Z</time>
      </trkpt>
      <trkpt lat="47.84176" lon="6.9036">
        <ele>1136.8</ele>
        <time>2026-08-27T05:32:53.076Z</time>
      </trkpt>
      <trkpt lat="47.84177" lon="6.90361">
        <ele>1136.9</ele>
        <time>2026-08-27T05:32:54.083Z</time>
      </trkpt>
      <trkpt lat="47.84178" lon="6.90362">
        <ele>1136.8</ele>
        <time>2026-08-27T05:32:55.091Z</time>
      </trkpt>
      <trkpt lat="47.84179" lon="6.90363">
        <ele>1136.9</ele>
        <time>2026-08-27T05:32:56.100Z</time>
      </trkpt>
      <trkpt lat="47.84181" lon="6.90365">
        <ele>1137</ele>
        <time>2026-08-27T05:32:57.999Z</time>
      </trkpt>
      <trkpt lat="47.84182" lon="6.90366">
        <ele>1137</ele>
        <time>2026-08-27T05:32:59.022Z</time>
      </trkpt>
      <trkpt lat="47.84182" lon="6.90367">
        <ele>1137</ele>
        <time>2026-08-27T05:33:00.030Z</time>
      </trkpt>
      <trkpt lat="47.84183" lon="6.90368">
        <ele>1137</ele>
        <time>2026-08-27T05:33:01.039Z</time>
      </trkpt>
      <trkpt lat="47.84184" lon="6.90368">
        <ele>1137</ele>
        <time>2026-08-27T05:33:02.047Z</time>
      </trkpt>
      <trkpt lat="47.84186" lon="6.9037">
        <ele>1136.8</ele>
        <time>2026-08-27T05:33:04.062Z</time>
      </trkpt>
      <trkpt lat="47.84186" lon="6.90371">
        <ele>1136.8</ele>
        <time>2026-08-27T05:33:05.070Z</time>
      </trkpt>
      <trkpt lat="47.84187" lon="6.90371">
        <ele>1136.8</ele>
        <time>2026-08-27T05:33:06.078Z</time>
      </trkpt>
      <trkpt lat="47.84188" lon="6.90372">
        <ele>1136.8</ele>
        <time>2026-08-27T05:33:07.086Z</time>
      </trkpt>
      <trkpt lat="47.84189" lon="6.90373">
        <ele>1136.9</ele>
        <time>2026-08-27T05:33:08.094Z</time>
      </trkpt>
      <trkpt lat="47.8419" lon="6.90374">
        <ele>1137</ele>
        <time>2026-08-27T05:33:09.102Z</time>
      </trkpt>
      <trkpt lat="47.84191" lon="6.90375">
        <ele>1136.8</ele>
        <time>2026-08-27T05:33:10.110Z</time>
      </trkpt>
      <trkpt lat="47.84193" lon="6.90377">
        <ele>1136.8</ele>
        <time>2026-08-27T05:33:12.025Z</time>
      </trkpt>
      <trkpt lat="47.84194" lon="6.90377">
        <ele>1136.8</ele>
        <time>2026-08-27T05:33:13.033Z</time>
      </trkpt>
      <trkpt lat="47.84195" lon="6.90378">
        <ele>1136.6</ele>
        <time>2026-08-27T05:33:14.042Z</time>
      </trkpt>
      <trkpt lat="47.84196" lon="6.90378">
        <ele>1136.6</ele>
        <time>2026-08-27T05:33:15.116Z</time>
      </trkpt>
      <trkpt lat="47.84198" lon="6.9038">
        <ele>1136.6</ele>
        <time>2026-08-27T05:33:17.065Z</time>
      </trkpt>
      <trkpt lat="47.84199" lon="6.90381">
        <ele>1136.5</ele>
        <time>2026-08-27T05:33:18.073Z</time>
      </trkpt>
      <trkpt lat="47.842" lon="6.90382">
        <ele>1136.6</ele>
        <time>2026-08-27T05:33:19.081Z</time>
      </trkpt>
      <trkpt lat="47.84202" lon="6.90384">
        <ele>1136.4</ele>
        <time>2026-08-27T05:33:21.097Z</time>
      </trkpt>
      <trkpt lat="47.84204" lon="6.90386">
        <ele>1136.4</ele>
        <time>2026-08-27T05:33:23.012Z</time>
      </trkpt>
      <trkpt lat="47.84205" lon="6.90386">
        <ele>1136.3</ele>
        <time>2026-08-27T05:33:24.021Z</time>
      </trkpt>
      <trkpt lat="47.84206" lon="6.90387">
        <ele>1136.5</ele>
        <time>2026-08-27T05:33:25.029Z</time>
      </trkpt>
      <trkpt lat="47.84207" lon="6.90388">
        <ele>1136.5</ele>
        <time>2026-08-27T05:33:26.096Z</time>
      </trkpt>
      <trkpt lat="47.84209" lon="6.9039">
        <ele>1136.6</ele>
        <time>2026-08-27T05:33:28.053Z</time>
      </trkpt>
      <trkpt lat="47.84209" lon="6.90391">
        <ele>1136.5</ele>
        <time>2026-08-27T05:33:29.060Z</time>
      </trkpt>
      <trkpt lat="47.8421" lon="6.90392">
        <ele>1136.6</ele>
        <time>2026-08-27T05:33:30.068Z</time>
      </trkpt>
      <trkpt lat="47.84211" lon="6.90393">
        <ele>1136.6</ele>
        <time>2026-08-27T05:33:31.076Z</time>
      </trkpt>
      <trkpt lat="47.84211" lon="6.90394">
        <ele>1136.3</ele>
        <time>2026-08-27T05:33:32.084Z</time>
      </trkpt>
      <trkpt lat="47.84212" lon="6.90395">
        <ele>1136.4</ele>
        <time>2026-08-27T05:33:33.092Z</time>
      </trkpt>
      <trkpt lat="47.84213" lon="6.90396">
        <ele>1136.4</ele>
        <time>2026-08-27T05:33:34.100Z</time>
      </trkpt>
      <trkpt lat="47.84213" lon="6.90397">
        <ele>1136.4</ele>
        <time>2026-08-27T05:33:35.108Z</time>
      </trkpt>
      <trkpt lat="47.84215" lon="6.90399">
        <ele>1136.6</ele>
        <time>2026-08-27T05:33:37.023Z</time>
      </trkpt>
      <trkpt lat="47.84215" lon="6.90401">
        <ele>1136.5</ele>
        <time>2026-08-27T05:33:38.031Z</time>
      </trkpt>
      <trkpt lat="47.84216" lon="6.90402">
        <ele>1136.5</ele>
        <time>2026-08-27T05:33:39.040Z</time>
      </trkpt>
      <trkpt lat="47.84217" lon="6.90403">
        <ele>1136.8</ele>
        <time>2026-08-27T05:33:40.048Z</time>
      </trkpt>
      <trkpt lat="47.84217" lon="6.90404">
        <ele>1136.7</ele>
        <time>2026-08-27T05:33:41.055Z</time>
      </trkpt>
      <trkpt lat="47.84218" lon="6.90406">
        <ele>1136.7</ele>
        <time>2026-08-27T05:33:42.063Z</time>
      </trkpt>
      <trkpt lat="47.84219" lon="6.90409">
        <ele>1136.3</ele>
        <time>2026-08-27T05:33:44.079Z</time>
      </trkpt>
      <trkpt lat="47.8422" lon="6.9041">
        <ele>1136.3</ele>
        <time>2026-08-27T05:33:45.095Z</time>
      </trkpt>
      <trkpt lat="47.8422" lon="6.90411">
        <ele>1136.3</ele>
        <time>2026-08-27T05:33:46.095Z</time>
      </trkpt>
      <trkpt lat="47.84221" lon="6.90413">
        <ele>1136.5</ele>
        <time>2026-08-27T05:33:47.104Z</time>
      </trkpt>
      <trkpt lat="47.84222" lon="6.90415">
        <ele>1136.3</ele>
        <time>2026-08-27T05:33:49.018Z</time>
      </trkpt>
      <trkpt lat="47.84223" lon="6.90416">
        <ele>1136.3</ele>
        <time>2026-08-27T05:33:50.026Z</time>
      </trkpt>
      <trkpt lat="47.84224" lon="6.90417">
        <ele>1136.5</ele>
        <time>2026-08-27T05:33:51.034Z</time>
      </trkpt>
      <trkpt lat="47.84225" lon="6.90418">
        <ele>1136.5</ele>
        <time>2026-08-27T05:33:52.042Z</time>
      </trkpt>
      <trkpt lat="47.84226" lon="6.90418">
        <ele>1136.5</ele>
        <time>2026-08-27T05:33:53.051Z</time>
      </trkpt>
      <trkpt lat="47.84227" lon="6.90419">
        <ele>1136.6</ele>
        <time>2026-08-27T05:33:54.058Z</time>
      </trkpt>
      <trkpt lat="47.84228" lon="6.9042">
        <ele>1136.7</ele>
        <time>2026-08-27T05:33:55.065Z</time>
      </trkpt>
      <trkpt lat="47.8423" lon="6.90422">
        <ele>1136.7</ele>
        <time>2026-08-27T05:33:57.081Z</time>
      </trkpt>
      <trkpt lat="47.84231" lon="6.90422">
        <ele>1136.7</ele>
        <time>2026-08-27T05:33:58.089Z</time>
      </trkpt>
      <trkpt lat="47.84232" lon="6.90422">
        <ele>1136.8</ele>
        <time>2026-08-27T05:33:59.097Z</time>
      </trkpt>
      <trkpt lat="47.84233" lon="6.90423">
        <ele>1136.5</ele>
        <time>2026-08-27T05:34:00.106Z</time>
      </trkpt>
      <trkpt lat="47.84233" lon="6.90425">
        <ele>1136.6</ele>
        <time>2026-08-27T05:34:02.020Z</time>
      </trkpt>
      <trkpt lat="47.84232" lon="6.90424">
        <ele>1136.6</ele>
        <time>2026-08-27T05:34:03.028Z</time>
      </trkpt>
      <trkpt lat="47.84232" lon="6.90424">
        <ele>1136.6</ele>
        <time>2026-08-27T05:34:04.036Z</time>
      </trkpt>
      <trkpt lat="47.84232" lon="6.90424">
        <ele>1136.4</ele>
        <time>2026-08-27T05:34:05.045Z</time>
      </trkpt>
      <trkpt lat="47.84231" lon="6.90424">
        <ele>1136.8</ele>
        <time>2026-08-27T05:34:06.053Z</time>
      </trkpt>
      <trkpt lat="47.84231" lon="6.90423">
        <ele>1136.7</ele>
        <time>2026-08-27T05:34:07.061Z</time>
      </trkpt>
      <trkpt lat="47.84231" lon="6.90423">
        <ele>1136.6</ele>
        <time>2026-08-27T05:34:08.068Z</time>
      </trkpt>
      <trkpt lat="47.84231" lon="6.90423">
        <ele>1136.8</ele>
        <time>2026-08-27T05:34:09.077Z</time>
      </trkpt>
      <trkpt lat="47.84233" lon="6.90424">
        <ele>1136.7</ele>
        <time>2026-08-27T05:34:10.991Z</time>
      </trkpt>
      <trkpt lat="47.84234" lon="6.90424">
        <ele>1136.4</ele>
        <time>2026-08-27T05:34:11.999Z</time>
      </trkpt>
      <trkpt lat="47.84235" lon="6.90426">
        <ele>1136.2</ele>
        <time>2026-08-27T05:34:14.015Z</time>
      </trkpt>
      <trkpt lat="47.84236" lon="6.90428">
        <ele>1136.2</ele>
        <time>2026-08-27T05:34:15.023Z</time>
      </trkpt>
      <trkpt lat="47.84236" lon="6.90429">
        <ele>1136.1</ele>
        <time>2026-08-27T05:34:16.032Z</time>
      </trkpt>
      <trkpt lat="47.84237" lon="6.90431">
        <ele>1136.2</ele>
        <time>2026-08-27T05:34:17.039Z</time>
      </trkpt>
      <trkpt lat="47.84237" lon="6.90433">
        <ele>1136</ele>
        <time>2026-08-27T05:34:18.048Z</time>
      </trkpt>
      <trkpt lat="47.84237" lon="6.90435">
        <ele>1135.9</ele>
        <time>2026-08-27T05:34:19.055Z</time>
      </trkpt>
      <trkpt lat="47.84238" lon="6.90437">
        <ele>1135.9</ele>
        <time>2026-08-27T05:34:20.081Z</time>
      </trkpt>
      <trkpt lat="47.84238" lon="6.90439">
        <ele>1136.2</ele>
        <time>2026-08-27T05:34:21.122Z</time>
      </trkpt>
      <trkpt lat="47.84239" lon="6.9044">
        <ele>1136.1</ele>
        <time>2026-08-27T05:34:22.357Z</time>
      </trkpt>
      <trkpt lat="47.8424" lon="6.90442">
        <ele>1136.2</ele>
        <time>2026-08-27T05:34:23.617Z</time>
      </trkpt>
      <trkpt lat="47.84241" lon="6.90443">
        <ele>1136.3</ele>
        <time>2026-08-27T05:34:24.835Z</time>
      </trkpt>
      <trkpt lat="47.84242" lon="6.90444">
        <ele>1136.3</ele>
        <time>2026-08-27T05:34:25.918Z</time>
      </trkpt>
      <trkpt lat="47.84242" lon="6.90446">
        <ele>1136.5</ele>
        <time>2026-08-27T05:34:27.078Z</time>
      </trkpt>
      <trkpt lat="47.84244" lon="6.90449">
        <ele>1136.6</ele>
        <time>2026-08-27T05:34:29.036Z</time>
      </trkpt>
      <trkpt lat="47.84244" lon="6.90451">
        <ele>1136.6</ele>
        <time>2026-08-27T05:34:30.078Z</time>
      </trkpt>
      <trkpt lat="47.84245" lon="6.90454">
        <ele>1136.6</ele>
        <time>2026-08-27T05:34:32.060Z</time>
      </trkpt>
      <trkpt lat="47.84245" lon="6.90456">
        <ele>1136.6</ele>
        <time>2026-08-27T05:34:33.068Z</time>
      </trkpt>
      <trkpt lat="47.84246" lon="6.90458">
        <ele>1136.7</ele>
        <time>2026-08-27T05:34:34.076Z</time>
      </trkpt>
      <trkpt lat="47.84246" lon="6.90459">
        <ele>1136.8</ele>
        <time>2026-08-27T05:34:35.083Z</time>
      </trkpt>
      <trkpt lat="47.84247" lon="6.90463">
        <ele>1137</ele>
        <time>2026-08-27T05:34:36.999Z</time>
      </trkpt>
      <trkpt lat="47.84247" lon="6.90465">
        <ele>1137</ele>
        <time>2026-08-27T05:34:38.007Z</time>
      </trkpt>
      <trkpt lat="47.84248" lon="6.90467">
        <ele>1137</ele>
        <time>2026-08-27T05:34:39.015Z</time>
      </trkpt>
      <trkpt lat="47.84248" lon="6.90469">
        <ele>1137.2</ele>
        <time>2026-08-27T05:34:40.023Z</time>
      </trkpt>
      <trkpt lat="47.84249" lon="6.90471">
        <ele>1136.7</ele>
        <time>2026-08-27T05:34:41.031Z</time>
      </trkpt>
      <trkpt lat="47.84249" lon="6.90472">
        <ele>1136.9</ele>
        <time>2026-08-27T05:34:42.039Z</time>
      </trkpt>
      <trkpt lat="47.8425" lon="6.90474">
        <ele>1136.9</ele>
        <time>2026-08-27T05:34:43.047Z</time>
      </trkpt>
      <trkpt lat="47.84249" lon="6.90476">
        <ele>1136.9</ele>
        <time>2026-08-27T05:34:44.055Z</time>
      </trkpt>
      <trkpt lat="47.84249" lon="6.90478">
        <ele>1136.9</ele>
        <time>2026-08-27T05:34:45.063Z</time>
      </trkpt>
      <trkpt lat="47.8425" lon="6.9048">
        <ele>1136.9</ele>
        <time>2026-08-27T05:34:46.071Z</time>
      </trkpt>
      <trkpt lat="47.8425" lon="6.90482">
        <ele>1136.9</ele>
        <time>2026-08-27T05:34:47.079Z</time>
      </trkpt>
      <trkpt lat="47.84252" lon="6.90485">
        <ele>1136.8</ele>
        <time>2026-08-27T05:34:48.919Z</time>
      </trkpt>
      <trkpt lat="47.84252" lon="6.90487">
        <ele>1137.1</ele>
        <time>2026-08-27T05:34:50.062Z</time>
      </trkpt>
      <trkpt lat="47.84253" lon="6.9049">
        <ele>1137.1</ele>
        <time>2026-08-27T05:34:52.019Z</time>
      </trkpt>
      <trkpt lat="47.84254" lon="6.90491">
        <ele>1137.1</ele>
        <time>2026-08-27T05:34:53.026Z</time>
      </trkpt>
      <trkpt lat="47.84255" lon="6.90492">
        <ele>1137.2</ele>
        <time>2026-08-27T05:34:54.036Z</time>
      </trkpt>
      <trkpt lat="47.84256" lon="6.90493">
        <ele>1137.5</ele>
        <time>2026-08-27T05:34:55.044Z</time>
      </trkpt>
      <trkpt lat="47.84257" lon="6.90496">
        <ele>1137.1</ele>
        <time>2026-08-27T05:34:56.958Z</time>
      </trkpt>
      <trkpt lat="47.84258" lon="6.90497">
        <ele>1137.1</ele>
        <time>2026-08-27T05:34:58.075Z</time>
      </trkpt>
      <trkpt lat="47.84259" lon="6.90498">
        <ele>1137.2</ele>
        <time>2026-08-27T05:34:59.075Z</time>
      </trkpt>
      <trkpt lat="47.84261" lon="6.905">
        <ele>1136.9</ele>
        <time>2026-08-27T05:35:01.083Z</time>
      </trkpt>
      <trkpt lat="47.84262" lon="6.90502">
        <ele>1136.6</ele>
        <time>2026-08-27T05:35:03.006Z</time>
      </trkpt>
      <trkpt lat="47.84263" lon="6.90502">
        <ele>1136.7</ele>
        <time>2026-08-27T05:35:04.015Z</time>
      </trkpt>
      <trkpt lat="47.84264" lon="6.90503">
        <ele>1136.9</ele>
        <time>2026-08-27T05:35:05.022Z</time>
      </trkpt>
      <trkpt lat="47.84264" lon="6.90504">
        <ele>1137.1</ele>
        <time>2026-08-27T05:35:06.031Z</time>
      </trkpt>
      <trkpt lat="47.84265" lon="6.90505">
        <ele>1136.8</ele>
        <time>2026-08-27T05:35:07.039Z</time>
      </trkpt>
      <trkpt lat="47.84266" lon="6.90505">
        <ele>1136.5</ele>
        <time>2026-08-27T05:35:08.048Z</time>
      </trkpt>
      <trkpt lat="47.84267" lon="6.90506">
        <ele>1136.8</ele>
        <time>2026-08-27T05:35:09.055Z</time>
      </trkpt>
      <trkpt lat="47.84267" lon="6.90507">
        <ele>1136.3</ele>
        <time>2026-08-27T05:35:10.064Z</time>
      </trkpt>
      <trkpt lat="47.84268" lon="6.90508">
        <ele>1136.3</ele>
        <time>2026-08-27T05:35:11.072Z</time>
      </trkpt>
      <trkpt lat="47.84269" lon="6.90509">
        <ele>1136.2</ele>
        <time>2026-08-27T05:35:12.079Z</time>
      </trkpt>
      <trkpt lat="47.8427" lon="6.90512">
        <ele>1136</ele>
        <time>2026-08-27T05:35:13.995Z</time>
      </trkpt>
      <trkpt lat="47.84271" lon="6.90513">
        <ele>1136.4</ele>
        <time>2026-08-27T05:35:15.002Z</time>
      </trkpt>
      <trkpt lat="47.84272" lon="6.90515">
        <ele>1136.4</ele>
        <time>2026-08-27T05:35:16.061Z</time>
      </trkpt>
      <trkpt lat="47.84273" lon="6.90518">
        <ele>1136</ele>
        <time>2026-08-27T05:35:18.028Z</time>
      </trkpt>
      <trkpt lat="47.84273" lon="6.90519">
        <ele>1136.1</ele>
        <time>2026-08-27T05:35:19.036Z</time>
      </trkpt>
      <trkpt lat="47.84274" lon="6.9052">
        <ele>1136.1</ele>
        <time>2026-08-27T05:35:20.043Z</time>
      </trkpt>
      <trkpt lat="47.84274" lon="6.90522">
        <ele>1136.1</ele>
        <time>2026-08-27T05:35:21.051Z</time>
      </trkpt>
      <trkpt lat="47.84275" lon="6.90524">
        <ele>1136.4</ele>
        <time>2026-08-27T05:35:23.068Z</time>
      </trkpt>
      <trkpt lat="47.84276" lon="6.90526">
        <ele>1136.4</ele>
        <time>2026-08-27T05:35:24.075Z</time>
      </trkpt>
      <trkpt lat="47.84277" lon="6.90528">
        <ele>1136.3</ele>
        <time>2026-08-27T05:35:25.991Z</time>
      </trkpt>
      <trkpt lat="47.84278" lon="6.90529">
        <ele>1136.4</ele>
        <time>2026-08-27T05:35:26.999Z</time>
      </trkpt>
      <trkpt lat="47.84279" lon="6.90531">
        <ele>1136.1</ele>
        <time>2026-08-27T05:35:28.008Z</time>
      </trkpt>
      <trkpt lat="47.84279" lon="6.90532">
        <ele>1135.8</ele>
        <time>2026-08-27T05:35:29.015Z</time>
      </trkpt>
      <trkpt lat="47.8428" lon="6.90534">
        <ele>1135.8</ele>
        <time>2026-08-27T05:35:30.024Z</time>
      </trkpt>
      <trkpt lat="47.84282" lon="6.90537">
        <ele>1135.6</ele>
        <time>2026-08-27T05:35:32.039Z</time>
      </trkpt>
      <trkpt lat="47.84282" lon="6.90538">
        <ele>1135.7</ele>
        <time>2026-08-27T05:35:33.047Z</time>
      </trkpt>
      <trkpt lat="47.84283" lon="6.90539">
        <ele>1135.7</ele>
        <time>2026-08-27T05:35:34.056Z</time>
      </trkpt>
      <trkpt lat="47.84284" lon="6.9054">
        <ele>1135.9</ele>
        <time>2026-08-27T05:35:35.063Z</time>
      </trkpt>
      <trkpt lat="47.84285" lon="6.90541">
        <ele>1135.9</ele>
        <time>2026-08-27T05:35:36.072Z</time>
      </trkpt>
      <trkpt lat="47.84286" lon="6.90543">
        <ele>1135.8</ele>
        <time>2026-08-27T05:35:37.987Z</time>
      </trkpt>
      <trkpt lat="47.84287" lon="6.90545">
        <ele>1135.7</ele>
        <time>2026-08-27T05:35:38.996Z</time>
      </trkpt>
      <trkpt lat="47.84288" lon="6.90547">
        <ele>1135.4</ele>
        <time>2026-08-27T05:35:41.012Z</time>
      </trkpt>
      <trkpt lat="47.84289" lon="6.90549">
        <ele>1135.4</ele>
        <time>2026-08-27T05:35:42.019Z</time>
      </trkpt>
      <trkpt lat="47.84289" lon="6.9055">
        <ele>1134.9</ele>
        <time>2026-08-27T05:35:43.028Z</time>
      </trkpt>
      <trkpt lat="47.8429" lon="6.90552">
        <ele>1134.9</ele>
        <time>2026-08-27T05:35:44.061Z</time>
      </trkpt>
      <trkpt lat="47.84291" lon="6.90555">
        <ele>1134.9</ele>
        <time>2026-08-27T05:35:46.053Z</time>
      </trkpt>
      <trkpt lat="47.84292" lon="6.90558">
        <ele>1135</ele>
        <time>2026-08-27T05:35:48.068Z</time>
      </trkpt>
      <trkpt lat="47.84293" lon="6.9056">
        <ele>1134.8</ele>
        <time>2026-08-27T05:35:49.916Z</time>
      </trkpt>
      <trkpt lat="47.84294" lon="6.90562">
        <ele>1134.7</ele>
        <time>2026-08-27T05:35:51.075Z</time>
      </trkpt>
      <trkpt lat="47.84296" lon="6.90563">
        <ele>1135</ele>
        <time>2026-08-27T05:35:53.008Z</time>
      </trkpt>
      <trkpt lat="47.84297" lon="6.90564">
        <ele>1134.9</ele>
        <time>2026-08-27T05:35:54.015Z</time>
      </trkpt>
      <trkpt lat="47.84298" lon="6.90565">
        <ele>1134.9</ele>
        <time>2026-08-27T05:35:55.024Z</time>
      </trkpt>
      <trkpt lat="47.84299" lon="6.90566">
        <ele>1135.1</ele>
        <time>2026-08-27T05:35:56.032Z</time>
      </trkpt>
      <trkpt lat="47.84299" lon="6.90567">
        <ele>1134.6</ele>
        <time>2026-08-27T05:35:57.040Z</time>
      </trkpt>
      <trkpt lat="47.843" lon="6.90568">
        <ele>1134.3</ele>
        <time>2026-08-27T05:35:58.048Z</time>
      </trkpt>
      <trkpt lat="47.84301" lon="6.90569">
        <ele>1134.2</ele>
        <time>2026-08-27T05:35:59.057Z</time>
      </trkpt>
      <trkpt lat="47.84302" lon="6.90571">
        <ele>1133.9</ele>
        <time>2026-08-27T05:36:00.065Z</time>
      </trkpt>
      <trkpt lat="47.84303" lon="6.90572">
        <ele>1133.9</ele>
        <time>2026-08-27T05:36:01.072Z</time>
      </trkpt>
      <trkpt lat="47.84304" lon="6.90575">
        <ele>1134</ele>
        <time>2026-08-27T05:36:02.987Z</time>
      </trkpt>
      <trkpt lat="47.84304" lon="6.90577">
        <ele>1133.8</ele>
        <time>2026-08-27T05:36:03.997Z</time>
      </trkpt>
      <trkpt lat="47.84305" lon="6.9058">
        <ele>1133.5</ele>
        <time>2026-08-27T05:36:06.012Z</time>
      </trkpt>
      <trkpt lat="47.84305" lon="6.90582">
        <ele>1133.7</ele>
        <time>2026-08-27T05:36:07.020Z</time>
      </trkpt>
      <trkpt lat="47.84306" lon="6.90583">
        <ele>1133.3</ele>
        <time>2026-08-27T05:36:08.029Z</time>
      </trkpt>
      <trkpt lat="47.84306" lon="6.90586">
        <ele>1132.9</ele>
        <time>2026-08-27T05:36:10.045Z</time>
      </trkpt>
      <trkpt lat="47.84305" lon="6.90587">
        <ele>1132.9</ele>
        <time>2026-08-27T05:36:11.052Z</time>
      </trkpt>
      <trkpt lat="47.84304" lon="6.90589">
        <ele>1132.7</ele>
        <time>2026-08-27T05:36:12.060Z</time>
      </trkpt>
      <trkpt lat="47.84304" lon="6.9059">
        <ele>1132.6</ele>
        <time>2026-08-27T05:36:13.068Z</time>
      </trkpt>
      <trkpt lat="47.84303" lon="6.90594">
        <ele>1132.2</ele>
        <time>2026-08-27T05:36:14.984Z</time>
      </trkpt>
      <trkpt lat="47.84303" lon="6.90595">
        <ele>1131.9</ele>
        <time>2026-08-27T05:36:15.992Z</time>
      </trkpt>
      <trkpt lat="47.84303" lon="6.90597">
        <ele>1131.9</ele>
        <time>2026-08-27T05:36:17.000Z</time>
      </trkpt>
      <trkpt lat="47.84302" lon="6.90598">
        <ele>1131.9</ele>
        <time>2026-08-27T05:36:18.008Z</time>
      </trkpt>
      <trkpt lat="47.84302" lon="6.90599">
        <ele>1132.1</ele>
        <time>2026-08-27T05:36:19.016Z</time>
      </trkpt>
      <trkpt lat="47.84302" lon="6.90601">
        <ele>1131.9</ele>
        <time>2026-08-27T05:36:20.024Z</time>
      </trkpt>
      <trkpt lat="47.84302" lon="6.90603">
        <ele>1132</ele>
        <time>2026-08-27T05:36:21.033Z</time>
      </trkpt>
      <trkpt lat="47.84303" lon="6.90604">
        <ele>1131.7</ele>
        <time>2026-08-27T05:36:22.042Z</time>
      </trkpt>
      <trkpt lat="47.84303" lon="6.90606">
        <ele>1131.7</ele>
        <time>2026-08-27T05:36:23.058Z</time>
      </trkpt>
      <trkpt lat="47.84303" lon="6.90607">
        <ele>1131.4</ele>
        <time>2026-08-27T05:36:24.058Z</time>
      </trkpt>
      <trkpt lat="47.84303" lon="6.90609">
        <ele>1131.5</ele>
        <time>2026-08-27T05:36:25.065Z</time>
      </trkpt>
      <trkpt lat="47.84303" lon="6.9061">
        <ele>1131.1</ele>
        <time>2026-08-27T05:36:26.073Z</time>
      </trkpt>
      <trkpt lat="47.84304" lon="6.90614">
        <ele>1130.6</ele>
        <time>2026-08-27T05:36:27.988Z</time>
      </trkpt>
      <trkpt lat="47.84303" lon="6.90616">
        <ele>1130.6</ele>
        <time>2026-08-27T05:36:28.997Z</time>
      </trkpt>
      <trkpt lat="47.84303" lon="6.90618">
        <ele>1130.3</ele>
        <time>2026-08-27T05:36:30.005Z</time>
      </trkpt>
      <trkpt lat="47.84303" lon="6.90619">
        <ele>1130.6</ele>
        <time>2026-08-27T05:36:31.014Z</time>
      </trkpt>
      <trkpt lat="47.84302" lon="6.90623">
        <ele>1130.6</ele>
        <time>2026-08-27T05:36:33.030Z</time>
      </trkpt>
      <trkpt lat="47.84302" lon="6.90624">
        <ele>1130.5</ele>
        <time>2026-08-27T05:36:34.038Z</time>
      </trkpt>
      <trkpt lat="47.84302" lon="6.90626">
        <ele>1130.3</ele>
        <time>2026-08-27T05:36:35.046Z</time>
      </trkpt>
      <trkpt lat="47.84302" lon="6.90628">
        <ele>1130.5</ele>
        <time>2026-08-27T05:36:36.054Z</time>
      </trkpt>
      <trkpt lat="47.84302" lon="6.90629">
        <ele>1130.2</ele>
        <time>2026-08-27T05:36:37.061Z</time>
      </trkpt>
      <trkpt lat="47.84302" lon="6.90631">
        <ele>1130.1</ele>
        <time>2026-08-27T05:36:38.070Z</time>
      </trkpt>
      <trkpt lat="47.84303" lon="6.90633">
        <ele>1130</ele>
        <time>2026-08-27T05:36:39.078Z</time>
      </trkpt>
      <trkpt lat="47.84303" lon="6.90636">
        <ele>1130</ele>
        <time>2026-08-27T05:36:41.018Z</time>
      </trkpt>
      <trkpt lat="47.84303" lon="6.9064">
        <ele>1129.6</ele>
        <time>2026-08-27T05:36:43.010Z</time>
      </trkpt>
      <trkpt lat="47.84304" lon="6.90641">
        <ele>1129.4</ele>
        <time>2026-08-27T05:36:44.018Z</time>
      </trkpt>
      <trkpt lat="47.84305" lon="6.90643">
        <ele>1129.4</ele>
        <time>2026-08-27T05:36:45.076Z</time>
      </trkpt>
      <trkpt lat="47.84305" lon="6.90646">
        <ele>1129.6</ele>
        <time>2026-08-27T05:36:46.942Z</time>
      </trkpt>
      <trkpt lat="47.84306" lon="6.90647">
        <ele>1129.6</ele>
        <time>2026-08-27T05:36:48.075Z</time>
      </trkpt>
      <trkpt lat="47.84306" lon="6.9065">
        <ele>1129.4</ele>
        <time>2026-08-27T05:36:50.067Z</time>
      </trkpt>
      <trkpt lat="47.84306" lon="6.90651">
        <ele>1129</ele>
        <time>2026-08-27T05:36:51.074Z</time>
      </trkpt>
      <trkpt lat="47.84307" lon="6.90654">
        <ele>1128.9</ele>
        <time>2026-08-27T05:36:52.939Z</time>
      </trkpt>
      <trkpt lat="47.84307" lon="6.90656">
        <ele>1128.8</ele>
        <time>2026-08-27T05:36:53.998Z</time>
      </trkpt>
      <trkpt lat="47.84307" lon="6.90657">
        <ele>1128.4</ele>
        <time>2026-08-27T05:36:55.007Z</time>
      </trkpt>
      <trkpt lat="47.84308" lon="6.90659">
        <ele>1128.1</ele>
        <time>2026-08-27T05:36:56.014Z</time>
      </trkpt>
      <trkpt lat="47.84308" lon="6.9066">
        <ele>1128.1</ele>
        <time>2026-08-27T05:36:57.081Z</time>
      </trkpt>
      <trkpt lat="47.84309" lon="6.90663">
        <ele>1128</ele>
        <time>2026-08-27T05:36:59.039Z</time>
      </trkpt>
      <trkpt lat="47.84309" lon="6.90664">
        <ele>1128.1</ele>
        <time>2026-08-27T05:37:00.047Z</time>
      </trkpt>
      <trkpt lat="47.84309" lon="6.90666">
        <ele>1128.2</ele>
        <time>2026-08-27T05:37:01.055Z</time>
      </trkpt>
      <trkpt lat="47.84309" lon="6.90667">
        <ele>1128.1</ele>
        <time>2026-08-27T05:37:02.062Z</time>
      </trkpt>
      <trkpt lat="47.8431" lon="6.90668">
        <ele>1127.9</ele>
        <time>2026-08-27T05:37:03.071Z</time>
      </trkpt>
      <trkpt lat="47.8431" lon="6.90669">
        <ele>1127.8</ele>
        <time>2026-08-27T05:37:04.079Z</time>
      </trkpt>
      <trkpt lat="47.84311" lon="6.9067">
        <ele>1127.8</ele>
        <time>2026-08-27T05:37:05.096Z</time>
      </trkpt>
      <trkpt lat="47.84312" lon="6.90672">
        <ele>1127.6</ele>
        <time>2026-08-27T05:37:06.382Z</time>
      </trkpt>
      <trkpt lat="47.84313" lon="6.90673">
        <ele>1127.5</ele>
        <time>2026-08-27T05:37:07.615Z</time>
      </trkpt>
      <trkpt lat="47.84314" lon="6.90675">
        <ele>1127.3</ele>
        <time>2026-08-27T05:37:08.843Z</time>
      </trkpt>
      <trkpt lat="47.84314" lon="6.90677">
        <ele>1127.4</ele>
        <time>2026-08-27T05:37:10.018Z</time>
      </trkpt>
      <trkpt lat="47.84315" lon="6.90679">
        <ele>1127.2</ele>
        <time>2026-08-27T05:37:11.036Z</time>
      </trkpt>
      <trkpt lat="47.84315" lon="6.90681">
        <ele>1126.9</ele>
        <time>2026-08-27T05:37:12.043Z</time>
      </trkpt>
      <trkpt lat="47.84315" lon="6.90682">
        <ele>1126.9</ele>
        <time>2026-08-27T05:37:13.060Z</time>
      </trkpt>
      <trkpt lat="47.84316" lon="6.90686">
        <ele>1127</ele>
        <time>2026-08-27T05:37:15.067Z</time>
      </trkpt>
      <trkpt lat="47.84316" lon="6.90687">
        <ele>1126.8</ele>
        <time>2026-08-27T05:37:16.075Z</time>
      </trkpt>
      <trkpt lat="47.84317" lon="6.9069">
        <ele>1127</ele>
        <time>2026-08-27T05:37:18.058Z</time>
      </trkpt>
      <trkpt lat="47.84318" lon="6.90692">
        <ele>1127</ele>
        <time>2026-08-27T05:37:19.914Z</time>
      </trkpt>
      <trkpt lat="47.84318" lon="6.90693">
        <ele>1126.7</ele>
        <time>2026-08-27T05:37:21.016Z</time>
      </trkpt>
      <trkpt lat="47.84319" lon="6.90694">
        <ele>1126.7</ele>
        <time>2026-08-27T05:37:22.024Z</time>
      </trkpt>
      <trkpt lat="47.84319" lon="6.90696">
        <ele>1126.9</ele>
        <time>2026-08-27T05:37:23.031Z</time>
      </trkpt>
      <trkpt lat="47.84319" lon="6.90697">
        <ele>1126.4</ele>
        <time>2026-08-27T05:37:24.039Z</time>
      </trkpt>
      <trkpt lat="47.84319" lon="6.90699">
        <ele>1126.3</ele>
        <time>2026-08-27T05:37:25.047Z</time>
      </trkpt>
      <trkpt lat="47.84321" lon="6.90702">
        <ele>1126.1</ele>
        <time>2026-08-27T05:37:27.064Z</time>
      </trkpt>
      <trkpt lat="47.84321" lon="6.90703">
        <ele>1126.1</ele>
        <time>2026-08-27T05:37:28.072Z</time>
      </trkpt>
      <trkpt lat="47.84322" lon="6.90706">
        <ele>1126.2</ele>
        <time>2026-08-27T05:37:29.988Z</time>
      </trkpt>
      <trkpt lat="47.84322" lon="6.90707">
        <ele>1126.4</ele>
        <time>2026-08-27T05:37:30.995Z</time>
      </trkpt>
      <trkpt lat="47.84323" lon="6.90709">
        <ele>1126.1</ele>
        <time>2026-08-27T05:37:32.003Z</time>
      </trkpt>
      <trkpt lat="47.84323" lon="6.9071">
        <ele>1126.1</ele>
        <time>2026-08-27T05:37:33.079Z</time>
      </trkpt>
      <trkpt lat="47.84324" lon="6.90713">
        <ele>1125.6</ele>
        <time>2026-08-27T05:37:35.028Z</time>
      </trkpt>
      <trkpt lat="47.84325" lon="6.90714">
        <ele>1125.6</ele>
        <time>2026-08-27T05:37:36.078Z</time>
      </trkpt>
      <trkpt lat="47.84326" lon="6.90717">
        <ele>1125.2</ele>
        <time>2026-08-27T05:37:38.052Z</time>
      </trkpt>
      <trkpt lat="47.84327" lon="6.9072">
        <ele>1124.8</ele>
        <time>2026-08-27T05:37:40.068Z</time>
      </trkpt>
      <trkpt lat="47.84328" lon="6.90723">
        <ele>1124.5</ele>
        <time>2026-08-27T05:37:42.017Z</time>
      </trkpt>
      <trkpt lat="47.84328" lon="6.90725">
        <ele>1124.2</ele>
        <time>2026-08-27T05:37:43.899Z</time>
      </trkpt>
      <trkpt lat="47.84329" lon="6.90727">
        <ele>1124.2</ele>
        <time>2026-08-27T05:37:45.008Z</time>
      </trkpt>
      <trkpt lat="47.84329" lon="6.90728">
        <ele>1124.4</ele>
        <time>2026-08-27T05:37:46.017Z</time>
      </trkpt>
      <trkpt lat="47.84329" lon="6.90729">
        <ele>1124.5</ele>
        <time>2026-08-27T05:37:47.024Z</time>
      </trkpt>
      <trkpt lat="47.84329" lon="6.90731">
        <ele>1124.2</ele>
        <time>2026-08-27T05:37:48.033Z</time>
      </trkpt>
      <trkpt lat="47.8433" lon="6.90732">
        <ele>1124.3</ele>
        <time>2026-08-27T05:37:49.041Z</time>
      </trkpt>
      <trkpt lat="47.84331" lon="6.90735">
        <ele>1124.1</ele>
        <time>2026-08-27T05:37:51.057Z</time>
      </trkpt>
      <trkpt lat="47.84331" lon="6.90737">
        <ele>1124.2</ele>
        <time>2026-08-27T05:37:52.065Z</time>
      </trkpt>
      <trkpt lat="47.84332" lon="6.9074">
        <ele>1123.6</ele>
        <time>2026-08-27T05:37:53.981Z</time>
      </trkpt>
      <trkpt lat="47.84332" lon="6.90742">
        <ele>1124</ele>
        <time>2026-08-27T05:37:54.989Z</time>
      </trkpt>
      <trkpt lat="47.84332" lon="6.90743">
        <ele>1124</ele>
        <time>2026-08-27T05:37:55.997Z</time>
      </trkpt>
      <trkpt lat="47.84332" lon="6.90745">
        <ele>1123.3</ele>
        <time>2026-08-27T05:37:57.005Z</time>
      </trkpt>
      <trkpt lat="47.84333" lon="6.90746">
        <ele>1123.7</ele>
        <time>2026-08-27T05:37:58.014Z</time>
      </trkpt>
      <trkpt lat="47.84333" lon="6.90749">
        <ele>1123.7</ele>
        <time>2026-08-27T05:38:00.029Z</time>
      </trkpt>
      <trkpt lat="47.84333" lon="6.9075">
        <ele>1123.4</ele>
        <time>2026-08-27T05:38:01.038Z</time>
      </trkpt>
      <trkpt lat="47.84333" lon="6.90752">
        <ele>1123.4</ele>
        <time>2026-08-27T05:38:02.079Z</time>
      </trkpt>
      <trkpt lat="47.84334" lon="6.90755">
        <ele>1123.5</ele>
        <time>2026-08-27T05:38:03.978Z</time>
      </trkpt>
      <trkpt lat="47.84334" lon="6.90757">
        <ele>1122.9</ele>
        <time>2026-08-27T05:38:05.977Z</time>
      </trkpt>
      <trkpt lat="47.84334" lon="6.90758">
        <ele>1123.2</ele>
        <time>2026-08-27T05:38:06.985Z</time>
      </trkpt>
      <trkpt lat="47.84335" lon="6.90761">
        <ele>1123</ele>
        <time>2026-08-27T05:38:09.002Z</time>
      </trkpt>
      <trkpt lat="47.84335" lon="6.90761">
        <ele>1123</ele>
        <time>2026-08-27T05:38:10.010Z</time>
      </trkpt>
      <trkpt lat="47.84336" lon="6.90762">
        <ele>1123</ele>
        <time>2026-08-27T05:38:11.018Z</time>
      </trkpt>
      <trkpt lat="47.84336" lon="6.90763">
        <ele>1123.1</ele>
        <time>2026-08-27T05:38:12.027Z</time>
      </trkpt>
      <trkpt lat="47.84336" lon="6.90762">
        <ele>1123.5</ele>
        <time>2026-08-27T05:38:14.042Z</time>
      </trkpt>
      <trkpt lat="47.84336" lon="6.90761">
        <ele>1123.9</ele>
        <time>2026-08-27T05:38:15.050Z</time>
      </trkpt>
      <trkpt lat="47.84336" lon="6.9076">
        <ele>1124.1</ele>
        <time>2026-08-27T05:38:16.058Z</time>
      </trkpt>
      <trkpt lat="47.84336" lon="6.9076">
        <ele>1124.1</ele>
        <time>2026-08-27T05:38:17.067Z</time>
      </trkpt>
      <trkpt lat="47.84336" lon="6.90759">
        <ele>1124.1</ele>
        <time>2026-08-27T05:38:18.982Z</time>
      </trkpt>
      <trkpt lat="47.84336" lon="6.90759">
        <ele>1124.2</ele>
        <time>2026-08-27T05:38:19.990Z</time>
      </trkpt>
      <trkpt lat="47.84336" lon="6.90758">
        <ele>1124.2</ele>
        <time>2026-08-27T05:38:20.998Z</time>
      </trkpt>
      <trkpt lat="47.84335" lon="6.90758">
        <ele>1124</ele>
        <time>2026-08-27T05:38:22.007Z</time>
      </trkpt>
      <trkpt lat="47.84335" lon="6.90758">
        <ele>1124.1</ele>
        <time>2026-08-27T05:38:23.014Z</time>
      </trkpt>
      <trkpt lat="47.84334" lon="6.90758">
        <ele>1124.3</ele>
        <time>2026-08-27T05:38:24.023Z</time>
      </trkpt>
      <trkpt lat="47.84333" lon="6.90759">
        <ele>1124</ele>
        <time>2026-08-27T05:38:25.031Z</time>
      </trkpt>
      <trkpt lat="47.84333" lon="6.90761">
        <ele>1123.9</ele>
        <time>2026-08-27T05:38:26.040Z</time>
      </trkpt>
      <trkpt lat="47.84334" lon="6.90764">
        <ele>1123.8</ele>
        <time>2026-08-27T05:38:28.055Z</time>
      </trkpt>
      <trkpt lat="47.84334" lon="6.90766">
        <ele>1124</ele>
        <time>2026-08-27T05:38:29.064Z</time>
      </trkpt>
      <trkpt lat="47.84335" lon="6.90769">
        <ele>1124</ele>
        <time>2026-08-27T05:38:31.021Z</time>
      </trkpt>
      <trkpt lat="47.84336" lon="6.90772">
        <ele>1124.4</ele>
        <time>2026-08-27T05:38:32.920Z</time>
      </trkpt>
      <trkpt lat="47.84336" lon="6.90775">
        <ele>1124.3</ele>
        <time>2026-08-27T05:38:34.003Z</time>
      </trkpt>
      <trkpt lat="47.84336" lon="6.90777">
        <ele>1124.6</ele>
        <time>2026-08-27T05:38:35.012Z</time>
      </trkpt>
      <trkpt lat="47.84337" lon="6.90779">
        <ele>1124.7</ele>
        <time>2026-08-27T05:38:37.027Z</time>
      </trkpt>
      <trkpt lat="47.84337" lon="6.9078">
        <ele>1124.7</ele>
        <time>2026-08-27T05:38:38.035Z</time>
      </trkpt>
      <trkpt lat="47.84337" lon="6.9078">
        <ele>1124.7</ele>
        <time>2026-08-27T05:38:39.077Z</time>
      </trkpt>
      <trkpt lat="47.84337" lon="6.9078">
        <ele>1124.8</ele>
        <time>2026-08-27T05:38:41.060Z</time>
      </trkpt>
      <trkpt lat="47.84337" lon="6.90781">
        <ele>1124.9</ele>
        <time>2026-08-27T05:38:42.975Z</time>
      </trkpt>
      <trkpt lat="47.84337" lon="6.90782">
        <ele>1125.2</ele>
        <time>2026-08-27T05:38:44.085Z</time>
      </trkpt>
      <trkpt lat="47.84338" lon="6.90783">
        <ele>1125.2</ele>
        <time>2026-08-27T05:38:45.093Z</time>
      </trkpt>
      <trkpt lat="47.84338" lon="6.90784">
        <ele>1125.2</ele>
        <time>2026-08-27T05:38:46.101Z</time>
      </trkpt>
      <trkpt lat="47.84338" lon="6.90784">
        <ele>1125.4</ele>
        <time>2026-08-27T05:38:48.015Z</time>
      </trkpt>
      <trkpt lat="47.84338" lon="6.90785">
        <ele>1125.3</ele>
        <time>2026-08-27T05:38:49.023Z</time>
      </trkpt>
      <trkpt lat="47.84338" lon="6.90785">
        <ele>1125.4</ele>
        <time>2026-08-27T05:38:50.031Z</time>
      </trkpt>
      <trkpt lat="47.84339" lon="6.90785">
        <ele>1125.4</ele>
        <time>2026-08-27T05:38:51.039Z</time>
      </trkpt>
      <trkpt lat="47.84339" lon="6.90785">
        <ele>1125.3</ele>
        <time>2026-08-27T05:38:52.048Z</time>
      </trkpt>
      <trkpt lat="47.84339" lon="6.90785">
        <ele>1125.5</ele>
        <time>2026-08-27T05:38:53.055Z</time>
      </trkpt>
      <trkpt lat="47.84339" lon="6.90785">
        <ele>1125.6</ele>
        <time>2026-08-27T05:38:54.064Z</time>
      </trkpt>
      <trkpt lat="47.84339" lon="6.90785">
        <ele>1125.6</ele>
        <time>2026-08-27T05:38:55.071Z</time>
      </trkpt>
      <trkpt lat="47.84339" lon="6.90785">
        <ele>1125.2</ele>
        <time>2026-08-27T05:38:56.079Z</time>
      </trkpt>
      <trkpt lat="47.8434" lon="6.90785">
        <ele>1125.3</ele>
        <time>2026-08-27T05:38:57.087Z</time>
      </trkpt>
      <trkpt lat="47.8434" lon="6.90785">
        <ele>1125.3</ele>
        <time>2026-08-27T05:38:58.095Z</time>
      </trkpt>
      <trkpt lat="47.8434" lon="6.90785">
        <ele>1125.3</ele>
        <time>2026-08-27T05:39:00.011Z</time>
      </trkpt>
      <trkpt lat="47.84339" lon="6.90786">
        <ele>1125.1</ele>
        <time>2026-08-27T05:39:01.019Z</time>
      </trkpt>
      <trkpt lat="47.84339" lon="6.90786">
        <ele>1125</ele>
        <time>2026-08-27T05:39:02.027Z</time>
      </trkpt>
      <trkpt lat="47.84337" lon="6.90787">
        <ele>1124.8</ele>
        <time>2026-08-27T05:39:03.035Z</time>
      </trkpt>
      <trkpt lat="47.84336" lon="6.90788">
        <ele>1124.9</ele>
        <time>2026-08-27T05:39:05.052Z</time>
      </trkpt>
      <trkpt lat="47.84336" lon="6.90789">
        <ele>1125</ele>
        <time>2026-08-27T05:39:06.060Z</time>
      </trkpt>
      <trkpt lat="47.84338" lon="6.9079">
        <ele>1124.9</ele>
        <time>2026-08-27T05:39:07.975Z</time>
      </trkpt>
      <trkpt lat="47.84339" lon="6.90791">
        <ele>1125.1</ele>
        <time>2026-08-27T05:39:09.083Z</time>
      </trkpt>
      <trkpt lat="47.84341" lon="6.90791">
        <ele>1125.3</ele>
        <time>2026-08-27T05:39:10.091Z</time>
      </trkpt>
      <trkpt lat="47.84342" lon="6.9079">
        <ele>1125.6</ele>
        <time>2026-08-27T05:39:12.006Z</time>
      </trkpt>
      <trkpt lat="47.84343" lon="6.9079">
        <ele>1126.1</ele>
        <time>2026-08-27T05:39:13.015Z</time>
      </trkpt>
      <trkpt lat="47.84343" lon="6.90789">
        <ele>1126.1</ele>
        <time>2026-08-27T05:39:14.022Z</time>
      </trkpt>
      <trkpt lat="47.84343" lon="6.90788">
        <ele>1126</ele>
        <time>2026-08-27T05:39:15.030Z</time>
      </trkpt>
      <trkpt lat="47.84343" lon="6.90788">
        <ele>1126</ele>
        <time>2026-08-27T05:39:16.038Z</time>
      </trkpt>
      <trkpt lat="47.84343" lon="6.90787">
        <ele>1126.1</ele>
        <time>2026-08-27T05:39:17.046Z</time>
      </trkpt>
      <trkpt lat="47.84343" lon="6.90787">
        <ele>1126.4</ele>
        <time>2026-08-27T05:39:18.055Z</time>
      </trkpt>
      <trkpt lat="47.84343" lon="6.90786">
        <ele>1126.3</ele>
        <time>2026-08-27T05:39:20.070Z</time>
      </trkpt>
      <trkpt lat="47.84343" lon="6.90786">
        <ele>1126.4</ele>
        <time>2026-08-27T05:39:21.078Z</time>
      </trkpt>
      <trkpt lat="47.84343" lon="6.90786">
        <ele>1126.2</ele>
        <time>2026-08-27T05:39:22.087Z</time>
      </trkpt>
      <trkpt lat="47.84343" lon="6.90786">
        <ele>1126.3</ele>
        <time>2026-08-27T05:39:23.095Z</time>
      </trkpt>
      <trkpt lat="47.84343" lon="6.90786">
        <ele>1126.5</ele>
        <time>2026-08-27T05:39:24.103Z</time>
      </trkpt>
      <trkpt lat="47.84344" lon="6.90786">
        <ele>1126.3</ele>
        <time>2026-08-27T05:39:25.110Z</time>
      </trkpt>
      <trkpt lat="47.84344" lon="6.90786">
        <ele>1126.1</ele>
        <time>2026-08-27T05:39:27.027Z</time>
      </trkpt>
      <trkpt lat="47.84344" lon="6.90785">
        <ele>1126.2</ele>
        <time>2026-08-27T05:39:28.035Z</time>
      </trkpt>
      <trkpt lat="47.84345" lon="6.90785">
        <ele>1126.4</ele>
        <time>2026-08-27T05:39:30.041Z</time>
      </trkpt>
      <trkpt lat="47.84345" lon="6.90785">
        <ele>1126.5</ele>
        <time>2026-08-27T05:39:31.058Z</time>
      </trkpt>
      <trkpt lat="47.84346" lon="6.90785">
        <ele>1126.7</ele>
        <time>2026-08-27T05:39:32.067Z</time>
      </trkpt>
      <trkpt lat="47.84346" lon="6.90785">
        <ele>1126.7</ele>
        <time>2026-08-27T05:39:33.074Z</time>
      </trkpt>
      <trkpt lat="47.84347" lon="6.90784">
        <ele>1127</ele>
        <time>2026-08-27T05:39:34.082Z</time>
      </trkpt>
      <trkpt lat="47.84347" lon="6.90784">
        <ele>1126.8</ele>
        <time>2026-08-27T05:39:35.090Z</time>
      </trkpt>
      <trkpt lat="47.84348" lon="6.90784">
        <ele>1126.9</ele>
        <time>2026-08-27T05:39:37.107Z</time>
      </trkpt>
      <trkpt lat="47.84349" lon="6.90783">
        <ele>1127.4</ele>
        <time>2026-08-27T05:39:39.022Z</time>
      </trkpt>
      <trkpt lat="47.8435" lon="6.90783">
        <ele>1127.4</ele>
        <time>2026-08-27T05:39:40.029Z</time>
      </trkpt>
      <trkpt lat="47.8435" lon="6.90783">
        <ele>1127.4</ele>
        <time>2026-08-27T05:39:41.038Z</time>
      </trkpt>
      <trkpt lat="47.84351" lon="6.90782">
        <ele>1127.6</ele>
        <time>2026-08-27T05:39:42.046Z</time>
      </trkpt>
      <trkpt lat="47.84352" lon="6.90782">
        <ele>1127.6</ele>
        <time>2026-08-27T05:39:44.061Z</time>
      </trkpt>
      <trkpt lat="47.84353" lon="6.90782">
        <ele>1128.2</ele>
        <time>2026-08-27T05:39:45.069Z</time>
      </trkpt>
      <trkpt lat="47.84353" lon="6.90782">
        <ele>1128.2</ele>
        <time>2026-08-27T05:39:46.077Z</time>
      </trkpt>
      <trkpt lat="47.84353" lon="6.90782">
        <ele>1128.3</ele>
        <time>2026-08-27T05:39:47.085Z</time>
      </trkpt>
      <trkpt lat="47.84354" lon="6.90782">
        <ele>1128.1</ele>
        <time>2026-08-27T05:39:48.094Z</time>
      </trkpt>
      <trkpt lat="47.84354" lon="6.90781">
        <ele>1128.3</ele>
        <time>2026-08-27T05:39:49.102Z</time>
      </trkpt>
      <trkpt lat="47.84355" lon="6.90781">
        <ele>1128.4</ele>
        <time>2026-08-27T05:39:50.109Z</time>
      </trkpt>
      <trkpt lat="47.84356" lon="6.90781">
        <ele>1128.4</ele>
        <time>2026-08-27T05:39:52.024Z</time>
      </trkpt>
      <trkpt lat="47.84356" lon="6.90781">
        <ele>1128.8</ele>
        <time>2026-08-27T05:39:53.032Z</time>
      </trkpt>
      <trkpt lat="47.84356" lon="6.9078">
        <ele>1128.4</ele>
        <time>2026-08-27T05:39:54.040Z</time>
      </trkpt>
      <trkpt lat="47.84356" lon="6.9078">
        <ele>1128.3</ele>
        <time>2026-08-27T05:39:55.049Z</time>
      </trkpt>
      <trkpt lat="47.84356" lon="6.9078">
        <ele>1128.3</ele>
        <time>2026-08-27T05:39:56.056Z</time>
      </trkpt>
      <trkpt lat="47.84357" lon="6.90779">
        <ele>1128.2</ele>
        <time>2026-08-27T05:39:57.065Z</time>
      </trkpt>
      <trkpt lat="47.84357" lon="6.90779">
        <ele>1128.1</ele>
        <time>2026-08-27T05:39:58.073Z</time>
      </trkpt>
      <trkpt lat="47.84357" lon="6.90779">
        <ele>1128.3</ele>
        <time>2026-08-27T05:39:59.080Z</time>
      </trkpt>
      <trkpt lat="47.84357" lon="6.90779">
        <ele>1128.2</ele>
        <time>2026-08-27T05:40:00.088Z</time>
      </trkpt>
      <trkpt lat="47.84357" lon="6.90779">
        <ele>1128.1</ele>
        <time>2026-08-27T05:40:01.096Z</time>
      </trkpt>
      <trkpt lat="47.84357" lon="6.90779">
        <ele>1128.1</ele>
        <time>2026-08-27T05:40:02.104Z</time>
      </trkpt>
      <trkpt lat="47.84357" lon="6.90779">
        <ele>1128.2</ele>
        <time>2026-08-27T05:40:03.113Z</time>
      </trkpt>
      <trkpt lat="47.84357" lon="6.9078">
        <ele>1128</ele>
        <time>2026-08-27T05:40:05.027Z</time>
      </trkpt>
      <trkpt lat="47.84357" lon="6.9078">
        <ele>1128</ele>
        <time>2026-08-27T05:40:06.035Z</time>
      </trkpt>
      <trkpt lat="47.84357" lon="6.9078">
        <ele>1128</ele>
        <time>2026-08-27T05:40:07.043Z</time>
      </trkpt>
      <trkpt lat="47.84357" lon="6.9078">
        <ele>1128.4</ele>
        <time>2026-08-27T05:40:08.052Z</time>
      </trkpt>
      <trkpt lat="47.84357" lon="6.9078">
        <ele>1128.4</ele>
        <time>2026-08-27T05:40:09.059Z</time>
      </trkpt>
      <trkpt lat="47.84357" lon="6.9078">
        <ele>1128.3</ele>
        <time>2026-08-27T05:40:10.068Z</time>
      </trkpt>
      <trkpt lat="47.84357" lon="6.9078">
        <ele>1128.3</ele>
        <time>2026-08-27T05:40:11.075Z</time>
      </trkpt>
      <trkpt lat="47.84357" lon="6.9078">
        <ele>1128.2</ele>
        <time>2026-08-27T05:40:12.084Z</time>
      </trkpt>
      <trkpt lat="47.84357" lon="6.90781">
        <ele>1128.1</ele>
        <time>2026-08-27T05:40:13.092Z</time>
      </trkpt>
      <trkpt lat="47.84356" lon="6.90782">
        <ele>1128.5</ele>
        <time>2026-08-27T05:40:14.099Z</time>
      </trkpt>
      <trkpt lat="47.84356" lon="6.90782">
        <ele>1128.5</ele>
        <time>2026-08-27T05:40:15.107Z</time>
      </trkpt>
      <trkpt lat="47.84354" lon="6.90782">
        <ele>1128</ele>
        <time>2026-08-27T05:40:17.022Z</time>
      </trkpt>
      <trkpt lat="47.84354" lon="6.90782">
        <ele>1128</ele>
        <time>2026-08-27T05:40:18.031Z</time>
      </trkpt>
      <trkpt lat="47.84353" lon="6.90782">
        <ele>1128</ele>
        <time>2026-08-27T05:40:19.055Z</time>
      </trkpt>
      <trkpt lat="47.84352" lon="6.90782">
        <ele>1127.8</ele>
        <time>2026-08-27T05:40:21.055Z</time>
      </trkpt>
      <trkpt lat="47.84351" lon="6.90781">
        <ele>1127.8</ele>
        <time>2026-08-27T05:40:22.062Z</time>
      </trkpt>
      <trkpt lat="47.8435" lon="6.90781">
        <ele>1127.6</ele>
        <time>2026-08-27T05:40:23.070Z</time>
      </trkpt>
      <trkpt lat="47.8435" lon="6.90781">
        <ele>1128</ele>
        <time>2026-08-27T05:40:24.078Z</time>
      </trkpt>
      <trkpt lat="47.84349" lon="6.90781">
        <ele>1127.8</ele>
        <time>2026-08-27T05:40:25.086Z</time>
      </trkpt>
      <trkpt lat="47.84349" lon="6.9078">
        <ele>1127.3</ele>
        <time>2026-08-27T05:40:26.094Z</time>
      </trkpt>
      <trkpt lat="47.84347" lon="6.90779">
        <ele>1127</ele>
        <time>2026-08-27T05:40:28.035Z</time>
      </trkpt>
      <trkpt lat="47.84346" lon="6.90777">
        <ele>1126.5</ele>
        <time>2026-08-27T05:40:30.026Z</time>
      </trkpt>
      <trkpt lat="47.84344" lon="6.90775">
        <ele>1126.4</ele>
        <time>2026-08-27T05:40:32.042Z</time>
      </trkpt>
      <trkpt lat="47.84344" lon="6.90774">
        <ele>1126.1</ele>
        <time>2026-08-27T05:40:33.050Z</time>
      </trkpt>
      <trkpt lat="47.84343" lon="6.90774">
        <ele>1126.3</ele>
        <time>2026-08-27T05:40:34.057Z</time>
      </trkpt>
      <trkpt lat="47.84342" lon="6.90773">
        <ele>1126.2</ele>
        <time>2026-08-27T05:40:35.065Z</time>
      </trkpt>
      <trkpt lat="47.8434" lon="6.90773">
        <ele>1125.9</ele>
        <time>2026-08-27T05:40:36.073Z</time>
      </trkpt>
      <trkpt lat="47.84339" lon="6.90772">
        <ele>1125.6</ele>
        <time>2026-08-27T05:40:37.115Z</time>
      </trkpt>
      <trkpt lat="47.84337" lon="6.90772">
        <ele>1125.1</ele>
        <time>2026-08-27T05:40:39.097Z</time>
      </trkpt>
      <trkpt lat="47.84337" lon="6.90771">
        <ele>1124.7</ele>
        <time>2026-08-27T05:40:40.106Z</time>
      </trkpt>
      <trkpt lat="47.84336" lon="6.90769">
        <ele>1124.6</ele>
        <time>2026-08-27T05:40:42.020Z</time>
      </trkpt>
      <trkpt lat="47.84335" lon="6.90768">
        <ele>1124.7</ele>
        <time>2026-08-27T05:40:43.029Z</time>
      </trkpt>
      <trkpt lat="47.84334" lon="6.90767">
        <ele>1124.6</ele>
        <time>2026-08-27T05:40:44.036Z</time>
      </trkpt>
      <trkpt lat="47.84334" lon="6.90766">
        <ele>1124.5</ele>
        <time>2026-08-27T05:40:45.045Z</time>
      </trkpt>
      <trkpt lat="47.84334" lon="6.90764">
        <ele>1124.1</ele>
        <time>2026-08-27T05:40:46.053Z</time>
      </trkpt>
      <trkpt lat="47.84335" lon="6.90764">
        <ele>1124</ele>
        <time>2026-08-27T05:40:47.060Z</time>
      </trkpt>
      <trkpt lat="47.84335" lon="6.90766">
        <ele>1123.9</ele>
        <time>2026-08-27T05:40:48.068Z</time>
      </trkpt>
      <trkpt lat="47.84336" lon="6.90767">
        <ele>1124.1</ele>
        <time>2026-08-27T05:40:49.076Z</time>
      </trkpt>
      <trkpt lat="47.84336" lon="6.90767">
        <ele>1123.9</ele>
        <time>2026-08-27T05:40:50.084Z</time>
      </trkpt>
      <trkpt lat="47.84337" lon="6.90768">
        <ele>1124.1</ele>
        <time>2026-08-27T05:40:51.093Z</time>
      </trkpt>
      <trkpt lat="47.84337" lon="6.90768">
        <ele>1124.4</ele>
        <time>2026-08-27T05:40:52.100Z</time>
      </trkpt>
      <trkpt lat="47.84337" lon="6.90768">
        <ele>1124.5</ele>
        <time>2026-08-27T05:40:53.108Z</time>
      </trkpt>
      <trkpt lat="47.84337" lon="6.90768">
        <ele>1124.1</ele>
        <time>2026-08-27T05:40:55.024Z</time>
      </trkpt>
      <trkpt lat="47.84337" lon="6.90768">
        <ele>1124.1</ele>
        <time>2026-08-27T05:40:56.031Z</time>
      </trkpt>
      <trkpt lat="47.84336" lon="6.90768">
        <ele>1124.4</ele>
        <time>2026-08-27T05:40:57.039Z</time>
      </trkpt>
      <trkpt lat="47.84337" lon="6.90768">
        <ele>1124.6</ele>
        <time>2026-08-27T05:40:58.048Z</time>
      </trkpt>
      <trkpt lat="47.84337" lon="6.90768">
        <ele>1124.5</ele>
        <time>2026-08-27T05:40:59.055Z</time>
      </trkpt>
      <trkpt lat="47.84336" lon="6.90768">
        <ele>1124.3</ele>
        <time>2026-08-27T05:41:00.064Z</time>
      </trkpt>
      <trkpt lat="47.84336" lon="6.90768">
        <ele>1124.2</ele>
        <time>2026-08-27T05:41:01.071Z</time>
      </trkpt>
      <trkpt lat="47.84336" lon="6.90768">
        <ele>1124.2</ele>
        <time>2026-08-27T05:41:02.079Z</time>
      </trkpt>
      <trkpt lat="47.84336" lon="6.90768">
        <ele>1124</ele>
        <time>2026-08-27T05:41:03.087Z</time>
      </trkpt>
      <trkpt lat="47.84336" lon="6.90768">
        <ele>1123.7</ele>
        <time>2026-08-27T05:41:04.095Z</time>
      </trkpt>
      <trkpt lat="47.84336" lon="6.90768">
        <ele>1123.7</ele>
        <time>2026-08-27T05:41:05.104Z</time>
      </trkpt>
      <trkpt lat="47.84336" lon="6.90768">
        <ele>1123.7</ele>
        <time>2026-08-27T05:41:06.111Z</time>
      </trkpt>
      <trkpt lat="47.84336" lon="6.90768">
        <ele>1123.4</ele>
        <time>2026-08-27T05:41:08.027Z</time>
      </trkpt>
      <trkpt lat="47.84336" lon="6.90768">
        <ele>1123.3</ele>
        <time>2026-08-27T05:41:09.034Z</time>
      </trkpt>
      <trkpt lat="47.84336" lon="6.90768">
        <ele>1123.3</ele>
        <time>2026-08-27T05:41:10.059Z</time>
      </trkpt>
      <trkpt lat="47.84336" lon="6.90767">
        <ele>1123.9</ele>
        <time>2026-08-27T05:41:12.058Z</time>
      </trkpt>
      <trkpt lat="47.84336" lon="6.90766">
        <ele>1124</ele>
        <time>2026-08-27T05:41:14.074Z</time>
      </trkpt>
      <trkpt lat="47.84336" lon="6.90765">
        <ele>1123.6</ele>
        <time>2026-08-27T05:41:15.082Z</time>
      </trkpt>
      <trkpt lat="47.84336" lon="6.90764">
        <ele>1123.7</ele>
        <time>2026-08-27T05:41:16.090Z</time>
      </trkpt>
      <trkpt lat="47.84335" lon="6.90763">
        <ele>1123.8</ele>
        <time>2026-08-27T05:41:17.098Z</time>
      </trkpt>
      <trkpt lat="47.84336" lon="6.90763">
        <ele>1123.9</ele>
        <time>2026-08-27T05:41:18.106Z</time>
      </trkpt>
      <trkpt lat="47.84336" lon="6.90761">
        <ele>1124.1</ele>
        <time>2026-08-27T05:41:20.021Z</time>
      </trkpt>
      <trkpt lat="47.84336" lon="6.9076">
        <ele>1124.1</ele>
        <time>2026-08-27T05:41:21.029Z</time>
      </trkpt>
      <trkpt lat="47.84337" lon="6.90759">
        <ele>1124.2</ele>
        <time>2026-08-27T05:41:22.038Z</time>
      </trkpt>
      <trkpt lat="47.84337" lon="6.90759">
        <ele>1124.4</ele>
        <time>2026-08-27T05:41:23.046Z</time>
      </trkpt>
      <trkpt lat="47.84337" lon="6.90759">
        <ele>1124.6</ele>
        <time>2026-08-27T05:41:24.053Z</time>
      </trkpt>
      <trkpt lat="47.84337" lon="6.90759">
        <ele>1124.8</ele>
        <time>2026-08-27T05:41:25.061Z</time>
      </trkpt>
      <trkpt lat="47.84337" lon="6.90759">
        <ele>1125</ele>
        <time>2026-08-27T05:41:26.070Z</time>
      </trkpt>
      <trkpt lat="47.84336" lon="6.90759">
        <ele>1125.2</ele>
        <time>2026-08-27T05:41:27.077Z</time>
      </trkpt>
      <trkpt lat="47.84336" lon="6.90758">
        <ele>1125.3</ele>
        <time>2026-08-27T05:41:28.086Z</time>
      </trkpt>
      <trkpt lat="47.84336" lon="6.90758">
        <ele>1124.9</ele>
        <time>2026-08-27T05:41:29.093Z</time>
      </trkpt>
      <trkpt lat="47.84336" lon="6.90758">
        <ele>1124.8</ele>
        <time>2026-08-27T05:41:30.102Z</time>
      </trkpt>
      <trkpt lat="47.84336" lon="6.90758">
        <ele>1124.9</ele>
        <time>2026-08-27T05:41:31.109Z</time>
      </trkpt>
      <trkpt lat="47.84336" lon="6.90758">
        <ele>1124.8</ele>
        <time>2026-08-27T05:41:32.117Z</time>
      </trkpt>
      <trkpt lat="47.84336" lon="6.90758">
        <ele>1124.7</ele>
        <time>2026-08-27T05:41:34.032Z</time>
      </trkpt>
      <trkpt lat="47.84336" lon="6.90758">
        <ele>1124.7</ele>
        <time>2026-08-27T05:41:35.041Z</time>
      </trkpt>
      <trkpt lat="47.84336" lon="6.90758">
        <ele>1124.5</ele>
        <time>2026-08-27T05:41:36.049Z</time>
      </trkpt>
      <trkpt lat="47.84336" lon="6.90758">
        <ele>1124.4</ele>
        <time>2026-08-27T05:41:37.057Z</time>
      </trkpt>
      <trkpt lat="47.84336" lon="6.90758">
        <ele>1124.3</ele>
        <time>2026-08-27T05:41:38.065Z</time>
      </trkpt>
      <trkpt lat="47.84336" lon="6.90758">
        <ele>1124.4</ele>
        <time>2026-08-27T05:41:39.073Z</time>
      </trkpt>
      <trkpt lat="47.84336" lon="6.90758">
        <ele>1124.8</ele>
        <time>2026-08-27T05:41:40.079Z</time>
      </trkpt>
      <trkpt lat="47.84336" lon="6.90758">
        <ele>1124.6</ele>
        <time>2026-08-27T05:41:41.087Z</time>
      </trkpt>
      <trkpt lat="47.84336" lon="6.90758">
        <ele>1124.6</ele>
        <time>2026-08-27T05:41:42.095Z</time>
      </trkpt>
      <trkpt lat="47.84336" lon="6.90758">
        <ele>1124.6</ele>
        <time>2026-08-27T05:41:43.103Z</time>
      </trkpt>
      <trkpt lat="47.84336" lon="6.90758">
        <ele>1124.7</ele>
        <time>2026-08-27T05:41:44.111Z</time>
      </trkpt>
      <trkpt lat="47.84336" lon="6.90758">
        <ele>1124.5</ele>
        <time>2026-08-27T05:41:45.120Z</time>
      </trkpt>
      <trkpt lat="47.84336" lon="6.90758">
        <ele>1124.4</ele>
        <time>2026-08-27T05:41:47.035Z</time>
      </trkpt>
      <trkpt lat="47.84336" lon="6.90758">
        <ele>1124.6</ele>
        <time>2026-08-27T05:41:48.042Z</time>
      </trkpt>
      <trkpt lat="47.84336" lon="6.90759">
        <ele>1124.5</ele>
        <time>2026-08-27T05:41:49.050Z</time>
      </trkpt>
      <trkpt lat="47.84336" lon="6.9076">
        <ele>1124.5</ele>
        <time>2026-08-27T05:41:51.066Z</time>
      </trkpt>
      <trkpt lat="47.84336" lon="6.90762">
        <ele>1124.4</ele>
        <time>2026-08-27T05:41:52.074Z</time>
      </trkpt>
      <trkpt lat="47.84337" lon="6.90765">
        <ele>1124.5</ele>
        <time>2026-08-27T05:41:54.090Z</time>
      </trkpt>
      <trkpt lat="47.84338" lon="6.90767">
        <ele>1124.8</ele>
        <time>2026-08-27T05:41:56.106Z</time>
      </trkpt>
      <trkpt lat="47.84338" lon="6.90768">
        <ele>1124.8</ele>
        <time>2026-08-27T05:41:57.115Z</time>
      </trkpt>
      <trkpt lat="47.84338" lon="6.90768">
        <ele>1124.8</ele>
        <time>2026-08-27T05:41:59.030Z</time>
      </trkpt>
      <trkpt lat="47.84338" lon="6.90767">
        <ele>1124.5</ele>
        <time>2026-08-27T05:42:00.037Z</time>
      </trkpt>
      <trkpt lat="47.84337" lon="6.90767">
        <ele>1124.4</ele>
        <time>2026-08-27T05:42:01.046Z</time>
      </trkpt>
      <trkpt lat="47.84337" lon="6.90767">
        <ele>1124.2</ele>
        <time>2026-08-27T05:42:02.054Z</time>
      </trkpt>
      <trkpt lat="47.84336" lon="6.90767">
        <ele>1124.3</ele>
        <time>2026-08-27T05:42:03.062Z</time>
      </trkpt>
      <trkpt lat="47.84335" lon="6.90767">
        <ele>1124.3</ele>
        <time>2026-08-27T05:42:04.069Z</time>
      </trkpt>
      <trkpt lat="47.84334" lon="6.90768">
        <ele>1124.2</ele>
        <time>2026-08-27T05:42:05.077Z</time>
      </trkpt>
      <trkpt lat="47.84333" lon="6.90768">
        <ele>1124.1</ele>
        <time>2026-08-27T05:42:06.086Z</time>
      </trkpt>
      <trkpt lat="47.84332" lon="6.90767">
        <ele>1123.9</ele>
        <time>2026-08-27T05:42:07.093Z</time>
      </trkpt>
      <trkpt lat="47.84331" lon="6.90767">
        <ele>1124</ele>
        <time>2026-08-27T05:42:08.102Z</time>
      </trkpt>
      <trkpt lat="47.8433" lon="6.90767">
        <ele>1124</ele>
        <time>2026-08-27T05:42:09.109Z</time>
      </trkpt>
      <trkpt lat="47.8433" lon="6.90767">
        <ele>1124</ele>
        <time>2026-08-27T05:42:10.117Z</time>
      </trkpt>
      <trkpt lat="47.84329" lon="6.90767">
        <ele>1123.9</ele>
        <time>2026-08-27T05:42:12.033Z</time>
      </trkpt>
      <trkpt lat="47.84329" lon="6.90767">
        <ele>1124</ele>
        <time>2026-08-27T05:42:13.040Z</time>
      </trkpt>
      <trkpt lat="47.84329" lon="6.90767">
        <ele>1124.1</ele>
        <time>2026-08-27T05:42:14.048Z</time>
      </trkpt>
      <trkpt lat="47.84329" lon="6.90767">
        <ele>1123.9</ele>
        <time>2026-08-27T05:42:15.057Z</time>
      </trkpt>
      <trkpt lat="47.84329" lon="6.90767">
        <ele>1123.9</ele>
        <time>2026-08-27T05:42:16.064Z</time>
      </trkpt>
      <trkpt lat="47.84329" lon="6.90767">
        <ele>1124</ele>
        <time>2026-08-27T05:42:17.072Z</time>
      </trkpt>
      <trkpt lat="47.84329" lon="6.90767">
        <ele>1124</ele>
        <time>2026-08-27T05:42:18.080Z</time>
      </trkpt>
      <trkpt lat="47.84329" lon="6.90767">
        <ele>1124.3</ele>
        <time>2026-08-27T05:42:19.088Z</time>
      </trkpt>
      <trkpt lat="47.84329" lon="6.90767">
        <ele>1124.2</ele>
        <time>2026-08-27T05:42:20.097Z</time>
      </trkpt>
      <trkpt lat="47.84329" lon="6.90767">
        <ele>1124.3</ele>
        <time>2026-08-27T05:42:21.105Z</time>
      </trkpt>
      <trkpt lat="47.84329" lon="6.90767">
        <ele>1124.3</ele>
        <time>2026-08-27T05:42:23.120Z</time>
      </trkpt>
      <trkpt lat="47.84328" lon="6.90767">
        <ele>1124.6</ele>
        <time>2026-08-27T05:42:25.035Z</time>
      </trkpt>
      <trkpt lat="47.84328" lon="6.90767">
        <ele>1124.5</ele>
        <time>2026-08-27T05:42:26.043Z</time>
      </trkpt>
      <trkpt lat="47.84328" lon="6.90767">
        <ele>1124.3</ele>
        <time>2026-08-27T05:42:27.051Z</time>
      </trkpt>
      <trkpt lat="47.84328" lon="6.90767">
        <ele>1124.3</ele>
        <time>2026-08-27T05:42:28.059Z</time>
      </trkpt>
      <trkpt lat="47.84328" lon="6.90767">
        <ele>1124.2</ele>
        <time>2026-08-27T05:42:29.067Z</time>
      </trkpt>
      <trkpt lat="47.84328" lon="6.90767">
        <ele>1124.1</ele>
        <time>2026-08-27T05:42:30.075Z</time>
      </trkpt>
      <trkpt lat="47.84328" lon="6.90767">
        <ele>1124.2</ele>
        <time>2026-08-27T05:42:31.083Z</time>
      </trkpt>
      <trkpt lat="47.84328" lon="6.90767">
        <ele>1124.1</ele>
        <time>2026-08-27T05:42:32.090Z</time>
      </trkpt>
      <trkpt lat="47.84328" lon="6.90766">
        <ele>1124.2</ele>
        <time>2026-08-27T05:42:33.099Z</time>
      </trkpt>
      <trkpt lat="47.84328" lon="6.90766">
        <ele>1124.1</ele>
        <time>2026-08-27T05:42:34.107Z</time>
      </trkpt>
      <trkpt lat="47.84328" lon="6.90766">
        <ele>1124.1</ele>
        <time>2026-08-27T05:42:36.123Z</time>
      </trkpt>
      <trkpt lat="47.84328" lon="6.90766">
        <ele>1124.3</ele>
        <time>2026-08-27T05:42:38.138Z</time>
      </trkpt>
      <trkpt lat="47.84328" lon="6.90766">
        <ele>1124.3</ele>
        <time>2026-08-27T05:42:40.054Z</time>
      </trkpt>
      <trkpt lat="47.84328" lon="6.90766">
        <ele>1124.3</ele>
        <time>2026-08-27T05:42:41.061Z</time>
      </trkpt>
      <trkpt lat="47.84328" lon="6.90766">
        <ele>1124.3</ele>
        <time>2026-08-27T05:42:42.069Z</time>
      </trkpt>
      <trkpt lat="47.84328" lon="6.90766">
        <ele>1124.3</ele>
        <time>2026-08-27T05:42:43.078Z</time>
      </trkpt>
      <trkpt lat="47.84328" lon="6.90766">
        <ele>1124.3</ele>
        <time>2026-08-27T05:42:44.085Z</time>
      </trkpt>
      <trkpt lat="47.84328" lon="6.90766">
        <ele>1124.2</ele>
        <time>2026-08-27T05:42:45.094Z</time>
      </trkpt>
      <trkpt lat="47.84328" lon="6.90766">
        <ele>1124.5</ele>
        <time>2026-08-27T05:42:46.101Z</time>
      </trkpt>
      <trkpt lat="47.84328" lon="6.90766">
        <ele>1124.5</ele>
        <time>2026-08-27T05:42:47.109Z</time>
      </trkpt>
      <trkpt lat="47.84328" lon="6.90766">
        <ele>1124.7</ele>
        <time>2026-08-27T05:42:49.024Z</time>
      </trkpt>
      <trkpt lat="47.84328" lon="6.90766">
        <ele>1124.6</ele>
        <time>2026-08-27T05:42:50.032Z</time>
      </trkpt>
      <trkpt lat="47.84328" lon="6.90766">
        <ele>1124.6</ele>
        <time>2026-08-27T05:42:51.041Z</time>
      </trkpt>
      <trkpt lat="47.84328" lon="6.90766">
        <ele>1124.8</ele>
        <time>2026-08-27T05:42:52.048Z</time>
      </trkpt>
      <trkpt lat="47.84328" lon="6.90766">
        <ele>1124.9</ele>
        <time>2026-08-27T05:42:53.056Z</time>
      </trkpt>
      <trkpt lat="47.84328" lon="6.90766">
        <ele>1125.1</ele>
        <time>2026-08-27T05:42:54.065Z</time>
      </trkpt>
      <trkpt lat="47.84328" lon="6.90766">
        <ele>1124.9</ele>
        <time>2026-08-27T05:42:55.072Z</time>
      </trkpt>
      <trkpt lat="47.84328" lon="6.90766">
        <ele>1124.6</ele>
        <time>2026-08-27T05:42:56.080Z</time>
      </trkpt>
      <trkpt lat="47.84328" lon="6.90766">
        <ele>1124.6</ele>
        <time>2026-08-27T05:42:57.088Z</time>
      </trkpt>
      <trkpt lat="47.84329" lon="6.90766">
        <ele>1124.6</ele>
        <time>2026-08-27T05:42:58.097Z</time>
      </trkpt>
      <trkpt lat="47.84329" lon="6.90766">
        <ele>1124.5</ele>
        <time>2026-08-27T05:42:59.104Z</time>
      </trkpt>
      <trkpt lat="47.84331" lon="6.90766">
        <ele>1124.5</ele>
        <time>2026-08-27T05:43:01.061Z</time>
      </trkpt>
      <trkpt lat="47.84333" lon="6.90765">
        <ele>1124</ele>
        <time>2026-08-27T05:43:03.036Z</time>
      </trkpt>
      <trkpt lat="47.84334" lon="6.90764">
        <ele>1124</ele>
        <time>2026-08-27T05:43:04.043Z</time>
      </trkpt>
      <trkpt lat="47.84334" lon="6.90764">
        <ele>1123.9</ele>
        <time>2026-08-27T05:43:05.052Z</time>
      </trkpt>
      <trkpt lat="47.84334" lon="6.90764">
        <ele>1123.9</ele>
        <time>2026-08-27T05:43:06.119Z</time>
      </trkpt>
      <trkpt lat="47.84334" lon="6.90764">
        <ele>1124.5</ele>
        <time>2026-08-27T05:43:08.075Z</time>
      </trkpt>
      <trkpt lat="47.84335" lon="6.90764">
        <ele>1124.2</ele>
        <time>2026-08-27T05:43:09.084Z</time>
      </trkpt>
      <trkpt lat="47.84335" lon="6.90764">
        <ele>1124.2</ele>
        <time>2026-08-27T05:43:10.091Z</time>
      </trkpt>
      <trkpt lat="47.84335" lon="6.90764">
        <ele>1124.3</ele>
        <time>2026-08-27T05:43:11.100Z</time>
      </trkpt>
      <trkpt lat="47.84335" lon="6.90764">
        <ele>1124</ele>
        <time>2026-08-27T05:43:12.106Z</time>
      </trkpt>
      <trkpt lat="47.84335" lon="6.90764">
        <ele>1124.2</ele>
        <time>2026-08-27T05:43:13.115Z</time>
      </trkpt>
      <trkpt lat="47.84335" lon="6.90764">
        <ele>1124.3</ele>
        <time>2026-08-27T05:43:14.122Z</time>
      </trkpt>
      <trkpt lat="47.84335" lon="6.90764">
        <ele>1124.5</ele>
        <time>2026-08-27T05:43:16.138Z</time>
      </trkpt>
      <trkpt lat="47.84335" lon="6.90764">
        <ele>1124.7</ele>
        <time>2026-08-27T05:43:18.053Z</time>
      </trkpt>
      <trkpt lat="47.84336" lon="6.90763">
        <ele>1124.6</ele>
        <time>2026-08-27T05:43:19.061Z</time>
      </trkpt>
      <trkpt lat="47.84336" lon="6.90764">
        <ele>1124.6</ele>
        <time>2026-08-27T05:43:20.069Z</time>
      </trkpt>
      <trkpt lat="47.84336" lon="6.90764">
        <ele>1124.8</ele>
        <time>2026-08-27T05:43:21.077Z</time>
      </trkpt>
      <trkpt lat="47.84336" lon="6.90764">
        <ele>1125</ele>
        <time>2026-08-27T05:43:22.085Z</time>
      </trkpt>
      <trkpt lat="47.84336" lon="6.90764">
        <ele>1125.2</ele>
        <time>2026-08-27T05:43:23.093Z</time>
      </trkpt>
      <trkpt lat="47.84336" lon="6.90764">
        <ele>1124.8</ele>
        <time>2026-08-27T05:43:24.102Z</time>
      </trkpt>
      <trkpt lat="47.84336" lon="6.90764">
        <ele>1124.8</ele>
        <time>2026-08-27T05:43:25.109Z</time>
      </trkpt>
      <trkpt lat="47.84336" lon="6.90764">
        <ele>1124.8</ele>
        <time>2026-08-27T05:43:27.126Z</time>
      </trkpt>
      <trkpt lat="47.84336" lon="6.90763">
        <ele>1124.5</ele>
        <time>2026-08-27T05:43:29.040Z</time>
      </trkpt>
      <trkpt lat="47.84336" lon="6.90763">
        <ele>1124.5</ele>
        <time>2026-08-27T05:43:30.082Z</time>
      </trkpt>
      <trkpt lat="47.84335" lon="6.90762">
        <ele>1124.2</ele>
        <time>2026-08-27T05:43:32.056Z</time>
      </trkpt>
      <trkpt lat="47.84335" lon="6.90761">
        <ele>1123.8</ele>
        <time>2026-08-27T05:43:33.072Z</time>
      </trkpt>
      <trkpt lat="47.84335" lon="6.9076">
        <ele>1123.7</ele>
        <time>2026-08-27T05:43:34.080Z</time>
      </trkpt>
      <trkpt lat="47.84335" lon="6.90759">
        <ele>1123.5</ele>
        <time>2026-08-27T05:43:35.088Z</time>
      </trkpt>
      <trkpt lat="47.84336" lon="6.90758">
        <ele>1124.1</ele>
        <time>2026-08-27T05:43:36.096Z</time>
      </trkpt>
      <trkpt lat="47.84337" lon="6.90758">
        <ele>1124.1</ele>
        <time>2026-08-27T05:43:37.139Z</time>
      </trkpt>
      <trkpt lat="47.84337" lon="6.90759">
        <ele>1123.6</ele>
        <time>2026-08-27T05:43:39.019Z</time>
      </trkpt>
      <trkpt lat="47.84337" lon="6.90759">
        <ele>1123.9</ele>
        <time>2026-08-27T05:43:40.027Z</time>
      </trkpt>
      <trkpt lat="47.84337" lon="6.90759">
        <ele>1123.6</ele>
        <time>2026-08-27T05:43:41.035Z</time>
      </trkpt>
      <trkpt lat="47.84337" lon="6.90759">
        <ele>1123.6</ele>
        <time>2026-08-27T05:43:42.044Z</time>
      </trkpt>
      <trkpt lat="47.84337" lon="6.90759">
        <ele>1123.5</ele>
        <time>2026-08-27T05:43:43.052Z</time>
      </trkpt>
      <trkpt lat="47.84337" lon="6.90759">
        <ele>1123.9</ele>
        <time>2026-08-27T05:43:44.059Z</time>
      </trkpt>
      <trkpt lat="47.84337" lon="6.90759">
        <ele>1123.9</ele>
        <time>2026-08-27T05:43:45.067Z</time>
      </trkpt>
      <trkpt lat="47.84337" lon="6.90759">
        <ele>1124.1</ele>
        <time>2026-08-27T05:43:46.075Z</time>
      </trkpt>
      <trkpt lat="47.84337" lon="6.90759">
        <ele>1124</ele>
        <time>2026-08-27T05:43:47.084Z</time>
      </trkpt>
      <trkpt lat="47.84337" lon="6.90759">
        <ele>1123.9</ele>
        <time>2026-08-27T05:43:48.091Z</time>
      </trkpt>
      <trkpt lat="47.84337" lon="6.90759">
        <ele>1123.9</ele>
        <time>2026-08-27T05:43:49.100Z</time>
      </trkpt>
      <trkpt lat="47.84336" lon="6.90759">
        <ele>1124</ele>
        <time>2026-08-27T05:43:51.116Z</time>
      </trkpt>
      <trkpt lat="47.84336" lon="6.90759">
        <ele>1123.8</ele>
        <time>2026-08-27T05:43:53.030Z</time>
      </trkpt>
      <trkpt lat="47.84335" lon="6.9076">
        <ele>1123.7</ele>
        <time>2026-08-27T05:43:54.039Z</time>
      </trkpt>
      <trkpt lat="47.84335" lon="6.9076">
        <ele>1123.7</ele>
        <time>2026-08-27T05:43:55.047Z</time>
      </trkpt>
      <trkpt lat="47.84334" lon="6.90761">
        <ele>1123.6</ele>
        <time>2026-08-27T05:43:56.054Z</time>
      </trkpt>
      <trkpt lat="47.84334" lon="6.90762">
        <ele>1123.6</ele>
        <time>2026-08-27T05:43:57.120Z</time>
      </trkpt>
      <trkpt lat="47.84335" lon="6.90765">
        <ele>1123.2</ele>
        <time>2026-08-27T05:43:59.136Z</time>
      </trkpt>
      <trkpt lat="47.84336" lon="6.90767">
        <ele>1123</ele>
        <time>2026-08-27T05:44:01.078Z</time>
      </trkpt>
      <trkpt lat="47.84337" lon="6.90768">
        <ele>1122.9</ele>
        <time>2026-08-27T05:44:02.102Z</time>
      </trkpt>
      <trkpt lat="47.84337" lon="6.90768">
        <ele>1123</ele>
        <time>2026-08-27T05:44:03.110Z</time>
      </trkpt>
      <trkpt lat="47.84338" lon="6.90768">
        <ele>1123.8</ele>
        <time>2026-08-27T05:44:05.024Z</time>
      </trkpt>
      <trkpt lat="47.84337" lon="6.90767">
        <ele>1124</ele>
        <time>2026-08-27T05:44:06.032Z</time>
      </trkpt>
      <trkpt lat="47.84337" lon="6.90767">
        <ele>1124</ele>
        <time>2026-08-27T05:44:07.041Z</time>
      </trkpt>
      <trkpt lat="47.84336" lon="6.90767">
        <ele>1123.7</ele>
        <time>2026-08-27T05:44:08.049Z</time>
      </trkpt>
      <trkpt lat="47.84336" lon="6.90767">
        <ele>1124.1</ele>
        <time>2026-08-27T05:44:09.057Z</time>
      </trkpt>
      <trkpt lat="47.84336" lon="6.90767">
        <ele>1123.9</ele>
        <time>2026-08-27T05:44:10.064Z</time>
      </trkpt>
      <trkpt lat="47.84336" lon="6.90767">
        <ele>1124</ele>
        <time>2026-08-27T05:44:11.072Z</time>
      </trkpt>
      <trkpt lat="47.84336" lon="6.90766">
        <ele>1124.2</ele>
        <time>2026-08-27T05:44:12.080Z</time>
      </trkpt>
      <trkpt lat="47.84336" lon="6.90766">
        <ele>1124.5</ele>
        <time>2026-08-27T05:44:13.088Z</time>
      </trkpt>
      <trkpt lat="47.84336" lon="6.90766">
        <ele>1124.4</ele>
        <time>2026-08-27T05:44:14.097Z</time>
      </trkpt>
      <trkpt lat="47.84336" lon="6.90766">
        <ele>1124.7</ele>
        <time>2026-08-27T05:44:15.104Z</time>
      </trkpt>
      <trkpt lat="47.84336" lon="6.90766">
        <ele>1124.7</ele>
        <time>2026-08-27T05:44:16.113Z</time>
      </trkpt>
      <trkpt lat="47.84336" lon="6.90766">
        <ele>1124.6</ele>
        <time>2026-08-27T05:44:18.027Z</time>
      </trkpt>
      <trkpt lat="47.84336" lon="6.90766">
        <ele>1124.8</ele>
        <time>2026-08-27T05:44:19.035Z</time>
      </trkpt>
      <trkpt lat="47.84336" lon="6.90766">
        <ele>1124.9</ele>
        <time>2026-08-27T05:44:20.043Z</time>
      </trkpt>
      <trkpt lat="47.84336" lon="6.90766">
        <ele>1124.8</ele>
        <time>2026-08-27T05:44:21.051Z</time>
      </trkpt>
      <trkpt lat="47.84336" lon="6.90766">
        <ele>1124.6</ele>
        <time>2026-08-27T05:44:22.059Z</time>
      </trkpt>
      <trkpt lat="47.84336" lon="6.90766">
        <ele>1124.5</ele>
        <time>2026-08-27T05:44:23.067Z</time>
      </trkpt>
      <trkpt lat="47.84336" lon="6.90766">
        <ele>1124.6</ele>
        <time>2026-08-27T05:44:24.075Z</time>
      </trkpt>
      <trkpt lat="47.84336" lon="6.90766">
        <ele>1124.5</ele>
        <time>2026-08-27T05:44:25.083Z</time>
      </trkpt>
      <trkpt lat="47.84336" lon="6.90766">
        <ele>1124.4</ele>
        <time>2026-08-27T05:44:26.091Z</time>
      </trkpt>
      <trkpt lat="47.84336" lon="6.90766">
        <ele>1124.2</ele>
        <time>2026-08-27T05:44:27.099Z</time>
      </trkpt>
      <trkpt lat="47.84336" lon="6.90766">
        <ele>1124</ele>
        <time>2026-08-27T05:44:29.116Z</time>
      </trkpt>
      <trkpt lat="47.84336" lon="6.90766">
        <ele>1123.8</ele>
        <time>2026-08-27T05:44:31.031Z</time>
      </trkpt>
      <trkpt lat="47.84336" lon="6.90766">
        <ele>1124</ele>
        <time>2026-08-27T05:44:32.038Z</time>
      </trkpt>
      <trkpt lat="47.84335" lon="6.90766">
        <ele>1123.8</ele>
        <time>2026-08-27T05:44:33.046Z</time>
      </trkpt>
      <trkpt lat="47.84335" lon="6.90766">
        <ele>1124.2</ele>
        <time>2026-08-27T05:44:34.121Z</time>
      </trkpt>
      <trkpt lat="47.84335" lon="6.90765">
        <ele>1124.3</ele>
        <time>2026-08-27T05:44:36.070Z</time>
      </trkpt>
      <trkpt lat="47.84334" lon="6.90764">
        <ele>1124</ele>
        <time>2026-08-27T05:44:37.077Z</time>
      </trkpt>
      <trkpt lat="47.84334" lon="6.90763">
        <ele>1124.3</ele>
        <time>2026-08-27T05:44:38.086Z</time>
      </trkpt>
      <trkpt lat="47.84334" lon="6.90762">
        <ele>1124</ele>
        <time>2026-08-27T05:44:39.093Z</time>
      </trkpt>
      <trkpt lat="47.84335" lon="6.90761">
        <ele>1124.2</ele>
        <time>2026-08-27T05:44:40.101Z</time>
      </trkpt>
      <trkpt lat="47.84336" lon="6.9076">
        <ele>1124.6</ele>
        <time>2026-08-27T05:44:42.118Z</time>
      </trkpt>
      <trkpt lat="47.84336" lon="6.9076">
        <ele>1124.7</ele>
        <time>2026-08-27T05:44:44.032Z</time>
      </trkpt>
      <trkpt lat="47.84335" lon="6.9076">
        <ele>1125.1</ele>
        <time>2026-08-27T05:44:45.041Z</time>
      </trkpt>
      <trkpt lat="47.84335" lon="6.9076">
        <ele>1125.3</ele>
        <time>2026-08-27T05:44:46.049Z</time>
      </trkpt>
      <trkpt lat="47.84335" lon="6.90759">
        <ele>1125.4</ele>
        <time>2026-08-27T05:44:47.056Z</time>
      </trkpt>
      <trkpt lat="47.84335" lon="6.90759">
        <ele>1125.8</ele>
        <time>2026-08-27T05:44:48.064Z</time>
      </trkpt>
      <trkpt lat="47.84335" lon="6.90759">
        <ele>1126</ele>
        <time>2026-08-27T05:44:49.073Z</time>
      </trkpt>
      <trkpt lat="47.84335" lon="6.90759">
        <ele>1125.9</ele>
        <time>2026-08-27T05:44:50.081Z</time>
      </trkpt>
      <trkpt lat="47.84335" lon="6.90759">
        <ele>1125.8</ele>
        <time>2026-08-27T05:44:51.088Z</time>
      </trkpt>
      <trkpt lat="47.84335" lon="6.90759">
        <ele>1125.8</ele>
        <time>2026-08-27T05:44:52.096Z</time>
      </trkpt>
      <trkpt lat="47.84335" lon="6.90759">
        <ele>1125.9</ele>
        <time>2026-08-27T05:44:53.105Z</time>
      </trkpt>
      <trkpt lat="47.84334" lon="6.90759">
        <ele>1125.7</ele>
        <time>2026-08-27T05:44:55.121Z</time>
      </trkpt>
      <trkpt lat="47.84333" lon="6.90762">
        <ele>1125.4</ele>
        <time>2026-08-27T05:44:57.035Z</time>
      </trkpt>
      <trkpt lat="47.84333" lon="6.90763">
        <ele>1125.2</ele>
        <time>2026-08-27T05:44:58.043Z</time>
      </trkpt>
      <trkpt lat="47.84334" lon="6.90766">
        <ele>1124.7</ele>
        <time>2026-08-27T05:45:00.060Z</time>
      </trkpt>
      <trkpt lat="47.84335" lon="6.90767">
        <ele>1124.6</ele>
        <time>2026-08-27T05:45:01.067Z</time>
      </trkpt>
      <trkpt lat="47.84335" lon="6.90768">
        <ele>1124.5</ele>
        <time>2026-08-27T05:45:02.076Z</time>
      </trkpt>
      <trkpt lat="47.84335" lon="6.90768">
        <ele>1125.1</ele>
        <time>2026-08-27T05:45:03.083Z</time>
      </trkpt>
      <trkpt lat="47.84335" lon="6.90768">
        <ele>1125.1</ele>
        <time>2026-08-27T05:45:04.091Z</time>
      </trkpt>
      <trkpt lat="47.84334" lon="6.90768">
        <ele>1124.5</ele>
        <time>2026-08-27T05:45:06.107Z</time>
      </trkpt>
      <trkpt lat="47.84334" lon="6.90768">
        <ele>1124.9</ele>
        <time>2026-08-27T05:45:07.116Z</time>
      </trkpt>
      <trkpt lat="47.84334" lon="6.90768">
        <ele>1124.8</ele>
        <time>2026-08-27T05:45:09.031Z</time>
      </trkpt>
      <trkpt lat="47.84334" lon="6.90768">
        <ele>1124.8</ele>
        <time>2026-08-27T05:45:10.038Z</time>
      </trkpt>
      <trkpt lat="47.84334" lon="6.90768">
        <ele>1125.1</ele>
        <time>2026-08-27T05:45:11.046Z</time>
      </trkpt>
      <trkpt lat="47.84334" lon="6.90768">
        <ele>1125</ele>
        <time>2026-08-27T05:45:12.054Z</time>
      </trkpt>
      <trkpt lat="47.84333" lon="6.90768">
        <ele>1125</ele>
        <time>2026-08-27T05:45:13.062Z</time>
      </trkpt>
      <trkpt lat="47.84333" lon="6.90768">
        <ele>1125.3</ele>
        <time>2026-08-27T05:45:14.070Z</time>
      </trkpt>
      <trkpt lat="47.84333" lon="6.90769">
        <ele>1125.2</ele>
        <time>2026-08-27T05:45:15.078Z</time>
      </trkpt>
      <trkpt lat="47.84333" lon="6.90769">
        <ele>1125.3</ele>
        <time>2026-08-27T05:45:16.085Z</time>
      </trkpt>
      <trkpt lat="47.84333" lon="6.90768">
        <ele>1125.5</ele>
        <time>2026-08-27T05:45:17.093Z</time>
      </trkpt>
      <trkpt lat="47.84333" lon="6.90768">
        <ele>1125.6</ele>
        <time>2026-08-27T05:45:18.101Z</time>
      </trkpt>
      <trkpt lat="47.84333" lon="6.90768">
        <ele>1125.4</ele>
        <time>2026-08-27T05:45:19.109Z</time>
      </trkpt>
      <trkpt lat="47.84333" lon="6.90768">
        <ele>1125.2</ele>
        <time>2026-08-27T05:45:20.117Z</time>
      </trkpt>
      <trkpt lat="47.84333" lon="6.90768">
        <ele>1125.2</ele>
        <time>2026-08-27T05:45:22.032Z</time>
      </trkpt>
      <trkpt lat="47.84333" lon="6.90768">
        <ele>1125.2</ele>
        <time>2026-08-27T05:45:23.040Z</time>
      </trkpt>
      <trkpt lat="47.84333" lon="6.90768">
        <ele>1125</ele>
        <time>2026-08-27T05:45:24.048Z</time>
      </trkpt>
      <trkpt lat="47.84333" lon="6.90768">
        <ele>1124.9</ele>
        <time>2026-08-27T05:45:25.056Z</time>
      </trkpt>
      <trkpt lat="47.84333" lon="6.90768">
        <ele>1124.7</ele>
        <time>2026-08-27T05:45:26.065Z</time>
      </trkpt>
      <trkpt lat="47.84333" lon="6.90768">
        <ele>1124.5</ele>
        <time>2026-08-27T05:45:27.072Z</time>
      </trkpt>
      <trkpt lat="47.84333" lon="6.90768">
        <ele>1124.3</ele>
        <time>2026-08-27T05:45:28.081Z</time>
      </trkpt>
      <trkpt lat="47.84333" lon="6.90768">
        <ele>1124.2</ele>
        <time>2026-08-27T05:45:29.088Z</time>
      </trkpt>
      <trkpt lat="47.84333" lon="6.90768">
        <ele>1124.2</ele>
        <time>2026-08-27T05:45:30.096Z</time>
      </trkpt>
      <trkpt lat="47.84333" lon="6.90768">
        <ele>1124.1</ele>
        <time>2026-08-27T05:45:31.105Z</time>
      </trkpt>
      <trkpt lat="47.84334" lon="6.90768">
        <ele>1124.7</ele>
        <time>2026-08-27T05:45:32.112Z</time>
      </trkpt>
      <trkpt lat="47.84334" lon="6.90768">
        <ele>1124.7</ele>
        <time>2026-08-27T05:45:33.120Z</time>
      </trkpt>
      <trkpt lat="47.84334" lon="6.90768">
        <ele>1124.3</ele>
        <time>2026-08-27T05:45:35.036Z</time>
      </trkpt>
      <trkpt lat="47.84334" lon="6.90768">
        <ele>1124.6</ele>
        <time>2026-08-27T05:45:36.043Z</time>
      </trkpt>
      <trkpt lat="47.84334" lon="6.90768">
        <ele>1124.4</ele>
        <time>2026-08-27T05:45:37.052Z</time>
      </trkpt>
      <trkpt lat="47.84334" lon="6.90768">
        <ele>1124.6</ele>
        <time>2026-08-27T05:45:38.060Z</time>
      </trkpt>
      <trkpt lat="47.84334" lon="6.90768">
        <ele>1124.5</ele>
        <time>2026-08-27T05:45:39.067Z</time>
      </trkpt>
      <trkpt lat="47.84334" lon="6.90768">
        <ele>1124.9</ele>
        <time>2026-08-27T05:45:40.075Z</time>
      </trkpt>
      <trkpt lat="47.84334" lon="6.90768">
        <ele>1124.8</ele>
        <time>2026-08-27T05:45:41.083Z</time>
      </trkpt>
      <trkpt lat="47.84334" lon="6.90768">
        <ele>1124.8</ele>
        <time>2026-08-27T05:45:42.092Z</time>
      </trkpt>
      <trkpt lat="47.84334" lon="6.90768">
        <ele>1125</ele>
        <time>2026-08-27T05:45:43.099Z</time>
      </trkpt>
      <trkpt lat="47.84334" lon="6.90768">
        <ele>1124.9</ele>
        <time>2026-08-27T05:45:44.108Z</time>
      </trkpt>
      <trkpt lat="47.84334" lon="6.90768">
        <ele>1125</ele>
        <time>2026-08-27T05:45:45.115Z</time>
      </trkpt>
      <trkpt lat="47.84334" lon="6.90768">
        <ele>1125.2</ele>
        <time>2026-08-27T05:45:47.030Z</time>
      </trkpt>
      <trkpt lat="47.84334" lon="6.90768">
        <ele>1125.2</ele>
        <time>2026-08-27T05:45:48.039Z</time>
      </trkpt>
      <trkpt lat="47.84334" lon="6.90768">
        <ele>1125</ele>
        <time>2026-08-27T05:45:49.046Z</time>
      </trkpt>
      <trkpt lat="47.84333" lon="6.90768">
        <ele>1125</ele>
        <time>2026-08-27T05:45:50.053Z</time>
      </trkpt>
      <trkpt lat="47.84333" lon="6.90768">
        <ele>1125</ele>
        <time>2026-08-27T05:45:51.061Z</time>
      </trkpt>
      <trkpt lat="47.84333" lon="6.90768">
        <ele>1124.9</ele>
        <time>2026-08-27T05:45:52.069Z</time>
      </trkpt>
      <trkpt lat="47.84333" lon="6.90768">
        <ele>1124.8</ele>
        <time>2026-08-27T05:45:53.077Z</time>
      </trkpt>
      <trkpt lat="47.84333" lon="6.90768">
        <ele>1124.7</ele>
        <time>2026-08-27T05:45:54.086Z</time>
      </trkpt>
      <trkpt lat="47.84333" lon="6.90768">
        <ele>1124.4</ele>
        <time>2026-08-27T05:45:56.102Z</time>
      </trkpt>
      <trkpt lat="47.84333" lon="6.90769">
        <ele>1124.3</ele>
        <time>2026-08-27T05:45:57.109Z</time>
      </trkpt>
      <trkpt lat="47.84333" lon="6.90769">
        <ele>1124.1</ele>
        <time>2026-08-27T05:45:58.118Z</time>
      </trkpt>
      <trkpt lat="47.84333" lon="6.90769">
        <ele>1124.2</ele>
        <time>2026-08-27T05:45:59.125Z</time>
      </trkpt>
      <trkpt lat="47.84333" lon="6.90769">
        <ele>1124.7</ele>
        <time>2026-08-27T05:46:01.040Z</time>
      </trkpt>
      <trkpt lat="47.84333" lon="6.90769">
        <ele>1124.7</ele>
        <time>2026-08-27T05:46:02.049Z</time>
      </trkpt>
      <trkpt lat="47.84333" lon="6.90769">
        <ele>1124.7</ele>
        <time>2026-08-27T05:46:03.056Z</time>
      </trkpt>
      <trkpt lat="47.84334" lon="6.90769">
        <ele>1124.2</ele>
        <time>2026-08-27T05:46:04.064Z</time>
      </trkpt>
      <trkpt lat="47.84334" lon="6.90769">
        <ele>1124.8</ele>
        <time>2026-08-27T05:46:05.073Z</time>
      </trkpt>
      <trkpt lat="47.84334" lon="6.90769">
        <ele>1124.5</ele>
        <time>2026-08-27T05:46:07.093Z</time>
      </trkpt>
      <trkpt lat="47.84334" lon="6.90769">
        <ele>1125</ele>
        <time>2026-08-27T05:46:09.007Z</time>
      </trkpt>
      <trkpt lat="47.84334" lon="6.90769">
        <ele>1124.9</ele>
        <time>2026-08-27T05:46:10.015Z</time>
      </trkpt>
      <trkpt lat="47.84334" lon="6.90769">
        <ele>1125.5</ele>
        <time>2026-08-27T05:46:11.024Z</time>
      </trkpt>
      <trkpt lat="47.84333" lon="6.90769">
        <ele>1125.4</ele>
        <time>2026-08-27T05:46:12.032Z</time>
      </trkpt>
      <trkpt lat="47.84333" lon="6.90769">
        <ele>1125.3</ele>
        <time>2026-08-27T05:46:13.039Z</time>
      </trkpt>
      <trkpt lat="47.84333" lon="6.90769">
        <ele>1125.4</ele>
        <time>2026-08-27T05:46:14.048Z</time>
      </trkpt>
      <trkpt lat="47.84333" lon="6.9077">
        <ele>1125.7</ele>
        <time>2026-08-27T05:46:15.055Z</time>
      </trkpt>
      <trkpt lat="47.84333" lon="6.9077">
        <ele>1125.7</ele>
        <time>2026-08-27T05:46:16.063Z</time>
      </trkpt>
      <trkpt lat="47.84333" lon="6.9077">
        <ele>1125.8</ele>
        <time>2026-08-27T05:46:17.071Z</time>
      </trkpt>
      <trkpt lat="47.84333" lon="6.9077">
        <ele>1125.8</ele>
        <time>2026-08-27T05:46:18.079Z</time>
      </trkpt>
      <trkpt lat="47.84333" lon="6.9077">
        <ele>1125.9</ele>
        <time>2026-08-27T05:46:19.994Z</time>
      </trkpt>
      <trkpt lat="47.84333" lon="6.9077">
        <ele>1125.9</ele>
        <time>2026-08-27T05:46:21.002Z</time>
      </trkpt>
      <trkpt lat="47.84334" lon="6.9077">
        <ele>1125.6</ele>
        <time>2026-08-27T05:46:22.011Z</time>
      </trkpt>
      <trkpt lat="47.84334" lon="6.9077">
        <ele>1125.6</ele>
        <time>2026-08-27T05:46:23.018Z</time>
      </trkpt>
      <trkpt lat="47.84334" lon="6.9077">
        <ele>1125.5</ele>
        <time>2026-08-27T05:46:24.026Z</time>
      </trkpt>
      <trkpt lat="47.84334" lon="6.9077">
        <ele>1125.5</ele>
        <time>2026-08-27T05:46:25.034Z</time>
      </trkpt>
      <trkpt lat="47.84334" lon="6.9077">
        <ele>1125.4</ele>
        <time>2026-08-27T05:46:26.042Z</time>
      </trkpt>
      <trkpt lat="47.84334" lon="6.9077">
        <ele>1125.3</ele>
        <time>2026-08-27T05:46:27.050Z</time>
      </trkpt>
      <trkpt lat="47.84334" lon="6.9077">
        <ele>1125.4</ele>
        <time>2026-08-27T05:46:28.058Z</time>
      </trkpt>
      <trkpt lat="47.84334" lon="6.9077">
        <ele>1125.7</ele>
        <time>2026-08-27T05:46:29.066Z</time>
      </trkpt>
      <trkpt lat="47.84334" lon="6.9077">
        <ele>1125.9</ele>
        <time>2026-08-27T05:46:30.074Z</time>
      </trkpt>
      <trkpt lat="47.84334" lon="6.9077">
        <ele>1126</ele>
        <time>2026-08-27T05:46:31.082Z</time>
      </trkpt>
      <trkpt lat="47.84333" lon="6.9077">
        <ele>1126</ele>
        <time>2026-08-27T05:46:32.090Z</time>
      </trkpt>
      <trkpt lat="47.84333" lon="6.9077">
        <ele>1126</ele>
        <time>2026-08-27T05:46:34.007Z</time>
      </trkpt>
      <trkpt lat="47.84333" lon="6.9077">
        <ele>1126.1</ele>
        <time>2026-08-27T05:46:35.014Z</time>
      </trkpt>
      <trkpt lat="47.84333" lon="6.9077">
        <ele>1126.1</ele>
        <time>2026-08-27T05:46:36.022Z</time>
      </trkpt>
      <trkpt lat="47.84333" lon="6.9077">
        <ele>1126.1</ele>
        <time>2026-08-27T05:46:37.030Z</time>
      </trkpt>
      <trkpt lat="47.84333" lon="6.9077">
        <ele>1126.4</ele>
        <time>2026-08-27T05:46:38.039Z</time>
      </trkpt>
      <trkpt lat="47.84334" lon="6.9077">
        <ele>1126.4</ele>
        <time>2026-08-27T05:46:39.047Z</time>
      </trkpt>
      <trkpt lat="47.84334" lon="6.9077">
        <ele>1126.5</ele>
        <time>2026-08-27T05:46:40.054Z</time>
      </trkpt>
      <trkpt lat="47.84334" lon="6.9077">
        <ele>1126.8</ele>
        <time>2026-08-27T05:46:41.063Z</time>
      </trkpt>
      <trkpt lat="47.84334" lon="6.9077">
        <ele>1126.7</ele>
        <time>2026-08-27T05:46:42.070Z</time>
      </trkpt>
      <trkpt lat="47.84334" lon="6.9077">
        <ele>1126.8</ele>
        <time>2026-08-27T05:46:43.078Z</time>
      </trkpt>
      <trkpt lat="47.84334" lon="6.9077">
        <ele>1127</ele>
        <time>2026-08-27T05:46:44.087Z</time>
      </trkpt>
      <trkpt lat="47.84334" lon="6.9077">
        <ele>1126.7</ele>
        <time>2026-08-27T05:46:46.002Z</time>
      </trkpt>
      <trkpt lat="47.84334" lon="6.9077">
        <ele>1126.8</ele>
        <time>2026-08-27T05:46:47.010Z</time>
      </trkpt>
      <trkpt lat="47.84334" lon="6.9077">
        <ele>1126.8</ele>
        <time>2026-08-27T05:46:48.018Z</time>
      </trkpt>
      <trkpt lat="47.84334" lon="6.9077">
        <ele>1126.9</ele>
        <time>2026-08-27T05:46:49.027Z</time>
      </trkpt>
      <trkpt lat="47.84334" lon="6.9077">
        <ele>1126.8</ele>
        <time>2026-08-27T05:46:50.035Z</time>
      </trkpt>
      <trkpt lat="47.84334" lon="6.9077">
        <ele>1126.8</ele>
        <time>2026-08-27T05:46:51.042Z</time>
      </trkpt>
      <trkpt lat="47.84334" lon="6.9077">
        <ele>1126.7</ele>
        <time>2026-08-27T05:46:52.051Z</time>
      </trkpt>
      <trkpt lat="47.84334" lon="6.9077">
        <ele>1126.4</ele>
        <time>2026-08-27T05:46:53.059Z</time>
      </trkpt>
      <trkpt lat="47.84334" lon="6.9077">
        <ele>1126.3</ele>
        <time>2026-08-27T05:46:54.067Z</time>
      </trkpt>
      <trkpt lat="47.84334" lon="6.9077">
        <ele>1126.2</ele>
        <time>2026-08-27T05:46:55.074Z</time>
      </trkpt>
      <trkpt lat="47.84334" lon="6.9077">
        <ele>1126.2</ele>
        <time>2026-08-27T05:46:56.989Z</time>
      </trkpt>
      <trkpt lat="47.84334" lon="6.9077">
        <ele>1126.3</ele>
        <time>2026-08-27T05:46:57.997Z</time>
      </trkpt>
      <trkpt lat="47.84334" lon="6.9077">
        <ele>1126.4</ele>
        <time>2026-08-27T05:46:59.106Z</time>
      </trkpt>
      <trkpt lat="47.84334" lon="6.9077">
        <ele>1126.3</ele>
        <time>2026-08-27T05:47:00.114Z</time>
      </trkpt>
      <trkpt lat="47.84334" lon="6.9077">
        <ele>1126.2</ele>
        <time>2026-08-27T05:47:02.030Z</time>
      </trkpt>
      <trkpt lat="47.84334" lon="6.9077">
        <ele>1125.9</ele>
        <time>2026-08-27T05:47:03.038Z</time>
      </trkpt>
      <trkpt lat="47.84334" lon="6.9077">
        <ele>1125.7</ele>
        <time>2026-08-27T05:47:04.047Z</time>
      </trkpt>
      <trkpt lat="47.84334" lon="6.9077">
        <ele>1125.6</ele>
        <time>2026-08-27T05:47:05.055Z</time>
      </trkpt>
      <trkpt lat="47.84334" lon="6.9077">
        <ele>1125.5</ele>
        <time>2026-08-27T05:47:06.062Z</time>
      </trkpt>
      <trkpt lat="47.84334" lon="6.9077">
        <ele>1125.7</ele>
        <time>2026-08-27T05:47:07.070Z</time>
      </trkpt>
      <trkpt lat="47.84334" lon="6.9077">
        <ele>1125.7</ele>
        <time>2026-08-27T05:47:08.078Z</time>
      </trkpt>
      <trkpt lat="47.84334" lon="6.9077">
        <ele>1125.8</ele>
        <time>2026-08-27T05:47:09.086Z</time>
      </trkpt>
      <trkpt lat="47.84334" lon="6.9077">
        <ele>1125.8</ele>
        <time>2026-08-27T05:47:10.124Z</time>
      </trkpt>
      <trkpt lat="47.84335" lon="6.90769">
        <ele>1125.6</ele>
        <time>2026-08-27T05:47:12.110Z</time>
      </trkpt>
      <trkpt lat="47.84335" lon="6.90769">
        <ele>1125.8</ele>
        <time>2026-08-27T05:47:14.026Z</time>
      </trkpt>
      <trkpt lat="47.84335" lon="6.9077">
        <ele>1125.6</ele>
        <time>2026-08-27T05:47:15.034Z</time>
      </trkpt>
      <trkpt lat="47.84335" lon="6.9077">
        <ele>1125.4</ele>
        <time>2026-08-27T05:47:16.043Z</time>
      </trkpt>
      <trkpt lat="47.84335" lon="6.9077">
        <ele>1125.3</ele>
        <time>2026-08-27T05:47:17.050Z</time>
      </trkpt>
      <trkpt lat="47.84335" lon="6.90769">
        <ele>1125.3</ele>
        <time>2026-08-27T05:47:18.058Z</time>
      </trkpt>
      <trkpt lat="47.84335" lon="6.90769">
        <ele>1125.3</ele>
        <time>2026-08-27T05:47:19.066Z</time>
      </trkpt>
      <trkpt lat="47.84335" lon="6.90769">
        <ele>1125.1</ele>
        <time>2026-08-27T05:47:20.075Z</time>
      </trkpt>
      <trkpt lat="47.84335" lon="6.90769">
        <ele>1125.1</ele>
        <time>2026-08-27T05:47:21.082Z</time>
      </trkpt>
      <trkpt lat="47.84335" lon="6.90769">
        <ele>1125</ele>
        <time>2026-08-27T05:47:22.090Z</time>
      </trkpt>
      <trkpt lat="47.84335" lon="6.90769">
        <ele>1124.9</ele>
        <time>2026-08-27T05:47:23.099Z</time>
      </trkpt>
      <trkpt lat="47.84335" lon="6.90769">
        <ele>1124.7</ele>
        <time>2026-08-27T05:47:24.107Z</time>
      </trkpt>
      <trkpt lat="47.84335" lon="6.90769">
        <ele>1124.8</ele>
        <time>2026-08-27T05:47:25.115Z</time>
      </trkpt>
      <trkpt lat="47.84335" lon="6.90768">
        <ele>1125.3</ele>
        <time>2026-08-27T05:47:27.029Z</time>
      </trkpt>
      <trkpt lat="47.84336" lon="6.90769">
        <ele>1125.2</ele>
        <time>2026-08-27T05:47:28.037Z</time>
      </trkpt>
      <trkpt lat="47.84336" lon="6.90769">
        <ele>1125.2</ele>
        <time>2026-08-27T05:47:29.045Z</time>
      </trkpt>
      <trkpt lat="47.84335" lon="6.90769">
        <ele>1125.4</ele>
        <time>2026-08-27T05:47:30.054Z</time>
      </trkpt>
      <trkpt lat="47.84335" lon="6.90769">
        <ele>1125.4</ele>
        <time>2026-08-27T05:47:31.061Z</time>
      </trkpt>
      <trkpt lat="47.84335" lon="6.90769">
        <ele>1125.1</ele>
        <time>2026-08-27T05:47:32.069Z</time>
      </trkpt>
      <trkpt lat="47.84335" lon="6.90769">
        <ele>1125.2</ele>
        <time>2026-08-27T05:47:33.077Z</time>
      </trkpt>
      <trkpt lat="47.84335" lon="6.90769">
        <ele>1125.1</ele>
        <time>2026-08-27T05:47:34.085Z</time>
      </trkpt>
      <trkpt lat="47.84336" lon="6.90769">
        <ele>1125</ele>
        <time>2026-08-27T05:47:35.093Z</time>
      </trkpt>
      <trkpt lat="47.84336" lon="6.90769">
        <ele>1125.2</ele>
        <time>2026-08-27T05:47:36.102Z</time>
      </trkpt>
      <trkpt lat="47.84336" lon="6.90769">
        <ele>1125.4</ele>
        <time>2026-08-27T05:47:37.109Z</time>
      </trkpt>
      <trkpt lat="47.84336" lon="6.90769">
        <ele>1125.4</ele>
        <time>2026-08-27T05:47:38.118Z</time>
      </trkpt>
      <trkpt lat="47.84336" lon="6.90769">
        <ele>1125.5</ele>
        <time>2026-08-27T05:47:40.033Z</time>
      </trkpt>
      <trkpt lat="47.84336" lon="6.90769">
        <ele>1125.5</ele>
        <time>2026-08-27T05:47:41.041Z</time>
      </trkpt>
      <trkpt lat="47.84336" lon="6.90769">
        <ele>1125.6</ele>
        <time>2026-08-27T05:47:42.049Z</time>
      </trkpt>
      <trkpt lat="47.84336" lon="6.90769">
        <ele>1125.6</ele>
        <time>2026-08-27T05:47:43.058Z</time>
      </trkpt>
      <trkpt lat="47.84336" lon="6.90769">
        <ele>1125.6</ele>
        <time>2026-08-27T05:47:44.065Z</time>
      </trkpt>
      <trkpt lat="47.84336" lon="6.90769">
        <ele>1125.4</ele>
        <time>2026-08-27T05:47:45.073Z</time>
      </trkpt>
      <trkpt lat="47.84336" lon="6.9077">
        <ele>1125.4</ele>
        <time>2026-08-27T05:47:46.081Z</time>
      </trkpt>
      <trkpt lat="47.84336" lon="6.9077">
        <ele>1125.4</ele>
        <time>2026-08-27T05:47:47.089Z</time>
      </trkpt>
      <trkpt lat="47.84336" lon="6.9077">
        <ele>1125.3</ele>
        <time>2026-08-27T05:47:48.098Z</time>
      </trkpt>
      <trkpt lat="47.84336" lon="6.9077">
        <ele>1125.2</ele>
        <time>2026-08-27T05:47:49.106Z</time>
      </trkpt>
      <trkpt lat="47.84336" lon="6.90771">
        <ele>1125.3</ele>
        <time>2026-08-27T05:47:50.114Z</time>
      </trkpt>
      <trkpt lat="47.84336" lon="6.90771">
        <ele>1125.3</ele>
        <time>2026-08-27T05:47:51.121Z</time>
      </trkpt>
      <trkpt lat="47.84336" lon="6.90771">
        <ele>1124.8</ele>
        <time>2026-08-27T05:47:53.036Z</time>
      </trkpt>
      <trkpt lat="47.84336" lon="6.90771">
        <ele>1125.2</ele>
        <time>2026-08-27T05:47:54.045Z</time>
      </trkpt>
      <trkpt lat="47.84336" lon="6.90772">
        <ele>1125.3</ele>
        <time>2026-08-27T05:47:55.052Z</time>
      </trkpt>
      <trkpt lat="47.84336" lon="6.90772">
        <ele>1125.4</ele>
        <time>2026-08-27T05:47:56.060Z</time>
      </trkpt>
      <trkpt lat="47.84337" lon="6.90772">
        <ele>1125.4</ele>
        <time>2026-08-27T05:47:57.068Z</time>
      </trkpt>
      <trkpt lat="47.84337" lon="6.90772">
        <ele>1125.4</ele>
        <time>2026-08-27T05:47:58.076Z</time>
      </trkpt>
      <trkpt lat="47.84338" lon="6.90772">
        <ele>1125.6</ele>
        <time>2026-08-27T05:47:59.084Z</time>
      </trkpt>
      <trkpt lat="47.84338" lon="6.90772">
        <ele>1125.7</ele>
        <time>2026-08-27T05:48:00.092Z</time>
      </trkpt>
      <trkpt lat="47.84338" lon="6.90772">
        <ele>1125.6</ele>
        <time>2026-08-27T05:48:01.101Z</time>
      </trkpt>
      <trkpt lat="47.84339" lon="6.90772">
        <ele>1125.5</ele>
        <time>2026-08-27T05:48:02.108Z</time>
      </trkpt>
      <trkpt lat="47.8434" lon="6.90771">
        <ele>1125.5</ele>
        <time>2026-08-27T05:48:04.023Z</time>
      </trkpt>
      <trkpt lat="47.8434" lon="6.90771">
        <ele>1125.5</ele>
        <time>2026-08-27T05:48:05.031Z</time>
      </trkpt>
      <trkpt lat="47.84339" lon="6.90772">
        <ele>1125.7</ele>
        <time>2026-08-27T05:48:07.047Z</time>
      </trkpt>
      <trkpt lat="47.84339" lon="6.90772">
        <ele>1125.8</ele>
        <time>2026-08-27T05:48:08.055Z</time>
      </trkpt>
      <trkpt lat="47.84339" lon="6.90772">
        <ele>1125.7</ele>
        <time>2026-08-27T05:48:09.063Z</time>
      </trkpt>
      <trkpt lat="47.84339" lon="6.90772">
        <ele>1125.8</ele>
        <time>2026-08-27T05:48:10.072Z</time>
      </trkpt>
      <trkpt lat="47.84339" lon="6.90772">
        <ele>1125.8</ele>
        <time>2026-08-27T05:48:11.079Z</time>
      </trkpt>
      <trkpt lat="47.84339" lon="6.90772">
        <ele>1125.9</ele>
        <time>2026-08-27T05:48:12.088Z</time>
      </trkpt>
      <trkpt lat="47.8434" lon="6.90772">
        <ele>1125.8</ele>
        <time>2026-08-27T05:48:13.096Z</time>
      </trkpt>
      <trkpt lat="47.8434" lon="6.90772">
        <ele>1125.6</ele>
        <time>2026-08-27T05:48:14.103Z</time>
      </trkpt>
      <trkpt lat="47.8434" lon="6.90772">
        <ele>1125.5</ele>
        <time>2026-08-27T05:48:15.111Z</time>
      </trkpt>
      <trkpt lat="47.84341" lon="6.90772">
        <ele>1125.3</ele>
        <time>2026-08-27T05:48:17.027Z</time>
      </trkpt>
      <trkpt lat="47.84341" lon="6.90772">
        <ele>1125.4</ele>
        <time>2026-08-27T05:48:18.034Z</time>
      </trkpt>
      <trkpt lat="47.84342" lon="6.90771">
        <ele>1125.1</ele>
        <time>2026-08-27T05:48:28.115Z</time>
      </trkpt>
      <trkpt lat="47.84341" lon="6.9077">
        <ele>1125.1</ele>
        <time>2026-08-27T05:48:29.123Z</time>
      </trkpt>
      <trkpt lat="47.8434" lon="6.90769">
        <ele>1125.3</ele>
        <time>2026-08-27T05:48:31.038Z</time>
      </trkpt>
      <trkpt lat="47.8434" lon="6.90769">
        <ele>1125.1</ele>
        <time>2026-08-27T05:48:32.045Z</time>
      </trkpt>
      <trkpt lat="47.8434" lon="6.90768">
        <ele>1125</ele>
        <time>2026-08-27T05:48:33.053Z</time>
      </trkpt>
      <trkpt lat="47.8434" lon="6.90768">
        <ele>1125.1</ele>
        <time>2026-08-27T05:48:34.061Z</time>
      </trkpt>
      <trkpt lat="47.8434" lon="6.90768">
        <ele>1125.1</ele>
        <time>2026-08-27T05:48:35.070Z</time>
      </trkpt>
      <trkpt lat="47.8434" lon="6.90768">
        <ele>1125.1</ele>
        <time>2026-08-27T05:48:36.078Z</time>
      </trkpt>
      <trkpt lat="47.84339" lon="6.90768">
        <ele>1125.2</ele>
        <time>2026-08-27T05:48:37.085Z</time>
      </trkpt>
      <trkpt lat="47.84339" lon="6.90768">
        <ele>1125.3</ele>
        <time>2026-08-27T05:48:38.093Z</time>
      </trkpt>
      <trkpt lat="47.84339" lon="6.90768">
        <ele>1125.2</ele>
        <time>2026-08-27T05:48:39.101Z</time>
      </trkpt>
      <trkpt lat="47.84339" lon="6.90768">
        <ele>1125.1</ele>
        <time>2026-08-27T05:48:40.110Z</time>
      </trkpt>
      <trkpt lat="47.84339" lon="6.90768">
        <ele>1125</ele>
        <time>2026-08-27T05:48:41.117Z</time>
      </trkpt>
      <trkpt lat="47.84338" lon="6.90769">
        <ele>1125.2</ele>
        <time>2026-08-27T05:48:43.033Z</time>
      </trkpt>
      <trkpt lat="47.84338" lon="6.90769">
        <ele>1125.4</ele>
        <time>2026-08-27T05:48:44.040Z</time>
      </trkpt>
      <trkpt lat="47.84338" lon="6.9077">
        <ele>1125.2</ele>
        <time>2026-08-27T05:48:45.049Z</time>
      </trkpt>
      <trkpt lat="47.84338" lon="6.9077">
        <ele>1125.2</ele>
        <time>2026-08-27T05:48:46.056Z</time>
      </trkpt>
      <trkpt lat="47.84338" lon="6.90771">
        <ele>1125.1</ele>
        <time>2026-08-27T05:48:47.064Z</time>
      </trkpt>
      <trkpt lat="47.84338" lon="6.90771">
        <ele>1125.2</ele>
        <time>2026-08-27T05:48:48.072Z</time>
      </trkpt>
      <trkpt lat="47.84337" lon="6.90772">
        <ele>1125.1</ele>
        <time>2026-08-27T05:48:49.080Z</time>
      </trkpt>
      <trkpt lat="47.84337" lon="6.90772">
        <ele>1125</ele>
        <time>2026-08-27T05:48:50.088Z</time>
      </trkpt>
      <trkpt lat="47.84337" lon="6.90773">
        <ele>1125</ele>
        <time>2026-08-27T05:48:51.096Z</time>
      </trkpt>
      <trkpt lat="47.84337" lon="6.90773">
        <ele>1125.1</ele>
        <time>2026-08-27T05:48:52.105Z</time>
      </trkpt>
      <trkpt lat="47.84337" lon="6.90774">
        <ele>1125.1</ele>
        <time>2026-08-27T05:48:53.113Z</time>
      </trkpt>
      <trkpt lat="47.84336" lon="6.90774">
        <ele>1125.2</ele>
        <time>2026-08-27T05:48:54.121Z</time>
      </trkpt>
      <trkpt lat="47.84336" lon="6.90774">
        <ele>1125.1</ele>
        <time>2026-08-27T05:48:55.128Z</time>
      </trkpt>
      <trkpt lat="47.84336" lon="6.90775">
        <ele>1125.1</ele>
        <time>2026-08-27T05:48:57.043Z</time>
      </trkpt>
      <trkpt lat="47.84336" lon="6.90775">
        <ele>1125.1</ele>
        <time>2026-08-27T05:48:58.051Z</time>
      </trkpt>
      <trkpt lat="47.84336" lon="6.90775">
        <ele>1125.2</ele>
        <time>2026-08-27T05:48:59.059Z</time>
      </trkpt>
      <trkpt lat="47.84336" lon="6.90775">
        <ele>1125.2</ele>
        <time>2026-08-27T05:49:00.067Z</time>
      </trkpt>
      <trkpt lat="47.84335" lon="6.90775">
        <ele>1125.2</ele>
        <time>2026-08-27T05:49:01.076Z</time>
      </trkpt>
      <trkpt lat="47.84335" lon="6.90775">
        <ele>1124.9</ele>
        <time>2026-08-27T05:49:02.084Z</time>
      </trkpt>
      <trkpt lat="47.84335" lon="6.90775">
        <ele>1125</ele>
        <time>2026-08-27T05:49:03.091Z</time>
      </trkpt>
      <trkpt lat="47.84335" lon="6.90776">
        <ele>1125.2</ele>
        <time>2026-08-27T05:49:04.099Z</time>
      </trkpt>
      <trkpt lat="47.84335" lon="6.90776">
        <ele>1125.2</ele>
        <time>2026-08-27T05:49:05.106Z</time>
      </trkpt>
      <trkpt lat="47.84335" lon="6.90776">
        <ele>1125.3</ele>
        <time>2026-08-27T05:49:06.114Z</time>
      </trkpt>
      <trkpt lat="47.84334" lon="6.90777">
        <ele>1125.1</ele>
        <time>2026-08-27T05:49:08.030Z</time>
      </trkpt>
      <trkpt lat="47.84334" lon="6.90778">
        <ele>1125.1</ele>
        <time>2026-08-27T05:49:09.039Z</time>
      </trkpt>
      <trkpt lat="47.84334" lon="6.90779">
        <ele>1125.3</ele>
        <time>2026-08-27T05:49:10.046Z</time>
      </trkpt>
      <trkpt lat="47.84334" lon="6.9078">
        <ele>1125.3</ele>
        <time>2026-08-27T05:49:11.053Z</time>
      </trkpt>
      <trkpt lat="47.84335" lon="6.9078">
        <ele>1125.4</ele>
        <time>2026-08-27T05:49:12.061Z</time>
      </trkpt>
      <trkpt lat="47.84335" lon="6.90781">
        <ele>1125.6</ele>
        <time>2026-08-27T05:49:13.070Z</time>
      </trkpt>
      <trkpt lat="47.84336" lon="6.90781">
        <ele>1125.5</ele>
        <time>2026-08-27T05:49:14.077Z</time>
      </trkpt>
      <trkpt lat="47.84336" lon="6.90781">
        <ele>1125.6</ele>
        <time>2026-08-27T05:49:15.086Z</time>
      </trkpt>
      <trkpt lat="47.84336" lon="6.90782">
        <ele>1125.4</ele>
        <time>2026-08-27T05:49:16.094Z</time>
      </trkpt>
      <trkpt lat="47.84337" lon="6.90783">
        <ele>1125.6</ele>
        <time>2026-08-27T05:49:17.101Z</time>
      </trkpt>
      <trkpt lat="47.84337" lon="6.90783">
        <ele>1125.4</ele>
        <time>2026-08-27T05:49:18.110Z</time>
      </trkpt>
      <trkpt lat="47.84338" lon="6.90785">
        <ele>1125.5</ele>
        <time>2026-08-27T05:49:20.024Z</time>
      </trkpt>
      <trkpt lat="47.84338" lon="6.90785">
        <ele>1125.5</ele>
        <time>2026-08-27T05:49:21.032Z</time>
      </trkpt>
      <trkpt lat="47.84338" lon="6.90784">
        <ele>1125.9</ele>
        <time>2026-08-27T05:49:23.049Z</time>
      </trkpt>
      <trkpt lat="47.84338" lon="6.90784">
        <ele>1125.5</ele>
        <time>2026-08-27T05:49:24.056Z</time>
      </trkpt>
      <trkpt lat="47.84338" lon="6.90783">
        <ele>1125.5</ele>
        <time>2026-08-27T05:49:25.064Z</time>
      </trkpt>
      <trkpt lat="47.84338" lon="6.90782">
        <ele>1125.3</ele>
        <time>2026-08-27T05:49:26.073Z</time>
      </trkpt>
      <trkpt lat="47.84338" lon="6.90781">
        <ele>1125.4</ele>
        <time>2026-08-27T05:49:27.080Z</time>
      </trkpt>
      <trkpt lat="47.84337" lon="6.9078">
        <ele>1125.5</ele>
        <time>2026-08-27T05:49:28.088Z</time>
      </trkpt>
      <trkpt lat="47.84337" lon="6.90779">
        <ele>1125.4</ele>
        <time>2026-08-27T05:49:29.096Z</time>
      </trkpt>
      <trkpt lat="47.84337" lon="6.90778">
        <ele>1125.5</ele>
        <time>2026-08-27T05:49:30.104Z</time>
      </trkpt>
      <trkpt lat="47.84336" lon="6.90778">
        <ele>1125.4</ele>
        <time>2026-08-27T05:49:31.112Z</time>
      </trkpt>
      <trkpt lat="47.84336" lon="6.90777">
        <ele>1125.4</ele>
        <time>2026-08-27T05:49:32.120Z</time>
      </trkpt>
      <trkpt lat="47.84336" lon="6.90776">
        <ele>1125.7</ele>
        <time>2026-08-27T05:49:34.035Z</time>
      </trkpt>
      <trkpt lat="47.84336" lon="6.90775">
        <ele>1125.7</ele>
        <time>2026-08-27T05:49:35.043Z</time>
      </trkpt>
      <trkpt lat="47.84336" lon="6.90775">
        <ele>1125.8</ele>
        <time>2026-08-27T05:49:36.051Z</time>
      </trkpt>
      <trkpt lat="47.84335" lon="6.90774">
        <ele>1125.5</ele>
        <time>2026-08-27T05:49:37.060Z</time>
      </trkpt>
      <trkpt lat="47.84335" lon="6.90774">
        <ele>1125.6</ele>
        <time>2026-08-27T05:49:38.067Z</time>
      </trkpt>
      <trkpt lat="47.84335" lon="6.90773">
        <ele>1125.8</ele>
        <time>2026-08-27T05:49:39.075Z</time>
      </trkpt>
      <trkpt lat="47.84335" lon="6.90773">
        <ele>1125.9</ele>
        <time>2026-08-27T05:49:40.083Z</time>
      </trkpt>
      <trkpt lat="47.84336" lon="6.90773">
        <ele>1126.1</ele>
        <time>2026-08-27T05:49:41.091Z</time>
      </trkpt>
      <trkpt lat="47.84336" lon="6.90773">
        <ele>1125.8</ele>
        <time>2026-08-27T05:49:42.099Z</time>
      </trkpt>
      <trkpt lat="47.84336" lon="6.90773">
        <ele>1125.8</ele>
        <time>2026-08-27T05:49:43.107Z</time>
      </trkpt>
      <trkpt lat="47.84336" lon="6.90772">
        <ele>1125.7</ele>
        <time>2026-08-27T05:49:44.115Z</time>
      </trkpt>
      <trkpt lat="47.84336" lon="6.90772">
        <ele>1125.7</ele>
        <time>2026-08-27T05:49:46.030Z</time>
      </trkpt>
      <trkpt lat="47.84336" lon="6.90772">
        <ele>1125.8</ele>
        <time>2026-08-27T05:49:47.039Z</time>
      </trkpt>
      <trkpt lat="47.84336" lon="6.90772">
        <ele>1125.7</ele>
        <time>2026-08-27T05:49:48.047Z</time>
      </trkpt>
      <trkpt lat="47.84336" lon="6.90772">
        <ele>1125.6</ele>
        <time>2026-08-27T05:49:49.054Z</time>
      </trkpt>
      <trkpt lat="47.84336" lon="6.90772">
        <ele>1125.5</ele>
        <time>2026-08-27T05:49:50.062Z</time>
      </trkpt>
      <trkpt lat="47.84336" lon="6.90772">
        <ele>1125.6</ele>
        <time>2026-08-27T05:49:51.070Z</time>
      </trkpt>
      <trkpt lat="47.84336" lon="6.90772">
        <ele>1125.8</ele>
        <time>2026-08-27T05:49:52.079Z</time>
      </trkpt>
      <trkpt lat="47.84336" lon="6.90772">
        <ele>1125.9</ele>
        <time>2026-08-27T05:49:53.086Z</time>
      </trkpt>
      <trkpt lat="47.84336" lon="6.90772">
        <ele>1125.9</ele>
        <time>2026-08-27T05:49:54.094Z</time>
      </trkpt>
      <trkpt lat="47.84336" lon="6.90772">
        <ele>1125.9</ele>
        <time>2026-08-27T05:49:55.102Z</time>
      </trkpt>
      <trkpt lat="47.84336" lon="6.90771">
        <ele>1125.7</ele>
        <time>2026-08-27T05:49:57.017Z</time>
      </trkpt>
      <trkpt lat="47.84336" lon="6.90771">
        <ele>1125.9</ele>
        <time>2026-08-27T05:49:58.026Z</time>
      </trkpt>
      <trkpt lat="47.84336" lon="6.90771">
        <ele>1125.8</ele>
        <time>2026-08-27T05:49:59.034Z</time>
      </trkpt>
      <trkpt lat="47.84336" lon="6.90771">
        <ele>1125.5</ele>
        <time>2026-08-27T05:50:00.041Z</time>
      </trkpt>
      <trkpt lat="47.84336" lon="6.90771">
        <ele>1125.5</ele>
        <time>2026-08-27T05:50:01.129Z</time>
      </trkpt>
      <trkpt lat="47.84336" lon="6.9077">
        <ele>1125.6</ele>
        <time>2026-08-27T05:50:03.065Z</time>
      </trkpt>
      <trkpt lat="47.84336" lon="6.9077">
        <ele>1125.7</ele>
        <time>2026-08-27T05:50:04.073Z</time>
      </trkpt>
      <trkpt lat="47.84336" lon="6.9077">
        <ele>1125.9</ele>
        <time>2026-08-27T05:50:05.081Z</time>
      </trkpt>
      <trkpt lat="47.84336" lon="6.9077">
        <ele>1125.8</ele>
        <time>2026-08-27T05:50:06.089Z</time>
      </trkpt>
      <trkpt lat="47.84336" lon="6.9077">
        <ele>1125.8</ele>
        <time>2026-08-27T05:50:07.097Z</time>
      </trkpt>
      <trkpt lat="47.84336" lon="6.9077">
        <ele>1126</ele>
        <time>2026-08-27T05:50:08.105Z</time>
      </trkpt>
      <trkpt lat="47.84335" lon="6.9077">
        <ele>1126.1</ele>
        <time>2026-08-27T05:50:09.113Z</time>
      </trkpt>
      <trkpt lat="47.84335" lon="6.9077">
        <ele>1126.3</ele>
        <time>2026-08-27T05:50:10.122Z</time>
      </trkpt>
      <trkpt lat="47.84335" lon="6.9077">
        <ele>1126</ele>
        <time>2026-08-27T05:50:12.037Z</time>
      </trkpt>
      <trkpt lat="47.84335" lon="6.9077">
        <ele>1125.9</ele>
        <time>2026-08-27T05:50:13.044Z</time>
      </trkpt>
      <trkpt lat="47.84335" lon="6.90769">
        <ele>1125.9</ele>
        <time>2026-08-27T05:50:14.052Z</time>
      </trkpt>
      <trkpt lat="47.84335" lon="6.90769">
        <ele>1126</ele>
        <time>2026-08-27T05:50:15.061Z</time>
      </trkpt>
      <trkpt lat="47.84335" lon="6.90769">
        <ele>1126.1</ele>
        <time>2026-08-27T05:50:16.069Z</time>
      </trkpt>
      <trkpt lat="47.84335" lon="6.90769">
        <ele>1126.1</ele>
        <time>2026-08-27T05:50:17.076Z</time>
      </trkpt>
      <trkpt lat="47.84335" lon="6.90769">
        <ele>1125.9</ele>
        <time>2026-08-27T05:50:18.083Z</time>
      </trkpt>
      <trkpt lat="47.84335" lon="6.90769">
        <ele>1125.8</ele>
        <time>2026-08-27T05:50:19.091Z</time>
      </trkpt>
      <trkpt lat="47.84335" lon="6.90768">
        <ele>1126.2</ele>
        <time>2026-08-27T05:50:21.007Z</time>
      </trkpt>
      <trkpt lat="47.84335" lon="6.90767">
        <ele>1126.2</ele>
        <time>2026-08-27T05:50:22.116Z</time>
      </trkpt>
      <trkpt lat="47.84335" lon="6.90766">
        <ele>1126.1</ele>
        <time>2026-08-27T05:50:24.132Z</time>
      </trkpt>
      <trkpt lat="47.84335" lon="6.90766">
        <ele>1126.1</ele>
        <time>2026-08-27T05:50:26.046Z</time>
      </trkpt>
      <trkpt lat="47.84336" lon="6.90766">
        <ele>1126</ele>
        <time>2026-08-27T05:50:27.054Z</time>
      </trkpt>
      <trkpt lat="47.84336" lon="6.90765">
        <ele>1125.9</ele>
        <time>2026-08-27T05:50:28.062Z</time>
      </trkpt>
      <trkpt lat="47.84336" lon="6.90765">
        <ele>1125.8</ele>
        <time>2026-08-27T05:50:29.070Z</time>
      </trkpt>
      <trkpt lat="47.84336" lon="6.90765">
        <ele>1125.6</ele>
        <time>2026-08-27T05:50:30.079Z</time>
      </trkpt>
      <trkpt lat="47.84336" lon="6.90765">
        <ele>1125.7</ele>
        <time>2026-08-27T05:50:31.086Z</time>
      </trkpt>
      <trkpt lat="47.84336" lon="6.90765">
        <ele>1125.8</ele>
        <time>2026-08-27T05:50:32.094Z</time>
      </trkpt>
      <trkpt lat="47.84336" lon="6.90765">
        <ele>1125.8</ele>
        <time>2026-08-27T05:50:33.102Z</time>
      </trkpt>
      <trkpt lat="47.84336" lon="6.90765">
        <ele>1125.9</ele>
        <time>2026-08-27T05:50:34.111Z</time>
      </trkpt>
      <trkpt lat="47.84336" lon="6.90764">
        <ele>1126.3</ele>
        <time>2026-08-27T05:50:36.026Z</time>
      </trkpt>
      <trkpt lat="47.84335" lon="6.90763">
        <ele>1126.3</ele>
        <time>2026-08-27T05:50:37.033Z</time>
      </trkpt>
      <trkpt lat="47.84335" lon="6.90763">
        <ele>1126.2</ele>
        <time>2026-08-27T05:50:38.041Z</time>
      </trkpt>
      <trkpt lat="47.84335" lon="6.90762">
        <ele>1126.1</ele>
        <time>2026-08-27T05:50:39.050Z</time>
      </trkpt>
      <trkpt lat="47.84335" lon="6.90764">
        <ele>1126</ele>
        <time>2026-08-27T05:50:40.058Z</time>
      </trkpt>
      <trkpt lat="47.84335" lon="6.90765">
        <ele>1125.6</ele>
        <time>2026-08-27T05:50:41.065Z</time>
      </trkpt>
      <trkpt lat="47.84335" lon="6.90768">
        <ele>1125.6</ele>
        <time>2026-08-27T05:50:42.985Z</time>
      </trkpt>
      <trkpt lat="47.84335" lon="6.90769">
        <ele>1125.5</ele>
        <time>2026-08-27T05:50:44.128Z</time>
      </trkpt>
      <trkpt lat="47.84335" lon="6.9077">
        <ele>1125.6</ele>
        <time>2026-08-27T05:50:46.105Z</time>
      </trkpt>
      <trkpt lat="47.84335" lon="6.9077">
        <ele>1125.5</ele>
        <time>2026-08-27T05:50:47.113Z</time>
      </trkpt>
      <trkpt lat="47.84335" lon="6.9077">
        <ele>1125.7</ele>
        <time>2026-08-27T05:50:49.028Z</time>
      </trkpt>
      <trkpt lat="47.84335" lon="6.9077">
        <ele>1125.9</ele>
        <time>2026-08-27T05:50:50.036Z</time>
      </trkpt>
      <trkpt lat="47.84335" lon="6.9077">
        <ele>1125.9</ele>
        <time>2026-08-27T05:50:51.044Z</time>
      </trkpt>
      <trkpt lat="47.84335" lon="6.9077">
        <ele>1125.8</ele>
        <time>2026-08-27T05:50:52.052Z</time>
      </trkpt>
      <trkpt lat="47.84335" lon="6.9077">
        <ele>1125.8</ele>
        <time>2026-08-27T05:50:53.060Z</time>
      </trkpt>
      <trkpt lat="47.84335" lon="6.9077">
        <ele>1125.8</ele>
        <time>2026-08-27T05:50:54.068Z</time>
      </trkpt>
      <trkpt lat="47.84335" lon="6.9077">
        <ele>1125.7</ele>
        <time>2026-08-27T05:50:55.076Z</time>
      </trkpt>
      <trkpt lat="47.84335" lon="6.9077">
        <ele>1125.6</ele>
        <time>2026-08-27T05:50:56.085Z</time>
      </trkpt>
      <trkpt lat="47.84336" lon="6.90769">
        <ele>1125.7</ele>
        <time>2026-08-27T05:50:57.092Z</time>
      </trkpt>
      <trkpt lat="47.84336" lon="6.90769">
        <ele>1125.4</ele>
        <time>2026-08-27T05:50:58.100Z</time>
      </trkpt>
      <trkpt lat="47.84336" lon="6.90769">
        <ele>1125.6</ele>
        <time>2026-08-27T05:50:59.108Z</time>
      </trkpt>
      <trkpt lat="47.84336" lon="6.90769">
        <ele>1125.7</ele>
        <time>2026-08-27T05:51:00.117Z</time>
      </trkpt>
      <trkpt lat="47.84336" lon="6.90769">
        <ele>1125.6</ele>
        <time>2026-08-27T05:51:01.124Z</time>
      </trkpt>
      <trkpt lat="47.84336" lon="6.90769">
        <ele>1125.6</ele>
        <time>2026-08-27T05:51:03.040Z</time>
      </trkpt>
      <trkpt lat="47.84336" lon="6.90769">
        <ele>1126.1</ele>
        <time>2026-08-27T05:51:04.047Z</time>
      </trkpt>
      <trkpt lat="47.84336" lon="6.90769">
        <ele>1126.2</ele>
        <time>2026-08-27T05:51:05.055Z</time>
      </trkpt>
      <trkpt lat="47.84336" lon="6.90769">
        <ele>1126.2</ele>
        <time>2026-08-27T05:51:06.063Z</time>
      </trkpt>
      <trkpt lat="47.84336" lon="6.90769">
        <ele>1126.4</ele>
        <time>2026-08-27T05:51:07.072Z</time>
      </trkpt>
      <trkpt lat="47.84336" lon="6.9077">
        <ele>1125.6</ele>
        <time>2026-08-27T05:51:08.079Z</time>
      </trkpt>
      <trkpt lat="47.84336" lon="6.9077">
        <ele>1125.5</ele>
        <time>2026-08-27T05:51:09.088Z</time>
      </trkpt>
      <trkpt lat="47.84336" lon="6.9077">
        <ele>1125.6</ele>
        <time>2026-08-27T05:51:10.095Z</time>
      </trkpt>
      <trkpt lat="47.84336" lon="6.9077">
        <ele>1125.6</ele>
        <time>2026-08-27T05:51:11.102Z</time>
      </trkpt>
      <trkpt lat="47.84336" lon="6.9077">
        <ele>1125.6</ele>
        <time>2026-08-27T05:51:12.110Z</time>
      </trkpt>
      <trkpt lat="47.84336" lon="6.9077">
        <ele>1125.6</ele>
        <time>2026-08-27T05:51:13.119Z</time>
      </trkpt>
      <trkpt lat="47.84336" lon="6.9077">
        <ele>1125.7</ele>
        <time>2026-08-27T05:51:15.034Z</time>
      </trkpt>
      <trkpt lat="47.84336" lon="6.90769">
        <ele>1125.8</ele>
        <time>2026-08-27T05:51:16.042Z</time>
      </trkpt>
      <trkpt lat="47.84336" lon="6.90769">
        <ele>1125.8</ele>
        <time>2026-08-27T05:51:17.050Z</time>
      </trkpt>
      <trkpt lat="47.84336" lon="6.90769">
        <ele>1125.9</ele>
        <time>2026-08-27T05:51:18.057Z</time>
      </trkpt>
      <trkpt lat="47.84336" lon="6.90768">
        <ele>1126.3</ele>
        <time>2026-08-27T05:51:19.065Z</time>
      </trkpt>
      <trkpt lat="47.84336" lon="6.90768">
        <ele>1126.1</ele>
        <time>2026-08-27T05:51:20.073Z</time>
      </trkpt>
      <trkpt lat="47.84336" lon="6.90768">
        <ele>1126.3</ele>
        <time>2026-08-27T05:51:21.081Z</time>
      </trkpt>
      <trkpt lat="47.84336" lon="6.90768">
        <ele>1126.3</ele>
        <time>2026-08-27T05:51:22.111Z</time>
      </trkpt>
      <trkpt lat="47.84336" lon="6.90767">
        <ele>1126.5</ele>
        <time>2026-08-27T05:51:24.004Z</time>
      </trkpt>
      <trkpt lat="47.84336" lon="6.90767">
        <ele>1126.4</ele>
        <time>2026-08-27T05:51:25.012Z</time>
      </trkpt>
      <trkpt lat="47.84336" lon="6.90767">
        <ele>1126.1</ele>
        <time>2026-08-27T05:51:26.020Z</time>
      </trkpt>
      <trkpt lat="47.84336" lon="6.90767">
        <ele>1125.9</ele>
        <time>2026-08-27T05:51:27.032Z</time>
      </trkpt>
      <trkpt lat="47.84335" lon="6.90766">
        <ele>1126.3</ele>
        <time>2026-08-27T05:51:28.040Z</time>
      </trkpt>
      <trkpt lat="47.84335" lon="6.90766">
        <ele>1126.4</ele>
        <time>2026-08-27T05:51:29.049Z</time>
      </trkpt>
      <trkpt lat="47.84335" lon="6.90766">
        <ele>1126.3</ele>
        <time>2026-08-27T05:51:30.056Z</time>
      </trkpt>
      <trkpt lat="47.84335" lon="6.90766">
        <ele>1126.2</ele>
        <time>2026-08-27T05:51:31.064Z</time>
      </trkpt>
      <trkpt lat="47.84335" lon="6.90766">
        <ele>1126.4</ele>
        <time>2026-08-27T05:51:32.072Z</time>
      </trkpt>
      <trkpt lat="47.84335" lon="6.90766">
        <ele>1127</ele>
        <time>2026-08-27T05:51:33.081Z</time>
      </trkpt>
      <trkpt lat="47.84335" lon="6.90766">
        <ele>1126.9</ele>
        <time>2026-08-27T05:51:34.089Z</time>
      </trkpt>
      <trkpt lat="47.84335" lon="6.90766">
        <ele>1126.7</ele>
        <time>2026-08-27T05:51:35.096Z</time>
      </trkpt>
      <trkpt lat="47.84335" lon="6.90766">
        <ele>1126.6</ele>
        <time>2026-08-27T05:51:37.012Z</time>
      </trkpt>
      <trkpt lat="47.84335" lon="6.90766">
        <ele>1126.3</ele>
        <time>2026-08-27T05:51:38.021Z</time>
      </trkpt>
      <trkpt lat="47.84335" lon="6.90766">
        <ele>1126.3</ele>
        <time>2026-08-27T05:51:39.028Z</time>
      </trkpt>
      <trkpt lat="47.84335" lon="6.90766">
        <ele>1126</ele>
        <time>2026-08-27T05:51:40.037Z</time>
      </trkpt>
      <trkpt lat="47.84335" lon="6.90766">
        <ele>1126.3</ele>
        <time>2026-08-27T05:51:41.045Z</time>
      </trkpt>
      <trkpt lat="47.84335" lon="6.90766">
        <ele>1126.5</ele>
        <time>2026-08-27T05:51:42.052Z</time>
      </trkpt>
      <trkpt lat="47.84335" lon="6.90766">
        <ele>1126.5</ele>
        <time>2026-08-27T05:51:43.061Z</time>
      </trkpt>
      <trkpt lat="47.84335" lon="6.90766">
        <ele>1126.5</ele>
        <time>2026-08-27T05:51:44.069Z</time>
      </trkpt>
      <trkpt lat="47.84335" lon="6.90766">
        <ele>1126.5</ele>
        <time>2026-08-27T05:51:45.076Z</time>
      </trkpt>
      <trkpt lat="47.84335" lon="6.90766">
        <ele>1126.5</ele>
        <time>2026-08-27T05:51:46.084Z</time>
      </trkpt>
      <trkpt lat="47.84335" lon="6.90766">
        <ele>1126.8</ele>
        <time>2026-08-27T05:51:47.092Z</time>
      </trkpt>
      <trkpt lat="47.84335" lon="6.90766">
        <ele>1126.8</ele>
        <time>2026-08-27T05:51:49.007Z</time>
      </trkpt>
      <trkpt lat="47.84335" lon="6.90766">
        <ele>1126.9</ele>
        <time>2026-08-27T05:51:50.015Z</time>
      </trkpt>
      <trkpt lat="47.84335" lon="6.90766">
        <ele>1127</ele>
        <time>2026-08-27T05:51:51.024Z</time>
      </trkpt>
      <trkpt lat="47.84335" lon="6.90766">
        <ele>1127</ele>
        <time>2026-08-27T05:51:52.031Z</time>
      </trkpt>
      <trkpt lat="47.84335" lon="6.90766">
        <ele>1127</ele>
        <time>2026-08-27T05:51:53.039Z</time>
      </trkpt>
      <trkpt lat="47.84335" lon="6.90766">
        <ele>1126.9</ele>
        <time>2026-08-27T05:51:54.047Z</time>
      </trkpt>
      <trkpt lat="47.84335" lon="6.90766">
        <ele>1127.1</ele>
        <time>2026-08-27T05:51:55.055Z</time>
      </trkpt>
      <trkpt lat="47.84335" lon="6.90766">
        <ele>1127</ele>
        <time>2026-08-27T05:51:56.064Z</time>
      </trkpt>
      <trkpt lat="47.84335" lon="6.90766">
        <ele>1127</ele>
        <time>2026-08-27T05:51:57.071Z</time>
      </trkpt>
      <trkpt lat="47.84335" lon="6.90766">
        <ele>1127</ele>
        <time>2026-08-27T05:51:58.079Z</time>
      </trkpt>
      <trkpt lat="47.84335" lon="6.90766">
        <ele>1126.9</ele>
        <time>2026-08-27T05:51:59.088Z</time>
      </trkpt>
      <trkpt lat="47.84335" lon="6.90766">
        <ele>1126.9</ele>
        <time>2026-08-27T05:52:01.003Z</time>
      </trkpt>
      <trkpt lat="47.84335" lon="6.90766">
        <ele>1127</ele>
        <time>2026-08-27T05:52:02.011Z</time>
      </trkpt>
      <trkpt lat="47.84335" lon="6.90766">
        <ele>1127.2</ele>
        <time>2026-08-27T05:52:03.020Z</time>
      </trkpt>
      <trkpt lat="47.84335" lon="6.90766">
        <ele>1126.7</ele>
        <time>2026-08-27T05:52:04.028Z</time>
      </trkpt>
      <trkpt lat="47.84335" lon="6.90766">
        <ele>1126.8</ele>
        <time>2026-08-27T05:52:05.035Z</time>
      </trkpt>
      <trkpt lat="47.84335" lon="6.90766">
        <ele>1126.5</ele>
        <time>2026-08-27T05:52:06.044Z</time>
      </trkpt>
      <trkpt lat="47.84335" lon="6.90766">
        <ele>1126.5</ele>
        <time>2026-08-27T05:52:07.052Z</time>
      </trkpt>
      <trkpt lat="47.84335" lon="6.90766">
        <ele>1126</ele>
        <time>2026-08-27T05:52:08.059Z</time>
      </trkpt>
      <trkpt lat="47.84335" lon="6.90766">
        <ele>1125.7</ele>
        <time>2026-08-27T05:52:09.067Z</time>
      </trkpt>
      <trkpt lat="47.84335" lon="6.90766">
        <ele>1126.2</ele>
        <time>2026-08-27T05:52:10.075Z</time>
      </trkpt>
      <trkpt lat="47.84335" lon="6.90766">
        <ele>1126.2</ele>
        <time>2026-08-27T05:52:11.084Z</time>
      </trkpt>
      <trkpt lat="47.84335" lon="6.90766">
        <ele>1126</ele>
        <time>2026-08-27T05:52:12.093Z</time>
      </trkpt>
      <trkpt lat="47.84335" lon="6.90766">
        <ele>1126.2</ele>
        <time>2026-08-27T05:52:13.100Z</time>
      </trkpt>
      <trkpt lat="47.84335" lon="6.90766">
        <ele>1126.3</ele>
        <time>2026-08-27T05:52:15.015Z</time>
      </trkpt>
      <trkpt lat="47.84335" lon="6.90766">
        <ele>1126.5</ele>
        <time>2026-08-27T05:52:16.023Z</time>
      </trkpt>
      <trkpt lat="47.84335" lon="6.90766">
        <ele>1126.6</ele>
        <time>2026-08-27T05:52:17.032Z</time>
      </trkpt>
      <trkpt lat="47.84335" lon="6.90766">
        <ele>1126.6</ele>
        <time>2026-08-27T05:52:18.039Z</time>
      </trkpt>
      <trkpt lat="47.84335" lon="6.90766">
        <ele>1126.8</ele>
        <time>2026-08-27T05:52:19.047Z</time>
      </trkpt>
      <trkpt lat="47.84335" lon="6.90766">
        <ele>1126.5</ele>
        <time>2026-08-27T05:52:20.055Z</time>
      </trkpt>
      <trkpt lat="47.84335" lon="6.90766">
        <ele>1126.4</ele>
        <time>2026-08-27T05:52:21.064Z</time>
      </trkpt>
      <trkpt lat="47.84335" lon="6.90766">
        <ele>1126.7</ele>
        <time>2026-08-27T05:52:22.072Z</time>
      </trkpt>
      <trkpt lat="47.84335" lon="6.90766">
        <ele>1126.6</ele>
        <time>2026-08-27T05:52:23.080Z</time>
      </trkpt>
      <trkpt lat="47.84335" lon="6.90766">
        <ele>1126.7</ele>
        <time>2026-08-27T05:52:24.089Z</time>
      </trkpt>
      <trkpt lat="47.84335" lon="6.90766">
        <ele>1126.7</ele>
        <time>2026-08-27T05:52:25.097Z</time>
      </trkpt>
      <trkpt lat="47.84335" lon="6.90766">
        <ele>1126.6</ele>
        <time>2026-08-27T05:52:27.011Z</time>
      </trkpt>
      <trkpt lat="47.84335" lon="6.90766">
        <ele>1126.4</ele>
        <time>2026-08-27T05:52:28.020Z</time>
      </trkpt>
      <trkpt lat="47.84335" lon="6.90766">
        <ele>1126.6</ele>
        <time>2026-08-27T05:52:29.027Z</time>
      </trkpt>
      <trkpt lat="47.84335" lon="6.90766">
        <ele>1126.5</ele>
        <time>2026-08-27T05:52:30.035Z</time>
      </trkpt>
      <trkpt lat="47.84335" lon="6.90766">
        <ele>1126.6</ele>
        <time>2026-08-27T05:52:31.043Z</time>
      </trkpt>
      <trkpt lat="47.84335" lon="6.90766">
        <ele>1127</ele>
        <time>2026-08-27T05:52:32.053Z</time>
      </trkpt>
      <trkpt lat="47.84335" lon="6.90766">
        <ele>1126.5</ele>
        <time>2026-08-27T05:52:33.060Z</time>
      </trkpt>
      <trkpt lat="47.84335" lon="6.90766">
        <ele>1126.4</ele>
        <time>2026-08-27T05:52:34.068Z</time>
      </trkpt>
      <trkpt lat="47.84335" lon="6.90766">
        <ele>1126.1</ele>
        <time>2026-08-27T05:52:35.077Z</time>
      </trkpt>
      <trkpt lat="47.84335" lon="6.90766">
        <ele>1125.9</ele>
        <time>2026-08-27T05:52:36.084Z</time>
      </trkpt>
      <trkpt lat="47.84335" lon="6.90766">
        <ele>1125.5</ele>
        <time>2026-08-27T05:52:37.093Z</time>
      </trkpt>
      <trkpt lat="47.84335" lon="6.90766">
        <ele>1125.7</ele>
        <time>2026-08-27T05:52:39.109Z</time>
      </trkpt>
      <trkpt lat="47.84335" lon="6.90766">
        <ele>1125.7</ele>
        <time>2026-08-27T05:52:41.023Z</time>
      </trkpt>
      <trkpt lat="47.84335" lon="6.90766">
        <ele>1125.9</ele>
        <time>2026-08-27T05:52:42.032Z</time>
      </trkpt>
      <trkpt lat="47.84335" lon="6.90766">
        <ele>1125.9</ele>
        <time>2026-08-27T05:52:43.040Z</time>
      </trkpt>
      <trkpt lat="47.84335" lon="6.90766">
        <ele>1126</ele>
        <time>2026-08-27T05:52:44.048Z</time>
      </trkpt>
      <trkpt lat="47.84335" lon="6.90766">
        <ele>1126</ele>
        <time>2026-08-27T05:52:45.057Z</time>
      </trkpt>
      <trkpt lat="47.84335" lon="6.90766">
        <ele>1126</ele>
        <time>2026-08-27T05:52:46.064Z</time>
      </trkpt>
      <trkpt lat="47.84335" lon="6.90766">
        <ele>1126.3</ele>
        <time>2026-08-27T05:52:47.072Z</time>
      </trkpt>
      <trkpt lat="47.84335" lon="6.90765">
        <ele>1126.1</ele>
        <time>2026-08-27T05:52:48.080Z</time>
      </trkpt>
      <trkpt lat="47.84335" lon="6.90765">
        <ele>1126</ele>
        <time>2026-08-27T05:52:49.088Z</time>
      </trkpt>
      <trkpt lat="47.84335" lon="6.90765">
        <ele>1126</ele>
        <time>2026-08-27T05:52:50.105Z</time>
      </trkpt>
      <trkpt lat="47.84335" lon="6.90765">
        <ele>1125.9</ele>
        <time>2026-08-27T05:52:52.113Z</time>
      </trkpt>
      <trkpt lat="47.84334" lon="6.90766">
        <ele>1126</ele>
        <time>2026-08-27T05:52:53.121Z</time>
      </trkpt>
      <trkpt lat="47.84333" lon="6.90769">
        <ele>1125.8</ele>
        <time>2026-08-27T05:52:55.045Z</time>
      </trkpt>
      <trkpt lat="47.84332" lon="6.90771">
        <ele>1125.8</ele>
        <time>2026-08-27T05:52:56.103Z</time>
      </trkpt>
      <trkpt lat="47.84332" lon="6.90775">
        <ele>1125.8</ele>
        <time>2026-08-27T05:52:58.102Z</time>
      </trkpt>
      <trkpt lat="47.84331" lon="6.90779">
        <ele>1125.7</ele>
        <time>2026-08-27T05:53:00.081Z</time>
      </trkpt>
      <trkpt lat="47.84331" lon="6.9078">
        <ele>1126</ele>
        <time>2026-08-27T05:53:01.088Z</time>
      </trkpt>
      <trkpt lat="47.84331" lon="6.90782">
        <ele>1125.4</ele>
        <time>2026-08-27T05:53:02.096Z</time>
      </trkpt>
      <trkpt lat="47.84331" lon="6.90784">
        <ele>1125.3</ele>
        <time>2026-08-27T05:53:03.104Z</time>
      </trkpt>
      <trkpt lat="47.84332" lon="6.90786">
        <ele>1124.9</ele>
        <time>2026-08-27T05:53:04.112Z</time>
      </trkpt>
      <trkpt lat="47.84332" lon="6.9079">
        <ele>1125</ele>
        <time>2026-08-27T05:53:06.124Z</time>
      </trkpt>
      <trkpt lat="47.84333" lon="6.90793">
        <ele>1124.3</ele>
        <time>2026-08-27T05:53:08.044Z</time>
      </trkpt>
      <trkpt lat="47.84333" lon="6.90797">
        <ele>1124.1</ele>
        <time>2026-08-27T05:53:10.064Z</time>
      </trkpt>
      <trkpt lat="47.84334" lon="6.90798">
        <ele>1124.6</ele>
        <time>2026-08-27T05:53:11.068Z</time>
      </trkpt>
      <trkpt lat="47.84334" lon="6.90801">
        <ele>1124.6</ele>
        <time>2026-08-27T05:53:13.085Z</time>
      </trkpt>
      <trkpt lat="47.84335" lon="6.90802">
        <ele>1124.6</ele>
        <time>2026-08-27T05:53:14.092Z</time>
      </trkpt>
      <trkpt lat="47.84335" lon="6.90803">
        <ele>1124.4</ele>
        <time>2026-08-27T05:53:15.100Z</time>
      </trkpt>
      <trkpt lat="47.84337" lon="6.90807">
        <ele>1124.1</ele>
        <time>2026-08-27T05:53:17.120Z</time>
      </trkpt>
      <trkpt lat="47.84337" lon="6.90809">
        <ele>1123.9</ele>
        <time>2026-08-27T05:53:18.125Z</time>
      </trkpt>
      <trkpt lat="47.84337" lon="6.90813">
        <ele>1123.8</ele>
        <time>2026-08-27T05:53:20.039Z</time>
      </trkpt>
      <trkpt lat="47.84338" lon="6.90815">
        <ele>1124</ele>
        <time>2026-08-27T05:53:21.048Z</time>
      </trkpt>
      <trkpt lat="47.84338" lon="6.90817">
        <ele>1123.9</ele>
        <time>2026-08-27T05:53:22.055Z</time>
      </trkpt>
      <trkpt lat="47.84338" lon="6.90819">
        <ele>1123.9</ele>
        <time>2026-08-27T05:53:23.085Z</time>
      </trkpt>
      <trkpt lat="47.84339" lon="6.90823">
        <ele>1124.2</ele>
        <time>2026-08-27T05:53:25.079Z</time>
      </trkpt>
      <trkpt lat="47.84339" lon="6.90825">
        <ele>1124.2</ele>
        <time>2026-08-27T05:53:26.088Z</time>
      </trkpt>
      <trkpt lat="47.8434" lon="6.90827">
        <ele>1124.2</ele>
        <time>2026-08-27T05:53:27.095Z</time>
      </trkpt>
      <trkpt lat="47.8434" lon="6.90828">
        <ele>1124.1</ele>
        <time>2026-08-27T05:53:28.103Z</time>
      </trkpt>
      <trkpt lat="47.84341" lon="6.90829">
        <ele>1124.1</ele>
        <time>2026-08-27T05:53:29.123Z</time>
      </trkpt>
      <trkpt lat="47.84342" lon="6.90832">
        <ele>1124.7</ele>
        <time>2026-08-27T05:53:31.127Z</time>
      </trkpt>
      <trkpt lat="47.84343" lon="6.90833">
        <ele>1124.7</ele>
        <time>2026-08-27T05:53:32.135Z</time>
      </trkpt>
      <trkpt lat="47.84344" lon="6.90835">
        <ele>1124.8</ele>
        <time>2026-08-27T05:53:34.050Z</time>
      </trkpt>
      <trkpt lat="47.84345" lon="6.90836">
        <ele>1124.6</ele>
        <time>2026-08-27T05:53:35.059Z</time>
      </trkpt>
      <trkpt lat="47.84346" lon="6.90837">
        <ele>1123.8</ele>
        <time>2026-08-27T05:53:36.066Z</time>
      </trkpt>
      <trkpt lat="47.84346" lon="6.90839">
        <ele>1123.7</ele>
        <time>2026-08-27T05:53:37.074Z</time>
      </trkpt>
      <trkpt lat="47.84347" lon="6.9084">
        <ele>1123.8</ele>
        <time>2026-08-27T05:53:38.082Z</time>
      </trkpt>
      <trkpt lat="47.84348" lon="6.90841">
        <ele>1124.6</ele>
        <time>2026-08-27T05:53:39.091Z</time>
      </trkpt>
      <trkpt lat="47.84349" lon="6.90842">
        <ele>1124.8</ele>
        <time>2026-08-27T05:53:40.099Z</time>
      </trkpt>
      <trkpt lat="47.8435" lon="6.90845">
        <ele>1124.9</ele>
        <time>2026-08-27T05:53:42.115Z</time>
      </trkpt>
      <trkpt lat="47.84351" lon="6.90848">
        <ele>1124.8</ele>
        <time>2026-08-27T05:53:44.029Z</time>
      </trkpt>
      <trkpt lat="47.84352" lon="6.90849">
        <ele>1124.9</ele>
        <time>2026-08-27T05:53:45.037Z</time>
      </trkpt>
      <trkpt lat="47.84352" lon="6.90851">
        <ele>1124.5</ele>
        <time>2026-08-27T05:53:46.045Z</time>
      </trkpt>
      <trkpt lat="47.84352" lon="6.90853">
        <ele>1124.7</ele>
        <time>2026-08-27T05:53:47.053Z</time>
      </trkpt>
      <trkpt lat="47.84352" lon="6.90855">
        <ele>1124.7</ele>
        <time>2026-08-27T05:53:48.065Z</time>
      </trkpt>
      <trkpt lat="47.84352" lon="6.90856">
        <ele>1125</ele>
        <time>2026-08-27T05:53:49.070Z</time>
      </trkpt>
      <trkpt lat="47.84352" lon="6.90858">
        <ele>1124.9</ele>
        <time>2026-08-27T05:53:50.077Z</time>
      </trkpt>
      <trkpt lat="47.84353" lon="6.90859">
        <ele>1124.9</ele>
        <time>2026-08-27T05:53:51.085Z</time>
      </trkpt>
      <trkpt lat="47.84353" lon="6.90861">
        <ele>1125.1</ele>
        <time>2026-08-27T05:53:52.093Z</time>
      </trkpt>
      <trkpt lat="47.84353" lon="6.90863">
        <ele>1125.1</ele>
        <time>2026-08-27T05:53:53.122Z</time>
      </trkpt>
      <trkpt lat="47.84353" lon="6.90865">
        <ele>1125.4</ele>
        <time>2026-08-27T05:53:55.118Z</time>
      </trkpt>
      <trkpt lat="47.84353" lon="6.90866">
        <ele>1125.5</ele>
        <time>2026-08-27T05:53:56.125Z</time>
      </trkpt>
      <trkpt lat="47.84352" lon="6.90869">
        <ele>1126</ele>
        <time>2026-08-27T05:53:58.041Z</time>
      </trkpt>
      <trkpt lat="47.84352" lon="6.9087">
        <ele>1126.3</ele>
        <time>2026-08-27T05:53:59.048Z</time>
      </trkpt>
      <trkpt lat="47.84352" lon="6.90872">
        <ele>1126.3</ele>
        <time>2026-08-27T05:54:00.086Z</time>
      </trkpt>
      <trkpt lat="47.84352" lon="6.90875">
        <ele>1126.5</ele>
        <time>2026-08-27T05:54:02.059Z</time>
      </trkpt>
      <trkpt lat="47.84353" lon="6.90876">
        <ele>1126.3</ele>
        <time>2026-08-27T05:54:03.081Z</time>
      </trkpt>
      <trkpt lat="47.84353" lon="6.90878">
        <ele>1126.5</ele>
        <time>2026-08-27T05:54:04.088Z</time>
      </trkpt>
      <trkpt lat="47.84353" lon="6.90879">
        <ele>1126.7</ele>
        <time>2026-08-27T05:54:05.096Z</time>
      </trkpt>
      <trkpt lat="47.84354" lon="6.90881">
        <ele>1126.4</ele>
        <time>2026-08-27T05:54:06.105Z</time>
      </trkpt>
      <trkpt lat="47.84354" lon="6.90882">
        <ele>1126.3</ele>
        <time>2026-08-27T05:54:07.125Z</time>
      </trkpt>
      <trkpt lat="47.84354" lon="6.90885">
        <ele>1126.6</ele>
        <time>2026-08-27T05:54:09.129Z</time>
      </trkpt>
      <trkpt lat="47.84354" lon="6.90888">
        <ele>1126.9</ele>
        <time>2026-08-27T05:54:11.044Z</time>
      </trkpt>
      <trkpt lat="47.84354" lon="6.9089">
        <ele>1127.1</ele>
        <time>2026-08-27T05:54:12.051Z</time>
      </trkpt>
      <trkpt lat="47.84355" lon="6.90891">
        <ele>1127.1</ele>
        <time>2026-08-27T05:54:13.059Z</time>
      </trkpt>
      <trkpt lat="47.84355" lon="6.90893">
        <ele>1127</ele>
        <time>2026-08-27T05:54:14.067Z</time>
      </trkpt>
      <trkpt lat="47.84354" lon="6.90894">
        <ele>1127</ele>
        <time>2026-08-27T05:54:15.075Z</time>
      </trkpt>
      <trkpt lat="47.84354" lon="6.90896">
        <ele>1127</ele>
        <time>2026-08-27T05:54:16.079Z</time>
      </trkpt>
      <trkpt lat="47.84354" lon="6.90897">
        <ele>1127.3</ele>
        <time>2026-08-27T05:54:17.092Z</time>
      </trkpt>
      <trkpt lat="47.84355" lon="6.909">
        <ele>1127.4</ele>
        <time>2026-08-27T05:54:19.107Z</time>
      </trkpt>
      <trkpt lat="47.84355" lon="6.90901">
        <ele>1127.3</ele>
        <time>2026-08-27T05:54:20.115Z</time>
      </trkpt>
      <trkpt lat="47.84355" lon="6.90903">
        <ele>1127.5</ele>
        <time>2026-08-27T05:54:21.123Z</time>
      </trkpt>
      <trkpt lat="47.84356" lon="6.90906">
        <ele>1128</ele>
        <time>2026-08-27T05:54:23.038Z</time>
      </trkpt>
      <trkpt lat="47.84356" lon="6.90907">
        <ele>1127.9</ele>
        <time>2026-08-27T05:54:24.046Z</time>
      </trkpt>
      <trkpt lat="47.84356" lon="6.9091">
        <ele>1127.7</ele>
        <time>2026-08-27T05:54:26.083Z</time>
      </trkpt>
      <trkpt lat="47.84357" lon="6.90913">
        <ele>1127.8</ele>
        <time>2026-08-27T05:54:28.124Z</time>
      </trkpt>
      <trkpt lat="47.84356" lon="6.90916">
        <ele>1128</ele>
        <time>2026-08-27T05:54:30.094Z</time>
      </trkpt>
      <trkpt lat="47.84356" lon="6.90918">
        <ele>1127.7</ele>
        <time>2026-08-27T05:54:31.102Z</time>
      </trkpt>
      <trkpt lat="47.84356" lon="6.9092">
        <ele>1127.7</ele>
        <time>2026-08-27T05:54:32.110Z</time>
      </trkpt>
      <trkpt lat="47.84355" lon="6.90923">
        <ele>1127.8</ele>
        <time>2026-08-27T05:54:34.125Z</time>
      </trkpt>
      <trkpt lat="47.84355" lon="6.90924">
        <ele>1127.4</ele>
        <time>2026-08-27T05:54:35.134Z</time>
      </trkpt>
      <trkpt lat="47.84354" lon="6.90927">
        <ele>1127.4</ele>
        <time>2026-08-27T05:54:37.086Z</time>
      </trkpt>
      <trkpt lat="47.84352" lon="6.9093">
        <ele>1127.3</ele>
        <time>2026-08-27T05:54:39.065Z</time>
      </trkpt>
      <trkpt lat="47.84351" lon="6.90931">
        <ele>1127.4</ele>
        <time>2026-08-27T05:54:40.072Z</time>
      </trkpt>
      <trkpt lat="47.84351" lon="6.90933">
        <ele>1127.4</ele>
        <time>2026-08-27T05:54:41.080Z</time>
      </trkpt>
      <trkpt lat="47.84349" lon="6.90936">
        <ele>1127.2</ele>
        <time>2026-08-27T05:54:42.996Z</time>
      </trkpt>
      <trkpt lat="47.84348" lon="6.90937">
        <ele>1127.4</ele>
        <time>2026-08-27T05:54:44.104Z</time>
      </trkpt>
      <trkpt lat="47.84346" lon="6.9094">
        <ele>1127.7</ele>
        <time>2026-08-27T05:54:46.020Z</time>
      </trkpt>
      <trkpt lat="47.84344" lon="6.90943">
        <ele>1127.3</ele>
        <time>2026-08-27T05:54:48.141Z</time>
      </trkpt>
      <trkpt lat="47.84343" lon="6.90945">
        <ele>1127.2</ele>
        <time>2026-08-27T05:54:50.106Z</time>
      </trkpt>
      <trkpt lat="47.84341" lon="6.90947">
        <ele>1127.8</ele>
        <time>2026-08-27T05:54:52.067Z</time>
      </trkpt>
      <trkpt lat="47.8434" lon="6.9095">
        <ele>1127.7</ele>
        <time>2026-08-27T05:54:54.079Z</time>
      </trkpt>
      <trkpt lat="47.84339" lon="6.90951">
        <ele>1127.6</ele>
        <time>2026-08-27T05:54:55.092Z</time>
      </trkpt>
      <trkpt lat="47.84339" lon="6.90952">
        <ele>1127.6</ele>
        <time>2026-08-27T05:54:56.103Z</time>
      </trkpt>
      <trkpt lat="47.84338" lon="6.90954">
        <ele>1128.1</ele>
        <time>2026-08-27T05:54:57.107Z</time>
      </trkpt>
      <trkpt lat="47.84337" lon="6.90955">
        <ele>1128.2</ele>
        <time>2026-08-27T05:54:58.116Z</time>
      </trkpt>
      <trkpt lat="47.84336" lon="6.90956">
        <ele>1128.1</ele>
        <time>2026-08-27T05:54:59.124Z</time>
      </trkpt>
      <trkpt lat="47.84336" lon="6.90958">
        <ele>1127.8</ele>
        <time>2026-08-27T05:55:00.131Z</time>
      </trkpt>
      <trkpt lat="47.84334" lon="6.9096">
        <ele>1127.8</ele>
        <time>2026-08-27T05:55:02.059Z</time>
      </trkpt>
      <trkpt lat="47.84333" lon="6.90962">
        <ele>1128</ele>
        <time>2026-08-27T05:55:04.062Z</time>
      </trkpt>
      <trkpt lat="47.84331" lon="6.90964">
        <ele>1127.6</ele>
        <time>2026-08-27T05:55:06.082Z</time>
      </trkpt>
      <trkpt lat="47.84331" lon="6.90966">
        <ele>1127.8</ele>
        <time>2026-08-27T05:55:07.086Z</time>
      </trkpt>
      <trkpt lat="47.84329" lon="6.90968">
        <ele>1127.9</ele>
        <time>2026-08-27T05:55:09.103Z</time>
      </trkpt>
      <trkpt lat="47.84328" lon="6.90969">
        <ele>1128</ele>
        <time>2026-08-27T05:55:10.110Z</time>
      </trkpt>
      <trkpt lat="47.84327" lon="6.90972">
        <ele>1127.8</ele>
        <time>2026-08-27T05:55:12.063Z</time>
      </trkpt>
      <trkpt lat="47.84326" lon="6.90974">
        <ele>1127.7</ele>
        <time>2026-08-27T05:55:13.987Z</time>
      </trkpt>
      <trkpt lat="47.84325" lon="6.90976">
        <ele>1127.9</ele>
        <time>2026-08-27T05:55:15.050Z</time>
      </trkpt>
      <trkpt lat="47.84324" lon="6.90977">
        <ele>1127.8</ele>
        <time>2026-08-27T05:55:16.057Z</time>
      </trkpt>
      <trkpt lat="47.84323" lon="6.90978">
        <ele>1127.9</ele>
        <time>2026-08-27T05:55:17.065Z</time>
      </trkpt>
      <trkpt lat="47.84321" lon="6.90981">
        <ele>1127.8</ele>
        <time>2026-08-27T05:55:19.110Z</time>
      </trkpt>
      <trkpt lat="47.84321" lon="6.90981">
        <ele>1127.6</ele>
        <time>2026-08-27T05:55:20.110Z</time>
      </trkpt>
      <trkpt lat="47.8432" lon="6.90983">
        <ele>1127.5</ele>
        <time>2026-08-27T05:55:21.118Z</time>
      </trkpt>
      <trkpt lat="47.84319" lon="6.90984">
        <ele>1127.5</ele>
        <time>2026-08-27T05:55:22.125Z</time>
      </trkpt>
      <trkpt lat="47.84318" lon="6.90987">
        <ele>1127.2</ele>
        <time>2026-08-27T05:55:24.041Z</time>
      </trkpt>
      <trkpt lat="47.84317" lon="6.90988">
        <ele>1127.4</ele>
        <time>2026-08-27T05:55:25.049Z</time>
      </trkpt>
      <trkpt lat="47.84317" lon="6.9099">
        <ele>1127.2</ele>
        <time>2026-08-27T05:55:26.056Z</time>
      </trkpt>
      <trkpt lat="47.84316" lon="6.90991">
        <ele>1127.2</ele>
        <time>2026-08-27T05:55:27.064Z</time>
      </trkpt>
      <trkpt lat="47.84315" lon="6.90992">
        <ele>1127</ele>
        <time>2026-08-27T05:55:28.073Z</time>
      </trkpt>
      <trkpt lat="47.84315" lon="6.90993">
        <ele>1127</ele>
        <time>2026-08-27T05:55:29.080Z</time>
      </trkpt>
      <trkpt lat="47.84314" lon="6.90994">
        <ele>1126.9</ele>
        <time>2026-08-27T05:55:30.088Z</time>
      </trkpt>
      <trkpt lat="47.84314" lon="6.90995">
        <ele>1126.8</ele>
        <time>2026-08-27T05:55:31.097Z</time>
      </trkpt>
      <trkpt lat="47.84313" lon="6.90996">
        <ele>1126.8</ele>
        <time>2026-08-27T05:55:32.104Z</time>
      </trkpt>
      <trkpt lat="47.84312" lon="6.90997">
        <ele>1126.8</ele>
        <time>2026-08-27T05:55:33.112Z</time>
      </trkpt>
      <trkpt lat="47.84311" lon="6.90998">
        <ele>1126.5</ele>
        <time>2026-08-27T05:55:34.121Z</time>
      </trkpt>
      <trkpt lat="47.84309" lon="6.90999">
        <ele>1126.7</ele>
        <time>2026-08-27T05:55:35.128Z</time>
      </trkpt>
      <trkpt lat="47.84308" lon="6.91002">
        <ele>1126.6</ele>
        <time>2026-08-27T05:55:37.026Z</time>
      </trkpt>
      <trkpt lat="47.84307" lon="6.91003">
        <ele>1126.9</ele>
        <time>2026-08-27T05:55:38.052Z</time>
      </trkpt>
      <trkpt lat="47.84306" lon="6.91005">
        <ele>1126.8</ele>
        <time>2026-08-27T05:55:39.060Z</time>
      </trkpt>
      <trkpt lat="47.84305" lon="6.91006">
        <ele>1126.7</ele>
        <time>2026-08-27T05:55:40.068Z</time>
      </trkpt>
      <trkpt lat="47.84304" lon="6.91007">
        <ele>1126.7</ele>
        <time>2026-08-27T05:55:41.075Z</time>
      </trkpt>
      <trkpt lat="47.84303" lon="6.91008">
        <ele>1126.8</ele>
        <time>2026-08-27T05:55:42.084Z</time>
      </trkpt>
      <trkpt lat="47.84302" lon="6.91011">
        <ele>1126.8</ele>
        <time>2026-08-27T05:55:44.100Z</time>
      </trkpt>
      <trkpt lat="47.84301" lon="6.91014">
        <ele>1126.5</ele>
        <time>2026-08-27T05:55:46.115Z</time>
      </trkpt>
      <trkpt lat="47.843" lon="6.91015">
        <ele>1127.1</ele>
        <time>2026-08-27T05:55:47.123Z</time>
      </trkpt>
      <trkpt lat="47.84299" lon="6.91017">
        <ele>1127</ele>
        <time>2026-08-27T05:55:48.131Z</time>
      </trkpt>
      <trkpt lat="47.84299" lon="6.91018">
        <ele>1127.1</ele>
        <time>2026-08-27T05:55:49.140Z</time>
      </trkpt>
      <trkpt lat="47.84298" lon="6.91021">
        <ele>1126.7</ele>
        <time>2026-08-27T05:55:51.054Z</time>
      </trkpt>
      <trkpt lat="47.84297" lon="6.91023">
        <ele>1126.7</ele>
        <time>2026-08-27T05:55:52.063Z</time>
      </trkpt>
      <trkpt lat="47.84297" lon="6.91024">
        <ele>1126.9</ele>
        <time>2026-08-27T05:55:53.070Z</time>
      </trkpt>
      <trkpt lat="47.84296" lon="6.91026">
        <ele>1127.1</ele>
        <time>2026-08-27T05:55:54.078Z</time>
      </trkpt>
      <trkpt lat="47.84296" lon="6.91027">
        <ele>1127</ele>
        <time>2026-08-27T05:55:55.086Z</time>
      </trkpt>
      <trkpt lat="47.84295" lon="6.91028">
        <ele>1127.2</ele>
        <time>2026-08-27T05:55:56.095Z</time>
      </trkpt>
      <trkpt lat="47.84294" lon="6.91029">
        <ele>1127</ele>
        <time>2026-08-27T05:55:57.102Z</time>
      </trkpt>
      <trkpt lat="47.84294" lon="6.9103">
        <ele>1127</ele>
        <time>2026-08-27T05:55:58.110Z</time>
      </trkpt>
      <trkpt lat="47.84293" lon="6.91032">
        <ele>1126.9</ele>
        <time>2026-08-27T05:55:59.117Z</time>
      </trkpt>
      <trkpt lat="47.84292" lon="6.91034">
        <ele>1127.3</ele>
        <time>2026-08-27T05:56:00.965Z</time>
      </trkpt>
      <trkpt lat="47.84292" lon="6.91036">
        <ele>1127.1</ele>
        <time>2026-08-27T05:56:02.041Z</time>
      </trkpt>
      <trkpt lat="47.84291" lon="6.91037">
        <ele>1126.7</ele>
        <time>2026-08-27T05:56:03.048Z</time>
      </trkpt>
      <trkpt lat="47.8429" lon="6.91039">
        <ele>1127</ele>
        <time>2026-08-27T05:56:04.056Z</time>
      </trkpt>
      <trkpt lat="47.84289" lon="6.91042">
        <ele>1127.2</ele>
        <time>2026-08-27T05:56:06.072Z</time>
      </trkpt>
      <trkpt lat="47.84289" lon="6.91044">
        <ele>1127.2</ele>
        <time>2026-08-27T05:56:07.081Z</time>
      </trkpt>
      <trkpt lat="47.84288" lon="6.91045">
        <ele>1127.1</ele>
        <time>2026-08-27T05:56:08.088Z</time>
      </trkpt>
      <trkpt lat="47.84288" lon="6.91047">
        <ele>1127</ele>
        <time>2026-08-27T05:56:09.096Z</time>
      </trkpt>
      <trkpt lat="47.84288" lon="6.91049">
        <ele>1126.9</ele>
        <time>2026-08-27T05:56:10.104Z</time>
      </trkpt>
      <trkpt lat="47.84287" lon="6.91051">
        <ele>1127.2</ele>
        <time>2026-08-27T05:56:12.120Z</time>
      </trkpt>
      <trkpt lat="47.84286" lon="6.91054">
        <ele>1127.2</ele>
        <time>2026-08-27T05:56:14.035Z</time>
      </trkpt>
      <trkpt lat="47.84286" lon="6.91056">
        <ele>1127.1</ele>
        <time>2026-08-27T05:56:15.043Z</time>
      </trkpt>
      <trkpt lat="47.84285" lon="6.91057">
        <ele>1127.4</ele>
        <time>2026-08-27T05:56:16.052Z</time>
      </trkpt>
      <trkpt lat="47.84285" lon="6.91059">
        <ele>1127.2</ele>
        <time>2026-08-27T05:56:17.059Z</time>
      </trkpt>
      <trkpt lat="47.84285" lon="6.91061">
        <ele>1127.2</ele>
        <time>2026-08-27T05:56:18.067Z</time>
      </trkpt>
      <trkpt lat="47.84284" lon="6.91063">
        <ele>1127.2</ele>
        <time>2026-08-27T05:56:19.075Z</time>
      </trkpt>
      <trkpt lat="47.84284" lon="6.91064">
        <ele>1127.2</ele>
        <time>2026-08-27T05:56:20.084Z</time>
      </trkpt>
      <trkpt lat="47.84284" lon="6.91066">
        <ele>1127</ele>
        <time>2026-08-27T05:56:21.091Z</time>
      </trkpt>
      <trkpt lat="47.84283" lon="6.91067">
        <ele>1127</ele>
        <time>2026-08-27T05:56:22.099Z</time>
      </trkpt>
      <trkpt lat="47.84283" lon="6.91069">
        <ele>1127</ele>
        <time>2026-08-27T05:56:23.149Z</time>
      </trkpt>
      <trkpt lat="47.84283" lon="6.91072">
        <ele>1127.1</ele>
        <time>2026-08-27T05:56:25.064Z</time>
      </trkpt>
      <trkpt lat="47.84282" lon="6.91075">
        <ele>1127</ele>
        <time>2026-08-27T05:56:27.038Z</time>
      </trkpt>
      <trkpt lat="47.84282" lon="6.91077">
        <ele>1127.1</ele>
        <time>2026-08-27T05:56:28.046Z</time>
      </trkpt>
      <trkpt lat="47.84282" lon="6.91078">
        <ele>1127.1</ele>
        <time>2026-08-27T05:56:29.046Z</time>
      </trkpt>
      <trkpt lat="47.84282" lon="6.9108">
        <ele>1127.1</ele>
        <time>2026-08-27T05:56:30.063Z</time>
      </trkpt>
      <trkpt lat="47.84282" lon="6.91081">
        <ele>1126.8</ele>
        <time>2026-08-27T05:56:31.070Z</time>
      </trkpt>
      <trkpt lat="47.84282" lon="6.91083">
        <ele>1126.7</ele>
        <time>2026-08-27T05:56:32.077Z</time>
      </trkpt>
      <trkpt lat="47.84281" lon="6.91084">
        <ele>1126.7</ele>
        <time>2026-08-27T05:56:33.085Z</time>
      </trkpt>
      <trkpt lat="47.84281" lon="6.91086">
        <ele>1126.8</ele>
        <time>2026-08-27T05:56:34.094Z</time>
      </trkpt>
      <trkpt lat="47.84281" lon="6.91088">
        <ele>1126.7</ele>
        <time>2026-08-27T05:56:35.101Z</time>
      </trkpt>
      <trkpt lat="47.84281" lon="6.91089">
        <ele>1126.8</ele>
        <time>2026-08-27T05:56:36.110Z</time>
      </trkpt>
      <trkpt lat="47.84281" lon="6.91093">
        <ele>1126.7</ele>
        <time>2026-08-27T05:56:38.126Z</time>
      </trkpt>
      <trkpt lat="47.84281" lon="6.91096">
        <ele>1126.6</ele>
        <time>2026-08-27T05:56:40.040Z</time>
      </trkpt>
      <trkpt lat="47.84281" lon="6.911">
        <ele>1126.8</ele>
        <time>2026-08-27T05:56:42.056Z</time>
      </trkpt>
      <trkpt lat="47.84281" lon="6.91104">
        <ele>1126.6</ele>
        <time>2026-08-27T05:56:44.072Z</time>
      </trkpt>
      <trkpt lat="47.84281" lon="6.91105">
        <ele>1126.4</ele>
        <time>2026-08-27T05:56:45.080Z</time>
      </trkpt>
      <trkpt lat="47.84281" lon="6.91108">
        <ele>1126.5</ele>
        <time>2026-08-27T05:56:47.096Z</time>
      </trkpt>
      <trkpt lat="47.84281" lon="6.9111">
        <ele>1126.5</ele>
        <time>2026-08-27T05:56:48.104Z</time>
      </trkpt>
      <trkpt lat="47.8428" lon="6.91112">
        <ele>1126.5</ele>
        <time>2026-08-27T05:56:49.129Z</time>
      </trkpt>
      <trkpt lat="47.8428" lon="6.91115">
        <ele>1126.5</ele>
        <time>2026-08-27T05:56:51.129Z</time>
      </trkpt>
      <trkpt lat="47.8428" lon="6.91119">
        <ele>1126.7</ele>
        <time>2026-08-27T05:56:53.044Z</time>
      </trkpt>
      <trkpt lat="47.84279" lon="6.9112">
        <ele>1126.7</ele>
        <time>2026-08-27T05:56:54.051Z</time>
      </trkpt>
      <trkpt lat="47.84279" lon="6.91122">
        <ele>1127</ele>
        <time>2026-08-27T05:56:55.060Z</time>
      </trkpt>
      <trkpt lat="47.84278" lon="6.91124">
        <ele>1126.9</ele>
        <time>2026-08-27T05:56:56.067Z</time>
      </trkpt>
      <trkpt lat="47.84277" lon="6.91126">
        <ele>1126.7</ele>
        <time>2026-08-27T05:56:57.075Z</time>
      </trkpt>
      <trkpt lat="47.84277" lon="6.9113">
        <ele>1126.9</ele>
        <time>2026-08-27T05:56:59.090Z</time>
      </trkpt>
      <trkpt lat="47.84276" lon="6.91133">
        <ele>1126.5</ele>
        <time>2026-08-27T05:57:01.006Z</time>
      </trkpt>
      <trkpt lat="47.84276" lon="6.91134">
        <ele>1126.5</ele>
        <time>2026-08-27T05:57:02.114Z</time>
      </trkpt>
      <trkpt lat="47.84276" lon="6.91136">
        <ele>1126.5</ele>
        <time>2026-08-27T05:57:03.122Z</time>
      </trkpt>
      <trkpt lat="47.84276" lon="6.91138">
        <ele>1126.5</ele>
        <time>2026-08-27T05:57:04.131Z</time>
      </trkpt>
      <trkpt lat="47.84275" lon="6.91141">
        <ele>1126.3</ele>
        <time>2026-08-27T05:57:06.045Z</time>
      </trkpt>
      <trkpt lat="47.84275" lon="6.91143">
        <ele>1126.5</ele>
        <time>2026-08-27T05:57:07.053Z</time>
      </trkpt>
      <trkpt lat="47.84275" lon="6.91145">
        <ele>1126.2</ele>
        <time>2026-08-27T05:57:08.061Z</time>
      </trkpt>
      <trkpt lat="47.84274" lon="6.91148">
        <ele>1126.3</ele>
        <time>2026-08-27T05:57:10.077Z</time>
      </trkpt>
      <trkpt lat="47.84274" lon="6.9115">
        <ele>1126.3</ele>
        <time>2026-08-27T05:57:11.086Z</time>
      </trkpt>
      <trkpt lat="47.84274" lon="6.91151">
        <ele>1126.3</ele>
        <time>2026-08-27T05:57:12.093Z</time>
      </trkpt>
      <trkpt lat="47.84273" lon="6.91153">
        <ele>1126.5</ele>
        <time>2026-08-27T05:57:13.101Z</time>
      </trkpt>
      <trkpt lat="47.84273" lon="6.91154">
        <ele>1126.5</ele>
        <time>2026-08-27T05:57:14.109Z</time>
      </trkpt>
      <trkpt lat="47.84272" lon="6.91158">
        <ele>1126.4</ele>
        <time>2026-08-27T05:57:16.126Z</time>
      </trkpt>
      <trkpt lat="47.84271" lon="6.91161">
        <ele>1126.2</ele>
        <time>2026-08-27T05:57:18.040Z</time>
      </trkpt>
      <trkpt lat="47.84271" lon="6.91162">
        <ele>1125.8</ele>
        <time>2026-08-27T05:57:19.048Z</time>
      </trkpt>
      <trkpt lat="47.8427" lon="6.91163">
        <ele>1126</ele>
        <time>2026-08-27T05:57:20.057Z</time>
      </trkpt>
      <trkpt lat="47.8427" lon="6.91165">
        <ele>1126</ele>
        <time>2026-08-27T05:57:21.106Z</time>
      </trkpt>
      <trkpt lat="47.8427" lon="6.91169">
        <ele>1125.9</ele>
        <time>2026-08-27T05:57:23.106Z</time>
      </trkpt>
      <trkpt lat="47.8427" lon="6.91172">
        <ele>1126.1</ele>
        <time>2026-08-27T05:57:25.095Z</time>
      </trkpt>
      <trkpt lat="47.84269" lon="6.91173">
        <ele>1125.9</ele>
        <time>2026-08-27T05:57:26.104Z</time>
      </trkpt>
      <trkpt lat="47.84269" lon="6.91175">
        <ele>1125.9</ele>
        <time>2026-08-27T05:57:27.145Z</time>
      </trkpt>
      <trkpt lat="47.84269" lon="6.91178">
        <ele>1125.3</ele>
        <time>2026-08-27T05:57:29.026Z</time>
      </trkpt>
      <trkpt lat="47.84269" lon="6.9118">
        <ele>1125.3</ele>
        <time>2026-08-27T05:57:30.135Z</time>
      </trkpt>
      <trkpt lat="47.84268" lon="6.91184">
        <ele>1125.2</ele>
        <time>2026-08-27T05:57:32.085Z</time>
      </trkpt>
      <trkpt lat="47.84268" lon="6.91186">
        <ele>1125.3</ele>
        <time>2026-08-27T05:57:34.066Z</time>
      </trkpt>
      <trkpt lat="47.84268" lon="6.91188">
        <ele>1125.1</ele>
        <time>2026-08-27T05:57:35.075Z</time>
      </trkpt>
      <trkpt lat="47.84267" lon="6.91189">
        <ele>1125.4</ele>
        <time>2026-08-27T05:57:36.083Z</time>
      </trkpt>
      <trkpt lat="47.84267" lon="6.91191">
        <ele>1125.4</ele>
        <time>2026-08-27T05:57:37.090Z</time>
      </trkpt>
      <trkpt lat="47.84267" lon="6.91194">
        <ele>1125.9</ele>
        <time>2026-08-27T05:57:39.107Z</time>
      </trkpt>
      <trkpt lat="47.84266" lon="6.91198">
        <ele>1125.5</ele>
        <time>2026-08-27T05:57:41.123Z</time>
      </trkpt>
      <trkpt lat="47.84266" lon="6.91199">
        <ele>1125.6</ele>
        <time>2026-08-27T05:57:42.130Z</time>
      </trkpt>
      <trkpt lat="47.84265" lon="6.91203">
        <ele>1125.6</ele>
        <time>2026-08-27T05:57:44.071Z</time>
      </trkpt>
      <trkpt lat="47.84264" lon="6.91206">
        <ele>1125.6</ele>
        <time>2026-08-27T05:57:46.061Z</time>
      </trkpt>
      <trkpt lat="47.84264" lon="6.91208">
        <ele>1125.6</ele>
        <time>2026-08-27T05:57:47.070Z</time>
      </trkpt>
      <trkpt lat="47.84264" lon="6.9121">
        <ele>1125.3</ele>
        <time>2026-08-27T05:57:48.077Z</time>
      </trkpt>
      <trkpt lat="47.84264" lon="6.91211">
        <ele>1125.6</ele>
        <time>2026-08-27T05:57:49.086Z</time>
      </trkpt>
      <trkpt lat="47.84264" lon="6.91213">
        <ele>1125.9</ele>
        <time>2026-08-27T05:57:50.093Z</time>
      </trkpt>
      <trkpt lat="47.84264" lon="6.91215">
        <ele>1125.9</ele>
        <time>2026-08-27T05:57:51.101Z</time>
      </trkpt>
      <trkpt lat="47.84263" lon="6.91216">
        <ele>1125.9</ele>
        <time>2026-08-27T05:57:52.109Z</time>
      </trkpt>
      <trkpt lat="47.84263" lon="6.91218">
        <ele>1125.9</ele>
        <time>2026-08-27T05:57:53.116Z</time>
      </trkpt>
      <trkpt lat="47.84263" lon="6.91219">
        <ele>1125.9</ele>
        <time>2026-08-27T05:57:54.124Z</time>
      </trkpt>
      <trkpt lat="47.84262" lon="6.91222">
        <ele>1125.7</ele>
        <time>2026-08-27T05:57:56.040Z</time>
      </trkpt>
      <trkpt lat="47.84262" lon="6.91224">
        <ele>1125.5</ele>
        <time>2026-08-27T05:57:57.047Z</time>
      </trkpt>
      <trkpt lat="47.84262" lon="6.91225">
        <ele>1125.6</ele>
        <time>2026-08-27T05:57:58.056Z</time>
      </trkpt>
      <trkpt lat="47.84262" lon="6.91227">
        <ele>1125.5</ele>
        <time>2026-08-27T05:57:59.064Z</time>
      </trkpt>
      <trkpt lat="47.84261" lon="6.91229">
        <ele>1125.4</ele>
        <time>2026-08-27T05:58:00.072Z</time>
      </trkpt>
      <trkpt lat="47.84261" lon="6.91232">
        <ele>1125.4</ele>
        <time>2026-08-27T05:58:02.087Z</time>
      </trkpt>
      <trkpt lat="47.84261" lon="6.91234">
        <ele>1125.4</ele>
        <time>2026-08-27T05:58:03.103Z</time>
      </trkpt>
      <trkpt lat="47.8426" lon="6.91236">
        <ele>1125.3</ele>
        <time>2026-08-27T05:58:04.104Z</time>
      </trkpt>
      <trkpt lat="47.8426" lon="6.91238">
        <ele>1125.2</ele>
        <time>2026-08-27T05:58:05.111Z</time>
      </trkpt>
      <trkpt lat="47.84259" lon="6.9124">
        <ele>1125.3</ele>
        <time>2026-08-27T05:58:06.120Z</time>
      </trkpt>
      <trkpt lat="47.84259" lon="6.91242">
        <ele>1125.4</ele>
        <time>2026-08-27T05:58:07.128Z</time>
      </trkpt>
      <trkpt lat="47.84259" lon="6.91245">
        <ele>1125.6</ele>
        <time>2026-08-27T05:58:09.067Z</time>
      </trkpt>
      <trkpt lat="47.84258" lon="6.91248">
        <ele>1125</ele>
        <time>2026-08-27T05:58:11.059Z</time>
      </trkpt>
      <trkpt lat="47.84258" lon="6.9125">
        <ele>1124.7</ele>
        <time>2026-08-27T05:58:12.067Z</time>
      </trkpt>
      <trkpt lat="47.84258" lon="6.91251">
        <ele>1124.7</ele>
        <time>2026-08-27T05:58:13.074Z</time>
      </trkpt>
      <trkpt lat="47.84259" lon="6.91253">
        <ele>1124.8</ele>
        <time>2026-08-27T05:58:14.083Z</time>
      </trkpt>
      <trkpt lat="47.84259" lon="6.91254">
        <ele>1124.6</ele>
        <time>2026-08-27T05:58:15.090Z</time>
      </trkpt>
      <trkpt lat="47.84259" lon="6.91255">
        <ele>1124.3</ele>
        <time>2026-08-27T05:58:16.098Z</time>
      </trkpt>
      <trkpt lat="47.84259" lon="6.91257">
        <ele>1124.2</ele>
        <time>2026-08-27T05:58:17.106Z</time>
      </trkpt>
      <trkpt lat="47.84259" lon="6.91258">
        <ele>1124.3</ele>
        <time>2026-08-27T05:58:18.114Z</time>
      </trkpt>
      <trkpt lat="47.84259" lon="6.91261">
        <ele>1124.3</ele>
        <time>2026-08-27T05:58:20.029Z</time>
      </trkpt>
      <trkpt lat="47.84259" lon="6.91263">
        <ele>1124.2</ele>
        <time>2026-08-27T05:58:21.137Z</time>
      </trkpt>
      <trkpt lat="47.84259" lon="6.91266">
        <ele>1124.2</ele>
        <time>2026-08-27T05:58:23.052Z</time>
      </trkpt>
      <trkpt lat="47.84258" lon="6.91269">
        <ele>1124</ele>
        <time>2026-08-27T05:58:25.068Z</time>
      </trkpt>
      <trkpt lat="47.84258" lon="6.9127">
        <ele>1123.7</ele>
        <time>2026-08-27T05:58:26.076Z</time>
      </trkpt>
      <trkpt lat="47.84258" lon="6.91272">
        <ele>1123.7</ele>
        <time>2026-08-27T05:58:27.084Z</time>
      </trkpt>
      <trkpt lat="47.84257" lon="6.91273">
        <ele>1123.7</ele>
        <time>2026-08-27T05:58:28.093Z</time>
      </trkpt>
      <trkpt lat="47.84257" lon="6.91275">
        <ele>1123.6</ele>
        <time>2026-08-27T05:58:29.108Z</time>
      </trkpt>
      <trkpt lat="47.84258" lon="6.91277">
        <ele>1123.6</ele>
        <time>2026-08-27T05:58:30.108Z</time>
      </trkpt>
      <trkpt lat="47.84257" lon="6.9128">
        <ele>1123.8</ele>
        <time>2026-08-27T05:58:32.124Z</time>
      </trkpt>
      <trkpt lat="47.84257" lon="6.91284">
        <ele>1123.4</ele>
        <time>2026-08-27T05:58:34.039Z</time>
      </trkpt>
      <trkpt lat="47.84257" lon="6.91286">
        <ele>1123.6</ele>
        <time>2026-08-27T05:58:35.047Z</time>
      </trkpt>
      <trkpt lat="47.84257" lon="6.91288">
        <ele>1123.6</ele>
        <time>2026-08-27T05:58:36.047Z</time>
      </trkpt>
      <trkpt lat="47.84257" lon="6.9129">
        <ele>1123.7</ele>
        <time>2026-08-27T05:58:37.063Z</time>
      </trkpt>
      <trkpt lat="47.84257" lon="6.91291">
        <ele>1123.6</ele>
        <time>2026-08-27T05:58:38.072Z</time>
      </trkpt>
      <trkpt lat="47.84257" lon="6.91293">
        <ele>1123.5</ele>
        <time>2026-08-27T05:58:39.080Z</time>
      </trkpt>
      <trkpt lat="47.84256" lon="6.91297">
        <ele>1123.1</ele>
        <time>2026-08-27T05:58:41.095Z</time>
      </trkpt>
      <trkpt lat="47.84255" lon="6.91301">
        <ele>1123</ele>
        <time>2026-08-27T05:58:43.112Z</time>
      </trkpt>
      <trkpt lat="47.84255" lon="6.91303">
        <ele>1122.9</ele>
        <time>2026-08-27T05:58:44.119Z</time>
      </trkpt>
      <trkpt lat="47.84255" lon="6.91306">
        <ele>1123.1</ele>
        <time>2026-08-27T05:58:46.035Z</time>
      </trkpt>
      <trkpt lat="47.84255" lon="6.91308">
        <ele>1123.1</ele>
        <time>2026-08-27T05:58:47.142Z</time>
      </trkpt>
      <trkpt lat="47.84254" lon="6.91312">
        <ele>1123</ele>
        <time>2026-08-27T05:58:49.057Z</time>
      </trkpt>
      <trkpt lat="47.84254" lon="6.91313">
        <ele>1123.3</ele>
        <time>2026-08-27T05:58:50.066Z</time>
      </trkpt>
      <trkpt lat="47.84254" lon="6.91317">
        <ele>1123.3</ele>
        <time>2026-08-27T05:58:52.090Z</time>
      </trkpt>
      <trkpt lat="47.84254" lon="6.9132">
        <ele>1122.9</ele>
        <time>2026-08-27T05:58:54.106Z</time>
      </trkpt>
      <trkpt lat="47.84253" lon="6.91323">
        <ele>1122.2</ele>
        <time>2026-08-27T05:58:56.113Z</time>
      </trkpt>
      <trkpt lat="47.84253" lon="6.91325">
        <ele>1121.9</ele>
        <time>2026-08-27T05:58:57.121Z</time>
      </trkpt>
      <trkpt lat="47.84253" lon="6.91328">
        <ele>1121.8</ele>
        <time>2026-08-27T05:58:59.036Z</time>
      </trkpt>
      <trkpt lat="47.84252" lon="6.9133">
        <ele>1121.8</ele>
        <time>2026-08-27T05:59:00.045Z</time>
      </trkpt>
      <trkpt lat="47.84252" lon="6.91332">
        <ele>1121.8</ele>
        <time>2026-08-27T05:59:01.052Z</time>
      </trkpt>
      <trkpt lat="47.84252" lon="6.91333">
        <ele>1121.6</ele>
        <time>2026-08-27T05:59:02.060Z</time>
      </trkpt>
      <trkpt lat="47.84251" lon="6.91336">
        <ele>1121.5</ele>
        <time>2026-08-27T05:59:04.076Z</time>
      </trkpt>
      <trkpt lat="47.84251" lon="6.91339">
        <ele>1121.6</ele>
        <time>2026-08-27T05:59:06.126Z</time>
      </trkpt>
      <trkpt lat="47.8425" lon="6.91342">
        <ele>1121.2</ele>
        <time>2026-08-27T05:59:08.109Z</time>
      </trkpt>
      <trkpt lat="47.8425" lon="6.91346">
        <ele>1121.1</ele>
        <time>2026-08-27T05:59:10.123Z</time>
      </trkpt>
      <trkpt lat="47.84249" lon="6.91347">
        <ele>1120.9</ele>
        <time>2026-08-27T05:59:11.132Z</time>
      </trkpt>
      <trkpt lat="47.84249" lon="6.9135">
        <ele>1120.4</ele>
        <time>2026-08-27T05:59:13.046Z</time>
      </trkpt>
      <trkpt lat="47.84248" lon="6.91351">
        <ele>1120.5</ele>
        <time>2026-08-27T05:59:14.054Z</time>
      </trkpt>
      <trkpt lat="47.84247" lon="6.91355">
        <ele>1120.7</ele>
        <time>2026-08-27T05:59:16.071Z</time>
      </trkpt>
      <trkpt lat="47.84247" lon="6.91358">
        <ele>1120.2</ele>
        <time>2026-08-27T05:59:17.985Z</time>
      </trkpt>
      <trkpt lat="47.84246" lon="6.9136">
        <ele>1120.1</ele>
        <time>2026-08-27T05:59:18.993Z</time>
      </trkpt>
      <trkpt lat="47.84246" lon="6.91361">
        <ele>1120.3</ele>
        <time>2026-08-27T05:59:20.001Z</time>
      </trkpt>
      <trkpt lat="47.84247" lon="6.91363">
        <ele>1120</ele>
        <time>2026-08-27T05:59:21.010Z</time>
      </trkpt>
      <trkpt lat="47.84247" lon="6.91364">
        <ele>1120.3</ele>
        <time>2026-08-27T05:59:22.018Z</time>
      </trkpt>
      <trkpt lat="47.84247" lon="6.91365">
        <ele>1120.2</ele>
        <time>2026-08-27T05:59:23.025Z</time>
      </trkpt>
      <trkpt lat="47.84247" lon="6.91365">
        <ele>1120.2</ele>
        <time>2026-08-27T05:59:24.033Z</time>
      </trkpt>
      <trkpt lat="47.84247" lon="6.91365">
        <ele>1119.5</ele>
        <time>2026-08-27T05:59:25.042Z</time>
      </trkpt>
      <trkpt lat="47.84247" lon="6.91365">
        <ele>1119.3</ele>
        <time>2026-08-27T05:59:26.049Z</time>
      </trkpt>
      <trkpt lat="47.84247" lon="6.91365">
        <ele>1119.4</ele>
        <time>2026-08-27T05:59:27.057Z</time>
      </trkpt>
      <trkpt lat="47.84247" lon="6.91369">
        <ele>1119.8</ele>
        <time>2026-08-27T05:59:29.073Z</time>
      </trkpt>
      <trkpt lat="47.84247" lon="6.91371">
        <ele>1119.5</ele>
        <time>2026-08-27T05:59:30.081Z</time>
      </trkpt>
      <trkpt lat="47.84248" lon="6.91373">
        <ele>1119.7</ele>
        <time>2026-08-27T05:59:31.997Z</time>
      </trkpt>
      <trkpt lat="47.84248" lon="6.91376">
        <ele>1119.8</ele>
        <time>2026-08-27T05:59:34.013Z</time>
      </trkpt>
      <trkpt lat="47.84249" lon="6.91377">
        <ele>1120</ele>
        <time>2026-08-27T05:59:35.020Z</time>
      </trkpt>
      <trkpt lat="47.84249" lon="6.91378">
        <ele>1119.9</ele>
        <time>2026-08-27T05:59:36.029Z</time>
      </trkpt>
      <trkpt lat="47.8425" lon="6.9138">
        <ele>1119.8</ele>
        <time>2026-08-27T05:59:37.037Z</time>
      </trkpt>
      <trkpt lat="47.84251" lon="6.91382">
        <ele>1120.3</ele>
        <time>2026-08-27T05:59:39.061Z</time>
      </trkpt>
      <trkpt lat="47.84251" lon="6.91384">
        <ele>1120.6</ele>
        <time>2026-08-27T05:59:40.068Z</time>
      </trkpt>
      <trkpt lat="47.84251" lon="6.91385">
        <ele>1120.8</ele>
        <time>2026-08-27T05:59:41.076Z</time>
      </trkpt>
      <trkpt lat="47.84252" lon="6.91388">
        <ele>1121.1</ele>
        <time>2026-08-27T05:59:42.890Z</time>
      </trkpt>
      <trkpt lat="47.84252" lon="6.9139">
        <ele>1120.5</ele>
        <time>2026-08-27T05:59:44.003Z</time>
      </trkpt>
      <trkpt lat="47.84252" lon="6.91393">
        <ele>1120</ele>
        <time>2026-08-27T05:59:46.019Z</time>
      </trkpt>
      <trkpt lat="47.84252" lon="6.91394">
        <ele>1120.5</ele>
        <time>2026-08-27T05:59:47.027Z</time>
      </trkpt>
      <trkpt lat="47.84252" lon="6.91396">
        <ele>1120.6</ele>
        <time>2026-08-27T05:59:48.035Z</time>
      </trkpt>
      <trkpt lat="47.84253" lon="6.91397">
        <ele>1120.4</ele>
        <time>2026-08-27T05:59:49.044Z</time>
      </trkpt>
      <trkpt lat="47.84252" lon="6.91399">
        <ele>1120.9</ele>
        <time>2026-08-27T05:59:50.959Z</time>
      </trkpt>
      <trkpt lat="47.84252" lon="6.914">
        <ele>1121.1</ele>
        <time>2026-08-27T05:59:51.966Z</time>
      </trkpt>
      <trkpt lat="47.84252" lon="6.91401">
        <ele>1121.2</ele>
        <time>2026-08-27T05:59:52.975Z</time>
      </trkpt>
      <trkpt lat="47.84252" lon="6.914">
        <ele>1121.2</ele>
        <time>2026-08-27T05:59:53.982Z</time>
      </trkpt>
      <trkpt lat="47.84252" lon="6.914">
        <ele>1121.5</ele>
        <time>2026-08-27T05:59:54.990Z</time>
      </trkpt>
      <trkpt lat="47.84252" lon="6.91399">
        <ele>1121.5</ele>
        <time>2026-08-27T05:59:55.998Z</time>
      </trkpt>
      <trkpt lat="47.84252" lon="6.91399">
        <ele>1121.4</ele>
        <time>2026-08-27T05:59:57.005Z</time>
      </trkpt>
      <trkpt lat="47.84252" lon="6.91399">
        <ele>1121.3</ele>
        <time>2026-08-27T05:59:58.013Z</time>
      </trkpt>
      <trkpt lat="47.84252" lon="6.91399">
        <ele>1121.3</ele>
        <time>2026-08-27T05:59:59.026Z</time>
      </trkpt>
      <trkpt lat="47.84253" lon="6.91399">
        <ele>1121.7</ele>
        <time>2026-08-27T06:00:00.030Z</time>
      </trkpt>
      <trkpt lat="47.84253" lon="6.914">
        <ele>1121.8</ele>
        <time>2026-08-27T06:00:01.037Z</time>
      </trkpt>
      <trkpt lat="47.84253" lon="6.91402">
        <ele>1121.5</ele>
        <time>2026-08-27T06:00:02.952Z</time>
      </trkpt>
      <trkpt lat="47.84253" lon="6.91403">
        <ele>1121.5</ele>
        <time>2026-08-27T06:00:03.965Z</time>
      </trkpt>
      <trkpt lat="47.84254" lon="6.91404">
        <ele>1121.2</ele>
        <time>2026-08-27T06:00:05.124Z</time>
      </trkpt>
      <trkpt lat="47.84254" lon="6.91406">
        <ele>1121.2</ele>
        <time>2026-08-27T06:00:07.057Z</time>
      </trkpt>
      <trkpt lat="47.84254" lon="6.9141">
        <ele>1121.7</ele>
        <time>2026-08-27T06:00:09.001Z</time>
      </trkpt>
      <trkpt lat="47.84254" lon="6.91413">
        <ele>1121.7</ele>
        <time>2026-08-27T06:00:10.056Z</time>
      </trkpt>
      <trkpt lat="47.84255" lon="6.91417">
        <ele>1121.5</ele>
        <time>2026-08-27T06:00:12.024Z</time>
      </trkpt>
      <trkpt lat="47.84255" lon="6.91419">
        <ele>1121.3</ele>
        <time>2026-08-27T06:00:13.032Z</time>
      </trkpt>
      <trkpt lat="47.84257" lon="6.91421">
        <ele>1121</ele>
        <time>2026-08-27T06:00:14.040Z</time>
      </trkpt>
      <trkpt lat="47.84258" lon="6.91425">
        <ele>1121.2</ele>
        <time>2026-08-27T06:00:15.956Z</time>
      </trkpt>
      <trkpt lat="47.84259" lon="6.91426">
        <ele>1121.2</ele>
        <time>2026-08-27T06:00:16.964Z</time>
      </trkpt>
      <trkpt lat="47.8426" lon="6.91429">
        <ele>1121.2</ele>
        <time>2026-08-27T06:00:18.980Z</time>
      </trkpt>
      <trkpt lat="47.84261" lon="6.91431">
        <ele>1121.2</ele>
        <time>2026-08-27T06:00:19.988Z</time>
      </trkpt>
      <trkpt lat="47.84262" lon="6.91432">
        <ele>1121.4</ele>
        <time>2026-08-27T06:00:20.996Z</time>
      </trkpt>
      <trkpt lat="47.84262" lon="6.91433">
        <ele>1121.1</ele>
        <time>2026-08-27T06:00:22.106Z</time>
      </trkpt>
      <trkpt lat="47.84262" lon="6.91437">
        <ele>1121.2</ele>
        <time>2026-08-27T06:00:24.020Z</time>
      </trkpt>
      <trkpt lat="47.84262" lon="6.91439">
        <ele>1121</ele>
        <time>2026-08-27T06:00:25.028Z</time>
      </trkpt>
      <trkpt lat="47.84262" lon="6.91441">
        <ele>1120.6</ele>
        <time>2026-08-27T06:00:26.037Z</time>
      </trkpt>
      <trkpt lat="47.84263" lon="6.91443">
        <ele>1120.5</ele>
        <time>2026-08-27T06:00:27.045Z</time>
      </trkpt>
      <trkpt lat="47.84263" lon="6.91445">
        <ele>1120.8</ele>
        <time>2026-08-27T06:00:28.052Z</time>
      </trkpt>
      <trkpt lat="47.84263" lon="6.91447">
        <ele>1120.5</ele>
        <time>2026-08-27T06:00:29.061Z</time>
      </trkpt>
      <trkpt lat="47.84263" lon="6.91448">
        <ele>1120.7</ele>
        <time>2026-08-27T06:00:30.069Z</time>
      </trkpt>
      <trkpt lat="47.84262" lon="6.9145">
        <ele>1120.8</ele>
        <time>2026-08-27T06:00:31.076Z</time>
      </trkpt>
      <trkpt lat="47.84263" lon="6.91454">
        <ele>1121.2</ele>
        <time>2026-08-27T06:00:32.993Z</time>
      </trkpt>
      <trkpt lat="47.84264" lon="6.91456">
        <ele>1120.8</ele>
        <time>2026-08-27T06:00:34.000Z</time>
      </trkpt>
      <trkpt lat="47.84264" lon="6.9146">
        <ele>1121</ele>
        <time>2026-08-27T06:00:36.016Z</time>
      </trkpt>
      <trkpt lat="47.84265" lon="6.91461">
        <ele>1121</ele>
        <time>2026-08-27T06:00:37.024Z</time>
      </trkpt>
      <trkpt lat="47.84265" lon="6.91463">
        <ele>1121</ele>
        <time>2026-08-27T06:00:38.033Z</time>
      </trkpt>
      <trkpt lat="47.84265" lon="6.91465">
        <ele>1120.9</ele>
        <time>2026-08-27T06:00:39.041Z</time>
      </trkpt>
      <trkpt lat="47.84265" lon="6.91467">
        <ele>1120.9</ele>
        <time>2026-08-27T06:00:40.048Z</time>
      </trkpt>
      <trkpt lat="47.84265" lon="6.91471">
        <ele>1120.5</ele>
        <time>2026-08-27T06:00:42.064Z</time>
      </trkpt>
      <trkpt lat="47.84265" lon="6.91474">
        <ele>1120.6</ele>
        <time>2026-08-27T06:00:44.084Z</time>
      </trkpt>
      <trkpt lat="47.84265" lon="6.91476">
        <ele>1120.5</ele>
        <time>2026-08-27T06:00:45.995Z</time>
      </trkpt>
      <trkpt lat="47.84266" lon="6.91478">
        <ele>1120.5</ele>
        <time>2026-08-27T06:00:48.011Z</time>
      </trkpt>
      <trkpt lat="47.84266" lon="6.91478">
        <ele>1120.6</ele>
        <time>2026-08-27T06:00:49.019Z</time>
      </trkpt>
      <trkpt lat="47.84266" lon="6.91479">
        <ele>1120.9</ele>
        <time>2026-08-27T06:00:50.027Z</time>
      </trkpt>
      <trkpt lat="47.84266" lon="6.9148">
        <ele>1121.1</ele>
        <time>2026-08-27T06:00:51.036Z</time>
      </trkpt>
      <trkpt lat="47.84266" lon="6.91481">
        <ele>1121.1</ele>
        <time>2026-08-27T06:00:52.043Z</time>
      </trkpt>
      <trkpt lat="47.84267" lon="6.91482">
        <ele>1121.2</ele>
        <time>2026-08-27T06:00:53.051Z</time>
      </trkpt>
      <trkpt lat="47.84267" lon="6.91483">
        <ele>1121.4</ele>
        <time>2026-08-27T06:00:54.059Z</time>
      </trkpt>
      <trkpt lat="47.84267" lon="6.91484">
        <ele>1121.2</ele>
        <time>2026-08-27T06:00:55.068Z</time>
      </trkpt>
      <trkpt lat="47.84268" lon="6.91486">
        <ele>1121.4</ele>
        <time>2026-08-27T06:00:57.004Z</time>
      </trkpt>
      <trkpt lat="47.84268" lon="6.91488">
        <ele>1121.4</ele>
        <time>2026-08-27T06:00:58.037Z</time>
      </trkpt>
      <trkpt lat="47.84268" lon="6.9149">
        <ele>1121.8</ele>
        <time>2026-08-27T06:01:00.117Z</time>
      </trkpt>
      <trkpt lat="47.84269" lon="6.91493">
        <ele>1121.8</ele>
        <time>2026-08-27T06:01:02.043Z</time>
      </trkpt>
      <trkpt lat="47.84269" lon="6.91494">
        <ele>1121.9</ele>
        <time>2026-08-27T06:01:03.051Z</time>
      </trkpt>
      <trkpt lat="47.84269" lon="6.91498">
        <ele>1122.1</ele>
        <time>2026-08-27T06:01:05.068Z</time>
      </trkpt>
      <trkpt lat="47.84269" lon="6.91502">
        <ele>1121.7</ele>
        <time>2026-08-27T06:01:06.984Z</time>
      </trkpt>
      <trkpt lat="47.84269" lon="6.91503">
        <ele>1121.4</ele>
        <time>2026-08-27T06:01:07.991Z</time>
      </trkpt>
      <trkpt lat="47.84268" lon="6.91504">
        <ele>1121.2</ele>
        <time>2026-08-27T06:01:09.000Z</time>
      </trkpt>
      <trkpt lat="47.84268" lon="6.91505">
        <ele>1120.9</ele>
        <time>2026-08-27T06:01:10.008Z</time>
      </trkpt>
      <trkpt lat="47.84268" lon="6.91505">
        <ele>1120.6</ele>
        <time>2026-08-27T06:01:11.014Z</time>
      </trkpt>
      <trkpt lat="47.84268" lon="6.91503">
        <ele>1120.3</ele>
        <time>2026-08-27T06:01:12.022Z</time>
      </trkpt>
      <trkpt lat="47.84269" lon="6.91502">
        <ele>1120.1</ele>
        <time>2026-08-27T06:01:13.031Z</time>
      </trkpt>
      <trkpt lat="47.84269" lon="6.91502">
        <ele>1119.9</ele>
        <time>2026-08-27T06:01:14.038Z</time>
      </trkpt>
      <trkpt lat="47.84269" lon="6.91502">
        <ele>1119.9</ele>
        <time>2026-08-27T06:01:15.047Z</time>
      </trkpt>
      <trkpt lat="47.84269" lon="6.91502">
        <ele>1119.9</ele>
        <time>2026-08-27T06:01:16.113Z</time>
      </trkpt>
      <trkpt lat="47.84269" lon="6.91502">
        <ele>1120.1</ele>
        <time>2026-08-27T06:01:17.970Z</time>
      </trkpt>
      <trkpt lat="47.84268" lon="6.91502">
        <ele>1120</ele>
        <time>2026-08-27T06:01:19.079Z</time>
      </trkpt>
      <trkpt lat="47.84268" lon="6.91502">
        <ele>1120.1</ele>
        <time>2026-08-27T06:01:20.993Z</time>
      </trkpt>
      <trkpt lat="47.84268" lon="6.91503">
        <ele>1119.9</ele>
        <time>2026-08-27T06:01:22.001Z</time>
      </trkpt>
      <trkpt lat="47.84268" lon="6.91503">
        <ele>1120.1</ele>
        <time>2026-08-27T06:01:23.009Z</time>
      </trkpt>
      <trkpt lat="47.84268" lon="6.91502">
        <ele>1119.8</ele>
        <time>2026-08-27T06:01:24.018Z</time>
      </trkpt>
      <trkpt lat="47.84268" lon="6.91502">
        <ele>1119.8</ele>
        <time>2026-08-27T06:01:25.026Z</time>
      </trkpt>
      <trkpt lat="47.84268" lon="6.91502">
        <ele>1119.8</ele>
        <time>2026-08-27T06:01:26.033Z</time>
      </trkpt>
      <trkpt lat="47.84268" lon="6.91502">
        <ele>1119.6</ele>
        <time>2026-08-27T06:01:27.041Z</time>
      </trkpt>
      <trkpt lat="47.84267" lon="6.91502">
        <ele>1120</ele>
        <time>2026-08-27T06:01:28.999Z</time>
      </trkpt>
      <trkpt lat="47.84266" lon="6.91502">
        <ele>1119.4</ele>
        <time>2026-08-27T06:01:30.058Z</time>
      </trkpt>
      <trkpt lat="47.84266" lon="6.91503">
        <ele>1119.5</ele>
        <time>2026-08-27T06:01:31.073Z</time>
      </trkpt>
      <trkpt lat="47.84264" lon="6.91504">
        <ele>1118.9</ele>
        <time>2026-08-27T06:01:33.006Z</time>
      </trkpt>
      <trkpt lat="47.84263" lon="6.91504">
        <ele>1118.9</ele>
        <time>2026-08-27T06:01:34.081Z</time>
      </trkpt>
      <trkpt lat="47.84263" lon="6.91505">
        <ele>1118.3</ele>
        <time>2026-08-27T06:01:35.962Z</time>
      </trkpt>
      <trkpt lat="47.84262" lon="6.91506">
        <ele>1117.7</ele>
        <time>2026-08-27T06:01:37.037Z</time>
      </trkpt>
      <trkpt lat="47.84262" lon="6.91506">
        <ele>1117.5</ele>
        <time>2026-08-27T06:01:38.045Z</time>
      </trkpt>
      <trkpt lat="47.84261" lon="6.91507">
        <ele>1117.1</ele>
        <time>2026-08-27T06:01:39.053Z</time>
      </trkpt>
      <trkpt lat="47.84261" lon="6.91507">
        <ele>1117.1</ele>
        <time>2026-08-27T06:01:40.061Z</time>
      </trkpt>
      <trkpt lat="47.84261" lon="6.91507">
        <ele>1117</ele>
        <time>2026-08-27T06:01:41.070Z</time>
      </trkpt>
      <trkpt lat="47.8426" lon="6.91508">
        <ele>1116.7</ele>
        <time>2026-08-27T06:01:42.077Z</time>
      </trkpt>
      <trkpt lat="47.84259" lon="6.91509">
        <ele>1116.8</ele>
        <time>2026-08-27T06:01:44.094Z</time>
      </trkpt>
      <trkpt lat="47.84259" lon="6.9151">
        <ele>1116.6</ele>
        <time>2026-08-27T06:01:46.008Z</time>
      </trkpt>
      <trkpt lat="47.84258" lon="6.9151">
        <ele>1116.8</ele>
        <time>2026-08-27T06:01:47.017Z</time>
      </trkpt>
      <trkpt lat="47.84258" lon="6.91511">
        <ele>1116.8</ele>
        <time>2026-08-27T06:01:48.083Z</time>
      </trkpt>
      <trkpt lat="47.84257" lon="6.91511">
        <ele>1116.5</ele>
        <time>2026-08-27T06:01:50.040Z</time>
      </trkpt>
      <trkpt lat="47.84256" lon="6.91511">
        <ele>1116.5</ele>
        <time>2026-08-27T06:01:51.081Z</time>
      </trkpt>
      <trkpt lat="47.84254" lon="6.91513">
        <ele>1116.3</ele>
        <time>2026-08-27T06:01:53.065Z</time>
      </trkpt>
      <trkpt lat="47.84253" lon="6.91514">
        <ele>1116.3</ele>
        <time>2026-08-27T06:01:54.073Z</time>
      </trkpt>
      <trkpt lat="47.84252" lon="6.91516">
        <ele>1116.1</ele>
        <time>2026-08-27T06:01:56.021Z</time>
      </trkpt>
      <trkpt lat="47.84251" lon="6.91519">
        <ele>1115.9</ele>
        <time>2026-08-27T06:01:58.105Z</time>
      </trkpt>
      <trkpt lat="47.8425" lon="6.91522">
        <ele>1116.5</ele>
        <time>2026-08-27T06:02:00.019Z</time>
      </trkpt>
      <trkpt lat="47.84249" lon="6.91523">
        <ele>1116.5</ele>
        <time>2026-08-27T06:02:01.077Z</time>
      </trkpt>
      <trkpt lat="47.84249" lon="6.91525">
        <ele>1116.6</ele>
        <time>2026-08-27T06:02:02.959Z</time>
      </trkpt>
      <trkpt lat="47.84248" lon="6.91526">
        <ele>1116.5</ele>
        <time>2026-08-27T06:02:04.051Z</time>
      </trkpt>
      <trkpt lat="47.84248" lon="6.91528">
        <ele>1116.2</ele>
        <time>2026-08-27T06:02:05.059Z</time>
      </trkpt>
      <trkpt lat="47.84248" lon="6.91529">
        <ele>1116.2</ele>
        <time>2026-08-27T06:02:06.067Z</time>
      </trkpt>
      <trkpt lat="47.84248" lon="6.91531">
        <ele>1116.2</ele>
        <time>2026-08-27T06:02:07.083Z</time>
      </trkpt>
      <trkpt lat="47.84249" lon="6.91534">
        <ele>1115.7</ele>
        <time>2026-08-27T06:02:08.721Z</time>
      </trkpt>
      <trkpt lat="47.8425" lon="6.91536">
        <ele>1115.8</ele>
        <time>2026-08-27T06:02:09.838Z</time>
      </trkpt>
      <trkpt lat="47.8425" lon="6.91538">
        <ele>1115.5</ele>
        <time>2026-08-27T06:02:11.006Z</time>
      </trkpt>
      <trkpt lat="47.84251" lon="6.91539">
        <ele>1115.4</ele>
        <time>2026-08-27T06:02:12.014Z</time>
      </trkpt>
      <trkpt lat="47.84252" lon="6.91541">
        <ele>1115.6</ele>
        <time>2026-08-27T06:02:13.022Z</time>
      </trkpt>
      <trkpt lat="47.84253" lon="6.91542">
        <ele>1115.5</ele>
        <time>2026-08-27T06:02:14.029Z</time>
      </trkpt>
      <trkpt lat="47.84253" lon="6.91543">
        <ele>1115.5</ele>
        <time>2026-08-27T06:02:15.079Z</time>
      </trkpt>
      <trkpt lat="47.84254" lon="6.91544">
        <ele>1115.4</ele>
        <time>2026-08-27T06:02:17.054Z</time>
      </trkpt>
      <trkpt lat="47.84255" lon="6.91545">
        <ele>1115.4</ele>
        <time>2026-08-27T06:02:18.061Z</time>
      </trkpt>
      <trkpt lat="47.84255" lon="6.91546">
        <ele>1115.4</ele>
        <time>2026-08-27T06:02:19.069Z</time>
      </trkpt>
      <trkpt lat="47.84256" lon="6.91548">
        <ele>1115.1</ele>
        <time>2026-08-27T06:02:20.984Z</time>
      </trkpt>
      <trkpt lat="47.84255" lon="6.9155">
        <ele>1115.1</ele>
        <time>2026-08-27T06:02:22.018Z</time>
      </trkpt>
      <trkpt lat="47.84255" lon="6.91552">
        <ele>1114.9</ele>
        <time>2026-08-27T06:02:24.008Z</time>
      </trkpt>
      <trkpt lat="47.84255" lon="6.91554">
        <ele>1114.8</ele>
        <time>2026-08-27T06:02:25.016Z</time>
      </trkpt>
      <trkpt lat="47.84255" lon="6.91555">
        <ele>1115.1</ele>
        <time>2026-08-27T06:02:26.025Z</time>
      </trkpt>
      <trkpt lat="47.84256" lon="6.91557">
        <ele>1114.9</ele>
        <time>2026-08-27T06:02:28.040Z</time>
      </trkpt>
      <trkpt lat="47.84255" lon="6.91557">
        <ele>1115</ele>
        <time>2026-08-27T06:02:29.048Z</time>
      </trkpt>
      <trkpt lat="47.84254" lon="6.91557">
        <ele>1115</ele>
        <time>2026-08-27T06:02:30.056Z</time>
      </trkpt>
      <trkpt lat="47.84254" lon="6.91556">
        <ele>1115.3</ele>
        <time>2026-08-27T06:02:31.064Z</time>
      </trkpt>
      <trkpt lat="47.84254" lon="6.91555">
        <ele>1115.3</ele>
        <time>2026-08-27T06:02:32.072Z</time>
      </trkpt>
      <trkpt lat="47.84254" lon="6.91555">
        <ele>1115.3</ele>
        <time>2026-08-27T06:02:33.081Z</time>
      </trkpt>
      <trkpt lat="47.84255" lon="6.91555">
        <ele>1115.1</ele>
        <time>2026-08-27T06:02:34.996Z</time>
      </trkpt>
      <trkpt lat="47.84255" lon="6.91555">
        <ele>1115.1</ele>
        <time>2026-08-27T06:02:36.003Z</time>
      </trkpt>
      <trkpt lat="47.84255" lon="6.91554">
        <ele>1114.8</ele>
        <time>2026-08-27T06:02:37.011Z</time>
      </trkpt>
      <trkpt lat="47.84255" lon="6.91554">
        <ele>1115.1</ele>
        <time>2026-08-27T06:02:38.019Z</time>
      </trkpt>
      <trkpt lat="47.84255" lon="6.91554">
        <ele>1114.8</ele>
        <time>2026-08-27T06:02:39.027Z</time>
      </trkpt>
      <trkpt lat="47.84255" lon="6.91554">
        <ele>1114.5</ele>
        <time>2026-08-27T06:02:40.036Z</time>
      </trkpt>
      <trkpt lat="47.84255" lon="6.91554">
        <ele>1114.8</ele>
        <time>2026-08-27T06:02:42.051Z</time>
      </trkpt>
      <trkpt lat="47.84255" lon="6.91554">
        <ele>1114.9</ele>
        <time>2026-08-27T06:02:43.059Z</time>
      </trkpt>
      <trkpt lat="47.84256" lon="6.91554">
        <ele>1115</ele>
        <time>2026-08-27T06:02:44.974Z</time>
      </trkpt>
      <trkpt lat="47.84256" lon="6.91553">
        <ele>1115.2</ele>
        <time>2026-08-27T06:02:45.983Z</time>
      </trkpt>
      <trkpt lat="47.84256" lon="6.91553">
        <ele>1115.7</ele>
        <time>2026-08-27T06:02:46.990Z</time>
      </trkpt>
      <trkpt lat="47.84256" lon="6.91552">
        <ele>1115.9</ele>
        <time>2026-08-27T06:02:47.999Z</time>
      </trkpt>
      <trkpt lat="47.84256" lon="6.91552">
        <ele>1115.9</ele>
        <time>2026-08-27T06:02:49.006Z</time>
      </trkpt>
      <trkpt lat="47.84256" lon="6.91552">
        <ele>1115.8</ele>
        <time>2026-08-27T06:02:50.014Z</time>
      </trkpt>
      <trkpt lat="47.84256" lon="6.91552">
        <ele>1116.2</ele>
        <time>2026-08-27T06:02:51.021Z</time>
      </trkpt>
      <trkpt lat="47.84256" lon="6.91552">
        <ele>1116.1</ele>
        <time>2026-08-27T06:02:52.030Z</time>
      </trkpt>
      <trkpt lat="47.84256" lon="6.91552">
        <ele>1115.9</ele>
        <time>2026-08-27T06:02:53.037Z</time>
      </trkpt>
      <trkpt lat="47.84256" lon="6.91552">
        <ele>1116.3</ele>
        <time>2026-08-27T06:02:54.953Z</time>
      </trkpt>
      <trkpt lat="47.84255" lon="6.91552">
        <ele>1116.3</ele>
        <time>2026-08-27T06:02:55.962Z</time>
      </trkpt>
      <trkpt lat="47.84255" lon="6.91552">
        <ele>1116</ele>
        <time>2026-08-27T06:02:57.070Z</time>
      </trkpt>
      <trkpt lat="47.84255" lon="6.91552">
        <ele>1115.9</ele>
        <time>2026-08-27T06:02:58.986Z</time>
      </trkpt>
      <trkpt lat="47.84255" lon="6.91552">
        <ele>1116.1</ele>
        <time>2026-08-27T06:02:59.993Z</time>
      </trkpt>
      <trkpt lat="47.84255" lon="6.91552">
        <ele>1116.1</ele>
        <time>2026-08-27T06:03:01.001Z</time>
      </trkpt>
      <trkpt lat="47.84255" lon="6.91552">
        <ele>1115.9</ele>
        <time>2026-08-27T06:03:02.010Z</time>
      </trkpt>
      <trkpt lat="47.84255" lon="6.91553">
        <ele>1115.8</ele>
        <time>2026-08-27T06:03:03.018Z</time>
      </trkpt>
      <trkpt lat="47.84255" lon="6.91553">
        <ele>1115.5</ele>
        <time>2026-08-27T06:03:04.025Z</time>
      </trkpt>
      <trkpt lat="47.84255" lon="6.91553">
        <ele>1115.5</ele>
        <time>2026-08-27T06:03:05.033Z</time>
      </trkpt>
      <trkpt lat="47.84255" lon="6.91553">
        <ele>1115.4</ele>
        <time>2026-08-27T06:03:06.041Z</time>
      </trkpt>
      <trkpt lat="47.84255" lon="6.91553">
        <ele>1115.3</ele>
        <time>2026-08-27T06:03:07.049Z</time>
      </trkpt>
      <trkpt lat="47.84255" lon="6.91553">
        <ele>1115.2</ele>
        <time>2026-08-27T06:03:08.057Z</time>
      </trkpt>
      <trkpt lat="47.84255" lon="6.91553">
        <ele>1115.2</ele>
        <time>2026-08-27T06:03:09.066Z</time>
      </trkpt>
      <trkpt lat="47.84255" lon="6.91553">
        <ele>1115</ele>
        <time>2026-08-27T06:03:10.073Z</time>
      </trkpt>
      <trkpt lat="47.84255" lon="6.91553">
        <ele>1115.1</ele>
        <time>2026-08-27T06:03:11.988Z</time>
      </trkpt>
      <trkpt lat="47.84255" lon="6.91553">
        <ele>1115.3</ele>
        <time>2026-08-27T06:03:12.996Z</time>
      </trkpt>
      <trkpt lat="47.84255" lon="6.91553">
        <ele>1115.3</ele>
        <time>2026-08-27T06:03:14.004Z</time>
      </trkpt>
      <trkpt lat="47.84255" lon="6.91553">
        <ele>1115.4</ele>
        <time>2026-08-27T06:03:15.012Z</time>
      </trkpt>
      <trkpt lat="47.84255" lon="6.91553">
        <ele>1115.6</ele>
        <time>2026-08-27T06:03:16.020Z</time>
      </trkpt>
      <trkpt lat="47.84254" lon="6.91553">
        <ele>1115.3</ele>
        <time>2026-08-27T06:03:17.029Z</time>
      </trkpt>
      <trkpt lat="47.84254" lon="6.91553">
        <ele>1115.1</ele>
        <time>2026-08-27T06:03:18.037Z</time>
      </trkpt>
      <trkpt lat="47.84254" lon="6.91553">
        <ele>1114.9</ele>
        <time>2026-08-27T06:03:19.045Z</time>
      </trkpt>
      <trkpt lat="47.84254" lon="6.91553">
        <ele>1114.9</ele>
        <time>2026-08-27T06:03:20.052Z</time>
      </trkpt>
      <trkpt lat="47.84254" lon="6.91553">
        <ele>1114.9</ele>
        <time>2026-08-27T06:03:21.061Z</time>
      </trkpt>
      <trkpt lat="47.84254" lon="6.91554">
        <ele>1114.8</ele>
        <time>2026-08-27T06:03:22.068Z</time>
      </trkpt>
      <trkpt lat="47.84254" lon="6.91554">
        <ele>1115</ele>
        <time>2026-08-27T06:03:23.076Z</time>
      </trkpt>
      <trkpt lat="47.84254" lon="6.91554">
        <ele>1115</ele>
        <time>2026-08-27T06:03:24.085Z</time>
      </trkpt>
      <trkpt lat="47.84254" lon="6.91554">
        <ele>1115.1</ele>
        <time>2026-08-27T06:03:25.999Z</time>
      </trkpt>
      <trkpt lat="47.84254" lon="6.91554">
        <ele>1115.1</ele>
        <time>2026-08-27T06:03:27.008Z</time>
      </trkpt>
      <trkpt lat="47.84254" lon="6.91554">
        <ele>1115.5</ele>
        <time>2026-08-27T06:03:28.015Z</time>
      </trkpt>
      <trkpt lat="47.84254" lon="6.91554">
        <ele>1115.5</ele>
        <time>2026-08-27T06:03:29.023Z</time>
      </trkpt>
      <trkpt lat="47.84255" lon="6.91554">
        <ele>1115.8</ele>
        <time>2026-08-27T06:03:30.031Z</time>
      </trkpt>
      <trkpt lat="47.84255" lon="6.91554">
        <ele>1115.7</ele>
        <time>2026-08-27T06:03:31.039Z</time>
      </trkpt>
      <trkpt lat="47.84254" lon="6.91554">
        <ele>1115.5</ele>
        <time>2026-08-27T06:03:32.048Z</time>
      </trkpt>
      <trkpt lat="47.84254" lon="6.91554">
        <ele>1115.6</ele>
        <time>2026-08-27T06:03:33.056Z</time>
      </trkpt>
      <trkpt lat="47.84254" lon="6.91555">
        <ele>1115.8</ele>
        <time>2026-08-27T06:03:34.063Z</time>
      </trkpt>
      <trkpt lat="47.84255" lon="6.91556">
        <ele>1115.8</ele>
        <time>2026-08-27T06:03:36.079Z</time>
      </trkpt>
      <trkpt lat="47.84255" lon="6.91556">
        <ele>1115.9</ele>
        <time>2026-08-27T06:03:37.995Z</time>
      </trkpt>
      <trkpt lat="47.84255" lon="6.91557">
        <ele>1115.9</ele>
        <time>2026-08-27T06:03:39.002Z</time>
      </trkpt>
      <trkpt lat="47.84255" lon="6.91557">
        <ele>1115.9</ele>
        <time>2026-08-27T06:03:40.011Z</time>
      </trkpt>
      <trkpt lat="47.84255" lon="6.91557">
        <ele>1115.7</ele>
        <time>2026-08-27T06:03:41.018Z</time>
      </trkpt>
      <trkpt lat="47.84255" lon="6.91557">
        <ele>1115.6</ele>
        <time>2026-08-27T06:03:42.026Z</time>
      </trkpt>
      <trkpt lat="47.84255" lon="6.91556">
        <ele>1115.7</ele>
        <time>2026-08-27T06:03:44.042Z</time>
      </trkpt>
      <trkpt lat="47.84255" lon="6.91556">
        <ele>1115.4</ele>
        <time>2026-08-27T06:03:45.051Z</time>
      </trkpt>
      <trkpt lat="47.84255" lon="6.91555">
        <ele>1115.4</ele>
        <time>2026-08-27T06:03:46.059Z</time>
      </trkpt>
      <trkpt lat="47.84255" lon="6.91555">
        <ele>1115.3</ele>
        <time>2026-08-27T06:03:47.066Z</time>
      </trkpt>
      <trkpt lat="47.84255" lon="6.91555">
        <ele>1115.3</ele>
        <time>2026-08-27T06:03:48.075Z</time>
      </trkpt>
      <trkpt lat="47.84254" lon="6.91553">
        <ele>1115.3</ele>
        <time>2026-08-27T06:03:49.989Z</time>
      </trkpt>
      <trkpt lat="47.84254" lon="6.9155">
        <ele>1115.3</ele>
        <time>2026-08-27T06:03:50.998Z</time>
      </trkpt>
      <trkpt lat="47.84254" lon="6.91547">
        <ele>1115.4</ele>
        <time>2026-08-27T06:03:52.005Z</time>
      </trkpt>
      <trkpt lat="47.84254" lon="6.91544">
        <ele>1115.5</ele>
        <time>2026-08-27T06:03:53.115Z</time>
      </trkpt>
      <trkpt lat="47.84254" lon="6.91543">
        <ele>1115.5</ele>
        <time>2026-08-27T06:03:54.127Z</time>
      </trkpt>
      <trkpt lat="47.84254" lon="6.91541">
        <ele>1115.5</ele>
        <time>2026-08-27T06:03:56.028Z</time>
      </trkpt>
      <trkpt lat="47.84254" lon="6.9154">
        <ele>1115.8</ele>
        <time>2026-08-27T06:03:57.053Z</time>
      </trkpt>
      <trkpt lat="47.84254" lon="6.9154">
        <ele>1115.9</ele>
        <time>2026-08-27T06:03:58.062Z</time>
      </trkpt>
      <trkpt lat="47.84254" lon="6.9154">
        <ele>1116</ele>
        <time>2026-08-27T06:03:59.070Z</time>
      </trkpt>
      <trkpt lat="47.84254" lon="6.91541">
        <ele>1116.2</ele>
        <time>2026-08-27T06:04:00.077Z</time>
      </trkpt>
      <trkpt lat="47.84254" lon="6.91541">
        <ele>1115.9</ele>
        <time>2026-08-27T06:04:01.086Z</time>
      </trkpt>
      <trkpt lat="47.84254" lon="6.91541">
        <ele>1116.1</ele>
        <time>2026-08-27T06:04:02.093Z</time>
      </trkpt>
      <trkpt lat="47.84254" lon="6.91541">
        <ele>1116</ele>
        <time>2026-08-27T06:04:03.101Z</time>
      </trkpt>
      <trkpt lat="47.84255" lon="6.91541">
        <ele>1116</ele>
        <time>2026-08-27T06:04:05.067Z</time>
      </trkpt>
      <trkpt lat="47.84255" lon="6.91541">
        <ele>1116.3</ele>
        <time>2026-08-27T06:04:06.326Z</time>
      </trkpt>
      <trkpt lat="47.84256" lon="6.91541">
        <ele>1116.4</ele>
        <time>2026-08-27T06:04:07.503Z</time>
      </trkpt>
      <trkpt lat="47.84256" lon="6.91541">
        <ele>1116.3</ele>
        <time>2026-08-27T06:04:08.805Z</time>
      </trkpt>
      <trkpt lat="47.84256" lon="6.91541">
        <ele>1116.2</ele>
        <time>2026-08-27T06:04:10.057Z</time>
      </trkpt>
      <trkpt lat="47.84256" lon="6.91542">
        <ele>1116</ele>
        <time>2026-08-27T06:04:11.064Z</time>
      </trkpt>
      <trkpt lat="47.84257" lon="6.91542">
        <ele>1115.9</ele>
        <time>2026-08-27T06:04:12.073Z</time>
      </trkpt>
      <trkpt lat="47.84258" lon="6.91542">
        <ele>1116</ele>
        <time>2026-08-27T06:04:13.080Z</time>
      </trkpt>
      <trkpt lat="47.84258" lon="6.91542">
        <ele>1115.9</ele>
        <time>2026-08-27T06:04:14.995Z</time>
      </trkpt>
      <trkpt lat="47.84258" lon="6.91542">
        <ele>1116</ele>
        <time>2026-08-27T06:04:16.003Z</time>
      </trkpt>
      <trkpt lat="47.84258" lon="6.91542">
        <ele>1116</ele>
        <time>2026-08-27T06:04:17.011Z</time>
      </trkpt>
      <trkpt lat="47.84258" lon="6.91542">
        <ele>1116.1</ele>
        <time>2026-08-27T06:04:18.018Z</time>
      </trkpt>
      <trkpt lat="47.84258" lon="6.91542">
        <ele>1116.2</ele>
        <time>2026-08-27T06:04:19.027Z</time>
      </trkpt>
      <trkpt lat="47.84259" lon="6.91541">
        <ele>1116.3</ele>
        <time>2026-08-27T06:04:20.034Z</time>
      </trkpt>
      <trkpt lat="47.84259" lon="6.91541">
        <ele>1116.2</ele>
        <time>2026-08-27T06:04:21.043Z</time>
      </trkpt>
      <trkpt lat="47.84259" lon="6.91541">
        <ele>1116.4</ele>
        <time>2026-08-27T06:04:22.050Z</time>
      </trkpt>
      <trkpt lat="47.84259" lon="6.91541">
        <ele>1116.2</ele>
        <time>2026-08-27T06:04:23.059Z</time>
      </trkpt>
      <trkpt lat="47.84259" lon="6.91541">
        <ele>1116.5</ele>
        <time>2026-08-27T06:04:24.066Z</time>
      </trkpt>
      <trkpt lat="47.84259" lon="6.91541">
        <ele>1116.4</ele>
        <time>2026-08-27T06:04:25.075Z</time>
      </trkpt>
      <trkpt lat="47.84259" lon="6.91541">
        <ele>1116.7</ele>
        <time>2026-08-27T06:04:26.082Z</time>
      </trkpt>
      <trkpt lat="47.84259" lon="6.91541">
        <ele>1116.6</ele>
        <time>2026-08-27T06:04:27.091Z</time>
      </trkpt>
      <trkpt lat="47.84259" lon="6.91541">
        <ele>1116.7</ele>
        <time>2026-08-27T06:04:29.106Z</time>
      </trkpt>
      <trkpt lat="47.84259" lon="6.91542">
        <ele>1116.4</ele>
        <time>2026-08-27T06:04:30.114Z</time>
      </trkpt>
      <trkpt lat="47.84259" lon="6.91542">
        <ele>1116.4</ele>
        <time>2026-08-27T06:04:31.123Z</time>
      </trkpt>
      <trkpt lat="47.84259" lon="6.91542">
        <ele>1116.3</ele>
        <time>2026-08-27T06:04:33.037Z</time>
      </trkpt>
      <trkpt lat="47.84259" lon="6.91542">
        <ele>1116.4</ele>
        <time>2026-08-27T06:04:34.045Z</time>
      </trkpt>
      <trkpt lat="47.84259" lon="6.91542">
        <ele>1116.6</ele>
        <time>2026-08-27T06:04:35.053Z</time>
      </trkpt>
      <trkpt lat="47.84259" lon="6.91542">
        <ele>1116.9</ele>
        <time>2026-08-27T06:04:36.062Z</time>
      </trkpt>
      <trkpt lat="47.84259" lon="6.91542">
        <ele>1116.8</ele>
        <time>2026-08-27T06:04:37.069Z</time>
      </trkpt>
      <trkpt lat="47.84259" lon="6.91542">
        <ele>1116.9</ele>
        <time>2026-08-27T06:04:38.078Z</time>
      </trkpt>
      <trkpt lat="47.84259" lon="6.91542">
        <ele>1117</ele>
        <time>2026-08-27T06:04:39.084Z</time>
      </trkpt>
      <trkpt lat="47.84259" lon="6.91542">
        <ele>1117</ele>
        <time>2026-08-27T06:04:40.093Z</time>
      </trkpt>
      <trkpt lat="47.84259" lon="6.91542">
        <ele>1116.7</ele>
        <time>2026-08-27T06:04:41.100Z</time>
      </trkpt>
      <trkpt lat="47.84259" lon="6.91541">
        <ele>1116.8</ele>
        <time>2026-08-27T06:04:43.015Z</time>
      </trkpt>
      <trkpt lat="47.84259" lon="6.91541">
        <ele>1116.8</ele>
        <time>2026-08-27T06:04:44.023Z</time>
      </trkpt>
      <trkpt lat="47.84259" lon="6.91541">
        <ele>1116.8</ele>
        <time>2026-08-27T06:04:45.031Z</time>
      </trkpt>
      <trkpt lat="47.84259" lon="6.91541">
        <ele>1116.8</ele>
        <time>2026-08-27T06:04:46.039Z</time>
      </trkpt>
      <trkpt lat="47.84259" lon="6.91541">
        <ele>1116.8</ele>
        <time>2026-08-27T06:04:47.047Z</time>
      </trkpt>
      <trkpt lat="47.84259" lon="6.91541">
        <ele>1116.8</ele>
        <time>2026-08-27T06:04:48.056Z</time>
      </trkpt>
      <trkpt lat="47.84259" lon="6.91541">
        <ele>1116.8</ele>
        <time>2026-08-27T06:04:49.063Z</time>
      </trkpt>
      <trkpt lat="47.84259" lon="6.91541">
        <ele>1116.7</ele>
        <time>2026-08-27T06:04:50.071Z</time>
      </trkpt>
      <trkpt lat="47.84259" lon="6.91541">
        <ele>1116.4</ele>
        <time>2026-08-27T06:04:51.079Z</time>
      </trkpt>
      <trkpt lat="47.84259" lon="6.91541">
        <ele>1116.4</ele>
        <time>2026-08-27T06:04:52.994Z</time>
      </trkpt>
      <trkpt lat="47.84259" lon="6.91541">
        <ele>1116.4</ele>
        <time>2026-08-27T06:04:54.002Z</time>
      </trkpt>
      <trkpt lat="47.84259" lon="6.91541">
        <ele>1116.4</ele>
        <time>2026-08-27T06:04:55.011Z</time>
      </trkpt>
      <trkpt lat="47.84259" lon="6.91541">
        <ele>1116.4</ele>
        <time>2026-08-27T06:04:56.019Z</time>
      </trkpt>
      <trkpt lat="47.84259" lon="6.91541">
        <ele>1116.2</ele>
        <time>2026-08-27T06:04:57.026Z</time>
      </trkpt>
      <trkpt lat="47.84259" lon="6.91541">
        <ele>1116.3</ele>
        <time>2026-08-27T06:04:58.034Z</time>
      </trkpt>
      <trkpt lat="47.84259" lon="6.91541">
        <ele>1116.2</ele>
        <time>2026-08-27T06:04:59.042Z</time>
      </trkpt>
      <trkpt lat="47.84259" lon="6.91542">
        <ele>1115.9</ele>
        <time>2026-08-27T06:05:00.050Z</time>
      </trkpt>
      <trkpt lat="47.84259" lon="6.91542">
        <ele>1116.1</ele>
        <time>2026-08-27T06:05:01.058Z</time>
      </trkpt>
      <trkpt lat="47.84259" lon="6.91542">
        <ele>1116</ele>
        <time>2026-08-27T06:05:03.073Z</time>
      </trkpt>
      <trkpt lat="47.8426" lon="6.91542">
        <ele>1116.4</ele>
        <time>2026-08-27T06:05:04.081Z</time>
      </trkpt>
      <trkpt lat="47.8426" lon="6.91542">
        <ele>1116.1</ele>
        <time>2026-08-27T06:05:05.996Z</time>
      </trkpt>
      <trkpt lat="47.8426" lon="6.91542">
        <ele>1116.2</ele>
        <time>2026-08-27T06:05:07.105Z</time>
      </trkpt>
      <trkpt lat="47.8426" lon="6.91541">
        <ele>1116.2</ele>
        <time>2026-08-27T06:05:09.020Z</time>
      </trkpt>
      <trkpt lat="47.8426" lon="6.91541">
        <ele>1116.2</ele>
        <time>2026-08-27T06:05:10.028Z</time>
      </trkpt>
      <trkpt lat="47.8426" lon="6.91541">
        <ele>1116.2</ele>
        <time>2026-08-27T06:05:11.036Z</time>
      </trkpt>
      <trkpt lat="47.8426" lon="6.91541">
        <ele>1115.8</ele>
        <time>2026-08-27T06:05:12.045Z</time>
      </trkpt>
      <trkpt lat="47.8426" lon="6.91541">
        <ele>1115.8</ele>
        <time>2026-08-27T06:05:13.052Z</time>
      </trkpt>
      <trkpt lat="47.8426" lon="6.91541">
        <ele>1115.8</ele>
        <time>2026-08-27T06:05:15.069Z</time>
      </trkpt>
      <trkpt lat="47.8426" lon="6.91541">
        <ele>1115.9</ele>
        <time>2026-08-27T06:05:16.077Z</time>
      </trkpt>
      <trkpt lat="47.8426" lon="6.91541">
        <ele>1115.2</ele>
        <time>2026-08-27T06:05:18.092Z</time>
      </trkpt>
      <trkpt lat="47.8426" lon="6.91541">
        <ele>1114.7</ele>
        <time>2026-08-27T06:05:20.007Z</time>
      </trkpt>
      <trkpt lat="47.8426" lon="6.91541">
        <ele>1114.4</ele>
        <time>2026-08-27T06:05:21.015Z</time>
      </trkpt>
      <trkpt lat="47.8426" lon="6.91541">
        <ele>1114.3</ele>
        <time>2026-08-27T06:05:22.023Z</time>
      </trkpt>
      <trkpt lat="47.8426" lon="6.91541">
        <ele>1114.6</ele>
        <time>2026-08-27T06:05:23.032Z</time>
      </trkpt>
      <trkpt lat="47.8426" lon="6.91541">
        <ele>1114.5</ele>
        <time>2026-08-27T06:05:24.039Z</time>
      </trkpt>
      <trkpt lat="47.8426" lon="6.91541">
        <ele>1114.5</ele>
        <time>2026-08-27T06:05:25.047Z</time>
      </trkpt>
      <trkpt lat="47.84259" lon="6.91541">
        <ele>1114.5</ele>
        <time>2026-08-27T06:05:26.056Z</time>
      </trkpt>
      <trkpt lat="47.84259" lon="6.91541">
        <ele>1115.7</ele>
        <time>2026-08-27T06:05:27.064Z</time>
      </trkpt>
      <trkpt lat="47.84259" lon="6.91541">
        <ele>1115.7</ele>
        <time>2026-08-27T06:05:28.071Z</time>
      </trkpt>
      <trkpt lat="47.84259" lon="6.91541">
        <ele>1115.8</ele>
        <time>2026-08-27T06:05:29.079Z</time>
      </trkpt>
      <trkpt lat="47.84259" lon="6.91541">
        <ele>1115.9</ele>
        <time>2026-08-27T06:05:30.086Z</time>
      </trkpt>
      <trkpt lat="47.84259" lon="6.91541">
        <ele>1116.2</ele>
        <time>2026-08-27T06:05:32.002Z</time>
      </trkpt>
      <trkpt lat="47.84259" lon="6.91541">
        <ele>1116.2</ele>
        <time>2026-08-27T06:05:33.010Z</time>
      </trkpt>
      <trkpt lat="47.84259" lon="6.91541">
        <ele>1116.2</ele>
        <time>2026-08-27T06:05:34.018Z</time>
      </trkpt>
      <trkpt lat="47.84259" lon="6.91541">
        <ele>1115.9</ele>
        <time>2026-08-27T06:05:35.025Z</time>
      </trkpt>
      <trkpt lat="47.84259" lon="6.91541">
        <ele>1116</ele>
        <time>2026-08-27T06:05:36.033Z</time>
      </trkpt>
      <trkpt lat="47.84259" lon="6.91541">
        <ele>1115.9</ele>
        <time>2026-08-27T06:05:37.041Z</time>
      </trkpt>
      <trkpt lat="47.84259" lon="6.91541">
        <ele>1116</ele>
        <time>2026-08-27T06:05:38.050Z</time>
      </trkpt>
      <trkpt lat="47.84259" lon="6.91541">
        <ele>1116</ele>
        <time>2026-08-27T06:05:39.057Z</time>
      </trkpt>
      <trkpt lat="47.84259" lon="6.91541">
        <ele>1116</ele>
        <time>2026-08-27T06:05:40.065Z</time>
      </trkpt>
      <trkpt lat="47.84259" lon="6.9154">
        <ele>1116</ele>
        <time>2026-08-27T06:05:41.074Z</time>
      </trkpt>
      <trkpt lat="47.84259" lon="6.91541">
        <ele>1115.9</ele>
        <time>2026-08-27T06:05:42.989Z</time>
      </trkpt>
      <trkpt lat="47.84259" lon="6.91541">
        <ele>1116</ele>
        <time>2026-08-27T06:05:43.996Z</time>
      </trkpt>
      <trkpt lat="47.84259" lon="6.91541">
        <ele>1116.1</ele>
        <time>2026-08-27T06:05:45.004Z</time>
      </trkpt>
      <trkpt lat="47.84259" lon="6.91541">
        <ele>1116.1</ele>
        <time>2026-08-27T06:05:46.013Z</time>
      </trkpt>
      <trkpt lat="47.84259" lon="6.91541">
        <ele>1116</ele>
        <time>2026-08-27T06:05:47.020Z</time>
      </trkpt>
      <trkpt lat="47.84259" lon="6.91541">
        <ele>1115.9</ele>
        <time>2026-08-27T06:05:48.028Z</time>
      </trkpt>
      <trkpt lat="47.84259" lon="6.91541">
        <ele>1116</ele>
        <time>2026-08-27T06:05:49.036Z</time>
      </trkpt>
      <trkpt lat="47.84259" lon="6.91541">
        <ele>1116.2</ele>
        <time>2026-08-27T06:05:50.045Z</time>
      </trkpt>
      <trkpt lat="47.84258" lon="6.91541">
        <ele>1116.4</ele>
        <time>2026-08-27T06:05:51.052Z</time>
      </trkpt>
      <trkpt lat="47.84258" lon="6.91541">
        <ele>1116.4</ele>
        <time>2026-08-27T06:05:52.061Z</time>
      </trkpt>
      <trkpt lat="47.84258" lon="6.91541">
        <ele>1116.3</ele>
        <time>2026-08-27T06:05:53.069Z</time>
      </trkpt>
      <trkpt lat="47.84258" lon="6.91541">
        <ele>1116.2</ele>
        <time>2026-08-27T06:05:54.076Z</time>
      </trkpt>
      <trkpt lat="47.84258" lon="6.91541">
        <ele>1116.2</ele>
        <time>2026-08-27T06:05:56.092Z</time>
      </trkpt>
      <trkpt lat="47.84258" lon="6.91541">
        <ele>1116.4</ele>
        <time>2026-08-27T06:05:58.007Z</time>
      </trkpt>
      <trkpt lat="47.84258" lon="6.91541">
        <ele>1116.3</ele>
        <time>2026-08-27T06:05:59.015Z</time>
      </trkpt>
      <trkpt lat="47.84258" lon="6.91541">
        <ele>1116.5</ele>
        <time>2026-08-27T06:06:00.022Z</time>
      </trkpt>
      <trkpt lat="47.84258" lon="6.91541">
        <ele>1116.4</ele>
        <time>2026-08-27T06:06:01.031Z</time>
      </trkpt>
      <trkpt lat="47.84258" lon="6.91541">
        <ele>1116.4</ele>
        <time>2026-08-27T06:06:02.038Z</time>
      </trkpt>
      <trkpt lat="47.84258" lon="6.91541">
        <ele>1116.1</ele>
        <time>2026-08-27T06:06:03.046Z</time>
      </trkpt>
      <trkpt lat="47.84258" lon="6.91541">
        <ele>1116</ele>
        <time>2026-08-27T06:06:04.055Z</time>
      </trkpt>
      <trkpt lat="47.84258" lon="6.91541">
        <ele>1115.9</ele>
        <time>2026-08-27T06:06:05.062Z</time>
      </trkpt>
      <trkpt lat="47.84258" lon="6.91541">
        <ele>1115.9</ele>
        <time>2026-08-27T06:06:06.070Z</time>
      </trkpt>
      <trkpt lat="47.84258" lon="6.91541">
        <ele>1115.8</ele>
        <time>2026-08-27T06:06:07.079Z</time>
      </trkpt>
      <trkpt lat="47.84258" lon="6.91541">
        <ele>1115.8</ele>
        <time>2026-08-27T06:06:08.087Z</time>
      </trkpt>
      <trkpt lat="47.84258" lon="6.91541">
        <ele>1115.7</ele>
        <time>2026-08-27T06:06:10.002Z</time>
      </trkpt>
      <trkpt lat="47.84258" lon="6.9154">
        <ele>1115.8</ele>
        <time>2026-08-27T06:06:11.009Z</time>
      </trkpt>
      <trkpt lat="47.84258" lon="6.9154">
        <ele>1115.6</ele>
        <time>2026-08-27T06:06:12.018Z</time>
      </trkpt>
      <trkpt lat="47.84258" lon="6.9154">
        <ele>1115.9</ele>
        <time>2026-08-27T06:06:13.025Z</time>
      </trkpt>
      <trkpt lat="47.84258" lon="6.9154">
        <ele>1115.9</ele>
        <time>2026-08-27T06:06:14.033Z</time>
      </trkpt>
      <trkpt lat="47.84258" lon="6.9154">
        <ele>1116</ele>
        <time>2026-08-27T06:06:15.042Z</time>
      </trkpt>
      <trkpt lat="47.84258" lon="6.9154">
        <ele>1115.9</ele>
        <time>2026-08-27T06:06:16.049Z</time>
      </trkpt>
      <trkpt lat="47.84258" lon="6.9154">
        <ele>1115.8</ele>
        <time>2026-08-27T06:06:17.057Z</time>
      </trkpt>
      <trkpt lat="47.84258" lon="6.9154">
        <ele>1115.9</ele>
        <time>2026-08-27T06:06:18.065Z</time>
      </trkpt>
      <trkpt lat="47.84258" lon="6.9154">
        <ele>1116.1</ele>
        <time>2026-08-27T06:06:19.072Z</time>
      </trkpt>
      <trkpt lat="47.84258" lon="6.9154">
        <ele>1116.1</ele>
        <time>2026-08-27T06:06:20.080Z</time>
      </trkpt>
      <trkpt lat="47.84258" lon="6.9154">
        <ele>1116</ele>
        <time>2026-08-27T06:06:21.995Z</time>
      </trkpt>
      <trkpt lat="47.84258" lon="6.9154">
        <ele>1115.9</ele>
        <time>2026-08-27T06:06:23.003Z</time>
      </trkpt>
      <trkpt lat="47.84258" lon="6.9154">
        <ele>1115.8</ele>
        <time>2026-08-27T06:06:24.012Z</time>
      </trkpt>
      <trkpt lat="47.84258" lon="6.9154">
        <ele>1115.8</ele>
        <time>2026-08-27T06:06:25.020Z</time>
      </trkpt>
      <trkpt lat="47.84258" lon="6.9154">
        <ele>1115.7</ele>
        <time>2026-08-27T06:06:26.027Z</time>
      </trkpt>
      <trkpt lat="47.84258" lon="6.9154">
        <ele>1115.9</ele>
        <time>2026-08-27T06:06:27.035Z</time>
      </trkpt>
      <trkpt lat="47.84258" lon="6.9154">
        <ele>1115.7</ele>
        <time>2026-08-27T06:06:28.043Z</time>
      </trkpt>
      <trkpt lat="47.84258" lon="6.9154">
        <ele>1115.7</ele>
        <time>2026-08-27T06:06:29.051Z</time>
      </trkpt>
      <trkpt lat="47.84258" lon="6.9154">
        <ele>1115.9</ele>
        <time>2026-08-27T06:06:30.059Z</time>
      </trkpt>
      <trkpt lat="47.84258" lon="6.9154">
        <ele>1115.8</ele>
        <time>2026-08-27T06:06:31.067Z</time>
      </trkpt>
      <trkpt lat="47.84258" lon="6.9154">
        <ele>1115.7</ele>
        <time>2026-08-27T06:06:32.075Z</time>
      </trkpt>
      <trkpt lat="47.84258" lon="6.9154">
        <ele>1115.5</ele>
        <time>2026-08-27T06:06:33.084Z</time>
      </trkpt>
      <trkpt lat="47.84258" lon="6.9154">
        <ele>1115.5</ele>
        <time>2026-08-27T06:06:34.998Z</time>
      </trkpt>
      <trkpt lat="47.84258" lon="6.9154">
        <ele>1115.4</ele>
        <time>2026-08-27T06:06:36.007Z</time>
      </trkpt>
      <trkpt lat="47.84258" lon="6.9154">
        <ele>1115.4</ele>
        <time>2026-08-27T06:06:37.014Z</time>
      </trkpt>
      <trkpt lat="47.84258" lon="6.9154">
        <ele>1115.4</ele>
        <time>2026-08-27T06:06:38.022Z</time>
      </trkpt>
      <trkpt lat="47.84258" lon="6.9154">
        <ele>1115.3</ele>
        <time>2026-08-27T06:06:39.029Z</time>
      </trkpt>
      <trkpt lat="47.84258" lon="6.9154">
        <ele>1115.1</ele>
        <time>2026-08-27T06:06:40.038Z</time>
      </trkpt>
      <trkpt lat="47.84258" lon="6.9154">
        <ele>1115</ele>
        <time>2026-08-27T06:06:41.045Z</time>
      </trkpt>
      <trkpt lat="47.84258" lon="6.9154">
        <ele>1115.2</ele>
        <time>2026-08-27T06:06:42.053Z</time>
      </trkpt>
      <trkpt lat="47.84258" lon="6.9154">
        <ele>1115.2</ele>
        <time>2026-08-27T06:06:43.061Z</time>
      </trkpt>
      <trkpt lat="47.84258" lon="6.9154">
        <ele>1115.2</ele>
        <time>2026-08-27T06:06:44.069Z</time>
      </trkpt>
      <trkpt lat="47.84258" lon="6.9154">
        <ele>1115.2</ele>
        <time>2026-08-27T06:06:45.077Z</time>
      </trkpt>
      <trkpt lat="47.84257" lon="6.9154">
        <ele>1115.2</ele>
        <time>2026-08-27T06:06:46.086Z</time>
      </trkpt>
      <trkpt lat="47.84257" lon="6.9154">
        <ele>1115.6</ele>
        <time>2026-08-27T06:06:47.093Z</time>
      </trkpt>
      <trkpt lat="47.84257" lon="6.9154">
        <ele>1115.8</ele>
        <time>2026-08-27T06:06:49.009Z</time>
      </trkpt>
      <trkpt lat="47.84257" lon="6.9154">
        <ele>1116.1</ele>
        <time>2026-08-27T06:06:50.016Z</time>
      </trkpt>
      <trkpt lat="47.84257" lon="6.9154">
        <ele>1115.8</ele>
        <time>2026-08-27T06:06:51.025Z</time>
      </trkpt>
      <trkpt lat="47.84257" lon="6.9154">
        <ele>1115.9</ele>
        <time>2026-08-27T06:06:52.032Z</time>
      </trkpt>
      <trkpt lat="47.84257" lon="6.9154">
        <ele>1115.8</ele>
        <time>2026-08-27T06:06:53.041Z</time>
      </trkpt>
      <trkpt lat="47.84257" lon="6.9154">
        <ele>1115.7</ele>
        <time>2026-08-27T06:06:54.048Z</time>
      </trkpt>
      <trkpt lat="47.84257" lon="6.9154">
        <ele>1115.6</ele>
        <time>2026-08-27T06:06:55.055Z</time>
      </trkpt>
      <trkpt lat="47.84257" lon="6.9154">
        <ele>1115.9</ele>
        <time>2026-08-27T06:06:56.063Z</time>
      </trkpt>
      <trkpt lat="47.84257" lon="6.9154">
        <ele>1115.8</ele>
        <time>2026-08-27T06:06:57.071Z</time>
      </trkpt>
      <trkpt lat="47.84257" lon="6.9154">
        <ele>1115.8</ele>
        <time>2026-08-27T06:06:58.079Z</time>
      </trkpt>
      <trkpt lat="47.84257" lon="6.9154">
        <ele>1116</ele>
        <time>2026-08-27T06:06:59.087Z</time>
      </trkpt>
      <trkpt lat="47.84257" lon="6.9154">
        <ele>1115.7</ele>
        <time>2026-08-27T06:07:01.002Z</time>
      </trkpt>
      <trkpt lat="47.84257" lon="6.9154">
        <ele>1115.6</ele>
        <time>2026-08-27T06:07:02.011Z</time>
      </trkpt>
      <trkpt lat="47.84257" lon="6.9154">
        <ele>1115.5</ele>
        <time>2026-08-27T06:07:03.018Z</time>
      </trkpt>
      <trkpt lat="47.84257" lon="6.9154">
        <ele>1115.5</ele>
        <time>2026-08-27T06:07:04.026Z</time>
      </trkpt>
      <trkpt lat="47.84257" lon="6.9154">
        <ele>1115.8</ele>
        <time>2026-08-27T06:07:05.034Z</time>
      </trkpt>
      <trkpt lat="47.84257" lon="6.9154">
        <ele>1115.5</ele>
        <time>2026-08-27T06:07:06.042Z</time>
      </trkpt>
      <trkpt lat="47.84257" lon="6.9154">
        <ele>1115.4</ele>
        <time>2026-08-27T06:07:07.051Z</time>
      </trkpt>
      <trkpt lat="47.84257" lon="6.9154">
        <ele>1115.5</ele>
        <time>2026-08-27T06:07:08.058Z</time>
      </trkpt>
      <trkpt lat="47.84257" lon="6.9154">
        <ele>1115.4</ele>
        <time>2026-08-27T06:07:09.066Z</time>
      </trkpt>
      <trkpt lat="47.84257" lon="6.9154">
        <ele>1115.6</ele>
        <time>2026-08-27T06:07:10.073Z</time>
      </trkpt>
      <trkpt lat="47.84257" lon="6.9154">
        <ele>1115.7</ele>
        <time>2026-08-27T06:07:11.082Z</time>
      </trkpt>
      <trkpt lat="47.84257" lon="6.9154">
        <ele>1115.8</ele>
        <time>2026-08-27T06:07:12.996Z</time>
      </trkpt>
      <trkpt lat="47.84257" lon="6.9154">
        <ele>1115.6</ele>
        <time>2026-08-27T06:07:14.004Z</time>
      </trkpt>
      <trkpt lat="47.84257" lon="6.9154">
        <ele>1115.9</ele>
        <time>2026-08-27T06:07:15.012Z</time>
      </trkpt>
      <trkpt lat="47.84257" lon="6.9154">
        <ele>1116</ele>
        <time>2026-08-27T06:07:16.020Z</time>
      </trkpt>
      <trkpt lat="47.84257" lon="6.9154">
        <ele>1116.1</ele>
        <time>2026-08-27T06:07:17.028Z</time>
      </trkpt>
      <trkpt lat="47.84257" lon="6.91541">
        <ele>1116.1</ele>
        <time>2026-08-27T06:07:18.036Z</time>
      </trkpt>
      <trkpt lat="47.84257" lon="6.91541">
        <ele>1116.2</ele>
        <time>2026-08-27T06:07:19.045Z</time>
      </trkpt>
      <trkpt lat="47.84257" lon="6.91541">
        <ele>1116.1</ele>
        <time>2026-08-27T06:07:20.053Z</time>
      </trkpt>
      <trkpt lat="47.84257" lon="6.91541">
        <ele>1116</ele>
        <time>2026-08-27T06:07:21.060Z</time>
      </trkpt>
      <trkpt lat="47.84257" lon="6.91541">
        <ele>1115.9</ele>
        <time>2026-08-27T06:07:22.068Z</time>
      </trkpt>
      <trkpt lat="47.84257" lon="6.91541">
        <ele>1115.9</ele>
        <time>2026-08-27T06:07:23.983Z</time>
      </trkpt>
      <trkpt lat="47.84257" lon="6.91541">
        <ele>1116</ele>
        <time>2026-08-27T06:07:24.992Z</time>
      </trkpt>
      <trkpt lat="47.84257" lon="6.9154">
        <ele>1116.4</ele>
        <time>2026-08-27T06:07:25.999Z</time>
      </trkpt>
      <trkpt lat="47.84257" lon="6.91541">
        <ele>1116.2</ele>
        <time>2026-08-27T06:07:27.007Z</time>
      </trkpt>
      <trkpt lat="47.84257" lon="6.91541">
        <ele>1116.2</ele>
        <time>2026-08-27T06:07:28.014Z</time>
      </trkpt>
      <trkpt lat="47.84257" lon="6.91541">
        <ele>1116</ele>
        <time>2026-08-27T06:07:29.022Z</time>
      </trkpt>
      <trkpt lat="47.84257" lon="6.91541">
        <ele>1115.9</ele>
        <time>2026-08-27T06:07:30.030Z</time>
      </trkpt>
      <trkpt lat="47.84258" lon="6.91541">
        <ele>1116.1</ele>
        <time>2026-08-27T06:07:31.039Z</time>
      </trkpt>
      <trkpt lat="47.84258" lon="6.91541">
        <ele>1116.1</ele>
        <time>2026-08-27T06:07:32.047Z</time>
      </trkpt>
      <trkpt lat="47.84258" lon="6.91541">
        <ele>1116.2</ele>
        <time>2026-08-27T06:07:33.054Z</time>
      </trkpt>
      <trkpt lat="47.84258" lon="6.91541">
        <ele>1116</ele>
        <time>2026-08-27T06:07:34.062Z</time>
      </trkpt>
      <trkpt lat="47.84258" lon="6.91541">
        <ele>1116</ele>
        <time>2026-08-27T06:07:35.070Z</time>
      </trkpt>
      <trkpt lat="47.84258" lon="6.91541">
        <ele>1115.8</ele>
        <time>2026-08-27T06:07:36.078Z</time>
      </trkpt>
      <trkpt lat="47.84258" lon="6.91541">
        <ele>1115.6</ele>
        <time>2026-08-27T06:07:37.993Z</time>
      </trkpt>
      <trkpt lat="47.84258" lon="6.91541">
        <ele>1115.7</ele>
        <time>2026-08-27T06:07:39.001Z</time>
      </trkpt>
      <trkpt lat="47.84258" lon="6.91541">
        <ele>1116</ele>
        <time>2026-08-27T06:07:40.009Z</time>
      </trkpt>
      <trkpt lat="47.84258" lon="6.91541">
        <ele>1116</ele>
        <time>2026-08-27T06:07:41.016Z</time>
      </trkpt>
      <trkpt lat="47.84258" lon="6.91541">
        <ele>1115.8</ele>
        <time>2026-08-27T06:07:42.024Z</time>
      </trkpt>
      <trkpt lat="47.84258" lon="6.91541">
        <ele>1115.9</ele>
        <time>2026-08-27T06:07:43.032Z</time>
      </trkpt>
      <trkpt lat="47.84258" lon="6.91541">
        <ele>1116.1</ele>
        <time>2026-08-27T06:07:44.040Z</time>
      </trkpt>
      <trkpt lat="47.84258" lon="6.91541">
        <ele>1116.1</ele>
        <time>2026-08-27T06:07:45.049Z</time>
      </trkpt>
      <trkpt lat="47.84258" lon="6.91541">
        <ele>1116.2</ele>
        <time>2026-08-27T06:07:46.056Z</time>
      </trkpt>
      <trkpt lat="47.84258" lon="6.91541">
        <ele>1116.4</ele>
        <time>2026-08-27T06:07:47.065Z</time>
      </trkpt>
      <trkpt lat="47.84258" lon="6.91541">
        <ele>1116.3</ele>
        <time>2026-08-27T06:07:48.072Z</time>
      </trkpt>
      <trkpt lat="47.84258" lon="6.91541">
        <ele>1116.2</ele>
        <time>2026-08-27T06:07:49.080Z</time>
      </trkpt>
      <trkpt lat="47.84258" lon="6.91541">
        <ele>1116.1</ele>
        <time>2026-08-27T06:07:50.087Z</time>
      </trkpt>
      <trkpt lat="47.84258" lon="6.91541">
        <ele>1115.9</ele>
        <time>2026-08-27T06:07:52.002Z</time>
      </trkpt>
      <trkpt lat="47.84258" lon="6.91541">
        <ele>1116.1</ele>
        <time>2026-08-27T06:07:53.010Z</time>
      </trkpt>
      <trkpt lat="47.84258" lon="6.91541">
        <ele>1116.2</ele>
        <time>2026-08-27T06:07:54.018Z</time>
      </trkpt>
      <trkpt lat="47.84258" lon="6.91541">
        <ele>1116.3</ele>
        <time>2026-08-27T06:07:55.026Z</time>
      </trkpt>
      <trkpt lat="47.84258" lon="6.91541">
        <ele>1116.2</ele>
        <time>2026-08-27T06:07:56.034Z</time>
      </trkpt>
      <trkpt lat="47.84258" lon="6.91541">
        <ele>1115.9</ele>
        <time>2026-08-27T06:07:57.042Z</time>
      </trkpt>
      <trkpt lat="47.84258" lon="6.91541">
        <ele>1115.6</ele>
        <time>2026-08-27T06:07:58.050Z</time>
      </trkpt>
      <trkpt lat="47.84258" lon="6.91541">
        <ele>1115.6</ele>
        <time>2026-08-27T06:07:59.058Z</time>
      </trkpt>
      <trkpt lat="47.84258" lon="6.91541">
        <ele>1115.9</ele>
        <time>2026-08-27T06:08:00.066Z</time>
      </trkpt>
      <trkpt lat="47.84258" lon="6.91541">
        <ele>1115.6</ele>
        <time>2026-08-27T06:08:01.074Z</time>
      </trkpt>
      <trkpt lat="47.84258" lon="6.91541">
        <ele>1115.4</ele>
        <time>2026-08-27T06:08:02.990Z</time>
      </trkpt>
      <trkpt lat="47.84258" lon="6.91541">
        <ele>1115.4</ele>
        <time>2026-08-27T06:08:03.997Z</time>
      </trkpt>
      <trkpt lat="47.84258" lon="6.91541">
        <ele>1115.1</ele>
        <time>2026-08-27T06:08:05.004Z</time>
      </trkpt>
      <trkpt lat="47.84258" lon="6.91541">
        <ele>1115.1</ele>
        <time>2026-08-27T06:08:06.013Z</time>
      </trkpt>
      <trkpt lat="47.84258" lon="6.91541">
        <ele>1115</ele>
        <time>2026-08-27T06:08:07.021Z</time>
      </trkpt>
      <trkpt lat="47.84258" lon="6.91541">
        <ele>1114.9</ele>
        <time>2026-08-27T06:08:08.029Z</time>
      </trkpt>
      <trkpt lat="47.84258" lon="6.91541">
        <ele>1114.9</ele>
        <time>2026-08-27T06:08:09.037Z</time>
      </trkpt>
      <trkpt lat="47.84258" lon="6.91541">
        <ele>1115.1</ele>
        <time>2026-08-27T06:08:10.045Z</time>
      </trkpt>
      <trkpt lat="47.84258" lon="6.91541">
        <ele>1115</ele>
        <time>2026-08-27T06:08:11.052Z</time>
      </trkpt>
      <trkpt lat="47.84258" lon="6.91541">
        <ele>1115.5</ele>
        <time>2026-08-27T06:08:12.060Z</time>
      </trkpt>
      <trkpt lat="47.84258" lon="6.91541">
        <ele>1115.3</ele>
        <time>2026-08-27T06:08:13.068Z</time>
      </trkpt>
      <trkpt lat="47.84258" lon="6.91541">
        <ele>1115.4</ele>
        <time>2026-08-27T06:08:14.076Z</time>
      </trkpt>
      <trkpt lat="47.84258" lon="6.91541">
        <ele>1115.5</ele>
        <time>2026-08-27T06:08:15.991Z</time>
      </trkpt>
      <trkpt lat="47.84258" lon="6.91541">
        <ele>1115.4</ele>
        <time>2026-08-27T06:08:16.998Z</time>
      </trkpt>
      <trkpt lat="47.84258" lon="6.91541">
        <ele>1115.4</ele>
        <time>2026-08-27T06:08:18.006Z</time>
      </trkpt>
      <trkpt lat="47.84258" lon="6.91541">
        <ele>1115.3</ele>
        <time>2026-08-27T06:08:19.015Z</time>
      </trkpt>
      <trkpt lat="47.84258" lon="6.91541">
        <ele>1115</ele>
        <time>2026-08-27T06:08:20.022Z</time>
      </trkpt>
      <trkpt lat="47.84258" lon="6.91541">
        <ele>1114.8</ele>
        <time>2026-08-27T06:08:21.030Z</time>
      </trkpt>
      <trkpt lat="47.84258" lon="6.91541">
        <ele>1115</ele>
        <time>2026-08-27T06:08:22.038Z</time>
      </trkpt>
      <trkpt lat="47.84258" lon="6.91541">
        <ele>1115.1</ele>
        <time>2026-08-27T06:08:23.046Z</time>
      </trkpt>
      <trkpt lat="47.84258" lon="6.91541">
        <ele>1115.2</ele>
        <time>2026-08-27T06:08:24.054Z</time>
      </trkpt>
      <trkpt lat="47.84258" lon="6.91541">
        <ele>1115.2</ele>
        <time>2026-08-27T06:08:25.063Z</time>
      </trkpt>
      <trkpt lat="47.84258" lon="6.91541">
        <ele>1115.2</ele>
        <time>2026-08-27T06:08:26.070Z</time>
      </trkpt>
      <trkpt lat="47.84258" lon="6.91541">
        <ele>1115.1</ele>
        <time>2026-08-27T06:08:27.077Z</time>
      </trkpt>
      <trkpt lat="47.84258" lon="6.91541">
        <ele>1115.3</ele>
        <time>2026-08-27T06:08:28.993Z</time>
      </trkpt>
      <trkpt lat="47.84258" lon="6.91541">
        <ele>1115.1</ele>
        <time>2026-08-27T06:08:30.000Z</time>
      </trkpt>
      <trkpt lat="47.84258" lon="6.91541">
        <ele>1115.3</ele>
        <time>2026-08-27T06:08:31.008Z</time>
      </trkpt>
      <trkpt lat="47.84258" lon="6.9154">
        <ele>1115.4</ele>
        <time>2026-08-27T06:08:32.016Z</time>
      </trkpt>
      <trkpt lat="47.84258" lon="6.9154">
        <ele>1115.6</ele>
        <time>2026-08-27T06:08:33.024Z</time>
      </trkpt>
      <trkpt lat="47.84258" lon="6.9154">
        <ele>1115.4</ele>
        <time>2026-08-27T06:08:34.032Z</time>
      </trkpt>
      <trkpt lat="47.84258" lon="6.9154">
        <ele>1115.4</ele>
        <time>2026-08-27T06:08:35.040Z</time>
      </trkpt>
      <trkpt lat="47.84258" lon="6.9154">
        <ele>1115.5</ele>
        <time>2026-08-27T06:08:36.048Z</time>
      </trkpt>
      <trkpt lat="47.84258" lon="6.9154">
        <ele>1115.5</ele>
        <time>2026-08-27T06:08:37.055Z</time>
      </trkpt>
      <trkpt lat="47.84258" lon="6.9154">
        <ele>1115.3</ele>
        <time>2026-08-27T06:08:38.064Z</time>
      </trkpt>
      <trkpt lat="47.84258" lon="6.9154">
        <ele>1115.6</ele>
        <time>2026-08-27T06:08:39.072Z</time>
      </trkpt>
      <trkpt lat="47.84258" lon="6.9154">
        <ele>1115.3</ele>
        <time>2026-08-27T06:08:40.079Z</time>
      </trkpt>
      <trkpt lat="47.84258" lon="6.9154">
        <ele>1115.8</ele>
        <time>2026-08-27T06:08:41.087Z</time>
      </trkpt>
      <trkpt lat="47.84258" lon="6.9154">
        <ele>1115.6</ele>
        <time>2026-08-27T06:08:43.002Z</time>
      </trkpt>
      <trkpt lat="47.84258" lon="6.9154">
        <ele>1116</ele>
        <time>2026-08-27T06:08:44.010Z</time>
      </trkpt>
      <trkpt lat="47.84258" lon="6.9154">
        <ele>1116.1</ele>
        <time>2026-08-27T06:08:45.018Z</time>
      </trkpt>
      <trkpt lat="47.84258" lon="6.9154">
        <ele>1116.1</ele>
        <time>2026-08-27T06:08:46.026Z</time>
      </trkpt>
      <trkpt lat="47.84258" lon="6.9154">
        <ele>1116.1</ele>
        <time>2026-08-27T06:08:47.034Z</time>
      </trkpt>
      <trkpt lat="47.84258" lon="6.9154">
        <ele>1116</ele>
        <time>2026-08-27T06:08:48.042Z</time>
      </trkpt>
      <trkpt lat="47.84258" lon="6.9154">
        <ele>1116.2</ele>
        <time>2026-08-27T06:08:49.050Z</time>
      </trkpt>
      <trkpt lat="47.84258" lon="6.9154">
        <ele>1116.1</ele>
        <time>2026-08-27T06:08:50.057Z</time>
      </trkpt>
      <trkpt lat="47.84258" lon="6.9154">
        <ele>1116.2</ele>
        <time>2026-08-27T06:08:51.065Z</time>
      </trkpt>
      <trkpt lat="47.84258" lon="6.9154">
        <ele>1116.2</ele>
        <time>2026-08-27T06:08:52.074Z</time>
      </trkpt>
      <trkpt lat="47.84258" lon="6.9154">
        <ele>1116.2</ele>
        <time>2026-08-27T06:08:53.082Z</time>
      </trkpt>
      <trkpt lat="47.84258" lon="6.9154">
        <ele>1115.9</ele>
        <time>2026-08-27T06:08:54.089Z</time>
      </trkpt>
      <trkpt lat="47.84258" lon="6.9154">
        <ele>1115.8</ele>
        <time>2026-08-27T06:08:56.004Z</time>
      </trkpt>
      <trkpt lat="47.84258" lon="6.9154">
        <ele>1115.8</ele>
        <time>2026-08-27T06:08:57.012Z</time>
      </trkpt>
      <trkpt lat="47.84258" lon="6.9154">
        <ele>1115.5</ele>
        <time>2026-08-27T06:08:58.020Z</time>
      </trkpt>
      <trkpt lat="47.84258" lon="6.9154">
        <ele>1115.1</ele>
        <time>2026-08-27T06:08:59.028Z</time>
      </trkpt>
      <trkpt lat="47.84258" lon="6.9154">
        <ele>1115.4</ele>
        <time>2026-08-27T06:09:00.035Z</time>
      </trkpt>
      <trkpt lat="47.84258" lon="6.9154">
        <ele>1115.5</ele>
        <time>2026-08-27T06:09:01.043Z</time>
      </trkpt>
      <trkpt lat="47.84258" lon="6.9154">
        <ele>1115.4</ele>
        <time>2026-08-27T06:09:02.052Z</time>
      </trkpt>
      <trkpt lat="47.84258" lon="6.9154">
        <ele>1115.2</ele>
        <time>2026-08-27T06:09:03.059Z</time>
      </trkpt>
      <trkpt lat="47.84258" lon="6.9154">
        <ele>1115.1</ele>
        <time>2026-08-27T06:09:04.067Z</time>
      </trkpt>
      <trkpt lat="47.84258" lon="6.9154">
        <ele>1115.3</ele>
        <time>2026-08-27T06:09:05.075Z</time>
      </trkpt>
      <trkpt lat="47.84258" lon="6.9154">
        <ele>1115.2</ele>
        <time>2026-08-27T06:09:06.083Z</time>
      </trkpt>
      <trkpt lat="47.84258" lon="6.9154">
        <ele>1115.8</ele>
        <time>2026-08-27T06:09:07.998Z</time>
      </trkpt>
      <trkpt lat="47.84258" lon="6.9154">
        <ele>1115.3</ele>
        <time>2026-08-27T06:09:09.007Z</time>
      </trkpt>
      <trkpt lat="47.84258" lon="6.9154">
        <ele>1115.4</ele>
        <time>2026-08-27T06:09:10.014Z</time>
      </trkpt>
      <trkpt lat="47.84258" lon="6.9154">
        <ele>1115.3</ele>
        <time>2026-08-27T06:09:11.021Z</time>
      </trkpt>
      <trkpt lat="47.84258" lon="6.9154">
        <ele>1115.3</ele>
        <time>2026-08-27T06:09:12.029Z</time>
      </trkpt>
      <trkpt lat="47.84258" lon="6.9154">
        <ele>1115.4</ele>
        <time>2026-08-27T06:09:13.038Z</time>
      </trkpt>
      <trkpt lat="47.84258" lon="6.9154">
        <ele>1115.4</ele>
        <time>2026-08-27T06:09:14.045Z</time>
      </trkpt>
      <trkpt lat="47.84258" lon="6.9154">
        <ele>1115.3</ele>
        <time>2026-08-27T06:09:15.053Z</time>
      </trkpt>
      <trkpt lat="47.84258" lon="6.9154">
        <ele>1115.3</ele>
        <time>2026-08-27T06:09:16.061Z</time>
      </trkpt>
      <trkpt lat="47.84258" lon="6.9154">
        <ele>1115.1</ele>
        <time>2026-08-27T06:09:17.070Z</time>
      </trkpt>
      <trkpt lat="47.84258" lon="6.9154">
        <ele>1115.1</ele>
        <time>2026-08-27T06:09:18.077Z</time>
      </trkpt>
      <trkpt lat="47.84258" lon="6.9154">
        <ele>1115.1</ele>
        <time>2026-08-27T06:09:19.085Z</time>
      </trkpt>
      <trkpt lat="47.84258" lon="6.9154">
        <ele>1115.1</ele>
        <time>2026-08-27T06:09:20.999Z</time>
      </trkpt>
      <trkpt lat="47.84258" lon="6.9154">
        <ele>1115</ele>
        <time>2026-08-27T06:09:22.007Z</time>
      </trkpt>
      <trkpt lat="47.84258" lon="6.9154">
        <ele>1114.9</ele>
        <time>2026-08-27T06:09:23.016Z</time>
      </trkpt>
      <trkpt lat="47.84258" lon="6.9154">
        <ele>1115</ele>
        <time>2026-08-27T06:09:24.023Z</time>
      </trkpt>
      <trkpt lat="47.84258" lon="6.9154">
        <ele>1115.3</ele>
        <time>2026-08-27T06:09:25.031Z</time>
      </trkpt>
      <trkpt lat="47.84258" lon="6.9154">
        <ele>1115.6</ele>
        <time>2026-08-27T06:09:26.040Z</time>
      </trkpt>
      <trkpt lat="47.84258" lon="6.9154">
        <ele>1115.6</ele>
        <time>2026-08-27T06:09:27.048Z</time>
      </trkpt>
      <trkpt lat="47.84258" lon="6.9154">
        <ele>1115.6</ele>
        <time>2026-08-27T06:09:28.055Z</time>
      </trkpt>
      <trkpt lat="47.84258" lon="6.9154">
        <ele>1115.9</ele>
        <time>2026-08-27T06:09:29.064Z</time>
      </trkpt>
      <trkpt lat="47.84258" lon="6.9154">
        <ele>1116.3</ele>
        <time>2026-08-27T06:09:30.071Z</time>
      </trkpt>
      <trkpt lat="47.84258" lon="6.9154">
        <ele>1116.3</ele>
        <time>2026-08-27T06:09:31.078Z</time>
      </trkpt>
      <trkpt lat="47.84258" lon="6.9154">
        <ele>1116.1</ele>
        <time>2026-08-27T06:09:32.086Z</time>
      </trkpt>
      <trkpt lat="47.84258" lon="6.9154">
        <ele>1116.1</ele>
        <time>2026-08-27T06:09:34.001Z</time>
      </trkpt>
      <trkpt lat="47.84258" lon="6.9154">
        <ele>1115.9</ele>
        <time>2026-08-27T06:09:35.009Z</time>
      </trkpt>
      <trkpt lat="47.84258" lon="6.9154">
        <ele>1116.1</ele>
        <time>2026-08-27T06:09:36.017Z</time>
      </trkpt>
      <trkpt lat="47.84258" lon="6.9154">
        <ele>1116.5</ele>
        <time>2026-08-27T06:09:37.025Z</time>
      </trkpt>
      <trkpt lat="47.84258" lon="6.9154">
        <ele>1116.2</ele>
        <time>2026-08-27T06:09:38.034Z</time>
      </trkpt>
      <trkpt lat="47.84258" lon="6.9154">
        <ele>1116.2</ele>
        <time>2026-08-27T06:09:39.041Z</time>
      </trkpt>
      <trkpt lat="47.84258" lon="6.9154">
        <ele>1116.3</ele>
        <time>2026-08-27T06:09:40.048Z</time>
      </trkpt>
      <trkpt lat="47.84259" lon="6.9154">
        <ele>1116.4</ele>
        <time>2026-08-27T06:09:41.056Z</time>
      </trkpt>
      <trkpt lat="47.84259" lon="6.9154">
        <ele>1116</ele>
        <time>2026-08-27T06:09:42.065Z</time>
      </trkpt>
      <trkpt lat="47.84259" lon="6.9154">
        <ele>1115.9</ele>
        <time>2026-08-27T06:09:43.073Z</time>
      </trkpt>
      <trkpt lat="47.84259" lon="6.9154">
        <ele>1116</ele>
        <time>2026-08-27T06:09:44.081Z</time>
      </trkpt>
      <trkpt lat="47.84259" lon="6.9154">
        <ele>1115.8</ele>
        <time>2026-08-27T06:09:45.995Z</time>
      </trkpt>
      <trkpt lat="47.84259" lon="6.9154">
        <ele>1115.7</ele>
        <time>2026-08-27T06:09:47.003Z</time>
      </trkpt>
      <trkpt lat="47.84259" lon="6.9154">
        <ele>1115.8</ele>
        <time>2026-08-27T06:09:48.011Z</time>
      </trkpt>
      <trkpt lat="47.84259" lon="6.9154">
        <ele>1116.1</ele>
        <time>2026-08-27T06:09:49.019Z</time>
      </trkpt>
      <trkpt lat="47.84259" lon="6.9154">
        <ele>1116</ele>
        <time>2026-08-27T06:09:50.027Z</time>
      </trkpt>
      <trkpt lat="47.84259" lon="6.9154">
        <ele>1115.7</ele>
        <time>2026-08-27T06:09:51.034Z</time>
      </trkpt>
      <trkpt lat="47.84259" lon="6.9154">
        <ele>1115.9</ele>
        <time>2026-08-27T06:09:52.042Z</time>
      </trkpt>
      <trkpt lat="47.84259" lon="6.9154">
        <ele>1115.6</ele>
        <time>2026-08-27T06:09:53.050Z</time>
      </trkpt>
      <trkpt lat="47.84259" lon="6.9154">
        <ele>1115.5</ele>
        <time>2026-08-27T06:09:54.058Z</time>
      </trkpt>
      <trkpt lat="47.84259" lon="6.9154">
        <ele>1115.5</ele>
        <time>2026-08-27T06:09:55.066Z</time>
      </trkpt>
      <trkpt lat="47.84259" lon="6.9154">
        <ele>1115.5</ele>
        <time>2026-08-27T06:09:56.074Z</time>
      </trkpt>
      <trkpt lat="47.84259" lon="6.9154">
        <ele>1115.5</ele>
        <time>2026-08-27T06:09:57.082Z</time>
      </trkpt>
      <trkpt lat="47.84259" lon="6.9154">
        <ele>1115.7</ele>
        <time>2026-08-27T06:09:58.090Z</time>
      </trkpt>
      <trkpt lat="47.84259" lon="6.9154">
        <ele>1116</ele>
        <time>2026-08-27T06:10:00.005Z</time>
      </trkpt>
      <trkpt lat="47.84259" lon="6.9154">
        <ele>1116.1</ele>
        <time>2026-08-27T06:10:01.013Z</time>
      </trkpt>
      <trkpt lat="47.84259" lon="6.9154">
        <ele>1116</ele>
        <time>2026-08-27T06:10:02.021Z</time>
      </trkpt>
      <trkpt lat="47.84259" lon="6.9154">
        <ele>1115.9</ele>
        <time>2026-08-27T06:10:03.028Z</time>
      </trkpt>
      <trkpt lat="47.84259" lon="6.9154">
        <ele>1115.8</ele>
        <time>2026-08-27T06:10:04.036Z</time>
      </trkpt>
      <trkpt lat="47.84259" lon="6.9154">
        <ele>1116</ele>
        <time>2026-08-27T06:10:05.044Z</time>
      </trkpt>
      <trkpt lat="47.84259" lon="6.9154">
        <ele>1116.3</ele>
        <time>2026-08-27T06:10:06.052Z</time>
      </trkpt>
      <trkpt lat="47.84259" lon="6.9154">
        <ele>1116.2</ele>
        <time>2026-08-27T06:10:07.060Z</time>
      </trkpt>
      <trkpt lat="47.84259" lon="6.9154">
        <ele>1116.4</ele>
        <time>2026-08-27T06:10:09.075Z</time>
      </trkpt>
      <trkpt lat="47.84259" lon="6.9154">
        <ele>1116.2</ele>
        <time>2026-08-27T06:10:10.084Z</time>
      </trkpt>
      <trkpt lat="47.84259" lon="6.9154">
        <ele>1116.4</ele>
        <time>2026-08-27T06:10:11.998Z</time>
      </trkpt>
      <trkpt lat="47.84259" lon="6.9154">
        <ele>1116.5</ele>
        <time>2026-08-27T06:10:13.006Z</time>
      </trkpt>
      <trkpt lat="47.84259" lon="6.9154">
        <ele>1116.3</ele>
        <time>2026-08-27T06:10:14.014Z</time>
      </trkpt>
      <trkpt lat="47.84259" lon="6.9154">
        <ele>1116.1</ele>
        <time>2026-08-27T06:10:15.022Z</time>
      </trkpt>
      <trkpt lat="47.84259" lon="6.9154">
        <ele>1116.2</ele>
        <time>2026-08-27T06:10:16.030Z</time>
      </trkpt>
      <trkpt lat="47.84259" lon="6.9154">
        <ele>1116</ele>
        <time>2026-08-27T06:10:17.038Z</time>
      </trkpt>
      <trkpt lat="47.84259" lon="6.9154">
        <ele>1115.9</ele>
        <time>2026-08-27T06:10:18.046Z</time>
      </trkpt>
      <trkpt lat="47.84259" lon="6.9154">
        <ele>1115.9</ele>
        <time>2026-08-27T06:10:19.053Z</time>
      </trkpt>
      <trkpt lat="47.84259" lon="6.9154">
        <ele>1115.8</ele>
        <time>2026-08-27T06:10:20.061Z</time>
      </trkpt>
      <trkpt lat="47.84259" lon="6.9154">
        <ele>1115.7</ele>
        <time>2026-08-27T06:10:21.069Z</time>
      </trkpt>
      <trkpt lat="47.84259" lon="6.9154">
        <ele>1115.9</ele>
        <time>2026-08-27T06:10:22.077Z</time>
      </trkpt>
      <trkpt lat="47.84259" lon="6.9154">
        <ele>1115.9</ele>
        <time>2026-08-27T06:10:23.085Z</time>
      </trkpt>
      <trkpt lat="47.84259" lon="6.9154">
        <ele>1116</ele>
        <time>2026-08-27T06:10:25.000Z</time>
      </trkpt>
      <trkpt lat="47.84259" lon="6.9154">
        <ele>1116</ele>
        <time>2026-08-27T06:10:26.008Z</time>
      </trkpt>
      <trkpt lat="47.84259" lon="6.9154">
        <ele>1116.3</ele>
        <time>2026-08-27T06:10:27.016Z</time>
      </trkpt>
      <trkpt lat="47.84259" lon="6.9154">
        <ele>1116.4</ele>
        <time>2026-08-27T06:10:28.024Z</time>
      </trkpt>
      <trkpt lat="47.84259" lon="6.9154">
        <ele>1116.3</ele>
        <time>2026-08-27T06:10:29.031Z</time>
      </trkpt>
      <trkpt lat="47.84259" lon="6.9154">
        <ele>1116.5</ele>
        <time>2026-08-27T06:10:30.040Z</time>
      </trkpt>
      <trkpt lat="47.84259" lon="6.9154">
        <ele>1116.7</ele>
        <time>2026-08-27T06:10:31.047Z</time>
      </trkpt>
      <trkpt lat="47.84259" lon="6.9154">
        <ele>1116.8</ele>
        <time>2026-08-27T06:10:32.055Z</time>
      </trkpt>
      <trkpt lat="47.84259" lon="6.9154">
        <ele>1116.9</ele>
        <time>2026-08-27T06:10:33.063Z</time>
      </trkpt>
      <trkpt lat="47.84259" lon="6.9154">
        <ele>1117.1</ele>
        <time>2026-08-27T06:10:34.072Z</time>
      </trkpt>
      <trkpt lat="47.84259" lon="6.9154">
        <ele>1117.2</ele>
        <time>2026-08-27T06:10:35.079Z</time>
      </trkpt>
      <trkpt lat="47.84259" lon="6.9154">
        <ele>1117.2</ele>
        <time>2026-08-27T06:10:36.087Z</time>
      </trkpt>
      <trkpt lat="47.84259" lon="6.9154">
        <ele>1117.4</ele>
        <time>2026-08-27T06:10:38.003Z</time>
      </trkpt>
      <trkpt lat="47.84259" lon="6.9154">
        <ele>1117.4</ele>
        <time>2026-08-27T06:10:39.009Z</time>
      </trkpt>
      <trkpt lat="47.84259" lon="6.9154">
        <ele>1117.6</ele>
        <time>2026-08-27T06:10:40.017Z</time>
      </trkpt>
      <trkpt lat="47.84259" lon="6.9154">
        <ele>1117.6</ele>
        <time>2026-08-27T06:10:41.025Z</time>
      </trkpt>
      <trkpt lat="47.84259" lon="6.9154">
        <ele>1117.7</ele>
        <time>2026-08-27T06:10:42.033Z</time>
      </trkpt>
      <trkpt lat="47.84259" lon="6.9154">
        <ele>1117.5</ele>
        <time>2026-08-27T06:10:43.041Z</time>
      </trkpt>
      <trkpt lat="47.84259" lon="6.9154">
        <ele>1117.3</ele>
        <time>2026-08-27T06:10:44.049Z</time>
      </trkpt>
      <trkpt lat="47.84259" lon="6.9154">
        <ele>1117.7</ele>
        <time>2026-08-27T06:10:45.057Z</time>
      </trkpt>
      <trkpt lat="47.84259" lon="6.9154">
        <ele>1117.8</ele>
        <time>2026-08-27T06:10:46.066Z</time>
      </trkpt>
      <trkpt lat="47.84259" lon="6.9154">
        <ele>1117.6</ele>
        <time>2026-08-27T06:10:47.072Z</time>
      </trkpt>
      <trkpt lat="47.84259" lon="6.9154">
        <ele>1117.1</ele>
        <time>2026-08-27T06:10:48.988Z</time>
      </trkpt>
      <trkpt lat="47.84259" lon="6.9154">
        <ele>1117</ele>
        <time>2026-08-27T06:10:49.996Z</time>
      </trkpt>
      <trkpt lat="47.84259" lon="6.9154">
        <ele>1116.7</ele>
        <time>2026-08-27T06:10:51.003Z</time>
      </trkpt>
      <trkpt lat="47.84259" lon="6.9154">
        <ele>1116.3</ele>
        <time>2026-08-27T06:10:52.112Z</time>
      </trkpt>
      <trkpt lat="47.84258" lon="6.9154">
        <ele>1115.8</ele>
        <time>2026-08-27T06:10:54.027Z</time>
      </trkpt>
      <trkpt lat="47.84258" lon="6.9154">
        <ele>1116</ele>
        <time>2026-08-27T06:10:55.036Z</time>
      </trkpt>
      <trkpt lat="47.84258" lon="6.9154">
        <ele>1116.2</ele>
        <time>2026-08-27T06:10:56.042Z</time>
      </trkpt>
      <trkpt lat="47.84258" lon="6.9154">
        <ele>1116</ele>
        <time>2026-08-27T06:10:57.050Z</time>
      </trkpt>
      <trkpt lat="47.84258" lon="6.9154">
        <ele>1116.3</ele>
        <time>2026-08-27T06:10:58.058Z</time>
      </trkpt>
      <trkpt lat="47.84258" lon="6.9154">
        <ele>1116.4</ele>
        <time>2026-08-27T06:10:59.066Z</time>
      </trkpt>
      <trkpt lat="47.84258" lon="6.9154">
        <ele>1116.6</ele>
        <time>2026-08-27T06:11:00.074Z</time>
      </trkpt>
      <trkpt lat="47.84258" lon="6.9154">
        <ele>1116.6</ele>
        <time>2026-08-27T06:11:01.083Z</time>
      </trkpt>
      <trkpt lat="47.84258" lon="6.9154">
        <ele>1116.6</ele>
        <time>2026-08-27T06:11:02.997Z</time>
      </trkpt>
      <trkpt lat="47.84258" lon="6.9154">
        <ele>1116.6</ele>
        <time>2026-08-27T06:11:04.005Z</time>
      </trkpt>
      <trkpt lat="47.84258" lon="6.9154">
        <ele>1116.6</ele>
        <time>2026-08-27T06:11:05.013Z</time>
      </trkpt>
      <trkpt lat="47.84258" lon="6.9154">
        <ele>1116.5</ele>
        <time>2026-08-27T06:11:06.021Z</time>
      </trkpt>
      <trkpt lat="47.84258" lon="6.9154">
        <ele>1116.4</ele>
        <time>2026-08-27T06:11:07.028Z</time>
      </trkpt>
      <trkpt lat="47.84258" lon="6.9154">
        <ele>1116.3</ele>
        <time>2026-08-27T06:11:08.036Z</time>
      </trkpt>
      <trkpt lat="47.84258" lon="6.9154">
        <ele>1116.5</ele>
        <time>2026-08-27T06:11:09.044Z</time>
      </trkpt>
      <trkpt lat="47.84258" lon="6.9154">
        <ele>1116.4</ele>
        <time>2026-08-27T06:11:10.053Z</time>
      </trkpt>
      <trkpt lat="47.84258" lon="6.9154">
        <ele>1116.4</ele>
        <time>2026-08-27T06:11:11.061Z</time>
      </trkpt>
      <trkpt lat="47.84258" lon="6.9154">
        <ele>1116.3</ele>
        <time>2026-08-27T06:11:12.069Z</time>
      </trkpt>
      <trkpt lat="47.84258" lon="6.91541">
        <ele>1116.1</ele>
        <time>2026-08-27T06:11:13.075Z</time>
      </trkpt>
      <trkpt lat="47.84258" lon="6.91541">
        <ele>1116.2</ele>
        <time>2026-08-27T06:11:14.084Z</time>
      </trkpt>
      <trkpt lat="47.84258" lon="6.91541">
        <ele>1116.3</ele>
        <time>2026-08-27T06:11:15.999Z</time>
      </trkpt>
      <trkpt lat="47.84258" lon="6.91541">
        <ele>1116.5</ele>
        <time>2026-08-27T06:11:17.006Z</time>
      </trkpt>
      <trkpt lat="47.84258" lon="6.91541">
        <ele>1116.4</ele>
        <time>2026-08-27T06:11:18.014Z</time>
      </trkpt>
      <trkpt lat="47.84258" lon="6.91541">
        <ele>1116.2</ele>
        <time>2026-08-27T06:11:19.022Z</time>
      </trkpt>
      <trkpt lat="47.84258" lon="6.91541">
        <ele>1116</ele>
        <time>2026-08-27T06:11:20.031Z</time>
      </trkpt>
      <trkpt lat="47.84258" lon="6.91541">
        <ele>1116.1</ele>
        <time>2026-08-27T06:11:21.038Z</time>
      </trkpt>
      <trkpt lat="47.84258" lon="6.91541">
        <ele>1116</ele>
        <time>2026-08-27T06:11:22.046Z</time>
      </trkpt>
      <trkpt lat="47.84258" lon="6.91541">
        <ele>1116.1</ele>
        <time>2026-08-27T06:11:23.053Z</time>
      </trkpt>
      <trkpt lat="47.84258" lon="6.91541">
        <ele>1115.9</ele>
        <time>2026-08-27T06:11:24.061Z</time>
      </trkpt>
      <trkpt lat="47.84258" lon="6.91541">
        <ele>1115.8</ele>
        <time>2026-08-27T06:11:25.070Z</time>
      </trkpt>
      <trkpt lat="47.84258" lon="6.91541">
        <ele>1115.7</ele>
        <time>2026-08-27T06:11:26.077Z</time>
      </trkpt>
      <trkpt lat="47.84258" lon="6.91541">
        <ele>1115.9</ele>
        <time>2026-08-27T06:11:27.085Z</time>
      </trkpt>
      <trkpt lat="47.84258" lon="6.91541">
        <ele>1116.1</ele>
        <time>2026-08-27T06:11:29.000Z</time>
      </trkpt>
      <trkpt lat="47.84258" lon="6.91541">
        <ele>1115.9</ele>
        <time>2026-08-27T06:11:30.009Z</time>
      </trkpt>
      <trkpt lat="47.84258" lon="6.91541">
        <ele>1116</ele>
        <time>2026-08-27T06:11:31.016Z</time>
      </trkpt>
      <trkpt lat="47.84258" lon="6.91541">
        <ele>1116.3</ele>
        <time>2026-08-27T06:11:32.023Z</time>
      </trkpt>
      <trkpt lat="47.84258" lon="6.91541">
        <ele>1116</ele>
        <time>2026-08-27T06:11:33.032Z</time>
      </trkpt>
      <trkpt lat="47.84258" lon="6.91541">
        <ele>1116.2</ele>
        <time>2026-08-27T06:11:34.039Z</time>
      </trkpt>
      <trkpt lat="47.84258" lon="6.91541">
        <ele>1116.4</ele>
        <time>2026-08-27T06:11:35.047Z</time>
      </trkpt>
      <trkpt lat="47.84258" lon="6.91541">
        <ele>1116.4</ele>
        <time>2026-08-27T06:11:36.055Z</time>
      </trkpt>
      <trkpt lat="47.84258" lon="6.91541">
        <ele>1116.4</ele>
        <time>2026-08-27T06:11:37.063Z</time>
      </trkpt>
      <trkpt lat="47.84258" lon="6.91541">
        <ele>1116.5</ele>
        <time>2026-08-27T06:11:38.071Z</time>
      </trkpt>
      <trkpt lat="47.84258" lon="6.91541">
        <ele>1116.6</ele>
        <time>2026-08-27T06:11:39.079Z</time>
      </trkpt>
      <trkpt lat="47.84258" lon="6.91541">
        <ele>1116.4</ele>
        <time>2026-08-27T06:11:40.086Z</time>
      </trkpt>
      <trkpt lat="47.84258" lon="6.91541">
        <ele>1116.2</ele>
        <time>2026-08-27T06:11:42.001Z</time>
      </trkpt>
      <trkpt lat="47.84258" lon="6.91541">
        <ele>1116.2</ele>
        <time>2026-08-27T06:11:43.009Z</time>
      </trkpt>
      <trkpt lat="47.84258" lon="6.91541">
        <ele>1116</ele>
        <time>2026-08-27T06:11:44.017Z</time>
      </trkpt>
      <trkpt lat="47.84258" lon="6.91541">
        <ele>1116.5</ele>
        <time>2026-08-27T06:11:45.026Z</time>
      </trkpt>
      <trkpt lat="47.84258" lon="6.91541">
        <ele>1116.6</ele>
        <time>2026-08-27T06:11:46.033Z</time>
      </trkpt>
      <trkpt lat="47.84258" lon="6.91541">
        <ele>1116.6</ele>
        <time>2026-08-27T06:11:47.042Z</time>
      </trkpt>
      <trkpt lat="47.84258" lon="6.91541">
        <ele>1116.5</ele>
        <time>2026-08-27T06:11:48.050Z</time>
      </trkpt>
      <trkpt lat="47.84258" lon="6.91541">
        <ele>1116.5</ele>
        <time>2026-08-27T06:11:49.056Z</time>
      </trkpt>
      <trkpt lat="47.84258" lon="6.91541">
        <ele>1117.1</ele>
        <time>2026-08-27T06:11:50.065Z</time>
      </trkpt>
      <trkpt lat="47.84258" lon="6.91541">
        <ele>1116.5</ele>
        <time>2026-08-27T06:11:51.073Z</time>
      </trkpt>
      <trkpt lat="47.84258" lon="6.91541">
        <ele>1116.6</ele>
        <time>2026-08-27T06:11:52.080Z</time>
      </trkpt>
      <trkpt lat="47.84258" lon="6.91541">
        <ele>1116.5</ele>
        <time>2026-08-27T06:11:54.096Z</time>
      </trkpt>
      <trkpt lat="47.84258" lon="6.91541">
        <ele>1116.8</ele>
        <time>2026-08-27T06:11:56.012Z</time>
      </trkpt>
      <trkpt lat="47.84258" lon="6.91541">
        <ele>1116.8</ele>
        <time>2026-08-27T06:11:57.019Z</time>
      </trkpt>
      <trkpt lat="47.84258" lon="6.91541">
        <ele>1116.7</ele>
        <time>2026-08-27T06:11:58.026Z</time>
      </trkpt>
      <trkpt lat="47.84258" lon="6.91541">
        <ele>1116.7</ele>
        <time>2026-08-27T06:11:59.034Z</time>
      </trkpt>
      <trkpt lat="47.84258" lon="6.91541">
        <ele>1117</ele>
        <time>2026-08-27T06:12:00.042Z</time>
      </trkpt>
      <trkpt lat="47.84258" lon="6.91541">
        <ele>1116.9</ele>
        <time>2026-08-27T06:12:01.050Z</time>
      </trkpt>
      <trkpt lat="47.84258" lon="6.91541">
        <ele>1116.9</ele>
        <time>2026-08-27T06:12:02.058Z</time>
      </trkpt>
      <trkpt lat="47.84258" lon="6.91541">
        <ele>1117</ele>
        <time>2026-08-27T06:12:03.066Z</time>
      </trkpt>
      <trkpt lat="47.84258" lon="6.91541">
        <ele>1117</ele>
        <time>2026-08-27T06:12:04.074Z</time>
      </trkpt>
      <trkpt lat="47.84258" lon="6.91541">
        <ele>1117.1</ele>
        <time>2026-08-27T06:12:05.082Z</time>
      </trkpt>
      <trkpt lat="47.84258" lon="6.91541">
        <ele>1116.8</ele>
        <time>2026-08-27T06:12:06.997Z</time>
      </trkpt>
      <trkpt lat="47.84258" lon="6.91541">
        <ele>1116.9</ele>
        <time>2026-08-27T06:12:08.004Z</time>
      </trkpt>
      <trkpt lat="47.84258" lon="6.91541">
        <ele>1116.7</ele>
        <time>2026-08-27T06:12:09.012Z</time>
      </trkpt>
      <trkpt lat="47.84258" lon="6.91541">
        <ele>1116.6</ele>
        <time>2026-08-27T06:12:10.020Z</time>
      </trkpt>
      <trkpt lat="47.84258" lon="6.91541">
        <ele>1116.7</ele>
        <time>2026-08-27T06:12:11.028Z</time>
      </trkpt>
      <trkpt lat="47.84258" lon="6.91541">
        <ele>1116.5</ele>
        <time>2026-08-27T06:12:12.036Z</time>
      </trkpt>
      <trkpt lat="47.84258" lon="6.91541">
        <ele>1116.4</ele>
        <time>2026-08-27T06:12:13.045Z</time>
      </trkpt>
      <trkpt lat="47.84258" lon="6.91541">
        <ele>1116.1</ele>
        <time>2026-08-27T06:12:14.053Z</time>
      </trkpt>
      <trkpt lat="47.84258" lon="6.91541">
        <ele>1116.2</ele>
        <time>2026-08-27T06:12:15.059Z</time>
      </trkpt>
      <trkpt lat="47.84258" lon="6.91541">
        <ele>1116.3</ele>
        <time>2026-08-27T06:12:16.067Z</time>
      </trkpt>
      <trkpt lat="47.84258" lon="6.91541">
        <ele>1116.3</ele>
        <time>2026-08-27T06:12:17.075Z</time>
      </trkpt>
      <trkpt lat="47.84258" lon="6.91541">
        <ele>1116.3</ele>
        <time>2026-08-27T06:12:18.083Z</time>
      </trkpt>
      <trkpt lat="47.84258" lon="6.91541">
        <ele>1116.9</ele>
        <time>2026-08-27T06:12:19.092Z</time>
      </trkpt>
      <trkpt lat="47.84258" lon="6.91541">
        <ele>1115.6</ele>
        <time>2026-08-27T06:12:21.006Z</time>
      </trkpt>
      <trkpt lat="47.84258" lon="6.91541">
        <ele>1115.4</ele>
        <time>2026-08-27T06:12:22.014Z</time>
      </trkpt>
      <trkpt lat="47.84258" lon="6.91541">
        <ele>1115.5</ele>
        <time>2026-08-27T06:12:23.023Z</time>
      </trkpt>
      <trkpt lat="47.84258" lon="6.91541">
        <ele>1115.5</ele>
        <time>2026-08-27T06:12:24.029Z</time>
      </trkpt>
      <trkpt lat="47.84258" lon="6.91541">
        <ele>1115.8</ele>
        <time>2026-08-27T06:12:25.037Z</time>
      </trkpt>
      <trkpt lat="47.84258" lon="6.91541">
        <ele>1116</ele>
        <time>2026-08-27T06:12:26.045Z</time>
      </trkpt>
      <trkpt lat="47.84258" lon="6.91541">
        <ele>1116.2</ele>
        <time>2026-08-27T06:12:27.053Z</time>
      </trkpt>
      <trkpt lat="47.84258" lon="6.91541">
        <ele>1116.4</ele>
        <time>2026-08-27T06:12:28.061Z</time>
      </trkpt>
      <trkpt lat="47.84258" lon="6.91541">
        <ele>1116.5</ele>
        <time>2026-08-27T06:12:29.069Z</time>
      </trkpt>
      <trkpt lat="47.84258" lon="6.91541">
        <ele>1116.5</ele>
        <time>2026-08-27T06:12:31.084Z</time>
      </trkpt>
      <trkpt lat="47.84258" lon="6.91541">
        <ele>1116.6</ele>
        <time>2026-08-27T06:12:32.999Z</time>
      </trkpt>
      <trkpt lat="47.84258" lon="6.91541">
        <ele>1116.7</ele>
        <time>2026-08-27T06:12:34.008Z</time>
      </trkpt>
      <trkpt lat="47.84258" lon="6.91541">
        <ele>1116.6</ele>
        <time>2026-08-27T06:12:35.015Z</time>
      </trkpt>
      <trkpt lat="47.84258" lon="6.91541">
        <ele>1116.6</ele>
        <time>2026-08-27T06:12:36.023Z</time>
      </trkpt>
      <trkpt lat="47.84258" lon="6.91541">
        <ele>1116.7</ele>
        <time>2026-08-27T06:12:37.031Z</time>
      </trkpt>
      <trkpt lat="47.84258" lon="6.91541">
        <ele>1116.5</ele>
        <time>2026-08-27T06:12:38.040Z</time>
      </trkpt>
      <trkpt lat="47.84258" lon="6.91541">
        <ele>1116.4</ele>
        <time>2026-08-27T06:12:39.047Z</time>
      </trkpt>
      <trkpt lat="47.84258" lon="6.91541">
        <ele>1116.5</ele>
        <time>2026-08-27T06:12:40.054Z</time>
      </trkpt>
      <trkpt lat="47.84258" lon="6.91541">
        <ele>1116.1</ele>
        <time>2026-08-27T06:12:41.062Z</time>
      </trkpt>
      <trkpt lat="47.84258" lon="6.91541">
        <ele>1116.2</ele>
        <time>2026-08-27T06:12:42.071Z</time>
      </trkpt>
      <trkpt lat="47.84258" lon="6.91541">
        <ele>1116.3</ele>
        <time>2026-08-27T06:12:43.078Z</time>
      </trkpt>
      <trkpt lat="47.84258" lon="6.91541">
        <ele>1116.4</ele>
        <time>2026-08-27T06:12:44.086Z</time>
      </trkpt>
      <trkpt lat="47.84258" lon="6.91541">
        <ele>1116.5</ele>
        <time>2026-08-27T06:12:45.094Z</time>
      </trkpt>
      <trkpt lat="47.84258" lon="6.91541">
        <ele>1117.1</ele>
        <time>2026-08-27T06:12:47.009Z</time>
      </trkpt>
      <trkpt lat="47.84258" lon="6.91541">
        <ele>1117.4</ele>
        <time>2026-08-27T06:12:48.016Z</time>
      </trkpt>
      <trkpt lat="47.84258" lon="6.91541">
        <ele>1117.4</ele>
        <time>2026-08-27T06:12:49.024Z</time>
      </trkpt>
      <trkpt lat="47.84258" lon="6.91541">
        <ele>1116.3</ele>
        <time>2026-08-27T06:12:50.032Z</time>
      </trkpt>
      <trkpt lat="47.84258" lon="6.91541">
        <ele>1116</ele>
        <time>2026-08-27T06:12:51.040Z</time>
      </trkpt>
      <trkpt lat="47.84258" lon="6.91541">
        <ele>1116</ele>
        <time>2026-08-27T06:12:52.048Z</time>
      </trkpt>
      <trkpt lat="47.84258" lon="6.91541">
        <ele>1116.4</ele>
        <time>2026-08-27T06:12:53.057Z</time>
      </trkpt>
      <trkpt lat="47.84258" lon="6.91541">
        <ele>1116.3</ele>
        <time>2026-08-27T06:12:54.064Z</time>
      </trkpt>
      <trkpt lat="47.84258" lon="6.91541">
        <ele>1116.4</ele>
        <time>2026-08-27T06:12:55.072Z</time>
      </trkpt>
      <trkpt lat="47.84258" lon="6.91541">
        <ele>1116.3</ele>
        <time>2026-08-27T06:12:57.088Z</time>
      </trkpt>
      <trkpt lat="47.84258" lon="6.9154">
        <ele>1116.3</ele>
        <time>2026-08-27T06:12:59.002Z</time>
      </trkpt>
      <trkpt lat="47.84258" lon="6.9154">
        <ele>1116.3</ele>
        <time>2026-08-27T06:13:00.010Z</time>
      </trkpt>
      <trkpt lat="47.84258" lon="6.9154">
        <ele>1116.3</ele>
        <time>2026-08-27T06:13:01.019Z</time>
      </trkpt>
      <trkpt lat="47.84258" lon="6.9154">
        <ele>1116.3</ele>
        <time>2026-08-27T06:13:02.026Z</time>
      </trkpt>
      <trkpt lat="47.84258" lon="6.9154">
        <ele>1116.3</ele>
        <time>2026-08-27T06:13:03.035Z</time>
      </trkpt>
      <trkpt lat="47.84258" lon="6.9154">
        <ele>1116.1</ele>
        <time>2026-08-27T06:13:04.041Z</time>
      </trkpt>
      <trkpt lat="47.84258" lon="6.9154">
        <ele>1116.1</ele>
        <time>2026-08-27T06:13:05.050Z</time>
      </trkpt>
      <trkpt lat="47.84258" lon="6.9154">
        <ele>1116.1</ele>
        <time>2026-08-27T06:13:06.057Z</time>
      </trkpt>
      <trkpt lat="47.84258" lon="6.9154">
        <ele>1116</ele>
        <time>2026-08-27T06:13:07.065Z</time>
      </trkpt>
      <trkpt lat="47.84258" lon="6.9154">
        <ele>1115.8</ele>
        <time>2026-08-27T06:13:08.074Z</time>
      </trkpt>
      <trkpt lat="47.84258" lon="6.9154">
        <ele>1115.8</ele>
        <time>2026-08-27T06:13:09.081Z</time>
      </trkpt>
      <trkpt lat="47.84258" lon="6.9154">
        <ele>1115.8</ele>
        <time>2026-08-27T06:13:11.096Z</time>
      </trkpt>
      <trkpt lat="47.84257" lon="6.9154">
        <ele>1115.9</ele>
        <time>2026-08-27T06:13:13.011Z</time>
      </trkpt>
      <trkpt lat="47.84257" lon="6.9154">
        <ele>1116.1</ele>
        <time>2026-08-27T06:13:14.019Z</time>
      </trkpt>
      <trkpt lat="47.84257" lon="6.9154">
        <ele>1116.1</ele>
        <time>2026-08-27T06:13:15.028Z</time>
      </trkpt>
      <trkpt lat="47.84257" lon="6.9154">
        <ele>1116.5</ele>
        <time>2026-08-27T06:13:16.036Z</time>
      </trkpt>
      <trkpt lat="47.84257" lon="6.9154">
        <ele>1116.8</ele>
        <time>2026-08-27T06:13:17.044Z</time>
      </trkpt>
      <trkpt lat="47.84257" lon="6.9154">
        <ele>1116.7</ele>
        <time>2026-08-27T06:13:18.051Z</time>
      </trkpt>
      <trkpt lat="47.84257" lon="6.9154">
        <ele>1115.6</ele>
        <time>2026-08-27T06:13:19.059Z</time>
      </trkpt>
      <trkpt lat="47.84257" lon="6.9154">
        <ele>1115.4</ele>
        <time>2026-08-27T06:13:20.066Z</time>
      </trkpt>
      <trkpt lat="47.84257" lon="6.9154">
        <ele>1115.4</ele>
        <time>2026-08-27T06:13:21.074Z</time>
      </trkpt>
      <trkpt lat="47.84257" lon="6.9154">
        <ele>1115.7</ele>
        <time>2026-08-27T06:13:22.083Z</time>
      </trkpt>
      <trkpt lat="47.84257" lon="6.9154">
        <ele>1115.8</ele>
        <time>2026-08-27T06:13:23.090Z</time>
      </trkpt>
      <trkpt lat="47.84257" lon="6.9154">
        <ele>1117</ele>
        <time>2026-08-27T06:13:25.006Z</time>
      </trkpt>
      <trkpt lat="47.84257" lon="6.9154">
        <ele>1116.6</ele>
        <time>2026-08-27T06:13:26.014Z</time>
      </trkpt>
      <trkpt lat="47.84257" lon="6.9154">
        <ele>1116</ele>
        <time>2026-08-27T06:13:27.021Z</time>
      </trkpt>
      <trkpt lat="47.84257" lon="6.9154">
        <ele>1116</ele>
        <time>2026-08-27T06:13:28.028Z</time>
      </trkpt>
      <trkpt lat="47.84257" lon="6.9154">
        <ele>1116</ele>
        <time>2026-08-27T06:13:29.036Z</time>
      </trkpt>
      <trkpt lat="47.84257" lon="6.9154">
        <ele>1116.3</ele>
        <time>2026-08-27T06:13:30.043Z</time>
      </trkpt>
      <trkpt lat="47.84257" lon="6.9154">
        <ele>1116.4</ele>
        <time>2026-08-27T06:13:31.052Z</time>
      </trkpt>
      <trkpt lat="47.84257" lon="6.9154">
        <ele>1116.4</ele>
        <time>2026-08-27T06:13:32.060Z</time>
      </trkpt>
      <trkpt lat="47.84257" lon="6.9154">
        <ele>1115.8</ele>
        <time>2026-08-27T06:13:33.068Z</time>
      </trkpt>
      <trkpt lat="47.84257" lon="6.9154">
        <ele>1115.8</ele>
        <time>2026-08-27T06:13:34.077Z</time>
      </trkpt>
      <trkpt lat="47.84257" lon="6.9154">
        <ele>1115.8</ele>
        <time>2026-08-27T06:13:35.083Z</time>
      </trkpt>
      <trkpt lat="47.84257" lon="6.9154">
        <ele>1115.5</ele>
        <time>2026-08-27T06:13:36.998Z</time>
      </trkpt>
      <trkpt lat="47.84257" lon="6.9154">
        <ele>1115.5</ele>
        <time>2026-08-27T06:13:38.007Z</time>
      </trkpt>
      <trkpt lat="47.84257" lon="6.9154">
        <ele>1115.5</ele>
        <time>2026-08-27T06:13:39.014Z</time>
      </trkpt>
      <trkpt lat="47.84257" lon="6.9154">
        <ele>1115.6</ele>
        <time>2026-08-27T06:13:40.022Z</time>
      </trkpt>
      <trkpt lat="47.84257" lon="6.91541">
        <ele>1115.7</ele>
        <time>2026-08-27T06:13:41.030Z</time>
      </trkpt>
      <trkpt lat="47.84257" lon="6.91541">
        <ele>1115.8</ele>
        <time>2026-08-27T06:13:42.038Z</time>
      </trkpt>
      <trkpt lat="47.84257" lon="6.91541">
        <ele>1115.9</ele>
        <time>2026-08-27T06:13:43.045Z</time>
      </trkpt>
      <trkpt lat="47.84257" lon="6.91541">
        <ele>1116.3</ele>
        <time>2026-08-27T06:13:44.054Z</time>
      </trkpt>
      <trkpt lat="47.84257" lon="6.91541">
        <ele>1116.5</ele>
        <time>2026-08-27T06:13:45.061Z</time>
      </trkpt>
      <trkpt lat="47.84257" lon="6.91541">
        <ele>1116.8</ele>
        <time>2026-08-27T06:13:46.069Z</time>
      </trkpt>
      <trkpt lat="47.84257" lon="6.91541">
        <ele>1116.8</ele>
        <time>2026-08-27T06:13:47.077Z</time>
      </trkpt>
      <trkpt lat="47.84257" lon="6.91541">
        <ele>1115.6</ele>
        <time>2026-08-27T06:13:48.086Z</time>
      </trkpt>
      <trkpt lat="47.84257" lon="6.91541">
        <ele>1115.3</ele>
        <time>2026-08-27T06:13:49.094Z</time>
      </trkpt>
      <trkpt lat="47.84257" lon="6.91541">
        <ele>1115.5</ele>
        <time>2026-08-27T06:13:51.007Z</time>
      </trkpt>
      <trkpt lat="47.84257" lon="6.91541">
        <ele>1115.5</ele>
        <time>2026-08-27T06:13:52.015Z</time>
      </trkpt>
      <trkpt lat="47.84257" lon="6.91541">
        <ele>1116</ele>
        <time>2026-08-27T06:13:53.023Z</time>
      </trkpt>
      <trkpt lat="47.84257" lon="6.91541">
        <ele>1116.3</ele>
        <time>2026-08-27T06:13:54.031Z</time>
      </trkpt>
      <trkpt lat="47.84257" lon="6.91541">
        <ele>1115.9</ele>
        <time>2026-08-27T06:13:55.039Z</time>
      </trkpt>
      <trkpt lat="47.84257" lon="6.91541">
        <ele>1115.6</ele>
        <time>2026-08-27T06:13:56.047Z</time>
      </trkpt>
      <trkpt lat="47.84257" lon="6.91541">
        <ele>1115.9</ele>
        <time>2026-08-27T06:13:57.055Z</time>
      </trkpt>
      <trkpt lat="47.84257" lon="6.91541">
        <ele>1116.2</ele>
        <time>2026-08-27T06:13:58.062Z</time>
      </trkpt>
      <trkpt lat="47.84257" lon="6.91541">
        <ele>1116.5</ele>
        <time>2026-08-27T06:13:59.070Z</time>
      </trkpt>
      <trkpt lat="47.84257" lon="6.91541">
        <ele>1116.6</ele>
        <time>2026-08-27T06:14:00.078Z</time>
      </trkpt>
      <trkpt lat="47.84257" lon="6.91541">
        <ele>1116.5</ele>
        <time>2026-08-27T06:14:02.095Z</time>
      </trkpt>
      <trkpt lat="47.84257" lon="6.91541">
        <ele>1116.2</ele>
        <time>2026-08-27T06:14:04.010Z</time>
      </trkpt>
      <trkpt lat="47.84257" lon="6.91541">
        <ele>1116.1</ele>
        <time>2026-08-27T06:14:05.017Z</time>
      </trkpt>
      <trkpt lat="47.84257" lon="6.91541">
        <ele>1116.1</ele>
        <time>2026-08-27T06:14:06.024Z</time>
      </trkpt>
      <trkpt lat="47.84257" lon="6.91541">
        <ele>1116.1</ele>
        <time>2026-08-27T06:14:07.032Z</time>
      </trkpt>
      <trkpt lat="47.84257" lon="6.91541">
        <ele>1116.2</ele>
        <time>2026-08-27T06:14:08.040Z</time>
      </trkpt>
      <trkpt lat="47.84258" lon="6.91541">
        <ele>1116.3</ele>
        <time>2026-08-27T06:14:09.048Z</time>
      </trkpt>
      <trkpt lat="47.84258" lon="6.91541">
        <ele>1116.4</ele>
        <time>2026-08-27T06:14:10.056Z</time>
      </trkpt>
      <trkpt lat="47.84258" lon="6.91541">
        <ele>1116.4</ele>
        <time>2026-08-27T06:14:11.064Z</time>
      </trkpt>
      <trkpt lat="47.84258" lon="6.91541">
        <ele>1116.7</ele>
        <time>2026-08-27T06:14:12.072Z</time>
      </trkpt>
      <trkpt lat="47.84258" lon="6.91541">
        <ele>1116.9</ele>
        <time>2026-08-27T06:14:13.079Z</time>
      </trkpt>
      <trkpt lat="47.84258" lon="6.9154">
        <ele>1117.3</ele>
        <time>2026-08-27T06:14:15.095Z</time>
      </trkpt>
      <trkpt lat="47.84258" lon="6.9154">
        <ele>1116.8</ele>
        <time>2026-08-27T06:14:17.011Z</time>
      </trkpt>
      <trkpt lat="47.84258" lon="6.9154">
        <ele>1115.9</ele>
        <time>2026-08-27T06:14:18.018Z</time>
      </trkpt>
      <trkpt lat="47.84258" lon="6.9154">
        <ele>1116.1</ele>
        <time>2026-08-27T06:14:19.027Z</time>
      </trkpt>
      <trkpt lat="47.84258" lon="6.9154">
        <ele>1116.5</ele>
        <time>2026-08-27T06:14:20.034Z</time>
      </trkpt>
      <trkpt lat="47.84258" lon="6.9154">
        <ele>1116.6</ele>
        <time>2026-08-27T06:14:21.042Z</time>
      </trkpt>
      <trkpt lat="47.84258" lon="6.9154">
        <ele>1117.1</ele>
        <time>2026-08-27T06:14:22.050Z</time>
      </trkpt>
      <trkpt lat="47.84258" lon="6.9154">
        <ele>1117.8</ele>
        <time>2026-08-27T06:14:23.057Z</time>
      </trkpt>
      <trkpt lat="47.84259" lon="6.9154">
        <ele>1117.1</ele>
        <time>2026-08-27T06:14:24.066Z</time>
      </trkpt>
      <trkpt lat="47.84259" lon="6.9154">
        <ele>1116.8</ele>
        <time>2026-08-27T06:14:25.073Z</time>
      </trkpt>
      <trkpt lat="47.84259" lon="6.9154">
        <ele>1116.9</ele>
        <time>2026-08-27T06:14:26.081Z</time>
      </trkpt>
      <trkpt lat="47.84259" lon="6.9154">
        <ele>1117</ele>
        <time>2026-08-27T06:14:27.089Z</time>
      </trkpt>
      <trkpt lat="47.84259" lon="6.9154">
        <ele>1117.1</ele>
        <time>2026-08-27T06:14:29.004Z</time>
      </trkpt>
      <trkpt lat="47.84259" lon="6.9154">
        <ele>1117</ele>
        <time>2026-08-27T06:14:30.012Z</time>
      </trkpt>
      <trkpt lat="47.84259" lon="6.9154">
        <ele>1116.8</ele>
        <time>2026-08-27T06:14:31.019Z</time>
      </trkpt>
      <trkpt lat="47.84259" lon="6.9154">
        <ele>1116.5</ele>
        <time>2026-08-27T06:14:32.028Z</time>
      </trkpt>
      <trkpt lat="47.84259" lon="6.9154">
        <ele>1116.4</ele>
        <time>2026-08-27T06:14:33.036Z</time>
      </trkpt>
      <trkpt lat="47.84259" lon="6.9154">
        <ele>1116.3</ele>
        <time>2026-08-27T06:14:34.043Z</time>
      </trkpt>
      <trkpt lat="47.84259" lon="6.9154">
        <ele>1116.2</ele>
        <time>2026-08-27T06:14:35.052Z</time>
      </trkpt>
      <trkpt lat="47.84259" lon="6.9154">
        <ele>1116.2</ele>
        <time>2026-08-27T06:14:36.059Z</time>
      </trkpt>
      <trkpt lat="47.84259" lon="6.9154">
        <ele>1116.3</ele>
        <time>2026-08-27T06:14:37.067Z</time>
      </trkpt>
      <trkpt lat="47.84259" lon="6.9154">
        <ele>1116.4</ele>
        <time>2026-08-27T06:14:38.074Z</time>
      </trkpt>
      <trkpt lat="47.84259" lon="6.9154">
        <ele>1116.5</ele>
        <time>2026-08-27T06:14:39.082Z</time>
      </trkpt>
      <trkpt lat="47.84259" lon="6.9154">
        <ele>1116.6</ele>
        <time>2026-08-27T06:14:40.090Z</time>
      </trkpt>
      <trkpt lat="47.84259" lon="6.91539">
        <ele>1117</ele>
        <time>2026-08-27T06:14:42.005Z</time>
      </trkpt>
      <trkpt lat="47.84259" lon="6.91539">
        <ele>1117.2</ele>
        <time>2026-08-27T06:14:43.014Z</time>
      </trkpt>
      <trkpt lat="47.84259" lon="6.91539">
        <ele>1117.4</ele>
        <time>2026-08-27T06:14:44.020Z</time>
      </trkpt>
      <trkpt lat="47.84259" lon="6.91539">
        <ele>1117.5</ele>
        <time>2026-08-27T06:14:45.029Z</time>
      </trkpt>
      <trkpt lat="47.84259" lon="6.91539">
        <ele>1116.9</ele>
        <time>2026-08-27T06:14:46.036Z</time>
      </trkpt>
      <trkpt lat="47.84259" lon="6.91539">
        <ele>1115.7</ele>
        <time>2026-08-27T06:14:47.044Z</time>
      </trkpt>
      <trkpt lat="47.84259" lon="6.91539">
        <ele>1115.7</ele>
        <time>2026-08-27T06:14:48.052Z</time>
      </trkpt>
      <trkpt lat="47.84259" lon="6.91539">
        <ele>1115.8</ele>
        <time>2026-08-27T06:14:49.060Z</time>
      </trkpt>
      <trkpt lat="47.84259" lon="6.91539">
        <ele>1116.6</ele>
        <time>2026-08-27T06:14:50.069Z</time>
      </trkpt>
      <trkpt lat="47.84259" lon="6.91539">
        <ele>1116.7</ele>
        <time>2026-08-27T06:14:51.075Z</time>
      </trkpt>
      <trkpt lat="47.84259" lon="6.91539">
        <ele>1116.7</ele>
        <time>2026-08-27T06:14:52.083Z</time>
      </trkpt>
      <trkpt lat="47.84259" lon="6.91539">
        <ele>1116.6</ele>
        <time>2026-08-27T06:14:53.091Z</time>
      </trkpt>
      <trkpt lat="47.84259" lon="6.9154">
        <ele>1116.6</ele>
        <time>2026-08-27T06:14:55.007Z</time>
      </trkpt>
      <trkpt lat="47.84259" lon="6.9154">
        <ele>1116.6</ele>
        <time>2026-08-27T06:14:56.014Z</time>
      </trkpt>
      <trkpt lat="47.84259" lon="6.9154">
        <ele>1116.5</ele>
        <time>2026-08-27T06:14:57.022Z</time>
      </trkpt>
      <trkpt lat="47.84259" lon="6.9154">
        <ele>1116.7</ele>
        <time>2026-08-27T06:14:58.030Z</time>
      </trkpt>
      <trkpt lat="47.84259" lon="6.9154">
        <ele>1116.6</ele>
        <time>2026-08-27T06:14:59.037Z</time>
      </trkpt>
      <trkpt lat="47.84259" lon="6.9154">
        <ele>1116.3</ele>
        <time>2026-08-27T06:15:00.045Z</time>
      </trkpt>
      <trkpt lat="47.84259" lon="6.9154">
        <ele>1116.1</ele>
        <time>2026-08-27T06:15:01.053Z</time>
      </trkpt>
      <trkpt lat="47.84259" lon="6.9154">
        <ele>1115.4</ele>
        <time>2026-08-27T06:15:02.061Z</time>
      </trkpt>
      <trkpt lat="47.84259" lon="6.9154">
        <ele>1115.4</ele>
        <time>2026-08-27T06:15:03.069Z</time>
      </trkpt>
      <trkpt lat="47.84259" lon="6.9154">
        <ele>1115.3</ele>
        <time>2026-08-27T06:15:04.077Z</time>
      </trkpt>
      <trkpt lat="47.84259" lon="6.9154">
        <ele>1115.2</ele>
        <time>2026-08-27T06:15:05.086Z</time>
      </trkpt>
      <trkpt lat="47.84259" lon="6.91541">
        <ele>1115.4</ele>
        <time>2026-08-27T06:15:06.999Z</time>
      </trkpt>
      <trkpt lat="47.84259" lon="6.91541">
        <ele>1115.5</ele>
        <time>2026-08-27T06:15:08.008Z</time>
      </trkpt>
      <trkpt lat="47.84259" lon="6.91541">
        <ele>1115.6</ele>
        <time>2026-08-27T06:15:09.015Z</time>
      </trkpt>
      <trkpt lat="47.84259" lon="6.91541">
        <ele>1116.3</ele>
        <time>2026-08-27T06:15:10.023Z</time>
      </trkpt>
      <trkpt lat="47.84259" lon="6.91541">
        <ele>1116.7</ele>
        <time>2026-08-27T06:15:11.031Z</time>
      </trkpt>
      <trkpt lat="47.84259" lon="6.91541">
        <ele>1116.5</ele>
        <time>2026-08-27T06:15:12.039Z</time>
      </trkpt>
      <trkpt lat="47.84259" lon="6.91541">
        <ele>1116.7</ele>
        <time>2026-08-27T06:15:13.047Z</time>
      </trkpt>
      <trkpt lat="47.84259" lon="6.91541">
        <ele>1116.7</ele>
        <time>2026-08-27T06:15:14.054Z</time>
      </trkpt>
      <trkpt lat="47.84259" lon="6.91541">
        <ele>1117</ele>
        <time>2026-08-27T06:15:15.062Z</time>
      </trkpt>
      <trkpt lat="47.84259" lon="6.91541">
        <ele>1116.9</ele>
        <time>2026-08-27T06:15:16.071Z</time>
      </trkpt>
      <trkpt lat="47.84259" lon="6.91541">
        <ele>1116.6</ele>
        <time>2026-08-27T06:15:17.079Z</time>
      </trkpt>
      <trkpt lat="47.84259" lon="6.91541">
        <ele>1116.6</ele>
        <time>2026-08-27T06:15:18.086Z</time>
      </trkpt>
      <trkpt lat="47.84259" lon="6.91541">
        <ele>1116.4</ele>
        <time>2026-08-27T06:15:19.094Z</time>
      </trkpt>
      <trkpt lat="47.84259" lon="6.91541">
        <ele>1116.6</ele>
        <time>2026-08-27T06:15:20.103Z</time>
      </trkpt>
      <trkpt lat="47.84259" lon="6.91541">
        <ele>1116.9</ele>
        <time>2026-08-27T06:15:22.117Z</time>
      </trkpt>
      <trkpt lat="47.84259" lon="6.91541">
        <ele>1117</ele>
        <time>2026-08-27T06:15:24.033Z</time>
      </trkpt>
      <trkpt lat="47.84259" lon="6.91541">
        <ele>1117.1</ele>
        <time>2026-08-27T06:15:25.040Z</time>
      </trkpt>
      <trkpt lat="47.84259" lon="6.91541">
        <ele>1116.9</ele>
        <time>2026-08-27T06:15:26.048Z</time>
      </trkpt>
      <trkpt lat="47.84259" lon="6.91541">
        <ele>1117</ele>
        <time>2026-08-27T06:15:27.057Z</time>
      </trkpt>
      <trkpt lat="47.84259" lon="6.91541">
        <ele>1116.9</ele>
        <time>2026-08-27T06:15:28.065Z</time>
      </trkpt>
      <trkpt lat="47.84259" lon="6.91541">
        <ele>1116.9</ele>
        <time>2026-08-27T06:15:29.072Z</time>
      </trkpt>
      <trkpt lat="47.84259" lon="6.91541">
        <ele>1116.8</ele>
        <time>2026-08-27T06:15:30.080Z</time>
      </trkpt>
      <trkpt lat="47.84259" lon="6.91541">
        <ele>1115.8</ele>
        <time>2026-08-27T06:15:32.096Z</time>
      </trkpt>
      <trkpt lat="47.84259" lon="6.91541">
        <ele>1116.2</ele>
        <time>2026-08-27T06:15:34.010Z</time>
      </trkpt>
      <trkpt lat="47.84259" lon="6.91541">
        <ele>1116.2</ele>
        <time>2026-08-27T06:15:35.018Z</time>
      </trkpt>
      <trkpt lat="47.84259" lon="6.91542">
        <ele>1116.5</ele>
        <time>2026-08-27T06:15:36.027Z</time>
      </trkpt>
      <trkpt lat="47.84259" lon="6.91542">
        <ele>1116.5</ele>
        <time>2026-08-27T06:15:37.034Z</time>
      </trkpt>
      <trkpt lat="47.84259" lon="6.91542">
        <ele>1116.7</ele>
        <time>2026-08-27T06:15:38.042Z</time>
      </trkpt>
      <trkpt lat="47.84259" lon="6.91542">
        <ele>1117.4</ele>
        <time>2026-08-27T06:15:39.049Z</time>
      </trkpt>
      <trkpt lat="47.84259" lon="6.91542">
        <ele>1117.4</ele>
        <time>2026-08-27T06:15:40.057Z</time>
      </trkpt>
      <trkpt lat="47.84259" lon="6.91542">
        <ele>1117.4</ele>
        <time>2026-08-27T06:15:41.065Z</time>
      </trkpt>
      <trkpt lat="47.84259" lon="6.91542">
        <ele>1117.3</ele>
        <time>2026-08-27T06:15:42.073Z</time>
      </trkpt>
      <trkpt lat="47.84259" lon="6.91542">
        <ele>1117.5</ele>
        <time>2026-08-27T06:15:43.082Z</time>
      </trkpt>
      <trkpt lat="47.84259" lon="6.91542">
        <ele>1117.7</ele>
        <time>2026-08-27T06:15:44.088Z</time>
      </trkpt>
      <trkpt lat="47.84259" lon="6.91542">
        <ele>1117.6</ele>
        <time>2026-08-27T06:15:46.003Z</time>
      </trkpt>
      <trkpt lat="47.84259" lon="6.91542">
        <ele>1117.6</ele>
        <time>2026-08-27T06:15:47.012Z</time>
      </trkpt>
      <trkpt lat="47.84259" lon="6.91542">
        <ele>1117.4</ele>
        <time>2026-08-27T06:15:48.019Z</time>
      </trkpt>
      <trkpt lat="47.84258" lon="6.91542">
        <ele>1117.3</ele>
        <time>2026-08-27T06:15:49.028Z</time>
      </trkpt>
      <trkpt lat="47.84258" lon="6.91542">
        <ele>1117.3</ele>
        <time>2026-08-27T06:15:50.036Z</time>
      </trkpt>
      <trkpt lat="47.84258" lon="6.91542">
        <ele>1117.1</ele>
        <time>2026-08-27T06:15:51.044Z</time>
      </trkpt>
      <trkpt lat="47.84258" lon="6.91542">
        <ele>1117</ele>
        <time>2026-08-27T06:15:52.050Z</time>
      </trkpt>
      <trkpt lat="47.84258" lon="6.91542">
        <ele>1117</ele>
        <time>2026-08-27T06:15:53.059Z</time>
      </trkpt>
      <trkpt lat="47.84258" lon="6.91542">
        <ele>1117</ele>
        <time>2026-08-27T06:15:54.066Z</time>
      </trkpt>
      <trkpt lat="47.84258" lon="6.91542">
        <ele>1117</ele>
        <time>2026-08-27T06:15:55.074Z</time>
      </trkpt>
      <trkpt lat="47.84258" lon="6.91542">
        <ele>1117</ele>
        <time>2026-08-27T06:15:56.082Z</time>
      </trkpt>
      <trkpt lat="47.84258" lon="6.91542">
        <ele>1117</ele>
        <time>2026-08-27T06:15:58.099Z</time>
      </trkpt>
      <trkpt lat="47.84258" lon="6.91542">
        <ele>1116.7</ele>
        <time>2026-08-27T06:16:00.013Z</time>
      </trkpt>
      <trkpt lat="47.84258" lon="6.91542">
        <ele>1116.1</ele>
        <time>2026-08-27T06:16:01.021Z</time>
      </trkpt>
      <trkpt lat="47.84258" lon="6.91542">
        <ele>1116.3</ele>
        <time>2026-08-27T06:16:02.028Z</time>
      </trkpt>
      <trkpt lat="47.84258" lon="6.91542">
        <ele>1116.5</ele>
        <time>2026-08-27T06:16:03.036Z</time>
      </trkpt>
      <trkpt lat="47.84258" lon="6.91542">
        <ele>1116.8</ele>
        <time>2026-08-27T06:16:04.044Z</time>
      </trkpt>
      <trkpt lat="47.84258" lon="6.91542">
        <ele>1117.2</ele>
        <time>2026-08-27T06:16:05.053Z</time>
      </trkpt>
      <trkpt lat="47.84258" lon="6.91542">
        <ele>1117.2</ele>
        <time>2026-08-27T06:16:06.061Z</time>
      </trkpt>
      <trkpt lat="47.84258" lon="6.91542">
        <ele>1117.2</ele>
        <time>2026-08-27T06:16:07.067Z</time>
      </trkpt>
      <trkpt lat="47.84258" lon="6.91542">
        <ele>1117.3</ele>
        <time>2026-08-27T06:16:08.075Z</time>
      </trkpt>
      <trkpt lat="47.84258" lon="6.91542">
        <ele>1117.2</ele>
        <time>2026-08-27T06:16:09.084Z</time>
      </trkpt>
      <trkpt lat="47.84258" lon="6.91542">
        <ele>1117.6</ele>
        <time>2026-08-27T06:16:11.099Z</time>
      </trkpt>
      <trkpt lat="47.84258" lon="6.91542">
        <ele>1117.4</ele>
        <time>2026-08-27T06:16:13.015Z</time>
      </trkpt>
      <trkpt lat="47.84258" lon="6.91542">
        <ele>1117.3</ele>
        <time>2026-08-27T06:16:14.023Z</time>
      </trkpt>
      <trkpt lat="47.84258" lon="6.91542">
        <ele>1117.2</ele>
        <time>2026-08-27T06:16:15.029Z</time>
      </trkpt>
      <trkpt lat="47.84258" lon="6.91542">
        <ele>1117.1</ele>
        <time>2026-08-27T06:16:16.037Z</time>
      </trkpt>
      <trkpt lat="47.84258" lon="6.91542">
        <ele>1117</ele>
        <time>2026-08-27T06:16:17.045Z</time>
      </trkpt>
      <trkpt lat="47.84258" lon="6.91542">
        <ele>1116.7</ele>
        <time>2026-08-27T06:16:18.053Z</time>
      </trkpt>
      <trkpt lat="47.84258" lon="6.91542">
        <ele>1116.7</ele>
        <time>2026-08-27T06:16:19.061Z</time>
      </trkpt>
      <trkpt lat="47.84258" lon="6.91542">
        <ele>1116.7</ele>
        <time>2026-08-27T06:16:20.070Z</time>
      </trkpt>
      <trkpt lat="47.84258" lon="6.91542">
        <ele>1116.7</ele>
        <time>2026-08-27T06:16:21.077Z</time>
      </trkpt>
      <trkpt lat="47.84258" lon="6.91542">
        <ele>1116.8</ele>
        <time>2026-08-27T06:16:22.991Z</time>
      </trkpt>
      <trkpt lat="47.84258" lon="6.91542">
        <ele>1116.8</ele>
        <time>2026-08-27T06:16:24.000Z</time>
      </trkpt>
      <trkpt lat="47.84258" lon="6.91542">
        <ele>1116.7</ele>
        <time>2026-08-27T06:16:25.008Z</time>
      </trkpt>
      <trkpt lat="47.84258" lon="6.91542">
        <ele>1116.8</ele>
        <time>2026-08-27T06:16:26.015Z</time>
      </trkpt>
      <trkpt lat="47.84258" lon="6.91542">
        <ele>1116.7</ele>
        <time>2026-08-27T06:16:27.023Z</time>
      </trkpt>
      <trkpt lat="47.84258" lon="6.91542">
        <ele>1116.7</ele>
        <time>2026-08-27T06:16:28.032Z</time>
      </trkpt>
      <trkpt lat="47.84258" lon="6.91542">
        <ele>1116.8</ele>
        <time>2026-08-27T06:16:29.039Z</time>
      </trkpt>
      <trkpt lat="47.84258" lon="6.91542">
        <ele>1116.7</ele>
        <time>2026-08-27T06:16:30.047Z</time>
      </trkpt>
      <trkpt lat="47.84258" lon="6.91541">
        <ele>1116.5</ele>
        <time>2026-08-27T06:16:31.054Z</time>
      </trkpt>
      <trkpt lat="47.84258" lon="6.91541">
        <ele>1116.4</ele>
        <time>2026-08-27T06:16:32.062Z</time>
      </trkpt>
      <trkpt lat="47.84258" lon="6.91541">
        <ele>1116.5</ele>
        <time>2026-08-27T06:16:33.070Z</time>
      </trkpt>
      <trkpt lat="47.84258" lon="6.91541">
        <ele>1117</ele>
        <time>2026-08-27T06:16:34.078Z</time>
      </trkpt>
      <trkpt lat="47.84258" lon="6.91541">
        <ele>1117.2</ele>
        <time>2026-08-27T06:16:35.086Z</time>
      </trkpt>
      <trkpt lat="47.84258" lon="6.91541">
        <ele>1117.1</ele>
        <time>2026-08-27T06:16:37.001Z</time>
      </trkpt>
      <trkpt lat="47.84258" lon="6.91541">
        <ele>1117.2</ele>
        <time>2026-08-27T06:16:38.008Z</time>
      </trkpt>
      <trkpt lat="47.84258" lon="6.91541">
        <ele>1117.2</ele>
        <time>2026-08-27T06:16:39.016Z</time>
      </trkpt>
      <trkpt lat="47.84258" lon="6.91541">
        <ele>1117.4</ele>
        <time>2026-08-27T06:16:40.025Z</time>
      </trkpt>
      <trkpt lat="47.84258" lon="6.91541">
        <ele>1117.1</ele>
        <time>2026-08-27T06:16:41.033Z</time>
      </trkpt>
      <trkpt lat="47.84258" lon="6.91541">
        <ele>1117</ele>
        <time>2026-08-27T06:16:42.040Z</time>
      </trkpt>
      <trkpt lat="47.84258" lon="6.91541">
        <ele>1117.1</ele>
        <time>2026-08-27T06:16:43.049Z</time>
      </trkpt>
      <trkpt lat="47.84258" lon="6.91541">
        <ele>1117</ele>
        <time>2026-08-27T06:16:44.056Z</time>
      </trkpt>
      <trkpt lat="47.84258" lon="6.91541">
        <ele>1117.1</ele>
        <time>2026-08-27T06:16:45.063Z</time>
      </trkpt>
      <trkpt lat="47.84258" lon="6.91541">
        <ele>1117</ele>
        <time>2026-08-27T06:16:46.071Z</time>
      </trkpt>
      <trkpt lat="47.84258" lon="6.91541">
        <ele>1117</ele>
        <time>2026-08-27T06:16:47.079Z</time>
      </trkpt>
      <trkpt lat="47.84258" lon="6.91541">
        <ele>1117.1</ele>
        <time>2026-08-27T06:16:48.088Z</time>
      </trkpt>
      <trkpt lat="47.84258" lon="6.91541">
        <ele>1117.2</ele>
        <time>2026-08-27T06:16:49.096Z</time>
      </trkpt>
      <trkpt lat="47.84258" lon="6.91541">
        <ele>1117.2</ele>
        <time>2026-08-27T06:16:50.103Z</time>
      </trkpt>
      <trkpt lat="47.84258" lon="6.91541">
        <ele>1117.6</ele>
        <time>2026-08-27T06:16:52.018Z</time>
      </trkpt>
      <trkpt lat="47.84258" lon="6.91541">
        <ele>1117.7</ele>
        <time>2026-08-27T06:16:53.026Z</time>
      </trkpt>
      <trkpt lat="47.84258" lon="6.91542">
        <ele>1117.6</ele>
        <time>2026-08-27T06:16:54.033Z</time>
      </trkpt>
      <trkpt lat="47.84258" lon="6.91542">
        <ele>1117.7</ele>
        <time>2026-08-27T06:16:55.042Z</time>
      </trkpt>
      <trkpt lat="47.84258" lon="6.91542">
        <ele>1117.6</ele>
        <time>2026-08-27T06:16:56.050Z</time>
      </trkpt>
      <trkpt lat="47.84258" lon="6.91542">
        <ele>1117.6</ele>
        <time>2026-08-27T06:16:57.057Z</time>
      </trkpt>
      <trkpt lat="47.84258" lon="6.91542">
        <ele>1117.7</ele>
        <time>2026-08-27T06:16:58.065Z</time>
      </trkpt>
      <trkpt lat="47.84258" lon="6.91542">
        <ele>1117.6</ele>
        <time>2026-08-27T06:16:59.073Z</time>
      </trkpt>
      <trkpt lat="47.84258" lon="6.91542">
        <ele>1117</ele>
        <time>2026-08-27T06:17:00.082Z</time>
      </trkpt>
      <trkpt lat="47.84258" lon="6.91542">
        <ele>1117.1</ele>
        <time>2026-08-27T06:17:01.088Z</time>
      </trkpt>
      <trkpt lat="47.84258" lon="6.91542">
        <ele>1117.4</ele>
        <time>2026-08-27T06:17:03.003Z</time>
      </trkpt>
      <trkpt lat="47.84258" lon="6.91542">
        <ele>1117.2</ele>
        <time>2026-08-27T06:17:04.011Z</time>
      </trkpt>
      <trkpt lat="47.84258" lon="6.91542">
        <ele>1117</ele>
        <time>2026-08-27T06:17:05.019Z</time>
      </trkpt>
      <trkpt lat="47.84258" lon="6.91542">
        <ele>1117</ele>
        <time>2026-08-27T06:17:06.028Z</time>
      </trkpt>
      <trkpt lat="47.84259" lon="6.91542">
        <ele>1116.9</ele>
        <time>2026-08-27T06:17:07.035Z</time>
      </trkpt>
      <trkpt lat="47.84259" lon="6.91542">
        <ele>1116.8</ele>
        <time>2026-08-27T06:17:08.043Z</time>
      </trkpt>
      <trkpt lat="47.84259" lon="6.91542">
        <ele>1116.8</ele>
        <time>2026-08-27T06:17:09.050Z</time>
      </trkpt>
      <trkpt lat="47.84259" lon="6.91542">
        <ele>1116.9</ele>
        <time>2026-08-27T06:17:10.059Z</time>
      </trkpt>
      <trkpt lat="47.84259" lon="6.91542">
        <ele>1116.6</ele>
        <time>2026-08-27T06:17:11.067Z</time>
      </trkpt>
      <trkpt lat="47.84259" lon="6.91542">
        <ele>1116.7</ele>
        <time>2026-08-27T06:17:12.074Z</time>
      </trkpt>
      <trkpt lat="47.84259" lon="6.91542">
        <ele>1116.7</ele>
        <time>2026-08-27T06:17:13.082Z</time>
      </trkpt>
      <trkpt lat="47.84259" lon="6.91542">
        <ele>1116.7</ele>
        <time>2026-08-27T06:17:14.090Z</time>
      </trkpt>
      <trkpt lat="47.84259" lon="6.91542">
        <ele>1116.9</ele>
        <time>2026-08-27T06:17:16.006Z</time>
      </trkpt>
      <trkpt lat="47.84259" lon="6.91542">
        <ele>1116.9</ele>
        <time>2026-08-27T06:17:17.013Z</time>
      </trkpt>
      <trkpt lat="47.84259" lon="6.91542">
        <ele>1117</ele>
        <time>2026-08-27T06:17:18.020Z</time>
      </trkpt>
      <trkpt lat="47.84259" lon="6.91542">
        <ele>1117</ele>
        <time>2026-08-27T06:17:19.028Z</time>
      </trkpt>
      <trkpt lat="47.84259" lon="6.91542">
        <ele>1117.1</ele>
        <time>2026-08-27T06:17:20.037Z</time>
      </trkpt>
      <trkpt lat="47.84259" lon="6.91542">
        <ele>1117.4</ele>
        <time>2026-08-27T06:17:21.044Z</time>
      </trkpt>
      <trkpt lat="47.84259" lon="6.91542">
        <ele>1117.3</ele>
        <time>2026-08-27T06:17:22.052Z</time>
      </trkpt>
      <trkpt lat="47.84259" lon="6.91542">
        <ele>1117.2</ele>
        <time>2026-08-27T06:17:23.061Z</time>
      </trkpt>
      <trkpt lat="47.84259" lon="6.91542">
        <ele>1117.1</ele>
        <time>2026-08-27T06:17:24.069Z</time>
      </trkpt>
      <trkpt lat="47.84259" lon="6.91542">
        <ele>1117.3</ele>
        <time>2026-08-27T06:17:25.075Z</time>
      </trkpt>
      <trkpt lat="47.84259" lon="6.91542">
        <ele>1117.6</ele>
        <time>2026-08-27T06:17:26.084Z</time>
      </trkpt>
      <trkpt lat="47.84259" lon="6.91542">
        <ele>1117.7</ele>
        <time>2026-08-27T06:17:27.998Z</time>
      </trkpt>
      <trkpt lat="47.84259" lon="6.91542">
        <ele>1117.8</ele>
        <time>2026-08-27T06:17:29.006Z</time>
      </trkpt>
      <trkpt lat="47.84259" lon="6.91542">
        <ele>1117.8</ele>
        <time>2026-08-27T06:17:30.014Z</time>
      </trkpt>
      <trkpt lat="47.84258" lon="6.91542">
        <ele>1117.8</ele>
        <time>2026-08-27T06:17:31.022Z</time>
      </trkpt>
      <trkpt lat="47.84258" lon="6.91542">
        <ele>1117.7</ele>
        <time>2026-08-27T06:17:32.031Z</time>
      </trkpt>
      <trkpt lat="47.84258" lon="6.91542">
        <ele>1117.6</ele>
        <time>2026-08-27T06:17:33.038Z</time>
      </trkpt>
      <trkpt lat="47.84258" lon="6.91542">
        <ele>1117.7</ele>
        <time>2026-08-27T06:17:34.045Z</time>
      </trkpt>
      <trkpt lat="47.84258" lon="6.91542">
        <ele>1117.7</ele>
        <time>2026-08-27T06:17:35.054Z</time>
      </trkpt>
      <trkpt lat="47.84258" lon="6.91542">
        <ele>1117.6</ele>
        <time>2026-08-27T06:17:36.061Z</time>
      </trkpt>
      <trkpt lat="47.84258" lon="6.91541">
        <ele>1117.6</ele>
        <time>2026-08-27T06:17:37.069Z</time>
      </trkpt>
      <trkpt lat="47.84258" lon="6.91541">
        <ele>1117.8</ele>
        <time>2026-08-27T06:17:38.077Z</time>
      </trkpt>
      <trkpt lat="47.84258" lon="6.91541">
        <ele>1117.9</ele>
        <time>2026-08-27T06:17:39.085Z</time>
      </trkpt>
      <trkpt lat="47.84258" lon="6.91541">
        <ele>1117.8</ele>
        <time>2026-08-27T06:17:40.093Z</time>
      </trkpt>
      <trkpt lat="47.84258" lon="6.91541">
        <ele>1117.7</ele>
        <time>2026-08-27T06:17:42.007Z</time>
      </trkpt>
      <trkpt lat="47.84258" lon="6.91541">
        <ele>1117.7</ele>
        <time>2026-08-27T06:17:43.015Z</time>
      </trkpt>
      <trkpt lat="47.84258" lon="6.91541">
        <ele>1117.6</ele>
        <time>2026-08-27T06:17:44.023Z</time>
      </trkpt>
      <trkpt lat="47.84258" lon="6.91541">
        <ele>1117.6</ele>
        <time>2026-08-27T06:17:45.032Z</time>
      </trkpt>
      <trkpt lat="47.84258" lon="6.91541">
        <ele>1117.7</ele>
        <time>2026-08-27T06:17:46.039Z</time>
      </trkpt>
      <trkpt lat="47.84258" lon="6.91541">
        <ele>1117.7</ele>
        <time>2026-08-27T06:17:47.047Z</time>
      </trkpt>
      <trkpt lat="47.84258" lon="6.91541">
        <ele>1117.7</ele>
        <time>2026-08-27T06:17:48.055Z</time>
      </trkpt>
      <trkpt lat="47.84258" lon="6.91541">
        <ele>1117.7</ele>
        <time>2026-08-27T06:17:49.064Z</time>
      </trkpt>
      <trkpt lat="47.84258" lon="6.91541">
        <ele>1117.8</ele>
        <time>2026-08-27T06:17:50.070Z</time>
      </trkpt>
      <trkpt lat="47.84258" lon="6.91541">
        <ele>1118.2</ele>
        <time>2026-08-27T06:17:51.079Z</time>
      </trkpt>
      <trkpt lat="47.84258" lon="6.91541">
        <ele>1117.8</ele>
        <time>2026-08-27T06:17:52.086Z</time>
      </trkpt>
      <trkpt lat="47.84258" lon="6.91541">
        <ele>1118</ele>
        <time>2026-08-27T06:17:53.095Z</time>
      </trkpt>
      <trkpt lat="47.84258" lon="6.91541">
        <ele>1118.3</ele>
        <time>2026-08-27T06:17:55.009Z</time>
      </trkpt>
      <trkpt lat="47.84258" lon="6.91541">
        <ele>1118.6</ele>
        <time>2026-08-27T06:17:56.017Z</time>
      </trkpt>
      <trkpt lat="47.84258" lon="6.91541">
        <ele>1118.5</ele>
        <time>2026-08-27T06:17:57.025Z</time>
      </trkpt>
      <trkpt lat="47.84258" lon="6.91541">
        <ele>1118.6</ele>
        <time>2026-08-27T06:17:58.033Z</time>
      </trkpt>
      <trkpt lat="47.84258" lon="6.91541">
        <ele>1118.6</ele>
        <time>2026-08-27T06:17:59.040Z</time>
      </trkpt>
      <trkpt lat="47.84258" lon="6.91542">
        <ele>1118.5</ele>
        <time>2026-08-27T06:18:00.048Z</time>
      </trkpt>
      <trkpt lat="47.84258" lon="6.91542">
        <ele>1118.4</ele>
        <time>2026-08-27T06:18:01.057Z</time>
      </trkpt>
      <trkpt lat="47.84258" lon="6.91542">
        <ele>1118.6</ele>
        <time>2026-08-27T06:18:02.064Z</time>
      </trkpt>
      <trkpt lat="47.84258" lon="6.91542">
        <ele>1118.5</ele>
        <time>2026-08-27T06:18:03.072Z</time>
      </trkpt>
      <trkpt lat="47.84258" lon="6.91542">
        <ele>1118.5</ele>
        <time>2026-08-27T06:18:04.080Z</time>
      </trkpt>
      <trkpt lat="47.84258" lon="6.91542">
        <ele>1118.3</ele>
        <time>2026-08-27T06:18:05.089Z</time>
      </trkpt>
      <trkpt lat="47.84258" lon="6.91542">
        <ele>1117.6</ele>
        <time>2026-08-27T06:18:07.104Z</time>
      </trkpt>
      <trkpt lat="47.84258" lon="6.91542">
        <ele>1117.4</ele>
        <time>2026-08-27T06:18:09.018Z</time>
      </trkpt>
      <trkpt lat="47.84258" lon="6.91542">
        <ele>1117.5</ele>
        <time>2026-08-27T06:18:10.027Z</time>
      </trkpt>
      <trkpt lat="47.84258" lon="6.91542">
        <ele>1117.1</ele>
        <time>2026-08-27T06:18:11.034Z</time>
      </trkpt>
      <trkpt lat="47.84258" lon="6.91542">
        <ele>1117.1</ele>
        <time>2026-08-27T06:18:12.042Z</time>
      </trkpt>
      <trkpt lat="47.84258" lon="6.91542">
        <ele>1116.9</ele>
        <time>2026-08-27T06:18:13.050Z</time>
      </trkpt>
      <trkpt lat="47.84258" lon="6.91542">
        <ele>1117.4</ele>
        <time>2026-08-27T06:18:14.058Z</time>
      </trkpt>
      <trkpt lat="47.84258" lon="6.91542">
        <ele>1117.9</ele>
        <time>2026-08-27T06:18:15.065Z</time>
      </trkpt>
      <trkpt lat="47.84258" lon="6.91542">
        <ele>1117.9</ele>
        <time>2026-08-27T06:18:16.073Z</time>
      </trkpt>
      <trkpt lat="47.84258" lon="6.91542">
        <ele>1118</ele>
        <time>2026-08-27T06:18:17.081Z</time>
      </trkpt>
      <trkpt lat="47.84258" lon="6.91542">
        <ele>1118</ele>
        <time>2026-08-27T06:18:18.089Z</time>
      </trkpt>
      <trkpt lat="47.84258" lon="6.91542">
        <ele>1118</ele>
        <time>2026-08-27T06:18:19.097Z</time>
      </trkpt>
      <trkpt lat="47.84258" lon="6.91542">
        <ele>1117.9</ele>
        <time>2026-08-27T06:18:21.012Z</time>
      </trkpt>
      <trkpt lat="47.84258" lon="6.91542">
        <ele>1118.3</ele>
        <time>2026-08-27T06:18:22.020Z</time>
      </trkpt>
      <trkpt lat="47.84258" lon="6.91542">
        <ele>1118.2</ele>
        <time>2026-08-27T06:18:23.028Z</time>
      </trkpt>
      <trkpt lat="47.84258" lon="6.91542">
        <ele>1118</ele>
        <time>2026-08-27T06:18:24.035Z</time>
      </trkpt>
      <trkpt lat="47.84258" lon="6.91542">
        <ele>1117.9</ele>
        <time>2026-08-27T06:18:25.043Z</time>
      </trkpt>
      <trkpt lat="47.84258" lon="6.91542">
        <ele>1118</ele>
        <time>2026-08-27T06:18:26.052Z</time>
      </trkpt>
      <trkpt lat="47.84258" lon="6.91542">
        <ele>1118</ele>
        <time>2026-08-27T06:18:27.060Z</time>
      </trkpt>
      <trkpt lat="47.84258" lon="6.91542">
        <ele>1117.8</ele>
        <time>2026-08-27T06:18:28.068Z</time>
      </trkpt>
      <trkpt lat="47.84258" lon="6.91542">
        <ele>1117.8</ele>
        <time>2026-08-27T06:18:29.076Z</time>
      </trkpt>
      <trkpt lat="47.84258" lon="6.91542">
        <ele>1117.8</ele>
        <time>2026-08-27T06:18:30.083Z</time>
      </trkpt>
      <trkpt lat="47.84258" lon="6.91542">
        <ele>1117.8</ele>
        <time>2026-08-27T06:18:31.090Z</time>
      </trkpt>
      <trkpt lat="47.84258" lon="6.91542">
        <ele>1118.2</ele>
        <time>2026-08-27T06:18:32.098Z</time>
      </trkpt>
      <trkpt lat="47.84258" lon="6.91542">
        <ele>1118</ele>
        <time>2026-08-27T06:18:34.014Z</time>
      </trkpt>
      <trkpt lat="47.84258" lon="6.91542">
        <ele>1118</ele>
        <time>2026-08-27T06:18:35.021Z</time>
      </trkpt>
      <trkpt lat="47.84258" lon="6.91542">
        <ele>1117.9</ele>
        <time>2026-08-27T06:18:36.029Z</time>
      </trkpt>
      <trkpt lat="47.84258" lon="6.91542">
        <ele>1117.8</ele>
        <time>2026-08-27T06:18:37.037Z</time>
      </trkpt>
      <trkpt lat="47.84258" lon="6.91542">
        <ele>1117.8</ele>
        <time>2026-08-27T06:18:38.045Z</time>
      </trkpt>
      <trkpt lat="47.84258" lon="6.91542">
        <ele>1117.9</ele>
        <time>2026-08-27T06:18:39.053Z</time>
      </trkpt>
      <trkpt lat="47.84258" lon="6.91542">
        <ele>1117.7</ele>
        <time>2026-08-27T06:18:40.061Z</time>
      </trkpt>
      <trkpt lat="47.84258" lon="6.91542">
        <ele>1117.5</ele>
        <time>2026-08-27T06:18:41.069Z</time>
      </trkpt>
      <trkpt lat="47.84258" lon="6.91542">
        <ele>1117.5</ele>
        <time>2026-08-27T06:18:42.076Z</time>
      </trkpt>
      <trkpt lat="47.84258" lon="6.91542">
        <ele>1117.5</ele>
        <time>2026-08-27T06:18:43.084Z</time>
      </trkpt>
      <trkpt lat="47.84258" lon="6.91542">
        <ele>1117.6</ele>
        <time>2026-08-27T06:18:44.093Z</time>
      </trkpt>
      <trkpt lat="47.84258" lon="6.91542">
        <ele>1117.7</ele>
        <time>2026-08-27T06:18:46.008Z</time>
      </trkpt>
      <trkpt lat="47.84258" lon="6.91542">
        <ele>1117.6</ele>
        <time>2026-08-27T06:18:47.015Z</time>
      </trkpt>
      <trkpt lat="47.84258" lon="6.91542">
        <ele>1117.9</ele>
        <time>2026-08-27T06:18:48.023Z</time>
      </trkpt>
      <trkpt lat="47.84258" lon="6.91542">
        <ele>1117.9</ele>
        <time>2026-08-27T06:18:49.031Z</time>
      </trkpt>
      <trkpt lat="47.84258" lon="6.91542">
        <ele>1117.9</ele>
        <time>2026-08-27T06:18:50.039Z</time>
      </trkpt>
      <trkpt lat="47.84258" lon="6.91542">
        <ele>1117.9</ele>
        <time>2026-08-27T06:18:51.047Z</time>
      </trkpt>
      <trkpt lat="47.84258" lon="6.91542">
        <ele>1117.9</ele>
        <time>2026-08-27T06:18:52.054Z</time>
      </trkpt>
      <trkpt lat="47.84258" lon="6.91542">
        <ele>1118</ele>
        <time>2026-08-27T06:18:53.062Z</time>
      </trkpt>
      <trkpt lat="47.84258" lon="6.91541">
        <ele>1118.1</ele>
        <time>2026-08-27T06:18:54.071Z</time>
      </trkpt>
      <trkpt lat="47.84258" lon="6.91541">
        <ele>1118.1</ele>
        <time>2026-08-27T06:18:55.079Z</time>
      </trkpt>
      <trkpt lat="47.84258" lon="6.91541">
        <ele>1118</ele>
        <time>2026-08-27T06:18:56.086Z</time>
      </trkpt>
      <trkpt lat="47.84258" lon="6.91541">
        <ele>1118</ele>
        <time>2026-08-27T06:18:57.094Z</time>
      </trkpt>
      <trkpt lat="47.84258" lon="6.91541">
        <ele>1117.9</ele>
        <time>2026-08-27T06:18:58.101Z</time>
      </trkpt>
      <trkpt lat="47.84258" lon="6.91541">
        <ele>1118.5</ele>
        <time>2026-08-27T06:19:00.016Z</time>
      </trkpt>
      <trkpt lat="47.84258" lon="6.91541">
        <ele>1118.3</ele>
        <time>2026-08-27T06:19:01.024Z</time>
      </trkpt>
      <trkpt lat="47.84258" lon="6.91541">
        <ele>1118.4</ele>
        <time>2026-08-27T06:19:02.032Z</time>
      </trkpt>
      <trkpt lat="47.84258" lon="6.91541">
        <ele>1118.2</ele>
        <time>2026-08-27T06:19:03.040Z</time>
      </trkpt>
      <trkpt lat="47.84258" lon="6.91541">
        <ele>1118.3</ele>
        <time>2026-08-27T06:19:04.048Z</time>
      </trkpt>
      <trkpt lat="47.84258" lon="6.91541">
        <ele>1118.2</ele>
        <time>2026-08-27T06:19:05.056Z</time>
      </trkpt>
      <trkpt lat="47.84258" lon="6.91541">
        <ele>1118.4</ele>
        <time>2026-08-27T06:19:06.064Z</time>
      </trkpt>
      <trkpt lat="47.84258" lon="6.91541">
        <ele>1118.6</ele>
        <time>2026-08-27T06:19:07.071Z</time>
      </trkpt>
      <trkpt lat="47.84258" lon="6.91541">
        <ele>1118.8</ele>
        <time>2026-08-27T06:19:08.079Z</time>
      </trkpt>
      <trkpt lat="47.84258" lon="6.91541">
        <ele>1118.7</ele>
        <time>2026-08-27T06:19:09.994Z</time>
      </trkpt>
      <trkpt lat="47.84258" lon="6.91541">
        <ele>1118.6</ele>
        <time>2026-08-27T06:19:11.003Z</time>
      </trkpt>
      <trkpt lat="47.84258" lon="6.91541">
        <ele>1119</ele>
        <time>2026-08-27T06:19:12.010Z</time>
      </trkpt>
      <trkpt lat="47.84258" lon="6.91541">
        <ele>1118.9</ele>
        <time>2026-08-27T06:19:13.019Z</time>
      </trkpt>
      <trkpt lat="47.84258" lon="6.91541">
        <ele>1118.9</ele>
        <time>2026-08-27T06:19:14.027Z</time>
      </trkpt>
      <trkpt lat="47.84258" lon="6.91541">
        <ele>1118.9</ele>
        <time>2026-08-27T06:19:15.034Z</time>
      </trkpt>
      <trkpt lat="47.84258" lon="6.91541">
        <ele>1118.7</ele>
        <time>2026-08-27T06:19:16.041Z</time>
      </trkpt>
      <trkpt lat="47.84258" lon="6.91541">
        <ele>1118.7</ele>
        <time>2026-08-27T06:19:17.049Z</time>
      </trkpt>
      <trkpt lat="47.84257" lon="6.91541">
        <ele>1118.7</ele>
        <time>2026-08-27T06:19:18.058Z</time>
      </trkpt>
      <trkpt lat="47.84257" lon="6.91541">
        <ele>1118.7</ele>
        <time>2026-08-27T06:19:19.065Z</time>
      </trkpt>
      <trkpt lat="47.84257" lon="6.91541">
        <ele>1118.7</ele>
        <time>2026-08-27T06:19:20.073Z</time>
      </trkpt>
      <trkpt lat="47.84257" lon="6.91541">
        <ele>1118.9</ele>
        <time>2026-08-27T06:19:21.081Z</time>
      </trkpt>
      <trkpt lat="47.84257" lon="6.91541">
        <ele>1119</ele>
        <time>2026-08-27T06:19:22.090Z</time>
      </trkpt>
      <trkpt lat="47.84257" lon="6.91541">
        <ele>1119.1</ele>
        <time>2026-08-27T06:19:23.097Z</time>
      </trkpt>
      <trkpt lat="47.84257" lon="6.91541">
        <ele>1119.1</ele>
        <time>2026-08-27T06:19:25.012Z</time>
      </trkpt>
      <trkpt lat="47.84257" lon="6.91541">
        <ele>1119</ele>
        <time>2026-08-27T06:19:26.020Z</time>
      </trkpt>
      <trkpt lat="47.84257" lon="6.91541">
        <ele>1119</ele>
        <time>2026-08-27T06:19:27.027Z</time>
      </trkpt>
      <trkpt lat="47.84257" lon="6.91541">
        <ele>1118.9</ele>
        <time>2026-08-27T06:19:28.036Z</time>
      </trkpt>
      <trkpt lat="47.84257" lon="6.91541">
        <ele>1118.9</ele>
        <time>2026-08-27T06:19:29.043Z</time>
      </trkpt>
      <trkpt lat="47.84257" lon="6.91541">
        <ele>1118.9</ele>
        <time>2026-08-27T06:19:30.052Z</time>
      </trkpt>
      <trkpt lat="47.84257" lon="6.91541">
        <ele>1119</ele>
        <time>2026-08-27T06:19:31.060Z</time>
      </trkpt>
      <trkpt lat="47.84257" lon="6.91541">
        <ele>1118.5</ele>
        <time>2026-08-27T06:19:32.067Z</time>
      </trkpt>
      <trkpt lat="47.84257" lon="6.91541">
        <ele>1118.4</ele>
        <time>2026-08-27T06:19:33.075Z</time>
      </trkpt>
      <trkpt lat="47.84257" lon="6.91541">
        <ele>1118.2</ele>
        <time>2026-08-27T06:19:34.082Z</time>
      </trkpt>
      <trkpt lat="47.84257" lon="6.91541">
        <ele>1118.3</ele>
        <time>2026-08-27T06:19:35.090Z</time>
      </trkpt>
      <trkpt lat="47.84257" lon="6.91541">
        <ele>1118.5</ele>
        <time>2026-08-27T06:19:37.106Z</time>
      </trkpt>
      <trkpt lat="47.84257" lon="6.91541">
        <ele>1118.6</ele>
        <time>2026-08-27T06:19:39.021Z</time>
      </trkpt>
      <trkpt lat="47.84257" lon="6.91541">
        <ele>1118.8</ele>
        <time>2026-08-27T06:19:40.030Z</time>
      </trkpt>
      <trkpt lat="47.84257" lon="6.91541">
        <ele>1119.2</ele>
        <time>2026-08-27T06:19:41.037Z</time>
      </trkpt>
      <trkpt lat="47.84257" lon="6.91541">
        <ele>1119.3</ele>
        <time>2026-08-27T06:19:42.045Z</time>
      </trkpt>
      <trkpt lat="47.84257" lon="6.91541">
        <ele>1119.2</ele>
        <time>2026-08-27T06:19:43.054Z</time>
      </trkpt>
      <trkpt lat="47.84257" lon="6.91541">
        <ele>1119.2</ele>
        <time>2026-08-27T06:19:44.060Z</time>
      </trkpt>
      <trkpt lat="47.84257" lon="6.91541">
        <ele>1119</ele>
        <time>2026-08-27T06:19:45.068Z</time>
      </trkpt>
      <trkpt lat="47.84257" lon="6.91541">
        <ele>1119.1</ele>
        <time>2026-08-27T06:19:46.076Z</time>
      </trkpt>
      <trkpt lat="47.84257" lon="6.91541">
        <ele>1119.1</ele>
        <time>2026-08-27T06:19:47.084Z</time>
      </trkpt>
      <trkpt lat="47.84258" lon="6.91541">
        <ele>1119.1</ele>
        <time>2026-08-27T06:19:48.092Z</time>
      </trkpt>
      <trkpt lat="47.84258" lon="6.91541">
        <ele>1119</ele>
        <time>2026-08-27T06:19:49.101Z</time>
      </trkpt>
      <trkpt lat="47.84258" lon="6.91541">
        <ele>1119</ele>
        <time>2026-08-27T06:19:51.016Z</time>
      </trkpt>
      <trkpt lat="47.84258" lon="6.91541">
        <ele>1119</ele>
        <time>2026-08-27T06:19:52.023Z</time>
      </trkpt>
      <trkpt lat="47.84258" lon="6.91541">
        <ele>1119</ele>
        <time>2026-08-27T06:19:53.031Z</time>
      </trkpt>
      <trkpt lat="47.84258" lon="6.91541">
        <ele>1119</ele>
        <time>2026-08-27T06:19:54.038Z</time>
      </trkpt>
      <trkpt lat="47.84258" lon="6.91541">
        <ele>1118.9</ele>
        <time>2026-08-27T06:19:55.046Z</time>
      </trkpt>
      <trkpt lat="47.84258" lon="6.91541">
        <ele>1118.9</ele>
        <time>2026-08-27T06:19:56.054Z</time>
      </trkpt>
      <trkpt lat="47.84258" lon="6.91541">
        <ele>1119.3</ele>
        <time>2026-08-27T06:19:57.063Z</time>
      </trkpt>
      <trkpt lat="47.84258" lon="6.91541">
        <ele>1119.4</ele>
        <time>2026-08-27T06:19:58.071Z</time>
      </trkpt>
      <trkpt lat="47.84259" lon="6.9154">
        <ele>1119.4</ele>
        <time>2026-08-27T06:19:59.079Z</time>
      </trkpt>
      <trkpt lat="47.84259" lon="6.9154">
        <ele>1119.4</ele>
        <time>2026-08-27T06:20:00.086Z</time>
      </trkpt>
      <trkpt lat="47.84259" lon="6.9154">
        <ele>1119.4</ele>
        <time>2026-08-27T06:20:02.002Z</time>
      </trkpt>
      <trkpt lat="47.84259" lon="6.9154">
        <ele>1119.3</ele>
        <time>2026-08-27T06:20:03.008Z</time>
      </trkpt>
      <trkpt lat="47.84259" lon="6.9154">
        <ele>1119.4</ele>
        <time>2026-08-27T06:20:04.016Z</time>
      </trkpt>
      <trkpt lat="47.84259" lon="6.9154">
        <ele>1119.3</ele>
        <time>2026-08-27T06:20:05.025Z</time>
      </trkpt>
      <trkpt lat="47.84259" lon="6.9154">
        <ele>1119.4</ele>
        <time>2026-08-27T06:20:06.033Z</time>
      </trkpt>
      <trkpt lat="47.84259" lon="6.9154">
        <ele>1119.3</ele>
        <time>2026-08-27T06:20:07.040Z</time>
      </trkpt>
      <trkpt lat="47.84259" lon="6.9154">
        <ele>1119.2</ele>
        <time>2026-08-27T06:20:08.048Z</time>
      </trkpt>
      <trkpt lat="47.84259" lon="6.9154">
        <ele>1118.7</ele>
        <time>2026-08-27T06:20:09.056Z</time>
      </trkpt>
      <trkpt lat="47.84259" lon="6.9154">
        <ele>1119.1</ele>
        <time>2026-08-27T06:20:10.065Z</time>
      </trkpt>
      <trkpt lat="47.84259" lon="6.9154">
        <ele>1119.1</ele>
        <time>2026-08-27T06:20:11.073Z</time>
      </trkpt>
      <trkpt lat="47.84259" lon="6.9154">
        <ele>1119</ele>
        <time>2026-08-27T06:20:12.079Z</time>
      </trkpt>
      <trkpt lat="47.84259" lon="6.9154">
        <ele>1119</ele>
        <time>2026-08-27T06:20:13.087Z</time>
      </trkpt>
      <trkpt lat="47.84259" lon="6.9154">
        <ele>1118.7</ele>
        <time>2026-08-27T06:20:15.002Z</time>
      </trkpt>
      <trkpt lat="47.84259" lon="6.91541">
        <ele>1118.7</ele>
        <time>2026-08-27T06:20:16.010Z</time>
      </trkpt>
      <trkpt lat="47.84259" lon="6.91541">
        <ele>1118.6</ele>
        <time>2026-08-27T06:20:17.018Z</time>
      </trkpt>
      <trkpt lat="47.84259" lon="6.91541">
        <ele>1118.5</ele>
        <time>2026-08-27T06:20:18.026Z</time>
      </trkpt>
      <trkpt lat="47.84259" lon="6.91541">
        <ele>1118.6</ele>
        <time>2026-08-27T06:20:19.035Z</time>
      </trkpt>
      <trkpt lat="47.84259" lon="6.91541">
        <ele>1118.7</ele>
        <time>2026-08-27T06:20:20.042Z</time>
      </trkpt>
      <trkpt lat="47.84259" lon="6.91541">
        <ele>1118.6</ele>
        <time>2026-08-27T06:20:21.051Z</time>
      </trkpt>
      <trkpt lat="47.84259" lon="6.91541">
        <ele>1118.6</ele>
        <time>2026-08-27T06:20:22.057Z</time>
      </trkpt>
      <trkpt lat="47.84259" lon="6.91541">
        <ele>1118.8</ele>
        <time>2026-08-27T06:20:23.066Z</time>
      </trkpt>
      <trkpt lat="47.84259" lon="6.91541">
        <ele>1119</ele>
        <time>2026-08-27T06:20:24.074Z</time>
      </trkpt>
      <trkpt lat="47.84259" lon="6.91541">
        <ele>1118.8</ele>
        <time>2026-08-27T06:20:26.090Z</time>
      </trkpt>
      <trkpt lat="47.84259" lon="6.91541">
        <ele>1118.8</ele>
        <time>2026-08-27T06:20:27.097Z</time>
      </trkpt>
      <trkpt lat="47.84259" lon="6.91541">
        <ele>1118.7</ele>
        <time>2026-08-27T06:20:29.113Z</time>
      </trkpt>
      <trkpt lat="47.84259" lon="6.91541">
        <ele>1118.1</ele>
        <time>2026-08-27T06:20:31.027Z</time>
      </trkpt>
      <trkpt lat="47.84259" lon="6.91541">
        <ele>1117.9</ele>
        <time>2026-08-27T06:20:32.036Z</time>
      </trkpt>
      <trkpt lat="47.84259" lon="6.91541">
        <ele>1117.7</ele>
        <time>2026-08-27T06:20:33.044Z</time>
      </trkpt>
      <trkpt lat="47.84259" lon="6.91541">
        <ele>1117.7</ele>
        <time>2026-08-27T06:20:34.051Z</time>
      </trkpt>
      <trkpt lat="47.84259" lon="6.91541">
        <ele>1117.8</ele>
        <time>2026-08-27T06:20:35.060Z</time>
      </trkpt>
      <trkpt lat="47.84259" lon="6.91541">
        <ele>1117.8</ele>
        <time>2026-08-27T06:20:36.067Z</time>
      </trkpt>
      <trkpt lat="47.84259" lon="6.91541">
        <ele>1117.8</ele>
        <time>2026-08-27T06:20:37.075Z</time>
      </trkpt>
      <trkpt lat="47.84259" lon="6.91541">
        <ele>1117.5</ele>
        <time>2026-08-27T06:20:38.083Z</time>
      </trkpt>
      <trkpt lat="47.84259" lon="6.91541">
        <ele>1117.9</ele>
        <time>2026-08-27T06:20:39.091Z</time>
      </trkpt>
      <trkpt lat="47.84259" lon="6.91541">
        <ele>1118.1</ele>
        <time>2026-08-27T06:20:40.099Z</time>
      </trkpt>
      <trkpt lat="47.84259" lon="6.91541">
        <ele>1118</ele>
        <time>2026-08-27T06:20:42.013Z</time>
      </trkpt>
      <trkpt lat="47.84259" lon="6.91541">
        <ele>1118.1</ele>
        <time>2026-08-27T06:20:43.021Z</time>
      </trkpt>
      <trkpt lat="47.84259" lon="6.91541">
        <ele>1118</ele>
        <time>2026-08-27T06:20:44.029Z</time>
      </trkpt>
      <trkpt lat="47.84259" lon="6.91541">
        <ele>1117.9</ele>
        <time>2026-08-27T06:20:45.037Z</time>
      </trkpt>
      <trkpt lat="47.84259" lon="6.91541">
        <ele>1117.9</ele>
        <time>2026-08-27T06:20:46.046Z</time>
      </trkpt>
      <trkpt lat="47.84259" lon="6.91541">
        <ele>1117.6</ele>
        <time>2026-08-27T06:20:47.054Z</time>
      </trkpt>
      <trkpt lat="47.84259" lon="6.91541">
        <ele>1117.9</ele>
        <time>2026-08-27T06:20:48.061Z</time>
      </trkpt>
      <trkpt lat="47.84259" lon="6.91541">
        <ele>1117.7</ele>
        <time>2026-08-27T06:20:49.069Z</time>
      </trkpt>
      <trkpt lat="47.84259" lon="6.91541">
        <ele>1117.9</ele>
        <time>2026-08-27T06:20:50.076Z</time>
      </trkpt>
      <trkpt lat="47.84259" lon="6.91541">
        <ele>1117.9</ele>
        <time>2026-08-27T06:20:51.084Z</time>
      </trkpt>
      <trkpt lat="47.84259" lon="6.91541">
        <ele>1117.8</ele>
        <time>2026-08-27T06:20:52.092Z</time>
      </trkpt>
      <trkpt lat="47.84259" lon="6.91541">
        <ele>1117.9</ele>
        <time>2026-08-27T06:20:54.007Z</time>
      </trkpt>
      <trkpt lat="47.84259" lon="6.91541">
        <ele>1117.8</ele>
        <time>2026-08-27T06:20:55.016Z</time>
      </trkpt>
      <trkpt lat="47.84259" lon="6.9154">
        <ele>1117.9</ele>
        <time>2026-08-27T06:20:56.023Z</time>
      </trkpt>
      <trkpt lat="47.84259" lon="6.9154">
        <ele>1118.2</ele>
        <time>2026-08-27T06:20:57.031Z</time>
      </trkpt>
      <trkpt lat="47.84259" lon="6.9154">
        <ele>1118.3</ele>
        <time>2026-08-27T06:20:58.039Z</time>
      </trkpt>
      <trkpt lat="47.84259" lon="6.9154">
        <ele>1118.4</ele>
        <time>2026-08-27T06:20:59.048Z</time>
      </trkpt>
      <trkpt lat="47.84259" lon="6.9154">
        <ele>1118.4</ele>
        <time>2026-08-27T06:21:00.054Z</time>
      </trkpt>
      <trkpt lat="47.84259" lon="6.9154">
        <ele>1118.6</ele>
        <time>2026-08-27T06:21:01.062Z</time>
      </trkpt>
      <trkpt lat="47.84259" lon="6.9154">
        <ele>1118.3</ele>
        <time>2026-08-27T06:21:02.070Z</time>
      </trkpt>
      <trkpt lat="47.84259" lon="6.9154">
        <ele>1118.4</ele>
        <time>2026-08-27T06:21:03.078Z</time>
      </trkpt>
      <trkpt lat="47.84259" lon="6.91541">
        <ele>1118.4</ele>
        <time>2026-08-27T06:21:04.087Z</time>
      </trkpt>
      <trkpt lat="47.84259" lon="6.91541">
        <ele>1118.5</ele>
        <time>2026-08-27T06:21:05.094Z</time>
      </trkpt>
      <trkpt lat="47.84259" lon="6.91541">
        <ele>1118.2</ele>
        <time>2026-08-27T06:21:07.009Z</time>
      </trkpt>
      <trkpt lat="47.84259" lon="6.91541">
        <ele>1118.2</ele>
        <time>2026-08-27T06:21:08.017Z</time>
      </trkpt>
      <trkpt lat="47.84259" lon="6.91541">
        <ele>1118.1</ele>
        <time>2026-08-27T06:21:09.026Z</time>
      </trkpt>
      <trkpt lat="47.84259" lon="6.91541">
        <ele>1118.3</ele>
        <time>2026-08-27T06:21:10.032Z</time>
      </trkpt>
      <trkpt lat="47.84259" lon="6.91541">
        <ele>1118.2</ele>
        <time>2026-08-27T06:21:11.040Z</time>
      </trkpt>
      <trkpt lat="47.84259" lon="6.91541">
        <ele>1118.1</ele>
        <time>2026-08-27T06:21:12.048Z</time>
      </trkpt>
      <trkpt lat="47.84259" lon="6.91541">
        <ele>1118.1</ele>
        <time>2026-08-27T06:21:13.057Z</time>
      </trkpt>
      <trkpt lat="47.84259" lon="6.91541">
        <ele>1118</ele>
        <time>2026-08-27T06:21:14.064Z</time>
      </trkpt>
      <trkpt lat="47.84259" lon="6.91541">
        <ele>1118</ele>
        <time>2026-08-27T06:21:15.072Z</time>
      </trkpt>
      <trkpt lat="47.84259" lon="6.91541">
        <ele>1118.2</ele>
        <time>2026-08-27T06:21:16.080Z</time>
      </trkpt>
      <trkpt lat="47.84259" lon="6.91541">
        <ele>1118.2</ele>
        <time>2026-08-27T06:21:17.088Z</time>
      </trkpt>
      <trkpt lat="47.84259" lon="6.91541">
        <ele>1118.4</ele>
        <time>2026-08-27T06:21:18.095Z</time>
      </trkpt>
      <trkpt lat="47.84259" lon="6.91541">
        <ele>1118.2</ele>
        <time>2026-08-27T06:21:20.010Z</time>
      </trkpt>
      <trkpt lat="47.84259" lon="6.91541">
        <ele>1118.4</ele>
        <time>2026-08-27T06:21:21.019Z</time>
      </trkpt>
      <trkpt lat="47.84259" lon="6.91541">
        <ele>1118.5</ele>
        <time>2026-08-27T06:21:22.027Z</time>
      </trkpt>
      <trkpt lat="47.84259" lon="6.91541">
        <ele>1118.8</ele>
        <time>2026-08-27T06:21:23.034Z</time>
      </trkpt>
      <trkpt lat="47.84259" lon="6.91541">
        <ele>1118.9</ele>
        <time>2026-08-27T06:21:24.042Z</time>
      </trkpt>
      <trkpt lat="47.84259" lon="6.91541">
        <ele>1118.9</ele>
        <time>2026-08-27T06:21:25.050Z</time>
      </trkpt>
      <trkpt lat="47.84259" lon="6.91541">
        <ele>1119</ele>
        <time>2026-08-27T06:21:26.058Z</time>
      </trkpt>
      <trkpt lat="47.84259" lon="6.91541">
        <ele>1118.9</ele>
        <time>2026-08-27T06:21:27.066Z</time>
      </trkpt>
      <trkpt lat="47.84259" lon="6.91541">
        <ele>1118.4</ele>
        <time>2026-08-27T06:21:28.073Z</time>
      </trkpt>
      <trkpt lat="47.84259" lon="6.91541">
        <ele>1118.2</ele>
        <time>2026-08-27T06:21:29.081Z</time>
      </trkpt>
      <trkpt lat="47.84259" lon="6.91541">
        <ele>1118.3</ele>
        <time>2026-08-27T06:21:30.089Z</time>
      </trkpt>
      <trkpt lat="47.84259" lon="6.91541">
        <ele>1118</ele>
        <time>2026-08-27T06:21:31.098Z</time>
      </trkpt>
      <trkpt lat="47.84259" lon="6.91541">
        <ele>1118</ele>
        <time>2026-08-27T06:21:32.105Z</time>
      </trkpt>
      <trkpt lat="47.84259" lon="6.91541">
        <ele>1118.3</ele>
        <time>2026-08-27T06:21:34.020Z</time>
      </trkpt>
      <trkpt lat="47.84259" lon="6.91541">
        <ele>1118.4</ele>
        <time>2026-08-27T06:21:35.028Z</time>
      </trkpt>
      <trkpt lat="47.84259" lon="6.91542">
        <ele>1118.3</ele>
        <time>2026-08-27T06:21:36.036Z</time>
      </trkpt>
      <trkpt lat="47.84259" lon="6.91542">
        <ele>1118.3</ele>
        <time>2026-08-27T06:21:37.044Z</time>
      </trkpt>
      <trkpt lat="47.84259" lon="6.91542">
        <ele>1118.4</ele>
        <time>2026-08-27T06:21:38.051Z</time>
      </trkpt>
      <trkpt lat="47.84259" lon="6.91542">
        <ele>1118.6</ele>
        <time>2026-08-27T06:21:39.060Z</time>
      </trkpt>
      <trkpt lat="47.84259" lon="6.91542">
        <ele>1118.7</ele>
        <time>2026-08-27T06:21:40.067Z</time>
      </trkpt>
      <trkpt lat="47.84259" lon="6.91542">
        <ele>1118.6</ele>
        <time>2026-08-27T06:21:41.076Z</time>
      </trkpt>
      <trkpt lat="47.84259" lon="6.91542">
        <ele>1118.5</ele>
        <time>2026-08-27T06:21:42.083Z</time>
      </trkpt>
      <trkpt lat="47.84259" lon="6.91542">
        <ele>1118.3</ele>
        <time>2026-08-27T06:21:43.091Z</time>
      </trkpt>
      <trkpt lat="47.84259" lon="6.91542">
        <ele>1118.7</ele>
        <time>2026-08-27T06:21:44.100Z</time>
      </trkpt>
      <trkpt lat="47.84259" lon="6.91542">
        <ele>1118.8</ele>
        <time>2026-08-27T06:21:46.014Z</time>
      </trkpt>
      <trkpt lat="47.84259" lon="6.91542">
        <ele>1118.9</ele>
        <time>2026-08-27T06:21:47.022Z</time>
      </trkpt>
      <trkpt lat="47.84259" lon="6.91542">
        <ele>1118.8</ele>
        <time>2026-08-27T06:21:48.029Z</time>
      </trkpt>
      <trkpt lat="47.84259" lon="6.91542">
        <ele>1118.8</ele>
        <time>2026-08-27T06:21:49.038Z</time>
      </trkpt>
      <trkpt lat="47.84259" lon="6.91542">
        <ele>1118.8</ele>
        <time>2026-08-27T06:21:50.045Z</time>
      </trkpt>
      <trkpt lat="47.84259" lon="6.91542">
        <ele>1118.8</ele>
        <time>2026-08-27T06:21:51.053Z</time>
      </trkpt>
      <trkpt lat="47.84259" lon="6.91542">
        <ele>1119</ele>
        <time>2026-08-27T06:21:52.061Z</time>
      </trkpt>
      <trkpt lat="47.84259" lon="6.91542">
        <ele>1118.9</ele>
        <time>2026-08-27T06:21:53.070Z</time>
      </trkpt>
      <trkpt lat="47.84259" lon="6.91542">
        <ele>1118.9</ele>
        <time>2026-08-27T06:21:54.077Z</time>
      </trkpt>
      <trkpt lat="47.84259" lon="6.91542">
        <ele>1118.9</ele>
        <time>2026-08-27T06:21:55.085Z</time>
      </trkpt>
      <trkpt lat="47.84259" lon="6.91542">
        <ele>1118.9</ele>
        <time>2026-08-27T06:21:56.092Z</time>
      </trkpt>
      <trkpt lat="47.84259" lon="6.91542">
        <ele>1118.9</ele>
        <time>2026-08-27T06:21:57.100Z</time>
      </trkpt>
      <trkpt lat="47.84259" lon="6.91542">
        <ele>1118.3</ele>
        <time>2026-08-27T06:21:59.015Z</time>
      </trkpt>
      <trkpt lat="47.84259" lon="6.91542">
        <ele>1118.1</ele>
        <time>2026-08-27T06:22:00.023Z</time>
      </trkpt>
      <trkpt lat="47.84259" lon="6.91542">
        <ele>1118.1</ele>
        <time>2026-08-27T06:22:01.032Z</time>
      </trkpt>
      <trkpt lat="47.84259" lon="6.91542">
        <ele>1118.6</ele>
        <time>2026-08-27T06:22:02.039Z</time>
      </trkpt>
      <trkpt lat="47.84259" lon="6.91542">
        <ele>1118.7</ele>
        <time>2026-08-27T06:22:03.047Z</time>
      </trkpt>
      <trkpt lat="47.84259" lon="6.91542">
        <ele>1118.7</ele>
        <time>2026-08-27T06:22:04.056Z</time>
      </trkpt>
      <trkpt lat="47.84259" lon="6.91542">
        <ele>1118.6</ele>
        <time>2026-08-27T06:22:05.063Z</time>
      </trkpt>
      <trkpt lat="47.84259" lon="6.91542">
        <ele>1118.3</ele>
        <time>2026-08-27T06:22:06.070Z</time>
      </trkpt>
      <trkpt lat="47.84259" lon="6.91542">
        <ele>1118.3</ele>
        <time>2026-08-27T06:22:07.079Z</time>
      </trkpt>
      <trkpt lat="47.84259" lon="6.91542">
        <ele>1118.3</ele>
        <time>2026-08-27T06:22:08.087Z</time>
      </trkpt>
      <trkpt lat="47.84259" lon="6.91542">
        <ele>1118.1</ele>
        <time>2026-08-27T06:22:10.002Z</time>
      </trkpt>
      <trkpt lat="47.84259" lon="6.91542">
        <ele>1118.1</ele>
        <time>2026-08-27T06:22:11.009Z</time>
      </trkpt>
      <trkpt lat="47.84259" lon="6.91542">
        <ele>1118</ele>
        <time>2026-08-27T06:22:12.018Z</time>
      </trkpt>
      <trkpt lat="47.84259" lon="6.91542">
        <ele>1118.3</ele>
        <time>2026-08-27T06:22:13.025Z</time>
      </trkpt>
      <trkpt lat="47.84259" lon="6.91542">
        <ele>1118.3</ele>
        <time>2026-08-27T06:22:14.033Z</time>
      </trkpt>
      <trkpt lat="47.84259" lon="6.91542">
        <ele>1118.5</ele>
        <time>2026-08-27T06:22:15.040Z</time>
      </trkpt>
      <trkpt lat="47.84259" lon="6.91542">
        <ele>1118.6</ele>
        <time>2026-08-27T06:22:16.048Z</time>
      </trkpt>
      <trkpt lat="47.84259" lon="6.91542">
        <ele>1118.6</ele>
        <time>2026-08-27T06:22:17.057Z</time>
      </trkpt>
      <trkpt lat="47.84259" lon="6.91542">
        <ele>1118.6</ele>
        <time>2026-08-27T06:22:18.065Z</time>
      </trkpt>
      <trkpt lat="47.84259" lon="6.91542">
        <ele>1118.6</ele>
        <time>2026-08-27T06:22:19.073Z</time>
      </trkpt>
      <trkpt lat="47.84259" lon="6.91542">
        <ele>1118.7</ele>
        <time>2026-08-27T06:22:20.081Z</time>
      </trkpt>
      <trkpt lat="47.84259" lon="6.91542">
        <ele>1119.1</ele>
        <time>2026-08-27T06:22:21.088Z</time>
      </trkpt>
      <trkpt lat="47.84259" lon="6.91542">
        <ele>1119</ele>
        <time>2026-08-27T06:22:22.097Z</time>
      </trkpt>
      <trkpt lat="47.84259" lon="6.91542">
        <ele>1119.1</ele>
        <time>2026-08-27T06:22:24.011Z</time>
      </trkpt>
      <trkpt lat="47.84259" lon="6.91542">
        <ele>1119.1</ele>
        <time>2026-08-27T06:22:25.018Z</time>
      </trkpt>
      <trkpt lat="47.84259" lon="6.91542">
        <ele>1118.5</ele>
        <time>2026-08-27T06:22:26.026Z</time>
      </trkpt>
      <trkpt lat="47.84259" lon="6.91542">
        <ele>1118.5</ele>
        <time>2026-08-27T06:22:27.035Z</time>
      </trkpt>
      <trkpt lat="47.84259" lon="6.91542">
        <ele>1118.3</ele>
        <time>2026-08-27T06:22:28.042Z</time>
      </trkpt>
      <trkpt lat="47.84259" lon="6.91542">
        <ele>1118</ele>
        <time>2026-08-27T06:22:29.051Z</time>
      </trkpt>
      <trkpt lat="47.84259" lon="6.91542">
        <ele>1118</ele>
        <time>2026-08-27T06:22:30.058Z</time>
      </trkpt>
      <trkpt lat="47.84259" lon="6.91541">
        <ele>1118.5</ele>
        <time>2026-08-27T06:22:31.066Z</time>
      </trkpt>
      <trkpt lat="47.84259" lon="6.91541">
        <ele>1118.5</ele>
        <time>2026-08-27T06:22:32.074Z</time>
      </trkpt>
      <trkpt lat="47.84259" lon="6.91541">
        <ele>1118.6</ele>
        <time>2026-08-27T06:22:33.082Z</time>
      </trkpt>
      <trkpt lat="47.84259" lon="6.91541">
        <ele>1118.5</ele>
        <time>2026-08-27T06:22:34.089Z</time>
      </trkpt>
      <trkpt lat="47.84259" lon="6.91541">
        <ele>1118.8</ele>
        <time>2026-08-27T06:22:36.004Z</time>
      </trkpt>
      <trkpt lat="47.84259" lon="6.91541">
        <ele>1118.8</ele>
        <time>2026-08-27T06:22:37.012Z</time>
      </trkpt>
      <trkpt lat="47.84259" lon="6.91541">
        <ele>1118.9</ele>
        <time>2026-08-27T06:22:38.020Z</time>
      </trkpt>
      <trkpt lat="47.84259" lon="6.91541">
        <ele>1118.8</ele>
        <time>2026-08-27T06:22:39.028Z</time>
      </trkpt>
      <trkpt lat="47.84259" lon="6.91541">
        <ele>1118.6</ele>
        <time>2026-08-27T06:22:40.036Z</time>
      </trkpt>
      <trkpt lat="47.84259" lon="6.91541">
        <ele>1118.5</ele>
        <time>2026-08-27T06:22:41.045Z</time>
      </trkpt>
      <trkpt lat="47.84259" lon="6.91541">
        <ele>1119</ele>
        <time>2026-08-27T06:22:42.052Z</time>
      </trkpt>
      <trkpt lat="47.84259" lon="6.91541">
        <ele>1118.9</ele>
        <time>2026-08-27T06:22:43.059Z</time>
      </trkpt>
      <trkpt lat="47.84259" lon="6.91541">
        <ele>1119.1</ele>
        <time>2026-08-27T06:22:44.067Z</time>
      </trkpt>
      <trkpt lat="47.84259" lon="6.91541">
        <ele>1119.2</ele>
        <time>2026-08-27T06:22:45.076Z</time>
      </trkpt>
      <trkpt lat="47.84259" lon="6.91541">
        <ele>1119.2</ele>
        <time>2026-08-27T06:22:46.083Z</time>
      </trkpt>
      <trkpt lat="47.84259" lon="6.91541">
        <ele>1119.1</ele>
        <time>2026-08-27T06:22:47.091Z</time>
      </trkpt>
      <trkpt lat="47.84259" lon="6.91541">
        <ele>1119</ele>
        <time>2026-08-27T06:22:48.100Z</time>
      </trkpt>
      <trkpt lat="47.84259" lon="6.91541">
        <ele>1119.2</ele>
        <time>2026-08-27T06:22:50.014Z</time>
      </trkpt>
      <trkpt lat="47.84259" lon="6.91541">
        <ele>1118.9</ele>
        <time>2026-08-27T06:22:51.023Z</time>
      </trkpt>
      <trkpt lat="47.84259" lon="6.91541">
        <ele>1119.1</ele>
        <time>2026-08-27T06:22:52.030Z</time>
      </trkpt>
      <trkpt lat="47.84259" lon="6.91541">
        <ele>1119.1</ele>
        <time>2026-08-27T06:22:53.038Z</time>
      </trkpt>
      <trkpt lat="47.84259" lon="6.91541">
        <ele>1119.1</ele>
        <time>2026-08-27T06:22:54.045Z</time>
      </trkpt>
      <trkpt lat="47.84259" lon="6.91541">
        <ele>1119.1</ele>
        <time>2026-08-27T06:22:55.053Z</time>
      </trkpt>
      <trkpt lat="47.84259" lon="6.91541">
        <ele>1119.4</ele>
        <time>2026-08-27T06:22:56.061Z</time>
      </trkpt>
      <trkpt lat="47.84259" lon="6.91541">
        <ele>1119.2</ele>
        <time>2026-08-27T06:22:57.070Z</time>
      </trkpt>
      <trkpt lat="47.84259" lon="6.91541">
        <ele>1119.1</ele>
        <time>2026-08-27T06:22:58.077Z</time>
      </trkpt>
      <trkpt lat="47.84259" lon="6.91541">
        <ele>1119.1</ele>
        <time>2026-08-27T06:23:00.092Z</time>
      </trkpt>
      <trkpt lat="47.84259" lon="6.91541">
        <ele>1119.1</ele>
        <time>2026-08-27T06:23:02.007Z</time>
      </trkpt>
      <trkpt lat="47.84259" lon="6.91541">
        <ele>1118.9</ele>
        <time>2026-08-27T06:23:03.016Z</time>
      </trkpt>
      <trkpt lat="47.84259" lon="6.91541">
        <ele>1119</ele>
        <time>2026-08-27T06:23:04.023Z</time>
      </trkpt>
      <trkpt lat="47.84259" lon="6.91541">
        <ele>1119.1</ele>
        <time>2026-08-27T06:23:05.032Z</time>
      </trkpt>
      <trkpt lat="47.84259" lon="6.91541">
        <ele>1119</ele>
        <time>2026-08-27T06:23:06.039Z</time>
      </trkpt>
      <trkpt lat="47.84259" lon="6.91541">
        <ele>1119</ele>
        <time>2026-08-27T06:23:07.048Z</time>
      </trkpt>
      <trkpt lat="47.84259" lon="6.91541">
        <ele>1118.8</ele>
        <time>2026-08-27T06:23:08.055Z</time>
      </trkpt>
      <trkpt lat="47.84259" lon="6.9154">
        <ele>1118.7</ele>
        <time>2026-08-27T06:23:09.063Z</time>
      </trkpt>
      <trkpt lat="47.84259" lon="6.9154">
        <ele>1118.9</ele>
        <time>2026-08-27T06:23:10.071Z</time>
      </trkpt>
      <trkpt lat="47.84259" lon="6.9154">
        <ele>1118.8</ele>
        <time>2026-08-27T06:23:11.079Z</time>
      </trkpt>
      <trkpt lat="47.84259" lon="6.9154">
        <ele>1119</ele>
        <time>2026-08-27T06:23:12.086Z</time>
      </trkpt>
      <trkpt lat="47.84259" lon="6.9154">
        <ele>1119</ele>
        <time>2026-08-27T06:23:14.002Z</time>
      </trkpt>
      <trkpt lat="47.84259" lon="6.9154">
        <ele>1119.1</ele>
        <time>2026-08-27T06:23:15.009Z</time>
      </trkpt>
      <trkpt lat="47.84259" lon="6.9154">
        <ele>1119</ele>
        <time>2026-08-27T06:23:16.017Z</time>
      </trkpt>
      <trkpt lat="47.84259" lon="6.9154">
        <ele>1119</ele>
        <time>2026-08-27T06:23:17.026Z</time>
      </trkpt>
      <trkpt lat="47.84259" lon="6.9154">
        <ele>1119.2</ele>
        <time>2026-08-27T06:23:18.033Z</time>
      </trkpt>
      <trkpt lat="47.84259" lon="6.9154">
        <ele>1119.1</ele>
        <time>2026-08-27T06:23:19.041Z</time>
      </trkpt>
      <trkpt lat="47.84259" lon="6.9154">
        <ele>1119.1</ele>
        <time>2026-08-27T06:23:20.048Z</time>
      </trkpt>
      <trkpt lat="47.84259" lon="6.9154">
        <ele>1119.2</ele>
        <time>2026-08-27T06:23:21.056Z</time>
      </trkpt>
      <trkpt lat="47.84259" lon="6.9154">
        <ele>1119.2</ele>
        <time>2026-08-27T06:23:22.064Z</time>
      </trkpt>
      <trkpt lat="47.84259" lon="6.9154">
        <ele>1119</ele>
        <time>2026-08-27T06:23:23.072Z</time>
      </trkpt>
      <trkpt lat="47.84259" lon="6.9154">
        <ele>1118.8</ele>
        <time>2026-08-27T06:23:24.080Z</time>
      </trkpt>
      <trkpt lat="47.84259" lon="6.9154">
        <ele>1119</ele>
        <time>2026-08-27T06:23:26.096Z</time>
      </trkpt>
      <trkpt lat="47.84259" lon="6.9154">
        <ele>1118.6</ele>
        <time>2026-08-27T06:23:28.012Z</time>
      </trkpt>
      <trkpt lat="47.84258" lon="6.9154">
        <ele>1118.7</ele>
        <time>2026-08-27T06:23:29.018Z</time>
      </trkpt>
      <trkpt lat="47.84258" lon="6.9154">
        <ele>1118.7</ele>
        <time>2026-08-27T06:23:30.026Z</time>
      </trkpt>
      <trkpt lat="47.84258" lon="6.9154">
        <ele>1118.7</ele>
        <time>2026-08-27T06:23:31.035Z</time>
      </trkpt>
      <trkpt lat="47.84258" lon="6.9154">
        <ele>1118.5</ele>
        <time>2026-08-27T06:23:32.042Z</time>
      </trkpt>
      <trkpt lat="47.84258" lon="6.9154">
        <ele>1118.6</ele>
        <time>2026-08-27T06:23:33.051Z</time>
      </trkpt>
      <trkpt lat="47.84258" lon="6.9154">
        <ele>1118.7</ele>
        <time>2026-08-27T06:23:34.058Z</time>
      </trkpt>
      <trkpt lat="47.84258" lon="6.9154">
        <ele>1118.4</ele>
        <time>2026-08-27T06:23:35.974Z</time>
      </trkpt>
      <trkpt lat="47.84258" lon="6.9154">
        <ele>1118.3</ele>
        <time>2026-08-27T06:23:36.982Z</time>
      </trkpt>
      <trkpt lat="47.84258" lon="6.9154">
        <ele>1118</ele>
        <time>2026-08-27T06:23:37.989Z</time>
      </trkpt>
      <trkpt lat="47.84258" lon="6.9154">
        <ele>1118.3</ele>
        <time>2026-08-27T06:23:38.996Z</time>
      </trkpt>
      <trkpt lat="47.84258" lon="6.9154">
        <ele>1118.2</ele>
        <time>2026-08-27T06:23:40.004Z</time>
      </trkpt>
      <trkpt lat="47.84258" lon="6.9154">
        <ele>1118.2</ele>
        <time>2026-08-27T06:23:41.012Z</time>
      </trkpt>
      <trkpt lat="47.84258" lon="6.9154">
        <ele>1118.1</ele>
        <time>2026-08-27T06:23:42.020Z</time>
      </trkpt>
      <trkpt lat="47.84258" lon="6.9154">
        <ele>1118.3</ele>
        <time>2026-08-27T06:23:43.029Z</time>
      </trkpt>
      <trkpt lat="47.84258" lon="6.9154">
        <ele>1118.2</ele>
        <time>2026-08-27T06:23:44.036Z</time>
      </trkpt>
      <trkpt lat="47.84258" lon="6.9154">
        <ele>1118</ele>
        <time>2026-08-27T06:23:45.044Z</time>
      </trkpt>
      <trkpt lat="47.84258" lon="6.9154">
        <ele>1118.3</ele>
        <time>2026-08-27T06:23:46.052Z</time>
      </trkpt>
      <trkpt lat="47.84258" lon="6.9154">
        <ele>1118.2</ele>
        <time>2026-08-27T06:23:47.060Z</time>
      </trkpt>
      <trkpt lat="47.84258" lon="6.9154">
        <ele>1118.4</ele>
        <time>2026-08-27T06:23:48.975Z</time>
      </trkpt>
      <trkpt lat="47.84258" lon="6.9154">
        <ele>1118.4</ele>
        <time>2026-08-27T06:23:49.984Z</time>
      </trkpt>
      <trkpt lat="47.84258" lon="6.9154">
        <ele>1118.5</ele>
        <time>2026-08-27T06:23:50.992Z</time>
      </trkpt>
      <trkpt lat="47.84258" lon="6.9154">
        <ele>1118.5</ele>
        <time>2026-08-27T06:23:52.000Z</time>
      </trkpt>
      <trkpt lat="47.84258" lon="6.9154">
        <ele>1118.3</ele>
        <time>2026-08-27T06:23:53.008Z</time>
      </trkpt>
      <trkpt lat="47.84258" lon="6.9154">
        <ele>1118</ele>
        <time>2026-08-27T06:23:54.015Z</time>
      </trkpt>
      <trkpt lat="47.84258" lon="6.91541">
        <ele>1117.8</ele>
        <time>2026-08-27T06:23:55.024Z</time>
      </trkpt>
      <trkpt lat="47.84258" lon="6.91541">
        <ele>1117.9</ele>
        <time>2026-08-27T06:23:56.031Z</time>
      </trkpt>
      <trkpt lat="47.84258" lon="6.91541">
        <ele>1117.9</ele>
        <time>2026-08-27T06:23:57.040Z</time>
      </trkpt>
      <trkpt lat="47.84258" lon="6.91541">
        <ele>1118.1</ele>
        <time>2026-08-27T06:23:58.047Z</time>
      </trkpt>
      <trkpt lat="47.84258" lon="6.91541">
        <ele>1118.2</ele>
        <time>2026-08-27T06:23:59.054Z</time>
      </trkpt>
      <trkpt lat="47.84258" lon="6.91541">
        <ele>1118.2</ele>
        <time>2026-08-27T06:24:00.063Z</time>
      </trkpt>
      <trkpt lat="47.84258" lon="6.91541">
        <ele>1118</ele>
        <time>2026-08-27T06:24:01.071Z</time>
      </trkpt>
      <trkpt lat="47.84258" lon="6.91541">
        <ele>1117.9</ele>
        <time>2026-08-27T06:24:03.086Z</time>
      </trkpt>
      <trkpt lat="47.84258" lon="6.91541">
        <ele>1117.7</ele>
        <time>2026-08-27T06:24:05.002Z</time>
      </trkpt>
      <trkpt lat="47.84258" lon="6.91541">
        <ele>1117.6</ele>
        <time>2026-08-27T06:24:06.010Z</time>
      </trkpt>
      <trkpt lat="47.84258" lon="6.91541">
        <ele>1117.8</ele>
        <time>2026-08-27T06:24:07.019Z</time>
      </trkpt>
      <trkpt lat="47.84258" lon="6.91541">
        <ele>1117.8</ele>
        <time>2026-08-27T06:24:08.026Z</time>
      </trkpt>
      <trkpt lat="47.84258" lon="6.91541">
        <ele>1117.6</ele>
        <time>2026-08-27T06:24:09.033Z</time>
      </trkpt>
      <trkpt lat="47.84258" lon="6.91541">
        <ele>1117.5</ele>
        <time>2026-08-27T06:24:10.041Z</time>
      </trkpt>
      <trkpt lat="47.84258" lon="6.91541">
        <ele>1117.6</ele>
        <time>2026-08-27T06:24:11.050Z</time>
      </trkpt>
      <trkpt lat="47.84258" lon="6.91541">
        <ele>1117.8</ele>
        <time>2026-08-27T06:24:12.057Z</time>
      </trkpt>
      <trkpt lat="47.84258" lon="6.91541">
        <ele>1117.7</ele>
        <time>2026-08-27T06:24:13.065Z</time>
      </trkpt>
      <trkpt lat="47.84258" lon="6.91541">
        <ele>1117.5</ele>
        <time>2026-08-27T06:24:15.081Z</time>
      </trkpt>
      <trkpt lat="47.84258" lon="6.91541">
        <ele>1117.5</ele>
        <time>2026-08-27T06:24:16.089Z</time>
      </trkpt>
      <trkpt lat="47.84258" lon="6.91541">
        <ele>1117.6</ele>
        <time>2026-08-27T06:24:18.006Z</time>
      </trkpt>
      <trkpt lat="47.84258" lon="6.91541">
        <ele>1117.6</ele>
        <time>2026-08-27T06:24:19.014Z</time>
      </trkpt>
      <trkpt lat="47.84258" lon="6.91541">
        <ele>1117.6</ele>
        <time>2026-08-27T06:24:20.021Z</time>
      </trkpt>
      <trkpt lat="47.84258" lon="6.91541">
        <ele>1117.6</ele>
        <time>2026-08-27T06:24:21.030Z</time>
      </trkpt>
      <trkpt lat="47.84258" lon="6.91541">
        <ele>1117.5</ele>
        <time>2026-08-27T06:24:22.037Z</time>
      </trkpt>
      <trkpt lat="47.84258" lon="6.91541">
        <ele>1117.2</ele>
        <time>2026-08-27T06:24:23.046Z</time>
      </trkpt>
      <trkpt lat="47.84258" lon="6.91541">
        <ele>1117</ele>
        <time>2026-08-27T06:24:24.054Z</time>
      </trkpt>
      <trkpt lat="47.84258" lon="6.91541">
        <ele>1117.2</ele>
        <time>2026-08-27T06:24:25.061Z</time>
      </trkpt>
      <trkpt lat="47.84258" lon="6.91541">
        <ele>1117.7</ele>
        <time>2026-08-27T06:24:26.069Z</time>
      </trkpt>
      <trkpt lat="47.84258" lon="6.91541">
        <ele>1118</ele>
        <time>2026-08-27T06:24:27.078Z</time>
      </trkpt>
      <trkpt lat="47.84258" lon="6.91541">
        <ele>1117.9</ele>
        <time>2026-08-27T06:24:29.093Z</time>
      </trkpt>
      <trkpt lat="47.84258" lon="6.91541">
        <ele>1117.8</ele>
        <time>2026-08-27T06:24:31.008Z</time>
      </trkpt>
      <trkpt lat="47.84258" lon="6.91541">
        <ele>1117.7</ele>
        <time>2026-08-27T06:24:32.016Z</time>
      </trkpt>
      <trkpt lat="47.84258" lon="6.91541">
        <ele>1117.5</ele>
        <time>2026-08-27T06:24:33.025Z</time>
      </trkpt>
      <trkpt lat="47.84258" lon="6.91541">
        <ele>1117.4</ele>
        <time>2026-08-27T06:24:34.032Z</time>
      </trkpt>
      <trkpt lat="47.84258" lon="6.91541">
        <ele>1117.2</ele>
        <time>2026-08-27T06:24:35.040Z</time>
      </trkpt>
      <trkpt lat="47.84258" lon="6.91541">
        <ele>1117.1</ele>
        <time>2026-08-27T06:24:36.048Z</time>
      </trkpt>
      <trkpt lat="47.84258" lon="6.91541">
        <ele>1117</ele>
        <time>2026-08-27T06:24:37.057Z</time>
      </trkpt>
      <trkpt lat="47.84258" lon="6.91541">
        <ele>1117</ele>
        <time>2026-08-27T06:24:38.064Z</time>
      </trkpt>
      <trkpt lat="47.84258" lon="6.91541">
        <ele>1117.6</ele>
        <time>2026-08-27T06:24:39.073Z</time>
      </trkpt>
      <trkpt lat="47.84258" lon="6.91541">
        <ele>1117.8</ele>
        <time>2026-08-27T06:24:41.088Z</time>
      </trkpt>
      <trkpt lat="47.84258" lon="6.91541">
        <ele>1117.6</ele>
        <time>2026-08-27T06:24:42.096Z</time>
      </trkpt>
      <trkpt lat="47.84258" lon="6.91541">
        <ele>1117.7</ele>
        <time>2026-08-27T06:24:43.104Z</time>
      </trkpt>
      <trkpt lat="47.84258" lon="6.91541">
        <ele>1117.7</ele>
        <time>2026-08-27T06:24:45.120Z</time>
      </trkpt>
      <trkpt lat="47.84258" lon="6.91541">
        <ele>1117.5</ele>
        <time>2026-08-27T06:24:47.035Z</time>
      </trkpt>
      <trkpt lat="47.84258" lon="6.91541">
        <ele>1117.5</ele>
        <time>2026-08-27T06:24:48.044Z</time>
      </trkpt>
      <trkpt lat="47.84258" lon="6.91541">
        <ele>1117.7</ele>
        <time>2026-08-27T06:24:49.052Z</time>
      </trkpt>
      <trkpt lat="47.84258" lon="6.91541">
        <ele>1117.5</ele>
        <time>2026-08-27T06:24:50.059Z</time>
      </trkpt>
      <trkpt lat="47.84258" lon="6.91541">
        <ele>1117.7</ele>
        <time>2026-08-27T06:24:51.067Z</time>
      </trkpt>
      <trkpt lat="47.84258" lon="6.91541">
        <ele>1117.3</ele>
        <time>2026-08-27T06:24:53.083Z</time>
      </trkpt>
      <trkpt lat="47.84258" lon="6.91541">
        <ele>1117.5</ele>
        <time>2026-08-27T06:24:55.099Z</time>
      </trkpt>
      <trkpt lat="47.84258" lon="6.91541">
        <ele>1117.5</ele>
        <time>2026-08-27T06:24:57.115Z</time>
      </trkpt>
      <trkpt lat="47.84258" lon="6.91541">
        <ele>1117.6</ele>
        <time>2026-08-27T06:24:59.031Z</time>
      </trkpt>
      <trkpt lat="47.84258" lon="6.91541">
        <ele>1117.6</ele>
        <time>2026-08-27T06:25:00.038Z</time>
      </trkpt>
      <trkpt lat="47.84258" lon="6.91541">
        <ele>1117.8</ele>
        <time>2026-08-27T06:25:01.047Z</time>
      </trkpt>
      <trkpt lat="47.84258" lon="6.91541">
        <ele>1117.7</ele>
        <time>2026-08-27T06:25:02.055Z</time>
      </trkpt>
      <trkpt lat="47.84258" lon="6.91541">
        <ele>1117.6</ele>
        <time>2026-08-27T06:25:03.062Z</time>
      </trkpt>
      <trkpt lat="47.84258" lon="6.91541">
        <ele>1117.5</ele>
        <time>2026-08-27T06:25:04.071Z</time>
      </trkpt>
      <trkpt lat="47.84258" lon="6.91541">
        <ele>1117.4</ele>
        <time>2026-08-27T06:25:05.078Z</time>
      </trkpt>
      <trkpt lat="47.84258" lon="6.91541">
        <ele>1117.2</ele>
        <time>2026-08-27T06:25:07.095Z</time>
      </trkpt>
      <trkpt lat="47.84257" lon="6.91541">
        <ele>1117.4</ele>
        <time>2026-08-27T06:25:09.009Z</time>
      </trkpt>
      <trkpt lat="47.84257" lon="6.91541">
        <ele>1117.6</ele>
        <time>2026-08-27T06:25:10.017Z</time>
      </trkpt>
      <trkpt lat="47.84257" lon="6.91541">
        <ele>1117.3</ele>
        <time>2026-08-27T06:25:11.127Z</time>
      </trkpt>
      <trkpt lat="47.84257" lon="6.91541">
        <ele>1117.5</ele>
        <time>2026-08-27T06:25:13.041Z</time>
      </trkpt>
      <trkpt lat="47.84257" lon="6.91541">
        <ele>1117.6</ele>
        <time>2026-08-27T06:25:14.050Z</time>
      </trkpt>
      <trkpt lat="47.84257" lon="6.91541">
        <ele>1117.6</ele>
        <time>2026-08-27T06:25:15.058Z</time>
      </trkpt>
      <trkpt lat="47.84257" lon="6.91541">
        <ele>1117.7</ele>
        <time>2026-08-27T06:25:16.065Z</time>
      </trkpt>
      <trkpt lat="47.84257" lon="6.91541">
        <ele>1117.7</ele>
        <time>2026-08-27T06:25:17.073Z</time>
      </trkpt>
      <trkpt lat="47.84257" lon="6.91541">
        <ele>1118.1</ele>
        <time>2026-08-27T06:25:19.089Z</time>
      </trkpt>
      <trkpt lat="47.84257" lon="6.91541">
        <ele>1117.8</ele>
        <time>2026-08-27T06:25:21.004Z</time>
      </trkpt>
      <trkpt lat="47.84257" lon="6.91541">
        <ele>1117.6</ele>
        <time>2026-08-27T06:25:22.012Z</time>
      </trkpt>
      <trkpt lat="47.84257" lon="6.91541">
        <ele>1117.6</ele>
        <time>2026-08-27T06:25:23.021Z</time>
      </trkpt>
      <trkpt lat="47.84258" lon="6.91541">
        <ele>1117.8</ele>
        <time>2026-08-27T06:25:24.028Z</time>
      </trkpt>
      <trkpt lat="47.84258" lon="6.91541">
        <ele>1117.7</ele>
        <time>2026-08-27T06:25:25.037Z</time>
      </trkpt>
      <trkpt lat="47.84258" lon="6.91541">
        <ele>1117.6</ele>
        <time>2026-08-27T06:25:26.045Z</time>
      </trkpt>
      <trkpt lat="47.84258" lon="6.91541">
        <ele>1117.6</ele>
        <time>2026-08-27T06:25:27.052Z</time>
      </trkpt>
      <trkpt lat="47.84258" lon="6.91541">
        <ele>1117.8</ele>
        <time>2026-08-27T06:25:28.060Z</time>
      </trkpt>
      <trkpt lat="47.84258" lon="6.91541">
        <ele>1117.9</ele>
        <time>2026-08-27T06:25:29.069Z</time>
      </trkpt>
      <trkpt lat="47.84258" lon="6.91541">
        <ele>1118</ele>
        <time>2026-08-27T06:25:30.077Z</time>
      </trkpt>
      <trkpt lat="47.84258" lon="6.91541">
        <ele>1118</ele>
        <time>2026-08-27T06:25:31.085Z</time>
      </trkpt>
      <trkpt lat="47.84258" lon="6.91541">
        <ele>1117.9</ele>
        <time>2026-08-27T06:25:33.100Z</time>
      </trkpt>
      <trkpt lat="47.84258" lon="6.91541">
        <ele>1117.8</ele>
        <time>2026-08-27T06:25:34.108Z</time>
      </trkpt>
      <trkpt lat="47.84257" lon="6.91541">
        <ele>1117.7</ele>
        <time>2026-08-27T06:25:36.124Z</time>
      </trkpt>
      <trkpt lat="47.84257" lon="6.91541">
        <ele>1117.9</ele>
        <time>2026-08-27T06:25:38.040Z</time>
      </trkpt>
      <trkpt lat="47.84257" lon="6.91541">
        <ele>1118.1</ele>
        <time>2026-08-27T06:25:39.049Z</time>
      </trkpt>
      <trkpt lat="47.84257" lon="6.91541">
        <ele>1118.1</ele>
        <time>2026-08-27T06:25:40.056Z</time>
      </trkpt>
      <trkpt lat="47.84257" lon="6.91541">
        <ele>1118</ele>
        <time>2026-08-27T06:25:41.064Z</time>
      </trkpt>
      <trkpt lat="47.84257" lon="6.91541">
        <ele>1117.7</ele>
        <time>2026-08-27T06:25:42.073Z</time>
      </trkpt>
      <trkpt lat="47.84257" lon="6.91541">
        <ele>1117.1</ele>
        <time>2026-08-27T06:25:43.987Z</time>
      </trkpt>
      <trkpt lat="47.84257" lon="6.91541">
        <ele>1116.9</ele>
        <time>2026-08-27T06:25:45.097Z</time>
      </trkpt>
      <trkpt lat="47.84257" lon="6.91541">
        <ele>1116.8</ele>
        <time>2026-08-27T06:25:46.104Z</time>
      </trkpt>
      <trkpt lat="47.84257" lon="6.91541">
        <ele>1116.8</ele>
        <time>2026-08-27T06:25:48.120Z</time>
      </trkpt>
      <trkpt lat="47.84257" lon="6.91541">
        <ele>1116.8</ele>
        <time>2026-08-27T06:25:50.136Z</time>
      </trkpt>
      <trkpt lat="47.84257" lon="6.91541">
        <ele>1116.9</ele>
        <time>2026-08-27T06:25:52.051Z</time>
      </trkpt>
      <trkpt lat="47.84257" lon="6.91541">
        <ele>1117.2</ele>
        <time>2026-08-27T06:25:53.059Z</time>
      </trkpt>
      <trkpt lat="47.84257" lon="6.91541">
        <ele>1117.1</ele>
        <time>2026-08-27T06:25:54.068Z</time>
      </trkpt>
      <trkpt lat="47.84257" lon="6.91541">
        <ele>1117.1</ele>
        <time>2026-08-27T06:25:55.076Z</time>
      </trkpt>
      <trkpt lat="47.84257" lon="6.91541">
        <ele>1117.2</ele>
        <time>2026-08-27T06:25:56.083Z</time>
      </trkpt>
      <trkpt lat="47.84257" lon="6.91541">
        <ele>1117.4</ele>
        <time>2026-08-27T06:25:57.091Z</time>
      </trkpt>
      <trkpt lat="47.84257" lon="6.91541">
        <ele>1117.6</ele>
        <time>2026-08-27T06:25:58.099Z</time>
      </trkpt>
      <trkpt lat="47.84257" lon="6.91541">
        <ele>1117.6</ele>
        <time>2026-08-27T06:26:00.014Z</time>
      </trkpt>
      <trkpt lat="47.84257" lon="6.91541">
        <ele>1117.6</ele>
        <time>2026-08-27T06:26:01.022Z</time>
      </trkpt>
      <trkpt lat="47.84257" lon="6.91541">
        <ele>1117.4</ele>
        <time>2026-08-27T06:26:02.030Z</time>
      </trkpt>
      <trkpt lat="47.84257" lon="6.91541">
        <ele>1117.3</ele>
        <time>2026-08-27T06:26:03.038Z</time>
      </trkpt>
      <trkpt lat="47.84257" lon="6.91541">
        <ele>1117.2</ele>
        <time>2026-08-27T06:26:04.046Z</time>
      </trkpt>
      <trkpt lat="47.84257" lon="6.91541">
        <ele>1117.1</ele>
        <time>2026-08-27T06:26:05.054Z</time>
      </trkpt>
      <trkpt lat="47.84257" lon="6.91541">
        <ele>1117.2</ele>
        <time>2026-08-27T06:26:06.063Z</time>
      </trkpt>
      <trkpt lat="47.84257" lon="6.91541">
        <ele>1117.3</ele>
        <time>2026-08-27T06:26:07.070Z</time>
      </trkpt>
      <trkpt lat="47.84257" lon="6.91541">
        <ele>1117.2</ele>
        <time>2026-08-27T06:26:08.078Z</time>
      </trkpt>
      <trkpt lat="47.84257" lon="6.91541">
        <ele>1117.1</ele>
        <time>2026-08-27T06:26:09.086Z</time>
      </trkpt>
      <trkpt lat="47.84257" lon="6.91541">
        <ele>1117.3</ele>
        <time>2026-08-27T06:26:10.095Z</time>
      </trkpt>
      <trkpt lat="47.84257" lon="6.91541">
        <ele>1117.1</ele>
        <time>2026-08-27T06:26:11.102Z</time>
      </trkpt>
      <trkpt lat="47.84257" lon="6.91541">
        <ele>1117</ele>
        <time>2026-08-27T06:26:13.017Z</time>
      </trkpt>
      <trkpt lat="47.84257" lon="6.91541">
        <ele>1117.1</ele>
        <time>2026-08-27T06:26:14.026Z</time>
      </trkpt>
      <trkpt lat="47.84257" lon="6.91541">
        <ele>1116.9</ele>
        <time>2026-08-27T06:26:15.034Z</time>
      </trkpt>
      <trkpt lat="47.84257" lon="6.91541">
        <ele>1117.1</ele>
        <time>2026-08-27T06:26:16.042Z</time>
      </trkpt>
      <trkpt lat="47.84257" lon="6.91541">
        <ele>1117.2</ele>
        <time>2026-08-27T06:26:17.050Z</time>
      </trkpt>
      <trkpt lat="47.84257" lon="6.91541">
        <ele>1117.3</ele>
        <time>2026-08-27T06:26:18.058Z</time>
      </trkpt>
      <trkpt lat="47.84257" lon="6.91541">
        <ele>1116.9</ele>
        <time>2026-08-27T06:26:19.066Z</time>
      </trkpt>
      <trkpt lat="47.84257" lon="6.91541">
        <ele>1116.8</ele>
        <time>2026-08-27T06:26:20.073Z</time>
      </trkpt>
      <trkpt lat="47.84257" lon="6.91541">
        <ele>1116.8</ele>
        <time>2026-08-27T06:26:21.082Z</time>
      </trkpt>
      <trkpt lat="47.84257" lon="6.91541">
        <ele>1117</ele>
        <time>2026-08-27T06:26:22.089Z</time>
      </trkpt>
      <trkpt lat="47.84257" lon="6.91541">
        <ele>1117</ele>
        <time>2026-08-27T06:26:23.097Z</time>
      </trkpt>
      <trkpt lat="47.84257" lon="6.91541">
        <ele>1117.2</ele>
        <time>2026-08-27T06:26:25.012Z</time>
      </trkpt>
      <trkpt lat="47.84257" lon="6.91541">
        <ele>1117.5</ele>
        <time>2026-08-27T06:26:26.021Z</time>
      </trkpt>
      <trkpt lat="47.84257" lon="6.91541">
        <ele>1117.7</ele>
        <time>2026-08-27T06:26:27.028Z</time>
      </trkpt>
      <trkpt lat="47.84257" lon="6.91541">
        <ele>1117.9</ele>
        <time>2026-08-27T06:26:28.036Z</time>
      </trkpt>
      <trkpt lat="47.84257" lon="6.91541">
        <ele>1117.8</ele>
        <time>2026-08-27T06:26:29.044Z</time>
      </trkpt>
      <trkpt lat="47.84257" lon="6.91541">
        <ele>1117.8</ele>
        <time>2026-08-27T06:26:30.052Z</time>
      </trkpt>
      <trkpt lat="47.84257" lon="6.91541">
        <ele>1117.7</ele>
        <time>2026-08-27T06:26:31.060Z</time>
      </trkpt>
      <trkpt lat="47.84257" lon="6.91541">
        <ele>1117.6</ele>
        <time>2026-08-27T06:26:32.068Z</time>
      </trkpt>
      <trkpt lat="47.84257" lon="6.91541">
        <ele>1117.5</ele>
        <time>2026-08-27T06:26:33.076Z</time>
      </trkpt>
      <trkpt lat="47.84257" lon="6.91541">
        <ele>1117.3</ele>
        <time>2026-08-27T06:26:34.083Z</time>
      </trkpt>
      <trkpt lat="47.84257" lon="6.91541">
        <ele>1117.4</ele>
        <time>2026-08-27T06:26:35.092Z</time>
      </trkpt>
      <trkpt lat="47.84257" lon="6.91541">
        <ele>1117.4</ele>
        <time>2026-08-27T06:26:36.099Z</time>
      </trkpt>
      <trkpt lat="47.84257" lon="6.91541">
        <ele>1117.6</ele>
        <time>2026-08-27T06:26:38.016Z</time>
      </trkpt>
      <trkpt lat="47.84257" lon="6.91541">
        <ele>1117.4</ele>
        <time>2026-08-27T06:26:39.023Z</time>
      </trkpt>
      <trkpt lat="47.84257" lon="6.91541">
        <ele>1117.4</ele>
        <time>2026-08-27T06:26:40.030Z</time>
      </trkpt>
      <trkpt lat="47.84257" lon="6.91541">
        <ele>1117.4</ele>
        <time>2026-08-27T06:26:41.038Z</time>
      </trkpt>
      <trkpt lat="47.84257" lon="6.91541">
        <ele>1117.3</ele>
        <time>2026-08-27T06:26:42.047Z</time>
      </trkpt>
      <trkpt lat="47.84258" lon="6.91541">
        <ele>1117.4</ele>
        <time>2026-08-27T06:26:43.054Z</time>
      </trkpt>
      <trkpt lat="47.84258" lon="6.91541">
        <ele>1117.1</ele>
        <time>2026-08-27T06:26:44.062Z</time>
      </trkpt>
      <trkpt lat="47.84258" lon="6.91541">
        <ele>1117.3</ele>
        <time>2026-08-27T06:26:45.070Z</time>
      </trkpt>
      <trkpt lat="47.84258" lon="6.91541">
        <ele>1117.4</ele>
        <time>2026-08-27T06:26:46.078Z</time>
      </trkpt>
      <trkpt lat="47.84258" lon="6.91541">
        <ele>1117.5</ele>
        <time>2026-08-27T06:26:47.086Z</time>
      </trkpt>
      <trkpt lat="47.84258" lon="6.91541">
        <ele>1117.1</ele>
        <time>2026-08-27T06:26:48.094Z</time>
      </trkpt>
      <trkpt lat="47.84258" lon="6.91541">
        <ele>1117</ele>
        <time>2026-08-27T06:26:49.103Z</time>
      </trkpt>
      <trkpt lat="47.84258" lon="6.91541">
        <ele>1117.5</ele>
        <time>2026-08-27T06:26:51.017Z</time>
      </trkpt>
      <trkpt lat="47.84258" lon="6.91541">
        <ele>1117.6</ele>
        <time>2026-08-27T06:26:52.026Z</time>
      </trkpt>
      <trkpt lat="47.84258" lon="6.91541">
        <ele>1117.6</ele>
        <time>2026-08-27T06:26:53.033Z</time>
      </trkpt>
      <trkpt lat="47.84258" lon="6.91541">
        <ele>1117.6</ele>
        <time>2026-08-27T06:26:54.041Z</time>
      </trkpt>
      <trkpt lat="47.84258" lon="6.91541">
        <ele>1117.7</ele>
        <time>2026-08-27T06:26:55.049Z</time>
      </trkpt>
      <trkpt lat="47.84258" lon="6.91541">
        <ele>1117.8</ele>
        <time>2026-08-27T06:26:56.057Z</time>
      </trkpt>
      <trkpt lat="47.84258" lon="6.91541">
        <ele>1117.9</ele>
        <time>2026-08-27T06:26:57.065Z</time>
      </trkpt>
      <trkpt lat="47.84258" lon="6.91541">
        <ele>1117.8</ele>
        <time>2026-08-27T06:26:58.073Z</time>
      </trkpt>
      <trkpt lat="47.84258" lon="6.91541">
        <ele>1117.7</ele>
        <time>2026-08-27T06:26:59.081Z</time>
      </trkpt>
      <trkpt lat="47.84258" lon="6.91541">
        <ele>1117.5</ele>
        <time>2026-08-27T06:27:00.090Z</time>
      </trkpt>
      <trkpt lat="47.84258" lon="6.91541">
        <ele>1117.5</ele>
        <time>2026-08-27T06:27:01.097Z</time>
      </trkpt>
      <trkpt lat="47.84258" lon="6.91541">
        <ele>1117.3</ele>
        <time>2026-08-27T06:27:02.105Z</time>
      </trkpt>
      <trkpt lat="47.84258" lon="6.91541">
        <ele>1117.3</ele>
        <time>2026-08-27T06:27:04.020Z</time>
      </trkpt>
      <trkpt lat="47.84258" lon="6.91541">
        <ele>1117.4</ele>
        <time>2026-08-27T06:27:05.029Z</time>
      </trkpt>
      <trkpt lat="47.84258" lon="6.91541">
        <ele>1117.5</ele>
        <time>2026-08-27T06:27:06.036Z</time>
      </trkpt>
      <trkpt lat="47.84258" lon="6.91541">
        <ele>1117.4</ele>
        <time>2026-08-27T06:27:07.043Z</time>
      </trkpt>
      <trkpt lat="47.84258" lon="6.91541">
        <ele>1117.6</ele>
        <time>2026-08-27T06:27:08.051Z</time>
      </trkpt>
      <trkpt lat="47.84259" lon="6.91541">
        <ele>1117.6</ele>
        <time>2026-08-27T06:27:09.060Z</time>
      </trkpt>
      <trkpt lat="47.84259" lon="6.91541">
        <ele>1117.6</ele>
        <time>2026-08-27T06:27:10.068Z</time>
      </trkpt>
      <trkpt lat="47.84259" lon="6.91541">
        <ele>1117.2</ele>
        <time>2026-08-27T06:27:11.075Z</time>
      </trkpt>
      <trkpt lat="47.84259" lon="6.91541">
        <ele>1117.2</ele>
        <time>2026-08-27T06:27:12.083Z</time>
      </trkpt>
      <trkpt lat="47.84259" lon="6.91541">
        <ele>1117.1</ele>
        <time>2026-08-27T06:27:13.092Z</time>
      </trkpt>
      <trkpt lat="47.84259" lon="6.91541">
        <ele>1117.2</ele>
        <time>2026-08-27T06:27:15.107Z</time>
      </trkpt>
      <trkpt lat="47.84259" lon="6.91541">
        <ele>1116.8</ele>
        <time>2026-08-27T06:27:17.022Z</time>
      </trkpt>
      <trkpt lat="47.84259" lon="6.91541">
        <ele>1116.8</ele>
        <time>2026-08-27T06:27:18.030Z</time>
      </trkpt>
      <trkpt lat="47.84259" lon="6.91541">
        <ele>1116.9</ele>
        <time>2026-08-27T06:27:19.038Z</time>
      </trkpt>
      <trkpt lat="47.84259" lon="6.91541">
        <ele>1116.7</ele>
        <time>2026-08-27T06:27:20.046Z</time>
      </trkpt>
      <trkpt lat="47.84259" lon="6.91541">
        <ele>1116.8</ele>
        <time>2026-08-27T06:27:21.054Z</time>
      </trkpt>
      <trkpt lat="47.84259" lon="6.91541">
        <ele>1116.8</ele>
        <time>2026-08-27T06:27:22.063Z</time>
      </trkpt>
      <trkpt lat="47.84259" lon="6.91541">
        <ele>1116.9</ele>
        <time>2026-08-27T06:27:23.071Z</time>
      </trkpt>
      <trkpt lat="47.84259" lon="6.91541">
        <ele>1117.1</ele>
        <time>2026-08-27T06:27:24.079Z</time>
      </trkpt>
      <trkpt lat="47.84259" lon="6.91541">
        <ele>1117.3</ele>
        <time>2026-08-27T06:27:25.085Z</time>
      </trkpt>
      <trkpt lat="47.84259" lon="6.91541">
        <ele>1117.4</ele>
        <time>2026-08-27T06:27:27.102Z</time>
      </trkpt>
      <trkpt lat="47.84259" lon="6.91541">
        <ele>1117.6</ele>
        <time>2026-08-27T06:27:29.016Z</time>
      </trkpt>
      <trkpt lat="47.84259" lon="6.91541">
        <ele>1117.6</ele>
        <time>2026-08-27T06:27:30.024Z</time>
      </trkpt>
      <trkpt lat="47.84259" lon="6.91542">
        <ele>1117.5</ele>
        <time>2026-08-27T06:27:31.032Z</time>
      </trkpt>
      <trkpt lat="47.84259" lon="6.91542">
        <ele>1117.4</ele>
        <time>2026-08-27T06:27:32.040Z</time>
      </trkpt>
      <trkpt lat="47.84259" lon="6.91542">
        <ele>1117.4</ele>
        <time>2026-08-27T06:27:33.049Z</time>
      </trkpt>
      <trkpt lat="47.84259" lon="6.91542">
        <ele>1117.6</ele>
        <time>2026-08-27T06:27:34.056Z</time>
      </trkpt>
      <trkpt lat="47.84259" lon="6.91542">
        <ele>1117.7</ele>
        <time>2026-08-27T06:27:35.064Z</time>
      </trkpt>
      <trkpt lat="47.84259" lon="6.91542">
        <ele>1117.6</ele>
        <time>2026-08-27T06:27:36.072Z</time>
      </trkpt>
      <trkpt lat="47.84259" lon="6.91542">
        <ele>1117.8</ele>
        <time>2026-08-27T06:27:37.080Z</time>
      </trkpt>
      <trkpt lat="47.84259" lon="6.91542">
        <ele>1117.7</ele>
        <time>2026-08-27T06:27:38.088Z</time>
      </trkpt>
      <trkpt lat="47.84259" lon="6.91542">
        <ele>1117.7</ele>
        <time>2026-08-27T06:27:40.104Z</time>
      </trkpt>
      <trkpt lat="47.84259" lon="6.91542">
        <ele>1117.8</ele>
        <time>2026-08-27T06:27:41.113Z</time>
      </trkpt>
      <trkpt lat="47.84259" lon="6.91542">
        <ele>1118</ele>
        <time>2026-08-27T06:27:43.027Z</time>
      </trkpt>
      <trkpt lat="47.84259" lon="6.91542">
        <ele>1117.9</ele>
        <time>2026-08-27T06:27:44.034Z</time>
      </trkpt>
      <trkpt lat="47.84259" lon="6.91542">
        <ele>1118.2</ele>
        <time>2026-08-27T06:27:45.042Z</time>
      </trkpt>
      <trkpt lat="47.84259" lon="6.91542">
        <ele>1117.8</ele>
        <time>2026-08-27T06:27:46.050Z</time>
      </trkpt>
      <trkpt lat="47.84259" lon="6.91542">
        <ele>1117.6</ele>
        <time>2026-08-27T06:27:47.058Z</time>
      </trkpt>
      <trkpt lat="47.84259" lon="6.91542">
        <ele>1117.6</ele>
        <time>2026-08-27T06:27:48.066Z</time>
      </trkpt>
      <trkpt lat="47.84259" lon="6.91542">
        <ele>1117.6</ele>
        <time>2026-08-27T06:27:49.075Z</time>
      </trkpt>
      <trkpt lat="47.84259" lon="6.91542">
        <ele>1117.7</ele>
        <time>2026-08-27T06:27:50.082Z</time>
      </trkpt>
      <trkpt lat="47.84259" lon="6.91541">
        <ele>1117.7</ele>
        <time>2026-08-27T06:27:51.091Z</time>
      </trkpt>
      <trkpt lat="47.84259" lon="6.91541">
        <ele>1117.7</ele>
        <time>2026-08-27T06:27:52.098Z</time>
      </trkpt>
      <trkpt lat="47.84259" lon="6.91541">
        <ele>1117.9</ele>
        <time>2026-08-27T06:27:53.106Z</time>
      </trkpt>
      <trkpt lat="47.84259" lon="6.91541">
        <ele>1117.9</ele>
        <time>2026-08-27T06:27:55.021Z</time>
      </trkpt>
      <trkpt lat="47.84259" lon="6.91541">
        <ele>1118.3</ele>
        <time>2026-08-27T06:27:56.029Z</time>
      </trkpt>
      <trkpt lat="47.84258" lon="6.9154">
        <ele>1118.3</ele>
        <time>2026-08-27T06:27:57.037Z</time>
      </trkpt>
      <trkpt lat="47.84258" lon="6.9154">
        <ele>1118.1</ele>
        <time>2026-08-27T06:27:58.046Z</time>
      </trkpt>
      <trkpt lat="47.84258" lon="6.9154">
        <ele>1118</ele>
        <time>2026-08-27T06:27:59.054Z</time>
      </trkpt>
      <trkpt lat="47.84258" lon="6.9154">
        <ele>1117.9</ele>
        <time>2026-08-27T06:28:00.060Z</time>
      </trkpt>
      <trkpt lat="47.84258" lon="6.9154">
        <ele>1117.8</ele>
        <time>2026-08-27T06:28:01.068Z</time>
      </trkpt>
      <trkpt lat="47.84258" lon="6.9154">
        <ele>1117.8</ele>
        <time>2026-08-27T06:28:02.076Z</time>
      </trkpt>
      <trkpt lat="47.84258" lon="6.9154">
        <ele>1117.9</ele>
        <time>2026-08-27T06:28:03.084Z</time>
      </trkpt>
      <trkpt lat="47.84258" lon="6.9154">
        <ele>1118</ele>
        <time>2026-08-27T06:28:04.092Z</time>
      </trkpt>
      <trkpt lat="47.84258" lon="6.9154">
        <ele>1118.2</ele>
        <time>2026-08-27T06:28:06.008Z</time>
      </trkpt>
      <trkpt lat="47.84258" lon="6.9154">
        <ele>1118.1</ele>
        <time>2026-08-27T06:28:07.015Z</time>
      </trkpt>
      <trkpt lat="47.84258" lon="6.91539">
        <ele>1118.1</ele>
        <time>2026-08-27T06:28:08.023Z</time>
      </trkpt>
      <trkpt lat="47.84258" lon="6.91539">
        <ele>1118</ele>
        <time>2026-08-27T06:28:09.032Z</time>
      </trkpt>
      <trkpt lat="47.84258" lon="6.91539">
        <ele>1118.1</ele>
        <time>2026-08-27T06:28:10.039Z</time>
      </trkpt>
      <trkpt lat="47.84258" lon="6.91539">
        <ele>1118</ele>
        <time>2026-08-27T06:28:11.047Z</time>
      </trkpt>
      <trkpt lat="47.84258" lon="6.91539">
        <ele>1118.2</ele>
        <time>2026-08-27T06:28:12.056Z</time>
      </trkpt>
      <trkpt lat="47.84258" lon="6.91539">
        <ele>1118</ele>
        <time>2026-08-27T06:28:13.063Z</time>
      </trkpt>
      <trkpt lat="47.84258" lon="6.91539">
        <ele>1118.3</ele>
        <time>2026-08-27T06:28:14.071Z</time>
      </trkpt>
      <trkpt lat="47.84258" lon="6.91539">
        <ele>1117.7</ele>
        <time>2026-08-27T06:28:15.079Z</time>
      </trkpt>
      <trkpt lat="47.84258" lon="6.91539">
        <ele>1117.4</ele>
        <time>2026-08-27T06:28:16.087Z</time>
      </trkpt>
      <trkpt lat="47.84258" lon="6.91539">
        <ele>1117.4</ele>
        <time>2026-08-27T06:28:17.094Z</time>
      </trkpt>
      <trkpt lat="47.84258" lon="6.91539">
        <ele>1117.4</ele>
        <time>2026-08-27T06:28:18.102Z</time>
      </trkpt>
      <trkpt lat="47.84258" lon="6.91539">
        <ele>1117.4</ele>
        <time>2026-08-27T06:28:20.018Z</time>
      </trkpt>
      <trkpt lat="47.84258" lon="6.91539">
        <ele>1117.4</ele>
        <time>2026-08-27T06:28:21.026Z</time>
      </trkpt>
      <trkpt lat="47.84258" lon="6.91539">
        <ele>1117.6</ele>
        <time>2026-08-27T06:28:22.033Z</time>
      </trkpt>
      <trkpt lat="47.84258" lon="6.91539">
        <ele>1117.4</ele>
        <time>2026-08-27T06:28:23.042Z</time>
      </trkpt>
      <trkpt lat="47.84258" lon="6.91539">
        <ele>1117.3</ele>
        <time>2026-08-27T06:28:24.049Z</time>
      </trkpt>
      <trkpt lat="47.84258" lon="6.91539">
        <ele>1117.7</ele>
        <time>2026-08-27T06:28:25.057Z</time>
      </trkpt>
      <trkpt lat="47.84258" lon="6.91539">
        <ele>1117.7</ele>
        <time>2026-08-27T06:28:26.065Z</time>
      </trkpt>
      <trkpt lat="47.84258" lon="6.91539">
        <ele>1117.4</ele>
        <time>2026-08-27T06:28:27.073Z</time>
      </trkpt>
      <trkpt lat="47.84258" lon="6.91539">
        <ele>1117.3</ele>
        <time>2026-08-27T06:28:28.082Z</time>
      </trkpt>
      <trkpt lat="47.84258" lon="6.91539">
        <ele>1117.2</ele>
        <time>2026-08-27T06:28:29.089Z</time>
      </trkpt>
      <trkpt lat="47.84258" lon="6.91539">
        <ele>1117.1</ele>
        <time>2026-08-27T06:28:30.096Z</time>
      </trkpt>
      <trkpt lat="47.84258" lon="6.91539">
        <ele>1117.1</ele>
        <time>2026-08-27T06:28:31.104Z</time>
      </trkpt>
      <trkpt lat="47.84258" lon="6.91539">
        <ele>1117.3</ele>
        <time>2026-08-27T06:28:33.020Z</time>
      </trkpt>
      <trkpt lat="47.84258" lon="6.91539">
        <ele>1117.2</ele>
        <time>2026-08-27T06:28:34.028Z</time>
      </trkpt>
      <trkpt lat="47.84258" lon="6.91539">
        <ele>1117.6</ele>
        <time>2026-08-27T06:28:35.036Z</time>
      </trkpt>
      <trkpt lat="47.84258" lon="6.91539">
        <ele>1117.6</ele>
        <time>2026-08-27T06:28:36.043Z</time>
      </trkpt>
      <trkpt lat="47.84258" lon="6.91539">
        <ele>1117.6</ele>
        <time>2026-08-27T06:28:37.051Z</time>
      </trkpt>
      <trkpt lat="47.84258" lon="6.91539">
        <ele>1117.6</ele>
        <time>2026-08-27T06:28:38.059Z</time>
      </trkpt>
      <trkpt lat="47.84258" lon="6.91539">
        <ele>1117.7</ele>
        <time>2026-08-27T06:28:39.068Z</time>
      </trkpt>
      <trkpt lat="47.84258" lon="6.91539">
        <ele>1117.7</ele>
        <time>2026-08-27T06:28:40.076Z</time>
      </trkpt>
      <trkpt lat="47.84258" lon="6.91539">
        <ele>1117.9</ele>
        <time>2026-08-27T06:28:41.083Z</time>
      </trkpt>
      <trkpt lat="47.84258" lon="6.91539">
        <ele>1117.7</ele>
        <time>2026-08-27T06:28:42.091Z</time>
      </trkpt>
      <trkpt lat="47.84258" lon="6.91539">
        <ele>1118.1</ele>
        <time>2026-08-27T06:28:43.099Z</time>
      </trkpt>
      <trkpt lat="47.84258" lon="6.91539">
        <ele>1117.7</ele>
        <time>2026-08-27T06:28:44.107Z</time>
      </trkpt>
      <trkpt lat="47.84258" lon="6.91539">
        <ele>1117.5</ele>
        <time>2026-08-27T06:28:46.022Z</time>
      </trkpt>
      <trkpt lat="47.84258" lon="6.91539">
        <ele>1117.6</ele>
        <time>2026-08-27T06:28:47.029Z</time>
      </trkpt>
      <trkpt lat="47.84258" lon="6.91539">
        <ele>1117.7</ele>
        <time>2026-08-27T06:28:48.037Z</time>
      </trkpt>
      <trkpt lat="47.84258" lon="6.91539">
        <ele>1117.6</ele>
        <time>2026-08-27T06:28:49.045Z</time>
      </trkpt>
      <trkpt lat="47.84258" lon="6.91539">
        <ele>1117.6</ele>
        <time>2026-08-27T06:28:50.054Z</time>
      </trkpt>
      <trkpt lat="47.84258" lon="6.91539">
        <ele>1117.8</ele>
        <time>2026-08-27T06:28:51.061Z</time>
      </trkpt>
      <trkpt lat="47.84258" lon="6.9154">
        <ele>1117.6</ele>
        <time>2026-08-27T06:28:52.070Z</time>
      </trkpt>
      <trkpt lat="47.84258" lon="6.9154">
        <ele>1117.5</ele>
        <time>2026-08-27T06:28:53.077Z</time>
      </trkpt>
      <trkpt lat="47.84258" lon="6.9154">
        <ele>1117.6</ele>
        <time>2026-08-27T06:28:54.086Z</time>
      </trkpt>
      <trkpt lat="47.84258" lon="6.9154">
        <ele>1117.8</ele>
        <time>2026-08-27T06:28:55.094Z</time>
      </trkpt>
      <trkpt lat="47.84258" lon="6.9154">
        <ele>1117.6</ele>
        <time>2026-08-27T06:28:56.102Z</time>
      </trkpt>
      <trkpt lat="47.84258" lon="6.9154">
        <ele>1117.4</ele>
        <time>2026-08-27T06:28:58.016Z</time>
      </trkpt>
      <trkpt lat="47.84258" lon="6.9154">
        <ele>1117.3</ele>
        <time>2026-08-27T06:28:59.024Z</time>
      </trkpt>
      <trkpt lat="47.84258" lon="6.9154">
        <ele>1117.3</ele>
        <time>2026-08-27T06:29:00.032Z</time>
      </trkpt>
      <trkpt lat="47.84258" lon="6.91539">
        <ele>1117.4</ele>
        <time>2026-08-27T06:29:01.039Z</time>
      </trkpt>
      <trkpt lat="47.84258" lon="6.91539">
        <ele>1117.5</ele>
        <time>2026-08-27T06:29:02.047Z</time>
      </trkpt>
      <trkpt lat="47.84258" lon="6.91539">
        <ele>1117.4</ele>
        <time>2026-08-27T06:29:03.055Z</time>
      </trkpt>
      <trkpt lat="47.84258" lon="6.91539">
        <ele>1117.7</ele>
        <time>2026-08-27T06:29:04.064Z</time>
      </trkpt>
      <trkpt lat="47.84258" lon="6.91539">
        <ele>1117.6</ele>
        <time>2026-08-27T06:29:05.071Z</time>
      </trkpt>
      <trkpt lat="47.84258" lon="6.91539">
        <ele>1117.5</ele>
        <time>2026-08-27T06:29:06.079Z</time>
      </trkpt>
      <trkpt lat="47.84258" lon="6.91539">
        <ele>1117.5</ele>
        <time>2026-08-27T06:29:07.088Z</time>
      </trkpt>
      <trkpt lat="47.84258" lon="6.91539">
        <ele>1117.6</ele>
        <time>2026-08-27T06:29:08.095Z</time>
      </trkpt>
      <trkpt lat="47.84258" lon="6.91539">
        <ele>1117.5</ele>
        <time>2026-08-27T06:29:09.104Z</time>
      </trkpt>
      <trkpt lat="47.84258" lon="6.91539">
        <ele>1117.5</ele>
        <time>2026-08-27T06:29:11.019Z</time>
      </trkpt>
      <trkpt lat="47.84258" lon="6.91539">
        <ele>1117.5</ele>
        <time>2026-08-27T06:29:12.027Z</time>
      </trkpt>
      <trkpt lat="47.84258" lon="6.91539">
        <ele>1117.4</ele>
        <time>2026-08-27T06:29:13.034Z</time>
      </trkpt>
      <trkpt lat="47.84258" lon="6.91539">
        <ele>1117.2</ele>
        <time>2026-08-27T06:29:14.041Z</time>
      </trkpt>
      <trkpt lat="47.84258" lon="6.91539">
        <ele>1117.2</ele>
        <time>2026-08-27T06:29:15.049Z</time>
      </trkpt>
      <trkpt lat="47.84258" lon="6.91539">
        <ele>1117.3</ele>
        <time>2026-08-27T06:29:16.057Z</time>
      </trkpt>
      <trkpt lat="47.84258" lon="6.91539">
        <ele>1117.4</ele>
        <time>2026-08-27T06:29:17.066Z</time>
      </trkpt>
      <trkpt lat="47.84258" lon="6.91539">
        <ele>1117.4</ele>
        <time>2026-08-27T06:29:18.074Z</time>
      </trkpt>
      <trkpt lat="47.84258" lon="6.91539">
        <ele>1117.4</ele>
        <time>2026-08-27T06:29:19.081Z</time>
      </trkpt>
      <trkpt lat="47.84258" lon="6.91539">
        <ele>1117.6</ele>
        <time>2026-08-27T06:29:20.090Z</time>
      </trkpt>
      <trkpt lat="47.84258" lon="6.91539">
        <ele>1117.3</ele>
        <time>2026-08-27T06:29:22.004Z</time>
      </trkpt>
      <trkpt lat="47.84258" lon="6.91539">
        <ele>1117.4</ele>
        <time>2026-08-27T06:29:23.013Z</time>
      </trkpt>
      <trkpt lat="47.84258" lon="6.91539">
        <ele>1117.6</ele>
        <time>2026-08-27T06:29:24.020Z</time>
      </trkpt>
      <trkpt lat="47.84258" lon="6.91539">
        <ele>1117.4</ele>
        <time>2026-08-27T06:29:25.029Z</time>
      </trkpt>
      <trkpt lat="47.84258" lon="6.91539">
        <ele>1117.3</ele>
        <time>2026-08-27T06:29:26.037Z</time>
      </trkpt>
      <trkpt lat="47.84258" lon="6.91539">
        <ele>1117</ele>
        <time>2026-08-27T06:29:27.044Z</time>
      </trkpt>
      <trkpt lat="47.84258" lon="6.91539">
        <ele>1116.9</ele>
        <time>2026-08-27T06:29:28.052Z</time>
      </trkpt>
      <trkpt lat="47.84258" lon="6.91539">
        <ele>1116.9</ele>
        <time>2026-08-27T06:29:29.060Z</time>
      </trkpt>
      <trkpt lat="47.84258" lon="6.91539">
        <ele>1117</ele>
        <time>2026-08-27T06:29:30.067Z</time>
      </trkpt>
      <trkpt lat="47.84258" lon="6.91539">
        <ele>1117.1</ele>
        <time>2026-08-27T06:29:31.076Z</time>
      </trkpt>
      <trkpt lat="47.84258" lon="6.91539">
        <ele>1117</ele>
        <time>2026-08-27T06:29:32.084Z</time>
      </trkpt>
      <trkpt lat="47.84258" lon="6.91539">
        <ele>1117.3</ele>
        <time>2026-08-27T06:29:33.092Z</time>
      </trkpt>
      <trkpt lat="47.84258" lon="6.91539">
        <ele>1117.1</ele>
        <time>2026-08-27T06:29:34.100Z</time>
      </trkpt>
      <trkpt lat="47.84258" lon="6.91539">
        <ele>1117.1</ele>
        <time>2026-08-27T06:29:35.108Z</time>
      </trkpt>
      <trkpt lat="47.84258" lon="6.91539">
        <ele>1117.1</ele>
        <time>2026-08-27T06:29:37.022Z</time>
      </trkpt>
      <trkpt lat="47.84258" lon="6.91539">
        <ele>1116.9</ele>
        <time>2026-08-27T06:29:38.030Z</time>
      </trkpt>
      <trkpt lat="47.84258" lon="6.91539">
        <ele>1116.8</ele>
        <time>2026-08-27T06:29:39.038Z</time>
      </trkpt>
      <trkpt lat="47.84258" lon="6.91539">
        <ele>1116.5</ele>
        <time>2026-08-27T06:29:40.046Z</time>
      </trkpt>
      <trkpt lat="47.84258" lon="6.91539">
        <ele>1116.5</ele>
        <time>2026-08-27T06:29:41.053Z</time>
      </trkpt>
      <trkpt lat="47.84258" lon="6.91539">
        <ele>1116.5</ele>
        <time>2026-08-27T06:29:42.061Z</time>
      </trkpt>
      <trkpt lat="47.84258" lon="6.91539">
        <ele>1116.3</ele>
        <time>2026-08-27T06:29:43.070Z</time>
      </trkpt>
      <trkpt lat="47.84258" lon="6.91539">
        <ele>1116.3</ele>
        <time>2026-08-27T06:29:44.077Z</time>
      </trkpt>
      <trkpt lat="47.84258" lon="6.91539">
        <ele>1116.3</ele>
        <time>2026-08-27T06:29:45.085Z</time>
      </trkpt>
      <trkpt lat="47.84258" lon="6.91539">
        <ele>1116.4</ele>
        <time>2026-08-27T06:29:46.093Z</time>
      </trkpt>
      <trkpt lat="47.84258" lon="6.91539">
        <ele>1116.4</ele>
        <time>2026-08-27T06:29:47.101Z</time>
      </trkpt>
      <trkpt lat="47.84258" lon="6.91539">
        <ele>1116.4</ele>
        <time>2026-08-27T06:29:48.109Z</time>
      </trkpt>
      <trkpt lat="47.84258" lon="6.91539">
        <ele>1116.6</ele>
        <time>2026-08-27T06:29:50.024Z</time>
      </trkpt>
      <trkpt lat="47.84258" lon="6.91539">
        <ele>1116.2</ele>
        <time>2026-08-27T06:29:51.032Z</time>
      </trkpt>
      <trkpt lat="47.84258" lon="6.91539">
        <ele>1116.3</ele>
        <time>2026-08-27T06:29:52.041Z</time>
      </trkpt>
      <trkpt lat="47.84258" lon="6.91539">
        <ele>1116.5</ele>
        <time>2026-08-27T06:29:53.047Z</time>
      </trkpt>
      <trkpt lat="47.84258" lon="6.91539">
        <ele>1116.1</ele>
        <time>2026-08-27T06:29:54.055Z</time>
      </trkpt>
      <trkpt lat="47.84258" lon="6.91539">
        <ele>1116</ele>
        <time>2026-08-27T06:29:55.064Z</time>
      </trkpt>
      <trkpt lat="47.84258" lon="6.91539">
        <ele>1115.9</ele>
        <time>2026-08-27T06:29:56.071Z</time>
      </trkpt>
      <trkpt lat="47.84258" lon="6.91539">
        <ele>1115.8</ele>
        <time>2026-08-27T06:29:57.079Z</time>
      </trkpt>
      <trkpt lat="47.84258" lon="6.91539">
        <ele>1116</ele>
        <time>2026-08-27T06:29:58.087Z</time>
      </trkpt>
      <trkpt lat="47.84258" lon="6.91539">
        <ele>1116.1</ele>
        <time>2026-08-27T06:29:59.095Z</time>
      </trkpt>
      <trkpt lat="47.84258" lon="6.91539">
        <ele>1116.7</ele>
        <time>2026-08-27T06:30:01.111Z</time>
      </trkpt>
      <trkpt lat="47.84258" lon="6.91539">
        <ele>1117.2</ele>
        <time>2026-08-27T06:30:03.027Z</time>
      </trkpt>
      <trkpt lat="47.84258" lon="6.91539">
        <ele>1117.4</ele>
        <time>2026-08-27T06:30:04.034Z</time>
      </trkpt>
      <trkpt lat="47.84258" lon="6.91539">
        <ele>1117.4</ele>
        <time>2026-08-27T06:30:05.043Z</time>
      </trkpt>
      <trkpt lat="47.84258" lon="6.91539">
        <ele>1117.5</ele>
        <time>2026-08-27T06:30:06.050Z</time>
      </trkpt>
      <trkpt lat="47.84258" lon="6.91539">
        <ele>1117.5</ele>
        <time>2026-08-27T06:30:07.057Z</time>
      </trkpt>
      <trkpt lat="47.84258" lon="6.91539">
        <ele>1117.6</ele>
        <time>2026-08-27T06:30:08.066Z</time>
      </trkpt>
      <trkpt lat="47.84258" lon="6.91539">
        <ele>1117.5</ele>
        <time>2026-08-27T06:30:09.073Z</time>
      </trkpt>
      <trkpt lat="47.84258" lon="6.91539">
        <ele>1117.8</ele>
        <time>2026-08-27T06:30:10.081Z</time>
      </trkpt>
      <trkpt lat="47.84258" lon="6.91539">
        <ele>1117.4</ele>
        <time>2026-08-27T06:30:11.089Z</time>
      </trkpt>
      <trkpt lat="47.84258" lon="6.91539">
        <ele>1117.1</ele>
        <time>2026-08-27T06:30:12.097Z</time>
      </trkpt>
      <trkpt lat="47.84258" lon="6.91539">
        <ele>1117</ele>
        <time>2026-08-27T06:30:14.012Z</time>
      </trkpt>
      <trkpt lat="47.84257" lon="6.91539">
        <ele>1117.1</ele>
        <time>2026-08-27T06:30:15.020Z</time>
      </trkpt>
      <trkpt lat="47.84257" lon="6.91539">
        <ele>1117.1</ele>
        <time>2026-08-27T06:30:16.028Z</time>
      </trkpt>
      <trkpt lat="47.84257" lon="6.91539">
        <ele>1117.1</ele>
        <time>2026-08-27T06:30:17.036Z</time>
      </trkpt>
      <trkpt lat="47.84257" lon="6.91539">
        <ele>1117.3</ele>
        <time>2026-08-27T06:30:18.043Z</time>
      </trkpt>
      <trkpt lat="47.84257" lon="6.91539">
        <ele>1117.4</ele>
        <time>2026-08-27T06:30:19.051Z</time>
      </trkpt>
      <trkpt lat="47.84257" lon="6.91539">
        <ele>1117</ele>
        <time>2026-08-27T06:30:20.059Z</time>
      </trkpt>
      <trkpt lat="47.84257" lon="6.91539">
        <ele>1117.2</ele>
        <time>2026-08-27T06:30:21.067Z</time>
      </trkpt>
      <trkpt lat="47.84257" lon="6.91539">
        <ele>1117.4</ele>
        <time>2026-08-27T06:30:22.075Z</time>
      </trkpt>
      <trkpt lat="47.84257" lon="6.91539">
        <ele>1117.2</ele>
        <time>2026-08-27T06:30:23.083Z</time>
      </trkpt>
      <trkpt lat="47.84257" lon="6.91539">
        <ele>1117.1</ele>
        <time>2026-08-27T06:30:24.091Z</time>
      </trkpt>
      <trkpt lat="47.84257" lon="6.91539">
        <ele>1116.9</ele>
        <time>2026-08-27T06:30:26.108Z</time>
      </trkpt>
      <trkpt lat="47.84257" lon="6.9154">
        <ele>1117.1</ele>
        <time>2026-08-27T06:30:28.022Z</time>
      </trkpt>
      <trkpt lat="47.84257" lon="6.9154">
        <ele>1117.1</ele>
        <time>2026-08-27T06:30:29.031Z</time>
      </trkpt>
      <trkpt lat="47.84257" lon="6.9154">
        <ele>1117.1</ele>
        <time>2026-08-27T06:30:30.037Z</time>
      </trkpt>
      <trkpt lat="47.84257" lon="6.9154">
        <ele>1117</ele>
        <time>2026-08-27T06:30:31.046Z</time>
      </trkpt>
      <trkpt lat="47.84257" lon="6.9154">
        <ele>1117</ele>
        <time>2026-08-27T06:30:32.054Z</time>
      </trkpt>
      <trkpt lat="47.84257" lon="6.9154">
        <ele>1116.8</ele>
        <time>2026-08-27T06:30:33.061Z</time>
      </trkpt>
      <trkpt lat="47.84257" lon="6.9154">
        <ele>1117</ele>
        <time>2026-08-27T06:30:34.069Z</time>
      </trkpt>
      <trkpt lat="47.84257" lon="6.9154">
        <ele>1117.2</ele>
        <time>2026-08-27T06:30:35.078Z</time>
      </trkpt>
      <trkpt lat="47.84257" lon="6.9154">
        <ele>1117.1</ele>
        <time>2026-08-27T06:30:36.086Z</time>
      </trkpt>
      <trkpt lat="47.84257" lon="6.9154">
        <ele>1117</ele>
        <time>2026-08-27T06:30:37.094Z</time>
      </trkpt>
      <trkpt lat="47.84257" lon="6.9154">
        <ele>1116.9</ele>
        <time>2026-08-27T06:30:38.101Z</time>
      </trkpt>
      <trkpt lat="47.84257" lon="6.9154">
        <ele>1116.7</ele>
        <time>2026-08-27T06:30:39.110Z</time>
      </trkpt>
      <trkpt lat="47.84257" lon="6.9154">
        <ele>1116.5</ele>
        <time>2026-08-27T06:30:41.025Z</time>
      </trkpt>
      <trkpt lat="47.84257" lon="6.9154">
        <ele>1116.4</ele>
        <time>2026-08-27T06:30:42.031Z</time>
      </trkpt>
      <trkpt lat="47.84257" lon="6.9154">
        <ele>1116.6</ele>
        <time>2026-08-27T06:30:43.039Z</time>
      </trkpt>
      <trkpt lat="47.84257" lon="6.9154">
        <ele>1116.6</ele>
        <time>2026-08-27T06:30:44.047Z</time>
      </trkpt>
      <trkpt lat="47.84257" lon="6.9154">
        <ele>1116.6</ele>
        <time>2026-08-27T06:30:45.055Z</time>
      </trkpt>
      <trkpt lat="47.84257" lon="6.9154">
        <ele>1116.6</ele>
        <time>2026-08-27T06:30:46.064Z</time>
      </trkpt>
      <trkpt lat="47.84257" lon="6.9154">
        <ele>1116.8</ele>
        <time>2026-08-27T06:30:47.071Z</time>
      </trkpt>
      <trkpt lat="47.84257" lon="6.9154">
        <ele>1116.9</ele>
        <time>2026-08-27T06:30:48.079Z</time>
      </trkpt>
      <trkpt lat="47.84257" lon="6.9154">
        <ele>1116.8</ele>
        <time>2026-08-27T06:30:49.087Z</time>
      </trkpt>
      <trkpt lat="47.84257" lon="6.9154">
        <ele>1116.9</ele>
        <time>2026-08-27T06:30:50.095Z</time>
      </trkpt>
      <trkpt lat="47.84257" lon="6.9154">
        <ele>1116.9</ele>
        <time>2026-08-27T06:30:51.103Z</time>
      </trkpt>
      <trkpt lat="47.84257" lon="6.9154">
        <ele>1116.9</ele>
        <time>2026-08-27T06:30:53.018Z</time>
      </trkpt>
      <trkpt lat="47.84257" lon="6.9154">
        <ele>1116.9</ele>
        <time>2026-08-27T06:30:54.025Z</time>
      </trkpt>
      <trkpt lat="47.84257" lon="6.9154">
        <ele>1116.9</ele>
        <time>2026-08-27T06:30:55.034Z</time>
      </trkpt>
      <trkpt lat="47.84257" lon="6.9154">
        <ele>1117</ele>
        <time>2026-08-27T06:30:56.042Z</time>
      </trkpt>
      <trkpt lat="47.84257" lon="6.9154">
        <ele>1117</ele>
        <time>2026-08-27T06:30:57.050Z</time>
      </trkpt>
      <trkpt lat="47.84257" lon="6.9154">
        <ele>1117</ele>
        <time>2026-08-27T06:30:58.057Z</time>
      </trkpt>
      <trkpt lat="47.84257" lon="6.9154">
        <ele>1117.2</ele>
        <time>2026-08-27T06:30:59.065Z</time>
      </trkpt>
      <trkpt lat="47.84257" lon="6.9154">
        <ele>1117.1</ele>
        <time>2026-08-27T06:31:00.073Z</time>
      </trkpt>
      <trkpt lat="47.84257" lon="6.9154">
        <ele>1117</ele>
        <time>2026-08-27T06:31:01.081Z</time>
      </trkpt>
      <trkpt lat="47.84257" lon="6.9154">
        <ele>1116.9</ele>
        <time>2026-08-27T06:31:02.089Z</time>
      </trkpt>
      <trkpt lat="47.84257" lon="6.9154">
        <ele>1117</ele>
        <time>2026-08-27T06:31:03.096Z</time>
      </trkpt>
      <trkpt lat="47.84257" lon="6.9154">
        <ele>1117.1</ele>
        <time>2026-08-27T06:31:04.105Z</time>
      </trkpt>
      <trkpt lat="47.84257" lon="6.9154">
        <ele>1117.1</ele>
        <time>2026-08-27T06:31:06.019Z</time>
      </trkpt>
      <trkpt lat="47.84257" lon="6.9154">
        <ele>1117.2</ele>
        <time>2026-08-27T06:31:07.027Z</time>
      </trkpt>
      <trkpt lat="47.84257" lon="6.9154">
        <ele>1117</ele>
        <time>2026-08-27T06:31:08.035Z</time>
      </trkpt>
      <trkpt lat="47.84257" lon="6.9154">
        <ele>1116.9</ele>
        <time>2026-08-27T06:31:09.043Z</time>
      </trkpt>
      <trkpt lat="47.84257" lon="6.9154">
        <ele>1117</ele>
        <time>2026-08-27T06:31:10.051Z</time>
      </trkpt>
      <trkpt lat="47.84257" lon="6.9154">
        <ele>1116.9</ele>
        <time>2026-08-27T06:31:11.060Z</time>
      </trkpt>
      <trkpt lat="47.84257" lon="6.9154">
        <ele>1117</ele>
        <time>2026-08-27T06:31:12.067Z</time>
      </trkpt>
      <trkpt lat="47.84257" lon="6.9154">
        <ele>1117</ele>
        <time>2026-08-27T06:31:13.075Z</time>
      </trkpt>
      <trkpt lat="47.84257" lon="6.9154">
        <ele>1117</ele>
        <time>2026-08-27T06:31:14.083Z</time>
      </trkpt>
      <trkpt lat="47.84257" lon="6.9154">
        <ele>1116.9</ele>
        <time>2026-08-27T06:31:15.091Z</time>
      </trkpt>
      <trkpt lat="47.84257" lon="6.9154">
        <ele>1116.8</ele>
        <time>2026-08-27T06:31:16.099Z</time>
      </trkpt>
      <trkpt lat="47.84257" lon="6.9154">
        <ele>1116.9</ele>
        <time>2026-08-27T06:31:18.014Z</time>
      </trkpt>
      <trkpt lat="47.84257" lon="6.9154">
        <ele>1117</ele>
        <time>2026-08-27T06:31:19.021Z</time>
      </trkpt>
      <trkpt lat="47.84257" lon="6.9154">
        <ele>1117.3</ele>
        <time>2026-08-27T06:31:20.029Z</time>
      </trkpt>
      <trkpt lat="47.84257" lon="6.9154">
        <ele>1117.5</ele>
        <time>2026-08-27T06:31:21.038Z</time>
      </trkpt>
      <trkpt lat="47.84257" lon="6.9154">
        <ele>1117.7</ele>
        <time>2026-08-27T06:31:22.045Z</time>
      </trkpt>
      <trkpt lat="47.84257" lon="6.9154">
        <ele>1117.7</ele>
        <time>2026-08-27T06:31:23.054Z</time>
      </trkpt>
      <trkpt lat="47.84257" lon="6.9154">
        <ele>1117.6</ele>
        <time>2026-08-27T06:31:24.061Z</time>
      </trkpt>
      <trkpt lat="47.84257" lon="6.9154">
        <ele>1117.7</ele>
        <time>2026-08-27T06:31:25.069Z</time>
      </trkpt>
      <trkpt lat="47.84257" lon="6.9154">
        <ele>1117.7</ele>
        <time>2026-08-27T06:31:26.077Z</time>
      </trkpt>
      <trkpt lat="47.84257" lon="6.9154">
        <ele>1117.7</ele>
        <time>2026-08-27T06:31:27.084Z</time>
      </trkpt>
      <trkpt lat="47.84257" lon="6.9154">
        <ele>1117.8</ele>
        <time>2026-08-27T06:31:28.092Z</time>
      </trkpt>
      <trkpt lat="47.84257" lon="6.9154">
        <ele>1117.7</ele>
        <time>2026-08-27T06:31:29.100Z</time>
      </trkpt>
      <trkpt lat="47.84257" lon="6.9154">
        <ele>1117.5</ele>
        <time>2026-08-27T06:31:31.016Z</time>
      </trkpt>
      <trkpt lat="47.84257" lon="6.9154">
        <ele>1117.7</ele>
        <time>2026-08-27T06:31:32.024Z</time>
      </trkpt>
      <trkpt lat="47.84257" lon="6.9154">
        <ele>1117.9</ele>
        <time>2026-08-27T06:31:33.031Z</time>
      </trkpt>
      <trkpt lat="47.84257" lon="6.9154">
        <ele>1117.5</ele>
        <time>2026-08-27T06:31:34.039Z</time>
      </trkpt>
      <trkpt lat="47.84257" lon="6.9154">
        <ele>1117.4</ele>
        <time>2026-08-27T06:31:35.048Z</time>
      </trkpt>
      <trkpt lat="47.84256" lon="6.9154">
        <ele>1117.3</ele>
        <time>2026-08-27T06:31:36.056Z</time>
      </trkpt>
      <trkpt lat="47.84256" lon="6.9154">
        <ele>1117.1</ele>
        <time>2026-08-27T06:31:37.063Z</time>
      </trkpt>
      <trkpt lat="47.84256" lon="6.9154">
        <ele>1117</ele>
        <time>2026-08-27T06:31:38.070Z</time>
      </trkpt>
      <trkpt lat="47.84256" lon="6.9154">
        <ele>1117.1</ele>
        <time>2026-08-27T06:31:39.078Z</time>
      </trkpt>
      <trkpt lat="47.84256" lon="6.9154">
        <ele>1116.9</ele>
        <time>2026-08-27T06:31:40.086Z</time>
      </trkpt>
      <trkpt lat="47.84256" lon="6.9154">
        <ele>1117.1</ele>
        <time>2026-08-27T06:31:41.094Z</time>
      </trkpt>
      <trkpt lat="47.84256" lon="6.9154">
        <ele>1117</ele>
        <time>2026-08-27T06:31:42.102Z</time>
      </trkpt>
      <trkpt lat="47.84256" lon="6.9154">
        <ele>1116.9</ele>
        <time>2026-08-27T06:31:43.110Z</time>
      </trkpt>
      <trkpt lat="47.84256" lon="6.9154">
        <ele>1116.8</ele>
        <time>2026-08-27T06:31:44.118Z</time>
      </trkpt>
      <trkpt lat="47.84256" lon="6.91541">
        <ele>1116.1</ele>
        <time>2026-08-27T06:31:46.033Z</time>
      </trkpt>
      <trkpt lat="47.84256" lon="6.91541">
        <ele>1116.1</ele>
        <time>2026-08-27T06:31:47.041Z</time>
      </trkpt>
      <trkpt lat="47.84257" lon="6.9154">
        <ele>1116.1</ele>
        <time>2026-08-27T06:31:48.049Z</time>
      </trkpt>
      <trkpt lat="47.84257" lon="6.9154">
        <ele>1116</ele>
        <time>2026-08-27T06:31:49.057Z</time>
      </trkpt>
      <trkpt lat="47.84257" lon="6.9154">
        <ele>1115.9</ele>
        <time>2026-08-27T06:31:50.064Z</time>
      </trkpt>
      <trkpt lat="47.84257" lon="6.9154">
        <ele>1115.9</ele>
        <time>2026-08-27T06:31:51.072Z</time>
      </trkpt>
      <trkpt lat="47.84257" lon="6.9154">
        <ele>1115.8</ele>
        <time>2026-08-27T06:31:52.080Z</time>
      </trkpt>
      <trkpt lat="47.84257" lon="6.9154">
        <ele>1115.7</ele>
        <time>2026-08-27T06:31:53.995Z</time>
      </trkpt>
      <trkpt lat="47.84257" lon="6.9154">
        <ele>1115.9</ele>
        <time>2026-08-27T06:31:55.104Z</time>
      </trkpt>
      <trkpt lat="47.84257" lon="6.9154">
        <ele>1116.5</ele>
        <time>2026-08-27T06:31:57.020Z</time>
      </trkpt>
      <trkpt lat="47.84257" lon="6.9154">
        <ele>1116.4</ele>
        <time>2026-08-27T06:31:58.028Z</time>
      </trkpt>
      <trkpt lat="47.84257" lon="6.9154">
        <ele>1116.4</ele>
        <time>2026-08-27T06:31:59.035Z</time>
      </trkpt>
      <trkpt lat="47.84257" lon="6.9154">
        <ele>1116.5</ele>
        <time>2026-08-27T06:32:00.042Z</time>
      </trkpt>
      <trkpt lat="47.84257" lon="6.9154">
        <ele>1116.6</ele>
        <time>2026-08-27T06:32:01.050Z</time>
      </trkpt>
      <trkpt lat="47.84257" lon="6.9154">
        <ele>1116.6</ele>
        <time>2026-08-27T06:32:02.059Z</time>
      </trkpt>
      <trkpt lat="47.84257" lon="6.91541">
        <ele>1116.5</ele>
        <time>2026-08-27T06:32:03.066Z</time>
      </trkpt>
      <trkpt lat="47.84257" lon="6.91541">
        <ele>1116.7</ele>
        <time>2026-08-27T06:32:04.074Z</time>
      </trkpt>
      <trkpt lat="47.84257" lon="6.91541">
        <ele>1116.7</ele>
        <time>2026-08-27T06:32:05.083Z</time>
      </trkpt>
      <trkpt lat="47.84257" lon="6.91541">
        <ele>1116.5</ele>
        <time>2026-08-27T06:32:06.091Z</time>
      </trkpt>
      <trkpt lat="47.84257" lon="6.91541">
        <ele>1116.3</ele>
        <time>2026-08-27T06:32:07.099Z</time>
      </trkpt>
      <trkpt lat="47.84257" lon="6.91541">
        <ele>1116.1</ele>
        <time>2026-08-27T06:32:09.014Z</time>
      </trkpt>
      <trkpt lat="47.84257" lon="6.91541">
        <ele>1115.6</ele>
        <time>2026-08-27T06:32:10.021Z</time>
      </trkpt>
      <trkpt lat="47.84257" lon="6.91541">
        <ele>1115.7</ele>
        <time>2026-08-27T06:32:11.028Z</time>
      </trkpt>
      <trkpt lat="47.84257" lon="6.91541">
        <ele>1115.8</ele>
        <time>2026-08-27T06:32:12.036Z</time>
      </trkpt>
      <trkpt lat="47.84257" lon="6.91541">
        <ele>1115.7</ele>
        <time>2026-08-27T06:32:13.044Z</time>
      </trkpt>
      <trkpt lat="47.84257" lon="6.91541">
        <ele>1115.3</ele>
        <time>2026-08-27T06:32:14.052Z</time>
      </trkpt>
      <trkpt lat="47.84257" lon="6.91541">
        <ele>1115.3</ele>
        <time>2026-08-27T06:32:15.060Z</time>
      </trkpt>
      <trkpt lat="47.84257" lon="6.91541">
        <ele>1115.3</ele>
        <time>2026-08-27T06:32:16.068Z</time>
      </trkpt>
      <trkpt lat="47.84257" lon="6.91541">
        <ele>1115.4</ele>
        <time>2026-08-27T06:32:17.076Z</time>
      </trkpt>
      <trkpt lat="47.84257" lon="6.91541">
        <ele>1115.6</ele>
        <time>2026-08-27T06:32:18.084Z</time>
      </trkpt>
      <trkpt lat="47.84257" lon="6.91541">
        <ele>1115.7</ele>
        <time>2026-08-27T06:32:19.093Z</time>
      </trkpt>
      <trkpt lat="47.84257" lon="6.91541">
        <ele>1115.8</ele>
        <time>2026-08-27T06:32:20.100Z</time>
      </trkpt>
      <trkpt lat="47.84257" lon="6.91541">
        <ele>1115.6</ele>
        <time>2026-08-27T06:32:21.107Z</time>
      </trkpt>
      <trkpt lat="47.84257" lon="6.91541">
        <ele>1115.6</ele>
        <time>2026-08-27T06:32:23.022Z</time>
      </trkpt>
      <trkpt lat="47.84257" lon="6.91541">
        <ele>1115.3</ele>
        <time>2026-08-27T06:32:24.031Z</time>
      </trkpt>
      <trkpt lat="47.84257" lon="6.91541">
        <ele>1115.3</ele>
        <time>2026-08-27T06:32:25.038Z</time>
      </trkpt>
      <trkpt lat="47.84257" lon="6.91541">
        <ele>1115.2</ele>
        <time>2026-08-27T06:32:26.047Z</time>
      </trkpt>
      <trkpt lat="47.84257" lon="6.91541">
        <ele>1115.3</ele>
        <time>2026-08-27T06:32:27.055Z</time>
      </trkpt>
      <trkpt lat="47.84257" lon="6.91541">
        <ele>1115.2</ele>
        <time>2026-08-27T06:32:28.063Z</time>
      </trkpt>
      <trkpt lat="47.84257" lon="6.91541">
        <ele>1115.3</ele>
        <time>2026-08-27T06:32:29.071Z</time>
      </trkpt>
      <trkpt lat="47.84257" lon="6.91541">
        <ele>1115.3</ele>
        <time>2026-08-27T06:32:30.078Z</time>
      </trkpt>
      <trkpt lat="47.84257" lon="6.91541">
        <ele>1115.5</ele>
        <time>2026-08-27T06:32:31.085Z</time>
      </trkpt>
      <trkpt lat="47.84257" lon="6.91541">
        <ele>1115.8</ele>
        <time>2026-08-27T06:32:32.093Z</time>
      </trkpt>
      <trkpt lat="47.84257" lon="6.91541">
        <ele>1116.5</ele>
        <time>2026-08-27T06:32:33.101Z</time>
      </trkpt>
      <trkpt lat="47.84257" lon="6.91541">
        <ele>1116.8</ele>
        <time>2026-08-27T06:32:35.017Z</time>
      </trkpt>
      <trkpt lat="47.84257" lon="6.91541">
        <ele>1116.9</ele>
        <time>2026-08-27T06:32:36.024Z</time>
      </trkpt>
      <trkpt lat="47.84257" lon="6.91541">
        <ele>1116.8</ele>
        <time>2026-08-27T06:32:37.032Z</time>
      </trkpt>
      <trkpt lat="47.84257" lon="6.91541">
        <ele>1116.7</ele>
        <time>2026-08-27T06:32:38.040Z</time>
      </trkpt>
      <trkpt lat="47.84257" lon="6.91541">
        <ele>1116.4</ele>
        <time>2026-08-27T06:32:39.048Z</time>
      </trkpt>
      <trkpt lat="47.84257" lon="6.91541">
        <ele>1116.3</ele>
        <time>2026-08-27T06:32:40.056Z</time>
      </trkpt>
      <trkpt lat="47.84257" lon="6.91541">
        <ele>1116.3</ele>
        <time>2026-08-27T06:32:41.065Z</time>
      </trkpt>
      <trkpt lat="47.84257" lon="6.91541">
        <ele>1116</ele>
        <time>2026-08-27T06:32:42.071Z</time>
      </trkpt>
      <trkpt lat="47.84257" lon="6.91541">
        <ele>1116</ele>
        <time>2026-08-27T06:32:43.079Z</time>
      </trkpt>
      <trkpt lat="47.84257" lon="6.91541">
        <ele>1115.9</ele>
        <time>2026-08-27T06:32:44.088Z</time>
      </trkpt>
      <trkpt lat="47.84257" lon="6.91541">
        <ele>1116</ele>
        <time>2026-08-27T06:32:45.095Z</time>
      </trkpt>
      <trkpt lat="47.84257" lon="6.91541">
        <ele>1116.1</ele>
        <time>2026-08-27T06:32:46.103Z</time>
      </trkpt>
      <trkpt lat="47.84257" lon="6.91541">
        <ele>1116.3</ele>
        <time>2026-08-27T06:32:48.019Z</time>
      </trkpt>
      <trkpt lat="47.84257" lon="6.91541">
        <ele>1116.3</ele>
        <time>2026-08-27T06:32:49.027Z</time>
      </trkpt>
      <trkpt lat="47.84257" lon="6.91541">
        <ele>1116.4</ele>
        <time>2026-08-27T06:32:50.034Z</time>
      </trkpt>
      <trkpt lat="47.84257" lon="6.91541">
        <ele>1116.5</ele>
        <time>2026-08-27T06:32:51.042Z</time>
      </trkpt>
      <trkpt lat="47.84257" lon="6.91541">
        <ele>1116.7</ele>
        <time>2026-08-27T06:32:52.050Z</time>
      </trkpt>
      <trkpt lat="47.84257" lon="6.91541">
        <ele>1116.6</ele>
        <time>2026-08-27T06:32:53.057Z</time>
      </trkpt>
      <trkpt lat="47.84258" lon="6.91541">
        <ele>1116.4</ele>
        <time>2026-08-27T06:32:54.065Z</time>
      </trkpt>
      <trkpt lat="47.84258" lon="6.91541">
        <ele>1116.8</ele>
        <time>2026-08-27T06:32:55.073Z</time>
      </trkpt>
      <trkpt lat="47.84258" lon="6.91541">
        <ele>1116.8</ele>
        <time>2026-08-27T06:32:56.082Z</time>
      </trkpt>
      <trkpt lat="47.84258" lon="6.91541">
        <ele>1116.9</ele>
        <time>2026-08-27T06:32:57.089Z</time>
      </trkpt>
      <trkpt lat="47.84258" lon="6.91541">
        <ele>1117</ele>
        <time>2026-08-27T06:32:58.097Z</time>
      </trkpt>
      <trkpt lat="47.84258" lon="6.91541">
        <ele>1116.8</ele>
        <time>2026-08-27T06:32:59.105Z</time>
      </trkpt>
      <trkpt lat="47.84258" lon="6.91541">
        <ele>1116.9</ele>
        <time>2026-08-27T06:33:01.021Z</time>
      </trkpt>
      <trkpt lat="47.84258" lon="6.91541">
        <ele>1117</ele>
        <time>2026-08-27T06:33:02.028Z</time>
      </trkpt>
      <trkpt lat="47.84258" lon="6.91541">
        <ele>1116.9</ele>
        <time>2026-08-27T06:33:03.036Z</time>
      </trkpt>
      <trkpt lat="47.84258" lon="6.91541">
        <ele>1117.1</ele>
        <time>2026-08-27T06:33:04.043Z</time>
      </trkpt>
      <trkpt lat="47.84258" lon="6.91541">
        <ele>1117.2</ele>
        <time>2026-08-27T06:33:05.051Z</time>
      </trkpt>
      <trkpt lat="47.84258" lon="6.91541">
        <ele>1117.1</ele>
        <time>2026-08-27T06:33:06.059Z</time>
      </trkpt>
      <trkpt lat="47.84258" lon="6.91541">
        <ele>1116.9</ele>
        <time>2026-08-27T06:33:07.068Z</time>
      </trkpt>
      <trkpt lat="47.84258" lon="6.91541">
        <ele>1116.8</ele>
        <time>2026-08-27T06:33:08.075Z</time>
      </trkpt>
      <trkpt lat="47.84258" lon="6.91541">
        <ele>1116.6</ele>
        <time>2026-08-27T06:33:09.083Z</time>
      </trkpt>
      <trkpt lat="47.84258" lon="6.91541">
        <ele>1116.6</ele>
        <time>2026-08-27T06:33:10.091Z</time>
      </trkpt>
      <trkpt lat="47.84258" lon="6.91541">
        <ele>1116.6</ele>
        <time>2026-08-27T06:33:11.098Z</time>
      </trkpt>
      <trkpt lat="47.84258" lon="6.91541">
        <ele>1116.5</ele>
        <time>2026-08-27T06:33:12.107Z</time>
      </trkpt>
      <trkpt lat="47.84258" lon="6.91541">
        <ele>1116.6</ele>
        <time>2026-08-27T06:33:14.021Z</time>
      </trkpt>
      <trkpt lat="47.84258" lon="6.91541">
        <ele>1116.4</ele>
        <time>2026-08-27T06:33:15.029Z</time>
      </trkpt>
      <trkpt lat="47.84258" lon="6.91541">
        <ele>1116.7</ele>
        <time>2026-08-27T06:33:16.037Z</time>
      </trkpt>
      <trkpt lat="47.84258" lon="6.91541">
        <ele>1116.7</ele>
        <time>2026-08-27T06:33:17.045Z</time>
      </trkpt>
      <trkpt lat="47.84258" lon="6.91541">
        <ele>1116.7</ele>
        <time>2026-08-27T06:33:18.053Z</time>
      </trkpt>
      <trkpt lat="47.84258" lon="6.91541">
        <ele>1116.8</ele>
        <time>2026-08-27T06:33:19.061Z</time>
      </trkpt>
      <trkpt lat="47.84258" lon="6.91541">
        <ele>1116.8</ele>
        <time>2026-08-27T06:33:20.069Z</time>
      </trkpt>
      <trkpt lat="47.84258" lon="6.91541">
        <ele>1116.7</ele>
        <time>2026-08-27T06:33:21.077Z</time>
      </trkpt>
      <trkpt lat="47.84258" lon="6.91541">
        <ele>1116.8</ele>
        <time>2026-08-27T06:33:22.084Z</time>
      </trkpt>
      <trkpt lat="47.84258" lon="6.91541">
        <ele>1116.6</ele>
        <time>2026-08-27T06:33:23.093Z</time>
      </trkpt>
      <trkpt lat="47.84258" lon="6.91541">
        <ele>1116.5</ele>
        <time>2026-08-27T06:33:24.100Z</time>
      </trkpt>
      <trkpt lat="47.84258" lon="6.91541">
        <ele>1116.8</ele>
        <time>2026-08-27T06:33:26.015Z</time>
      </trkpt>
      <trkpt lat="47.84258" lon="6.91541">
        <ele>1116.7</ele>
        <time>2026-08-27T06:33:27.023Z</time>
      </trkpt>
      <trkpt lat="47.84258" lon="6.9154">
        <ele>1116.4</ele>
        <time>2026-08-27T06:33:28.031Z</time>
      </trkpt>
      <trkpt lat="47.84258" lon="6.9154">
        <ele>1116.4</ele>
        <time>2026-08-27T06:33:29.040Z</time>
      </trkpt>
      <trkpt lat="47.84258" lon="6.9154">
        <ele>1116.5</ele>
        <time>2026-08-27T06:33:30.047Z</time>
      </trkpt>
      <trkpt lat="47.84258" lon="6.9154">
        <ele>1116.4</ele>
        <time>2026-08-27T06:33:31.055Z</time>
      </trkpt>
      <trkpt lat="47.84258" lon="6.9154">
        <ele>1116.3</ele>
        <time>2026-08-27T06:33:32.062Z</time>
      </trkpt>
      <trkpt lat="47.84258" lon="6.9154">
        <ele>1116.7</ele>
        <time>2026-08-27T06:33:33.070Z</time>
      </trkpt>
      <trkpt lat="47.84258" lon="6.9154">
        <ele>1116.6</ele>
        <time>2026-08-27T06:33:34.079Z</time>
      </trkpt>
      <trkpt lat="47.84258" lon="6.9154">
        <ele>1116.4</ele>
        <time>2026-08-27T06:33:35.086Z</time>
      </trkpt>
      <trkpt lat="47.84258" lon="6.9154">
        <ele>1116.4</ele>
        <time>2026-08-27T06:33:36.094Z</time>
      </trkpt>
      <trkpt lat="47.84258" lon="6.9154">
        <ele>1116.2</ele>
        <time>2026-08-27T06:33:37.102Z</time>
      </trkpt>
      <trkpt lat="47.84258" lon="6.9154">
        <ele>1116</ele>
        <time>2026-08-27T06:33:38.110Z</time>
      </trkpt>
      <trkpt lat="47.84258" lon="6.9154">
        <ele>1115.9</ele>
        <time>2026-08-27T06:33:40.025Z</time>
      </trkpt>
      <trkpt lat="47.84258" lon="6.9154">
        <ele>1115.5</ele>
        <time>2026-08-27T06:33:41.033Z</time>
      </trkpt>
      <trkpt lat="47.84258" lon="6.9154">
        <ele>1115.4</ele>
        <time>2026-08-27T06:33:42.040Z</time>
      </trkpt>
      <trkpt lat="47.84258" lon="6.9154">
        <ele>1115.5</ele>
        <time>2026-08-27T06:33:43.049Z</time>
      </trkpt>
      <trkpt lat="47.84258" lon="6.9154">
        <ele>1115.3</ele>
        <time>2026-08-27T06:33:44.057Z</time>
      </trkpt>
      <trkpt lat="47.84258" lon="6.9154">
        <ele>1115.2</ele>
        <time>2026-08-27T06:33:45.064Z</time>
      </trkpt>
      <trkpt lat="47.84258" lon="6.9154">
        <ele>1115.3</ele>
        <time>2026-08-27T06:33:46.073Z</time>
      </trkpt>
      <trkpt lat="47.84258" lon="6.9154">
        <ele>1115.2</ele>
        <time>2026-08-27T06:33:47.081Z</time>
      </trkpt>
      <trkpt lat="47.84258" lon="6.91541">
        <ele>1115.1</ele>
        <time>2026-08-27T06:33:48.088Z</time>
      </trkpt>
      <trkpt lat="47.84258" lon="6.91541">
        <ele>1115.2</ele>
        <time>2026-08-27T06:33:49.096Z</time>
      </trkpt>
      <trkpt lat="47.84258" lon="6.91541">
        <ele>1115.2</ele>
        <time>2026-08-27T06:33:50.103Z</time>
      </trkpt>
      <trkpt lat="47.84258" lon="6.91541">
        <ele>1115.3</ele>
        <time>2026-08-27T06:33:51.111Z</time>
      </trkpt>
      <trkpt lat="47.84258" lon="6.91541">
        <ele>1115.1</ele>
        <time>2026-08-27T06:33:53.026Z</time>
      </trkpt>
      <trkpt lat="47.84258" lon="6.91541">
        <ele>1115.2</ele>
        <time>2026-08-27T06:33:54.034Z</time>
      </trkpt>
      <trkpt lat="47.84258" lon="6.91541">
        <ele>1115.5</ele>
        <time>2026-08-27T06:33:55.043Z</time>
      </trkpt>
      <trkpt lat="47.84258" lon="6.91541">
        <ele>1115.6</ele>
        <time>2026-08-27T06:33:56.050Z</time>
      </trkpt>
      <trkpt lat="47.84258" lon="6.91541">
        <ele>1115.5</ele>
        <time>2026-08-27T06:33:57.058Z</time>
      </trkpt>
      <trkpt lat="47.84258" lon="6.91541">
        <ele>1115.6</ele>
        <time>2026-08-27T06:33:58.066Z</time>
      </trkpt>
      <trkpt lat="47.84258" lon="6.91541">
        <ele>1115.6</ele>
        <time>2026-08-27T06:33:59.074Z</time>
      </trkpt>
      <trkpt lat="47.84258" lon="6.91541">
        <ele>1115.4</ele>
        <time>2026-08-27T06:34:00.082Z</time>
      </trkpt>
      <trkpt lat="47.84258" lon="6.91541">
        <ele>1115.4</ele>
        <time>2026-08-27T06:34:01.090Z</time>
      </trkpt>
      <trkpt lat="47.84258" lon="6.91541">
        <ele>1115.8</ele>
        <time>2026-08-27T06:34:02.098Z</time>
      </trkpt>
      <trkpt lat="47.84258" lon="6.91541">
        <ele>1116</ele>
        <time>2026-08-27T06:34:03.106Z</time>
      </trkpt>
      <trkpt lat="47.84258" lon="6.91541">
        <ele>1115.7</ele>
        <time>2026-08-27T06:34:04.113Z</time>
      </trkpt>
      <trkpt lat="47.84258" lon="6.91541">
        <ele>1115.6</ele>
        <time>2026-08-27T06:34:06.028Z</time>
      </trkpt>
      <trkpt lat="47.84258" lon="6.91541">
        <ele>1115.6</ele>
        <time>2026-08-27T06:34:07.036Z</time>
      </trkpt>
      <trkpt lat="47.84258" lon="6.91541">
        <ele>1115.8</ele>
        <time>2026-08-27T06:34:08.044Z</time>
      </trkpt>
      <trkpt lat="47.84258" lon="6.91541">
        <ele>1116</ele>
        <time>2026-08-27T06:34:09.052Z</time>
      </trkpt>
      <trkpt lat="47.84258" lon="6.91541">
        <ele>1116.2</ele>
        <time>2026-08-27T06:34:10.059Z</time>
      </trkpt>
      <trkpt lat="47.84258" lon="6.91541">
        <ele>1116.1</ele>
        <time>2026-08-27T06:34:11.067Z</time>
      </trkpt>
      <trkpt lat="47.84258" lon="6.91541">
        <ele>1116.1</ele>
        <time>2026-08-27T06:34:12.075Z</time>
      </trkpt>
      <trkpt lat="47.84258" lon="6.91541">
        <ele>1116.1</ele>
        <time>2026-08-27T06:34:13.083Z</time>
      </trkpt>
      <trkpt lat="47.84258" lon="6.91541">
        <ele>1116</ele>
        <time>2026-08-27T06:34:14.091Z</time>
      </trkpt>
      <trkpt lat="47.84258" lon="6.91541">
        <ele>1116.1</ele>
        <time>2026-08-27T06:34:15.099Z</time>
      </trkpt>
      <trkpt lat="47.84258" lon="6.91541">
        <ele>1115.9</ele>
        <time>2026-08-27T06:34:16.107Z</time>
      </trkpt>
      <trkpt lat="47.84258" lon="6.91541">
        <ele>1115.8</ele>
        <time>2026-08-27T06:34:18.023Z</time>
      </trkpt>
      <trkpt lat="47.84258" lon="6.91541">
        <ele>1115.7</ele>
        <time>2026-08-27T06:34:19.030Z</time>
      </trkpt>
      <trkpt lat="47.84258" lon="6.91541">
        <ele>1115.6</ele>
        <time>2026-08-27T06:34:20.037Z</time>
      </trkpt>
      <trkpt lat="47.84258" lon="6.91541">
        <ele>1115.6</ele>
        <time>2026-08-27T06:34:21.045Z</time>
      </trkpt>
      <trkpt lat="47.84258" lon="6.91541">
        <ele>1115.6</ele>
        <time>2026-08-27T06:34:22.053Z</time>
      </trkpt>
      <trkpt lat="47.84258" lon="6.91541">
        <ele>1115.6</ele>
        <time>2026-08-27T06:34:23.061Z</time>
      </trkpt>
      <trkpt lat="47.84258" lon="6.91541">
        <ele>1115.8</ele>
        <time>2026-08-27T06:34:24.069Z</time>
      </trkpt>
      <trkpt lat="47.84257" lon="6.91541">
        <ele>1115.8</ele>
        <time>2026-08-27T06:34:25.077Z</time>
      </trkpt>
      <trkpt lat="47.84257" lon="6.91541">
        <ele>1115.9</ele>
        <time>2026-08-27T06:34:26.085Z</time>
      </trkpt>
      <trkpt lat="47.84257" lon="6.91541">
        <ele>1115.9</ele>
        <time>2026-08-27T06:34:27.093Z</time>
      </trkpt>
      <trkpt lat="47.84257" lon="6.91541">
        <ele>1116.1</ele>
        <time>2026-08-27T06:34:28.100Z</time>
      </trkpt>
      <trkpt lat="47.84257" lon="6.91541">
        <ele>1116.3</ele>
        <time>2026-08-27T06:34:29.108Z</time>
      </trkpt>
      <trkpt lat="47.84257" lon="6.91541">
        <ele>1116.5</ele>
        <time>2026-08-27T06:34:31.023Z</time>
      </trkpt>
      <trkpt lat="47.84257" lon="6.91541">
        <ele>1116.7</ele>
        <time>2026-08-27T06:34:32.031Z</time>
      </trkpt>
      <trkpt lat="47.84257" lon="6.91541">
        <ele>1116.7</ele>
        <time>2026-08-27T06:34:33.039Z</time>
      </trkpt>
      <trkpt lat="47.84257" lon="6.91541">
        <ele>1116.7</ele>
        <time>2026-08-27T06:34:34.048Z</time>
      </trkpt>
      <trkpt lat="47.84257" lon="6.91541">
        <ele>1116.7</ele>
        <time>2026-08-27T06:34:35.055Z</time>
      </trkpt>
      <trkpt lat="47.84257" lon="6.91541">
        <ele>1116.7</ele>
        <time>2026-08-27T06:34:36.063Z</time>
      </trkpt>
      <trkpt lat="47.84257" lon="6.91541">
        <ele>1116.6</ele>
        <time>2026-08-27T06:34:37.071Z</time>
      </trkpt>
      <trkpt lat="47.84257" lon="6.91541">
        <ele>1116.7</ele>
        <time>2026-08-27T06:34:38.079Z</time>
      </trkpt>
      <trkpt lat="47.84257" lon="6.91541">
        <ele>1116.7</ele>
        <time>2026-08-27T06:34:39.087Z</time>
      </trkpt>
      <trkpt lat="47.84257" lon="6.91541">
        <ele>1116.7</ele>
        <time>2026-08-27T06:34:40.094Z</time>
      </trkpt>
      <trkpt lat="47.84257" lon="6.91541">
        <ele>1116.6</ele>
        <time>2026-08-27T06:34:41.102Z</time>
      </trkpt>
      <trkpt lat="47.84257" lon="6.91541">
        <ele>1116.4</ele>
        <time>2026-08-27T06:34:42.110Z</time>
      </trkpt>
      <trkpt lat="47.84257" lon="6.91541">
        <ele>1116.4</ele>
        <time>2026-08-27T06:34:44.026Z</time>
      </trkpt>
      <trkpt lat="47.84258" lon="6.91541">
        <ele>1116.3</ele>
        <time>2026-08-27T06:34:45.034Z</time>
      </trkpt>
      <trkpt lat="47.84258" lon="6.91541">
        <ele>1116.2</ele>
        <time>2026-08-27T06:34:46.041Z</time>
      </trkpt>
      <trkpt lat="47.84258" lon="6.91541">
        <ele>1116.2</ele>
        <time>2026-08-27T06:34:47.048Z</time>
      </trkpt>
      <trkpt lat="47.84258" lon="6.91541">
        <ele>1116.1</ele>
        <time>2026-08-27T06:34:48.056Z</time>
      </trkpt>
      <trkpt lat="47.84258" lon="6.91541">
        <ele>1116.2</ele>
        <time>2026-08-27T06:34:49.065Z</time>
      </trkpt>
      <trkpt lat="47.84258" lon="6.9154">
        <ele>1116.2</ele>
        <time>2026-08-27T06:34:50.072Z</time>
      </trkpt>
      <trkpt lat="47.84258" lon="6.9154">
        <ele>1116.3</ele>
        <time>2026-08-27T06:34:51.080Z</time>
      </trkpt>
      <trkpt lat="47.84258" lon="6.9154">
        <ele>1116.3</ele>
        <time>2026-08-27T06:34:52.088Z</time>
      </trkpt>
      <trkpt lat="47.84258" lon="6.9154">
        <ele>1116.5</ele>
        <time>2026-08-27T06:34:53.097Z</time>
      </trkpt>
      <trkpt lat="47.84258" lon="6.9154">
        <ele>1116.6</ele>
        <time>2026-08-27T06:34:54.105Z</time>
      </trkpt>
      <trkpt lat="47.84258" lon="6.9154">
        <ele>1116.6</ele>
        <time>2026-08-27T06:34:56.019Z</time>
      </trkpt>
      <trkpt lat="47.84258" lon="6.9154">
        <ele>1116.6</ele>
        <time>2026-08-27T06:34:57.026Z</time>
      </trkpt>
      <trkpt lat="47.84258" lon="6.9154">
        <ele>1116.6</ele>
        <time>2026-08-27T06:34:58.034Z</time>
      </trkpt>
      <trkpt lat="47.84258" lon="6.9154">
        <ele>1116.5</ele>
        <time>2026-08-27T06:34:59.043Z</time>
      </trkpt>
      <trkpt lat="47.84258" lon="6.9154">
        <ele>1116.6</ele>
        <time>2026-08-27T06:35:00.050Z</time>
      </trkpt>
      <trkpt lat="47.84258" lon="6.9154">
        <ele>1116.3</ele>
        <time>2026-08-27T06:35:01.059Z</time>
      </trkpt>
      <trkpt lat="47.84258" lon="6.9154">
        <ele>1116.2</ele>
        <time>2026-08-27T06:35:02.066Z</time>
      </trkpt>
      <trkpt lat="47.84258" lon="6.9154">
        <ele>1116.1</ele>
        <time>2026-08-27T06:35:03.075Z</time>
      </trkpt>
      <trkpt lat="47.84258" lon="6.9154">
        <ele>1115.9</ele>
        <time>2026-08-27T06:35:04.083Z</time>
      </trkpt>
      <trkpt lat="47.84258" lon="6.9154">
        <ele>1115.8</ele>
        <time>2026-08-27T06:35:05.089Z</time>
      </trkpt>
      <trkpt lat="47.84258" lon="6.9154">
        <ele>1115.9</ele>
        <time>2026-08-27T06:35:06.097Z</time>
      </trkpt>
      <trkpt lat="47.84258" lon="6.9154">
        <ele>1115.7</ele>
        <time>2026-08-27T06:35:07.105Z</time>
      </trkpt>
      <trkpt lat="47.84258" lon="6.9154">
        <ele>1115.6</ele>
        <time>2026-08-27T06:35:08.113Z</time>
      </trkpt>
      <trkpt lat="47.84258" lon="6.9154">
        <ele>1115.7</ele>
        <time>2026-08-27T06:35:10.028Z</time>
      </trkpt>
      <trkpt lat="47.84258" lon="6.9154">
        <ele>1115.6</ele>
        <time>2026-08-27T06:35:11.036Z</time>
      </trkpt>
      <trkpt lat="47.84258" lon="6.9154">
        <ele>1115.6</ele>
        <time>2026-08-27T06:35:12.044Z</time>
      </trkpt>
      <trkpt lat="47.84258" lon="6.9154">
        <ele>1115.7</ele>
        <time>2026-08-27T06:35:13.052Z</time>
      </trkpt>
      <trkpt lat="47.84258" lon="6.9154">
        <ele>1115.7</ele>
        <time>2026-08-27T06:35:14.059Z</time>
      </trkpt>
      <trkpt lat="47.84258" lon="6.91541">
        <ele>1115.9</ele>
        <time>2026-08-27T06:35:15.067Z</time>
      </trkpt>
      <trkpt lat="47.84258" lon="6.91541">
        <ele>1115.9</ele>
        <time>2026-08-27T06:35:16.075Z</time>
      </trkpt>
      <trkpt lat="47.84258" lon="6.91541">
        <ele>1115.9</ele>
        <time>2026-08-27T06:35:17.083Z</time>
      </trkpt>
      <trkpt lat="47.84258" lon="6.91541">
        <ele>1115.8</ele>
        <time>2026-08-27T06:35:18.091Z</time>
      </trkpt>
      <trkpt lat="47.84258" lon="6.91541">
        <ele>1115.9</ele>
        <time>2026-08-27T06:35:19.099Z</time>
      </trkpt>
      <trkpt lat="47.84258" lon="6.91541">
        <ele>1116</ele>
        <time>2026-08-27T06:35:20.107Z</time>
      </trkpt>
      <trkpt lat="47.84258" lon="6.91541">
        <ele>1116.4</ele>
        <time>2026-08-27T06:35:21.116Z</time>
      </trkpt>
      <trkpt lat="47.84258" lon="6.91541">
        <ele>1116.5</ele>
        <time>2026-08-27T06:35:23.030Z</time>
      </trkpt>
      <trkpt lat="47.84258" lon="6.91541">
        <ele>1116.5</ele>
        <time>2026-08-27T06:35:24.037Z</time>
      </trkpt>
      <trkpt lat="47.84258" lon="6.91541">
        <ele>1116.6</ele>
        <time>2026-08-27T06:35:25.046Z</time>
      </trkpt>
      <trkpt lat="47.84258" lon="6.91541">
        <ele>1116.6</ele>
        <time>2026-08-27T06:35:26.053Z</time>
      </trkpt>
      <trkpt lat="47.84258" lon="6.91541">
        <ele>1116.6</ele>
        <time>2026-08-27T06:35:27.061Z</time>
      </trkpt>
      <trkpt lat="47.84258" lon="6.91541">
        <ele>1116.5</ele>
        <time>2026-08-27T06:35:28.070Z</time>
      </trkpt>
      <trkpt lat="47.84258" lon="6.91541">
        <ele>1116.7</ele>
        <time>2026-08-27T06:35:29.077Z</time>
      </trkpt>
      <trkpt lat="47.84258" lon="6.91541">
        <ele>1116.5</ele>
        <time>2026-08-27T06:35:30.085Z</time>
      </trkpt>
      <trkpt lat="47.84258" lon="6.91541">
        <ele>1116.5</ele>
        <time>2026-08-27T06:35:31.094Z</time>
      </trkpt>
      <trkpt lat="47.84258" lon="6.91541">
        <ele>1116.5</ele>
        <time>2026-08-27T06:35:32.100Z</time>
      </trkpt>
      <trkpt lat="47.84258" lon="6.91541">
        <ele>1116.4</ele>
        <time>2026-08-27T06:35:33.108Z</time>
      </trkpt>
      <trkpt lat="47.84258" lon="6.91541">
        <ele>1116.6</ele>
        <time>2026-08-27T06:35:34.116Z</time>
      </trkpt>
      <trkpt lat="47.84258" lon="6.91541">
        <ele>1116.7</ele>
        <time>2026-08-27T06:35:36.032Z</time>
      </trkpt>
      <trkpt lat="47.84258" lon="6.91541">
        <ele>1116.9</ele>
        <time>2026-08-27T06:35:37.040Z</time>
      </trkpt>
      <trkpt lat="47.84258" lon="6.91541">
        <ele>1116.8</ele>
        <time>2026-08-27T06:35:38.048Z</time>
      </trkpt>
      <trkpt lat="47.84258" lon="6.91541">
        <ele>1116.8</ele>
        <time>2026-08-27T06:35:39.056Z</time>
      </trkpt>
      <trkpt lat="47.84258" lon="6.91541">
        <ele>1116.6</ele>
        <time>2026-08-27T06:35:40.064Z</time>
      </trkpt>
      <trkpt lat="47.84258" lon="6.91541">
        <ele>1116.5</ele>
        <time>2026-08-27T06:35:41.071Z</time>
      </trkpt>
      <trkpt lat="47.84258" lon="6.91541">
        <ele>1116.3</ele>
        <time>2026-08-27T06:35:42.078Z</time>
      </trkpt>
      <trkpt lat="47.84258" lon="6.91541">
        <ele>1116.2</ele>
        <time>2026-08-27T06:35:43.086Z</time>
      </trkpt>
      <trkpt lat="47.84258" lon="6.9154">
        <ele>1116.5</ele>
        <time>2026-08-27T06:35:44.094Z</time>
      </trkpt>
      <trkpt lat="47.84258" lon="6.9154">
        <ele>1116.5</ele>
        <time>2026-08-27T06:35:45.102Z</time>
      </trkpt>
      <trkpt lat="47.84258" lon="6.9154">
        <ele>1116.2</ele>
        <time>2026-08-27T06:35:47.018Z</time>
      </trkpt>
      <trkpt lat="47.84258" lon="6.9154">
        <ele>1116.3</ele>
        <time>2026-08-27T06:35:48.026Z</time>
      </trkpt>
      <trkpt lat="47.84258" lon="6.9154">
        <ele>1116.3</ele>
        <time>2026-08-27T06:35:49.033Z</time>
      </trkpt>
      <trkpt lat="47.84258" lon="6.9154">
        <ele>1116.4</ele>
        <time>2026-08-27T06:35:50.040Z</time>
      </trkpt>
      <trkpt lat="47.84258" lon="6.9154">
        <ele>1116.2</ele>
        <time>2026-08-27T06:35:51.048Z</time>
      </trkpt>
      <trkpt lat="47.84258" lon="6.9154">
        <ele>1116.3</ele>
        <time>2026-08-27T06:35:52.056Z</time>
      </trkpt>
      <trkpt lat="47.84257" lon="6.9154">
        <ele>1116.4</ele>
        <time>2026-08-27T06:35:53.064Z</time>
      </trkpt>
      <trkpt lat="47.84257" lon="6.9154">
        <ele>1116.4</ele>
        <time>2026-08-27T06:35:54.072Z</time>
      </trkpt>
      <trkpt lat="47.84257" lon="6.9154">
        <ele>1116.4</ele>
        <time>2026-08-27T06:35:55.080Z</time>
      </trkpt>
      <trkpt lat="47.84257" lon="6.91541">
        <ele>1116.4</ele>
        <time>2026-08-27T06:35:56.088Z</time>
      </trkpt>
      <trkpt lat="47.84257" lon="6.91541">
        <ele>1116.3</ele>
        <time>2026-08-27T06:35:57.097Z</time>
      </trkpt>
      <trkpt lat="47.84257" lon="6.91541">
        <ele>1116.2</ele>
        <time>2026-08-27T06:35:58.103Z</time>
      </trkpt>
      <trkpt lat="47.84257" lon="6.91541">
        <ele>1115.9</ele>
        <time>2026-08-27T06:36:00.018Z</time>
      </trkpt>
      <trkpt lat="47.84257" lon="6.91541">
        <ele>1115.9</ele>
        <time>2026-08-27T06:36:01.026Z</time>
      </trkpt>
      <trkpt lat="47.84257" lon="6.91541">
        <ele>1116.1</ele>
        <time>2026-08-27T06:36:02.034Z</time>
      </trkpt>
      <trkpt lat="47.84257" lon="6.91541">
        <ele>1116.2</ele>
        <time>2026-08-27T06:36:03.042Z</time>
      </trkpt>
      <trkpt lat="47.84258" lon="6.91541">
        <ele>1116.1</ele>
        <time>2026-08-27T06:36:04.051Z</time>
      </trkpt>
      <trkpt lat="47.84258" lon="6.91541">
        <ele>1116.3</ele>
        <time>2026-08-27T06:36:05.058Z</time>
      </trkpt>
      <trkpt lat="47.84258" lon="6.91541">
        <ele>1116.4</ele>
        <time>2026-08-27T06:36:06.066Z</time>
      </trkpt>
      <trkpt lat="47.84258" lon="6.91541">
        <ele>1116.1</ele>
        <time>2026-08-27T06:36:07.073Z</time>
      </trkpt>
      <trkpt lat="47.84258" lon="6.91541">
        <ele>1116.1</ele>
        <time>2026-08-27T06:36:08.082Z</time>
      </trkpt>
      <trkpt lat="47.84258" lon="6.91541">
        <ele>1116.2</ele>
        <time>2026-08-27T06:36:09.089Z</time>
      </trkpt>
      <trkpt lat="47.84258" lon="6.91541">
        <ele>1116.2</ele>
        <time>2026-08-27T06:36:10.097Z</time>
      </trkpt>
      <trkpt lat="47.84258" lon="6.91541">
        <ele>1116.1</ele>
        <time>2026-08-27T06:36:11.105Z</time>
      </trkpt>
      <trkpt lat="47.84258" lon="6.91541">
        <ele>1116</ele>
        <time>2026-08-27T06:36:13.121Z</time>
      </trkpt>
      <trkpt lat="47.84258" lon="6.91541">
        <ele>1116</ele>
        <time>2026-08-27T06:36:15.036Z</time>
      </trkpt>
      <trkpt lat="47.84258" lon="6.91541">
        <ele>1116</ele>
        <time>2026-08-27T06:36:16.043Z</time>
      </trkpt>
      <trkpt lat="47.84258" lon="6.91541">
        <ele>1116.1</ele>
        <time>2026-08-27T06:36:17.051Z</time>
      </trkpt>
      <trkpt lat="47.84258" lon="6.91541">
        <ele>1116</ele>
        <time>2026-08-27T06:36:18.059Z</time>
      </trkpt>
      <trkpt lat="47.84258" lon="6.91541">
        <ele>1116</ele>
        <time>2026-08-27T06:36:19.067Z</time>
      </trkpt>
      <trkpt lat="47.84258" lon="6.91541">
        <ele>1115.8</ele>
        <time>2026-08-27T06:36:20.075Z</time>
      </trkpt>
      <trkpt lat="47.84258" lon="6.91541">
        <ele>1115.8</ele>
        <time>2026-08-27T06:36:21.083Z</time>
      </trkpt>
      <trkpt lat="47.84258" lon="6.91541">
        <ele>1115.7</ele>
        <time>2026-08-27T06:36:22.092Z</time>
      </trkpt>
      <trkpt lat="47.84258" lon="6.91541">
        <ele>1115.5</ele>
        <time>2026-08-27T06:36:23.100Z</time>
      </trkpt>
      <trkpt lat="47.84258" lon="6.91541">
        <ele>1115.6</ele>
        <time>2026-08-27T06:36:24.107Z</time>
      </trkpt>
      <trkpt lat="47.84258" lon="6.91541">
        <ele>1115.7</ele>
        <time>2026-08-27T06:36:25.114Z</time>
      </trkpt>
      <trkpt lat="47.84258" lon="6.91541">
        <ele>1115.4</ele>
        <time>2026-08-27T06:36:27.029Z</time>
      </trkpt>
      <trkpt lat="47.84258" lon="6.91541">
        <ele>1115</ele>
        <time>2026-08-27T06:36:28.037Z</time>
      </trkpt>
      <trkpt lat="47.84258" lon="6.91541">
        <ele>1115.2</ele>
        <time>2026-08-27T06:36:29.045Z</time>
      </trkpt>
      <trkpt lat="47.84258" lon="6.91541">
        <ele>1115.5</ele>
        <time>2026-08-27T06:36:30.054Z</time>
      </trkpt>
      <trkpt lat="47.84258" lon="6.91541">
        <ele>1116.2</ele>
        <time>2026-08-27T06:36:31.061Z</time>
      </trkpt>
      <trkpt lat="47.84258" lon="6.91541">
        <ele>1116.5</ele>
        <time>2026-08-27T06:36:32.070Z</time>
      </trkpt>
      <trkpt lat="47.84258" lon="6.91541">
        <ele>1116.4</ele>
        <time>2026-08-27T06:36:33.076Z</time>
      </trkpt>
      <trkpt lat="47.84258" lon="6.91541">
        <ele>1116.4</ele>
        <time>2026-08-27T06:36:34.085Z</time>
      </trkpt>
      <trkpt lat="47.84258" lon="6.91541">
        <ele>1116.6</ele>
        <time>2026-08-27T06:36:35.093Z</time>
      </trkpt>
      <trkpt lat="47.84258" lon="6.91541">
        <ele>1116.4</ele>
        <time>2026-08-27T06:36:36.101Z</time>
      </trkpt>
      <trkpt lat="47.84258" lon="6.91541">
        <ele>1116.5</ele>
        <time>2026-08-27T06:36:37.108Z</time>
      </trkpt>
      <trkpt lat="47.84258" lon="6.91541">
        <ele>1116</ele>
        <time>2026-08-27T06:36:39.023Z</time>
      </trkpt>
      <trkpt lat="47.84258" lon="6.91541">
        <ele>1116</ele>
        <time>2026-08-27T06:36:40.031Z</time>
      </trkpt>
      <trkpt lat="47.84258" lon="6.91541">
        <ele>1115.9</ele>
        <time>2026-08-27T06:36:41.039Z</time>
      </trkpt>
      <trkpt lat="47.84258" lon="6.91541">
        <ele>1115.9</ele>
        <time>2026-08-27T06:36:42.046Z</time>
      </trkpt>
      <trkpt lat="47.84258" lon="6.91541">
        <ele>1116.1</ele>
        <time>2026-08-27T06:36:43.054Z</time>
      </trkpt>
      <trkpt lat="47.84258" lon="6.91541">
        <ele>1116.1</ele>
        <time>2026-08-27T06:36:44.062Z</time>
      </trkpt>
      <trkpt lat="47.84258" lon="6.91541">
        <ele>1116.2</ele>
        <time>2026-08-27T06:36:45.070Z</time>
      </trkpt>
      <trkpt lat="47.84258" lon="6.91541">
        <ele>1116.4</ele>
        <time>2026-08-27T06:36:46.079Z</time>
      </trkpt>
      <trkpt lat="47.84258" lon="6.91541">
        <ele>1116.3</ele>
        <time>2026-08-27T06:36:47.087Z</time>
      </trkpt>
      <trkpt lat="47.84258" lon="6.91541">
        <ele>1116.4</ele>
        <time>2026-08-27T06:36:48.094Z</time>
      </trkpt>
      <trkpt lat="47.84258" lon="6.91541">
        <ele>1116.3</ele>
        <time>2026-08-27T06:36:49.101Z</time>
      </trkpt>
      <trkpt lat="47.84258" lon="6.91541">
        <ele>1116.3</ele>
        <time>2026-08-27T06:36:50.110Z</time>
      </trkpt>
      <trkpt lat="47.84258" lon="6.91541">
        <ele>1116.3</ele>
        <time>2026-08-27T06:36:52.025Z</time>
      </trkpt>
      <trkpt lat="47.84258" lon="6.91541">
        <ele>1116.5</ele>
        <time>2026-08-27T06:36:53.033Z</time>
      </trkpt>
      <trkpt lat="47.84258" lon="6.91541">
        <ele>1116.2</ele>
        <time>2026-08-27T06:36:54.040Z</time>
      </trkpt>
      <trkpt lat="47.84258" lon="6.91541">
        <ele>1116.3</ele>
        <time>2026-08-27T06:36:55.049Z</time>
      </trkpt>
      <trkpt lat="47.84258" lon="6.91541">
        <ele>1116</ele>
        <time>2026-08-27T06:36:56.057Z</time>
      </trkpt>
      <trkpt lat="47.84258" lon="6.91541">
        <ele>1116</ele>
        <time>2026-08-27T06:36:57.064Z</time>
      </trkpt>
      <trkpt lat="47.84258" lon="6.91541">
        <ele>1116.1</ele>
        <time>2026-08-27T06:36:58.071Z</time>
      </trkpt>
      <trkpt lat="47.84258" lon="6.91541">
        <ele>1116.1</ele>
        <time>2026-08-27T06:36:59.079Z</time>
      </trkpt>
      <trkpt lat="47.84258" lon="6.91541">
        <ele>1116.2</ele>
        <time>2026-08-27T06:37:00.087Z</time>
      </trkpt>
      <trkpt lat="47.84258" lon="6.91541">
        <ele>1116.2</ele>
        <time>2026-08-27T06:37:01.095Z</time>
      </trkpt>
      <trkpt lat="47.84258" lon="6.91541">
        <ele>1116.3</ele>
        <time>2026-08-27T06:37:02.103Z</time>
      </trkpt>
      <trkpt lat="47.84258" lon="6.91541">
        <ele>1116.3</ele>
        <time>2026-08-27T06:37:04.019Z</time>
      </trkpt>
      <trkpt lat="47.84258" lon="6.91541">
        <ele>1116.4</ele>
        <time>2026-08-27T06:37:05.027Z</time>
      </trkpt>
      <trkpt lat="47.84258" lon="6.91541">
        <ele>1116.5</ele>
        <time>2026-08-27T06:37:06.035Z</time>
      </trkpt>
      <trkpt lat="47.84258" lon="6.91541">
        <ele>1116.6</ele>
        <time>2026-08-27T06:37:07.041Z</time>
      </trkpt>
      <trkpt lat="47.84258" lon="6.91541">
        <ele>1116.6</ele>
        <time>2026-08-27T06:37:08.049Z</time>
      </trkpt>
      <trkpt lat="47.84258" lon="6.91541">
        <ele>1116.5</ele>
        <time>2026-08-27T06:37:09.058Z</time>
      </trkpt>
      <trkpt lat="47.84258" lon="6.91541">
        <ele>1116.4</ele>
        <time>2026-08-27T06:37:10.066Z</time>
      </trkpt>
      <trkpt lat="47.84258" lon="6.91541">
        <ele>1116.5</ele>
        <time>2026-08-27T06:37:11.074Z</time>
      </trkpt>
      <trkpt lat="47.84258" lon="6.91541">
        <ele>1116.8</ele>
        <time>2026-08-27T06:37:12.081Z</time>
      </trkpt>
      <trkpt lat="47.84258" lon="6.91541">
        <ele>1116.8</ele>
        <time>2026-08-27T06:37:13.089Z</time>
      </trkpt>
      <trkpt lat="47.84258" lon="6.91541">
        <ele>1116.8</ele>
        <time>2026-08-27T06:37:14.096Z</time>
      </trkpt>
      <trkpt lat="47.84258" lon="6.91541">
        <ele>1116.9</ele>
        <time>2026-08-27T06:37:15.104Z</time>
      </trkpt>
      <trkpt lat="47.84258" lon="6.91541">
        <ele>1116.8</ele>
        <time>2026-08-27T06:37:16.113Z</time>
      </trkpt>
      <trkpt lat="47.84258" lon="6.91541">
        <ele>1116.7</ele>
        <time>2026-08-27T06:37:18.027Z</time>
      </trkpt>
      <trkpt lat="47.84258" lon="6.91541">
        <ele>1116.8</ele>
        <time>2026-08-27T06:37:19.035Z</time>
      </trkpt>
      <trkpt lat="47.84258" lon="6.91541">
        <ele>1117.1</ele>
        <time>2026-08-27T06:37:20.043Z</time>
      </trkpt>
      <trkpt lat="47.84258" lon="6.91541">
        <ele>1117.3</ele>
        <time>2026-08-27T06:37:21.051Z</time>
      </trkpt>
      <trkpt lat="47.84258" lon="6.91541">
        <ele>1117.3</ele>
        <time>2026-08-27T06:37:22.060Z</time>
      </trkpt>
      <trkpt lat="47.84258" lon="6.91541">
        <ele>1117.3</ele>
        <time>2026-08-27T06:37:23.067Z</time>
      </trkpt>
      <trkpt lat="47.84258" lon="6.91541">
        <ele>1117.3</ele>
        <time>2026-08-27T06:37:24.074Z</time>
      </trkpt>
      <trkpt lat="47.84258" lon="6.91541">
        <ele>1117</ele>
        <time>2026-08-27T06:37:25.082Z</time>
      </trkpt>
      <trkpt lat="47.84258" lon="6.91541">
        <ele>1117.1</ele>
        <time>2026-08-27T06:37:26.090Z</time>
      </trkpt>
      <trkpt lat="47.84258" lon="6.91541">
        <ele>1117</ele>
        <time>2026-08-27T06:37:27.099Z</time>
      </trkpt>
      <trkpt lat="47.84258" lon="6.91541">
        <ele>1117.1</ele>
        <time>2026-08-27T06:37:28.106Z</time>
      </trkpt>
      <trkpt lat="47.84258" lon="6.91541">
        <ele>1117.1</ele>
        <time>2026-08-27T06:37:30.122Z</time>
      </trkpt>
      <trkpt lat="47.84258" lon="6.91541">
        <ele>1116.8</ele>
        <time>2026-08-27T06:37:32.036Z</time>
      </trkpt>
      <trkpt lat="47.84258" lon="6.91541">
        <ele>1116.8</ele>
        <time>2026-08-27T06:37:33.044Z</time>
      </trkpt>
      <trkpt lat="47.84258" lon="6.91541">
        <ele>1116.9</ele>
        <time>2026-08-27T06:37:34.052Z</time>
      </trkpt>
      <trkpt lat="47.84258" lon="6.91541">
        <ele>1116.9</ele>
        <time>2026-08-27T06:37:35.060Z</time>
      </trkpt>
      <trkpt lat="47.84258" lon="6.91541">
        <ele>1116.8</ele>
        <time>2026-08-27T06:37:36.068Z</time>
      </trkpt>
      <trkpt lat="47.84258" lon="6.91541">
        <ele>1116.8</ele>
        <time>2026-08-27T06:37:37.076Z</time>
      </trkpt>
      <trkpt lat="47.84258" lon="6.91541">
        <ele>1116.6</ele>
        <time>2026-08-27T06:37:38.085Z</time>
      </trkpt>
      <trkpt lat="47.84258" lon="6.91541">
        <ele>1116.5</ele>
        <time>2026-08-27T06:37:39.091Z</time>
      </trkpt>
      <trkpt lat="47.84258" lon="6.91541">
        <ele>1116.6</ele>
        <time>2026-08-27T06:37:40.099Z</time>
      </trkpt>
      <trkpt lat="47.84258" lon="6.91541">
        <ele>1116.9</ele>
        <time>2026-08-27T06:37:41.107Z</time>
      </trkpt>
      <trkpt lat="47.84258" lon="6.91541">
        <ele>1116.8</ele>
        <time>2026-08-27T06:37:42.116Z</time>
      </trkpt>
      <trkpt lat="47.84258" lon="6.91541">
        <ele>1116.9</ele>
        <time>2026-08-27T06:37:44.030Z</time>
      </trkpt>
      <trkpt lat="47.84258" lon="6.91541">
        <ele>1116.8</ele>
        <time>2026-08-27T06:37:45.039Z</time>
      </trkpt>
      <trkpt lat="47.84258" lon="6.91541">
        <ele>1116.8</ele>
        <time>2026-08-27T06:37:46.047Z</time>
      </trkpt>
      <trkpt lat="47.84258" lon="6.91541">
        <ele>1116.7</ele>
        <time>2026-08-27T06:37:47.054Z</time>
      </trkpt>
      <trkpt lat="47.84258" lon="6.91541">
        <ele>1116.7</ele>
        <time>2026-08-27T06:37:48.061Z</time>
      </trkpt>
      <trkpt lat="47.84258" lon="6.91541">
        <ele>1116.8</ele>
        <time>2026-08-27T06:37:49.069Z</time>
      </trkpt>
      <trkpt lat="47.84258" lon="6.91541">
        <ele>1116.9</ele>
        <time>2026-08-27T06:37:50.077Z</time>
      </trkpt>
      <trkpt lat="47.84258" lon="6.91541">
        <ele>1116.9</ele>
        <time>2026-08-27T06:37:51.086Z</time>
      </trkpt>
      <trkpt lat="47.84258" lon="6.91541">
        <ele>1116.9</ele>
        <time>2026-08-27T06:37:52.093Z</time>
      </trkpt>
      <trkpt lat="47.84259" lon="6.91541">
        <ele>1116.5</ele>
        <time>2026-08-27T06:37:54.110Z</time>
      </trkpt>
      <trkpt lat="47.84259" lon="6.91541">
        <ele>1116.6</ele>
        <time>2026-08-27T06:37:55.117Z</time>
      </trkpt>
      <trkpt lat="47.84258" lon="6.91541">
        <ele>1116.6</ele>
        <time>2026-08-27T06:37:57.031Z</time>
      </trkpt>
      <trkpt lat="47.84258" lon="6.91541">
        <ele>1116.8</ele>
        <time>2026-08-27T06:37:58.039Z</time>
      </trkpt>
      <trkpt lat="47.84258" lon="6.91541">
        <ele>1116.7</ele>
        <time>2026-08-27T06:37:59.047Z</time>
      </trkpt>
      <trkpt lat="47.84258" lon="6.91541">
        <ele>1116.8</ele>
        <time>2026-08-27T06:38:00.055Z</time>
      </trkpt>
      <trkpt lat="47.84258" lon="6.91541">
        <ele>1116.7</ele>
        <time>2026-08-27T06:38:01.063Z</time>
      </trkpt>
      <trkpt lat="47.84258" lon="6.91541">
        <ele>1116.7</ele>
        <time>2026-08-27T06:38:02.071Z</time>
      </trkpt>
      <trkpt lat="47.84258" lon="6.91541">
        <ele>1116.8</ele>
        <time>2026-08-27T06:38:03.079Z</time>
      </trkpt>
      <trkpt lat="47.84258" lon="6.91541">
        <ele>1116.8</ele>
        <time>2026-08-27T06:38:04.086Z</time>
      </trkpt>
      <trkpt lat="47.84258" lon="6.91541">
        <ele>1116.5</ele>
        <time>2026-08-27T06:38:05.094Z</time>
      </trkpt>
      <trkpt lat="47.84258" lon="6.91541">
        <ele>1116.4</ele>
        <time>2026-08-27T06:38:06.102Z</time>
      </trkpt>
      <trkpt lat="47.84258" lon="6.91541">
        <ele>1116.2</ele>
        <time>2026-08-27T06:38:07.110Z</time>
      </trkpt>
      <trkpt lat="47.84258" lon="6.91541">
        <ele>1116.3</ele>
        <time>2026-08-27T06:38:09.026Z</time>
      </trkpt>
      <trkpt lat="47.84258" lon="6.91541">
        <ele>1116.5</ele>
        <time>2026-08-27T06:38:10.033Z</time>
      </trkpt>
      <trkpt lat="47.84258" lon="6.91541">
        <ele>1116.5</ele>
        <time>2026-08-27T06:38:11.041Z</time>
      </trkpt>
      <trkpt lat="47.84258" lon="6.91541">
        <ele>1116.5</ele>
        <time>2026-08-27T06:38:12.049Z</time>
      </trkpt>
      <trkpt lat="47.84258" lon="6.91541">
        <ele>1116.5</ele>
        <time>2026-08-27T06:38:13.056Z</time>
      </trkpt>
      <trkpt lat="47.84258" lon="6.91541">
        <ele>1116.4</ele>
        <time>2026-08-27T06:38:14.065Z</time>
      </trkpt>
      <trkpt lat="47.84258" lon="6.91541">
        <ele>1116.3</ele>
        <time>2026-08-27T06:38:15.072Z</time>
      </trkpt>
      <trkpt lat="47.84258" lon="6.91541">
        <ele>1116.1</ele>
        <time>2026-08-27T06:38:16.080Z</time>
      </trkpt>
      <trkpt lat="47.84258" lon="6.91541">
        <ele>1116.2</ele>
        <time>2026-08-27T06:38:17.088Z</time>
      </trkpt>
      <trkpt lat="47.84258" lon="6.91541">
        <ele>1116.2</ele>
        <time>2026-08-27T06:38:18.096Z</time>
      </trkpt>
      <trkpt lat="47.84258" lon="6.91541">
        <ele>1116.2</ele>
        <time>2026-08-27T06:38:19.104Z</time>
      </trkpt>
      <trkpt lat="47.84258" lon="6.91541">
        <ele>1116.1</ele>
        <time>2026-08-27T06:38:21.019Z</time>
      </trkpt>
      <trkpt lat="47.84258" lon="6.91541">
        <ele>1116.2</ele>
        <time>2026-08-27T06:38:22.026Z</time>
      </trkpt>
      <trkpt lat="47.84258" lon="6.91541">
        <ele>1115.9</ele>
        <time>2026-08-27T06:38:23.034Z</time>
      </trkpt>
      <trkpt lat="47.84258" lon="6.91541">
        <ele>1116.1</ele>
        <time>2026-08-27T06:38:24.043Z</time>
      </trkpt>
      <trkpt lat="47.84258" lon="6.91541">
        <ele>1116.1</ele>
        <time>2026-08-27T06:38:25.050Z</time>
      </trkpt>
      <trkpt lat="47.84258" lon="6.91541">
        <ele>1116.1</ele>
        <time>2026-08-27T06:38:26.059Z</time>
      </trkpt>
      <trkpt lat="47.84258" lon="6.91541">
        <ele>1116.3</ele>
        <time>2026-08-27T06:38:27.067Z</time>
      </trkpt>
      <trkpt lat="47.84258" lon="6.91541">
        <ele>1116.2</ele>
        <time>2026-08-27T06:38:28.074Z</time>
      </trkpt>
      <trkpt lat="47.84258" lon="6.91541">
        <ele>1116.3</ele>
        <time>2026-08-27T06:38:29.081Z</time>
      </trkpt>
      <trkpt lat="47.84258" lon="6.91541">
        <ele>1116.3</ele>
        <time>2026-08-27T06:38:30.089Z</time>
      </trkpt>
      <trkpt lat="47.84258" lon="6.91541">
        <ele>1116.3</ele>
        <time>2026-08-27T06:38:31.097Z</time>
      </trkpt>
      <trkpt lat="47.84258" lon="6.91541">
        <ele>1116.4</ele>
        <time>2026-08-27T06:38:32.106Z</time>
      </trkpt>
      <trkpt lat="47.84258" lon="6.91541">
        <ele>1116.5</ele>
        <time>2026-08-27T06:38:33.113Z</time>
      </trkpt>
      <trkpt lat="47.84258" lon="6.9154">
        <ele>1116.3</ele>
        <time>2026-08-27T06:38:35.028Z</time>
      </trkpt>
      <trkpt lat="47.84258" lon="6.9154">
        <ele>1116.1</ele>
        <time>2026-08-27T06:38:36.036Z</time>
      </trkpt>
      <trkpt lat="47.84258" lon="6.9154">
        <ele>1116.2</ele>
        <time>2026-08-27T06:38:37.043Z</time>
      </trkpt>
      <trkpt lat="47.84258" lon="6.9154">
        <ele>1116.1</ele>
        <time>2026-08-27T06:38:38.051Z</time>
      </trkpt>
      <trkpt lat="47.84258" lon="6.9154">
        <ele>1116.4</ele>
        <time>2026-08-27T06:38:39.059Z</time>
      </trkpt>
      <trkpt lat="47.84258" lon="6.9154">
        <ele>1116.4</ele>
        <time>2026-08-27T06:38:40.067Z</time>
      </trkpt>
      <trkpt lat="47.84258" lon="6.9154">
        <ele>1116.4</ele>
        <time>2026-08-27T06:38:41.075Z</time>
      </trkpt>
      <trkpt lat="47.84258" lon="6.9154">
        <ele>1116.4</ele>
        <time>2026-08-27T06:38:42.083Z</time>
      </trkpt>
      <trkpt lat="47.84258" lon="6.9154">
        <ele>1116.3</ele>
        <time>2026-08-27T06:38:43.091Z</time>
      </trkpt>
      <trkpt lat="47.84257" lon="6.9154">
        <ele>1116.3</ele>
        <time>2026-08-27T06:38:44.098Z</time>
      </trkpt>
      <trkpt lat="47.84257" lon="6.9154">
        <ele>1116.4</ele>
        <time>2026-08-27T06:38:46.013Z</time>
      </trkpt>
      <trkpt lat="47.84257" lon="6.9154">
        <ele>1116.4</ele>
        <time>2026-08-27T06:38:47.021Z</time>
      </trkpt>
      <trkpt lat="47.84257" lon="6.9154">
        <ele>1116.5</ele>
        <time>2026-08-27T06:38:48.029Z</time>
      </trkpt>
      <trkpt lat="47.84257" lon="6.9154">
        <ele>1116.4</ele>
        <time>2026-08-27T06:38:49.038Z</time>
      </trkpt>
      <trkpt lat="47.84257" lon="6.9154">
        <ele>1116.3</ele>
        <time>2026-08-27T06:38:50.045Z</time>
      </trkpt>
      <trkpt lat="47.84257" lon="6.9154">
        <ele>1116.4</ele>
        <time>2026-08-27T06:38:51.054Z</time>
      </trkpt>
      <trkpt lat="47.84257" lon="6.9154">
        <ele>1116</ele>
        <time>2026-08-27T06:38:52.061Z</time>
      </trkpt>
      <trkpt lat="47.84257" lon="6.9154">
        <ele>1116.1</ele>
        <time>2026-08-27T06:38:53.068Z</time>
      </trkpt>
      <trkpt lat="47.84257" lon="6.9154">
        <ele>1115.9</ele>
        <time>2026-08-27T06:38:54.076Z</time>
      </trkpt>
      <trkpt lat="47.84257" lon="6.9154">
        <ele>1115.7</ele>
        <time>2026-08-27T06:38:55.084Z</time>
      </trkpt>
      <trkpt lat="47.84257" lon="6.9154">
        <ele>1115.8</ele>
        <time>2026-08-27T06:38:56.093Z</time>
      </trkpt>
      <trkpt lat="47.84257" lon="6.9154">
        <ele>1115.6</ele>
        <time>2026-08-27T06:38:57.101Z</time>
      </trkpt>
      <trkpt lat="47.84257" lon="6.9154">
        <ele>1115.6</ele>
        <time>2026-08-27T06:38:58.108Z</time>
      </trkpt>
      <trkpt lat="47.84257" lon="6.9154">
        <ele>1115.3</ele>
        <time>2026-08-27T06:39:00.023Z</time>
      </trkpt>
      <trkpt lat="47.84257" lon="6.91541">
        <ele>1115.4</ele>
        <time>2026-08-27T06:39:01.030Z</time>
      </trkpt>
      <trkpt lat="47.84258" lon="6.91541">
        <ele>1115.5</ele>
        <time>2026-08-27T06:39:02.038Z</time>
      </trkpt>
      <trkpt lat="47.84258" lon="6.91541">
        <ele>1115.4</ele>
        <time>2026-08-27T06:39:03.046Z</time>
      </trkpt>
      <trkpt lat="47.84258" lon="6.91541">
        <ele>1115.3</ele>
        <time>2026-08-27T06:39:04.054Z</time>
      </trkpt>
      <trkpt lat="47.84258" lon="6.91541">
        <ele>1115.2</ele>
        <time>2026-08-27T06:39:05.062Z</time>
      </trkpt>
      <trkpt lat="47.84258" lon="6.91541">
        <ele>1115.3</ele>
        <time>2026-08-27T06:39:06.071Z</time>
      </trkpt>
      <trkpt lat="47.84258" lon="6.91541">
        <ele>1115.3</ele>
        <time>2026-08-27T06:39:07.078Z</time>
      </trkpt>
      <trkpt lat="47.84258" lon="6.91541">
        <ele>1116</ele>
        <time>2026-08-27T06:39:08.085Z</time>
      </trkpt>
      <trkpt lat="47.84258" lon="6.91541">
        <ele>1116.1</ele>
        <time>2026-08-27T06:39:09.094Z</time>
      </trkpt>
      <trkpt lat="47.84258" lon="6.91541">
        <ele>1116.1</ele>
        <time>2026-08-27T06:39:10.102Z</time>
      </trkpt>
      <trkpt lat="47.84258" lon="6.91541">
        <ele>1116.3</ele>
        <time>2026-08-27T06:39:11.110Z</time>
      </trkpt>
      <trkpt lat="47.84258" lon="6.91541">
        <ele>1116.1</ele>
        <time>2026-08-27T06:39:13.024Z</time>
      </trkpt>
      <trkpt lat="47.84258" lon="6.91541">
        <ele>1116.2</ele>
        <time>2026-08-27T06:39:14.032Z</time>
      </trkpt>
      <trkpt lat="47.84258" lon="6.91541">
        <ele>1116.2</ele>
        <time>2026-08-27T06:39:15.041Z</time>
      </trkpt>
      <trkpt lat="47.84258" lon="6.91541">
        <ele>1116.2</ele>
        <time>2026-08-27T06:39:16.048Z</time>
      </trkpt>
      <trkpt lat="47.84258" lon="6.91541">
        <ele>1116.3</ele>
        <time>2026-08-27T06:39:17.055Z</time>
      </trkpt>
      <trkpt lat="47.84258" lon="6.91541">
        <ele>1116.4</ele>
        <time>2026-08-27T06:39:18.063Z</time>
      </trkpt>
      <trkpt lat="47.84258" lon="6.91541">
        <ele>1116.3</ele>
        <time>2026-08-27T06:39:19.072Z</time>
      </trkpt>
      <trkpt lat="47.84258" lon="6.91541">
        <ele>1116.1</ele>
        <time>2026-08-27T06:39:20.080Z</time>
      </trkpt>
      <trkpt lat="47.84258" lon="6.91541">
        <ele>1116</ele>
        <time>2026-08-27T06:39:21.087Z</time>
      </trkpt>
      <trkpt lat="47.84258" lon="6.91541">
        <ele>1116.1</ele>
        <time>2026-08-27T06:39:22.095Z</time>
      </trkpt>
      <trkpt lat="47.84258" lon="6.91541">
        <ele>1116.2</ele>
        <time>2026-08-27T06:39:23.104Z</time>
      </trkpt>
      <trkpt lat="47.84258" lon="6.91541">
        <ele>1116.3</ele>
        <time>2026-08-27T06:39:24.110Z</time>
      </trkpt>
      <trkpt lat="47.84258" lon="6.91541">
        <ele>1116.3</ele>
        <time>2026-08-27T06:39:26.025Z</time>
      </trkpt>
      <trkpt lat="47.84258" lon="6.91541">
        <ele>1116.3</ele>
        <time>2026-08-27T06:39:27.033Z</time>
      </trkpt>
      <trkpt lat="47.84258" lon="6.91541">
        <ele>1116.1</ele>
        <time>2026-08-27T06:39:28.042Z</time>
      </trkpt>
      <trkpt lat="47.84258" lon="6.91541">
        <ele>1116.4</ele>
        <time>2026-08-27T06:39:29.049Z</time>
      </trkpt>
      <trkpt lat="47.84258" lon="6.91541">
        <ele>1116.5</ele>
        <time>2026-08-27T06:39:30.057Z</time>
      </trkpt>
      <trkpt lat="47.84258" lon="6.91541">
        <ele>1116.6</ele>
        <time>2026-08-27T06:39:31.065Z</time>
      </trkpt>
      <trkpt lat="47.84258" lon="6.91541">
        <ele>1116.4</ele>
        <time>2026-08-27T06:39:32.072Z</time>
      </trkpt>
      <trkpt lat="47.84258" lon="6.91541">
        <ele>1116.5</ele>
        <time>2026-08-27T06:39:33.081Z</time>
      </trkpt>
      <trkpt lat="47.84258" lon="6.91541">
        <ele>1116.4</ele>
        <time>2026-08-27T06:39:34.088Z</time>
      </trkpt>
      <trkpt lat="47.84257" lon="6.91541">
        <ele>1116.3</ele>
        <time>2026-08-27T06:39:35.096Z</time>
      </trkpt>
      <trkpt lat="47.84257" lon="6.91541">
        <ele>1116.4</ele>
        <time>2026-08-27T06:39:36.105Z</time>
      </trkpt>
      <trkpt lat="47.84257" lon="6.91541">
        <ele>1116.7</ele>
        <time>2026-08-27T06:39:37.112Z</time>
      </trkpt>
      <trkpt lat="47.84257" lon="6.91541">
        <ele>1116.9</ele>
        <time>2026-08-27T06:39:38.121Z</time>
      </trkpt>
      <trkpt lat="47.84257" lon="6.91542">
        <ele>1117.1</ele>
        <time>2026-08-27T06:39:40.036Z</time>
      </trkpt>
      <trkpt lat="47.84257" lon="6.91542">
        <ele>1117.2</ele>
        <time>2026-08-27T06:39:41.042Z</time>
      </trkpt>
      <trkpt lat="47.84257" lon="6.91542">
        <ele>1117.1</ele>
        <time>2026-08-27T06:39:42.051Z</time>
      </trkpt>
      <trkpt lat="47.84257" lon="6.91542">
        <ele>1117.2</ele>
        <time>2026-08-27T06:39:43.058Z</time>
      </trkpt>
      <trkpt lat="47.84257" lon="6.91542">
        <ele>1117.1</ele>
        <time>2026-08-27T06:39:44.066Z</time>
      </trkpt>
      <trkpt lat="47.84257" lon="6.91542">
        <ele>1117.1</ele>
        <time>2026-08-27T06:39:45.074Z</time>
      </trkpt>
      <trkpt lat="47.84257" lon="6.91542">
        <ele>1117.1</ele>
        <time>2026-08-27T06:39:46.082Z</time>
      </trkpt>
      <trkpt lat="47.84257" lon="6.91542">
        <ele>1117.2</ele>
        <time>2026-08-27T06:39:47.090Z</time>
      </trkpt>
      <trkpt lat="47.84257" lon="6.91542">
        <ele>1117.1</ele>
        <time>2026-08-27T06:39:48.098Z</time>
      </trkpt>
      <trkpt lat="47.84257" lon="6.91542">
        <ele>1116.9</ele>
        <time>2026-08-27T06:39:49.105Z</time>
      </trkpt>
      <trkpt lat="47.84257" lon="6.91542">
        <ele>1116.7</ele>
        <time>2026-08-27T06:39:50.113Z</time>
      </trkpt>
      <trkpt lat="47.84257" lon="6.91542">
        <ele>1116.6</ele>
        <time>2026-08-27T06:39:51.121Z</time>
      </trkpt>
      <trkpt lat="47.84257" lon="6.91542">
        <ele>1116.2</ele>
        <time>2026-08-27T06:39:53.036Z</time>
      </trkpt>
      <trkpt lat="47.84257" lon="6.91542">
        <ele>1115.9</ele>
        <time>2026-08-27T06:39:54.045Z</time>
      </trkpt>
      <trkpt lat="47.84257" lon="6.91542">
        <ele>1115.7</ele>
        <time>2026-08-27T06:39:55.052Z</time>
      </trkpt>
      <trkpt lat="47.84257" lon="6.91542">
        <ele>1115.6</ele>
        <time>2026-08-27T06:39:56.059Z</time>
      </trkpt>
      <trkpt lat="47.84257" lon="6.91542">
        <ele>1115.5</ele>
        <time>2026-08-27T06:39:57.067Z</time>
      </trkpt>
      <trkpt lat="47.84257" lon="6.91542">
        <ele>1115.4</ele>
        <time>2026-08-27T06:39:58.075Z</time>
      </trkpt>
      <trkpt lat="47.84257" lon="6.91542">
        <ele>1115.1</ele>
        <time>2026-08-27T06:39:59.084Z</time>
      </trkpt>
      <trkpt lat="47.84257" lon="6.91542">
        <ele>1115.1</ele>
        <time>2026-08-27T06:40:00.091Z</time>
      </trkpt>
      <trkpt lat="47.84257" lon="6.91542">
        <ele>1114.9</ele>
        <time>2026-08-27T06:40:01.099Z</time>
      </trkpt>
      <trkpt lat="47.84257" lon="6.91542">
        <ele>1114.8</ele>
        <time>2026-08-27T06:40:02.107Z</time>
      </trkpt>
      <trkpt lat="47.84257" lon="6.91542">
        <ele>1114.6</ele>
        <time>2026-08-27T06:40:04.022Z</time>
      </trkpt>
      <trkpt lat="47.84257" lon="6.91542">
        <ele>1114.8</ele>
        <time>2026-08-27T06:40:05.029Z</time>
      </trkpt>
      <trkpt lat="47.84257" lon="6.91542">
        <ele>1115.2</ele>
        <time>2026-08-27T06:40:06.037Z</time>
      </trkpt>
      <trkpt lat="47.84257" lon="6.91542">
        <ele>1115.4</ele>
        <time>2026-08-27T06:40:07.045Z</time>
      </trkpt>
      <trkpt lat="47.84257" lon="6.91542">
        <ele>1115.6</ele>
        <time>2026-08-27T06:40:08.053Z</time>
      </trkpt>
      <trkpt lat="47.84257" lon="6.91542">
        <ele>1115.3</ele>
        <time>2026-08-27T06:40:09.062Z</time>
      </trkpt>
      <trkpt lat="47.84257" lon="6.91542">
        <ele>1115.5</ele>
        <time>2026-08-27T06:40:10.070Z</time>
      </trkpt>
      <trkpt lat="47.84257" lon="6.91542">
        <ele>1115.9</ele>
        <time>2026-08-27T06:40:11.077Z</time>
      </trkpt>
      <trkpt lat="47.84257" lon="6.91542">
        <ele>1115.9</ele>
        <time>2026-08-27T06:40:12.084Z</time>
      </trkpt>
      <trkpt lat="47.84257" lon="6.91542">
        <ele>1115.9</ele>
        <time>2026-08-27T06:40:13.092Z</time>
      </trkpt>
      <trkpt lat="47.84257" lon="6.91542">
        <ele>1116</ele>
        <time>2026-08-27T06:40:14.101Z</time>
      </trkpt>
      <trkpt lat="47.84257" lon="6.91542">
        <ele>1116</ele>
        <time>2026-08-27T06:40:15.108Z</time>
      </trkpt>
      <trkpt lat="47.84257" lon="6.91542">
        <ele>1115.9</ele>
        <time>2026-08-27T06:40:17.023Z</time>
      </trkpt>
      <trkpt lat="47.84257" lon="6.91542">
        <ele>1115.8</ele>
        <time>2026-08-27T06:40:18.031Z</time>
      </trkpt>
      <trkpt lat="47.84257" lon="6.91542">
        <ele>1115.7</ele>
        <time>2026-08-27T06:40:19.040Z</time>
      </trkpt>
      <trkpt lat="47.84257" lon="6.91542">
        <ele>1115.6</ele>
        <time>2026-08-27T06:40:20.046Z</time>
      </trkpt>
      <trkpt lat="47.84257" lon="6.91542">
        <ele>1115.7</ele>
        <time>2026-08-27T06:40:21.054Z</time>
      </trkpt>
      <trkpt lat="47.84257" lon="6.91542">
        <ele>1115.8</ele>
        <time>2026-08-27T06:40:22.062Z</time>
      </trkpt>
      <trkpt lat="47.84257" lon="6.91542">
        <ele>1115.7</ele>
        <time>2026-08-27T06:40:23.070Z</time>
      </trkpt>
      <trkpt lat="47.84257" lon="6.91542">
        <ele>1115.6</ele>
        <time>2026-08-27T06:40:24.078Z</time>
      </trkpt>
      <trkpt lat="47.84257" lon="6.91542">
        <ele>1115.7</ele>
        <time>2026-08-27T06:40:25.087Z</time>
      </trkpt>
      <trkpt lat="47.84257" lon="6.91542">
        <ele>1115.8</ele>
        <time>2026-08-27T06:40:26.094Z</time>
      </trkpt>
      <trkpt lat="47.84257" lon="6.91542">
        <ele>1116.2</ele>
        <time>2026-08-27T06:40:28.109Z</time>
      </trkpt>
      <trkpt lat="47.84257" lon="6.91542">
        <ele>1116.3</ele>
        <time>2026-08-27T06:40:29.117Z</time>
      </trkpt>
      <trkpt lat="47.84257" lon="6.91542">
        <ele>1116.2</ele>
        <time>2026-08-27T06:40:31.032Z</time>
      </trkpt>
      <trkpt lat="47.84257" lon="6.91542">
        <ele>1116</ele>
        <time>2026-08-27T06:40:32.041Z</time>
      </trkpt>
      <trkpt lat="47.84257" lon="6.91542">
        <ele>1116</ele>
        <time>2026-08-27T06:40:33.049Z</time>
      </trkpt>
      <trkpt lat="47.84257" lon="6.91542">
        <ele>1116</ele>
        <time>2026-08-27T06:40:34.057Z</time>
      </trkpt>
      <trkpt lat="47.84257" lon="6.91542">
        <ele>1116</ele>
        <time>2026-08-27T06:40:35.063Z</time>
      </trkpt>
      <trkpt lat="47.84257" lon="6.91542">
        <ele>1115.7</ele>
        <time>2026-08-27T06:40:36.072Z</time>
      </trkpt>
      <trkpt lat="47.84257" lon="6.91542">
        <ele>1115.6</ele>
        <time>2026-08-27T06:40:37.079Z</time>
      </trkpt>
      <trkpt lat="47.84257" lon="6.91542">
        <ele>1115.5</ele>
        <time>2026-08-27T06:40:38.088Z</time>
      </trkpt>
      <trkpt lat="47.84257" lon="6.91542">
        <ele>1115.5</ele>
        <time>2026-08-27T06:40:39.095Z</time>
      </trkpt>
      <trkpt lat="47.84257" lon="6.91542">
        <ele>1115.7</ele>
        <time>2026-08-27T06:40:40.103Z</time>
      </trkpt>
      <trkpt lat="47.84257" lon="6.91541">
        <ele>1115.6</ele>
        <time>2026-08-27T06:40:41.112Z</time>
      </trkpt>
      <trkpt lat="47.84257" lon="6.91541">
        <ele>1115.6</ele>
        <time>2026-08-27T06:40:42.118Z</time>
      </trkpt>
      <trkpt lat="47.84257" lon="6.91541">
        <ele>1115.6</ele>
        <time>2026-08-27T06:40:44.034Z</time>
      </trkpt>
      <trkpt lat="47.84257" lon="6.91541">
        <ele>1115.4</ele>
        <time>2026-08-27T06:40:45.041Z</time>
      </trkpt>
      <trkpt lat="47.84257" lon="6.91541">
        <ele>1115.3</ele>
        <time>2026-08-27T06:40:46.050Z</time>
      </trkpt>
      <trkpt lat="47.84257" lon="6.91541">
        <ele>1115.3</ele>
        <time>2026-08-27T06:40:47.058Z</time>
      </trkpt>
      <trkpt lat="47.84257" lon="6.91541">
        <ele>1115.2</ele>
        <time>2026-08-27T06:40:48.066Z</time>
      </trkpt>
      <trkpt lat="47.84257" lon="6.91541">
        <ele>1115.2</ele>
        <time>2026-08-27T06:40:49.073Z</time>
      </trkpt>
      <trkpt lat="47.84257" lon="6.91541">
        <ele>1115.4</ele>
        <time>2026-08-27T06:40:50.080Z</time>
      </trkpt>
      <trkpt lat="47.84257" lon="6.91541">
        <ele>1115.7</ele>
        <time>2026-08-27T06:40:51.089Z</time>
      </trkpt>
      <trkpt lat="47.84257" lon="6.91541">
        <ele>1115.8</ele>
        <time>2026-08-27T06:40:52.097Z</time>
      </trkpt>
      <trkpt lat="47.84257" lon="6.91541">
        <ele>1115.7</ele>
        <time>2026-08-27T06:40:53.104Z</time>
      </trkpt>
      <trkpt lat="47.84257" lon="6.91541">
        <ele>1115.7</ele>
        <time>2026-08-27T06:40:54.113Z</time>
      </trkpt>
      <trkpt lat="47.84257" lon="6.91541">
        <ele>1116.1</ele>
        <time>2026-08-27T06:40:56.027Z</time>
      </trkpt>
      <trkpt lat="47.84257" lon="6.91541">
        <ele>1116.3</ele>
        <time>2026-08-27T06:40:57.036Z</time>
      </trkpt>
      <trkpt lat="47.84257" lon="6.91541">
        <ele>1116.3</ele>
        <time>2026-08-27T06:40:58.042Z</time>
      </trkpt>
      <trkpt lat="47.84257" lon="6.91541">
        <ele>1116.1</ele>
        <time>2026-08-27T06:40:59.050Z</time>
      </trkpt>
      <trkpt lat="47.84257" lon="6.91541">
        <ele>1115.8</ele>
        <time>2026-08-27T06:41:00.058Z</time>
      </trkpt>
      <trkpt lat="47.84257" lon="6.91541">
        <ele>1115.8</ele>
        <time>2026-08-27T06:41:01.067Z</time>
      </trkpt>
      <trkpt lat="47.84257" lon="6.91541">
        <ele>1115.7</ele>
        <time>2026-08-27T06:41:02.074Z</time>
      </trkpt>
      <trkpt lat="47.84257" lon="6.91541">
        <ele>1116</ele>
        <time>2026-08-27T06:41:03.082Z</time>
      </trkpt>
      <trkpt lat="47.84257" lon="6.91541">
        <ele>1116</ele>
        <time>2026-08-27T06:41:04.091Z</time>
      </trkpt>
      <trkpt lat="47.84257" lon="6.91541">
        <ele>1115.8</ele>
        <time>2026-08-27T06:41:05.098Z</time>
      </trkpt>
      <trkpt lat="47.84257" lon="6.91541">
        <ele>1115.8</ele>
        <time>2026-08-27T06:41:06.106Z</time>
      </trkpt>
      <trkpt lat="47.84257" lon="6.91541">
        <ele>1115.9</ele>
        <time>2026-08-27T06:41:08.021Z</time>
      </trkpt>
      <trkpt lat="47.84257" lon="6.91541">
        <ele>1116</ele>
        <time>2026-08-27T06:41:09.029Z</time>
      </trkpt>
      <trkpt lat="47.84257" lon="6.91541">
        <ele>1116</ele>
        <time>2026-08-27T06:41:10.036Z</time>
      </trkpt>
      <trkpt lat="47.84257" lon="6.91541">
        <ele>1116.1</ele>
        <time>2026-08-27T06:41:11.044Z</time>
      </trkpt>
      <trkpt lat="47.84257" lon="6.91541">
        <ele>1116.1</ele>
        <time>2026-08-27T06:41:12.053Z</time>
      </trkpt>
      <trkpt lat="47.84257" lon="6.91541">
        <ele>1116</ele>
        <time>2026-08-27T06:41:13.059Z</time>
      </trkpt>
      <trkpt lat="47.84257" lon="6.91541">
        <ele>1115.8</ele>
        <time>2026-08-27T06:41:14.067Z</time>
      </trkpt>
      <trkpt lat="47.84257" lon="6.91541">
        <ele>1115.8</ele>
        <time>2026-08-27T06:41:15.075Z</time>
      </trkpt>
      <trkpt lat="47.84257" lon="6.91541">
        <ele>1115.7</ele>
        <time>2026-08-27T06:41:16.083Z</time>
      </trkpt>
      <trkpt lat="47.84257" lon="6.91541">
        <ele>1115.8</ele>
        <time>2026-08-27T06:41:17.091Z</time>
      </trkpt>
      <trkpt lat="47.84257" lon="6.91541">
        <ele>1115.8</ele>
        <time>2026-08-27T06:41:18.099Z</time>
      </trkpt>
      <trkpt lat="47.84257" lon="6.91541">
        <ele>1115.7</ele>
        <time>2026-08-27T06:41:19.108Z</time>
      </trkpt>
      <trkpt lat="47.84257" lon="6.91541">
        <ele>1115.7</ele>
        <time>2026-08-27T06:41:20.114Z</time>
      </trkpt>
      <trkpt lat="47.84257" lon="6.91541">
        <ele>1115.8</ele>
        <time>2026-08-27T06:41:22.029Z</time>
      </trkpt>
      <trkpt lat="47.84257" lon="6.91541">
        <ele>1115.8</ele>
        <time>2026-08-27T06:41:23.037Z</time>
      </trkpt>
      <trkpt lat="47.84257" lon="6.91541">
        <ele>1115.9</ele>
        <time>2026-08-27T06:41:24.046Z</time>
      </trkpt>
      <trkpt lat="47.84257" lon="6.91541">
        <ele>1116.1</ele>
        <time>2026-08-27T06:41:25.054Z</time>
      </trkpt>
      <trkpt lat="47.84257" lon="6.91541">
        <ele>1116.1</ele>
        <time>2026-08-27T06:41:26.061Z</time>
      </trkpt>
      <trkpt lat="47.84257" lon="6.91541">
        <ele>1116.2</ele>
        <time>2026-08-27T06:41:27.069Z</time>
      </trkpt>
      <trkpt lat="47.84257" lon="6.91541">
        <ele>1116.1</ele>
        <time>2026-08-27T06:41:28.077Z</time>
      </trkpt>
      <trkpt lat="47.84257" lon="6.91541">
        <ele>1115.9</ele>
        <time>2026-08-27T06:41:29.084Z</time>
      </trkpt>
      <trkpt lat="47.84257" lon="6.91541">
        <ele>1115.8</ele>
        <time>2026-08-27T06:41:30.093Z</time>
      </trkpt>
      <trkpt lat="47.84257" lon="6.91541">
        <ele>1115.8</ele>
        <time>2026-08-27T06:41:31.100Z</time>
      </trkpt>
      <trkpt lat="47.84257" lon="6.9154">
        <ele>1115.8</ele>
        <time>2026-08-27T06:41:33.015Z</time>
      </trkpt>
      <trkpt lat="47.84257" lon="6.9154">
        <ele>1115.8</ele>
        <time>2026-08-27T06:41:34.124Z</time>
      </trkpt>
      <trkpt lat="47.84257" lon="6.9154">
        <ele>1115.8</ele>
        <time>2026-08-27T06:41:36.038Z</time>
      </trkpt>
      <trkpt lat="47.84257" lon="6.9154">
        <ele>1116</ele>
        <time>2026-08-27T06:41:37.046Z</time>
      </trkpt>
      <trkpt lat="47.84257" lon="6.9154">
        <ele>1116.1</ele>
        <time>2026-08-27T06:41:38.055Z</time>
      </trkpt>
      <trkpt lat="47.84257" lon="6.9154">
        <ele>1116.2</ele>
        <time>2026-08-27T06:41:39.062Z</time>
      </trkpt>
      <trkpt lat="47.84257" lon="6.9154">
        <ele>1116.5</ele>
        <time>2026-08-27T06:41:40.070Z</time>
      </trkpt>
      <trkpt lat="47.84257" lon="6.9154">
        <ele>1116.5</ele>
        <time>2026-08-27T06:41:41.078Z</time>
      </trkpt>
      <trkpt lat="47.84257" lon="6.9154">
        <ele>1116.4</ele>
        <time>2026-08-27T06:41:42.087Z</time>
      </trkpt>
      <trkpt lat="47.84257" lon="6.9154">
        <ele>1116.2</ele>
        <time>2026-08-27T06:41:43.093Z</time>
      </trkpt>
      <trkpt lat="47.84257" lon="6.9154">
        <ele>1116</ele>
        <time>2026-08-27T06:41:44.101Z</time>
      </trkpt>
      <trkpt lat="47.84257" lon="6.9154">
        <ele>1115.9</ele>
        <time>2026-08-27T06:41:45.109Z</time>
      </trkpt>
      <trkpt lat="47.84257" lon="6.9154">
        <ele>1116.2</ele>
        <time>2026-08-27T06:41:47.024Z</time>
      </trkpt>
      <trkpt lat="47.84257" lon="6.9154">
        <ele>1116.1</ele>
        <time>2026-08-27T06:41:48.033Z</time>
      </trkpt>
      <trkpt lat="47.84256" lon="6.9154">
        <ele>1116.1</ele>
        <time>2026-08-27T06:41:49.040Z</time>
      </trkpt>
      <trkpt lat="47.84256" lon="6.9154">
        <ele>1116.1</ele>
        <time>2026-08-27T06:41:50.049Z</time>
      </trkpt>
      <trkpt lat="47.84256" lon="6.9154">
        <ele>1116.1</ele>
        <time>2026-08-27T06:41:51.056Z</time>
      </trkpt>
      <trkpt lat="47.84256" lon="6.9154">
        <ele>1116.2</ele>
        <time>2026-08-27T06:41:52.064Z</time>
      </trkpt>
      <trkpt lat="47.84256" lon="6.9154">
        <ele>1116.3</ele>
        <time>2026-08-27T06:41:53.071Z</time>
      </trkpt>
      <trkpt lat="47.84256" lon="6.9154">
        <ele>1116.3</ele>
        <time>2026-08-27T06:41:54.079Z</time>
      </trkpt>
      <trkpt lat="47.84256" lon="6.9154">
        <ele>1116.5</ele>
        <time>2026-08-27T06:41:55.087Z</time>
      </trkpt>
      <trkpt lat="47.84256" lon="6.9154">
        <ele>1116.6</ele>
        <time>2026-08-27T06:41:56.096Z</time>
      </trkpt>
      <trkpt lat="47.84256" lon="6.9154">
        <ele>1116.5</ele>
        <time>2026-08-27T06:41:57.103Z</time>
      </trkpt>
      <trkpt lat="47.84256" lon="6.9154">
        <ele>1116.2</ele>
        <time>2026-08-27T06:41:58.110Z</time>
      </trkpt>
      <trkpt lat="47.84256" lon="6.9154">
        <ele>1116</ele>
        <time>2026-08-27T06:42:00.025Z</time>
      </trkpt>
      <trkpt lat="47.84256" lon="6.9154">
        <ele>1116.1</ele>
        <time>2026-08-27T06:42:01.034Z</time>
      </trkpt>
      <trkpt lat="47.84256" lon="6.9154">
        <ele>1115.9</ele>
        <time>2026-08-27T06:42:02.041Z</time>
      </trkpt>
      <trkpt lat="47.84256" lon="6.9154">
        <ele>1115.9</ele>
        <time>2026-08-27T06:42:03.050Z</time>
      </trkpt>
      <trkpt lat="47.84256" lon="6.9154">
        <ele>1115.9</ele>
        <time>2026-08-27T06:42:04.058Z</time>
      </trkpt>
      <trkpt lat="47.84256" lon="6.9154">
        <ele>1115.9</ele>
        <time>2026-08-27T06:42:05.065Z</time>
      </trkpt>
      <trkpt lat="47.84256" lon="6.9154">
        <ele>1116</ele>
        <time>2026-08-27T06:42:06.072Z</time>
      </trkpt>
      <trkpt lat="47.84256" lon="6.9154">
        <ele>1116.1</ele>
        <time>2026-08-27T06:42:07.081Z</time>
      </trkpt>
      <trkpt lat="47.84256" lon="6.9154">
        <ele>1116.2</ele>
        <time>2026-08-27T06:42:08.088Z</time>
      </trkpt>
      <trkpt lat="47.84257" lon="6.9154">
        <ele>1116.3</ele>
        <time>2026-08-27T06:42:09.097Z</time>
      </trkpt>
      <trkpt lat="47.84256" lon="6.9154">
        <ele>1116.4</ele>
        <time>2026-08-27T06:42:10.104Z</time>
      </trkpt>
      <trkpt lat="47.84257" lon="6.9154">
        <ele>1116.3</ele>
        <time>2026-08-27T06:42:11.113Z</time>
      </trkpt>
      <trkpt lat="47.84257" lon="6.9154">
        <ele>1116.1</ele>
        <time>2026-08-27T06:42:13.028Z</time>
      </trkpt>
      <trkpt lat="47.84257" lon="6.9154">
        <ele>1115.9</ele>
        <time>2026-08-27T06:42:14.034Z</time>
      </trkpt>
      <trkpt lat="47.84257" lon="6.9154">
        <ele>1116.3</ele>
        <time>2026-08-27T06:42:15.042Z</time>
      </trkpt>
      <trkpt lat="47.84257" lon="6.9154">
        <ele>1116.1</ele>
        <time>2026-08-27T06:42:16.050Z</time>
      </trkpt>
      <trkpt lat="47.84257" lon="6.9154">
        <ele>1116.2</ele>
        <time>2026-08-27T06:42:17.058Z</time>
      </trkpt>
      <trkpt lat="47.84257" lon="6.9154">
        <ele>1116.2</ele>
        <time>2026-08-27T06:42:18.066Z</time>
      </trkpt>
      <trkpt lat="47.84257" lon="6.9154">
        <ele>1116.3</ele>
        <time>2026-08-27T06:42:19.074Z</time>
      </trkpt>
      <trkpt lat="47.84257" lon="6.9154">
        <ele>1116.1</ele>
        <time>2026-08-27T06:42:20.082Z</time>
      </trkpt>
      <trkpt lat="47.84257" lon="6.9154">
        <ele>1116.1</ele>
        <time>2026-08-27T06:42:21.090Z</time>
      </trkpt>
      <trkpt lat="47.84257" lon="6.9154">
        <ele>1116.2</ele>
        <time>2026-08-27T06:42:22.098Z</time>
      </trkpt>
      <trkpt lat="47.84257" lon="6.9154">
        <ele>1116.3</ele>
        <time>2026-08-27T06:42:23.105Z</time>
      </trkpt>
      <trkpt lat="47.84257" lon="6.9154">
        <ele>1116.1</ele>
        <time>2026-08-27T06:42:24.113Z</time>
      </trkpt>
      <trkpt lat="47.84257" lon="6.9154">
        <ele>1116.2</ele>
        <time>2026-08-27T06:42:26.028Z</time>
      </trkpt>
      <trkpt lat="47.84257" lon="6.9154">
        <ele>1116.3</ele>
        <time>2026-08-27T06:42:27.036Z</time>
      </trkpt>
      <trkpt lat="47.84257" lon="6.9154">
        <ele>1116</ele>
        <time>2026-08-27T06:42:28.044Z</time>
      </trkpt>
      <trkpt lat="47.84257" lon="6.9154">
        <ele>1116.1</ele>
        <time>2026-08-27T06:42:29.052Z</time>
      </trkpt>
      <trkpt lat="47.84257" lon="6.9154">
        <ele>1116.2</ele>
        <time>2026-08-27T06:42:30.060Z</time>
      </trkpt>
      <trkpt lat="47.84257" lon="6.9154">
        <ele>1116</ele>
        <time>2026-08-27T06:42:31.068Z</time>
      </trkpt>
      <trkpt lat="47.84257" lon="6.9154">
        <ele>1115.8</ele>
        <time>2026-08-27T06:42:32.075Z</time>
      </trkpt>
      <trkpt lat="47.84257" lon="6.9154">
        <ele>1115.7</ele>
        <time>2026-08-27T06:42:33.083Z</time>
      </trkpt>
      <trkpt lat="47.84257" lon="6.9154">
        <ele>1115.8</ele>
        <time>2026-08-27T06:42:34.091Z</time>
      </trkpt>
      <trkpt lat="47.84257" lon="6.9154">
        <ele>1116</ele>
        <time>2026-08-27T06:42:35.098Z</time>
      </trkpt>
      <trkpt lat="47.84257" lon="6.9154">
        <ele>1115.9</ele>
        <time>2026-08-27T06:42:36.107Z</time>
      </trkpt>
      <trkpt lat="47.84257" lon="6.9154">
        <ele>1116</ele>
        <time>2026-08-27T06:42:38.021Z</time>
      </trkpt>
      <trkpt lat="47.84257" lon="6.9154">
        <ele>1116.3</ele>
        <time>2026-08-27T06:42:39.030Z</time>
      </trkpt>
      <trkpt lat="47.84257" lon="6.9154">
        <ele>1116.2</ele>
        <time>2026-08-27T06:42:40.038Z</time>
      </trkpt>
      <trkpt lat="47.84257" lon="6.9154">
        <ele>1115.8</ele>
        <time>2026-08-27T06:42:41.046Z</time>
      </trkpt>
      <trkpt lat="47.84257" lon="6.9154">
        <ele>1115.7</ele>
        <time>2026-08-27T06:42:42.053Z</time>
      </trkpt>
      <trkpt lat="47.84257" lon="6.9154">
        <ele>1115.8</ele>
        <time>2026-08-27T06:42:43.060Z</time>
      </trkpt>
      <trkpt lat="47.84257" lon="6.9154">
        <ele>1115.8</ele>
        <time>2026-08-27T06:42:44.068Z</time>
      </trkpt>
      <trkpt lat="47.84257" lon="6.9154">
        <ele>1115.9</ele>
        <time>2026-08-27T06:42:45.076Z</time>
      </trkpt>
      <trkpt lat="47.84257" lon="6.9154">
        <ele>1115.8</ele>
        <time>2026-08-27T06:42:46.084Z</time>
      </trkpt>
      <trkpt lat="47.84257" lon="6.9154">
        <ele>1115.7</ele>
        <time>2026-08-27T06:42:47.093Z</time>
      </trkpt>
      <trkpt lat="47.84257" lon="6.9154">
        <ele>1115.4</ele>
        <time>2026-08-27T06:42:48.101Z</time>
      </trkpt>
      <trkpt lat="47.84257" lon="6.91541">
        <ele>1115.2</ele>
        <time>2026-08-27T06:42:49.108Z</time>
      </trkpt>
      <trkpt lat="47.84257" lon="6.91541">
        <ele>1115.2</ele>
        <time>2026-08-27T06:42:50.116Z</time>
      </trkpt>
      <trkpt lat="47.84257" lon="6.91541">
        <ele>1115.1</ele>
        <time>2026-08-27T06:42:52.030Z</time>
      </trkpt>
      <trkpt lat="47.84257" lon="6.91541">
        <ele>1115.1</ele>
        <time>2026-08-27T06:42:53.039Z</time>
      </trkpt>
      <trkpt lat="47.84257" lon="6.91541">
        <ele>1115.3</ele>
        <time>2026-08-27T06:42:54.046Z</time>
      </trkpt>
      <trkpt lat="47.84257" lon="6.91541">
        <ele>1115.5</ele>
        <time>2026-08-27T06:42:55.055Z</time>
      </trkpt>
      <trkpt lat="47.84257" lon="6.91541">
        <ele>1115.7</ele>
        <time>2026-08-27T06:42:56.062Z</time>
      </trkpt>
      <trkpt lat="47.84257" lon="6.91541">
        <ele>1115.5</ele>
        <time>2026-08-27T06:42:57.070Z</time>
      </trkpt>
      <trkpt lat="47.84257" lon="6.91541">
        <ele>1115.6</ele>
        <time>2026-08-27T06:42:58.077Z</time>
      </trkpt>
      <trkpt lat="47.84257" lon="6.91541">
        <ele>1115.7</ele>
        <time>2026-08-27T06:42:59.085Z</time>
      </trkpt>
      <trkpt lat="47.84257" lon="6.91541">
        <ele>1115.6</ele>
        <time>2026-08-27T06:43:00.093Z</time>
      </trkpt>
      <trkpt lat="47.84257" lon="6.91541">
        <ele>1115.6</ele>
        <time>2026-08-27T06:43:01.101Z</time>
      </trkpt>
      <trkpt lat="47.84257" lon="6.91541">
        <ele>1115.7</ele>
        <time>2026-08-27T06:43:02.109Z</time>
      </trkpt>
      <trkpt lat="47.84257" lon="6.91541">
        <ele>1115.7</ele>
        <time>2026-08-27T06:43:03.117Z</time>
      </trkpt>
      <trkpt lat="47.84257" lon="6.91541">
        <ele>1115.9</ele>
        <time>2026-08-27T06:43:04.124Z</time>
      </trkpt>
      <trkpt lat="47.84257" lon="6.91541">
        <ele>1115.8</ele>
        <time>2026-08-27T06:43:06.040Z</time>
      </trkpt>
      <trkpt lat="47.84257" lon="6.91541">
        <ele>1115.8</ele>
        <time>2026-08-27T06:43:07.047Z</time>
      </trkpt>
      <trkpt lat="47.84257" lon="6.91541">
        <ele>1115.6</ele>
        <time>2026-08-27T06:43:08.055Z</time>
      </trkpt>
      <trkpt lat="47.84257" lon="6.91541">
        <ele>1115.6</ele>
        <time>2026-08-27T06:43:09.063Z</time>
      </trkpt>
      <trkpt lat="47.84257" lon="6.91541">
        <ele>1115.4</ele>
        <time>2026-08-27T06:43:10.071Z</time>
      </trkpt>
      <trkpt lat="47.84257" lon="6.91541">
        <ele>1115.2</ele>
        <time>2026-08-27T06:43:11.080Z</time>
      </trkpt>
      <trkpt lat="47.84257" lon="6.91541">
        <ele>1115.4</ele>
        <time>2026-08-27T06:43:12.086Z</time>
      </trkpt>
      <trkpt lat="47.84257" lon="6.91541">
        <ele>1115.3</ele>
        <time>2026-08-27T06:43:13.094Z</time>
      </trkpt>
      <trkpt lat="47.84257" lon="6.91541">
        <ele>1115.5</ele>
        <time>2026-08-27T06:43:14.102Z</time>
      </trkpt>
      <trkpt lat="47.84257" lon="6.91541">
        <ele>1115.5</ele>
        <time>2026-08-27T06:43:15.110Z</time>
      </trkpt>
      <trkpt lat="47.84257" lon="6.91541">
        <ele>1115.7</ele>
        <time>2026-08-27T06:43:16.118Z</time>
      </trkpt>
      <trkpt lat="47.84257" lon="6.91541">
        <ele>1115.6</ele>
        <time>2026-08-27T06:43:18.033Z</time>
      </trkpt>
      <trkpt lat="47.84257" lon="6.91541">
        <ele>1115.7</ele>
        <time>2026-08-27T06:43:19.041Z</time>
      </trkpt>
      <trkpt lat="47.84256" lon="6.91541">
        <ele>1115.7</ele>
        <time>2026-08-27T06:43:20.048Z</time>
      </trkpt>
      <trkpt lat="47.84256" lon="6.91541">
        <ele>1115.5</ele>
        <time>2026-08-27T06:43:21.056Z</time>
      </trkpt>
      <trkpt lat="47.84256" lon="6.91541">
        <ele>1115.6</ele>
        <time>2026-08-27T06:43:22.065Z</time>
      </trkpt>
      <trkpt lat="47.84256" lon="6.91541">
        <ele>1115.7</ele>
        <time>2026-08-27T06:43:23.072Z</time>
      </trkpt>
      <trkpt lat="47.84256" lon="6.91541">
        <ele>1115.6</ele>
        <time>2026-08-27T06:43:24.080Z</time>
      </trkpt>
      <trkpt lat="47.84256" lon="6.91541">
        <ele>1115.7</ele>
        <time>2026-08-27T06:43:25.088Z</time>
      </trkpt>
      <trkpt lat="47.84256" lon="6.91541">
        <ele>1115.7</ele>
        <time>2026-08-27T06:43:26.096Z</time>
      </trkpt>
      <trkpt lat="47.84256" lon="6.91542">
        <ele>1115.8</ele>
        <time>2026-08-27T06:43:27.103Z</time>
      </trkpt>
      <trkpt lat="47.84256" lon="6.91542">
        <ele>1115.7</ele>
        <time>2026-08-27T06:43:28.111Z</time>
      </trkpt>
      <trkpt lat="47.84256" lon="6.91542">
        <ele>1115.6</ele>
        <time>2026-08-27T06:43:29.119Z</time>
      </trkpt>
      <trkpt lat="47.84256" lon="6.91542">
        <ele>1115.6</ele>
        <time>2026-08-27T06:43:31.035Z</time>
      </trkpt>
      <trkpt lat="47.84256" lon="6.91542">
        <ele>1115.8</ele>
        <time>2026-08-27T06:43:32.043Z</time>
      </trkpt>
      <trkpt lat="47.84256" lon="6.91542">
        <ele>1115.9</ele>
        <time>2026-08-27T06:43:33.051Z</time>
      </trkpt>
      <trkpt lat="47.84256" lon="6.91542">
        <ele>1116</ele>
        <time>2026-08-27T06:43:34.058Z</time>
      </trkpt>
      <trkpt lat="47.84256" lon="6.91542">
        <ele>1115.8</ele>
        <time>2026-08-27T06:43:35.066Z</time>
      </trkpt>
      <trkpt lat="47.84256" lon="6.91542">
        <ele>1116.3</ele>
        <time>2026-08-27T06:43:36.074Z</time>
      </trkpt>
      <trkpt lat="47.84256" lon="6.91542">
        <ele>1116.4</ele>
        <time>2026-08-27T06:43:37.082Z</time>
      </trkpt>
      <trkpt lat="47.84257" lon="6.91542">
        <ele>1116.2</ele>
        <time>2026-08-27T06:43:38.089Z</time>
      </trkpt>
      <trkpt lat="47.84257" lon="6.91542">
        <ele>1116.2</ele>
        <time>2026-08-27T06:43:39.098Z</time>
      </trkpt>
      <trkpt lat="47.84257" lon="6.91542">
        <ele>1116.1</ele>
        <time>2026-08-27T06:43:40.105Z</time>
      </trkpt>
      <trkpt lat="47.84257" lon="6.91542">
        <ele>1116.1</ele>
        <time>2026-08-27T06:43:41.112Z</time>
      </trkpt>
      <trkpt lat="47.84257" lon="6.91542">
        <ele>1116.2</ele>
        <time>2026-08-27T06:43:42.120Z</time>
      </trkpt>
      <trkpt lat="47.84257" lon="6.91542">
        <ele>1116.3</ele>
        <time>2026-08-27T06:43:44.035Z</time>
      </trkpt>
      <trkpt lat="47.84257" lon="6.91542">
        <ele>1116.1</ele>
        <time>2026-08-27T06:43:45.043Z</time>
      </trkpt>
      <trkpt lat="47.84257" lon="6.91542">
        <ele>1116.1</ele>
        <time>2026-08-27T06:43:46.051Z</time>
      </trkpt>
      <trkpt lat="47.84257" lon="6.91542">
        <ele>1116.2</ele>
        <time>2026-08-27T06:43:47.059Z</time>
      </trkpt>
      <trkpt lat="47.84257" lon="6.91542">
        <ele>1116.1</ele>
        <time>2026-08-27T06:43:48.067Z</time>
      </trkpt>
      <trkpt lat="47.84257" lon="6.91542">
        <ele>1116</ele>
        <time>2026-08-27T06:43:49.074Z</time>
      </trkpt>
      <trkpt lat="47.84257" lon="6.91542">
        <ele>1115.9</ele>
        <time>2026-08-27T06:43:50.083Z</time>
      </trkpt>
      <trkpt lat="47.84257" lon="6.91542">
        <ele>1115.9</ele>
        <time>2026-08-27T06:43:51.091Z</time>
      </trkpt>
      <trkpt lat="47.84257" lon="6.91542">
        <ele>1115.8</ele>
        <time>2026-08-27T06:43:52.099Z</time>
      </trkpt>
      <trkpt lat="47.84257" lon="6.91542">
        <ele>1115.8</ele>
        <time>2026-08-27T06:43:53.107Z</time>
      </trkpt>
      <trkpt lat="47.84257" lon="6.91542">
        <ele>1116</ele>
        <time>2026-08-27T06:43:55.123Z</time>
      </trkpt>
      <trkpt lat="47.84257" lon="6.91542">
        <ele>1116</ele>
        <time>2026-08-27T06:43:57.036Z</time>
      </trkpt>
      <trkpt lat="47.84257" lon="6.91542">
        <ele>1115.9</ele>
        <time>2026-08-27T06:43:58.045Z</time>
      </trkpt>
      <trkpt lat="47.84257" lon="6.91542">
        <ele>1115.9</ele>
        <time>2026-08-27T06:43:59.052Z</time>
      </trkpt>
      <trkpt lat="47.84257" lon="6.91542">
        <ele>1115.8</ele>
        <time>2026-08-27T06:44:00.060Z</time>
      </trkpt>
      <trkpt lat="47.84257" lon="6.91542">
        <ele>1116</ele>
        <time>2026-08-27T06:44:01.068Z</time>
      </trkpt>
      <trkpt lat="47.84257" lon="6.91542">
        <ele>1116</ele>
        <time>2026-08-27T06:44:02.077Z</time>
      </trkpt>
      <trkpt lat="47.84257" lon="6.91542">
        <ele>1116</ele>
        <time>2026-08-27T06:44:03.084Z</time>
      </trkpt>
      <trkpt lat="47.84257" lon="6.91542">
        <ele>1115.8</ele>
        <time>2026-08-27T06:44:04.091Z</time>
      </trkpt>
      <trkpt lat="47.84257" lon="6.91542">
        <ele>1115.8</ele>
        <time>2026-08-27T06:44:05.100Z</time>
      </trkpt>
      <trkpt lat="47.84257" lon="6.91542">
        <ele>1115.8</ele>
        <time>2026-08-27T06:44:06.107Z</time>
      </trkpt>
      <trkpt lat="47.84257" lon="6.91542">
        <ele>1115.7</ele>
        <time>2026-08-27T06:44:07.115Z</time>
      </trkpt>
      <trkpt lat="47.84257" lon="6.91542">
        <ele>1115.7</ele>
        <time>2026-08-27T06:44:08.123Z</time>
      </trkpt>
      <trkpt lat="47.84257" lon="6.91542">
        <ele>1115.5</ele>
        <time>2026-08-27T06:44:09.132Z</time>
      </trkpt>
      <trkpt lat="47.84257" lon="6.91542">
        <ele>1115.5</ele>
        <time>2026-08-27T06:44:11.046Z</time>
      </trkpt>
      <trkpt lat="47.84257" lon="6.91542">
        <ele>1115.7</ele>
        <time>2026-08-27T06:44:12.053Z</time>
      </trkpt>
      <trkpt lat="47.84257" lon="6.91542">
        <ele>1115.6</ele>
        <time>2026-08-27T06:44:13.061Z</time>
      </trkpt>
      <trkpt lat="47.84257" lon="6.91542">
        <ele>1115.5</ele>
        <time>2026-08-27T06:44:14.069Z</time>
      </trkpt>
      <trkpt lat="47.84257" lon="6.91542">
        <ele>1115.4</ele>
        <time>2026-08-27T06:44:15.077Z</time>
      </trkpt>
      <trkpt lat="47.84257" lon="6.91542">
        <ele>1115.5</ele>
        <time>2026-08-27T06:44:16.085Z</time>
      </trkpt>
      <trkpt lat="47.84257" lon="6.91542">
        <ele>1115.3</ele>
        <time>2026-08-27T06:44:17.093Z</time>
      </trkpt>
      <trkpt lat="47.84257" lon="6.91542">
        <ele>1115.2</ele>
        <time>2026-08-27T06:44:18.101Z</time>
      </trkpt>
      <trkpt lat="47.84257" lon="6.91542">
        <ele>1115.2</ele>
        <time>2026-08-27T06:44:19.108Z</time>
      </trkpt>
      <trkpt lat="47.84257" lon="6.91542">
        <ele>1115.1</ele>
        <time>2026-08-27T06:44:21.124Z</time>
      </trkpt>
      <trkpt lat="47.84257" lon="6.91542">
        <ele>1115.7</ele>
        <time>2026-08-27T06:44:23.039Z</time>
      </trkpt>
      <trkpt lat="47.84257" lon="6.91542">
        <ele>1115.8</ele>
        <time>2026-08-27T06:44:24.048Z</time>
      </trkpt>
      <trkpt lat="47.84257" lon="6.91542">
        <ele>1116</ele>
        <time>2026-08-27T06:44:25.055Z</time>
      </trkpt>
      <trkpt lat="47.84257" lon="6.91542">
        <ele>1115.9</ele>
        <time>2026-08-27T06:44:26.062Z</time>
      </trkpt>
      <trkpt lat="47.84257" lon="6.91542">
        <ele>1115.9</ele>
        <time>2026-08-27T06:44:27.070Z</time>
      </trkpt>
      <trkpt lat="47.84257" lon="6.91542">
        <ele>1115.8</ele>
        <time>2026-08-27T06:44:28.078Z</time>
      </trkpt>
      <trkpt lat="47.84257" lon="6.91542">
        <ele>1115.8</ele>
        <time>2026-08-27T06:44:29.086Z</time>
      </trkpt>
      <trkpt lat="47.84257" lon="6.91542">
        <ele>1115.9</ele>
        <time>2026-08-27T06:44:30.094Z</time>
      </trkpt>
      <trkpt lat="47.84257" lon="6.91542">
        <ele>1115.8</ele>
        <time>2026-08-27T06:44:31.103Z</time>
      </trkpt>
      <trkpt lat="47.84257" lon="6.91542">
        <ele>1115.8</ele>
        <time>2026-08-27T06:44:32.109Z</time>
      </trkpt>
      <trkpt lat="47.84257" lon="6.91542">
        <ele>1115.6</ele>
        <time>2026-08-27T06:44:34.126Z</time>
      </trkpt>
      <trkpt lat="47.84257" lon="6.91542">
        <ele>1115.3</ele>
        <time>2026-08-27T06:44:36.040Z</time>
      </trkpt>
      <trkpt lat="47.84257" lon="6.91542">
        <ele>1115.1</ele>
        <time>2026-08-27T06:44:37.048Z</time>
      </trkpt>
      <trkpt lat="47.84257" lon="6.91542">
        <ele>1115.2</ele>
        <time>2026-08-27T06:44:38.056Z</time>
      </trkpt>
      <trkpt lat="47.84257" lon="6.91542">
        <ele>1115.1</ele>
        <time>2026-08-27T06:44:39.065Z</time>
      </trkpt>
      <trkpt lat="47.84257" lon="6.91541">
        <ele>1115.3</ele>
        <time>2026-08-27T06:44:40.072Z</time>
      </trkpt>
      <trkpt lat="47.84257" lon="6.91541">
        <ele>1115.4</ele>
        <time>2026-08-27T06:44:41.080Z</time>
      </trkpt>
      <trkpt lat="47.84257" lon="6.91541">
        <ele>1115.4</ele>
        <time>2026-08-27T06:44:42.087Z</time>
      </trkpt>
      <trkpt lat="47.84257" lon="6.91541">
        <ele>1115.6</ele>
        <time>2026-08-27T06:44:43.096Z</time>
      </trkpt>
      <trkpt lat="47.84257" lon="6.91541">
        <ele>1115.9</ele>
        <time>2026-08-27T06:44:44.103Z</time>
      </trkpt>
      <trkpt lat="47.84257" lon="6.91541">
        <ele>1115.9</ele>
        <time>2026-08-27T06:44:45.112Z</time>
      </trkpt>
      <trkpt lat="47.84257" lon="6.91541">
        <ele>1115.9</ele>
        <time>2026-08-27T06:44:47.026Z</time>
      </trkpt>
      <trkpt lat="47.84257" lon="6.91541">
        <ele>1115.8</ele>
        <time>2026-08-27T06:44:48.034Z</time>
      </trkpt>
      <trkpt lat="47.84257" lon="6.91541">
        <ele>1115.7</ele>
        <time>2026-08-27T06:44:49.042Z</time>
      </trkpt>
      <trkpt lat="47.84257" lon="6.91541">
        <ele>1115.9</ele>
        <time>2026-08-27T06:44:50.050Z</time>
      </trkpt>
      <trkpt lat="47.84257" lon="6.91542">
        <ele>1115.9</ele>
        <time>2026-08-27T06:44:51.057Z</time>
      </trkpt>
      <trkpt lat="47.84257" lon="6.91542">
        <ele>1116</ele>
        <time>2026-08-27T06:44:52.065Z</time>
      </trkpt>
      <trkpt lat="47.84257" lon="6.91542">
        <ele>1116.2</ele>
        <time>2026-08-27T06:44:53.073Z</time>
      </trkpt>
      <trkpt lat="47.84257" lon="6.91542">
        <ele>1116.1</ele>
        <time>2026-08-27T06:44:54.081Z</time>
      </trkpt>
      <trkpt lat="47.84257" lon="6.91542">
        <ele>1116.1</ele>
        <time>2026-08-27T06:44:55.088Z</time>
      </trkpt>
      <trkpt lat="47.84257" lon="6.91542">
        <ele>1116</ele>
        <time>2026-08-27T06:44:56.097Z</time>
      </trkpt>
      <trkpt lat="47.84257" lon="6.91542">
        <ele>1116</ele>
        <time>2026-08-27T06:44:57.104Z</time>
      </trkpt>
      <trkpt lat="47.84257" lon="6.91542">
        <ele>1115.7</ele>
        <time>2026-08-27T06:44:58.112Z</time>
      </trkpt>
      <trkpt lat="47.84257" lon="6.91542">
        <ele>1115.4</ele>
        <time>2026-08-27T06:45:00.027Z</time>
      </trkpt>
      <trkpt lat="47.84257" lon="6.91542">
        <ele>1115.5</ele>
        <time>2026-08-27T06:45:01.035Z</time>
      </trkpt>
      <trkpt lat="47.84257" lon="6.91542">
        <ele>1115.3</ele>
        <time>2026-08-27T06:45:02.042Z</time>
      </trkpt>
      <trkpt lat="47.84257" lon="6.91542">
        <ele>1115.2</ele>
        <time>2026-08-27T06:45:03.050Z</time>
      </trkpt>
      <trkpt lat="47.84257" lon="6.91542">
        <ele>1115.2</ele>
        <time>2026-08-27T06:45:04.058Z</time>
      </trkpt>
      <trkpt lat="47.84257" lon="6.91542">
        <ele>1115.1</ele>
        <time>2026-08-27T06:45:05.066Z</time>
      </trkpt>
      <trkpt lat="47.84257" lon="6.91542">
        <ele>1115</ele>
        <time>2026-08-27T06:45:06.074Z</time>
      </trkpt>
      <trkpt lat="47.84257" lon="6.91542">
        <ele>1115.5</ele>
        <time>2026-08-27T06:45:07.083Z</time>
      </trkpt>
      <trkpt lat="47.84257" lon="6.91541">
        <ele>1115.4</ele>
        <time>2026-08-27T06:45:08.089Z</time>
      </trkpt>
      <trkpt lat="47.84257" lon="6.91541">
        <ele>1115.5</ele>
        <time>2026-08-27T06:45:09.098Z</time>
      </trkpt>
      <trkpt lat="47.84257" lon="6.91541">
        <ele>1115.5</ele>
        <time>2026-08-27T06:45:10.105Z</time>
      </trkpt>
      <trkpt lat="47.84257" lon="6.91541">
        <ele>1115.6</ele>
        <time>2026-08-27T06:45:11.113Z</time>
      </trkpt>
      <trkpt lat="47.84257" lon="6.91541">
        <ele>1115.6</ele>
        <time>2026-08-27T06:45:12.122Z</time>
      </trkpt>
      <trkpt lat="47.84257" lon="6.91541">
        <ele>1115.5</ele>
        <time>2026-08-27T06:45:14.036Z</time>
      </trkpt>
      <trkpt lat="47.84257" lon="6.91541">
        <ele>1115.5</ele>
        <time>2026-08-27T06:45:15.044Z</time>
      </trkpt>
      <trkpt lat="47.84257" lon="6.91541">
        <ele>1115.5</ele>
        <time>2026-08-27T06:45:16.052Z</time>
      </trkpt>
      <trkpt lat="47.84257" lon="6.91541">
        <ele>1115.5</ele>
        <time>2026-08-27T06:45:17.059Z</time>
      </trkpt>
      <trkpt lat="47.84257" lon="6.91541">
        <ele>1115.3</ele>
        <time>2026-08-27T06:45:18.068Z</time>
      </trkpt>
      <trkpt lat="47.84257" lon="6.91541">
        <ele>1115.5</ele>
        <time>2026-08-27T06:45:19.076Z</time>
      </trkpt>
      <trkpt lat="47.84257" lon="6.91541">
        <ele>1115.5</ele>
        <time>2026-08-27T06:45:20.084Z</time>
      </trkpt>
      <trkpt lat="47.84257" lon="6.91541">
        <ele>1115.6</ele>
        <time>2026-08-27T06:45:21.091Z</time>
      </trkpt>
      <trkpt lat="47.84257" lon="6.91541">
        <ele>1115.7</ele>
        <time>2026-08-27T06:45:22.100Z</time>
      </trkpt>
      <trkpt lat="47.84257" lon="6.91541">
        <ele>1115.8</ele>
        <time>2026-08-27T06:45:23.107Z</time>
      </trkpt>
      <trkpt lat="47.84257" lon="6.91541">
        <ele>1115.7</ele>
        <time>2026-08-27T06:45:24.114Z</time>
      </trkpt>
      <trkpt lat="47.84257" lon="6.91541">
        <ele>1115.5</ele>
        <time>2026-08-27T06:45:26.130Z</time>
      </trkpt>
      <trkpt lat="47.84257" lon="6.91541">
        <ele>1115.3</ele>
        <time>2026-08-27T06:45:28.046Z</time>
      </trkpt>
      <trkpt lat="47.84257" lon="6.91541">
        <ele>1115.3</ele>
        <time>2026-08-27T06:45:29.053Z</time>
      </trkpt>
      <trkpt lat="47.84257" lon="6.91541">
        <ele>1115.4</ele>
        <time>2026-08-27T06:45:30.060Z</time>
      </trkpt>
      <trkpt lat="47.84257" lon="6.91541">
        <ele>1115.3</ele>
        <time>2026-08-27T06:45:31.068Z</time>
      </trkpt>
      <trkpt lat="47.84257" lon="6.91541">
        <ele>1115.1</ele>
        <time>2026-08-27T06:45:32.076Z</time>
      </trkpt>
      <trkpt lat="47.84257" lon="6.91541">
        <ele>1115.2</ele>
        <time>2026-08-27T06:45:33.085Z</time>
      </trkpt>
      <trkpt lat="47.84257" lon="6.91541">
        <ele>1115</ele>
        <time>2026-08-27T06:45:34.093Z</time>
      </trkpt>
      <trkpt lat="47.84257" lon="6.91541">
        <ele>1114.8</ele>
        <time>2026-08-27T06:45:35.100Z</time>
      </trkpt>
      <trkpt lat="47.84257" lon="6.91541">
        <ele>1115</ele>
        <time>2026-08-27T06:45:36.109Z</time>
      </trkpt>
      <trkpt lat="47.84257" lon="6.91541">
        <ele>1115.1</ele>
        <time>2026-08-27T06:45:37.115Z</time>
      </trkpt>
      <trkpt lat="47.84257" lon="6.91541">
        <ele>1115.3</ele>
        <time>2026-08-27T06:45:39.030Z</time>
      </trkpt>
      <trkpt lat="47.84257" lon="6.91541">
        <ele>1115.4</ele>
        <time>2026-08-27T06:45:40.039Z</time>
      </trkpt>
      <trkpt lat="47.84257" lon="6.91541">
        <ele>1115.5</ele>
        <time>2026-08-27T06:45:41.047Z</time>
      </trkpt>
      <trkpt lat="47.84257" lon="6.91541">
        <ele>1115.5</ele>
        <time>2026-08-27T06:45:42.055Z</time>
      </trkpt>
      <trkpt lat="47.84257" lon="6.91541">
        <ele>1115.5</ele>
        <time>2026-08-27T06:45:43.062Z</time>
      </trkpt>
      <trkpt lat="47.84257" lon="6.91541">
        <ele>1115.4</ele>
        <time>2026-08-27T06:45:44.069Z</time>
      </trkpt>
      <trkpt lat="47.84257" lon="6.91541">
        <ele>1115.4</ele>
        <time>2026-08-27T06:45:45.077Z</time>
      </trkpt>
      <trkpt lat="47.84257" lon="6.91541">
        <ele>1115.4</ele>
        <time>2026-08-27T06:45:46.085Z</time>
      </trkpt>
      <trkpt lat="47.84257" lon="6.91541">
        <ele>1115.2</ele>
        <time>2026-08-27T06:45:47.093Z</time>
      </trkpt>
      <trkpt lat="47.84257" lon="6.91541">
        <ele>1115.2</ele>
        <time>2026-08-27T06:45:48.101Z</time>
      </trkpt>
      <trkpt lat="47.84257" lon="6.91541">
        <ele>1115.2</ele>
        <time>2026-08-27T06:45:49.109Z</time>
      </trkpt>
      <trkpt lat="47.84257" lon="6.91541">
        <ele>1115.3</ele>
        <time>2026-08-27T06:45:50.117Z</time>
      </trkpt>
      <trkpt lat="47.84257" lon="6.91541">
        <ele>1115.4</ele>
        <time>2026-08-27T06:45:51.124Z</time>
      </trkpt>
      <trkpt lat="47.84257" lon="6.91541">
        <ele>1115.4</ele>
        <time>2026-08-27T06:45:53.040Z</time>
      </trkpt>
      <trkpt lat="47.84257" lon="6.9154">
        <ele>1115.3</ele>
        <time>2026-08-27T06:45:54.047Z</time>
      </trkpt>
      <trkpt lat="47.84257" lon="6.9154">
        <ele>1115.2</ele>
        <time>2026-08-27T06:45:55.056Z</time>
      </trkpt>
      <trkpt lat="47.84257" lon="6.9154">
        <ele>1115.4</ele>
        <time>2026-08-27T06:45:56.063Z</time>
      </trkpt>
      <trkpt lat="47.84257" lon="6.9154">
        <ele>1115.3</ele>
        <time>2026-08-27T06:45:57.072Z</time>
      </trkpt>
      <trkpt lat="47.84257" lon="6.9154">
        <ele>1115.3</ele>
        <time>2026-08-27T06:45:58.079Z</time>
      </trkpt>
      <trkpt lat="47.84257" lon="6.9154">
        <ele>1115.5</ele>
        <time>2026-08-27T06:45:59.087Z</time>
      </trkpt>
      <trkpt lat="47.84257" lon="6.9154">
        <ele>1115.3</ele>
        <time>2026-08-27T06:46:00.095Z</time>
      </trkpt>
      <trkpt lat="47.84257" lon="6.9154">
        <ele>1115.1</ele>
        <time>2026-08-27T06:46:01.103Z</time>
      </trkpt>
      <trkpt lat="47.84257" lon="6.9154">
        <ele>1115.2</ele>
        <time>2026-08-27T06:46:02.110Z</time>
      </trkpt>
      <trkpt lat="47.84257" lon="6.9154">
        <ele>1115</ele>
        <time>2026-08-27T06:46:03.118Z</time>
      </trkpt>
      <trkpt lat="47.84257" lon="6.9154">
        <ele>1115.3</ele>
        <time>2026-08-27T06:46:05.033Z</time>
      </trkpt>
      <trkpt lat="47.84257" lon="6.9154">
        <ele>1115.3</ele>
        <time>2026-08-27T06:46:06.041Z</time>
      </trkpt>
      <trkpt lat="47.84257" lon="6.9154">
        <ele>1115.6</ele>
        <time>2026-08-27T06:46:07.048Z</time>
      </trkpt>
      <trkpt lat="47.84257" lon="6.9154">
        <ele>1115.6</ele>
        <time>2026-08-27T06:46:08.056Z</time>
      </trkpt>
      <trkpt lat="47.84257" lon="6.9154">
        <ele>1115.7</ele>
        <time>2026-08-27T06:46:09.065Z</time>
      </trkpt>
      <trkpt lat="47.84257" lon="6.9154">
        <ele>1115.8</ele>
        <time>2026-08-27T06:46:10.072Z</time>
      </trkpt>
      <trkpt lat="47.84257" lon="6.9154">
        <ele>1115.7</ele>
        <time>2026-08-27T06:46:11.081Z</time>
      </trkpt>
      <trkpt lat="47.84257" lon="6.9154">
        <ele>1115.9</ele>
        <time>2026-08-27T06:46:12.087Z</time>
      </trkpt>
      <trkpt lat="47.84257" lon="6.9154">
        <ele>1115.8</ele>
        <time>2026-08-27T06:46:13.095Z</time>
      </trkpt>
      <trkpt lat="47.84257" lon="6.9154">
        <ele>1115.8</ele>
        <time>2026-08-27T06:46:14.103Z</time>
      </trkpt>
      <trkpt lat="47.84257" lon="6.9154">
        <ele>1115.8</ele>
        <time>2026-08-27T06:46:15.111Z</time>
      </trkpt>
      <trkpt lat="47.84257" lon="6.9154">
        <ele>1115.7</ele>
        <time>2026-08-27T06:46:16.119Z</time>
      </trkpt>
      <trkpt lat="47.84257" lon="6.91541">
        <ele>1115.8</ele>
        <time>2026-08-27T06:46:18.034Z</time>
      </trkpt>
      <trkpt lat="47.84257" lon="6.91541">
        <ele>1116</ele>
        <time>2026-08-27T06:46:19.042Z</time>
      </trkpt>
      <trkpt lat="47.84257" lon="6.91541">
        <ele>1116.1</ele>
        <time>2026-08-27T06:46:20.049Z</time>
      </trkpt>
      <trkpt lat="47.84257" lon="6.91541">
        <ele>1116.1</ele>
        <time>2026-08-27T06:46:21.057Z</time>
      </trkpt>
      <trkpt lat="47.84257" lon="6.91541">
        <ele>1116</ele>
        <time>2026-08-27T06:46:22.065Z</time>
      </trkpt>
      <trkpt lat="47.84257" lon="6.91541">
        <ele>1116.1</ele>
        <time>2026-08-27T06:46:23.073Z</time>
      </trkpt>
      <trkpt lat="47.84257" lon="6.91541">
        <ele>1116.1</ele>
        <time>2026-08-27T06:46:24.081Z</time>
      </trkpt>
      <trkpt lat="47.84257" lon="6.91541">
        <ele>1116</ele>
        <time>2026-08-27T06:46:25.089Z</time>
      </trkpt>
      <trkpt lat="47.84257" lon="6.91541">
        <ele>1116.1</ele>
        <time>2026-08-27T06:46:26.096Z</time>
      </trkpt>
      <trkpt lat="47.84257" lon="6.91541">
        <ele>1116.1</ele>
        <time>2026-08-27T06:46:27.105Z</time>
      </trkpt>
      <trkpt lat="47.84257" lon="6.91541">
        <ele>1116.2</ele>
        <time>2026-08-27T06:46:28.112Z</time>
      </trkpt>
      <trkpt lat="47.84257" lon="6.91541">
        <ele>1116.1</ele>
        <time>2026-08-27T06:46:29.120Z</time>
      </trkpt>
      <trkpt lat="47.84257" lon="6.91541">
        <ele>1116.2</ele>
        <time>2026-08-27T06:46:31.035Z</time>
      </trkpt>
      <trkpt lat="47.84257" lon="6.91541">
        <ele>1116.1</ele>
        <time>2026-08-27T06:46:32.043Z</time>
      </trkpt>
      <trkpt lat="47.84257" lon="6.91541">
        <ele>1116</ele>
        <time>2026-08-27T06:46:33.051Z</time>
      </trkpt>
      <trkpt lat="47.84257" lon="6.91541">
        <ele>1115.9</ele>
        <time>2026-08-27T06:46:34.059Z</time>
      </trkpt>
      <trkpt lat="47.84257" lon="6.91541">
        <ele>1116</ele>
        <time>2026-08-27T06:46:35.066Z</time>
      </trkpt>
      <trkpt lat="47.84257" lon="6.91541">
        <ele>1115.9</ele>
        <time>2026-08-27T06:46:36.074Z</time>
      </trkpt>
      <trkpt lat="47.84257" lon="6.91541">
        <ele>1116</ele>
        <time>2026-08-27T06:46:37.082Z</time>
      </trkpt>
      <trkpt lat="47.84257" lon="6.91541">
        <ele>1116</ele>
        <time>2026-08-27T06:46:38.090Z</time>
      </trkpt>
      <trkpt lat="47.84257" lon="6.91541">
        <ele>1115.8</ele>
        <time>2026-08-27T06:46:39.099Z</time>
      </trkpt>
      <trkpt lat="47.84257" lon="6.91541">
        <ele>1115.8</ele>
        <time>2026-08-27T06:46:40.105Z</time>
      </trkpt>
      <trkpt lat="47.84257" lon="6.91541">
        <ele>1116</ele>
        <time>2026-08-27T06:46:41.114Z</time>
      </trkpt>
      <trkpt lat="47.84257" lon="6.91541">
        <ele>1115.8</ele>
        <time>2026-08-27T06:46:43.028Z</time>
      </trkpt>
      <trkpt lat="47.84257" lon="6.91541">
        <ele>1115.8</ele>
        <time>2026-08-27T06:46:44.036Z</time>
      </trkpt>
      <trkpt lat="47.84257" lon="6.91541">
        <ele>1115.6</ele>
        <time>2026-08-27T06:46:45.044Z</time>
      </trkpt>
      <trkpt lat="47.84257" lon="6.91541">
        <ele>1115.7</ele>
        <time>2026-08-27T06:46:46.053Z</time>
      </trkpt>
      <trkpt lat="47.84257" lon="6.91541">
        <ele>1115.6</ele>
        <time>2026-08-27T06:46:47.060Z</time>
      </trkpt>
      <trkpt lat="47.84257" lon="6.91541">
        <ele>1115.7</ele>
        <time>2026-08-27T06:46:48.067Z</time>
      </trkpt>
      <trkpt lat="47.84257" lon="6.91541">
        <ele>1115.7</ele>
        <time>2026-08-27T06:46:49.076Z</time>
      </trkpt>
      <trkpt lat="47.84257" lon="6.91541">
        <ele>1115.4</ele>
        <time>2026-08-27T06:46:50.083Z</time>
      </trkpt>
      <trkpt lat="47.84257" lon="6.91541">
        <ele>1115.6</ele>
        <time>2026-08-27T06:46:51.092Z</time>
      </trkpt>
      <trkpt lat="47.84257" lon="6.91541">
        <ele>1115.4</ele>
        <time>2026-08-27T06:46:52.099Z</time>
      </trkpt>
      <trkpt lat="47.84257" lon="6.91541">
        <ele>1115.5</ele>
        <time>2026-08-27T06:46:53.107Z</time>
      </trkpt>
      <trkpt lat="47.84257" lon="6.91541">
        <ele>1115.6</ele>
        <time>2026-08-27T06:46:54.114Z</time>
      </trkpt>
      <trkpt lat="47.84257" lon="6.91541">
        <ele>1115.6</ele>
        <time>2026-08-27T06:46:55.122Z</time>
      </trkpt>
      <trkpt lat="47.84257" lon="6.91541">
        <ele>1115.5</ele>
        <time>2026-08-27T06:46:57.037Z</time>
      </trkpt>
      <trkpt lat="47.84257" lon="6.91541">
        <ele>1115.6</ele>
        <time>2026-08-27T06:46:58.045Z</time>
      </trkpt>
      <trkpt lat="47.84257" lon="6.91541">
        <ele>1115.7</ele>
        <time>2026-08-27T06:46:59.053Z</time>
      </trkpt>
      <trkpt lat="47.84257" lon="6.91541">
        <ele>1115.7</ele>
        <time>2026-08-27T06:47:00.062Z</time>
      </trkpt>
      <trkpt lat="47.84257" lon="6.91541">
        <ele>1115.6</ele>
        <time>2026-08-27T06:47:01.069Z</time>
      </trkpt>
      <trkpt lat="47.84257" lon="6.91541">
        <ele>1115.3</ele>
        <time>2026-08-27T06:47:02.076Z</time>
      </trkpt>
      <trkpt lat="47.84257" lon="6.91541">
        <ele>1115.3</ele>
        <time>2026-08-27T06:47:03.084Z</time>
      </trkpt>
      <trkpt lat="47.84257" lon="6.91541">
        <ele>1115.4</ele>
        <time>2026-08-27T06:47:04.093Z</time>
      </trkpt>
      <trkpt lat="47.84257" lon="6.91541">
        <ele>1115.4</ele>
        <time>2026-08-27T06:47:05.100Z</time>
      </trkpt>
      <trkpt lat="47.84257" lon="6.91541">
        <ele>1115.4</ele>
        <time>2026-08-27T06:47:06.108Z</time>
      </trkpt>
      <trkpt lat="47.84257" lon="6.91541">
        <ele>1115.5</ele>
        <time>2026-08-27T06:47:08.024Z</time>
      </trkpt>
      <trkpt lat="47.84257" lon="6.91541">
        <ele>1115.6</ele>
        <time>2026-08-27T06:47:09.031Z</time>
      </trkpt>
      <trkpt lat="47.84257" lon="6.91541">
        <ele>1115.6</ele>
        <time>2026-08-27T06:47:10.039Z</time>
      </trkpt>
      <trkpt lat="47.84257" lon="6.91541">
        <ele>1115.5</ele>
        <time>2026-08-27T06:47:11.046Z</time>
      </trkpt>
      <trkpt lat="47.84257" lon="6.91541">
        <ele>1115.5</ele>
        <time>2026-08-27T06:47:12.055Z</time>
      </trkpt>
      <trkpt lat="47.84257" lon="6.91541">
        <ele>1115.5</ele>
        <time>2026-08-27T06:47:13.062Z</time>
      </trkpt>
      <trkpt lat="47.84257" lon="6.91541">
        <ele>1115.3</ele>
        <time>2026-08-27T06:47:14.071Z</time>
      </trkpt>
      <trkpt lat="47.84257" lon="6.91541">
        <ele>1115.4</ele>
        <time>2026-08-27T06:47:15.078Z</time>
      </trkpt>
      <trkpt lat="47.84257" lon="6.91541">
        <ele>1115.4</ele>
        <time>2026-08-27T06:47:16.086Z</time>
      </trkpt>
      <trkpt lat="47.84257" lon="6.91541">
        <ele>1115.4</ele>
        <time>2026-08-27T06:47:17.093Z</time>
      </trkpt>
      <trkpt lat="47.84257" lon="6.91541">
        <ele>1115.5</ele>
        <time>2026-08-27T06:47:18.101Z</time>
      </trkpt>
      <trkpt lat="47.84257" lon="6.91541">
        <ele>1115.2</ele>
        <time>2026-08-27T06:47:19.109Z</time>
      </trkpt>
      <trkpt lat="47.84257" lon="6.91541">
        <ele>1115.4</ele>
        <time>2026-08-27T06:47:20.117Z</time>
      </trkpt>
      <trkpt lat="47.84257" lon="6.91541">
        <ele>1115.2</ele>
        <time>2026-08-27T06:47:21.126Z</time>
      </trkpt>
      <trkpt lat="47.84257" lon="6.91541">
        <ele>1115.2</ele>
        <time>2026-08-27T06:47:23.040Z</time>
      </trkpt>
      <trkpt lat="47.84257" lon="6.91541">
        <ele>1115.2</ele>
        <time>2026-08-27T06:47:24.047Z</time>
      </trkpt>
      <trkpt lat="47.84257" lon="6.91541">
        <ele>1115.1</ele>
        <time>2026-08-27T06:47:25.055Z</time>
      </trkpt>
      <trkpt lat="47.84257" lon="6.91541">
        <ele>1115.1</ele>
        <time>2026-08-27T06:47:26.063Z</time>
      </trkpt>
      <trkpt lat="47.84257" lon="6.91541">
        <ele>1115.2</ele>
        <time>2026-08-27T06:47:27.071Z</time>
      </trkpt>
      <trkpt lat="47.84257" lon="6.91541">
        <ele>1115.6</ele>
        <time>2026-08-27T06:47:28.079Z</time>
      </trkpt>
      <trkpt lat="47.84257" lon="6.91541">
        <ele>1115.6</ele>
        <time>2026-08-27T06:47:29.087Z</time>
      </trkpt>
      <trkpt lat="47.84257" lon="6.91541">
        <ele>1115.6</ele>
        <time>2026-08-27T06:47:30.095Z</time>
      </trkpt>
      <trkpt lat="47.84257" lon="6.91541">
        <ele>1115.5</ele>
        <time>2026-08-27T06:47:31.103Z</time>
      </trkpt>
      <trkpt lat="47.84257" lon="6.91541">
        <ele>1115.5</ele>
        <time>2026-08-27T06:47:32.110Z</time>
      </trkpt>
      <trkpt lat="47.84257" lon="6.91541">
        <ele>1115.5</ele>
        <time>2026-08-27T06:47:33.118Z</time>
      </trkpt>
      <trkpt lat="47.84257" lon="6.91541">
        <ele>1115.4</ele>
        <time>2026-08-27T06:47:34.126Z</time>
      </trkpt>
      <trkpt lat="47.84257" lon="6.91541">
        <ele>1115.7</ele>
        <time>2026-08-27T06:47:36.042Z</time>
      </trkpt>
      <trkpt lat="47.84257" lon="6.91541">
        <ele>1115.5</ele>
        <time>2026-08-27T06:47:37.048Z</time>
      </trkpt>
      <trkpt lat="47.84257" lon="6.91541">
        <ele>1115.8</ele>
        <time>2026-08-27T06:47:38.056Z</time>
      </trkpt>
      <trkpt lat="47.84257" lon="6.91541">
        <ele>1115.8</ele>
        <time>2026-08-27T06:47:39.065Z</time>
      </trkpt>
      <trkpt lat="47.84257" lon="6.91541">
        <ele>1115.7</ele>
        <time>2026-08-27T06:47:40.073Z</time>
      </trkpt>
      <trkpt lat="47.84257" lon="6.9154">
        <ele>1115.7</ele>
        <time>2026-08-27T06:47:41.080Z</time>
      </trkpt>
      <trkpt lat="47.84257" lon="6.9154">
        <ele>1115.7</ele>
        <time>2026-08-27T06:47:42.089Z</time>
      </trkpt>
      <trkpt lat="47.84257" lon="6.9154">
        <ele>1115.6</ele>
        <time>2026-08-27T06:47:43.095Z</time>
      </trkpt>
      <trkpt lat="47.84257" lon="6.91541">
        <ele>1115.5</ele>
        <time>2026-08-27T06:47:44.103Z</time>
      </trkpt>
      <trkpt lat="47.84257" lon="6.91541">
        <ele>1115.6</ele>
        <time>2026-08-27T06:47:45.111Z</time>
      </trkpt>
      <trkpt lat="47.84257" lon="6.91541">
        <ele>1115.7</ele>
        <time>2026-08-27T06:47:47.127Z</time>
      </trkpt>
      <trkpt lat="47.84257" lon="6.91541">
        <ele>1115.6</ele>
        <time>2026-08-27T06:47:49.042Z</time>
      </trkpt>
      <trkpt lat="47.84258" lon="6.91541">
        <ele>1115.5</ele>
        <time>2026-08-27T06:47:50.051Z</time>
      </trkpt>
      <trkpt lat="47.84258" lon="6.91541">
        <ele>1115.5</ele>
        <time>2026-08-27T06:47:51.057Z</time>
      </trkpt>
      <trkpt lat="47.84258" lon="6.91541">
        <ele>1115.6</ele>
        <time>2026-08-27T06:47:52.065Z</time>
      </trkpt>
      <trkpt lat="47.84258" lon="6.91541">
        <ele>1115.5</ele>
        <time>2026-08-27T06:47:53.073Z</time>
      </trkpt>
      <trkpt lat="47.84258" lon="6.91541">
        <ele>1115.4</ele>
        <time>2026-08-27T06:47:54.081Z</time>
      </trkpt>
      <trkpt lat="47.84258" lon="6.91541">
        <ele>1115.4</ele>
        <time>2026-08-27T06:47:55.089Z</time>
      </trkpt>
      <trkpt lat="47.84258" lon="6.91541">
        <ele>1115.4</ele>
        <time>2026-08-27T06:47:56.097Z</time>
      </trkpt>
      <trkpt lat="47.84258" lon="6.91541">
        <ele>1115.5</ele>
        <time>2026-08-27T06:47:57.104Z</time>
      </trkpt>
      <trkpt lat="47.84258" lon="6.91541">
        <ele>1115.6</ele>
        <time>2026-08-27T06:47:58.112Z</time>
      </trkpt>
      <trkpt lat="47.84258" lon="6.91541">
        <ele>1115.4</ele>
        <time>2026-08-27T06:48:00.027Z</time>
      </trkpt>
      <trkpt lat="47.84258" lon="6.91541">
        <ele>1115.5</ele>
        <time>2026-08-27T06:48:01.035Z</time>
      </trkpt>
      <trkpt lat="47.84258" lon="6.91541">
        <ele>1115.5</ele>
        <time>2026-08-27T06:48:02.043Z</time>
      </trkpt>
      <trkpt lat="47.84258" lon="6.91541">
        <ele>1115.3</ele>
        <time>2026-08-27T06:48:03.051Z</time>
      </trkpt>
      <trkpt lat="47.84258" lon="6.91541">
        <ele>1115.4</ele>
        <time>2026-08-27T06:48:04.060Z</time>
      </trkpt>
      <trkpt lat="47.84258" lon="6.91541">
        <ele>1115.3</ele>
        <time>2026-08-27T06:48:05.066Z</time>
      </trkpt>
      <trkpt lat="47.84258" lon="6.91541">
        <ele>1115.2</ele>
        <time>2026-08-27T06:48:06.074Z</time>
      </trkpt>
      <trkpt lat="47.84258" lon="6.91541">
        <ele>1115.1</ele>
        <time>2026-08-27T06:48:07.082Z</time>
      </trkpt>
      <trkpt lat="47.84258" lon="6.91541">
        <ele>1115</ele>
        <time>2026-08-27T06:48:08.090Z</time>
      </trkpt>
      <trkpt lat="47.84258" lon="6.91541">
        <ele>1114.9</ele>
        <time>2026-08-27T06:48:09.098Z</time>
      </trkpt>
      <trkpt lat="47.84258" lon="6.91541">
        <ele>1114.7</ele>
        <time>2026-08-27T06:48:10.106Z</time>
      </trkpt>
      <trkpt lat="47.84258" lon="6.91541">
        <ele>1114.6</ele>
        <time>2026-08-27T06:48:11.113Z</time>
      </trkpt>
      <trkpt lat="47.84258" lon="6.91541">
        <ele>1114.5</ele>
        <time>2026-08-27T06:48:13.029Z</time>
      </trkpt>
      <trkpt lat="47.84258" lon="6.91541">
        <ele>1114.7</ele>
        <time>2026-08-27T06:48:14.037Z</time>
      </trkpt>
      <trkpt lat="47.84258" lon="6.91541">
        <ele>1114.8</ele>
        <time>2026-08-27T06:48:15.044Z</time>
      </trkpt>
      <trkpt lat="47.84258" lon="6.91541">
        <ele>1114.4</ele>
        <time>2026-08-27T06:48:16.052Z</time>
      </trkpt>
      <trkpt lat="47.84258" lon="6.91541">
        <ele>1114.3</ele>
        <time>2026-08-27T06:48:17.061Z</time>
      </trkpt>
      <trkpt lat="47.84258" lon="6.91541">
        <ele>1114.7</ele>
        <time>2026-08-27T06:48:18.067Z</time>
      </trkpt>
      <trkpt lat="47.84258" lon="6.91541">
        <ele>1114.5</ele>
        <time>2026-08-27T06:48:19.075Z</time>
      </trkpt>
      <trkpt lat="47.84258" lon="6.91541">
        <ele>1114.6</ele>
        <time>2026-08-27T06:48:20.084Z</time>
      </trkpt>
      <trkpt lat="47.84258" lon="6.91541">
        <ele>1114.6</ele>
        <time>2026-08-27T06:48:21.091Z</time>
      </trkpt>
      <trkpt lat="47.84258" lon="6.91541">
        <ele>1114.4</ele>
        <time>2026-08-27T06:48:22.099Z</time>
      </trkpt>
      <trkpt lat="47.84258" lon="6.91541">
        <ele>1114.3</ele>
        <time>2026-08-27T06:48:23.107Z</time>
      </trkpt>
      <trkpt lat="47.84258" lon="6.91541">
        <ele>1114.2</ele>
        <time>2026-08-27T06:48:24.115Z</time>
      </trkpt>
      <trkpt lat="47.84258" lon="6.91541">
        <ele>1114.2</ele>
        <time>2026-08-27T06:48:26.030Z</time>
      </trkpt>
      <trkpt lat="47.84258" lon="6.91541">
        <ele>1114.2</ele>
        <time>2026-08-27T06:48:27.038Z</time>
      </trkpt>
      <trkpt lat="47.84258" lon="6.91541">
        <ele>1114.1</ele>
        <time>2026-08-27T06:48:28.046Z</time>
      </trkpt>
      <trkpt lat="47.84258" lon="6.91541">
        <ele>1114.1</ele>
        <time>2026-08-27T06:48:29.053Z</time>
      </trkpt>
      <trkpt lat="47.84258" lon="6.91541">
        <ele>1114.2</ele>
        <time>2026-08-27T06:48:30.061Z</time>
      </trkpt>
      <trkpt lat="47.84258" lon="6.91541">
        <ele>1114</ele>
        <time>2026-08-27T06:48:31.069Z</time>
      </trkpt>
      <trkpt lat="47.84258" lon="6.91541">
        <ele>1114.1</ele>
        <time>2026-08-27T06:48:32.076Z</time>
      </trkpt>
      <trkpt lat="47.84258" lon="6.91541">
        <ele>1114</ele>
        <time>2026-08-27T06:48:33.084Z</time>
      </trkpt>
      <trkpt lat="47.84258" lon="6.91541">
        <ele>1114</ele>
        <time>2026-08-27T06:48:34.092Z</time>
      </trkpt>
      <trkpt lat="47.84258" lon="6.91541">
        <ele>1114.4</ele>
        <time>2026-08-27T06:48:35.100Z</time>
      </trkpt>
      <trkpt lat="47.84258" lon="6.91541">
        <ele>1114.5</ele>
        <time>2026-08-27T06:48:36.108Z</time>
      </trkpt>
      <trkpt lat="47.84258" lon="6.91541">
        <ele>1114.5</ele>
        <time>2026-08-27T06:48:37.116Z</time>
      </trkpt>
      <trkpt lat="47.84258" lon="6.91541">
        <ele>1114.8</ele>
        <time>2026-08-27T06:48:38.123Z</time>
      </trkpt>
      <trkpt lat="47.84258" lon="6.91541">
        <ele>1114.7</ele>
        <time>2026-08-27T06:48:40.038Z</time>
      </trkpt>
      <trkpt lat="47.84258" lon="6.91541">
        <ele>1115.1</ele>
        <time>2026-08-27T06:48:41.046Z</time>
      </trkpt>
      <trkpt lat="47.84258" lon="6.91541">
        <ele>1115</ele>
        <time>2026-08-27T06:48:42.055Z</time>
      </trkpt>
      <trkpt lat="47.84258" lon="6.91541">
        <ele>1115.2</ele>
        <time>2026-08-27T06:48:43.063Z</time>
      </trkpt>
      <trkpt lat="47.84258" lon="6.91541">
        <ele>1115.2</ele>
        <time>2026-08-27T06:48:44.070Z</time>
      </trkpt>
      <trkpt lat="47.84258" lon="6.91541">
        <ele>1115.2</ele>
        <time>2026-08-27T06:48:45.079Z</time>
      </trkpt>
      <trkpt lat="47.84258" lon="6.91541">
        <ele>1115.2</ele>
        <time>2026-08-27T06:48:46.086Z</time>
      </trkpt>
      <trkpt lat="47.84258" lon="6.91541">
        <ele>1115.5</ele>
        <time>2026-08-27T06:48:47.093Z</time>
      </trkpt>
      <trkpt lat="47.84258" lon="6.91541">
        <ele>1115.8</ele>
        <time>2026-08-27T06:48:48.101Z</time>
      </trkpt>
      <trkpt lat="47.84258" lon="6.91541">
        <ele>1115.8</ele>
        <time>2026-08-27T06:48:49.109Z</time>
      </trkpt>
      <trkpt lat="47.84258" lon="6.91541">
        <ele>1115.8</ele>
        <time>2026-08-27T06:48:50.117Z</time>
      </trkpt>
      <trkpt lat="47.84258" lon="6.91541">
        <ele>1115.9</ele>
        <time>2026-08-27T06:48:52.033Z</time>
      </trkpt>
      <trkpt lat="47.84258" lon="6.91541">
        <ele>1115.9</ele>
        <time>2026-08-27T06:48:53.040Z</time>
      </trkpt>
      <trkpt lat="47.84258" lon="6.91541">
        <ele>1116</ele>
        <time>2026-08-27T06:48:54.048Z</time>
      </trkpt>
      <trkpt lat="47.84258" lon="6.91541">
        <ele>1116</ele>
        <time>2026-08-27T06:48:55.055Z</time>
      </trkpt>
      <trkpt lat="47.84258" lon="6.91541">
        <ele>1116.1</ele>
        <time>2026-08-27T06:48:56.063Z</time>
      </trkpt>
      <trkpt lat="47.84258" lon="6.91541">
        <ele>1115.9</ele>
        <time>2026-08-27T06:48:57.072Z</time>
      </trkpt>
      <trkpt lat="47.84258" lon="6.91541">
        <ele>1115.9</ele>
        <time>2026-08-27T06:48:58.079Z</time>
      </trkpt>
      <trkpt lat="47.84258" lon="6.91541">
        <ele>1115.8</ele>
        <time>2026-08-27T06:48:59.087Z</time>
      </trkpt>
      <trkpt lat="47.84258" lon="6.91541">
        <ele>1115.7</ele>
        <time>2026-08-27T06:49:00.094Z</time>
      </trkpt>
      <trkpt lat="47.84258" lon="6.91541">
        <ele>1115.5</ele>
        <time>2026-08-27T06:49:02.110Z</time>
      </trkpt>
      <trkpt lat="47.84258" lon="6.91541">
        <ele>1115.2</ele>
        <time>2026-08-27T06:49:03.118Z</time>
      </trkpt>
      <trkpt lat="47.84258" lon="6.91541">
        <ele>1115.4</ele>
        <time>2026-08-27T06:49:05.033Z</time>
      </trkpt>
      <trkpt lat="47.84258" lon="6.91541">
        <ele>1115.2</ele>
        <time>2026-08-27T06:49:06.042Z</time>
      </trkpt>
      <trkpt lat="47.84258" lon="6.91541">
        <ele>1115.2</ele>
        <time>2026-08-27T06:49:07.049Z</time>
      </trkpt>
      <trkpt lat="47.84258" lon="6.91541">
        <ele>1114.8</ele>
        <time>2026-08-27T06:49:08.057Z</time>
      </trkpt>
      <trkpt lat="47.84258" lon="6.91541">
        <ele>1114.6</ele>
        <time>2026-08-27T06:49:09.064Z</time>
      </trkpt>
      <trkpt lat="47.84258" lon="6.91541">
        <ele>1114.7</ele>
        <time>2026-08-27T06:49:10.072Z</time>
      </trkpt>
      <trkpt lat="47.84258" lon="6.91541">
        <ele>1114.9</ele>
        <time>2026-08-27T06:49:11.080Z</time>
      </trkpt>
      <trkpt lat="47.84258" lon="6.91541">
        <ele>1114.8</ele>
        <time>2026-08-27T06:49:12.088Z</time>
      </trkpt>
      <trkpt lat="47.84258" lon="6.91541">
        <ele>1114.7</ele>
        <time>2026-08-27T06:49:13.095Z</time>
      </trkpt>
      <trkpt lat="47.84258" lon="6.9154">
        <ele>1114.7</ele>
        <time>2026-08-27T06:49:14.104Z</time>
      </trkpt>
      <trkpt lat="47.84258" lon="6.91541">
        <ele>1114.6</ele>
        <time>2026-08-27T06:49:15.111Z</time>
      </trkpt>
      <trkpt lat="47.84258" lon="6.91541">
        <ele>1114.6</ele>
        <time>2026-08-27T06:49:16.119Z</time>
      </trkpt>
      <trkpt lat="47.84258" lon="6.91541">
        <ele>1114.6</ele>
        <time>2026-08-27T06:49:18.035Z</time>
      </trkpt>
      <trkpt lat="47.84258" lon="6.9154">
        <ele>1114.9</ele>
        <time>2026-08-27T06:49:19.043Z</time>
      </trkpt>
      <trkpt lat="47.84258" lon="6.91541">
        <ele>1115</ele>
        <time>2026-08-27T06:49:20.049Z</time>
      </trkpt>
      <trkpt lat="47.84258" lon="6.9154">
        <ele>1115</ele>
        <time>2026-08-27T06:49:21.058Z</time>
      </trkpt>
      <trkpt lat="47.84258" lon="6.9154">
        <ele>1115</ele>
        <time>2026-08-27T06:49:22.065Z</time>
      </trkpt>
      <trkpt lat="47.84258" lon="6.9154">
        <ele>1115.1</ele>
        <time>2026-08-27T06:49:23.073Z</time>
      </trkpt>
      <trkpt lat="47.84258" lon="6.9154">
        <ele>1115.1</ele>
        <time>2026-08-27T06:49:24.082Z</time>
      </trkpt>
      <trkpt lat="47.84258" lon="6.9154">
        <ele>1115.2</ele>
        <time>2026-08-27T06:49:25.089Z</time>
      </trkpt>
      <trkpt lat="47.84258" lon="6.9154">
        <ele>1115.1</ele>
        <time>2026-08-27T06:49:26.097Z</time>
      </trkpt>
      <trkpt lat="47.84258" lon="6.9154">
        <ele>1115.1</ele>
        <time>2026-08-27T06:49:27.104Z</time>
      </trkpt>
      <trkpt lat="47.84258" lon="6.9154">
        <ele>1115</ele>
        <time>2026-08-27T06:49:28.113Z</time>
      </trkpt>
      <trkpt lat="47.84258" lon="6.9154">
        <ele>1115.1</ele>
        <time>2026-08-27T06:49:29.120Z</time>
      </trkpt>
      <trkpt lat="47.84258" lon="6.9154">
        <ele>1115.2</ele>
        <time>2026-08-27T06:49:30.129Z</time>
      </trkpt>
      <trkpt lat="47.84258" lon="6.9154">
        <ele>1115.1</ele>
        <time>2026-08-27T06:49:32.044Z</time>
      </trkpt>
      <trkpt lat="47.84258" lon="6.9154">
        <ele>1115.2</ele>
        <time>2026-08-27T06:49:33.051Z</time>
      </trkpt>
      <trkpt lat="47.84258" lon="6.9154">
        <ele>1115.4</ele>
        <time>2026-08-27T06:49:34.058Z</time>
      </trkpt>
      <trkpt lat="47.84258" lon="6.9154">
        <ele>1115.4</ele>
        <time>2026-08-27T06:49:35.067Z</time>
      </trkpt>
      <trkpt lat="47.84258" lon="6.9154">
        <ele>1115.4</ele>
        <time>2026-08-27T06:49:36.074Z</time>
      </trkpt>
      <trkpt lat="47.84258" lon="6.9154">
        <ele>1115</ele>
        <time>2026-08-27T06:49:37.082Z</time>
      </trkpt>
      <trkpt lat="47.84258" lon="6.9154">
        <ele>1115</ele>
        <time>2026-08-27T06:49:38.090Z</time>
      </trkpt>
      <trkpt lat="47.84258" lon="6.9154">
        <ele>1115.2</ele>
        <time>2026-08-27T06:49:39.098Z</time>
      </trkpt>
      <trkpt lat="47.84258" lon="6.9154">
        <ele>1115.3</ele>
        <time>2026-08-27T06:49:40.106Z</time>
      </trkpt>
      <trkpt lat="47.84258" lon="6.9154">
        <ele>1115.2</ele>
        <time>2026-08-27T06:49:41.113Z</time>
      </trkpt>
      <trkpt lat="47.84258" lon="6.9154">
        <ele>1115.3</ele>
        <time>2026-08-27T06:49:42.122Z</time>
      </trkpt>
      <trkpt lat="47.84258" lon="6.9154">
        <ele>1115.2</ele>
        <time>2026-08-27T06:49:44.036Z</time>
      </trkpt>
      <trkpt lat="47.84258" lon="6.9154">
        <ele>1115.1</ele>
        <time>2026-08-27T06:49:45.045Z</time>
      </trkpt>
      <trkpt lat="47.84258" lon="6.9154">
        <ele>1115.2</ele>
        <time>2026-08-27T06:49:46.053Z</time>
      </trkpt>
      <trkpt lat="47.84258" lon="6.9154">
        <ele>1115.2</ele>
        <time>2026-08-27T06:49:47.060Z</time>
      </trkpt>
      <trkpt lat="47.84258" lon="6.9154">
        <ele>1115.5</ele>
        <time>2026-08-27T06:49:48.068Z</time>
      </trkpt>
      <trkpt lat="47.84258" lon="6.9154">
        <ele>1115.5</ele>
        <time>2026-08-27T06:49:49.075Z</time>
      </trkpt>
      <trkpt lat="47.84258" lon="6.9154">
        <ele>1115.5</ele>
        <time>2026-08-27T06:49:50.083Z</time>
      </trkpt>
      <trkpt lat="47.84258" lon="6.9154">
        <ele>1115.5</ele>
        <time>2026-08-27T06:49:51.091Z</time>
      </trkpt>
      <trkpt lat="47.84258" lon="6.9154">
        <ele>1115.5</ele>
        <time>2026-08-27T06:49:52.099Z</time>
      </trkpt>
      <trkpt lat="47.84258" lon="6.9154">
        <ele>1115.5</ele>
        <time>2026-08-27T06:49:53.108Z</time>
      </trkpt>
      <trkpt lat="47.84258" lon="6.9154">
        <ele>1115.5</ele>
        <time>2026-08-27T06:49:54.115Z</time>
      </trkpt>
      <trkpt lat="47.84258" lon="6.9154">
        <ele>1115.4</ele>
        <time>2026-08-27T06:49:55.123Z</time>
      </trkpt>
      <trkpt lat="47.84258" lon="6.9154">
        <ele>1115.3</ele>
        <time>2026-08-27T06:49:56.130Z</time>
      </trkpt>
      <trkpt lat="47.84258" lon="6.9154">
        <ele>1115.1</ele>
        <time>2026-08-27T06:49:57.138Z</time>
      </trkpt>
      <trkpt lat="47.84258" lon="6.9154">
        <ele>1115.2</ele>
        <time>2026-08-27T06:49:59.054Z</time>
      </trkpt>
      <trkpt lat="47.84258" lon="6.9154">
        <ele>1115.1</ele>
        <time>2026-08-27T06:50:00.062Z</time>
      </trkpt>
      <trkpt lat="47.84258" lon="6.9154">
        <ele>1114.8</ele>
        <time>2026-08-27T06:50:01.068Z</time>
      </trkpt>
      <trkpt lat="47.84258" lon="6.9154">
        <ele>1115</ele>
        <time>2026-08-27T06:50:02.077Z</time>
      </trkpt>
      <trkpt lat="47.84258" lon="6.9154">
        <ele>1115.2</ele>
        <time>2026-08-27T06:50:03.085Z</time>
      </trkpt>
      <trkpt lat="47.84258" lon="6.9154">
        <ele>1115.1</ele>
        <time>2026-08-27T06:50:04.092Z</time>
      </trkpt>
      <trkpt lat="47.84258" lon="6.9154">
        <ele>1114.9</ele>
        <time>2026-08-27T06:50:05.101Z</time>
      </trkpt>
      <trkpt lat="47.84258" lon="6.9154">
        <ele>1115</ele>
        <time>2026-08-27T06:50:06.108Z</time>
      </trkpt>
      <trkpt lat="47.84258" lon="6.9154">
        <ele>1115.1</ele>
        <time>2026-08-27T06:50:07.115Z</time>
      </trkpt>
      <trkpt lat="47.84258" lon="6.9154">
        <ele>1115.2</ele>
        <time>2026-08-27T06:50:08.124Z</time>
      </trkpt>
      <trkpt lat="47.84258" lon="6.9154">
        <ele>1115.2</ele>
        <time>2026-08-27T06:50:10.038Z</time>
      </trkpt>
      <trkpt lat="47.84258" lon="6.9154">
        <ele>1115.2</ele>
        <time>2026-08-27T06:50:11.046Z</time>
      </trkpt>
      <trkpt lat="47.84258" lon="6.9154">
        <ele>1115.2</ele>
        <time>2026-08-27T06:50:12.055Z</time>
      </trkpt>
      <trkpt lat="47.84258" lon="6.9154">
        <ele>1115.2</ele>
        <time>2026-08-27T06:50:13.062Z</time>
      </trkpt>
      <trkpt lat="47.84258" lon="6.9154">
        <ele>1115.2</ele>
        <time>2026-08-27T06:50:14.069Z</time>
      </trkpt>
      <trkpt lat="47.84258" lon="6.9154">
        <ele>1115.4</ele>
        <time>2026-08-27T06:50:15.077Z</time>
      </trkpt>
      <trkpt lat="47.84258" lon="6.9154">
        <ele>1115.6</ele>
        <time>2026-08-27T06:50:16.085Z</time>
      </trkpt>
      <trkpt lat="47.84258" lon="6.9154">
        <ele>1115.8</ele>
        <time>2026-08-27T06:50:17.093Z</time>
      </trkpt>
      <trkpt lat="47.84258" lon="6.9154">
        <ele>1115.8</ele>
        <time>2026-08-27T06:50:18.101Z</time>
      </trkpt>
      <trkpt lat="47.84258" lon="6.9154">
        <ele>1115.8</ele>
        <time>2026-08-27T06:50:19.110Z</time>
      </trkpt>
      <trkpt lat="47.84258" lon="6.9154">
        <ele>1115.9</ele>
        <time>2026-08-27T06:50:20.116Z</time>
      </trkpt>
      <trkpt lat="47.84258" lon="6.9154">
        <ele>1115.8</ele>
        <time>2026-08-27T06:50:22.031Z</time>
      </trkpt>
      <trkpt lat="47.84258" lon="6.9154">
        <ele>1115.9</ele>
        <time>2026-08-27T06:50:23.040Z</time>
      </trkpt>
      <trkpt lat="47.84258" lon="6.9154">
        <ele>1115.8</ele>
        <time>2026-08-27T06:50:24.047Z</time>
      </trkpt>
      <trkpt lat="47.84258" lon="6.9154">
        <ele>1115.6</ele>
        <time>2026-08-27T06:50:25.056Z</time>
      </trkpt>
      <trkpt lat="47.84257" lon="6.9154">
        <ele>1115.5</ele>
        <time>2026-08-27T06:50:26.064Z</time>
      </trkpt>
      <trkpt lat="47.84257" lon="6.9154">
        <ele>1115.5</ele>
        <time>2026-08-27T06:50:27.072Z</time>
      </trkpt>
      <trkpt lat="47.84257" lon="6.91541">
        <ele>1115.3</ele>
        <time>2026-08-27T06:50:28.078Z</time>
      </trkpt>
      <trkpt lat="47.84257" lon="6.91541">
        <ele>1115.3</ele>
        <time>2026-08-27T06:50:29.086Z</time>
      </trkpt>
      <trkpt lat="47.84257" lon="6.91541">
        <ele>1115.2</ele>
        <time>2026-08-27T06:50:30.095Z</time>
      </trkpt>
      <trkpt lat="47.84257" lon="6.91541">
        <ele>1115.4</ele>
        <time>2026-08-27T06:50:31.102Z</time>
      </trkpt>
      <trkpt lat="47.84257" lon="6.91541">
        <ele>1115.7</ele>
        <time>2026-08-27T06:50:32.111Z</time>
      </trkpt>
      <trkpt lat="47.84257" lon="6.91541">
        <ele>1115.4</ele>
        <time>2026-08-27T06:50:33.118Z</time>
      </trkpt>
      <trkpt lat="47.84257" lon="6.91541">
        <ele>1115.3</ele>
        <time>2026-08-27T06:50:34.125Z</time>
      </trkpt>
      <trkpt lat="47.84257" lon="6.91541">
        <ele>1115.3</ele>
        <time>2026-08-27T06:50:36.041Z</time>
      </trkpt>
      <trkpt lat="47.84257" lon="6.91541">
        <ele>1115.2</ele>
        <time>2026-08-27T06:50:37.048Z</time>
      </trkpt>
      <trkpt lat="47.84257" lon="6.91541">
        <ele>1115.1</ele>
        <time>2026-08-27T06:50:38.056Z</time>
      </trkpt>
      <trkpt lat="47.84257" lon="6.91541">
        <ele>1115.5</ele>
        <time>2026-08-27T06:50:39.064Z</time>
      </trkpt>
      <trkpt lat="47.84257" lon="6.91541">
        <ele>1115.6</ele>
        <time>2026-08-27T06:50:40.073Z</time>
      </trkpt>
      <trkpt lat="47.84257" lon="6.91541">
        <ele>1115.6</ele>
        <time>2026-08-27T06:50:41.080Z</time>
      </trkpt>
      <trkpt lat="47.84257" lon="6.91541">
        <ele>1115.5</ele>
        <time>2026-08-27T06:50:42.087Z</time>
      </trkpt>
      <trkpt lat="47.84257" lon="6.91541">
        <ele>1115.9</ele>
        <time>2026-08-27T06:50:43.095Z</time>
      </trkpt>
      <trkpt lat="47.84257" lon="6.91541">
        <ele>1115.9</ele>
        <time>2026-08-27T06:50:44.104Z</time>
      </trkpt>
      <trkpt lat="47.84257" lon="6.91541">
        <ele>1115.8</ele>
        <time>2026-08-27T06:50:45.112Z</time>
      </trkpt>
      <trkpt lat="47.84257" lon="6.91541">
        <ele>1115.9</ele>
        <time>2026-08-27T06:50:46.119Z</time>
      </trkpt>
      <trkpt lat="47.84257" lon="6.91541">
        <ele>1115.9</ele>
        <time>2026-08-27T06:50:47.127Z</time>
      </trkpt>
      <trkpt lat="47.84257" lon="6.91541">
        <ele>1116.1</ele>
        <time>2026-08-27T06:50:49.041Z</time>
      </trkpt>
      <trkpt lat="47.84257" lon="6.91541">
        <ele>1115.9</ele>
        <time>2026-08-27T06:50:50.050Z</time>
      </trkpt>
      <trkpt lat="47.84257" lon="6.91541">
        <ele>1115.6</ele>
        <time>2026-08-27T06:50:51.058Z</time>
      </trkpt>
      <trkpt lat="47.84257" lon="6.91541">
        <ele>1115.5</ele>
        <time>2026-08-27T06:50:52.065Z</time>
      </trkpt>
      <trkpt lat="47.84257" lon="6.91541">
        <ele>1115.5</ele>
        <time>2026-08-27T06:50:53.074Z</time>
      </trkpt>
      <trkpt lat="47.84257" lon="6.91541">
        <ele>1115.5</ele>
        <time>2026-08-27T06:50:54.081Z</time>
      </trkpt>
      <trkpt lat="47.84257" lon="6.91541">
        <ele>1115.3</ele>
        <time>2026-08-27T06:50:55.088Z</time>
      </trkpt>
      <trkpt lat="47.84257" lon="6.91541">
        <ele>1115.3</ele>
        <time>2026-08-27T06:50:56.097Z</time>
      </trkpt>
      <trkpt lat="47.84257" lon="6.91541">
        <ele>1115.3</ele>
        <time>2026-08-27T06:50:57.105Z</time>
      </trkpt>
      <trkpt lat="47.84257" lon="6.91541">
        <ele>1115.3</ele>
        <time>2026-08-27T06:50:58.112Z</time>
      </trkpt>
      <trkpt lat="47.84257" lon="6.91541">
        <ele>1115.2</ele>
        <time>2026-08-27T06:51:00.028Z</time>
      </trkpt>
      <trkpt lat="47.84257" lon="6.91541">
        <ele>1115.3</ele>
        <time>2026-08-27T06:51:01.035Z</time>
      </trkpt>
      <trkpt lat="47.84257" lon="6.91541">
        <ele>1115.3</ele>
        <time>2026-08-27T06:51:02.043Z</time>
      </trkpt>
      <trkpt lat="47.84257" lon="6.91541">
        <ele>1115.4</ele>
        <time>2026-08-27T06:51:03.050Z</time>
      </trkpt>
      <trkpt lat="47.84257" lon="6.91541">
        <ele>1115.3</ele>
        <time>2026-08-27T06:51:04.059Z</time>
      </trkpt>
      <trkpt lat="47.84257" lon="6.91541">
        <ele>1115.2</ele>
        <time>2026-08-27T06:51:05.067Z</time>
      </trkpt>
      <trkpt lat="47.84257" lon="6.91541">
        <ele>1115.2</ele>
        <time>2026-08-27T06:51:06.074Z</time>
      </trkpt>
      <trkpt lat="47.84257" lon="6.91541">
        <ele>1115.2</ele>
        <time>2026-08-27T06:51:07.082Z</time>
      </trkpt>
      <trkpt lat="47.84257" lon="6.91541">
        <ele>1115.6</ele>
        <time>2026-08-27T06:51:08.089Z</time>
      </trkpt>
      <trkpt lat="47.84256" lon="6.91541">
        <ele>1115.6</ele>
        <time>2026-08-27T06:51:09.098Z</time>
      </trkpt>
      <trkpt lat="47.84256" lon="6.91541">
        <ele>1115.5</ele>
        <time>2026-08-27T06:51:10.105Z</time>
      </trkpt>
      <trkpt lat="47.84256" lon="6.91541">
        <ele>1115.5</ele>
        <time>2026-08-27T06:51:11.113Z</time>
      </trkpt>
      <trkpt lat="47.84256" lon="6.91541">
        <ele>1115.7</ele>
        <time>2026-08-27T06:51:12.121Z</time>
      </trkpt>
      <trkpt lat="47.84256" lon="6.91541">
        <ele>1115.7</ele>
        <time>2026-08-27T06:51:14.036Z</time>
      </trkpt>
      <trkpt lat="47.84256" lon="6.91541">
        <ele>1115.7</ele>
        <time>2026-08-27T06:51:15.044Z</time>
      </trkpt>
      <trkpt lat="47.84256" lon="6.91541">
        <ele>1115.7</ele>
        <time>2026-08-27T06:51:16.052Z</time>
      </trkpt>
      <trkpt lat="47.84256" lon="6.91541">
        <ele>1115.6</ele>
        <time>2026-08-27T06:51:17.060Z</time>
      </trkpt>
      <trkpt lat="47.84256" lon="6.91541">
        <ele>1115.9</ele>
        <time>2026-08-27T06:51:18.068Z</time>
      </trkpt>
      <trkpt lat="47.84256" lon="6.91541">
        <ele>1115.7</ele>
        <time>2026-08-27T06:51:19.075Z</time>
      </trkpt>
      <trkpt lat="47.84256" lon="6.91541">
        <ele>1115.7</ele>
        <time>2026-08-27T06:51:20.084Z</time>
      </trkpt>
      <trkpt lat="47.84256" lon="6.91541">
        <ele>1115.5</ele>
        <time>2026-08-27T06:51:21.090Z</time>
      </trkpt>
      <trkpt lat="47.84256" lon="6.91541">
        <ele>1115.6</ele>
        <time>2026-08-27T06:51:22.098Z</time>
      </trkpt>
      <trkpt lat="47.84256" lon="6.91541">
        <ele>1115.5</ele>
        <time>2026-08-27T06:51:23.107Z</time>
      </trkpt>
      <trkpt lat="47.84256" lon="6.91541">
        <ele>1115.6</ele>
        <time>2026-08-27T06:51:24.115Z</time>
      </trkpt>
      <trkpt lat="47.84256" lon="6.91541">
        <ele>1115.8</ele>
        <time>2026-08-27T06:51:25.122Z</time>
      </trkpt>
      <trkpt lat="47.84256" lon="6.91541">
        <ele>1115.7</ele>
        <time>2026-08-27T06:51:27.037Z</time>
      </trkpt>
      <trkpt lat="47.84256" lon="6.91541">
        <ele>1115.7</ele>
        <time>2026-08-27T06:51:28.046Z</time>
      </trkpt>
      <trkpt lat="47.84256" lon="6.91541">
        <ele>1115.7</ele>
        <time>2026-08-27T06:51:29.052Z</time>
      </trkpt>
      <trkpt lat="47.84256" lon="6.91541">
        <ele>1115.7</ele>
        <time>2026-08-27T06:51:30.060Z</time>
      </trkpt>
      <trkpt lat="47.84256" lon="6.91541">
        <ele>1115.8</ele>
        <time>2026-08-27T06:51:31.068Z</time>
      </trkpt>
      <trkpt lat="47.84256" lon="6.91541">
        <ele>1115.8</ele>
        <time>2026-08-27T06:51:32.076Z</time>
      </trkpt>
      <trkpt lat="47.84256" lon="6.91541">
        <ele>1115.7</ele>
        <time>2026-08-27T06:51:33.085Z</time>
      </trkpt>
      <trkpt lat="47.84256" lon="6.91541">
        <ele>1115.6</ele>
        <time>2026-08-27T06:51:34.092Z</time>
      </trkpt>
      <trkpt lat="47.84256" lon="6.91541">
        <ele>1115.6</ele>
        <time>2026-08-27T06:51:35.099Z</time>
      </trkpt>
      <trkpt lat="47.84256" lon="6.91541">
        <ele>1115.6</ele>
        <time>2026-08-27T06:51:36.107Z</time>
      </trkpt>
      <trkpt lat="47.84256" lon="6.91541">
        <ele>1115.8</ele>
        <time>2026-08-27T06:51:37.115Z</time>
      </trkpt>
      <trkpt lat="47.84256" lon="6.91541">
        <ele>1115.8</ele>
        <time>2026-08-27T06:51:38.123Z</time>
      </trkpt>
      <trkpt lat="47.84256" lon="6.91541">
        <ele>1115.6</ele>
        <time>2026-08-27T06:51:40.039Z</time>
      </trkpt>
      <trkpt lat="47.84256" lon="6.91541">
        <ele>1115.7</ele>
        <time>2026-08-27T06:51:41.046Z</time>
      </trkpt>
      <trkpt lat="47.84256" lon="6.91541">
        <ele>1115.6</ele>
        <time>2026-08-27T06:51:42.053Z</time>
      </trkpt>
      <trkpt lat="47.84256" lon="6.91541">
        <ele>1115.6</ele>
        <time>2026-08-27T06:51:43.061Z</time>
      </trkpt>
      <trkpt lat="47.84256" lon="6.91541">
        <ele>1115.6</ele>
        <time>2026-08-27T06:51:44.070Z</time>
      </trkpt>
      <trkpt lat="47.84256" lon="6.91541">
        <ele>1115.6</ele>
        <time>2026-08-27T06:51:45.077Z</time>
      </trkpt>
      <trkpt lat="47.84256" lon="6.91541">
        <ele>1115.4</ele>
        <time>2026-08-27T06:51:46.085Z</time>
      </trkpt>
      <trkpt lat="47.84256" lon="6.91541">
        <ele>1115.6</ele>
        <time>2026-08-27T06:51:47.094Z</time>
      </trkpt>
      <trkpt lat="47.84256" lon="6.91541">
        <ele>1115.6</ele>
        <time>2026-08-27T06:51:48.100Z</time>
      </trkpt>
      <trkpt lat="47.84256" lon="6.91541">
        <ele>1115.4</ele>
        <time>2026-08-27T06:51:49.108Z</time>
      </trkpt>
      <trkpt lat="47.84256" lon="6.91541">
        <ele>1115.3</ele>
        <time>2026-08-27T06:51:50.117Z</time>
      </trkpt>
      <trkpt lat="47.84257" lon="6.91541">
        <ele>1115.3</ele>
        <time>2026-08-27T06:51:52.031Z</time>
      </trkpt>
      <trkpt lat="47.84257" lon="6.91541">
        <ele>1115.4</ele>
        <time>2026-08-27T06:51:53.040Z</time>
      </trkpt>
      <trkpt lat="47.84257" lon="6.91541">
        <ele>1115.3</ele>
        <time>2026-08-27T06:51:54.047Z</time>
      </trkpt>
      <trkpt lat="47.84257" lon="6.91541">
        <ele>1115.3</ele>
        <time>2026-08-27T06:51:55.055Z</time>
      </trkpt>
      <trkpt lat="47.84257" lon="6.91541">
        <ele>1115.2</ele>
        <time>2026-08-27T06:51:56.063Z</time>
      </trkpt>
      <trkpt lat="47.84257" lon="6.91541">
        <ele>1115.1</ele>
        <time>2026-08-27T06:51:57.071Z</time>
      </trkpt>
      <trkpt lat="47.84257" lon="6.91541">
        <ele>1115.1</ele>
        <time>2026-08-27T06:51:58.078Z</time>
      </trkpt>
      <trkpt lat="47.84257" lon="6.91541">
        <ele>1115.1</ele>
        <time>2026-08-27T06:51:59.086Z</time>
      </trkpt>
      <trkpt lat="47.84257" lon="6.91541">
        <ele>1115.1</ele>
        <time>2026-08-27T06:52:00.095Z</time>
      </trkpt>
      <trkpt lat="47.84257" lon="6.91541">
        <ele>1115.1</ele>
        <time>2026-08-27T06:52:01.102Z</time>
      </trkpt>
      <trkpt lat="47.84256" lon="6.91541">
        <ele>1115.1</ele>
        <time>2026-08-27T06:52:02.109Z</time>
      </trkpt>
      <trkpt lat="47.84256" lon="6.91541">
        <ele>1115</ele>
        <time>2026-08-27T06:52:03.117Z</time>
      </trkpt>
      <trkpt lat="47.84256" lon="6.91541">
        <ele>1114.9</ele>
        <time>2026-08-27T06:52:04.125Z</time>
      </trkpt>
      <trkpt lat="47.84257" lon="6.91541">
        <ele>1115.1</ele>
        <time>2026-08-27T06:52:06.041Z</time>
      </trkpt>
      <trkpt lat="47.84257" lon="6.91541">
        <ele>1115.1</ele>
        <time>2026-08-27T06:52:07.048Z</time>
      </trkpt>
      <trkpt lat="47.84257" lon="6.91541">
        <ele>1115.3</ele>
        <time>2026-08-27T06:52:08.056Z</time>
      </trkpt>
      <trkpt lat="47.84257" lon="6.91541">
        <ele>1115.1</ele>
        <time>2026-08-27T06:52:09.063Z</time>
      </trkpt>
      <trkpt lat="47.84257" lon="6.91541">
        <ele>1115.3</ele>
        <time>2026-08-27T06:52:10.072Z</time>
      </trkpt>
      <trkpt lat="47.84257" lon="6.91541">
        <ele>1115.3</ele>
        <time>2026-08-27T06:52:11.079Z</time>
      </trkpt>
      <trkpt lat="47.84257" lon="6.91541">
        <ele>1115.5</ele>
        <time>2026-08-27T06:52:12.087Z</time>
      </trkpt>
      <trkpt lat="47.84257" lon="6.9154">
        <ele>1115.6</ele>
        <time>2026-08-27T06:52:13.095Z</time>
      </trkpt>
      <trkpt lat="47.84257" lon="6.9154">
        <ele>1115.7</ele>
        <time>2026-08-27T06:52:14.103Z</time>
      </trkpt>
      <trkpt lat="47.84257" lon="6.9154">
        <ele>1115.6</ele>
        <time>2026-08-27T06:52:15.111Z</time>
      </trkpt>
      <trkpt lat="47.84256" lon="6.9154">
        <ele>1115.9</ele>
        <time>2026-08-27T06:52:16.119Z</time>
      </trkpt>
      <trkpt lat="47.84256" lon="6.9154">
        <ele>1116.1</ele>
        <time>2026-08-27T06:52:17.126Z</time>
      </trkpt>
      <trkpt lat="47.84256" lon="6.9154">
        <ele>1115.9</ele>
        <time>2026-08-27T06:52:19.041Z</time>
      </trkpt>
      <trkpt lat="47.84256" lon="6.9154">
        <ele>1116</ele>
        <time>2026-08-27T06:52:20.049Z</time>
      </trkpt>
      <trkpt lat="47.84256" lon="6.9154">
        <ele>1116</ele>
        <time>2026-08-27T06:52:21.057Z</time>
      </trkpt>
      <trkpt lat="47.84256" lon="6.9154">
        <ele>1116</ele>
        <time>2026-08-27T06:52:22.064Z</time>
      </trkpt>
      <trkpt lat="47.84256" lon="6.91541">
        <ele>1115.9</ele>
        <time>2026-08-27T06:52:23.073Z</time>
      </trkpt>
      <trkpt lat="47.84256" lon="6.91541">
        <ele>1115.8</ele>
        <time>2026-08-27T06:52:24.081Z</time>
      </trkpt>
      <trkpt lat="47.84256" lon="6.91541">
        <ele>1115.7</ele>
        <time>2026-08-27T06:52:25.088Z</time>
      </trkpt>
      <trkpt lat="47.84256" lon="6.91541">
        <ele>1115.7</ele>
        <time>2026-08-27T06:52:26.097Z</time>
      </trkpt>
      <trkpt lat="47.84256" lon="6.91541">
        <ele>1115.7</ele>
        <time>2026-08-27T06:52:27.104Z</time>
      </trkpt>
      <trkpt lat="47.84256" lon="6.91541">
        <ele>1115.6</ele>
        <time>2026-08-27T06:52:28.112Z</time>
      </trkpt>
      <trkpt lat="47.84256" lon="6.91541">
        <ele>1115.7</ele>
        <time>2026-08-27T06:52:29.120Z</time>
      </trkpt>
      <trkpt lat="47.84256" lon="6.91541">
        <ele>1115.8</ele>
        <time>2026-08-27T06:52:30.127Z</time>
      </trkpt>
      <trkpt lat="47.84256" lon="6.91541">
        <ele>1115.4</ele>
        <time>2026-08-27T06:52:32.042Z</time>
      </trkpt>
      <trkpt lat="47.84256" lon="6.91541">
        <ele>1115.3</ele>
        <time>2026-08-27T06:52:33.051Z</time>
      </trkpt>
      <trkpt lat="47.84256" lon="6.91541">
        <ele>1115.1</ele>
        <time>2026-08-27T06:52:34.058Z</time>
      </trkpt>
      <trkpt lat="47.84257" lon="6.91541">
        <ele>1115.3</ele>
        <time>2026-08-27T06:52:35.066Z</time>
      </trkpt>
      <trkpt lat="47.84257" lon="6.91541">
        <ele>1115.4</ele>
        <time>2026-08-27T06:52:36.073Z</time>
      </trkpt>
      <trkpt lat="47.84257" lon="6.91541">
        <ele>1115.3</ele>
        <time>2026-08-27T06:52:37.081Z</time>
      </trkpt>
      <trkpt lat="47.84257" lon="6.91541">
        <ele>1115.3</ele>
        <time>2026-08-27T06:52:38.090Z</time>
      </trkpt>
      <trkpt lat="47.84257" lon="6.91541">
        <ele>1115.4</ele>
        <time>2026-08-27T06:52:39.098Z</time>
      </trkpt>
      <trkpt lat="47.84257" lon="6.91541">
        <ele>1115.3</ele>
        <time>2026-08-27T06:52:40.105Z</time>
      </trkpt>
      <trkpt lat="47.84257" lon="6.91542">
        <ele>1115.5</ele>
        <time>2026-08-27T06:52:41.113Z</time>
      </trkpt>
      <trkpt lat="47.84257" lon="6.91542">
        <ele>1115.6</ele>
        <time>2026-08-27T06:52:43.028Z</time>
      </trkpt>
      <trkpt lat="47.84257" lon="6.91542">
        <ele>1115.6</ele>
        <time>2026-08-27T06:52:44.036Z</time>
      </trkpt>
      <trkpt lat="47.84257" lon="6.91542">
        <ele>1115.6</ele>
        <time>2026-08-27T06:52:46.153Z</time>
      </trkpt>
      <trkpt lat="47.84257" lon="6.91542">
        <ele>1115.5</ele>
        <time>2026-08-27T06:52:48.067Z</time>
      </trkpt>
      <trkpt lat="47.84257" lon="6.91542">
        <ele>1115.5</ele>
        <time>2026-08-27T06:52:49.100Z</time>
      </trkpt>
      <trkpt lat="47.84256" lon="6.91541">
        <ele>1115.3</ele>
        <time>2026-08-27T06:52:51.090Z</time>
      </trkpt>
      <trkpt lat="47.84256" lon="6.91541">
        <ele>1115.6</ele>
        <time>2026-08-27T06:52:52.098Z</time>
      </trkpt>
      <trkpt lat="47.84256" lon="6.91541">
        <ele>1115.4</ele>
        <time>2026-08-27T06:52:53.107Z</time>
      </trkpt>
      <trkpt lat="47.84256" lon="6.91541">
        <ele>1115.2</ele>
        <time>2026-08-27T06:52:54.114Z</time>
      </trkpt>
      <trkpt lat="47.84256" lon="6.9154">
        <ele>1115</ele>
        <time>2026-08-27T06:52:55.122Z</time>
      </trkpt>
      <trkpt lat="47.84256" lon="6.9154">
        <ele>1115.1</ele>
        <time>2026-08-27T06:52:56.129Z</time>
      </trkpt>
      <trkpt lat="47.84256" lon="6.9154">
        <ele>1114.9</ele>
        <time>2026-08-27T06:52:57.137Z</time>
      </trkpt>
      <trkpt lat="47.84256" lon="6.9154">
        <ele>1115</ele>
        <time>2026-08-27T06:52:59.053Z</time>
      </trkpt>
      <trkpt lat="47.84256" lon="6.9154">
        <ele>1114.9</ele>
        <time>2026-08-27T06:53:00.060Z</time>
      </trkpt>
      <trkpt lat="47.84256" lon="6.9154">
        <ele>1114.8</ele>
        <time>2026-08-27T06:53:01.068Z</time>
      </trkpt>
      <trkpt lat="47.84256" lon="6.9154">
        <ele>1114.8</ele>
        <time>2026-08-27T06:53:02.075Z</time>
      </trkpt>
      <trkpt lat="47.84256" lon="6.9154">
        <ele>1114.7</ele>
        <time>2026-08-27T06:53:03.084Z</time>
      </trkpt>
      <trkpt lat="47.84256" lon="6.9154">
        <ele>1114.7</ele>
        <time>2026-08-27T06:53:04.092Z</time>
      </trkpt>
      <trkpt lat="47.84256" lon="6.91541">
        <ele>1114.9</ele>
        <time>2026-08-27T06:53:05.100Z</time>
      </trkpt>
      <trkpt lat="47.84256" lon="6.91541">
        <ele>1114.7</ele>
        <time>2026-08-27T06:53:06.107Z</time>
      </trkpt>
      <trkpt lat="47.84256" lon="6.91541">
        <ele>1114.8</ele>
        <time>2026-08-27T06:53:07.115Z</time>
      </trkpt>
      <trkpt lat="47.84256" lon="6.91541">
        <ele>1114.8</ele>
        <time>2026-08-27T06:53:09.131Z</time>
      </trkpt>
      <trkpt lat="47.84256" lon="6.91541">
        <ele>1114.7</ele>
        <time>2026-08-27T06:53:11.046Z</time>
      </trkpt>
      <trkpt lat="47.84256" lon="6.91541">
        <ele>1114.8</ele>
        <time>2026-08-27T06:53:12.053Z</time>
      </trkpt>
      <trkpt lat="47.84256" lon="6.91541">
        <ele>1114.6</ele>
        <time>2026-08-27T06:53:13.061Z</time>
      </trkpt>
      <trkpt lat="47.84256" lon="6.91541">
        <ele>1114.7</ele>
        <time>2026-08-27T06:53:14.070Z</time>
      </trkpt>
      <trkpt lat="47.84256" lon="6.91541">
        <ele>1114.7</ele>
        <time>2026-08-27T06:53:15.085Z</time>
      </trkpt>
      <trkpt lat="47.84256" lon="6.9154">
        <ele>1114.8</ele>
        <time>2026-08-27T06:53:17.092Z</time>
      </trkpt>
      <trkpt lat="47.84256" lon="6.9154">
        <ele>1114.8</ele>
        <time>2026-08-27T06:53:18.101Z</time>
      </trkpt>
      <trkpt lat="47.84256" lon="6.9154">
        <ele>1114.8</ele>
        <time>2026-08-27T06:53:19.109Z</time>
      </trkpt>
      <trkpt lat="47.84256" lon="6.9154">
        <ele>1114.8</ele>
        <time>2026-08-27T06:53:20.116Z</time>
      </trkpt>
      <trkpt lat="47.84256" lon="6.9154">
        <ele>1114.8</ele>
        <time>2026-08-27T06:53:21.124Z</time>
      </trkpt>
      <trkpt lat="47.84256" lon="6.9154">
        <ele>1115.1</ele>
        <time>2026-08-27T06:53:23.040Z</time>
      </trkpt>
      <trkpt lat="47.84256" lon="6.91541">
        <ele>1115.1</ele>
        <time>2026-08-27T06:53:24.139Z</time>
      </trkpt>
      <trkpt lat="47.84256" lon="6.91543">
        <ele>1115</ele>
        <time>2026-08-27T06:53:26.062Z</time>
      </trkpt>
      <trkpt lat="47.84256" lon="6.91544">
        <ele>1115</ele>
        <time>2026-08-27T06:53:27.104Z</time>
      </trkpt>
      <trkpt lat="47.84257" lon="6.91545">
        <ele>1115</ele>
        <time>2026-08-27T06:53:29.086Z</time>
      </trkpt>
      <trkpt lat="47.84257" lon="6.91545">
        <ele>1114.8</ele>
        <time>2026-08-27T06:53:30.095Z</time>
      </trkpt>
      <trkpt lat="47.84257" lon="6.91545">
        <ele>1114.7</ele>
        <time>2026-08-27T06:53:31.102Z</time>
      </trkpt>
      <trkpt lat="47.84257" lon="6.91545">
        <ele>1114.5</ele>
        <time>2026-08-27T06:53:32.109Z</time>
      </trkpt>
      <trkpt lat="47.84257" lon="6.91545">
        <ele>1114.6</ele>
        <time>2026-08-27T06:53:33.118Z</time>
      </trkpt>
      <trkpt lat="47.84256" lon="6.91545">
        <ele>1114.7</ele>
        <time>2026-08-27T06:53:34.125Z</time>
      </trkpt>
      <trkpt lat="47.84256" lon="6.91545">
        <ele>1114.7</ele>
        <time>2026-08-27T06:53:35.981Z</time>
      </trkpt>
      <trkpt lat="47.84256" lon="6.91545">
        <ele>1114.7</ele>
        <time>2026-08-27T06:53:37.048Z</time>
      </trkpt>
      <trkpt lat="47.84255" lon="6.91545">
        <ele>1114.6</ele>
        <time>2026-08-27T06:53:38.055Z</time>
      </trkpt>
      <trkpt lat="47.84256" lon="6.91546">
        <ele>1114.8</ele>
        <time>2026-08-27T06:53:39.063Z</time>
      </trkpt>
      <trkpt lat="47.84256" lon="6.91547">
        <ele>1114.8</ele>
        <time>2026-08-27T06:53:40.071Z</time>
      </trkpt>
      <trkpt lat="47.84257" lon="6.91548">
        <ele>1114.8</ele>
        <time>2026-08-27T06:53:41.080Z</time>
      </trkpt>
      <trkpt lat="47.84257" lon="6.91549">
        <ele>1114.8</ele>
        <time>2026-08-27T06:53:42.087Z</time>
      </trkpt>
      <trkpt lat="47.84258" lon="6.91551">
        <ele>1114.8</ele>
        <time>2026-08-27T06:53:44.162Z</time>
      </trkpt>
      <trkpt lat="47.84258" lon="6.91551">
        <ele>1115.3</ele>
        <time>2026-08-27T06:53:46.118Z</time>
      </trkpt>
      <trkpt lat="47.84257" lon="6.91551">
        <ele>1115.4</ele>
        <time>2026-08-27T06:53:47.126Z</time>
      </trkpt>
      <trkpt lat="47.84257" lon="6.91551">
        <ele>1115.6</ele>
        <time>2026-08-27T06:53:48.134Z</time>
      </trkpt>
      <trkpt lat="47.84257" lon="6.91551">
        <ele>1115.5</ele>
        <time>2026-08-27T06:53:49.142Z</time>
      </trkpt>
      <trkpt lat="47.84257" lon="6.91551">
        <ele>1115.4</ele>
        <time>2026-08-27T06:53:51.158Z</time>
      </trkpt>
      <trkpt lat="47.84257" lon="6.91551">
        <ele>1115.5</ele>
        <time>2026-08-27T06:53:53.073Z</time>
      </trkpt>
      <trkpt lat="47.84257" lon="6.91551">
        <ele>1115.6</ele>
        <time>2026-08-27T06:53:54.182Z</time>
      </trkpt>
      <trkpt lat="47.84257" lon="6.91551">
        <ele>1115.4</ele>
        <time>2026-08-27T06:53:56.096Z</time>
      </trkpt>
      <trkpt lat="47.84257" lon="6.91551">
        <ele>1115.5</ele>
        <time>2026-08-27T06:53:57.104Z</time>
      </trkpt>
      <trkpt lat="47.84257" lon="6.91551">
        <ele>1115.4</ele>
        <time>2026-08-27T06:53:58.113Z</time>
      </trkpt>
      <trkpt lat="47.84257" lon="6.91551">
        <ele>1115.5</ele>
        <time>2026-08-27T06:54:00.027Z</time>
      </trkpt>
      <trkpt lat="47.84257" lon="6.91551">
        <ele>1115.6</ele>
        <time>2026-08-27T06:54:01.036Z</time>
      </trkpt>
      <trkpt lat="47.84257" lon="6.91551">
        <ele>1115.7</ele>
        <time>2026-08-27T06:54:02.043Z</time>
      </trkpt>
      <trkpt lat="47.84257" lon="6.91551">
        <ele>1115.8</ele>
        <time>2026-08-27T06:54:03.052Z</time>
      </trkpt>
      <trkpt lat="47.84257" lon="6.91551">
        <ele>1115.8</ele>
        <time>2026-08-27T06:54:04.059Z</time>
      </trkpt>
      <trkpt lat="47.84257" lon="6.91551">
        <ele>1115.9</ele>
        <time>2026-08-27T06:54:05.067Z</time>
      </trkpt>
      <trkpt lat="47.84257" lon="6.91551">
        <ele>1116</ele>
        <time>2026-08-27T06:54:06.075Z</time>
      </trkpt>
      <trkpt lat="47.84257" lon="6.91551">
        <ele>1116.1</ele>
        <time>2026-08-27T06:54:07.084Z</time>
      </trkpt>
      <trkpt lat="47.84257" lon="6.91551">
        <ele>1116.1</ele>
        <time>2026-08-27T06:54:08.091Z</time>
      </trkpt>
      <trkpt lat="47.84257" lon="6.9155">
        <ele>1116.3</ele>
        <time>2026-08-27T06:54:10.007Z</time>
      </trkpt>
      <trkpt lat="47.84257" lon="6.9155">
        <ele>1116.2</ele>
        <time>2026-08-27T06:54:11.014Z</time>
      </trkpt>
      <trkpt lat="47.84257" lon="6.9155">
        <ele>1116.1</ele>
        <time>2026-08-27T06:54:12.022Z</time>
      </trkpt>
      <trkpt lat="47.84257" lon="6.91551">
        <ele>1116.2</ele>
        <time>2026-08-27T06:54:13.029Z</time>
      </trkpt>
      <trkpt lat="47.84257" lon="6.91551">
        <ele>1116.2</ele>
        <time>2026-08-27T06:54:14.037Z</time>
      </trkpt>
      <trkpt lat="47.84257" lon="6.91551">
        <ele>1116.1</ele>
        <time>2026-08-27T06:54:15.046Z</time>
      </trkpt>
      <trkpt lat="47.84257" lon="6.91551">
        <ele>1115.7</ele>
        <time>2026-08-27T06:54:16.053Z</time>
      </trkpt>
      <trkpt lat="47.84257" lon="6.91552">
        <ele>1115.7</ele>
        <time>2026-08-27T06:54:17.071Z</time>
      </trkpt>
      <trkpt lat="47.84257" lon="6.91553">
        <ele>1115.4</ele>
        <time>2026-08-27T06:54:19.078Z</time>
      </trkpt>
      <trkpt lat="47.84257" lon="6.91554">
        <ele>1115.4</ele>
        <time>2026-08-27T06:54:20.086Z</time>
      </trkpt>
      <trkpt lat="47.84257" lon="6.91554">
        <ele>1115.7</ele>
        <time>2026-08-27T06:54:21.093Z</time>
      </trkpt>
      <trkpt lat="47.84257" lon="6.91555">
        <ele>1116.2</ele>
        <time>2026-08-27T06:54:23.009Z</time>
      </trkpt>
      <trkpt lat="47.84257" lon="6.91555">
        <ele>1116.1</ele>
        <time>2026-08-27T06:54:24.016Z</time>
      </trkpt>
      <trkpt lat="47.84257" lon="6.91555">
        <ele>1116.2</ele>
        <time>2026-08-27T06:54:25.024Z</time>
      </trkpt>
      <trkpt lat="47.84257" lon="6.91555">
        <ele>1116.2</ele>
        <time>2026-08-27T06:54:26.032Z</time>
      </trkpt>
      <trkpt lat="47.84257" lon="6.91555">
        <ele>1116.2</ele>
        <time>2026-08-27T06:54:27.041Z</time>
      </trkpt>
      <trkpt lat="47.84257" lon="6.91555">
        <ele>1116.2</ele>
        <time>2026-08-27T06:54:29.057Z</time>
      </trkpt>
      <trkpt lat="47.84257" lon="6.91555">
        <ele>1116.4</ele>
        <time>2026-08-27T06:54:30.065Z</time>
      </trkpt>
      <trkpt lat="47.84257" lon="6.91555">
        <ele>1116.3</ele>
        <time>2026-08-27T06:54:31.073Z</time>
      </trkpt>
      <trkpt lat="47.84257" lon="6.91555">
        <ele>1116.3</ele>
        <time>2026-08-27T06:54:32.081Z</time>
      </trkpt>
      <trkpt lat="47.84257" lon="6.91555">
        <ele>1116.3</ele>
        <time>2026-08-27T06:54:33.089Z</time>
      </trkpt>
      <trkpt lat="47.84257" lon="6.91555">
        <ele>1116.4</ele>
        <time>2026-08-27T06:54:34.097Z</time>
      </trkpt>
      <trkpt lat="47.84257" lon="6.91554">
        <ele>1116.3</ele>
        <time>2026-08-27T06:54:36.013Z</time>
      </trkpt>
      <trkpt lat="47.84257" lon="6.91554">
        <ele>1116.3</ele>
        <time>2026-08-27T06:54:38.028Z</time>
      </trkpt>
      <trkpt lat="47.84257" lon="6.91553">
        <ele>1116.4</ele>
        <time>2026-08-27T06:54:39.037Z</time>
      </trkpt>
      <trkpt lat="47.84257" lon="6.91553">
        <ele>1116.3</ele>
        <time>2026-08-27T06:54:40.045Z</time>
      </trkpt>
      <trkpt lat="47.84258" lon="6.91552">
        <ele>1116.3</ele>
        <time>2026-08-27T06:54:41.053Z</time>
      </trkpt>
      <trkpt lat="47.84258" lon="6.91552">
        <ele>1116.4</ele>
        <time>2026-08-27T06:54:42.060Z</time>
      </trkpt>
      <trkpt lat="47.84258" lon="6.91552">
        <ele>1116.4</ele>
        <time>2026-08-27T06:54:43.069Z</time>
      </trkpt>
      <trkpt lat="47.84258" lon="6.91552">
        <ele>1116.4</ele>
        <time>2026-08-27T06:54:44.078Z</time>
      </trkpt>
      <trkpt lat="47.84257" lon="6.91551">
        <ele>1116.3</ele>
        <time>2026-08-27T06:54:45.085Z</time>
      </trkpt>
      <trkpt lat="47.84257" lon="6.91551">
        <ele>1116.1</ele>
        <time>2026-08-27T06:54:46.094Z</time>
      </trkpt>
      <trkpt lat="47.84257" lon="6.9155">
        <ele>1116</ele>
        <time>2026-08-27T06:54:47.101Z</time>
      </trkpt>
      <trkpt lat="47.84256" lon="6.91551">
        <ele>1115.9</ele>
        <time>2026-08-27T06:54:49.016Z</time>
      </trkpt>
      <trkpt lat="47.84256" lon="6.91551">
        <ele>1115.8</ele>
        <time>2026-08-27T06:54:50.024Z</time>
      </trkpt>
      <trkpt lat="47.84256" lon="6.91551">
        <ele>1115.7</ele>
        <time>2026-08-27T06:54:51.032Z</time>
      </trkpt>
      <trkpt lat="47.84256" lon="6.91551">
        <ele>1115.9</ele>
        <time>2026-08-27T06:54:52.042Z</time>
      </trkpt>
      <trkpt lat="47.84256" lon="6.91551">
        <ele>1116</ele>
        <time>2026-08-27T06:54:53.049Z</time>
      </trkpt>
      <trkpt lat="47.84256" lon="6.91551">
        <ele>1116.1</ele>
        <time>2026-08-27T06:54:54.057Z</time>
      </trkpt>
      <trkpt lat="47.84256" lon="6.91551">
        <ele>1116.1</ele>
        <time>2026-08-27T06:54:56.073Z</time>
      </trkpt>
      <trkpt lat="47.84255" lon="6.91551">
        <ele>1116</ele>
        <time>2026-08-27T06:54:57.081Z</time>
      </trkpt>
      <trkpt lat="47.84255" lon="6.9155">
        <ele>1116.1</ele>
        <time>2026-08-27T06:54:58.090Z</time>
      </trkpt>
      <trkpt lat="47.84254" lon="6.91549">
        <ele>1116.2</ele>
        <time>2026-08-27T06:54:59.098Z</time>
      </trkpt>
      <trkpt lat="47.84254" lon="6.91548">
        <ele>1116.1</ele>
        <time>2026-08-27T06:55:00.105Z</time>
      </trkpt>
      <trkpt lat="47.84254" lon="6.91548">
        <ele>1116.2</ele>
        <time>2026-08-27T06:55:01.114Z</time>
      </trkpt>
      <trkpt lat="47.84253" lon="6.91548">
        <ele>1116.3</ele>
        <time>2026-08-27T06:55:02.122Z</time>
      </trkpt>
      <trkpt lat="47.84253" lon="6.9155">
        <ele>1116.3</ele>
        <time>2026-08-27T06:55:03.131Z</time>
      </trkpt>
      <trkpt lat="47.84253" lon="6.9155">
        <ele>1116.4</ele>
        <time>2026-08-27T06:55:04.138Z</time>
      </trkpt>
      <trkpt lat="47.84252" lon="6.91551">
        <ele>1116.5</ele>
        <time>2026-08-27T06:55:05.147Z</time>
      </trkpt>
      <trkpt lat="47.84252" lon="6.91551">
        <ele>1116.6</ele>
        <time>2026-08-27T06:55:06.155Z</time>
      </trkpt>
      <trkpt lat="47.84252" lon="6.91552">
        <ele>1116.8</ele>
        <time>2026-08-27T06:55:08.070Z</time>
      </trkpt>
      <trkpt lat="47.84252" lon="6.91552">
        <ele>1116.7</ele>
        <time>2026-08-27T06:55:09.077Z</time>
      </trkpt>
      <trkpt lat="47.84252" lon="6.91552">
        <ele>1116.7</ele>
        <time>2026-08-27T06:55:10.086Z</time>
      </trkpt>
      <trkpt lat="47.84253" lon="6.91552">
        <ele>1116.7</ele>
        <time>2026-08-27T06:55:12.102Z</time>
      </trkpt>
      <trkpt lat="47.84253" lon="6.9155">
        <ele>1116.5</ele>
        <time>2026-08-27T06:55:14.017Z</time>
      </trkpt>
      <trkpt lat="47.84254" lon="6.9155">
        <ele>1116.4</ele>
        <time>2026-08-27T06:55:15.026Z</time>
      </trkpt>
      <trkpt lat="47.84254" lon="6.91549">
        <ele>1116.2</ele>
        <time>2026-08-27T06:55:16.033Z</time>
      </trkpt>
      <trkpt lat="47.84255" lon="6.91549">
        <ele>1116.2</ele>
        <time>2026-08-27T06:55:17.042Z</time>
      </trkpt>
      <trkpt lat="47.84255" lon="6.91549">
        <ele>1115.9</ele>
        <time>2026-08-27T06:55:18.050Z</time>
      </trkpt>
      <trkpt lat="47.84255" lon="6.91549">
        <ele>1115.8</ele>
        <time>2026-08-27T06:55:19.058Z</time>
      </trkpt>
      <trkpt lat="47.84255" lon="6.91549">
        <ele>1115.7</ele>
        <time>2026-08-27T06:55:20.066Z</time>
      </trkpt>
      <trkpt lat="47.84255" lon="6.91549">
        <ele>1115.8</ele>
        <time>2026-08-27T06:55:21.074Z</time>
      </trkpt>
      <trkpt lat="47.84255" lon="6.91549">
        <ele>1115.8</ele>
        <time>2026-08-27T06:55:22.082Z</time>
      </trkpt>
      <trkpt lat="47.84255" lon="6.91549">
        <ele>1115.7</ele>
        <time>2026-08-27T06:55:23.091Z</time>
      </trkpt>
      <trkpt lat="47.84255" lon="6.91549">
        <ele>1115.8</ele>
        <time>2026-08-27T06:55:24.099Z</time>
      </trkpt>
      <trkpt lat="47.84255" lon="6.91549">
        <ele>1115.7</ele>
        <time>2026-08-27T06:55:25.107Z</time>
      </trkpt>
      <trkpt lat="47.84255" lon="6.91549">
        <ele>1115.6</ele>
        <time>2026-08-27T06:55:26.115Z</time>
      </trkpt>
      <trkpt lat="47.84255" lon="6.91549">
        <ele>1115.5</ele>
        <time>2026-08-27T06:55:27.124Z</time>
      </trkpt>
      <trkpt lat="47.84255" lon="6.91549">
        <ele>1115.6</ele>
        <time>2026-08-27T06:55:28.132Z</time>
      </trkpt>
      <trkpt lat="47.84255" lon="6.91549">
        <ele>1115.5</ele>
        <time>2026-08-27T06:55:30.047Z</time>
      </trkpt>
      <trkpt lat="47.84255" lon="6.91549">
        <ele>1115.7</ele>
        <time>2026-08-27T06:55:31.055Z</time>
      </trkpt>
      <trkpt lat="47.84255" lon="6.91549">
        <ele>1115.7</ele>
        <time>2026-08-27T06:55:32.063Z</time>
      </trkpt>
      <trkpt lat="47.84255" lon="6.91549">
        <ele>1115.7</ele>
        <time>2026-08-27T06:55:33.071Z</time>
      </trkpt>
      <trkpt lat="47.84255" lon="6.91549">
        <ele>1115.6</ele>
        <time>2026-08-27T06:55:34.080Z</time>
      </trkpt>
      <trkpt lat="47.84255" lon="6.91549">
        <ele>1115.5</ele>
        <time>2026-08-27T06:55:35.087Z</time>
      </trkpt>
      <trkpt lat="47.84255" lon="6.91549">
        <ele>1115.6</ele>
        <time>2026-08-27T06:55:36.095Z</time>
      </trkpt>
      <trkpt lat="47.84255" lon="6.91549">
        <ele>1115.4</ele>
        <time>2026-08-27T06:55:38.112Z</time>
      </trkpt>
      <trkpt lat="47.84255" lon="6.91549">
        <ele>1115.3</ele>
        <time>2026-08-27T06:55:40.027Z</time>
      </trkpt>
      <trkpt lat="47.84255" lon="6.91549">
        <ele>1115.5</ele>
        <time>2026-08-27T06:55:41.136Z</time>
      </trkpt>
      <trkpt lat="47.84255" lon="6.91549">
        <ele>1115.4</ele>
        <time>2026-08-27T06:55:43.051Z</time>
      </trkpt>
      <trkpt lat="47.84255" lon="6.91549">
        <ele>1115.4</ele>
        <time>2026-08-27T06:55:44.059Z</time>
      </trkpt>
      <trkpt lat="47.84255" lon="6.91549">
        <ele>1115.2</ele>
        <time>2026-08-27T06:55:45.067Z</time>
      </trkpt>
      <trkpt lat="47.84255" lon="6.91549">
        <ele>1115.3</ele>
        <time>2026-08-27T06:55:46.076Z</time>
      </trkpt>
      <trkpt lat="47.84255" lon="6.91549">
        <ele>1115.1</ele>
        <time>2026-08-27T06:55:47.083Z</time>
      </trkpt>
      <trkpt lat="47.84255" lon="6.91549">
        <ele>1115</ele>
        <time>2026-08-27T06:55:48.091Z</time>
      </trkpt>
      <trkpt lat="47.84255" lon="6.91549">
        <ele>1114.9</ele>
        <time>2026-08-27T06:55:49.099Z</time>
      </trkpt>
      <trkpt lat="47.84255" lon="6.91549">
        <ele>1115</ele>
        <time>2026-08-27T06:55:50.109Z</time>
      </trkpt>
      <trkpt lat="47.84255" lon="6.91549">
        <ele>1115.1</ele>
        <time>2026-08-27T06:55:51.116Z</time>
      </trkpt>
      <trkpt lat="47.84255" lon="6.91549">
        <ele>1115</ele>
        <time>2026-08-27T06:55:53.031Z</time>
      </trkpt>
      <trkpt lat="47.84255" lon="6.91549">
        <ele>1115</ele>
        <time>2026-08-27T06:55:54.040Z</time>
      </trkpt>
      <trkpt lat="47.84255" lon="6.91549">
        <ele>1115.1</ele>
        <time>2026-08-27T06:55:55.048Z</time>
      </trkpt>
      <trkpt lat="47.84255" lon="6.91549">
        <ele>1115</ele>
        <time>2026-08-27T06:55:56.055Z</time>
      </trkpt>
      <trkpt lat="47.84255" lon="6.91549">
        <ele>1115.2</ele>
        <time>2026-08-27T06:55:57.064Z</time>
      </trkpt>
      <trkpt lat="47.84255" lon="6.91549">
        <ele>1115.2</ele>
        <time>2026-08-27T06:55:58.072Z</time>
      </trkpt>
      <trkpt lat="47.84255" lon="6.91549">
        <ele>1115.2</ele>
        <time>2026-08-27T06:55:59.080Z</time>
      </trkpt>
      <trkpt lat="47.84255" lon="6.91549">
        <ele>1115.4</ele>
        <time>2026-08-27T06:56:00.087Z</time>
      </trkpt>
      <trkpt lat="47.84254" lon="6.91549">
        <ele>1115.5</ele>
        <time>2026-08-27T06:56:01.095Z</time>
      </trkpt>
      <trkpt lat="47.84254" lon="6.91549">
        <ele>1115.5</ele>
        <time>2026-08-27T06:56:02.103Z</time>
      </trkpt>
      <trkpt lat="47.84254" lon="6.91549">
        <ele>1115.5</ele>
        <time>2026-08-27T06:56:03.111Z</time>
      </trkpt>
      <trkpt lat="47.84254" lon="6.91549">
        <ele>1115.4</ele>
        <time>2026-08-27T06:56:04.119Z</time>
      </trkpt>
      <trkpt lat="47.84254" lon="6.91549">
        <ele>1115.5</ele>
        <time>2026-08-27T06:56:06.035Z</time>
      </trkpt>
      <trkpt lat="47.84254" lon="6.91549">
        <ele>1115.3</ele>
        <time>2026-08-27T06:56:07.043Z</time>
      </trkpt>
      <trkpt lat="47.84254" lon="6.91549">
        <ele>1115.3</ele>
        <time>2026-08-27T06:56:08.051Z</time>
      </trkpt>
      <trkpt lat="47.84254" lon="6.91549">
        <ele>1115.2</ele>
        <time>2026-08-27T06:56:09.059Z</time>
      </trkpt>
      <trkpt lat="47.84254" lon="6.91549">
        <ele>1115.4</ele>
        <time>2026-08-27T06:56:10.067Z</time>
      </trkpt>
      <trkpt lat="47.84254" lon="6.91549">
        <ele>1115.4</ele>
        <time>2026-08-27T06:56:11.075Z</time>
      </trkpt>
      <trkpt lat="47.84254" lon="6.91549">
        <ele>1115.3</ele>
        <time>2026-08-27T06:56:12.084Z</time>
      </trkpt>
      <trkpt lat="47.84254" lon="6.91549">
        <ele>1115.2</ele>
        <time>2026-08-27T06:56:13.092Z</time>
      </trkpt>
      <trkpt lat="47.84254" lon="6.91549">
        <ele>1115.1</ele>
        <time>2026-08-27T06:56:14.099Z</time>
      </trkpt>
      <trkpt lat="47.84254" lon="6.91549">
        <ele>1115.1</ele>
        <time>2026-08-27T06:56:15.107Z</time>
      </trkpt>
      <trkpt lat="47.84254" lon="6.9155">
        <ele>1114.9</ele>
        <time>2026-08-27T06:56:16.116Z</time>
      </trkpt>
      <trkpt lat="47.84254" lon="6.9155">
        <ele>1114.8</ele>
        <time>2026-08-27T06:56:17.124Z</time>
      </trkpt>
      <trkpt lat="47.84254" lon="6.9155">
        <ele>1114.8</ele>
        <time>2026-08-27T06:56:19.038Z</time>
      </trkpt>
      <trkpt lat="47.84254" lon="6.9155">
        <ele>1114.9</ele>
        <time>2026-08-27T06:56:20.063Z</time>
      </trkpt>
      <trkpt lat="47.84254" lon="6.9155">
        <ele>1114.7</ele>
        <time>2026-08-27T06:56:21.071Z</time>
      </trkpt>
      <trkpt lat="47.84254" lon="6.9155">
        <ele>1114.8</ele>
        <time>2026-08-27T06:56:22.079Z</time>
      </trkpt>
      <trkpt lat="47.84254" lon="6.9155">
        <ele>1114.8</ele>
        <time>2026-08-27T06:56:23.088Z</time>
      </trkpt>
      <trkpt lat="47.84254" lon="6.9155">
        <ele>1114.8</ele>
        <time>2026-08-27T06:56:24.095Z</time>
      </trkpt>
      <trkpt lat="47.84254" lon="6.9155">
        <ele>1114.8</ele>
        <time>2026-08-27T06:56:25.104Z</time>
      </trkpt>
      <trkpt lat="47.84254" lon="6.9155">
        <ele>1114.8</ele>
        <time>2026-08-27T06:56:26.111Z</time>
      </trkpt>
      <trkpt lat="47.84254" lon="6.9155">
        <ele>1114.7</ele>
        <time>2026-08-27T06:56:28.127Z</time>
      </trkpt>
      <trkpt lat="47.84255" lon="6.9155">
        <ele>1114.9</ele>
        <time>2026-08-27T06:56:30.043Z</time>
      </trkpt>
      <trkpt lat="47.84255" lon="6.9155">
        <ele>1114.9</ele>
        <time>2026-08-27T06:56:31.051Z</time>
      </trkpt>
      <trkpt lat="47.84255" lon="6.9155">
        <ele>1114.8</ele>
        <time>2026-08-27T06:56:32.059Z</time>
      </trkpt>
      <trkpt lat="47.84255" lon="6.9155">
        <ele>1114.7</ele>
        <time>2026-08-27T06:56:33.068Z</time>
      </trkpt>
      <trkpt lat="47.84255" lon="6.9155">
        <ele>1114.8</ele>
        <time>2026-08-27T06:56:34.075Z</time>
      </trkpt>
      <trkpt lat="47.84255" lon="6.9155">
        <ele>1114.7</ele>
        <time>2026-08-27T06:56:35.083Z</time>
      </trkpt>
      <trkpt lat="47.84256" lon="6.9155">
        <ele>1114.5</ele>
        <time>2026-08-27T06:56:36.091Z</time>
      </trkpt>
      <trkpt lat="47.84256" lon="6.9155">
        <ele>1114.5</ele>
        <time>2026-08-27T06:56:37.099Z</time>
      </trkpt>
      <trkpt lat="47.84256" lon="6.9155">
        <ele>1114.4</ele>
        <time>2026-08-27T06:56:38.107Z</time>
      </trkpt>
      <trkpt lat="47.84256" lon="6.9155">
        <ele>1114.5</ele>
        <time>2026-08-27T06:56:39.115Z</time>
      </trkpt>
      <trkpt lat="47.84256" lon="6.9155">
        <ele>1114.6</ele>
        <time>2026-08-27T06:56:40.124Z</time>
      </trkpt>
      <trkpt lat="47.84256" lon="6.9155">
        <ele>1114.4</ele>
        <time>2026-08-27T06:56:41.131Z</time>
      </trkpt>
      <trkpt lat="47.84256" lon="6.9155">
        <ele>1114.2</ele>
        <time>2026-08-27T06:56:43.047Z</time>
      </trkpt>
      <trkpt lat="47.84256" lon="6.9155">
        <ele>1114.3</ele>
        <time>2026-08-27T06:56:44.054Z</time>
      </trkpt>
      <trkpt lat="47.84256" lon="6.9155">
        <ele>1114.1</ele>
        <time>2026-08-27T06:56:45.063Z</time>
      </trkpt>
      <trkpt lat="47.84256" lon="6.9155">
        <ele>1114</ele>
        <time>2026-08-27T06:56:46.070Z</time>
      </trkpt>
      <trkpt lat="47.84256" lon="6.9155">
        <ele>1114</ele>
        <time>2026-08-27T06:56:47.078Z</time>
      </trkpt>
      <trkpt lat="47.84256" lon="6.9155">
        <ele>1114.1</ele>
        <time>2026-08-27T06:56:48.086Z</time>
      </trkpt>
      <trkpt lat="47.84256" lon="6.9155">
        <ele>1114.1</ele>
        <time>2026-08-27T06:56:49.094Z</time>
      </trkpt>
      <trkpt lat="47.84256" lon="6.91549">
        <ele>1114.1</ele>
        <time>2026-08-27T06:56:50.103Z</time>
      </trkpt>
      <trkpt lat="47.84256" lon="6.91549">
        <ele>1114.1</ele>
        <time>2026-08-27T06:56:51.111Z</time>
      </trkpt>
      <trkpt lat="47.84256" lon="6.9155">
        <ele>1114</ele>
        <time>2026-08-27T06:56:52.119Z</time>
      </trkpt>
      <trkpt lat="47.84256" lon="6.9155">
        <ele>1114.1</ele>
        <time>2026-08-27T06:56:53.126Z</time>
      </trkpt>
      <trkpt lat="47.84256" lon="6.9155">
        <ele>1114.3</ele>
        <time>2026-08-27T06:56:55.042Z</time>
      </trkpt>
      <trkpt lat="47.84256" lon="6.9155">
        <ele>1114.3</ele>
        <time>2026-08-27T06:56:56.049Z</time>
      </trkpt>
      <trkpt lat="47.84256" lon="6.9155">
        <ele>1114.4</ele>
        <time>2026-08-27T06:56:57.058Z</time>
      </trkpt>
      <trkpt lat="47.84256" lon="6.9155">
        <ele>1114.5</ele>
        <time>2026-08-27T06:56:58.065Z</time>
      </trkpt>
      <trkpt lat="47.84256" lon="6.9155">
        <ele>1114.6</ele>
        <time>2026-08-27T06:56:59.073Z</time>
      </trkpt>
      <trkpt lat="47.84256" lon="6.9155">
        <ele>1114.6</ele>
        <time>2026-08-27T06:57:00.081Z</time>
      </trkpt>
      <trkpt lat="47.84256" lon="6.9155">
        <ele>1114.6</ele>
        <time>2026-08-27T06:57:01.090Z</time>
      </trkpt>
      <trkpt lat="47.84256" lon="6.9155">
        <ele>1114.3</ele>
        <time>2026-08-27T06:57:02.098Z</time>
      </trkpt>
      <trkpt lat="47.84256" lon="6.9155">
        <ele>1114.7</ele>
        <time>2026-08-27T06:57:03.105Z</time>
      </trkpt>
      <trkpt lat="47.84256" lon="6.9155">
        <ele>1114.5</ele>
        <time>2026-08-27T06:57:04.113Z</time>
      </trkpt>
      <trkpt lat="47.84256" lon="6.9155">
        <ele>1114.5</ele>
        <time>2026-08-27T06:57:05.121Z</time>
      </trkpt>
      <trkpt lat="47.84256" lon="6.9155">
        <ele>1114.4</ele>
        <time>2026-08-27T06:57:07.037Z</time>
      </trkpt>
      <trkpt lat="47.84256" lon="6.9155">
        <ele>1114.6</ele>
        <time>2026-08-27T06:57:08.045Z</time>
      </trkpt>
      <trkpt lat="47.84256" lon="6.9155">
        <ele>1114.8</ele>
        <time>2026-08-27T06:57:09.052Z</time>
      </trkpt>
      <trkpt lat="47.84256" lon="6.9155">
        <ele>1114.7</ele>
        <time>2026-08-27T06:57:10.061Z</time>
      </trkpt>
      <trkpt lat="47.84256" lon="6.9155">
        <ele>1114.6</ele>
        <time>2026-08-27T06:57:11.068Z</time>
      </trkpt>
      <trkpt lat="47.84256" lon="6.9155">
        <ele>1114.5</ele>
        <time>2026-08-27T06:57:12.076Z</time>
      </trkpt>
      <trkpt lat="47.84256" lon="6.91551">
        <ele>1114.5</ele>
        <time>2026-08-27T06:57:13.084Z</time>
      </trkpt>
      <trkpt lat="47.84256" lon="6.91551">
        <ele>1114.3</ele>
        <time>2026-08-27T06:57:14.093Z</time>
      </trkpt>
      <trkpt lat="47.84256" lon="6.91551">
        <ele>1114.3</ele>
        <time>2026-08-27T06:57:15.101Z</time>
      </trkpt>
      <trkpt lat="47.84256" lon="6.91551">
        <ele>1114.3</ele>
        <time>2026-08-27T06:57:16.109Z</time>
      </trkpt>
      <trkpt lat="47.84256" lon="6.91551">
        <ele>1114.2</ele>
        <time>2026-08-27T06:57:17.117Z</time>
      </trkpt>
      <trkpt lat="47.84256" lon="6.91551">
        <ele>1114.1</ele>
        <time>2026-08-27T06:57:18.124Z</time>
      </trkpt>
      <trkpt lat="47.84256" lon="6.91551">
        <ele>1114.1</ele>
        <time>2026-08-27T06:57:20.039Z</time>
      </trkpt>
      <trkpt lat="47.84256" lon="6.91551">
        <ele>1114</ele>
        <time>2026-08-27T06:57:21.047Z</time>
      </trkpt>
      <trkpt lat="47.84256" lon="6.91551">
        <ele>1114</ele>
        <time>2026-08-27T06:57:22.055Z</time>
      </trkpt>
      <trkpt lat="47.84256" lon="6.91551">
        <ele>1114</ele>
        <time>2026-08-27T06:57:23.064Z</time>
      </trkpt>
      <trkpt lat="47.84256" lon="6.91551">
        <ele>1114.2</ele>
        <time>2026-08-27T06:57:24.072Z</time>
      </trkpt>
      <trkpt lat="47.84256" lon="6.91551">
        <ele>1114.2</ele>
        <time>2026-08-27T06:57:25.079Z</time>
      </trkpt>
      <trkpt lat="47.84256" lon="6.91551">
        <ele>1114.3</ele>
        <time>2026-08-27T06:57:26.087Z</time>
      </trkpt>
      <trkpt lat="47.84256" lon="6.91551">
        <ele>1114.4</ele>
        <time>2026-08-27T06:57:27.095Z</time>
      </trkpt>
      <trkpt lat="47.84256" lon="6.91551">
        <ele>1114.6</ele>
        <time>2026-08-27T06:57:28.103Z</time>
      </trkpt>
      <trkpt lat="47.84256" lon="6.91552">
        <ele>1114.7</ele>
        <time>2026-08-27T06:57:29.112Z</time>
      </trkpt>
      <trkpt lat="47.84256" lon="6.91552">
        <ele>1114.6</ele>
        <time>2026-08-27T06:57:30.120Z</time>
      </trkpt>
      <trkpt lat="47.84256" lon="6.91552">
        <ele>1114.5</ele>
        <time>2026-08-27T06:57:31.127Z</time>
      </trkpt>
      <trkpt lat="47.84256" lon="6.91552">
        <ele>1114.8</ele>
        <time>2026-08-27T06:57:32.136Z</time>
      </trkpt>
      <trkpt lat="47.84256" lon="6.91552">
        <ele>1115</ele>
        <time>2026-08-27T06:57:34.051Z</time>
      </trkpt>
      <trkpt lat="47.84256" lon="6.91552">
        <ele>1114.9</ele>
        <time>2026-08-27T06:57:35.059Z</time>
      </trkpt>
      <trkpt lat="47.84256" lon="6.91552">
        <ele>1115</ele>
        <time>2026-08-27T06:57:36.066Z</time>
      </trkpt>
      <trkpt lat="47.84256" lon="6.91552">
        <ele>1115.1</ele>
        <time>2026-08-27T06:57:37.074Z</time>
      </trkpt>
      <trkpt lat="47.84256" lon="6.91552">
        <ele>1115.2</ele>
        <time>2026-08-27T06:57:38.082Z</time>
      </trkpt>
      <trkpt lat="47.84256" lon="6.91552">
        <ele>1115.2</ele>
        <time>2026-08-27T06:57:39.090Z</time>
      </trkpt>
      <trkpt lat="47.84256" lon="6.91552">
        <ele>1114.9</ele>
        <time>2026-08-27T06:57:40.098Z</time>
      </trkpt>
      <trkpt lat="47.84256" lon="6.91552">
        <ele>1114.8</ele>
        <time>2026-08-27T06:57:41.106Z</time>
      </trkpt>
      <trkpt lat="47.84256" lon="6.91552">
        <ele>1114.5</ele>
        <time>2026-08-27T06:57:42.114Z</time>
      </trkpt>
      <trkpt lat="47.84256" lon="6.91552">
        <ele>1114.4</ele>
        <time>2026-08-27T06:57:44.029Z</time>
      </trkpt>
      <trkpt lat="47.84256" lon="6.91552">
        <ele>1114.3</ele>
        <time>2026-08-27T06:57:45.037Z</time>
      </trkpt>
      <trkpt lat="47.84256" lon="6.91552">
        <ele>1114.4</ele>
        <time>2026-08-27T06:57:46.046Z</time>
      </trkpt>
      <trkpt lat="47.84256" lon="6.91552">
        <ele>1114.5</ele>
        <time>2026-08-27T06:57:47.053Z</time>
      </trkpt>
      <trkpt lat="47.84256" lon="6.91552">
        <ele>1114.4</ele>
        <time>2026-08-27T06:57:48.061Z</time>
      </trkpt>
      <trkpt lat="47.84256" lon="6.91552">
        <ele>1114.4</ele>
        <time>2026-08-27T06:57:49.069Z</time>
      </trkpt>
      <trkpt lat="47.84256" lon="6.91551">
        <ele>1114.3</ele>
        <time>2026-08-27T06:57:50.077Z</time>
      </trkpt>
      <trkpt lat="47.84256" lon="6.91551">
        <ele>1114.4</ele>
        <time>2026-08-27T06:57:51.085Z</time>
      </trkpt>
      <trkpt lat="47.84256" lon="6.91551">
        <ele>1114.5</ele>
        <time>2026-08-27T06:57:52.094Z</time>
      </trkpt>
      <trkpt lat="47.84256" lon="6.91551">
        <ele>1114.4</ele>
        <time>2026-08-27T06:57:53.100Z</time>
      </trkpt>
      <trkpt lat="47.84256" lon="6.91551">
        <ele>1114.7</ele>
        <time>2026-08-27T06:57:54.108Z</time>
      </trkpt>
      <trkpt lat="47.84256" lon="6.91551">
        <ele>1114.7</ele>
        <time>2026-08-27T06:57:55.116Z</time>
      </trkpt>
      <trkpt lat="47.84256" lon="6.91551">
        <ele>1114.8</ele>
        <time>2026-08-27T06:57:56.125Z</time>
      </trkpt>
      <trkpt lat="47.84256" lon="6.91551">
        <ele>1115</ele>
        <time>2026-08-27T06:57:57.132Z</time>
      </trkpt>
      <trkpt lat="47.84256" lon="6.91551">
        <ele>1114.9</ele>
        <time>2026-08-27T06:57:59.049Z</time>
      </trkpt>
      <trkpt lat="47.84256" lon="6.91551">
        <ele>1114.7</ele>
        <time>2026-08-27T06:58:00.056Z</time>
      </trkpt>
      <trkpt lat="47.84256" lon="6.91551">
        <ele>1114.8</ele>
        <time>2026-08-27T06:58:01.064Z</time>
      </trkpt>
      <trkpt lat="47.84256" lon="6.91551">
        <ele>1114.9</ele>
        <time>2026-08-27T06:58:02.071Z</time>
      </trkpt>
      <trkpt lat="47.84256" lon="6.91551">
        <ele>1114.9</ele>
        <time>2026-08-27T06:58:03.079Z</time>
      </trkpt>
      <trkpt lat="47.84256" lon="6.91551">
        <ele>1114.9</ele>
        <time>2026-08-27T06:58:04.087Z</time>
      </trkpt>
      <trkpt lat="47.84256" lon="6.91551">
        <ele>1114.9</ele>
        <time>2026-08-27T06:58:05.095Z</time>
      </trkpt>
      <trkpt lat="47.84256" lon="6.91551">
        <ele>1114.8</ele>
        <time>2026-08-27T06:58:06.104Z</time>
      </trkpt>
      <trkpt lat="47.84256" lon="6.91551">
        <ele>1115</ele>
        <time>2026-08-27T06:58:07.111Z</time>
      </trkpt>
      <trkpt lat="47.84256" lon="6.91551">
        <ele>1115.1</ele>
        <time>2026-08-27T06:58:08.120Z</time>
      </trkpt>
      <trkpt lat="47.84256" lon="6.91551">
        <ele>1115.2</ele>
        <time>2026-08-27T06:58:09.127Z</time>
      </trkpt>
      <trkpt lat="47.84256" lon="6.91551">
        <ele>1115.1</ele>
        <time>2026-08-27T06:58:11.043Z</time>
      </trkpt>
      <trkpt lat="47.84256" lon="6.91551">
        <ele>1115</ele>
        <time>2026-08-27T06:58:12.050Z</time>
      </trkpt>
      <trkpt lat="47.84256" lon="6.91551">
        <ele>1114.8</ele>
        <time>2026-08-27T06:58:13.058Z</time>
      </trkpt>
      <trkpt lat="47.84256" lon="6.91551">
        <ele>1114.8</ele>
        <time>2026-08-27T06:58:14.066Z</time>
      </trkpt>
      <trkpt lat="47.84256" lon="6.91551">
        <ele>1115</ele>
        <time>2026-08-27T06:58:15.075Z</time>
      </trkpt>
      <trkpt lat="47.84256" lon="6.91551">
        <ele>1115</ele>
        <time>2026-08-27T06:58:16.082Z</time>
      </trkpt>
      <trkpt lat="47.84256" lon="6.91551">
        <ele>1114.9</ele>
        <time>2026-08-27T06:58:17.090Z</time>
      </trkpt>
      <trkpt lat="47.84256" lon="6.91551">
        <ele>1114.8</ele>
        <time>2026-08-27T06:58:18.098Z</time>
      </trkpt>
      <trkpt lat="47.84256" lon="6.91551">
        <ele>1114.8</ele>
        <time>2026-08-27T06:58:19.106Z</time>
      </trkpt>
      <trkpt lat="47.84256" lon="6.91551">
        <ele>1114.9</ele>
        <time>2026-08-27T06:58:20.114Z</time>
      </trkpt>
      <trkpt lat="47.84256" lon="6.91551">
        <ele>1114.8</ele>
        <time>2026-08-27T06:58:21.122Z</time>
      </trkpt>
      <trkpt lat="47.84256" lon="6.91551">
        <ele>1114.9</ele>
        <time>2026-08-27T06:58:22.130Z</time>
      </trkpt>
      <trkpt lat="47.84256" lon="6.91551">
        <ele>1115</ele>
        <time>2026-08-27T06:58:24.045Z</time>
      </trkpt>
      <trkpt lat="47.84257" lon="6.91551">
        <ele>1115</ele>
        <time>2026-08-27T06:58:25.053Z</time>
      </trkpt>
      <trkpt lat="47.84257" lon="6.91551">
        <ele>1115.3</ele>
        <time>2026-08-27T06:58:26.061Z</time>
      </trkpt>
      <trkpt lat="47.84257" lon="6.91551">
        <ele>1115.4</ele>
        <time>2026-08-27T06:58:27.069Z</time>
      </trkpt>
      <trkpt lat="47.84257" lon="6.91551">
        <ele>1115.3</ele>
        <time>2026-08-27T06:58:28.077Z</time>
      </trkpt>
      <trkpt lat="47.84257" lon="6.91551">
        <ele>1115.3</ele>
        <time>2026-08-27T06:58:29.085Z</time>
      </trkpt>
      <trkpt lat="47.84257" lon="6.91551">
        <ele>1115.4</ele>
        <time>2026-08-27T06:58:30.094Z</time>
      </trkpt>
      <trkpt lat="47.84257" lon="6.91551">
        <ele>1115.3</ele>
        <time>2026-08-27T06:58:31.101Z</time>
      </trkpt>
      <trkpt lat="47.84257" lon="6.91551">
        <ele>1115.1</ele>
        <time>2026-08-27T06:58:32.109Z</time>
      </trkpt>
      <trkpt lat="47.84256" lon="6.91551">
        <ele>1115.2</ele>
        <time>2026-08-27T06:58:33.118Z</time>
      </trkpt>
      <trkpt lat="47.84256" lon="6.91551">
        <ele>1115.2</ele>
        <time>2026-08-27T06:58:34.125Z</time>
      </trkpt>
      <trkpt lat="47.84256" lon="6.91551">
        <ele>1115</ele>
        <time>2026-08-27T06:58:35.134Z</time>
      </trkpt>
      <trkpt lat="47.84256" lon="6.91551">
        <ele>1115.2</ele>
        <time>2026-08-27T06:58:37.048Z</time>
      </trkpt>
      <trkpt lat="47.84256" lon="6.91551">
        <ele>1115.3</ele>
        <time>2026-08-27T06:58:38.056Z</time>
      </trkpt>
      <trkpt lat="47.84256" lon="6.91551">
        <ele>1115.4</ele>
        <time>2026-08-27T06:58:39.064Z</time>
      </trkpt>
      <trkpt lat="47.84256" lon="6.91551">
        <ele>1115.3</ele>
        <time>2026-08-27T06:58:40.072Z</time>
      </trkpt>
      <trkpt lat="47.84256" lon="6.91551">
        <ele>1115</ele>
        <time>2026-08-27T06:58:41.080Z</time>
      </trkpt>
      <trkpt lat="47.84256" lon="6.91551">
        <ele>1115</ele>
        <time>2026-08-27T06:58:42.088Z</time>
      </trkpt>
      <trkpt lat="47.84256" lon="6.91551">
        <ele>1115.1</ele>
        <time>2026-08-27T06:58:43.096Z</time>
      </trkpt>
      <trkpt lat="47.84256" lon="6.91551">
        <ele>1115.3</ele>
        <time>2026-08-27T06:58:44.105Z</time>
      </trkpt>
      <trkpt lat="47.84256" lon="6.91551">
        <ele>1115.2</ele>
        <time>2026-08-27T06:58:46.120Z</time>
      </trkpt>
      <trkpt lat="47.84256" lon="6.91551">
        <ele>1115.3</ele>
        <time>2026-08-27T06:58:48.035Z</time>
      </trkpt>
      <trkpt lat="47.84256" lon="6.91551">
        <ele>1115.4</ele>
        <time>2026-08-27T06:58:49.043Z</time>
      </trkpt>
      <trkpt lat="47.84256" lon="6.91551">
        <ele>1115.4</ele>
        <time>2026-08-27T06:58:50.051Z</time>
      </trkpt>
      <trkpt lat="47.84256" lon="6.91551">
        <ele>1115.4</ele>
        <time>2026-08-27T06:58:51.059Z</time>
      </trkpt>
      <trkpt lat="47.84255" lon="6.91551">
        <ele>1115.5</ele>
        <time>2026-08-27T06:58:52.068Z</time>
      </trkpt>
      <trkpt lat="47.84255" lon="6.91551">
        <ele>1115.4</ele>
        <time>2026-08-27T06:58:53.075Z</time>
      </trkpt>
      <trkpt lat="47.84255" lon="6.91551">
        <ele>1115.4</ele>
        <time>2026-08-27T06:58:54.083Z</time>
      </trkpt>
      <trkpt lat="47.84255" lon="6.91551">
        <ele>1115.3</ele>
        <time>2026-08-27T06:58:55.092Z</time>
      </trkpt>
      <trkpt lat="47.84255" lon="6.91551">
        <ele>1115.3</ele>
        <time>2026-08-27T06:58:56.099Z</time>
      </trkpt>
      <trkpt lat="47.84255" lon="6.91551">
        <ele>1115.4</ele>
        <time>2026-08-27T06:58:57.108Z</time>
      </trkpt>
      <trkpt lat="47.84255" lon="6.91551">
        <ele>1115.5</ele>
        <time>2026-08-27T06:58:58.115Z</time>
      </trkpt>
      <trkpt lat="47.84255" lon="6.91551">
        <ele>1115.5</ele>
        <time>2026-08-27T06:58:59.122Z</time>
      </trkpt>
      <trkpt lat="47.84255" lon="6.91551">
        <ele>1115.3</ele>
        <time>2026-08-27T06:59:01.038Z</time>
      </trkpt>
      <trkpt lat="47.84255" lon="6.91551">
        <ele>1115.3</ele>
        <time>2026-08-27T06:59:02.046Z</time>
      </trkpt>
      <trkpt lat="47.84255" lon="6.91551">
        <ele>1115.1</ele>
        <time>2026-08-27T06:59:03.055Z</time>
      </trkpt>
      <trkpt lat="47.84255" lon="6.91551">
        <ele>1115</ele>
        <time>2026-08-27T06:59:04.062Z</time>
      </trkpt>
      <trkpt lat="47.84255" lon="6.91551">
        <ele>1115.1</ele>
        <time>2026-08-27T06:59:05.069Z</time>
      </trkpt>
      <trkpt lat="47.84255" lon="6.91551">
        <ele>1115.3</ele>
        <time>2026-08-27T06:59:06.077Z</time>
      </trkpt>
      <trkpt lat="47.84255" lon="6.91551">
        <ele>1115.3</ele>
        <time>2026-08-27T06:59:07.086Z</time>
      </trkpt>
      <trkpt lat="47.84255" lon="6.91551">
        <ele>1115.4</ele>
        <time>2026-08-27T06:59:08.093Z</time>
      </trkpt>
      <trkpt lat="47.84255" lon="6.91551">
        <ele>1115</ele>
        <time>2026-08-27T06:59:09.101Z</time>
      </trkpt>
      <trkpt lat="47.84255" lon="6.91551">
        <ele>1115</ele>
        <time>2026-08-27T06:59:10.109Z</time>
      </trkpt>
      <trkpt lat="47.84255" lon="6.91551">
        <ele>1115</ele>
        <time>2026-08-27T06:59:11.118Z</time>
      </trkpt>
      <trkpt lat="47.84255" lon="6.9155">
        <ele>1115.2</ele>
        <time>2026-08-27T06:59:12.125Z</time>
      </trkpt>
      <trkpt lat="47.84255" lon="6.9155">
        <ele>1115.3</ele>
        <time>2026-08-27T06:59:13.133Z</time>
      </trkpt>
      <trkpt lat="47.84255" lon="6.9155">
        <ele>1115.3</ele>
        <time>2026-08-27T06:59:15.048Z</time>
      </trkpt>
      <trkpt lat="47.84255" lon="6.9155">
        <ele>1115.3</ele>
        <time>2026-08-27T06:59:16.056Z</time>
      </trkpt>
      <trkpt lat="47.84255" lon="6.9155">
        <ele>1115.4</ele>
        <time>2026-08-27T06:59:17.064Z</time>
      </trkpt>
      <trkpt lat="47.84256" lon="6.9155">
        <ele>1115.4</ele>
        <time>2026-08-27T06:59:18.072Z</time>
      </trkpt>
      <trkpt lat="47.84256" lon="6.9155">
        <ele>1115.3</ele>
        <time>2026-08-27T06:59:19.080Z</time>
      </trkpt>
      <trkpt lat="47.84256" lon="6.9155">
        <ele>1115.4</ele>
        <time>2026-08-27T06:59:20.088Z</time>
      </trkpt>
      <trkpt lat="47.84256" lon="6.9155">
        <ele>1115.3</ele>
        <time>2026-08-27T06:59:21.097Z</time>
      </trkpt>
      <trkpt lat="47.84256" lon="6.9155">
        <ele>1115.3</ele>
        <time>2026-08-27T06:59:22.104Z</time>
      </trkpt>
      <trkpt lat="47.84256" lon="6.9155">
        <ele>1115.3</ele>
        <time>2026-08-27T06:59:23.113Z</time>
      </trkpt>
      <trkpt lat="47.84256" lon="6.9155">
        <ele>1115.2</ele>
        <time>2026-08-27T06:59:24.121Z</time>
      </trkpt>
      <trkpt lat="47.84256" lon="6.9155">
        <ele>1115.4</ele>
        <time>2026-08-27T06:59:26.036Z</time>
      </trkpt>
      <trkpt lat="47.84256" lon="6.9155">
        <ele>1115.3</ele>
        <time>2026-08-27T06:59:27.043Z</time>
      </trkpt>
      <trkpt lat="47.84256" lon="6.9155">
        <ele>1115.4</ele>
        <time>2026-08-27T06:59:28.052Z</time>
      </trkpt>
      <trkpt lat="47.84256" lon="6.9155">
        <ele>1115.3</ele>
        <time>2026-08-27T06:59:29.060Z</time>
      </trkpt>
      <trkpt lat="47.84256" lon="6.9155">
        <ele>1115.3</ele>
        <time>2026-08-27T06:59:30.068Z</time>
      </trkpt>
      <trkpt lat="47.84256" lon="6.9155">
        <ele>1115.3</ele>
        <time>2026-08-27T06:59:31.076Z</time>
      </trkpt>
      <trkpt lat="47.84256" lon="6.9155">
        <ele>1115.2</ele>
        <time>2026-08-27T06:59:32.083Z</time>
      </trkpt>
      <trkpt lat="47.84256" lon="6.9155">
        <ele>1115</ele>
        <time>2026-08-27T06:59:33.092Z</time>
      </trkpt>
      <trkpt lat="47.84256" lon="6.91551">
        <ele>1115</ele>
        <time>2026-08-27T06:59:34.099Z</time>
      </trkpt>
      <trkpt lat="47.84256" lon="6.91551">
        <ele>1115.2</ele>
        <time>2026-08-27T06:59:35.108Z</time>
      </trkpt>
      <trkpt lat="47.84256" lon="6.91551">
        <ele>1115.3</ele>
        <time>2026-08-27T06:59:36.115Z</time>
      </trkpt>
      <trkpt lat="47.84256" lon="6.91551">
        <ele>1115.4</ele>
        <time>2026-08-27T06:59:37.123Z</time>
      </trkpt>
      <trkpt lat="47.84256" lon="6.91551">
        <ele>1115.1</ele>
        <time>2026-08-27T06:59:38.132Z</time>
      </trkpt>
      <trkpt lat="47.84256" lon="6.91551">
        <ele>1115</ele>
        <time>2026-08-27T06:59:40.046Z</time>
      </trkpt>
      <trkpt lat="47.84256" lon="6.91551">
        <ele>1115</ele>
        <time>2026-08-27T06:59:41.054Z</time>
      </trkpt>
      <trkpt lat="47.84256" lon="6.91551">
        <ele>1115.2</ele>
        <time>2026-08-27T06:59:42.062Z</time>
      </trkpt>
      <trkpt lat="47.84256" lon="6.91551">
        <ele>1115.2</ele>
        <time>2026-08-27T06:59:43.070Z</time>
      </trkpt>
      <trkpt lat="47.84256" lon="6.91551">
        <ele>1115.1</ele>
        <time>2026-08-27T06:59:44.079Z</time>
      </trkpt>
      <trkpt lat="47.84257" lon="6.91551">
        <ele>1115</ele>
        <time>2026-08-27T06:59:45.087Z</time>
      </trkpt>
      <trkpt lat="47.84257" lon="6.91551">
        <ele>1115</ele>
        <time>2026-08-27T06:59:46.094Z</time>
      </trkpt>
      <trkpt lat="47.84257" lon="6.91551">
        <ele>1115</ele>
        <time>2026-08-27T06:59:47.103Z</time>
      </trkpt>
      <trkpt lat="47.84257" lon="6.91551">
        <ele>1114.9</ele>
        <time>2026-08-27T06:59:48.110Z</time>
      </trkpt>
      <trkpt lat="47.84257" lon="6.91551">
        <ele>1114.8</ele>
        <time>2026-08-27T06:59:49.119Z</time>
      </trkpt>
      <trkpt lat="47.84257" lon="6.91552">
        <ele>1114.7</ele>
        <time>2026-08-27T06:59:50.126Z</time>
      </trkpt>
      <trkpt lat="47.84257" lon="6.91552">
        <ele>1114.4</ele>
        <time>2026-08-27T06:59:52.041Z</time>
      </trkpt>
      <trkpt lat="47.84257" lon="6.91552">
        <ele>1114.4</ele>
        <time>2026-08-27T06:59:53.049Z</time>
      </trkpt>
      <trkpt lat="47.84257" lon="6.91552">
        <ele>1114.4</ele>
        <time>2026-08-27T06:59:54.057Z</time>
      </trkpt>
      <trkpt lat="47.84257" lon="6.91552">
        <ele>1114.4</ele>
        <time>2026-08-27T06:59:55.065Z</time>
      </trkpt>
      <trkpt lat="47.84257" lon="6.91552">
        <ele>1114.5</ele>
        <time>2026-08-27T06:59:56.074Z</time>
      </trkpt>
      <trkpt lat="47.84257" lon="6.91552">
        <ele>1114.4</ele>
        <time>2026-08-27T06:59:57.081Z</time>
      </trkpt>
      <trkpt lat="47.84257" lon="6.91552">
        <ele>1114.4</ele>
        <time>2026-08-27T06:59:58.089Z</time>
      </trkpt>
      <trkpt lat="47.84257" lon="6.91552">
        <ele>1114.6</ele>
        <time>2026-08-27T06:59:59.098Z</time>
      </trkpt>
      <trkpt lat="47.84257" lon="6.91552">
        <ele>1114.6</ele>
        <time>2026-08-27T07:00:01.012Z</time>
      </trkpt>
      <trkpt lat="47.84257" lon="6.91552">
        <ele>1114.4</ele>
        <time>2026-08-27T07:00:02.020Z</time>
      </trkpt>
      <trkpt lat="47.84257" lon="6.91552">
        <ele>1114.4</ele>
        <time>2026-08-27T07:00:03.028Z</time>
      </trkpt>
      <trkpt lat="47.84257" lon="6.91552">
        <ele>1114.5</ele>
        <time>2026-08-27T07:00:04.136Z</time>
      </trkpt>
      <trkpt lat="47.84257" lon="6.91552">
        <ele>1114.3</ele>
        <time>2026-08-27T07:00:06.053Z</time>
      </trkpt>
      <trkpt lat="47.84257" lon="6.91552">
        <ele>1114.6</ele>
        <time>2026-08-27T07:00:07.059Z</time>
      </trkpt>
      <trkpt lat="47.84257" lon="6.91552">
        <ele>1114.5</ele>
        <time>2026-08-27T07:00:08.068Z</time>
      </trkpt>
      <trkpt lat="47.84257" lon="6.91552">
        <ele>1114.4</ele>
        <time>2026-08-27T07:00:09.075Z</time>
      </trkpt>
      <trkpt lat="47.84257" lon="6.91552">
        <ele>1114.6</ele>
        <time>2026-08-27T07:00:10.083Z</time>
      </trkpt>
      <trkpt lat="47.84257" lon="6.91552">
        <ele>1114.7</ele>
        <time>2026-08-27T07:00:11.092Z</time>
      </trkpt>
      <trkpt lat="47.84257" lon="6.91552">
        <ele>1114.9</ele>
        <time>2026-08-27T07:00:12.099Z</time>
      </trkpt>
      <trkpt lat="47.84257" lon="6.91552">
        <ele>1114.7</ele>
        <time>2026-08-27T07:00:13.107Z</time>
      </trkpt>
      <trkpt lat="47.84257" lon="6.91552">
        <ele>1114.9</ele>
        <time>2026-08-27T07:00:14.115Z</time>
      </trkpt>
      <trkpt lat="47.84256" lon="6.91552">
        <ele>1115</ele>
        <time>2026-08-27T07:00:15.124Z</time>
      </trkpt>
      <trkpt lat="47.84256" lon="6.91552">
        <ele>1115</ele>
        <time>2026-08-27T07:00:17.038Z</time>
      </trkpt>
      <trkpt lat="47.84256" lon="6.91552">
        <ele>1114.9</ele>
        <time>2026-08-27T07:00:18.046Z</time>
      </trkpt>
      <trkpt lat="47.84256" lon="6.91552">
        <ele>1115</ele>
        <time>2026-08-27T07:00:19.054Z</time>
      </trkpt>
      <trkpt lat="47.84256" lon="6.91552">
        <ele>1115</ele>
        <time>2026-08-27T07:00:20.062Z</time>
      </trkpt>
      <trkpt lat="47.84256" lon="6.91552">
        <ele>1115</ele>
        <time>2026-08-27T07:00:21.070Z</time>
      </trkpt>
      <trkpt lat="47.84256" lon="6.91552">
        <ele>1114.9</ele>
        <time>2026-08-27T07:00:22.079Z</time>
      </trkpt>
      <trkpt lat="47.84256" lon="6.91552">
        <ele>1114.6</ele>
        <time>2026-08-27T07:00:23.087Z</time>
      </trkpt>
      <trkpt lat="47.84256" lon="6.91552">
        <ele>1114.7</ele>
        <time>2026-08-27T07:00:24.095Z</time>
      </trkpt>
      <trkpt lat="47.84256" lon="6.91552">
        <ele>1114.7</ele>
        <time>2026-08-27T07:00:25.102Z</time>
      </trkpt>
      <trkpt lat="47.84256" lon="6.91552">
        <ele>1114.7</ele>
        <time>2026-08-27T07:00:26.111Z</time>
      </trkpt>
      <trkpt lat="47.84256" lon="6.91552">
        <ele>1114.8</ele>
        <time>2026-08-27T07:00:27.118Z</time>
      </trkpt>
      <trkpt lat="47.84256" lon="6.91552">
        <ele>1114.7</ele>
        <time>2026-08-27T07:00:28.126Z</time>
      </trkpt>
      <trkpt lat="47.84256" lon="6.91552">
        <ele>1114.6</ele>
        <time>2026-08-27T07:00:29.134Z</time>
      </trkpt>
      <trkpt lat="47.84256" lon="6.91553">
        <ele>1114.3</ele>
        <time>2026-08-27T07:00:31.049Z</time>
      </trkpt>
      <trkpt lat="47.84257" lon="6.91553">
        <ele>1114.3</ele>
        <time>2026-08-27T07:00:32.057Z</time>
      </trkpt>
      <trkpt lat="47.84258" lon="6.91554">
        <ele>1114.2</ele>
        <time>2026-08-27T07:00:33.065Z</time>
      </trkpt>
      <trkpt lat="47.84259" lon="6.91555">
        <ele>1114.1</ele>
        <time>2026-08-27T07:00:34.073Z</time>
      </trkpt>
      <trkpt lat="47.84261" lon="6.91556">
        <ele>1114.2</ele>
        <time>2026-08-27T07:00:35.081Z</time>
      </trkpt>
      <trkpt lat="47.84262" lon="6.91556">
        <ele>1114.4</ele>
        <time>2026-08-27T07:00:36.089Z</time>
      </trkpt>
      <trkpt lat="47.84263" lon="6.91556">
        <ele>1114.8</ele>
        <time>2026-08-27T07:00:37.098Z</time>
      </trkpt>
      <trkpt lat="47.84264" lon="6.91557">
        <ele>1114.9</ele>
        <time>2026-08-27T07:00:38.105Z</time>
      </trkpt>
      <trkpt lat="47.84264" lon="6.91558">
        <ele>1115.1</ele>
        <time>2026-08-27T07:00:39.114Z</time>
      </trkpt>
      <trkpt lat="47.84264" lon="6.9156">
        <ele>1115.4</ele>
        <time>2026-08-27T07:00:41.129Z</time>
      </trkpt>
      <trkpt lat="47.84265" lon="6.91562">
        <ele>1115.2</ele>
        <time>2026-08-27T07:00:43.044Z</time>
      </trkpt>
      <trkpt lat="47.84267" lon="6.91563">
        <ele>1115.3</ele>
        <time>2026-08-27T07:00:45.060Z</time>
      </trkpt>
      <trkpt lat="47.84268" lon="6.91563">
        <ele>1115.2</ele>
        <time>2026-08-27T07:00:46.069Z</time>
      </trkpt>
      <trkpt lat="47.84269" lon="6.91564">
        <ele>1115</ele>
        <time>2026-08-27T07:00:47.076Z</time>
      </trkpt>
      <trkpt lat="47.8427" lon="6.91563">
        <ele>1115.3</ele>
        <time>2026-08-27T07:00:48.085Z</time>
      </trkpt>
      <trkpt lat="47.84271" lon="6.91564">
        <ele>1115.5</ele>
        <time>2026-08-27T07:00:49.092Z</time>
      </trkpt>
      <trkpt lat="47.84272" lon="6.91564">
        <ele>1115.6</ele>
        <time>2026-08-27T07:00:50.101Z</time>
      </trkpt>
      <trkpt lat="47.84272" lon="6.91565">
        <ele>1115.6</ele>
        <time>2026-08-27T07:00:51.108Z</time>
      </trkpt>
      <trkpt lat="47.84273" lon="6.91566">
        <ele>1116.1</ele>
        <time>2026-08-27T07:00:53.125Z</time>
      </trkpt>
      <trkpt lat="47.84274" lon="6.91567">
        <ele>1116.8</ele>
        <time>2026-08-27T07:00:55.140Z</time>
      </trkpt>
      <trkpt lat="47.84276" lon="6.91566">
        <ele>1117.2</ele>
        <time>2026-08-27T07:00:57.056Z</time>
      </trkpt>
      <trkpt lat="47.84277" lon="6.91565">
        <ele>1117.3</ele>
        <time>2026-08-27T07:00:58.063Z</time>
      </trkpt>
      <trkpt lat="47.84278" lon="6.91564">
        <ele>1117.4</ele>
        <time>2026-08-27T07:00:59.071Z</time>
      </trkpt>
      <trkpt lat="47.84279" lon="6.91563">
        <ele>1117.5</ele>
        <time>2026-08-27T07:01:00.079Z</time>
      </trkpt>
      <trkpt lat="47.8428" lon="6.91563">
        <ele>1117.6</ele>
        <time>2026-08-27T07:01:01.088Z</time>
      </trkpt>
      <trkpt lat="47.84281" lon="6.91562">
        <ele>1117.6</ele>
        <time>2026-08-27T07:01:02.096Z</time>
      </trkpt>
      <trkpt lat="47.84281" lon="6.91562">
        <ele>1117.7</ele>
        <time>2026-08-27T07:01:03.104Z</time>
      </trkpt>
      <trkpt lat="47.84282" lon="6.91562">
        <ele>1117.9</ele>
        <time>2026-08-27T07:01:04.111Z</time>
      </trkpt>
      <trkpt lat="47.84283" lon="6.91562">
        <ele>1118.1</ele>
        <time>2026-08-27T07:01:05.119Z</time>
      </trkpt>
      <trkpt lat="47.84284" lon="6.91561">
        <ele>1118.2</ele>
        <time>2026-08-27T07:01:06.127Z</time>
      </trkpt>
      <trkpt lat="47.84285" lon="6.9156">
        <ele>1118.8</ele>
        <time>2026-08-27T07:01:08.042Z</time>
      </trkpt>
      <trkpt lat="47.84286" lon="6.91559">
        <ele>1119.1</ele>
        <time>2026-08-27T07:01:09.050Z</time>
      </trkpt>
      <trkpt lat="47.84287" lon="6.91559">
        <ele>1119.4</ele>
        <time>2026-08-27T07:01:11.067Z</time>
      </trkpt>
      <trkpt lat="47.84287" lon="6.91559">
        <ele>1119.7</ele>
        <time>2026-08-27T07:01:12.074Z</time>
      </trkpt>
      <trkpt lat="47.84288" lon="6.91559">
        <ele>1120.1</ele>
        <time>2026-08-27T07:01:13.082Z</time>
      </trkpt>
      <trkpt lat="47.84289" lon="6.91559">
        <ele>1120.1</ele>
        <time>2026-08-27T07:01:14.091Z</time>
      </trkpt>
      <trkpt lat="47.84289" lon="6.91558">
        <ele>1120.2</ele>
        <time>2026-08-27T07:01:15.098Z</time>
      </trkpt>
      <trkpt lat="47.8429" lon="6.91558">
        <ele>1120.1</ele>
        <time>2026-08-27T07:01:16.106Z</time>
      </trkpt>
      <trkpt lat="47.84291" lon="6.91558">
        <ele>1120.1</ele>
        <time>2026-08-27T07:01:17.114Z</time>
      </trkpt>
      <trkpt lat="47.84291" lon="6.91558">
        <ele>1120.4</ele>
        <time>2026-08-27T07:01:18.122Z</time>
      </trkpt>
      <trkpt lat="47.84292" lon="6.91557">
        <ele>1120.4</ele>
        <time>2026-08-27T07:01:19.131Z</time>
      </trkpt>
      <trkpt lat="47.84293" lon="6.91557">
        <ele>1120.9</ele>
        <time>2026-08-27T07:01:21.045Z</time>
      </trkpt>
      <trkpt lat="47.84293" lon="6.91557">
        <ele>1121.2</ele>
        <time>2026-08-27T07:01:22.053Z</time>
      </trkpt>
      <trkpt lat="47.84293" lon="6.91557">
        <ele>1121.5</ele>
        <time>2026-08-27T07:01:23.061Z</time>
      </trkpt>
      <trkpt lat="47.84294" lon="6.91558">
        <ele>1121.8</ele>
        <time>2026-08-27T07:01:24.070Z</time>
      </trkpt>
      <trkpt lat="47.84294" lon="6.91558">
        <ele>1122.1</ele>
        <time>2026-08-27T07:01:25.077Z</time>
      </trkpt>
      <trkpt lat="47.84294" lon="6.91559">
        <ele>1122.2</ele>
        <time>2026-08-27T07:01:26.086Z</time>
      </trkpt>
      <trkpt lat="47.84294" lon="6.9156">
        <ele>1122.3</ele>
        <time>2026-08-27T07:01:27.094Z</time>
      </trkpt>
      <trkpt lat="47.84294" lon="6.91562">
        <ele>1122.3</ele>
        <time>2026-08-27T07:01:28.102Z</time>
      </trkpt>
      <trkpt lat="47.84294" lon="6.91564">
        <ele>1122.6</ele>
        <time>2026-08-27T07:01:29.109Z</time>
      </trkpt>
      <trkpt lat="47.84295" lon="6.91567">
        <ele>1122.8</ele>
        <time>2026-08-27T07:01:31.125Z</time>
      </trkpt>
      <trkpt lat="47.84295" lon="6.9157">
        <ele>1122.8</ele>
        <time>2026-08-27T07:01:33.006Z</time>
      </trkpt>
      <trkpt lat="47.84296" lon="6.91571">
        <ele>1123.1</ele>
        <time>2026-08-27T07:01:34.049Z</time>
      </trkpt>
      <trkpt lat="47.84297" lon="6.91572">
        <ele>1123.1</ele>
        <time>2026-08-27T07:01:35.056Z</time>
      </trkpt>
      <trkpt lat="47.84297" lon="6.91574">
        <ele>1123</ele>
        <time>2026-08-27T07:01:36.064Z</time>
      </trkpt>
      <trkpt lat="47.84297" lon="6.91575">
        <ele>1123.3</ele>
        <time>2026-08-27T07:01:37.073Z</time>
      </trkpt>
      <trkpt lat="47.84297" lon="6.91577">
        <ele>1123.3</ele>
        <time>2026-08-27T07:01:38.148Z</time>
      </trkpt>
      <trkpt lat="47.84298" lon="6.9158">
        <ele>1123.3</ele>
        <time>2026-08-27T07:01:40.096Z</time>
      </trkpt>
      <trkpt lat="47.84298" lon="6.91581">
        <ele>1123.4</ele>
        <time>2026-08-27T07:01:41.104Z</time>
      </trkpt>
      <trkpt lat="47.84298" lon="6.91583">
        <ele>1123.5</ele>
        <time>2026-08-27T07:01:42.113Z</time>
      </trkpt>
      <trkpt lat="47.84299" lon="6.91586">
        <ele>1123.5</ele>
        <time>2026-08-27T07:01:44.128Z</time>
      </trkpt>
      <trkpt lat="47.84299" lon="6.91587">
        <ele>1123.6</ele>
        <time>2026-08-27T07:01:45.137Z</time>
      </trkpt>
      <trkpt lat="47.843" lon="6.9159">
        <ele>1123.6</ele>
        <time>2026-08-27T07:01:47.086Z</time>
      </trkpt>
      <trkpt lat="47.84301" lon="6.91592">
        <ele>1123.6</ele>
        <time>2026-08-27T07:01:49.068Z</time>
      </trkpt>
      <trkpt lat="47.84301" lon="6.91594">
        <ele>1123.8</ele>
        <time>2026-08-27T07:01:50.075Z</time>
      </trkpt>
      <trkpt lat="47.84301" lon="6.91596">
        <ele>1124</ele>
        <time>2026-08-27T07:01:51.083Z</time>
      </trkpt>
      <trkpt lat="47.84302" lon="6.91597">
        <ele>1124</ele>
        <time>2026-08-27T07:01:52.084Z</time>
      </trkpt>
      <trkpt lat="47.84302" lon="6.91598">
        <ele>1124.2</ele>
        <time>2026-08-27T07:01:53.099Z</time>
      </trkpt>
      <trkpt lat="47.84303" lon="6.916">
        <ele>1124.1</ele>
        <time>2026-08-27T07:01:54.107Z</time>
      </trkpt>
      <trkpt lat="47.84304" lon="6.91601">
        <ele>1124.1</ele>
        <time>2026-08-27T07:01:55.115Z</time>
      </trkpt>
      <trkpt lat="47.84305" lon="6.91604">
        <ele>1123.9</ele>
        <time>2026-08-27T07:01:57.131Z</time>
      </trkpt>
      <trkpt lat="47.84306" lon="6.91606">
        <ele>1124.1</ele>
        <time>2026-08-27T07:01:59.046Z</time>
      </trkpt>
      <trkpt lat="47.84307" lon="6.91608">
        <ele>1124</ele>
        <time>2026-08-27T07:02:01.062Z</time>
      </trkpt>
      <trkpt lat="47.84308" lon="6.91609">
        <ele>1124</ele>
        <time>2026-08-27T07:02:02.070Z</time>
      </trkpt>
      <trkpt lat="47.84309" lon="6.9161">
        <ele>1124.2</ele>
        <time>2026-08-27T07:02:03.079Z</time>
      </trkpt>
      <trkpt lat="47.84309" lon="6.91611">
        <ele>1124.3</ele>
        <time>2026-08-27T07:02:04.086Z</time>
      </trkpt>
      <trkpt lat="47.8431" lon="6.91612">
        <ele>1124.4</ele>
        <time>2026-08-27T07:02:05.094Z</time>
      </trkpt>
      <trkpt lat="47.8431" lon="6.91613">
        <ele>1124.4</ele>
        <time>2026-08-27T07:02:06.145Z</time>
      </trkpt>
      <trkpt lat="47.84311" lon="6.91616">
        <ele>1124.6</ele>
        <time>2026-08-27T07:02:08.017Z</time>
      </trkpt>
      <trkpt lat="47.84312" lon="6.91617">
        <ele>1124.7</ele>
        <time>2026-08-27T07:02:09.025Z</time>
      </trkpt>
      <trkpt lat="47.84312" lon="6.91618">
        <ele>1124.8</ele>
        <time>2026-08-27T07:02:10.033Z</time>
      </trkpt>
      <trkpt lat="47.84313" lon="6.9162">
        <ele>1124.9</ele>
        <time>2026-08-27T07:02:11.042Z</time>
      </trkpt>
      <trkpt lat="47.84313" lon="6.91621">
        <ele>1124.9</ele>
        <time>2026-08-27T07:02:12.049Z</time>
      </trkpt>
      <trkpt lat="47.84314" lon="6.91622">
        <ele>1124.7</ele>
        <time>2026-08-27T07:02:13.057Z</time>
      </trkpt>
      <trkpt lat="47.84315" lon="6.91624">
        <ele>1124.6</ele>
        <time>2026-08-27T07:02:15.073Z</time>
      </trkpt>
      <trkpt lat="47.84316" lon="6.91625">
        <ele>1124.6</ele>
        <time>2026-08-27T07:02:16.081Z</time>
      </trkpt>
      <trkpt lat="47.84317" lon="6.91626">
        <ele>1124.6</ele>
        <time>2026-08-27T07:02:17.089Z</time>
      </trkpt>
      <trkpt lat="47.84317" lon="6.91627">
        <ele>1124.8</ele>
        <time>2026-08-27T07:02:18.097Z</time>
      </trkpt>
      <trkpt lat="47.84319" lon="6.91628">
        <ele>1124.9</ele>
        <time>2026-08-27T07:02:20.113Z</time>
      </trkpt>
      <trkpt lat="47.8432" lon="6.91629">
        <ele>1125.1</ele>
        <time>2026-08-27T07:02:21.121Z</time>
      </trkpt>
      <trkpt lat="47.8432" lon="6.91631">
        <ele>1125.2</ele>
        <time>2026-08-27T07:02:22.146Z</time>
      </trkpt>
      <trkpt lat="47.84321" lon="6.91632">
        <ele>1125.2</ele>
        <time>2026-08-27T07:02:23.365Z</time>
      </trkpt>
      <trkpt lat="47.84322" lon="6.91634">
        <ele>1125.3</ele>
        <time>2026-08-27T07:02:24.884Z</time>
      </trkpt>
      <trkpt lat="47.84323" lon="6.91636">
        <ele>1125.4</ele>
        <time>2026-08-27T07:02:26.119Z</time>
      </trkpt>
      <trkpt lat="47.84324" lon="6.91638">
        <ele>1125.4</ele>
        <time>2026-08-27T07:02:28.076Z</time>
      </trkpt>
      <trkpt lat="47.84325" lon="6.91638">
        <ele>1125.4</ele>
        <time>2026-08-27T07:02:29.085Z</time>
      </trkpt>
      <trkpt lat="47.84327" lon="6.91641">
        <ele>1125.3</ele>
        <time>2026-08-27T07:02:31.101Z</time>
      </trkpt>
      <trkpt lat="47.84327" lon="6.91642">
        <ele>1125.4</ele>
        <time>2026-08-27T07:02:32.108Z</time>
      </trkpt>
      <trkpt lat="47.84329" lon="6.91644">
        <ele>1125.4</ele>
        <time>2026-08-27T07:02:34.124Z</time>
      </trkpt>
      <trkpt lat="47.8433" lon="6.91647">
        <ele>1125.4</ele>
        <time>2026-08-27T07:02:36.126Z</time>
      </trkpt>
      <trkpt lat="47.84331" lon="6.9165">
        <ele>1125.6</ele>
        <time>2026-08-27T07:02:38.064Z</time>
      </trkpt>
      <trkpt lat="47.84332" lon="6.91652">
        <ele>1125.7</ele>
        <time>2026-08-27T07:02:39.073Z</time>
      </trkpt>
      <trkpt lat="47.84332" lon="6.91653">
        <ele>1125.8</ele>
        <time>2026-08-27T07:02:40.080Z</time>
      </trkpt>
      <trkpt lat="47.84333" lon="6.91655">
        <ele>1125.9</ele>
        <time>2026-08-27T07:02:41.088Z</time>
      </trkpt>
      <trkpt lat="47.84334" lon="6.91656">
        <ele>1125.7</ele>
        <time>2026-08-27T07:02:42.096Z</time>
      </trkpt>
      <trkpt lat="47.84334" lon="6.91657">
        <ele>1125.7</ele>
        <time>2026-08-27T07:02:43.104Z</time>
      </trkpt>
      <trkpt lat="47.84335" lon="6.91658">
        <ele>1125.7</ele>
        <time>2026-08-27T07:02:44.113Z</time>
      </trkpt>
      <trkpt lat="47.84336" lon="6.91658">
        <ele>1125.8</ele>
        <time>2026-08-27T07:02:45.121Z</time>
      </trkpt>
      <trkpt lat="47.84338" lon="6.91659">
        <ele>1126.3</ele>
        <time>2026-08-27T07:02:47.035Z</time>
      </trkpt>
      <trkpt lat="47.84339" lon="6.9166">
        <ele>1126.3</ele>
        <time>2026-08-27T07:02:48.120Z</time>
      </trkpt>
      <trkpt lat="47.8434" lon="6.9166">
        <ele>1127</ele>
        <time>2026-08-27T07:02:50.059Z</time>
      </trkpt>
      <trkpt lat="47.84341" lon="6.9166">
        <ele>1127.4</ele>
        <time>2026-08-27T07:02:51.067Z</time>
      </trkpt>
      <trkpt lat="47.84341" lon="6.9166">
        <ele>1127.5</ele>
        <time>2026-08-27T07:02:52.075Z</time>
      </trkpt>
      <trkpt lat="47.84341" lon="6.9166">
        <ele>1127.5</ele>
        <time>2026-08-27T07:02:53.117Z</time>
      </trkpt>
      <trkpt lat="47.84341" lon="6.9166">
        <ele>1127.1</ele>
        <time>2026-08-27T07:02:55.100Z</time>
      </trkpt>
      <trkpt lat="47.84341" lon="6.9166">
        <ele>1127.2</ele>
        <time>2026-08-27T07:02:56.107Z</time>
      </trkpt>
      <trkpt lat="47.84341" lon="6.9166">
        <ele>1127.2</ele>
        <time>2026-08-27T07:02:57.115Z</time>
      </trkpt>
      <trkpt lat="47.84341" lon="6.91661">
        <ele>1127.2</ele>
        <time>2026-08-27T07:02:59.036Z</time>
      </trkpt>
      <trkpt lat="47.84341" lon="6.91661">
        <ele>1127.3</ele>
        <time>2026-08-27T07:03:00.043Z</time>
      </trkpt>
      <trkpt lat="47.84341" lon="6.91661">
        <ele>1127.4</ele>
        <time>2026-08-27T07:03:01.052Z</time>
      </trkpt>
      <trkpt lat="47.84341" lon="6.91661">
        <ele>1127.6</ele>
        <time>2026-08-27T07:03:02.060Z</time>
      </trkpt>
      <trkpt lat="47.84341" lon="6.91661">
        <ele>1127.7</ele>
        <time>2026-08-27T07:03:03.067Z</time>
      </trkpt>
      <trkpt lat="47.84341" lon="6.91662">
        <ele>1127.6</ele>
        <time>2026-08-27T07:03:04.075Z</time>
      </trkpt>
      <trkpt lat="47.84341" lon="6.91662">
        <ele>1127.7</ele>
        <time>2026-08-27T07:03:05.087Z</time>
      </trkpt>
      <trkpt lat="47.8434" lon="6.91662">
        <ele>1127.7</ele>
        <time>2026-08-27T07:03:06.096Z</time>
      </trkpt>
      <trkpt lat="47.8434" lon="6.91662">
        <ele>1128</ele>
        <time>2026-08-27T07:03:07.943Z</time>
      </trkpt>
      <trkpt lat="47.8434" lon="6.91662">
        <ele>1128.1</ele>
        <time>2026-08-27T07:03:09.018Z</time>
      </trkpt>
      <trkpt lat="47.8434" lon="6.91662">
        <ele>1127.9</ele>
        <time>2026-08-27T07:03:10.026Z</time>
      </trkpt>
      <trkpt lat="47.8434" lon="6.91662">
        <ele>1127.7</ele>
        <time>2026-08-27T07:03:11.035Z</time>
      </trkpt>
      <trkpt lat="47.8434" lon="6.91663">
        <ele>1127.6</ele>
        <time>2026-08-27T07:03:12.043Z</time>
      </trkpt>
      <trkpt lat="47.8434" lon="6.91663">
        <ele>1127.6</ele>
        <time>2026-08-27T07:03:13.050Z</time>
      </trkpt>
      <trkpt lat="47.8434" lon="6.91663">
        <ele>1127.4</ele>
        <time>2026-08-27T07:03:14.058Z</time>
      </trkpt>
      <trkpt lat="47.8434" lon="6.91663">
        <ele>1127.5</ele>
        <time>2026-08-27T07:03:15.066Z</time>
      </trkpt>
      <trkpt lat="47.8434" lon="6.91663">
        <ele>1127.6</ele>
        <time>2026-08-27T07:03:16.075Z</time>
      </trkpt>
      <trkpt lat="47.8434" lon="6.91663">
        <ele>1127.7</ele>
        <time>2026-08-27T07:03:17.083Z</time>
      </trkpt>
      <trkpt lat="47.8434" lon="6.91663">
        <ele>1127.7</ele>
        <time>2026-08-27T07:03:18.091Z</time>
      </trkpt>
      <trkpt lat="47.8434" lon="6.91663">
        <ele>1127.7</ele>
        <time>2026-08-27T07:03:19.099Z</time>
      </trkpt>
      <trkpt lat="47.8434" lon="6.91663">
        <ele>1127.9</ele>
        <time>2026-08-27T07:03:21.014Z</time>
      </trkpt>
      <trkpt lat="47.8434" lon="6.91663">
        <ele>1128</ele>
        <time>2026-08-27T07:03:22.023Z</time>
      </trkpt>
      <trkpt lat="47.8434" lon="6.91663">
        <ele>1127.9</ele>
        <time>2026-08-27T07:03:23.030Z</time>
      </trkpt>
      <trkpt lat="47.8434" lon="6.91663">
        <ele>1127.7</ele>
        <time>2026-08-27T07:03:24.039Z</time>
      </trkpt>
      <trkpt lat="47.8434" lon="6.91663">
        <ele>1127.6</ele>
        <time>2026-08-27T07:03:25.047Z</time>
      </trkpt>
      <trkpt lat="47.8434" lon="6.91663">
        <ele>1127.8</ele>
        <time>2026-08-27T07:03:26.054Z</time>
      </trkpt>
      <trkpt lat="47.8434" lon="6.91663">
        <ele>1127.8</ele>
        <time>2026-08-27T07:03:27.062Z</time>
      </trkpt>
      <trkpt lat="47.8434" lon="6.91663">
        <ele>1127.8</ele>
        <time>2026-08-27T07:03:28.072Z</time>
      </trkpt>
      <trkpt lat="47.8434" lon="6.91663">
        <ele>1127.6</ele>
        <time>2026-08-27T07:03:29.079Z</time>
      </trkpt>
      <trkpt lat="47.8434" lon="6.91663">
        <ele>1127.8</ele>
        <time>2026-08-27T07:03:30.087Z</time>
      </trkpt>
      <trkpt lat="47.8434" lon="6.91663">
        <ele>1127.8</ele>
        <time>2026-08-27T07:03:31.095Z</time>
      </trkpt>
      <trkpt lat="47.8434" lon="6.91663">
        <ele>1127.6</ele>
        <time>2026-08-27T07:03:33.011Z</time>
      </trkpt>
      <trkpt lat="47.8434" lon="6.91663">
        <ele>1127.7</ele>
        <time>2026-08-27T07:03:34.019Z</time>
      </trkpt>
      <trkpt lat="47.8434" lon="6.91663">
        <ele>1127.7</ele>
        <time>2026-08-27T07:03:35.026Z</time>
      </trkpt>
      <trkpt lat="47.8434" lon="6.91664">
        <ele>1128</ele>
        <time>2026-08-27T07:03:36.035Z</time>
      </trkpt>
      <trkpt lat="47.8434" lon="6.91664">
        <ele>1128.2</ele>
        <time>2026-08-27T07:03:37.043Z</time>
      </trkpt>
      <trkpt lat="47.8434" lon="6.91664">
        <ele>1128.2</ele>
        <time>2026-08-27T07:03:38.051Z</time>
      </trkpt>
      <trkpt lat="47.8434" lon="6.91664">
        <ele>1128.2</ele>
        <time>2026-08-27T07:03:39.060Z</time>
      </trkpt>
      <trkpt lat="47.8434" lon="6.91664">
        <ele>1128.3</ele>
        <time>2026-08-27T07:03:40.067Z</time>
      </trkpt>
      <trkpt lat="47.84341" lon="6.91665">
        <ele>1128.4</ele>
        <time>2026-08-27T07:03:41.075Z</time>
      </trkpt>
      <trkpt lat="47.84341" lon="6.91665">
        <ele>1128.4</ele>
        <time>2026-08-27T07:03:42.084Z</time>
      </trkpt>
      <trkpt lat="47.84341" lon="6.91665">
        <ele>1128.3</ele>
        <time>2026-08-27T07:03:43.092Z</time>
      </trkpt>
      <trkpt lat="47.84341" lon="6.91665">
        <ele>1128.3</ele>
        <time>2026-08-27T07:03:44.100Z</time>
      </trkpt>
      <trkpt lat="47.84341" lon="6.91665">
        <ele>1128.3</ele>
        <time>2026-08-27T07:03:45.107Z</time>
      </trkpt>
      <trkpt lat="47.84341" lon="6.91665">
        <ele>1128.3</ele>
        <time>2026-08-27T07:03:47.125Z</time>
      </trkpt>
      <trkpt lat="47.84342" lon="6.91667">
        <ele>1128.2</ele>
        <time>2026-08-27T07:03:49.040Z</time>
      </trkpt>
      <trkpt lat="47.84342" lon="6.9167">
        <ele>1127.8</ele>
        <time>2026-08-27T07:03:50.048Z</time>
      </trkpt>
      <trkpt lat="47.84343" lon="6.91672">
        <ele>1127.7</ele>
        <time>2026-08-27T07:03:51.056Z</time>
      </trkpt>
      <trkpt lat="47.84345" lon="6.91673">
        <ele>1127.5</ele>
        <time>2026-08-27T07:03:52.064Z</time>
      </trkpt>
      <trkpt lat="47.84346" lon="6.91674">
        <ele>1127.4</ele>
        <time>2026-08-27T07:03:54.122Z</time>
      </trkpt>
      <trkpt lat="47.84347" lon="6.91676">
        <ele>1127.3</ele>
        <time>2026-08-27T07:03:56.097Z</time>
      </trkpt>
      <trkpt lat="47.84348" lon="6.91678">
        <ele>1127.1</ele>
        <time>2026-08-27T07:03:57.105Z</time>
      </trkpt>
      <trkpt lat="47.84348" lon="6.9168">
        <ele>1126.9</ele>
        <time>2026-08-27T07:03:58.112Z</time>
      </trkpt>
      <trkpt lat="47.84348" lon="6.91682">
        <ele>1127.1</ele>
        <time>2026-08-27T07:03:59.120Z</time>
      </trkpt>
      <trkpt lat="47.84349" lon="6.91685">
        <ele>1127.3</ele>
        <time>2026-08-27T07:04:01.136Z</time>
      </trkpt>
      <trkpt lat="47.84351" lon="6.91687">
        <ele>1127.5</ele>
        <time>2026-08-27T07:04:03.052Z</time>
      </trkpt>
      <trkpt lat="47.84352" lon="6.91688">
        <ele>1127.4</ele>
        <time>2026-08-27T07:04:04.060Z</time>
      </trkpt>
      <trkpt lat="47.84353" lon="6.91688">
        <ele>1127.5</ele>
        <time>2026-08-27T07:04:05.068Z</time>
      </trkpt>
      <trkpt lat="47.84354" lon="6.91689">
        <ele>1127.5</ele>
        <time>2026-08-27T07:04:06.084Z</time>
      </trkpt>
      <trkpt lat="47.84356" lon="6.91691">
        <ele>1127.5</ele>
        <time>2026-08-27T07:04:08.092Z</time>
      </trkpt>
      <trkpt lat="47.84356" lon="6.91692">
        <ele>1127.5</ele>
        <time>2026-08-27T07:04:09.101Z</time>
      </trkpt>
      <trkpt lat="47.84357" lon="6.91693">
        <ele>1127.6</ele>
        <time>2026-08-27T07:04:10.125Z</time>
      </trkpt>
      <trkpt lat="47.84358" lon="6.91694">
        <ele>1127.6</ele>
        <time>2026-08-27T07:04:11.133Z</time>
      </trkpt>
      <trkpt lat="47.84359" lon="6.91697">
        <ele>1127.6</ele>
        <time>2026-08-27T07:04:13.048Z</time>
      </trkpt>
      <trkpt lat="47.8436" lon="6.917">
        <ele>1127.9</ele>
        <time>2026-08-27T07:04:15.065Z</time>
      </trkpt>
      <trkpt lat="47.84361" lon="6.91703">
        <ele>1127.7</ele>
        <time>2026-08-27T07:04:17.080Z</time>
      </trkpt>
      <trkpt lat="47.84361" lon="6.91704">
        <ele>1127.7</ele>
        <time>2026-08-27T07:04:18.140Z</time>
      </trkpt>
      <trkpt lat="47.84361" lon="6.91706">
        <ele>1128</ele>
        <time>2026-08-27T07:04:20.106Z</time>
      </trkpt>
      <trkpt lat="47.84362" lon="6.91707">
        <ele>1128.2</ele>
        <time>2026-08-27T07:04:21.113Z</time>
      </trkpt>
      <trkpt lat="47.84362" lon="6.91708">
        <ele>1128.3</ele>
        <time>2026-08-27T07:04:22.121Z</time>
      </trkpt>
      <trkpt lat="47.84364" lon="6.9171">
        <ele>1128.5</ele>
        <time>2026-08-27T07:04:24.036Z</time>
      </trkpt>
      <trkpt lat="47.84364" lon="6.91711">
        <ele>1128.7</ele>
        <time>2026-08-27T07:04:25.044Z</time>
      </trkpt>
      <trkpt lat="47.84365" lon="6.91712">
        <ele>1128.9</ele>
        <time>2026-08-27T07:04:26.052Z</time>
      </trkpt>
      <trkpt lat="47.84365" lon="6.91714">
        <ele>1128.8</ele>
        <time>2026-08-27T07:04:27.061Z</time>
      </trkpt>
      <trkpt lat="47.84365" lon="6.91715">
        <ele>1129.2</ele>
        <time>2026-08-27T07:04:28.068Z</time>
      </trkpt>
      <trkpt lat="47.84365" lon="6.91716">
        <ele>1129.3</ele>
        <time>2026-08-27T07:04:29.076Z</time>
      </trkpt>
      <trkpt lat="47.84367" lon="6.91718">
        <ele>1129.6</ele>
        <time>2026-08-27T07:04:31.092Z</time>
      </trkpt>
      <trkpt lat="47.84368" lon="6.91719">
        <ele>1129.6</ele>
        <time>2026-08-27T07:04:32.100Z</time>
      </trkpt>
      <trkpt lat="47.84369" lon="6.91719">
        <ele>1129.8</ele>
        <time>2026-08-27T07:04:33.109Z</time>
      </trkpt>
      <trkpt lat="47.8437" lon="6.91719">
        <ele>1129.9</ele>
        <time>2026-08-27T07:04:34.116Z</time>
      </trkpt>
      <trkpt lat="47.84371" lon="6.91719">
        <ele>1130.1</ele>
        <time>2026-08-27T07:04:35.124Z</time>
      </trkpt>
      <trkpt lat="47.84373" lon="6.91721">
        <ele>1130.3</ele>
        <time>2026-08-27T07:04:37.142Z</time>
      </trkpt>
      <trkpt lat="47.84374" lon="6.91723">
        <ele>1130.4</ele>
        <time>2026-08-27T07:04:39.123Z</time>
      </trkpt>
      <trkpt lat="47.84375" lon="6.91725">
        <ele>1130.6</ele>
        <time>2026-08-27T07:04:41.073Z</time>
      </trkpt>
      <trkpt lat="47.84376" lon="6.91726">
        <ele>1130.5</ele>
        <time>2026-08-27T07:04:42.081Z</time>
      </trkpt>
      <trkpt lat="47.84377" lon="6.91728">
        <ele>1130.6</ele>
        <time>2026-08-27T07:04:43.088Z</time>
      </trkpt>
      <trkpt lat="47.84377" lon="6.91729">
        <ele>1130.5</ele>
        <time>2026-08-27T07:04:44.096Z</time>
      </trkpt>
      <trkpt lat="47.84378" lon="6.9173">
        <ele>1130.3</ele>
        <time>2026-08-27T07:04:45.104Z</time>
      </trkpt>
      <trkpt lat="47.84379" lon="6.91731">
        <ele>1130.2</ele>
        <time>2026-08-27T07:04:46.113Z</time>
      </trkpt>
      <trkpt lat="47.84379" lon="6.91733">
        <ele>1130.2</ele>
        <time>2026-08-27T07:04:47.120Z</time>
      </trkpt>
      <trkpt lat="47.8438" lon="6.91734">
        <ele>1130.3</ele>
        <time>2026-08-27T07:04:48.128Z</time>
      </trkpt>
      <trkpt lat="47.84381" lon="6.91737">
        <ele>1130.4</ele>
        <time>2026-08-27T07:04:49.986Z</time>
      </trkpt>
      <trkpt lat="47.84382" lon="6.91738">
        <ele>1130.5</ele>
        <time>2026-08-27T07:04:51.051Z</time>
      </trkpt>
      <trkpt lat="47.84383" lon="6.91739">
        <ele>1130.5</ele>
        <time>2026-08-27T07:04:52.085Z</time>
      </trkpt>
      <trkpt lat="47.84384" lon="6.9174">
        <ele>1130.7</ele>
        <time>2026-08-27T07:04:53.161Z</time>
      </trkpt>
      <trkpt lat="47.84385" lon="6.91742">
        <ele>1130.9</ele>
        <time>2026-08-27T07:04:55.058Z</time>
      </trkpt>
      <trkpt lat="47.84385" lon="6.91744">
        <ele>1131</ele>
        <time>2026-08-27T07:04:56.142Z</time>
      </trkpt>
      <trkpt lat="47.84386" lon="6.91747">
        <ele>1131</ele>
        <time>2026-08-27T07:04:58.024Z</time>
      </trkpt>
      <trkpt lat="47.84387" lon="6.91748">
        <ele>1131.3</ele>
        <time>2026-08-27T07:04:59.116Z</time>
      </trkpt>
      <trkpt lat="47.84388" lon="6.9175">
        <ele>1131.4</ele>
        <time>2026-08-27T07:05:00.124Z</time>
      </trkpt>
      <trkpt lat="47.84389" lon="6.91751">
        <ele>1131.4</ele>
        <time>2026-08-27T07:05:01.141Z</time>
      </trkpt>
      <trkpt lat="47.8439" lon="6.91753">
        <ele>1131.5</ele>
        <time>2026-08-27T07:05:02.359Z</time>
      </trkpt>
      <trkpt lat="47.84391" lon="6.91754">
        <ele>1131.5</ele>
        <time>2026-08-27T07:05:03.460Z</time>
      </trkpt>
      <trkpt lat="47.84392" lon="6.91756">
        <ele>1131.5</ele>
        <time>2026-08-27T07:05:04.804Z</time>
      </trkpt>
      <trkpt lat="47.84393" lon="6.91758">
        <ele>1131.4</ele>
        <time>2026-08-27T07:05:05.979Z</time>
      </trkpt>
      <trkpt lat="47.84394" lon="6.91759">
        <ele>1131.6</ele>
        <time>2026-08-27T07:05:07.121Z</time>
      </trkpt>
      <trkpt lat="47.84395" lon="6.91761">
        <ele>1131.8</ele>
        <time>2026-08-27T07:05:09.096Z</time>
      </trkpt>
      <trkpt lat="47.84396" lon="6.91762">
        <ele>1131.8</ele>
        <time>2026-08-27T07:05:10.104Z</time>
      </trkpt>
      <trkpt lat="47.84397" lon="6.91763">
        <ele>1131.6</ele>
        <time>2026-08-27T07:05:11.112Z</time>
      </trkpt>
      <trkpt lat="47.84398" lon="6.91764">
        <ele>1131.6</ele>
        <time>2026-08-27T07:05:12.120Z</time>
      </trkpt>
      <trkpt lat="47.84398" lon="6.91764">
        <ele>1131.6</ele>
        <time>2026-08-27T07:05:13.127Z</time>
      </trkpt>
      <trkpt lat="47.84399" lon="6.91765">
        <ele>1131.5</ele>
        <time>2026-08-27T07:05:14.135Z</time>
      </trkpt>
      <trkpt lat="47.84401" lon="6.91768">
        <ele>1131.6</ele>
        <time>2026-08-27T07:05:16.050Z</time>
      </trkpt>
      <trkpt lat="47.84401" lon="6.91769">
        <ele>1131.7</ele>
        <time>2026-08-27T07:05:17.058Z</time>
      </trkpt>
      <trkpt lat="47.84403" lon="6.91771">
        <ele>1131.8</ele>
        <time>2026-08-27T07:05:19.074Z</time>
      </trkpt>
      <trkpt lat="47.84404" lon="6.91772">
        <ele>1131.9</ele>
        <time>2026-08-27T07:05:20.083Z</time>
      </trkpt>
      <trkpt lat="47.84405" lon="6.91773">
        <ele>1132.2</ele>
        <time>2026-08-27T07:05:21.092Z</time>
      </trkpt>
      <trkpt lat="47.84405" lon="6.91775">
        <ele>1132.4</ele>
        <time>2026-08-27T07:05:22.100Z</time>
      </trkpt>
      <trkpt lat="47.84406" lon="6.91776">
        <ele>1132.5</ele>
        <time>2026-08-27T07:05:23.108Z</time>
      </trkpt>
      <trkpt lat="47.84407" lon="6.91777">
        <ele>1132.5</ele>
        <time>2026-08-27T07:05:24.116Z</time>
      </trkpt>
      <trkpt lat="47.84408" lon="6.91778">
        <ele>1132.4</ele>
        <time>2026-08-27T07:05:25.123Z</time>
      </trkpt>
      <trkpt lat="47.84409" lon="6.91779">
        <ele>1132.4</ele>
        <time>2026-08-27T07:05:26.131Z</time>
      </trkpt>
      <trkpt lat="47.84411" lon="6.91781">
        <ele>1132.6</ele>
        <time>2026-08-27T07:05:28.046Z</time>
      </trkpt>
      <trkpt lat="47.84412" lon="6.91783">
        <ele>1132.8</ele>
        <time>2026-08-27T07:05:30.062Z</time>
      </trkpt>
      <trkpt lat="47.84413" lon="6.91784">
        <ele>1132.8</ele>
        <time>2026-08-27T07:05:31.071Z</time>
      </trkpt>
      <trkpt lat="47.84414" lon="6.91786">
        <ele>1132.7</ele>
        <time>2026-08-27T07:05:32.078Z</time>
      </trkpt>
      <trkpt lat="47.84414" lon="6.91787">
        <ele>1132.5</ele>
        <time>2026-08-27T07:05:33.087Z</time>
      </trkpt>
      <trkpt lat="47.84415" lon="6.91788">
        <ele>1132.7</ele>
        <time>2026-08-27T07:05:34.095Z</time>
      </trkpt>
      <trkpt lat="47.84416" lon="6.9179">
        <ele>1132.9</ele>
        <time>2026-08-27T07:05:35.102Z</time>
      </trkpt>
      <trkpt lat="47.84417" lon="6.91791">
        <ele>1132.9</ele>
        <time>2026-08-27T07:05:36.118Z</time>
      </trkpt>
      <trkpt lat="47.84417" lon="6.91792">
        <ele>1132.9</ele>
        <time>2026-08-27T07:05:37.119Z</time>
      </trkpt>
      <trkpt lat="47.84418" lon="6.91793">
        <ele>1132.9</ele>
        <time>2026-08-27T07:05:38.126Z</time>
      </trkpt>
      <trkpt lat="47.84419" lon="6.91794">
        <ele>1133.1</ele>
        <time>2026-08-27T07:05:39.134Z</time>
      </trkpt>
      <trkpt lat="47.8442" lon="6.91796">
        <ele>1132.9</ele>
        <time>2026-08-27T07:05:40.958Z</time>
      </trkpt>
      <trkpt lat="47.84421" lon="6.91797">
        <ele>1132.6</ele>
        <time>2026-08-27T07:05:42.058Z</time>
      </trkpt>
      <trkpt lat="47.84422" lon="6.91798">
        <ele>1132.5</ele>
        <time>2026-08-27T07:05:43.065Z</time>
      </trkpt>
      <trkpt lat="47.84423" lon="6.91799">
        <ele>1132.7</ele>
        <time>2026-08-27T07:05:44.074Z</time>
      </trkpt>
      <trkpt lat="47.84424" lon="6.918">
        <ele>1132.7</ele>
        <time>2026-08-27T07:05:45.081Z</time>
      </trkpt>
      <trkpt lat="47.84425" lon="6.91802">
        <ele>1132.7</ele>
        <time>2026-08-27T07:05:46.082Z</time>
      </trkpt>
      <trkpt lat="47.84425" lon="6.91803">
        <ele>1132.8</ele>
        <time>2026-08-27T07:05:47.097Z</time>
      </trkpt>
      <trkpt lat="47.84427" lon="6.91805">
        <ele>1132.9</ele>
        <time>2026-08-27T07:05:49.113Z</time>
      </trkpt>
      <trkpt lat="47.84427" lon="6.91806">
        <ele>1133.4</ele>
        <time>2026-08-27T07:05:50.122Z</time>
      </trkpt>
      <trkpt lat="47.84428" lon="6.91807">
        <ele>1133.5</ele>
        <time>2026-08-27T07:05:51.131Z</time>
      </trkpt>
      <trkpt lat="47.8443" lon="6.91809">
        <ele>1133.7</ele>
        <time>2026-08-27T07:05:52.944Z</time>
      </trkpt>
      <trkpt lat="47.8443" lon="6.9181">
        <ele>1133.8</ele>
        <time>2026-08-27T07:05:54.145Z</time>
      </trkpt>
      <trkpt lat="47.84432" lon="6.91813">
        <ele>1133.8</ele>
        <time>2026-08-27T07:05:56.119Z</time>
      </trkpt>
      <trkpt lat="47.84433" lon="6.91816">
        <ele>1134.2</ele>
        <time>2026-08-27T07:05:58.086Z</time>
      </trkpt>
      <trkpt lat="47.84433" lon="6.91817">
        <ele>1134.1</ele>
        <time>2026-08-27T07:05:59.094Z</time>
      </trkpt>
      <trkpt lat="47.84435" lon="6.91819">
        <ele>1134.2</ele>
        <time>2026-08-27T07:06:01.109Z</time>
      </trkpt>
      <trkpt lat="47.84435" lon="6.9182">
        <ele>1134.3</ele>
        <time>2026-08-27T07:06:02.117Z</time>
      </trkpt>
      <trkpt lat="47.84437" lon="6.91822">
        <ele>1134.4</ele>
        <time>2026-08-27T07:06:04.042Z</time>
      </trkpt>
      <trkpt lat="47.84437" lon="6.91823">
        <ele>1134.6</ele>
        <time>2026-08-27T07:06:05.141Z</time>
      </trkpt>
      <trkpt lat="47.84438" lon="6.91825">
        <ele>1134.8</ele>
        <time>2026-08-27T07:06:07.057Z</time>
      </trkpt>
      <trkpt lat="47.84439" lon="6.91828">
        <ele>1134.6</ele>
        <time>2026-08-27T07:06:09.072Z</time>
      </trkpt>
      <trkpt lat="47.8444" lon="6.91829">
        <ele>1134.8</ele>
        <time>2026-08-27T07:06:10.081Z</time>
      </trkpt>
      <trkpt lat="47.8444" lon="6.9183">
        <ele>1134.5</ele>
        <time>2026-08-27T07:06:11.088Z</time>
      </trkpt>
      <trkpt lat="47.84441" lon="6.91831">
        <ele>1134.7</ele>
        <time>2026-08-27T07:06:12.097Z</time>
      </trkpt>
      <trkpt lat="47.84442" lon="6.91832">
        <ele>1134.7</ele>
        <time>2026-08-27T07:06:13.104Z</time>
      </trkpt>
      <trkpt lat="47.84442" lon="6.91833">
        <ele>1134.7</ele>
        <time>2026-08-27T07:06:14.112Z</time>
      </trkpt>
      <trkpt lat="47.84443" lon="6.91835">
        <ele>1134.8</ele>
        <time>2026-08-27T07:06:15.120Z</time>
      </trkpt>
      <trkpt lat="47.84444" lon="6.91837">
        <ele>1135.1</ele>
        <time>2026-08-27T07:06:17.044Z</time>
      </trkpt>
      <trkpt lat="47.84445" lon="6.91838">
        <ele>1135.1</ele>
        <time>2026-08-27T07:06:18.044Z</time>
      </trkpt>
      <trkpt lat="47.84445" lon="6.91838">
        <ele>1135.2</ele>
        <time>2026-08-27T07:06:19.052Z</time>
      </trkpt>
      <trkpt lat="47.84446" lon="6.91839">
        <ele>1135.3</ele>
        <time>2026-08-27T07:06:20.060Z</time>
      </trkpt>
      <trkpt lat="47.84447" lon="6.9184">
        <ele>1135.7</ele>
        <time>2026-08-27T07:06:21.069Z</time>
      </trkpt>
      <trkpt lat="47.84449" lon="6.91842">
        <ele>1136.2</ele>
        <time>2026-08-27T07:06:23.084Z</time>
      </trkpt>
      <trkpt lat="47.84449" lon="6.91843">
        <ele>1136.2</ele>
        <time>2026-08-27T07:06:24.092Z</time>
      </trkpt>
      <trkpt lat="47.84449" lon="6.91844">
        <ele>1136.3</ele>
        <time>2026-08-27T07:06:25.101Z</time>
      </trkpt>
      <trkpt lat="47.84449" lon="6.91845">
        <ele>1136.4</ele>
        <time>2026-08-27T07:06:26.108Z</time>
      </trkpt>
      <trkpt lat="47.84449" lon="6.91847">
        <ele>1136.5</ele>
        <time>2026-08-27T07:06:27.116Z</time>
      </trkpt>
      <trkpt lat="47.84447" lon="6.9185">
        <ele>1136.2</ele>
        <time>2026-08-27T07:06:29.132Z</time>
      </trkpt>
      <trkpt lat="47.84446" lon="6.91853">
        <ele>1136.1</ele>
        <time>2026-08-27T07:06:31.022Z</time>
      </trkpt>
      <trkpt lat="47.84445" lon="6.91855">
        <ele>1136.1</ele>
        <time>2026-08-27T07:06:32.123Z</time>
      </trkpt>
      <trkpt lat="47.84445" lon="6.9186">
        <ele>1136.3</ele>
        <time>2026-08-27T07:06:34.071Z</time>
      </trkpt>
      <trkpt lat="47.84445" lon="6.91862">
        <ele>1135.8</ele>
        <time>2026-08-27T07:06:35.080Z</time>
      </trkpt>
      <trkpt lat="47.84446" lon="6.91864">
        <ele>1135.5</ele>
        <time>2026-08-27T07:06:36.087Z</time>
      </trkpt>
      <trkpt lat="47.84446" lon="6.91866">
        <ele>1135.6</ele>
        <time>2026-08-27T07:06:37.095Z</time>
      </trkpt>
      <trkpt lat="47.84447" lon="6.91868">
        <ele>1135.6</ele>
        <time>2026-08-27T07:06:38.103Z</time>
      </trkpt>
      <trkpt lat="47.84447" lon="6.91869">
        <ele>1135.3</ele>
        <time>2026-08-27T07:06:39.111Z</time>
      </trkpt>
      <trkpt lat="47.84448" lon="6.91871">
        <ele>1135.1</ele>
        <time>2026-08-27T07:06:40.119Z</time>
      </trkpt>
      <trkpt lat="47.84448" lon="6.91872">
        <ele>1134.9</ele>
        <time>2026-08-27T07:06:41.127Z</time>
      </trkpt>
      <trkpt lat="47.8445" lon="6.91874">
        <ele>1134.7</ele>
        <time>2026-08-27T07:06:43.042Z</time>
      </trkpt>
      <trkpt lat="47.8445" lon="6.91875">
        <ele>1134.7</ele>
        <time>2026-08-27T07:06:44.143Z</time>
      </trkpt>
      <trkpt lat="47.84451" lon="6.91878">
        <ele>1134.8</ele>
        <time>2026-08-27T07:06:45.982Z</time>
      </trkpt>
      <trkpt lat="47.84451" lon="6.9188">
        <ele>1134.5</ele>
        <time>2026-08-27T07:06:47.074Z</time>
      </trkpt>
      <trkpt lat="47.84451" lon="6.91881">
        <ele>1134.6</ele>
        <time>2026-08-27T07:06:48.082Z</time>
      </trkpt>
      <trkpt lat="47.84451" lon="6.91883">
        <ele>1134.6</ele>
        <time>2026-08-27T07:06:49.090Z</time>
      </trkpt>
      <trkpt lat="47.8445" lon="6.91887">
        <ele>1134.9</ele>
        <time>2026-08-27T07:06:51.123Z</time>
      </trkpt>
      <trkpt lat="47.8445" lon="6.9189">
        <ele>1134.8</ele>
        <time>2026-08-27T07:06:53.124Z</time>
      </trkpt>
      <trkpt lat="47.84449" lon="6.91892">
        <ele>1134.7</ele>
        <time>2026-08-27T07:06:54.131Z</time>
      </trkpt>
      <trkpt lat="47.84449" lon="6.91895">
        <ele>1134.6</ele>
        <time>2026-08-27T07:06:56.046Z</time>
      </trkpt>
      <trkpt lat="47.84449" lon="6.91897">
        <ele>1134.6</ele>
        <time>2026-08-27T07:06:57.104Z</time>
      </trkpt>
      <trkpt lat="47.84451" lon="6.91898">
        <ele>1134</ele>
        <time>2026-08-27T07:06:59.071Z</time>
      </trkpt>
      <trkpt lat="47.84452" lon="6.91901">
        <ele>1134.4</ele>
        <time>2026-08-27T07:07:01.086Z</time>
      </trkpt>
      <trkpt lat="47.84452" lon="6.91902">
        <ele>1134</ele>
        <time>2026-08-27T07:07:02.094Z</time>
      </trkpt>
      <trkpt lat="47.84453" lon="6.91903">
        <ele>1134</ele>
        <time>2026-08-27T07:07:03.120Z</time>
      </trkpt>
      <trkpt lat="47.84455" lon="6.91904">
        <ele>1133.8</ele>
        <time>2026-08-27T07:07:05.118Z</time>
      </trkpt>
      <trkpt lat="47.84457" lon="6.91904">
        <ele>1133.8</ele>
        <time>2026-08-27T07:07:07.058Z</time>
      </trkpt>
      <trkpt lat="47.84459" lon="6.91903">
        <ele>1133.1</ele>
        <time>2026-08-27T07:07:09.049Z</time>
      </trkpt>
      <trkpt lat="47.8446" lon="6.91904">
        <ele>1133.1</ele>
        <time>2026-08-27T07:07:10.058Z</time>
      </trkpt>
      <trkpt lat="47.84461" lon="6.91904">
        <ele>1133.1</ele>
        <time>2026-08-27T07:07:11.065Z</time>
      </trkpt>
      <trkpt lat="47.84461" lon="6.91904">
        <ele>1132.8</ele>
        <time>2026-08-27T07:07:12.073Z</time>
      </trkpt>
      <trkpt lat="47.84461" lon="6.91904">
        <ele>1132.7</ele>
        <time>2026-08-27T07:07:13.081Z</time>
      </trkpt>
      <trkpt lat="47.84461" lon="6.91904">
        <ele>1132.6</ele>
        <time>2026-08-27T07:07:14.089Z</time>
      </trkpt>
      <trkpt lat="47.84461" lon="6.91905">
        <ele>1132.5</ele>
        <time>2026-08-27T07:07:15.097Z</time>
      </trkpt>
      <trkpt lat="47.84462" lon="6.91906">
        <ele>1132.2</ele>
        <time>2026-08-27T07:07:16.105Z</time>
      </trkpt>
      <trkpt lat="47.84463" lon="6.91907">
        <ele>1132</ele>
        <time>2026-08-27T07:07:17.113Z</time>
      </trkpt>
      <trkpt lat="47.84463" lon="6.91907">
        <ele>1131.9</ele>
        <time>2026-08-27T07:07:18.121Z</time>
      </trkpt>
      <trkpt lat="47.84465" lon="6.91909">
        <ele>1131.9</ele>
        <time>2026-08-27T07:07:20.138Z</time>
      </trkpt>
      <trkpt lat="47.84468" lon="6.91908">
        <ele>1131.6</ele>
        <time>2026-08-27T07:07:22.053Z</time>
      </trkpt>
      <trkpt lat="47.84469" lon="6.91906">
        <ele>1131.6</ele>
        <time>2026-08-27T07:07:23.077Z</time>
      </trkpt>
      <trkpt lat="47.84472" lon="6.91904">
        <ele>1131</ele>
        <time>2026-08-27T07:07:25.178Z</time>
      </trkpt>
      <trkpt lat="47.84474" lon="6.91901">
        <ele>1130.2</ele>
        <time>2026-08-27T07:07:27.093Z</time>
      </trkpt>
      <trkpt lat="47.84475" lon="6.919">
        <ele>1130.2</ele>
        <time>2026-08-27T07:07:28.101Z</time>
      </trkpt>
      <trkpt lat="47.84476" lon="6.919">
        <ele>1130.1</ele>
        <time>2026-08-27T07:07:29.109Z</time>
      </trkpt>
      <trkpt lat="47.84477" lon="6.919">
        <ele>1130.1</ele>
        <time>2026-08-27T07:07:30.142Z</time>
      </trkpt>
      <trkpt lat="47.84479" lon="6.919">
        <ele>1130.1</ele>
        <time>2026-08-27T07:07:32.183Z</time>
      </trkpt>
      <trkpt lat="47.84481" lon="6.919">
        <ele>1130.1</ele>
        <time>2026-08-27T07:07:34.049Z</time>
      </trkpt>
      <trkpt lat="47.84482" lon="6.91899">
        <ele>1130.1</ele>
        <time>2026-08-27T07:07:35.056Z</time>
      </trkpt>
      <trkpt lat="47.84483" lon="6.91898">
        <ele>1129.5</ele>
        <time>2026-08-27T07:07:37.072Z</time>
      </trkpt>
      <trkpt lat="47.84484" lon="6.91896">
        <ele>1129.4</ele>
        <time>2026-08-27T07:07:38.080Z</time>
      </trkpt>
      <trkpt lat="47.84485" lon="6.91895">
        <ele>1129.4</ele>
        <time>2026-08-27T07:07:39.080Z</time>
      </trkpt>
      <trkpt lat="47.84486" lon="6.91892">
        <ele>1128.9</ele>
        <time>2026-08-27T07:07:40.097Z</time>
      </trkpt>
      <trkpt lat="47.84487" lon="6.9189">
        <ele>1128.7</ele>
        <time>2026-08-27T07:07:41.104Z</time>
      </trkpt>
      <trkpt lat="47.84487" lon="6.91889">
        <ele>1128.5</ele>
        <time>2026-08-27T07:07:42.112Z</time>
      </trkpt>
      <trkpt lat="47.84489" lon="6.91888">
        <ele>1128.5</ele>
        <time>2026-08-27T07:07:43.121Z</time>
      </trkpt>
      <trkpt lat="47.8449" lon="6.91888">
        <ele>1128.4</ele>
        <time>2026-08-27T07:07:44.128Z</time>
      </trkpt>
      <trkpt lat="47.84492" lon="6.91887">
        <ele>1128.1</ele>
        <time>2026-08-27T07:07:46.144Z</time>
      </trkpt>
      <trkpt lat="47.84493" lon="6.91886">
        <ele>1128.3</ele>
        <time>2026-08-27T07:07:48.060Z</time>
      </trkpt>
      <trkpt lat="47.84494" lon="6.91885">
        <ele>1128.3</ele>
        <time>2026-08-27T07:07:49.160Z</time>
      </trkpt>
      <trkpt lat="47.84494" lon="6.91884">
        <ele>1127.9</ele>
        <time>2026-08-27T07:07:50.176Z</time>
      </trkpt>
      <trkpt lat="47.84496" lon="6.91883">
        <ele>1127.5</ele>
        <time>2026-08-27T07:07:52.092Z</time>
      </trkpt>
      <trkpt lat="47.84496" lon="6.91883">
        <ele>1127.4</ele>
        <time>2026-08-27T07:07:53.099Z</time>
      </trkpt>
      <trkpt lat="47.84497" lon="6.91884">
        <ele>1127.3</ele>
        <time>2026-08-27T07:07:54.108Z</time>
      </trkpt>
      <trkpt lat="47.84499" lon="6.91885">
        <ele>1126.6</ele>
        <time>2026-08-27T07:07:56.123Z</time>
      </trkpt>
      <trkpt lat="47.845" lon="6.91886">
        <ele>1126.6</ele>
        <time>2026-08-27T07:07:58.140Z</time>
      </trkpt>
      <trkpt lat="47.84501" lon="6.91885">
        <ele>1126.6</ele>
        <time>2026-08-27T07:08:00.055Z</time>
      </trkpt>
      <trkpt lat="47.84503" lon="6.91884">
        <ele>1126.4</ele>
        <time>2026-08-27T07:08:02.071Z</time>
      </trkpt>
      <trkpt lat="47.84503" lon="6.91883">
        <ele>1126.4</ele>
        <time>2026-08-27T07:08:03.080Z</time>
      </trkpt>
      <trkpt lat="47.84504" lon="6.91883">
        <ele>1126.4</ele>
        <time>2026-08-27T07:08:04.087Z</time>
      </trkpt>
      <trkpt lat="47.84504" lon="6.91882">
        <ele>1126.1</ele>
        <time>2026-08-27T07:08:05.095Z</time>
      </trkpt>
      <trkpt lat="47.84503" lon="6.91881">
        <ele>1125.7</ele>
        <time>2026-08-27T07:08:06.104Z</time>
      </trkpt>
      <trkpt lat="47.84504" lon="6.9188">
        <ele>1125.6</ele>
        <time>2026-08-27T07:08:07.111Z</time>
      </trkpt>
      <trkpt lat="47.84504" lon="6.91878">
        <ele>1125.3</ele>
        <time>2026-08-27T07:08:09.127Z</time>
      </trkpt>
      <trkpt lat="47.84506" lon="6.91877">
        <ele>1125.1</ele>
        <time>2026-08-27T07:08:11.043Z</time>
      </trkpt>
      <trkpt lat="47.84507" lon="6.91876">
        <ele>1124.8</ele>
        <time>2026-08-27T07:08:12.100Z</time>
      </trkpt>
      <trkpt lat="47.84511" lon="6.91876">
        <ele>1124.2</ele>
        <time>2026-08-27T07:08:14.066Z</time>
      </trkpt>
      <trkpt lat="47.84514" lon="6.91877">
        <ele>1123.8</ele>
        <time>2026-08-27T07:08:16.082Z</time>
      </trkpt>
      <trkpt lat="47.84514" lon="6.91877">
        <ele>1124.1</ele>
        <time>2026-08-27T07:08:17.090Z</time>
      </trkpt>
      <trkpt lat="47.84515" lon="6.91875">
        <ele>1123.5</ele>
        <time>2026-08-27T07:08:19.107Z</time>
      </trkpt>
      <trkpt lat="47.84515" lon="6.91874">
        <ele>1123.3</ele>
        <time>2026-08-27T07:08:20.114Z</time>
      </trkpt>
      <trkpt lat="47.84516" lon="6.91872">
        <ele>1122.9</ele>
        <time>2026-08-27T07:08:21.122Z</time>
      </trkpt>
      <trkpt lat="47.84517" lon="6.91871">
        <ele>1122.9</ele>
        <time>2026-08-27T07:08:22.123Z</time>
      </trkpt>
      <trkpt lat="47.84519" lon="6.91868">
        <ele>1121.9</ele>
        <time>2026-08-27T07:08:24.146Z</time>
      </trkpt>
      <trkpt lat="47.8452" lon="6.91865">
        <ele>1121.4</ele>
        <time>2026-08-27T07:08:26.061Z</time>
      </trkpt>
      <trkpt lat="47.84521" lon="6.91864">
        <ele>1121.2</ele>
        <time>2026-08-27T07:08:27.070Z</time>
      </trkpt>
      <trkpt lat="47.84521" lon="6.91863">
        <ele>1121.1</ele>
        <time>2026-08-27T07:08:28.078Z</time>
      </trkpt>
      <trkpt lat="47.84523" lon="6.91862">
        <ele>1120.9</ele>
        <time>2026-08-27T07:08:30.118Z</time>
      </trkpt>
      <trkpt lat="47.84525" lon="6.91862">
        <ele>1120.7</ele>
        <time>2026-08-27T07:08:32.109Z</time>
      </trkpt>
      <trkpt lat="47.84526" lon="6.91862">
        <ele>1120.6</ele>
        <time>2026-08-27T07:08:33.118Z</time>
      </trkpt>
      <trkpt lat="47.84527" lon="6.91862">
        <ele>1120.4</ele>
        <time>2026-08-27T07:08:34.126Z</time>
      </trkpt>
      <trkpt lat="47.84528" lon="6.91861">
        <ele>1120.1</ele>
        <time>2026-08-27T07:08:36.042Z</time>
      </trkpt>
      <trkpt lat="47.8453" lon="6.91859">
        <ele>1119.7</ele>
        <time>2026-08-27T07:08:38.057Z</time>
      </trkpt>
      <trkpt lat="47.84531" lon="6.91858">
        <ele>1119.6</ele>
        <time>2026-08-27T07:08:39.165Z</time>
      </trkpt>
      <trkpt lat="47.84533" lon="6.91857">
        <ele>1119.4</ele>
        <time>2026-08-27T07:08:41.081Z</time>
      </trkpt>
      <trkpt lat="47.84534" lon="6.91856">
        <ele>1119</ele>
        <time>2026-08-27T07:08:43.097Z</time>
      </trkpt>
      <trkpt lat="47.84535" lon="6.91855">
        <ele>1119</ele>
        <time>2026-08-27T07:08:44.105Z</time>
      </trkpt>
      <trkpt lat="47.84535" lon="6.91854">
        <ele>1118.9</ele>
        <time>2026-08-27T07:08:45.114Z</time>
      </trkpt>
      <trkpt lat="47.84537" lon="6.91851">
        <ele>1118.9</ele>
        <time>2026-08-27T07:08:47.129Z</time>
      </trkpt>
      <trkpt lat="47.84538" lon="6.9185">
        <ele>1118.5</ele>
        <time>2026-08-27T07:08:49.145Z</time>
      </trkpt>
      <trkpt lat="47.8454" lon="6.91849">
        <ele>1118.1</ele>
        <time>2026-08-27T07:08:51.061Z</time>
      </trkpt>
      <trkpt lat="47.8454" lon="6.91849">
        <ele>1117.9</ele>
        <time>2026-08-27T07:08:52.068Z</time>
      </trkpt>
      <trkpt lat="47.84541" lon="6.91848">
        <ele>1117.6</ele>
        <time>2026-08-27T07:08:53.077Z</time>
      </trkpt>
      <trkpt lat="47.84542" lon="6.91848">
        <ele>1117.2</ele>
        <time>2026-08-27T07:08:54.085Z</time>
      </trkpt>
      <trkpt lat="47.84544" lon="6.91848">
        <ele>1117.1</ele>
        <time>2026-08-27T07:08:56.100Z</time>
      </trkpt>
      <trkpt lat="47.84545" lon="6.91847">
        <ele>1117.1</ele>
        <time>2026-08-27T07:08:57.109Z</time>
      </trkpt>
      <trkpt lat="47.84546" lon="6.91846">
        <ele>1117.1</ele>
        <time>2026-08-27T07:08:58.117Z</time>
      </trkpt>
      <trkpt lat="47.84547" lon="6.91846">
        <ele>1117.2</ele>
        <time>2026-08-27T07:08:59.124Z</time>
      </trkpt>
      <trkpt lat="47.84548" lon="6.91846">
        <ele>1117.4</ele>
        <time>2026-08-27T07:09:00.133Z</time>
      </trkpt>
      <trkpt lat="47.8455" lon="6.91845">
        <ele>1117.5</ele>
        <time>2026-08-27T07:09:02.065Z</time>
      </trkpt>
      <trkpt lat="47.84552" lon="6.91844">
        <ele>1117.4</ele>
        <time>2026-08-27T07:09:04.164Z</time>
      </trkpt>
      <trkpt lat="47.84554" lon="6.91843">
        <ele>1117.5</ele>
        <time>2026-08-27T07:09:06.079Z</time>
      </trkpt>
      <trkpt lat="47.84555" lon="6.91841">
        <ele>1117.5</ele>
        <time>2026-08-27T07:09:08.095Z</time>
      </trkpt>
      <trkpt lat="47.84556" lon="6.9184">
        <ele>1117.6</ele>
        <time>2026-08-27T07:09:09.103Z</time>
      </trkpt>
      <trkpt lat="47.84557" lon="6.9184">
        <ele>1117.8</ele>
        <time>2026-08-27T07:09:10.111Z</time>
      </trkpt>
      <trkpt lat="47.84558" lon="6.9184">
        <ele>1117.8</ele>
        <time>2026-08-27T07:09:11.120Z</time>
      </trkpt>
      <trkpt lat="47.84559" lon="6.9184">
        <ele>1117.8</ele>
        <time>2026-08-27T07:09:13.034Z</time>
      </trkpt>
      <trkpt lat="47.8456" lon="6.91841">
        <ele>1117.9</ele>
        <time>2026-08-27T07:09:14.143Z</time>
      </trkpt>
      <trkpt lat="47.84562" lon="6.91841">
        <ele>1118.3</ele>
        <time>2026-08-27T07:09:16.059Z</time>
      </trkpt>
      <trkpt lat="47.84563" lon="6.9184">
        <ele>1118.3</ele>
        <time>2026-08-27T07:09:17.067Z</time>
      </trkpt>
      <trkpt lat="47.84564" lon="6.9184">
        <ele>1118.4</ele>
        <time>2026-08-27T07:09:18.175Z</time>
      </trkpt>
      <trkpt lat="47.84566" lon="6.9184">
        <ele>1118.4</ele>
        <time>2026-08-27T07:09:19.183Z</time>
      </trkpt>
      <trkpt lat="47.84568" lon="6.9184">
        <ele>1118.2</ele>
        <time>2026-08-27T07:09:21.099Z</time>
      </trkpt>
      <trkpt lat="47.84569" lon="6.9184">
        <ele>1118.2</ele>
        <time>2026-08-27T07:09:22.107Z</time>
      </trkpt>
      <trkpt lat="47.84569" lon="6.91841">
        <ele>1118.2</ele>
        <time>2026-08-27T07:09:23.115Z</time>
      </trkpt>
      <trkpt lat="47.8457" lon="6.91841">
        <ele>1118.3</ele>
        <time>2026-08-27T07:09:24.124Z</time>
      </trkpt>
      <trkpt lat="47.84571" lon="6.91841">
        <ele>1118.4</ele>
        <time>2026-08-27T07:09:25.131Z</time>
      </trkpt>
      <trkpt lat="47.84571" lon="6.9184">
        <ele>1118.4</ele>
        <time>2026-08-27T07:09:26.140Z</time>
      </trkpt>
      <trkpt lat="47.84572" lon="6.91839">
        <ele>1118.6</ele>
        <time>2026-08-27T07:09:27.147Z</time>
      </trkpt>
      <trkpt lat="47.84573" lon="6.91838">
        <ele>1118.7</ele>
        <time>2026-08-27T07:09:28.155Z</time>
      </trkpt>
      <trkpt lat="47.84575" lon="6.91837">
        <ele>1118.9</ele>
        <time>2026-08-27T07:09:30.070Z</time>
      </trkpt>
      <trkpt lat="47.84575" lon="6.91836">
        <ele>1119.1</ele>
        <time>2026-08-27T07:09:31.078Z</time>
      </trkpt>
      <trkpt lat="47.84576" lon="6.91836">
        <ele>1119</ele>
        <time>2026-08-27T07:09:32.087Z</time>
      </trkpt>
      <trkpt lat="47.84577" lon="6.91835">
        <ele>1118.9</ele>
        <time>2026-08-27T07:09:33.094Z</time>
      </trkpt>
      <trkpt lat="47.84578" lon="6.91834">
        <ele>1119</ele>
        <time>2026-08-27T07:09:34.102Z</time>
      </trkpt>
      <trkpt lat="47.84579" lon="6.91832">
        <ele>1119.1</ele>
        <time>2026-08-27T07:09:36.118Z</time>
      </trkpt>
      <trkpt lat="47.8458" lon="6.91832">
        <ele>1118.8</ele>
        <time>2026-08-27T07:09:37.127Z</time>
      </trkpt>
      <trkpt lat="47.84581" lon="6.91831">
        <ele>1119.3</ele>
        <time>2026-08-27T07:09:38.134Z</time>
      </trkpt>
      <trkpt lat="47.84583" lon="6.9183">
        <ele>1119.5</ele>
        <time>2026-08-27T07:09:40.150Z</time>
      </trkpt>
      <trkpt lat="47.84585" lon="6.91829">
        <ele>1119.8</ele>
        <time>2026-08-27T07:09:42.167Z</time>
      </trkpt>
      <trkpt lat="47.84586" lon="6.91829">
        <ele>1120.2</ele>
        <time>2026-08-27T07:09:43.174Z</time>
      </trkpt>
      <trkpt lat="47.84588" lon="6.9183">
        <ele>1120.6</ele>
        <time>2026-08-27T07:09:45.090Z</time>
      </trkpt>
      <trkpt lat="47.84588" lon="6.91831">
        <ele>1120.6</ele>
        <time>2026-08-27T07:09:46.097Z</time>
      </trkpt>
      <trkpt lat="47.84589" lon="6.91832">
        <ele>1120.7</ele>
        <time>2026-08-27T07:09:47.105Z</time>
      </trkpt>
      <trkpt lat="47.8459" lon="6.91833">
        <ele>1120.8</ele>
        <time>2026-08-27T07:09:48.114Z</time>
      </trkpt>
      <trkpt lat="47.84591" lon="6.91835">
        <ele>1120.5</ele>
        <time>2026-08-27T07:09:50.129Z</time>
      </trkpt>
      <trkpt lat="47.84592" lon="6.91835">
        <ele>1120.5</ele>
        <time>2026-08-27T07:09:51.137Z</time>
      </trkpt>
      <trkpt lat="47.84593" lon="6.91836">
        <ele>1120.3</ele>
        <time>2026-08-27T07:09:52.146Z</time>
      </trkpt>
      <trkpt lat="47.84594" lon="6.91836">
        <ele>1120.4</ele>
        <time>2026-08-27T07:09:53.153Z</time>
      </trkpt>
      <trkpt lat="47.84595" lon="6.91836">
        <ele>1120.5</ele>
        <time>2026-08-27T07:09:54.161Z</time>
      </trkpt>
      <trkpt lat="47.84596" lon="6.91835">
        <ele>1121</ele>
        <time>2026-08-27T07:09:56.077Z</time>
      </trkpt>
      <trkpt lat="47.84597" lon="6.91835">
        <ele>1121</ele>
        <time>2026-08-27T07:09:57.101Z</time>
      </trkpt>
      <trkpt lat="47.84598" lon="6.91835">
        <ele>1121.6</ele>
        <time>2026-08-27T07:09:59.101Z</time>
      </trkpt>
      <trkpt lat="47.84599" lon="6.91834">
        <ele>1121.8</ele>
        <time>2026-08-27T07:10:00.108Z</time>
      </trkpt>
      <trkpt lat="47.846" lon="6.91834">
        <ele>1121.7</ele>
        <time>2026-08-27T07:10:01.117Z</time>
      </trkpt>
      <trkpt lat="47.84602" lon="6.91833">
        <ele>1121.4</ele>
        <time>2026-08-27T07:10:03.032Z</time>
      </trkpt>
      <trkpt lat="47.84603" lon="6.91833">
        <ele>1121.6</ele>
        <time>2026-08-27T07:10:04.040Z</time>
      </trkpt>
      <trkpt lat="47.84603" lon="6.91833">
        <ele>1121.6</ele>
        <time>2026-08-27T07:10:05.149Z</time>
      </trkpt>
      <trkpt lat="47.84605" lon="6.91834">
        <ele>1121.7</ele>
        <time>2026-08-27T07:10:07.165Z</time>
      </trkpt>
      <trkpt lat="47.84605" lon="6.91835">
        <ele>1121.9</ele>
        <time>2026-08-27T07:10:08.172Z</time>
      </trkpt>
      <trkpt lat="47.84607" lon="6.91835">
        <ele>1122</ele>
        <time>2026-08-27T07:10:10.089Z</time>
      </trkpt>
      <trkpt lat="47.84608" lon="6.91836">
        <ele>1122.2</ele>
        <time>2026-08-27T07:10:11.096Z</time>
      </trkpt>
      <trkpt lat="47.84609" lon="6.91836">
        <ele>1122.5</ele>
        <time>2026-08-27T07:10:12.105Z</time>
      </trkpt>
      <trkpt lat="47.8461" lon="6.91836">
        <ele>1122.6</ele>
        <time>2026-08-27T07:10:13.112Z</time>
      </trkpt>
      <trkpt lat="47.84611" lon="6.91836">
        <ele>1122.6</ele>
        <time>2026-08-27T07:10:14.120Z</time>
      </trkpt>
      <trkpt lat="47.84613" lon="6.91836">
        <ele>1122.5</ele>
        <time>2026-08-27T07:10:15.129Z</time>
      </trkpt>
      <trkpt lat="47.84615" lon="6.91836">
        <ele>1122.5</ele>
        <time>2026-08-27T07:10:17.144Z</time>
      </trkpt>
      <trkpt lat="47.84618" lon="6.91838">
        <ele>1122.1</ele>
        <time>2026-08-27T07:10:19.059Z</time>
      </trkpt>
      <trkpt lat="47.84618" lon="6.91839">
        <ele>1122.2</ele>
        <time>2026-08-27T07:10:20.068Z</time>
      </trkpt>
      <trkpt lat="47.84619" lon="6.9184">
        <ele>1122.2</ele>
        <time>2026-08-27T07:10:21.075Z</time>
      </trkpt>
      <trkpt lat="47.8462" lon="6.91841">
        <ele>1122</ele>
        <time>2026-08-27T07:10:22.184Z</time>
      </trkpt>
      <trkpt lat="47.84621" lon="6.91843">
        <ele>1122.1</ele>
        <time>2026-08-27T07:10:24.099Z</time>
      </trkpt>
      <trkpt lat="47.84622" lon="6.91844">
        <ele>1122</ele>
        <time>2026-08-27T07:10:25.107Z</time>
      </trkpt>
      <trkpt lat="47.84622" lon="6.91845">
        <ele>1122.1</ele>
        <time>2026-08-27T07:10:26.116Z</time>
      </trkpt>
      <trkpt lat="47.84623" lon="6.91845">
        <ele>1122.1</ele>
        <time>2026-08-27T07:10:27.123Z</time>
      </trkpt>
      <trkpt lat="47.84623" lon="6.91846">
        <ele>1122.1</ele>
        <time>2026-08-27T07:10:28.148Z</time>
      </trkpt>
      <trkpt lat="47.84624" lon="6.91846">
        <ele>1122</ele>
        <time>2026-08-27T07:10:30.047Z</time>
      </trkpt>
      <trkpt lat="47.84624" lon="6.91846">
        <ele>1121.8</ele>
        <time>2026-08-27T07:10:31.156Z</time>
      </trkpt>
      <trkpt lat="47.84625" lon="6.91847">
        <ele>1122.1</ele>
        <time>2026-08-27T07:10:33.070Z</time>
      </trkpt>
      <trkpt lat="47.84626" lon="6.91847">
        <ele>1122.1</ele>
        <time>2026-08-27T07:10:34.129Z</time>
      </trkpt>
      <trkpt lat="47.84627" lon="6.91847">
        <ele>1122.3</ele>
        <time>2026-08-27T07:10:36.094Z</time>
      </trkpt>
      <trkpt lat="47.84628" lon="6.91848">
        <ele>1122.3</ele>
        <time>2026-08-27T07:10:37.102Z</time>
      </trkpt>
      <trkpt lat="47.84629" lon="6.91848">
        <ele>1122.4</ele>
        <time>2026-08-27T07:10:38.110Z</time>
      </trkpt>
      <trkpt lat="47.84629" lon="6.91848">
        <ele>1122.2</ele>
        <time>2026-08-27T07:10:39.118Z</time>
      </trkpt>
      <trkpt lat="47.8463" lon="6.91849">
        <ele>1122.7</ele>
        <time>2026-08-27T07:10:40.126Z</time>
      </trkpt>
      <trkpt lat="47.84632" lon="6.9185">
        <ele>1122.9</ele>
        <time>2026-08-27T07:10:41.135Z</time>
      </trkpt>
      <trkpt lat="47.84633" lon="6.91851">
        <ele>1123.1</ele>
        <time>2026-08-27T07:10:42.142Z</time>
      </trkpt>
      <trkpt lat="47.84634" lon="6.91851">
        <ele>1123.3</ele>
        <time>2026-08-27T07:10:43.151Z</time>
      </trkpt>
      <trkpt lat="47.84635" lon="6.91852">
        <ele>1123.1</ele>
        <time>2026-08-27T07:10:44.158Z</time>
      </trkpt>
      <trkpt lat="47.84637" lon="6.91852">
        <ele>1123.6</ele>
        <time>2026-08-27T07:10:46.073Z</time>
      </trkpt>
      <trkpt lat="47.84638" lon="6.91853">
        <ele>1124</ele>
        <time>2026-08-27T07:10:47.082Z</time>
      </trkpt>
      <trkpt lat="47.84639" lon="6.91853">
        <ele>1123.9</ele>
        <time>2026-08-27T07:10:48.089Z</time>
      </trkpt>
      <trkpt lat="47.8464" lon="6.91853">
        <ele>1123.9</ele>
        <time>2026-08-27T07:10:49.089Z</time>
      </trkpt>
      <trkpt lat="47.8464" lon="6.91853">
        <ele>1124.1</ele>
        <time>2026-08-27T07:10:50.105Z</time>
      </trkpt>
      <trkpt lat="47.84641" lon="6.91854">
        <ele>1124.6</ele>
        <time>2026-08-27T07:10:51.114Z</time>
      </trkpt>
      <trkpt lat="47.84642" lon="6.91855">
        <ele>1124.7</ele>
        <time>2026-08-27T07:10:52.122Z</time>
      </trkpt>
      <trkpt lat="47.84643" lon="6.91855">
        <ele>1124.6</ele>
        <time>2026-08-27T07:10:53.129Z</time>
      </trkpt>
      <trkpt lat="47.84644" lon="6.91855">
        <ele>1124.8</ele>
        <time>2026-08-27T07:10:55.146Z</time>
      </trkpt>
      <trkpt lat="47.84646" lon="6.91855">
        <ele>1124.9</ele>
        <time>2026-08-27T07:10:57.162Z</time>
      </trkpt>
      <trkpt lat="47.84646" lon="6.91855">
        <ele>1125</ele>
        <time>2026-08-27T07:10:59.078Z</time>
      </trkpt>
      <trkpt lat="47.84647" lon="6.91856">
        <ele>1124.9</ele>
        <time>2026-08-27T07:11:00.085Z</time>
      </trkpt>
      <trkpt lat="47.84648" lon="6.91856">
        <ele>1124.7</ele>
        <time>2026-08-27T07:11:01.093Z</time>
      </trkpt>
      <trkpt lat="47.84648" lon="6.91856">
        <ele>1125.2</ele>
        <time>2026-08-27T07:11:02.102Z</time>
      </trkpt>
      <trkpt lat="47.84649" lon="6.91857">
        <ele>1125.2</ele>
        <time>2026-08-27T07:11:03.134Z</time>
      </trkpt>
      <trkpt lat="47.8465" lon="6.91858">
        <ele>1125</ele>
        <time>2026-08-27T07:11:05.151Z</time>
      </trkpt>
      <trkpt lat="47.8465" lon="6.91859">
        <ele>1126</ele>
        <time>2026-08-27T07:11:07.149Z</time>
      </trkpt>
      <trkpt lat="47.84651" lon="6.9186">
        <ele>1125.7</ele>
        <time>2026-08-27T07:11:08.410Z</time>
      </trkpt>
      <trkpt lat="47.84652" lon="6.91862">
        <ele>1126.5</ele>
        <time>2026-08-27T07:11:10.065Z</time>
      </trkpt>
      <trkpt lat="47.84652" lon="6.91862">
        <ele>1126.7</ele>
        <time>2026-08-27T07:11:11.073Z</time>
      </trkpt>
      <trkpt lat="47.84653" lon="6.91863">
        <ele>1126.7</ele>
        <time>2026-08-27T07:11:12.080Z</time>
      </trkpt>
      <trkpt lat="47.84654" lon="6.91864">
        <ele>1126.7</ele>
        <time>2026-08-27T07:11:13.114Z</time>
      </trkpt>
      <trkpt lat="47.84656" lon="6.91864">
        <ele>1125.9</ele>
        <time>2026-08-27T07:11:15.104Z</time>
      </trkpt>
      <trkpt lat="47.84656" lon="6.91865">
        <ele>1125.8</ele>
        <time>2026-08-27T07:11:16.112Z</time>
      </trkpt>
      <trkpt lat="47.84657" lon="6.91865">
        <ele>1125.8</ele>
        <time>2026-08-27T07:11:17.112Z</time>
      </trkpt>
      <trkpt lat="47.84658" lon="6.91865">
        <ele>1125.7</ele>
        <time>2026-08-27T07:11:18.129Z</time>
      </trkpt>
      <trkpt lat="47.8466" lon="6.91867">
        <ele>1125.7</ele>
        <time>2026-08-27T07:11:20.144Z</time>
      </trkpt>
      <trkpt lat="47.84661" lon="6.91867">
        <ele>1125.5</ele>
        <time>2026-08-27T07:11:22.009Z</time>
      </trkpt>
      <trkpt lat="47.84662" lon="6.91867">
        <ele>1125.6</ele>
        <time>2026-08-27T07:11:23.067Z</time>
      </trkpt>
      <trkpt lat="47.84662" lon="6.91867">
        <ele>1125.4</ele>
        <time>2026-08-27T07:11:24.076Z</time>
      </trkpt>
      <trkpt lat="47.84663" lon="6.91867">
        <ele>1125.4</ele>
        <time>2026-08-27T07:11:25.083Z</time>
      </trkpt>
      <trkpt lat="47.84664" lon="6.91867">
        <ele>1125.3</ele>
        <time>2026-08-27T07:11:26.092Z</time>
      </trkpt>
      <trkpt lat="47.84664" lon="6.91866">
        <ele>1125.2</ele>
        <time>2026-08-27T07:11:27.099Z</time>
      </trkpt>
      <trkpt lat="47.84665" lon="6.91867">
        <ele>1124.8</ele>
        <time>2026-08-27T07:11:29.115Z</time>
      </trkpt>
      <trkpt lat="47.84665" lon="6.91867">
        <ele>1124.8</ele>
        <time>2026-08-27T07:11:31.131Z</time>
      </trkpt>
      <trkpt lat="47.84664" lon="6.91867">
        <ele>1124.7</ele>
        <time>2026-08-27T07:11:32.139Z</time>
      </trkpt>
      <trkpt lat="47.84665" lon="6.91868">
        <ele>1124.8</ele>
        <time>2026-08-27T07:11:34.029Z</time>
      </trkpt>
      <trkpt lat="47.84666" lon="6.91868">
        <ele>1124.5</ele>
        <time>2026-08-27T07:11:35.063Z</time>
      </trkpt>
      <trkpt lat="47.84667" lon="6.91868">
        <ele>1124</ele>
        <time>2026-08-27T07:11:36.071Z</time>
      </trkpt>
      <trkpt lat="47.84667" lon="6.91868">
        <ele>1123.9</ele>
        <time>2026-08-27T07:11:37.078Z</time>
      </trkpt>
      <trkpt lat="47.84668" lon="6.91868">
        <ele>1124.1</ele>
        <time>2026-08-27T07:11:38.086Z</time>
      </trkpt>
      <trkpt lat="47.84668" lon="6.91868">
        <ele>1124.5</ele>
        <time>2026-08-27T07:11:39.095Z</time>
      </trkpt>
      <trkpt lat="47.84669" lon="6.91869">
        <ele>1124.3</ele>
        <time>2026-08-27T07:11:40.102Z</time>
      </trkpt>
      <trkpt lat="47.84669" lon="6.91869">
        <ele>1123.9</ele>
        <time>2026-08-27T07:11:41.110Z</time>
      </trkpt>
      <trkpt lat="47.8467" lon="6.91869">
        <ele>1123.6</ele>
        <time>2026-08-27T07:11:42.118Z</time>
      </trkpt>
      <trkpt lat="47.84671" lon="6.91869">
        <ele>1123.5</ele>
        <time>2026-08-27T07:11:43.127Z</time>
      </trkpt>
      <trkpt lat="47.84672" lon="6.91869">
        <ele>1123.3</ele>
        <time>2026-08-27T07:11:44.134Z</time>
      </trkpt>
      <trkpt lat="47.84674" lon="6.91869">
        <ele>1123.2</ele>
        <time>2026-08-27T07:11:45.142Z</time>
      </trkpt>
      <trkpt lat="47.84675" lon="6.91869">
        <ele>1123.4</ele>
        <time>2026-08-27T07:11:47.058Z</time>
      </trkpt>
      <trkpt lat="47.84676" lon="6.91868">
        <ele>1123.6</ele>
        <time>2026-08-27T07:11:48.065Z</time>
      </trkpt>
      <trkpt lat="47.84677" lon="6.91868">
        <ele>1123.8</ele>
        <time>2026-08-27T07:11:49.073Z</time>
      </trkpt>
      <trkpt lat="47.84678" lon="6.91867">
        <ele>1123.4</ele>
        <time>2026-08-27T07:11:50.081Z</time>
      </trkpt>
      <trkpt lat="47.84679" lon="6.91867">
        <ele>1123.8</ele>
        <time>2026-08-27T07:11:51.090Z</time>
      </trkpt>
      <trkpt lat="47.84681" lon="6.91868">
        <ele>1124.3</ele>
        <time>2026-08-27T07:11:53.105Z</time>
      </trkpt>
      <trkpt lat="47.84681" lon="6.91868">
        <ele>1124.1</ele>
        <time>2026-08-27T07:11:54.113Z</time>
      </trkpt>
      <trkpt lat="47.84682" lon="6.91869">
        <ele>1124.3</ele>
        <time>2026-08-27T07:11:55.121Z</time>
      </trkpt>
      <trkpt lat="47.84683" lon="6.9187">
        <ele>1123.7</ele>
        <time>2026-08-27T07:11:57.137Z</time>
      </trkpt>
      <trkpt lat="47.84686" lon="6.91871">
        <ele>1123.6</ele>
        <time>2026-08-27T07:11:59.053Z</time>
      </trkpt>
      <trkpt lat="47.84687" lon="6.91872">
        <ele>1123.5</ele>
        <time>2026-08-27T07:12:00.061Z</time>
      </trkpt>
      <trkpt lat="47.84689" lon="6.91872">
        <ele>1123.4</ele>
        <time>2026-08-27T07:12:02.177Z</time>
      </trkpt>
      <trkpt lat="47.84689" lon="6.91873">
        <ele>1123.3</ele>
        <time>2026-08-27T07:12:03.185Z</time>
      </trkpt>
      <trkpt lat="47.84691" lon="6.91874">
        <ele>1122.8</ele>
        <time>2026-08-27T07:12:05.101Z</time>
      </trkpt>
      <trkpt lat="47.84691" lon="6.91874">
        <ele>1122.7</ele>
        <time>2026-08-27T07:12:06.110Z</time>
      </trkpt>
      <trkpt lat="47.84693" lon="6.91875">
        <ele>1123.5</ele>
        <time>2026-08-27T07:12:08.126Z</time>
      </trkpt>
      <trkpt lat="47.84694" lon="6.91876">
        <ele>1123.2</ele>
        <time>2026-08-27T07:12:09.133Z</time>
      </trkpt>
      <trkpt lat="47.84696" lon="6.91875">
        <ele>1123</ele>
        <time>2026-08-27T07:12:11.074Z</time>
      </trkpt>
      <trkpt lat="47.84697" lon="6.91875">
        <ele>1122.4</ele>
        <time>2026-08-27T07:12:12.158Z</time>
      </trkpt>
      <trkpt lat="47.847" lon="6.91874">
        <ele>1122.2</ele>
        <time>2026-08-27T07:12:14.072Z</time>
      </trkpt>
      <trkpt lat="47.84701" lon="6.91873">
        <ele>1122.4</ele>
        <time>2026-08-27T07:12:15.081Z</time>
      </trkpt>
      <trkpt lat="47.84702" lon="6.91873">
        <ele>1122.2</ele>
        <time>2026-08-27T07:12:16.089Z</time>
      </trkpt>
      <trkpt lat="47.84703" lon="6.91873">
        <ele>1122.3</ele>
        <time>2026-08-27T07:12:17.096Z</time>
      </trkpt>
      <trkpt lat="47.84704" lon="6.91874">
        <ele>1122.3</ele>
        <time>2026-08-27T07:12:18.104Z</time>
      </trkpt>
      <trkpt lat="47.84704" lon="6.91876">
        <ele>1121.9</ele>
        <time>2026-08-27T07:12:19.112Z</time>
      </trkpt>
      <trkpt lat="47.84704" lon="6.91877">
        <ele>1122.1</ele>
        <time>2026-08-27T07:12:20.120Z</time>
      </trkpt>
      <trkpt lat="47.84705" lon="6.91879">
        <ele>1122</ele>
        <time>2026-08-27T07:12:21.128Z</time>
      </trkpt>
      <trkpt lat="47.84704" lon="6.91883">
        <ele>1122</ele>
        <time>2026-08-27T07:12:23.036Z</time>
      </trkpt>
      <trkpt lat="47.84703" lon="6.91885">
        <ele>1122.3</ele>
        <time>2026-08-27T07:12:24.135Z</time>
      </trkpt>
      <trkpt lat="47.84702" lon="6.91887">
        <ele>1121.2</ele>
        <time>2026-08-27T07:12:26.067Z</time>
      </trkpt>
      <trkpt lat="47.847" lon="6.91889">
        <ele>1121.1</ele>
        <time>2026-08-27T07:12:28.084Z</time>
      </trkpt>
      <trkpt lat="47.84699" lon="6.91891">
        <ele>1120.9</ele>
        <time>2026-08-27T07:12:30.149Z</time>
      </trkpt>
      <trkpt lat="47.84698" lon="6.91893">
        <ele>1120.9</ele>
        <time>2026-08-27T07:12:32.115Z</time>
      </trkpt>
      <trkpt lat="47.84697" lon="6.91894">
        <ele>1120.9</ele>
        <time>2026-08-27T07:12:33.115Z</time>
      </trkpt>
      <trkpt lat="47.84697" lon="6.91895">
        <ele>1119.9</ele>
        <time>2026-08-27T07:12:34.132Z</time>
      </trkpt>
      <trkpt lat="47.84698" lon="6.91899">
        <ele>1120.1</ele>
        <time>2026-08-27T07:12:36.047Z</time>
      </trkpt>
      <trkpt lat="47.84698" lon="6.919">
        <ele>1120.5</ele>
        <time>2026-08-27T07:12:37.054Z</time>
      </trkpt>
      <trkpt lat="47.847" lon="6.91902">
        <ele>1120.2</ele>
        <time>2026-08-27T07:12:38.063Z</time>
      </trkpt>
      <trkpt lat="47.84701" lon="6.91903">
        <ele>1120.2</ele>
        <time>2026-08-27T07:12:39.129Z</time>
      </trkpt>
      <trkpt lat="47.84703" lon="6.91906">
        <ele>1119.7</ele>
        <time>2026-08-27T07:12:41.128Z</time>
      </trkpt>
      <trkpt lat="47.84705" lon="6.91908">
        <ele>1119.2</ele>
        <time>2026-08-27T07:12:43.103Z</time>
      </trkpt>
      <trkpt lat="47.84706" lon="6.91909">
        <ele>1119.4</ele>
        <time>2026-08-27T07:12:44.110Z</time>
      </trkpt>
      <trkpt lat="47.84708" lon="6.9191">
        <ele>1119.2</ele>
        <time>2026-08-27T07:12:45.119Z</time>
      </trkpt>
      <trkpt lat="47.84709" lon="6.91911">
        <ele>1119.3</ele>
        <time>2026-08-27T07:12:46.136Z</time>
      </trkpt>
      <trkpt lat="47.84712" lon="6.91911">
        <ele>1119</ele>
        <time>2026-08-27T07:12:48.142Z</time>
      </trkpt>
      <trkpt lat="47.84714" lon="6.91912">
        <ele>1119.2</ele>
        <time>2026-08-27T07:12:50.109Z</time>
      </trkpt>
      <trkpt lat="47.84716" lon="6.91914">
        <ele>1119.4</ele>
        <time>2026-08-27T07:12:52.073Z</time>
      </trkpt>
      <trkpt lat="47.84717" lon="6.91915">
        <ele>1119.2</ele>
        <time>2026-08-27T07:12:53.082Z</time>
      </trkpt>
      <trkpt lat="47.84718" lon="6.91916">
        <ele>1118.7</ele>
        <time>2026-08-27T07:12:54.089Z</time>
      </trkpt>
      <trkpt lat="47.84719" lon="6.91918">
        <ele>1118.2</ele>
        <time>2026-08-27T07:12:56.106Z</time>
      </trkpt>
      <trkpt lat="47.84719" lon="6.91919">
        <ele>1118.2</ele>
        <time>2026-08-27T07:12:57.131Z</time>
      </trkpt>
      <trkpt lat="47.84721" lon="6.9192">
        <ele>1118</ele>
        <time>2026-08-27T07:12:59.029Z</time>
      </trkpt>
      <trkpt lat="47.84721" lon="6.91921">
        <ele>1117.9</ele>
        <time>2026-08-27T07:13:00.138Z</time>
      </trkpt>
      <trkpt lat="47.84723" lon="6.91923">
        <ele>1117.4</ele>
        <time>2026-08-27T07:13:02.153Z</time>
      </trkpt>
      <trkpt lat="47.84723" lon="6.91924">
        <ele>1116.9</ele>
        <time>2026-08-27T07:13:04.170Z</time>
      </trkpt>
      <trkpt lat="47.84723" lon="6.91925">
        <ele>1117.5</ele>
        <time>2026-08-27T07:13:06.084Z</time>
      </trkpt>
      <trkpt lat="47.84723" lon="6.91925">
        <ele>1117.6</ele>
        <time>2026-08-27T07:13:07.092Z</time>
      </trkpt>
      <trkpt lat="47.84724" lon="6.91925">
        <ele>1117.6</ele>
        <time>2026-08-27T07:13:08.134Z</time>
      </trkpt>
      <trkpt lat="47.84725" lon="6.91927">
        <ele>1116.9</ele>
        <time>2026-08-27T07:13:10.116Z</time>
      </trkpt>
      <trkpt lat="47.84727" lon="6.91928">
        <ele>1116.8</ele>
        <time>2026-08-27T07:13:11.125Z</time>
      </trkpt>
      <trkpt lat="47.84728" lon="6.91928">
        <ele>1116.8</ele>
        <time>2026-08-27T07:13:12.149Z</time>
      </trkpt>
      <trkpt lat="47.8473" lon="6.91929">
        <ele>1117</ele>
        <time>2026-08-27T07:13:14.148Z</time>
      </trkpt>
      <trkpt lat="47.84732" lon="6.91931">
        <ele>1117.2</ele>
        <time>2026-08-27T07:13:16.055Z</time>
      </trkpt>
      <trkpt lat="47.84732" lon="6.91931">
        <ele>1116.9</ele>
        <time>2026-08-27T07:13:17.073Z</time>
      </trkpt>
      <trkpt lat="47.84733" lon="6.91931">
        <ele>1116.9</ele>
        <time>2026-08-27T07:13:18.130Z</time>
      </trkpt>
      <trkpt lat="47.84734" lon="6.91931">
        <ele>1117.3</ele>
        <time>2026-08-27T07:13:20.096Z</time>
      </trkpt>
      <trkpt lat="47.84735" lon="6.91931">
        <ele>1117.3</ele>
        <time>2026-08-27T07:13:21.113Z</time>
      </trkpt>
      <trkpt lat="47.84735" lon="6.91932">
        <ele>1117.7</ele>
        <time>2026-08-27T07:13:22.113Z</time>
      </trkpt>
      <trkpt lat="47.84737" lon="6.91932">
        <ele>1117.1</ele>
        <time>2026-08-27T07:13:24.128Z</time>
      </trkpt>
      <trkpt lat="47.84737" lon="6.91932">
        <ele>1117</ele>
        <time>2026-08-27T07:13:25.136Z</time>
      </trkpt>
      <trkpt lat="47.84738" lon="6.91932">
        <ele>1117.1</ele>
        <time>2026-08-27T07:13:26.145Z</time>
      </trkpt>
      <trkpt lat="47.84738" lon="6.91932">
        <ele>1117.1</ele>
        <time>2026-08-27T07:13:27.152Z</time>
      </trkpt>
      <trkpt lat="47.84738" lon="6.91932">
        <ele>1117.2</ele>
        <time>2026-08-27T07:13:29.067Z</time>
      </trkpt>
      <trkpt lat="47.84739" lon="6.91932">
        <ele>1117.3</ele>
        <time>2026-08-27T07:13:30.075Z</time>
      </trkpt>
      <trkpt lat="47.8474" lon="6.91932">
        <ele>1116.8</ele>
        <time>2026-08-27T07:13:31.084Z</time>
      </trkpt>
      <trkpt lat="47.84741" lon="6.91932">
        <ele>1116.4</ele>
        <time>2026-08-27T07:13:32.091Z</time>
      </trkpt>
      <trkpt lat="47.84742" lon="6.91932">
        <ele>1116.3</ele>
        <time>2026-08-27T07:13:33.099Z</time>
      </trkpt>
      <trkpt lat="47.84743" lon="6.91932">
        <ele>1116.6</ele>
        <time>2026-08-27T07:13:34.107Z</time>
      </trkpt>
      <trkpt lat="47.84745" lon="6.91932">
        <ele>1116.8</ele>
        <time>2026-08-27T07:13:35.116Z</time>
      </trkpt>
      <trkpt lat="47.84746" lon="6.91932">
        <ele>1117</ele>
        <time>2026-08-27T07:13:36.124Z</time>
      </trkpt>
      <trkpt lat="47.84747" lon="6.91933">
        <ele>1116.7</ele>
        <time>2026-08-27T07:13:38.139Z</time>
      </trkpt>
      <trkpt lat="47.84749" lon="6.91931">
        <ele>1116.5</ele>
        <time>2026-08-27T07:13:40.054Z</time>
      </trkpt>
      <trkpt lat="47.84749" lon="6.9193">
        <ele>1116.5</ele>
        <time>2026-08-27T07:13:41.062Z</time>
      </trkpt>
      <trkpt lat="47.84749" lon="6.9193">
        <ele>1116.8</ele>
        <time>2026-08-27T07:13:42.070Z</time>
      </trkpt>
      <trkpt lat="47.84749" lon="6.91929">
        <ele>1116.9</ele>
        <time>2026-08-27T07:13:43.079Z</time>
      </trkpt>
      <trkpt lat="47.84749" lon="6.91929">
        <ele>1117.1</ele>
        <time>2026-08-27T07:13:44.086Z</time>
      </trkpt>
      <trkpt lat="47.84749" lon="6.91929">
        <ele>1117.2</ele>
        <time>2026-08-27T07:13:45.094Z</time>
      </trkpt>
      <trkpt lat="47.84749" lon="6.91929">
        <ele>1116.7</ele>
        <time>2026-08-27T07:13:46.102Z</time>
      </trkpt>
      <trkpt lat="47.84749" lon="6.9193">
        <ele>1117</ele>
        <time>2026-08-27T07:13:47.110Z</time>
      </trkpt>
      <trkpt lat="47.8475" lon="6.91931">
        <ele>1117.1</ele>
        <time>2026-08-27T07:13:48.118Z</time>
      </trkpt>
      <trkpt lat="47.84751" lon="6.91933">
        <ele>1117.1</ele>
        <time>2026-08-27T07:13:49.126Z</time>
      </trkpt>
      <trkpt lat="47.84752" lon="6.91934">
        <ele>1117.3</ele>
        <time>2026-08-27T07:13:50.152Z</time>
      </trkpt>
      <trkpt lat="47.84753" lon="6.91937">
        <ele>1117.2</ele>
        <time>2026-08-27T07:13:52.092Z</time>
      </trkpt>
      <trkpt lat="47.84754" lon="6.91938">
        <ele>1116.1</ele>
        <time>2026-08-27T07:13:54.065Z</time>
      </trkpt>
      <trkpt lat="47.84755" lon="6.91939">
        <ele>1116.1</ele>
        <time>2026-08-27T07:13:55.074Z</time>
      </trkpt>
      <trkpt lat="47.84755" lon="6.91942">
        <ele>1115.8</ele>
        <time>2026-08-27T07:13:57.090Z</time>
      </trkpt>
      <trkpt lat="47.84755" lon="6.91943">
        <ele>1115.7</ele>
        <time>2026-08-27T07:13:58.097Z</time>
      </trkpt>
      <trkpt lat="47.84755" lon="6.91944">
        <ele>1115.6</ele>
        <time>2026-08-27T07:13:59.105Z</time>
      </trkpt>
      <trkpt lat="47.84754" lon="6.91946">
        <ele>1114.7</ele>
        <time>2026-08-27T07:14:01.121Z</time>
      </trkpt>
      <trkpt lat="47.84754" lon="6.91947">
        <ele>1114.4</ele>
        <time>2026-08-27T07:14:02.130Z</time>
      </trkpt>
      <trkpt lat="47.84753" lon="6.9195">
        <ele>1114.9</ele>
        <time>2026-08-27T07:14:04.111Z</time>
      </trkpt>
      <trkpt lat="47.84751" lon="6.91953">
        <ele>1114.5</ele>
        <time>2026-08-27T07:14:06.060Z</time>
      </trkpt>
      <trkpt lat="47.84751" lon="6.91954">
        <ele>1114.2</ele>
        <time>2026-08-27T07:14:07.069Z</time>
      </trkpt>
      <trkpt lat="47.84751" lon="6.91957">
        <ele>1113.9</ele>
        <time>2026-08-27T07:14:09.109Z</time>
      </trkpt>
      <trkpt lat="47.84751" lon="6.9196">
        <ele>1114.1</ele>
        <time>2026-08-27T07:14:11.100Z</time>
      </trkpt>
      <trkpt lat="47.84752" lon="6.91962">
        <ele>1114.1</ele>
        <time>2026-08-27T07:14:13.108Z</time>
      </trkpt>
      <trkpt lat="47.84752" lon="6.91963">
        <ele>1114.1</ele>
        <time>2026-08-27T07:14:14.124Z</time>
      </trkpt>
      <trkpt lat="47.84754" lon="6.91965">
        <ele>1113.9</ele>
        <time>2026-08-27T07:14:16.140Z</time>
      </trkpt>
      <trkpt lat="47.84755" lon="6.91967">
        <ele>1113.8</ele>
        <time>2026-08-27T07:14:17.148Z</time>
      </trkpt>
      <trkpt lat="47.84756" lon="6.9197">
        <ele>1114</ele>
        <time>2026-08-27T07:14:19.164Z</time>
      </trkpt>
      <trkpt lat="47.84757" lon="6.91972">
        <ele>1113.4</ele>
        <time>2026-08-27T07:14:21.080Z</time>
      </trkpt>
      <trkpt lat="47.84758" lon="6.91974">
        <ele>1113</ele>
        <time>2026-08-27T07:14:22.087Z</time>
      </trkpt>
      <trkpt lat="47.84759" lon="6.91976">
        <ele>1112.9</ele>
        <time>2026-08-27T07:14:23.099Z</time>
      </trkpt>
      <trkpt lat="47.8476" lon="6.91977">
        <ele>1113</ele>
        <time>2026-08-27T07:14:24.107Z</time>
      </trkpt>
      <trkpt lat="47.84761" lon="6.91978">
        <ele>1112.9</ele>
        <time>2026-08-27T07:14:25.115Z</time>
      </trkpt>
      <trkpt lat="47.84761" lon="6.91979">
        <ele>1113.1</ele>
        <time>2026-08-27T07:14:26.124Z</time>
      </trkpt>
      <trkpt lat="47.84762" lon="6.9198">
        <ele>1113.1</ele>
        <time>2026-08-27T07:14:27.131Z</time>
      </trkpt>
      <trkpt lat="47.84763" lon="6.91981">
        <ele>1112.2</ele>
        <time>2026-08-27T07:14:28.139Z</time>
      </trkpt>
      <trkpt lat="47.84764" lon="6.91983">
        <ele>1112.2</ele>
        <time>2026-08-27T07:14:30.054Z</time>
      </trkpt>
      <trkpt lat="47.84765" lon="6.91985">
        <ele>1112.1</ele>
        <time>2026-08-27T07:14:31.062Z</time>
      </trkpt>
      <trkpt lat="47.84766" lon="6.91986">
        <ele>1112.6</ele>
        <time>2026-08-27T07:14:32.071Z</time>
      </trkpt>
      <trkpt lat="47.84768" lon="6.91989">
        <ele>1112.7</ele>
        <time>2026-08-27T07:14:34.091Z</time>
      </trkpt>
      <trkpt lat="47.84768" lon="6.9199">
        <ele>1112.3</ele>
        <time>2026-08-27T07:14:35.094Z</time>
      </trkpt>
      <trkpt lat="47.84769" lon="6.91992">
        <ele>1112</ele>
        <time>2026-08-27T07:14:36.103Z</time>
      </trkpt>
      <trkpt lat="47.8477" lon="6.91993">
        <ele>1111.7</ele>
        <time>2026-08-27T07:14:37.110Z</time>
      </trkpt>
      <trkpt lat="47.84771" lon="6.91994">
        <ele>1111.5</ele>
        <time>2026-08-27T07:14:38.119Z</time>
      </trkpt>
      <trkpt lat="47.84772" lon="6.91996">
        <ele>1111.4</ele>
        <time>2026-08-27T07:14:40.046Z</time>
      </trkpt>
      <trkpt lat="47.84773" lon="6.91998">
        <ele>1111.4</ele>
        <time>2026-08-27T07:14:42.050Z</time>
      </trkpt>
      <trkpt lat="47.84774" lon="6.91999">
        <ele>1111.4</ele>
        <time>2026-08-27T07:14:43.112Z</time>
      </trkpt>
      <trkpt lat="47.84773" lon="6.92001">
        <ele>1111.3</ele>
        <time>2026-08-27T07:14:45.074Z</time>
      </trkpt>
      <trkpt lat="47.84772" lon="6.92002">
        <ele>1111.6</ele>
        <time>2026-08-27T07:14:46.083Z</time>
      </trkpt>
      <trkpt lat="47.84771" lon="6.92004">
        <ele>1112.1</ele>
        <time>2026-08-27T07:14:48.098Z</time>
      </trkpt>
      <trkpt lat="47.84771" lon="6.92005">
        <ele>1112.1</ele>
        <time>2026-08-27T07:14:49.105Z</time>
      </trkpt>
      <trkpt lat="47.84771" lon="6.92006">
        <ele>1111.6</ele>
        <time>2026-08-27T07:14:50.113Z</time>
      </trkpt>
      <trkpt lat="47.84771" lon="6.92007">
        <ele>1111.2</ele>
        <time>2026-08-27T07:14:51.121Z</time>
      </trkpt>
      <trkpt lat="47.84771" lon="6.92008">
        <ele>1111.1</ele>
        <time>2026-08-27T07:14:52.129Z</time>
      </trkpt>
      <trkpt lat="47.84772" lon="6.92011">
        <ele>1110.6</ele>
        <time>2026-08-27T07:14:54.145Z</time>
      </trkpt>
      <trkpt lat="47.84772" lon="6.9201">
        <ele>1110.5</ele>
        <time>2026-08-27T07:14:56.061Z</time>
      </trkpt>
      <trkpt lat="47.84772" lon="6.92009">
        <ele>1110.7</ele>
        <time>2026-08-27T07:14:57.070Z</time>
      </trkpt>
      <trkpt lat="47.84772" lon="6.92009">
        <ele>1110.8</ele>
        <time>2026-08-27T07:14:58.077Z</time>
      </trkpt>
      <trkpt lat="47.84772" lon="6.92008">
        <ele>1110.8</ele>
        <time>2026-08-27T07:14:59.085Z</time>
      </trkpt>
      <trkpt lat="47.84772" lon="6.92008">
        <ele>1110.8</ele>
        <time>2026-08-27T07:15:00.093Z</time>
      </trkpt>
      <trkpt lat="47.84772" lon="6.92008">
        <ele>1110.8</ele>
        <time>2026-08-27T07:15:01.101Z</time>
      </trkpt>
      <trkpt lat="47.84772" lon="6.92008">
        <ele>1110.6</ele>
        <time>2026-08-27T07:15:02.109Z</time>
      </trkpt>
      <trkpt lat="47.84773" lon="6.92008">
        <ele>1110.7</ele>
        <time>2026-08-27T07:15:04.029Z</time>
      </trkpt>
      <trkpt lat="47.84773" lon="6.92009">
        <ele>1111.3</ele>
        <time>2026-08-27T07:15:05.036Z</time>
      </trkpt>
      <trkpt lat="47.84773" lon="6.92009">
        <ele>1111.1</ele>
        <time>2026-08-27T07:15:06.044Z</time>
      </trkpt>
      <trkpt lat="47.84773" lon="6.92009">
        <ele>1111.1</ele>
        <time>2026-08-27T07:15:07.052Z</time>
      </trkpt>
      <trkpt lat="47.84774" lon="6.92009">
        <ele>1111.2</ele>
        <time>2026-08-27T07:15:08.060Z</time>
      </trkpt>
      <trkpt lat="47.84774" lon="6.92009">
        <ele>1111.4</ele>
        <time>2026-08-27T07:15:09.069Z</time>
      </trkpt>
      <trkpt lat="47.84774" lon="6.92009">
        <ele>1111.2</ele>
        <time>2026-08-27T07:15:10.076Z</time>
      </trkpt>
      <trkpt lat="47.84774" lon="6.92009">
        <ele>1111.3</ele>
        <time>2026-08-27T07:15:11.084Z</time>
      </trkpt>
      <trkpt lat="47.84774" lon="6.92009">
        <ele>1111.3</ele>
        <time>2026-08-27T07:15:12.092Z</time>
      </trkpt>
      <trkpt lat="47.84774" lon="6.92009">
        <ele>1111.3</ele>
        <time>2026-08-27T07:15:13.100Z</time>
      </trkpt>
      <trkpt lat="47.84774" lon="6.92009">
        <ele>1111.6</ele>
        <time>2026-08-27T07:15:14.108Z</time>
      </trkpt>
      <trkpt lat="47.84774" lon="6.92009">
        <ele>1112.2</ele>
        <time>2026-08-27T07:15:16.024Z</time>
      </trkpt>
      <trkpt lat="47.84774" lon="6.92009">
        <ele>1112.3</ele>
        <time>2026-08-27T07:15:17.031Z</time>
      </trkpt>
      <trkpt lat="47.84774" lon="6.92009">
        <ele>1112.4</ele>
        <time>2026-08-27T07:15:18.039Z</time>
      </trkpt>
      <trkpt lat="47.84774" lon="6.92009">
        <ele>1112</ele>
        <time>2026-08-27T07:15:19.047Z</time>
      </trkpt>
      <trkpt lat="47.84774" lon="6.92009">
        <ele>1111.7</ele>
        <time>2026-08-27T07:15:20.056Z</time>
      </trkpt>
      <trkpt lat="47.84774" lon="6.92009">
        <ele>1111.2</ele>
        <time>2026-08-27T07:15:21.063Z</time>
      </trkpt>
      <trkpt lat="47.84774" lon="6.92009">
        <ele>1111.4</ele>
        <time>2026-08-27T07:15:22.071Z</time>
      </trkpt>
      <trkpt lat="47.84774" lon="6.9201">
        <ele>1111.1</ele>
        <time>2026-08-27T07:15:23.080Z</time>
      </trkpt>
      <trkpt lat="47.84774" lon="6.9201">
        <ele>1111.2</ele>
        <time>2026-08-27T07:15:24.088Z</time>
      </trkpt>
      <trkpt lat="47.84774" lon="6.9201">
        <ele>1111.3</ele>
        <time>2026-08-27T07:15:25.096Z</time>
      </trkpt>
      <trkpt lat="47.84774" lon="6.9201">
        <ele>1111.6</ele>
        <time>2026-08-27T07:15:26.104Z</time>
      </trkpt>
      <trkpt lat="47.84774" lon="6.92011">
        <ele>1111.6</ele>
        <time>2026-08-27T07:15:28.120Z</time>
      </trkpt>
      <trkpt lat="47.84774" lon="6.92011">
        <ele>1111.4</ele>
        <time>2026-08-27T07:15:30.035Z</time>
      </trkpt>
      <trkpt lat="47.84774" lon="6.92011">
        <ele>1111.3</ele>
        <time>2026-08-27T07:15:31.044Z</time>
      </trkpt>
      <trkpt lat="47.84774" lon="6.92011">
        <ele>1111.2</ele>
        <time>2026-08-27T07:15:32.052Z</time>
      </trkpt>
      <trkpt lat="47.84774" lon="6.92011">
        <ele>1111.3</ele>
        <time>2026-08-27T07:15:33.060Z</time>
      </trkpt>
      <trkpt lat="47.84774" lon="6.92012">
        <ele>1111.8</ele>
        <time>2026-08-27T07:15:34.068Z</time>
      </trkpt>
      <trkpt lat="47.84774" lon="6.92012">
        <ele>1111.5</ele>
        <time>2026-08-27T07:15:35.076Z</time>
      </trkpt>
      <trkpt lat="47.84775" lon="6.92012">
        <ele>1111.5</ele>
        <time>2026-08-27T07:15:36.084Z</time>
      </trkpt>
      <trkpt lat="47.84775" lon="6.92012">
        <ele>1111.5</ele>
        <time>2026-08-27T07:15:37.092Z</time>
      </trkpt>
      <trkpt lat="47.84775" lon="6.92012">
        <ele>1111.5</ele>
        <time>2026-08-27T07:15:38.100Z</time>
      </trkpt>
      <trkpt lat="47.84775" lon="6.92012">
        <ele>1111.5</ele>
        <time>2026-08-27T07:15:39.109Z</time>
      </trkpt>
      <trkpt lat="47.84775" lon="6.92012">
        <ele>1111.7</ele>
        <time>2026-08-27T07:15:41.024Z</time>
      </trkpt>
      <trkpt lat="47.84775" lon="6.92012">
        <ele>1111.7</ele>
        <time>2026-08-27T07:15:42.033Z</time>
      </trkpt>
      <trkpt lat="47.84776" lon="6.92012">
        <ele>1111.9</ele>
        <time>2026-08-27T07:15:43.040Z</time>
      </trkpt>
      <trkpt lat="47.84776" lon="6.92012">
        <ele>1112.2</ele>
        <time>2026-08-27T07:15:44.048Z</time>
      </trkpt>
      <trkpt lat="47.84776" lon="6.92012">
        <ele>1112.5</ele>
        <time>2026-08-27T07:15:45.057Z</time>
      </trkpt>
      <trkpt lat="47.84776" lon="6.92012">
        <ele>1112.6</ele>
        <time>2026-08-27T07:15:46.065Z</time>
      </trkpt>
      <trkpt lat="47.84776" lon="6.92012">
        <ele>1112.3</ele>
        <time>2026-08-27T07:15:47.073Z</time>
      </trkpt>
      <trkpt lat="47.84776" lon="6.92012">
        <ele>1112</ele>
        <time>2026-08-27T07:15:48.081Z</time>
      </trkpt>
      <trkpt lat="47.84776" lon="6.92012">
        <ele>1112</ele>
        <time>2026-08-27T07:15:49.089Z</time>
      </trkpt>
      <trkpt lat="47.84776" lon="6.92012">
        <ele>1112</ele>
        <time>2026-08-27T07:15:50.097Z</time>
      </trkpt>
      <trkpt lat="47.84777" lon="6.92012">
        <ele>1111.6</ele>
        <time>2026-08-27T07:15:51.106Z</time>
      </trkpt>
      <trkpt lat="47.84777" lon="6.92012">
        <ele>1111.2</ele>
        <time>2026-08-27T07:15:52.115Z</time>
      </trkpt>
      <trkpt lat="47.84777" lon="6.92012">
        <ele>1111.2</ele>
        <time>2026-08-27T07:15:54.029Z</time>
      </trkpt>
      <trkpt lat="47.84777" lon="6.92012">
        <ele>1111.7</ele>
        <time>2026-08-27T07:15:55.038Z</time>
      </trkpt>
      <trkpt lat="47.84777" lon="6.92012">
        <ele>1111.5</ele>
        <time>2026-08-27T07:15:56.045Z</time>
      </trkpt>
      <trkpt lat="47.84777" lon="6.92012">
        <ele>1111.4</ele>
        <time>2026-08-27T07:15:57.055Z</time>
      </trkpt>
      <trkpt lat="47.84777" lon="6.92012">
        <ele>1111.3</ele>
        <time>2026-08-27T07:15:58.063Z</time>
      </trkpt>
      <trkpt lat="47.84777" lon="6.92012">
        <ele>1111.1</ele>
        <time>2026-08-27T07:15:59.071Z</time>
      </trkpt>
      <trkpt lat="47.84777" lon="6.92012">
        <ele>1111.1</ele>
        <time>2026-08-27T07:16:00.078Z</time>
      </trkpt>
      <trkpt lat="47.84777" lon="6.92012">
        <ele>1111</ele>
        <time>2026-08-27T07:16:01.086Z</time>
      </trkpt>
      <trkpt lat="47.84777" lon="6.92012">
        <ele>1111.1</ele>
        <time>2026-08-27T07:16:02.095Z</time>
      </trkpt>
      <trkpt lat="47.84777" lon="6.92012">
        <ele>1111.1</ele>
        <time>2026-08-27T07:16:03.104Z</time>
      </trkpt>
      <trkpt lat="47.84777" lon="6.92012">
        <ele>1111.3</ele>
        <time>2026-08-27T07:16:04.111Z</time>
      </trkpt>
      <trkpt lat="47.84777" lon="6.92012">
        <ele>1111.4</ele>
        <time>2026-08-27T07:16:06.027Z</time>
      </trkpt>
      <trkpt lat="47.84777" lon="6.92012">
        <ele>1111.7</ele>
        <time>2026-08-27T07:16:07.034Z</time>
      </trkpt>
      <trkpt lat="47.84777" lon="6.92012">
        <ele>1111.9</ele>
        <time>2026-08-27T07:16:08.044Z</time>
      </trkpt>
      <trkpt lat="47.84777" lon="6.92012">
        <ele>1112</ele>
        <time>2026-08-27T07:16:09.051Z</time>
      </trkpt>
      <trkpt lat="47.84777" lon="6.92012">
        <ele>1111.7</ele>
        <time>2026-08-27T07:16:10.060Z</time>
      </trkpt>
      <trkpt lat="47.84777" lon="6.92012">
        <ele>1112</ele>
        <time>2026-08-27T07:16:11.067Z</time>
      </trkpt>
      <trkpt lat="47.84777" lon="6.92012">
        <ele>1112.1</ele>
        <time>2026-08-27T07:16:12.076Z</time>
      </trkpt>
      <trkpt lat="47.84777" lon="6.92012">
        <ele>1112.1</ele>
        <time>2026-08-27T07:16:13.083Z</time>
      </trkpt>
      <trkpt lat="47.84777" lon="6.92012">
        <ele>1112.6</ele>
        <time>2026-08-27T07:16:14.091Z</time>
      </trkpt>
      <trkpt lat="47.84777" lon="6.92012">
        <ele>1112.6</ele>
        <time>2026-08-27T07:16:15.100Z</time>
      </trkpt>
      <trkpt lat="47.84777" lon="6.92012">
        <ele>1112.4</ele>
        <time>2026-08-27T07:16:16.109Z</time>
      </trkpt>
      <trkpt lat="47.84777" lon="6.92012">
        <ele>1112.4</ele>
        <time>2026-08-27T07:16:17.117Z</time>
      </trkpt>
      <trkpt lat="47.84777" lon="6.92012">
        <ele>1112.2</ele>
        <time>2026-08-27T07:16:19.133Z</time>
      </trkpt>
      <trkpt lat="47.84776" lon="6.92012">
        <ele>1112.2</ele>
        <time>2026-08-27T07:16:21.048Z</time>
      </trkpt>
      <trkpt lat="47.84776" lon="6.92012">
        <ele>1112.2</ele>
        <time>2026-08-27T07:16:22.056Z</time>
      </trkpt>
      <trkpt lat="47.84776" lon="6.92012">
        <ele>1112.3</ele>
        <time>2026-08-27T07:16:23.064Z</time>
      </trkpt>
      <trkpt lat="47.84776" lon="6.92012">
        <ele>1112.3</ele>
        <time>2026-08-27T07:16:24.072Z</time>
      </trkpt>
      <trkpt lat="47.84776" lon="6.92012">
        <ele>1111.9</ele>
        <time>2026-08-27T07:16:25.081Z</time>
      </trkpt>
      <trkpt lat="47.84776" lon="6.92011">
        <ele>1111.9</ele>
        <time>2026-08-27T07:16:26.090Z</time>
      </trkpt>
      <trkpt lat="47.84776" lon="6.92011">
        <ele>1111.4</ele>
        <time>2026-08-27T07:16:27.097Z</time>
      </trkpt>
      <trkpt lat="47.84776" lon="6.92011">
        <ele>1111.8</ele>
        <time>2026-08-27T07:16:28.106Z</time>
      </trkpt>
      <trkpt lat="47.84776" lon="6.92011">
        <ele>1112</ele>
        <time>2026-08-27T07:16:29.113Z</time>
      </trkpt>
      <trkpt lat="47.84776" lon="6.92011">
        <ele>1111.9</ele>
        <time>2026-08-27T07:16:31.028Z</time>
      </trkpt>
      <trkpt lat="47.84776" lon="6.92011">
        <ele>1111.7</ele>
        <time>2026-08-27T07:16:32.037Z</time>
      </trkpt>
      <trkpt lat="47.84776" lon="6.92011">
        <ele>1111.5</ele>
        <time>2026-08-27T07:16:33.046Z</time>
      </trkpt>
      <trkpt lat="47.84776" lon="6.92011">
        <ele>1111.7</ele>
        <time>2026-08-27T07:16:34.053Z</time>
      </trkpt>
      <trkpt lat="47.84776" lon="6.92011">
        <ele>1111.4</ele>
        <time>2026-08-27T07:16:35.061Z</time>
      </trkpt>
      <trkpt lat="47.84776" lon="6.92011">
        <ele>1111.7</ele>
        <time>2026-08-27T07:16:36.069Z</time>
      </trkpt>
      <trkpt lat="47.84776" lon="6.92011">
        <ele>1111.9</ele>
        <time>2026-08-27T07:16:37.078Z</time>
      </trkpt>
      <trkpt lat="47.84776" lon="6.92011">
        <ele>1112</ele>
        <time>2026-08-27T07:16:38.085Z</time>
      </trkpt>
      <trkpt lat="47.84776" lon="6.92011">
        <ele>1111.9</ele>
        <time>2026-08-27T07:16:39.094Z</time>
      </trkpt>
      <trkpt lat="47.84775" lon="6.92011">
        <ele>1111.7</ele>
        <time>2026-08-27T07:16:40.102Z</time>
      </trkpt>
      <trkpt lat="47.84775" lon="6.92011">
        <ele>1111.4</ele>
        <time>2026-08-27T07:16:41.110Z</time>
      </trkpt>
      <trkpt lat="47.84775" lon="6.92011">
        <ele>1111.4</ele>
        <time>2026-08-27T07:16:42.119Z</time>
      </trkpt>
      <trkpt lat="47.84775" lon="6.92011">
        <ele>1111.8</ele>
        <time>2026-08-27T07:16:44.134Z</time>
      </trkpt>
      <trkpt lat="47.84775" lon="6.92011">
        <ele>1111.5</ele>
        <time>2026-08-27T07:16:46.151Z</time>
      </trkpt>
      <trkpt lat="47.84774" lon="6.92011">
        <ele>1111.4</ele>
        <time>2026-08-27T07:16:47.159Z</time>
      </trkpt>
      <trkpt lat="47.84774" lon="6.92012">
        <ele>1111.3</ele>
        <time>2026-08-27T07:16:48.167Z</time>
      </trkpt>
      <trkpt lat="47.84774" lon="6.92012">
        <ele>1111.2</ele>
        <time>2026-08-27T07:16:49.176Z</time>
      </trkpt>
      <trkpt lat="47.84775" lon="6.92012">
        <ele>1111.1</ele>
        <time>2026-08-27T07:16:50.183Z</time>
      </trkpt>
      <trkpt lat="47.84776" lon="6.92012">
        <ele>1111.1</ele>
        <time>2026-08-27T07:16:51.191Z</time>
      </trkpt>
      <trkpt lat="47.84777" lon="6.92012">
        <ele>1111.1</ele>
        <time>2026-08-27T07:16:53.107Z</time>
      </trkpt>
      <trkpt lat="47.84778" lon="6.92011">
        <ele>1111</ele>
        <time>2026-08-27T07:16:54.217Z</time>
      </trkpt>
      <trkpt lat="47.84779" lon="6.92009">
        <ele>1110.8</ele>
        <time>2026-08-27T07:16:56.135Z</time>
      </trkpt>
      <trkpt lat="47.84779" lon="6.92009">
        <ele>1110.6</ele>
        <time>2026-08-27T07:16:57.143Z</time>
      </trkpt>
      <trkpt lat="47.84779" lon="6.92008">
        <ele>1110.6</ele>
        <time>2026-08-27T07:16:58.147Z</time>
      </trkpt>
      <trkpt lat="47.8478" lon="6.92007">
        <ele>1110.9</ele>
        <time>2026-08-27T07:16:59.160Z</time>
      </trkpt>
      <trkpt lat="47.8478" lon="6.92006">
        <ele>1110.6</ele>
        <time>2026-08-27T07:17:00.168Z</time>
      </trkpt>
      <trkpt lat="47.84781" lon="6.92005">
        <ele>1110.5</ele>
        <time>2026-08-27T07:17:01.176Z</time>
      </trkpt>
      <trkpt lat="47.84782" lon="6.92005">
        <ele>1110</ele>
        <time>2026-08-27T07:17:02.185Z</time>
      </trkpt>
      <trkpt lat="47.84782" lon="6.92006">
        <ele>1109.9</ele>
        <time>2026-08-27T07:17:03.192Z</time>
      </trkpt>
      <trkpt lat="47.84783" lon="6.92006">
        <ele>1110</ele>
        <time>2026-08-27T07:17:05.108Z</time>
      </trkpt>
      <trkpt lat="47.84784" lon="6.92007">
        <ele>1110.1</ele>
        <time>2026-08-27T07:17:06.115Z</time>
      </trkpt>
      <trkpt lat="47.84786" lon="6.92007">
        <ele>1110</ele>
        <time>2026-08-27T07:17:08.132Z</time>
      </trkpt>
      <trkpt lat="47.84787" lon="6.92007">
        <ele>1109.9</ele>
        <time>2026-08-27T07:17:09.141Z</time>
      </trkpt>
      <trkpt lat="47.84788" lon="6.92007">
        <ele>1109.9</ele>
        <time>2026-08-27T07:17:10.185Z</time>
      </trkpt>
      <trkpt lat="47.8479" lon="6.92007">
        <ele>1109.7</ele>
        <time>2026-08-27T07:17:12.164Z</time>
      </trkpt>
      <trkpt lat="47.8479" lon="6.92006">
        <ele>1109.7</ele>
        <time>2026-08-27T07:17:13.173Z</time>
      </trkpt>
      <trkpt lat="47.84791" lon="6.92006">
        <ele>1109.6</ele>
        <time>2026-08-27T07:17:14.209Z</time>
      </trkpt>
      <trkpt lat="47.84793" lon="6.92006">
        <ele>1109.4</ele>
        <time>2026-08-27T07:17:16.142Z</time>
      </trkpt>
      <trkpt lat="47.84794" lon="6.92006">
        <ele>1108.8</ele>
        <time>2026-08-27T07:17:17.204Z</time>
      </trkpt>
      <trkpt lat="47.84796" lon="6.92007">
        <ele>1108.4</ele>
        <time>2026-08-27T07:17:19.119Z</time>
      </trkpt>
      <trkpt lat="47.84796" lon="6.92007">
        <ele>1108.3</ele>
        <time>2026-08-27T07:17:20.128Z</time>
      </trkpt>
      <trkpt lat="47.84795" lon="6.92008">
        <ele>1108.3</ele>
        <time>2026-08-27T07:17:21.166Z</time>
      </trkpt>
      <trkpt lat="47.84795" lon="6.92007">
        <ele>1108.2</ele>
        <time>2026-08-27T07:17:23.164Z</time>
      </trkpt>
      <trkpt lat="47.84795" lon="6.92007">
        <ele>1108.1</ele>
        <time>2026-08-27T07:17:25.080Z</time>
      </trkpt>
      <trkpt lat="47.84794" lon="6.92007">
        <ele>1108.1</ele>
        <time>2026-08-27T07:17:26.088Z</time>
      </trkpt>
      <trkpt lat="47.84794" lon="6.92006">
        <ele>1108.7</ele>
        <time>2026-08-27T07:17:27.096Z</time>
      </trkpt>
      <trkpt lat="47.84794" lon="6.92006">
        <ele>1108.7</ele>
        <time>2026-08-27T07:17:28.104Z</time>
      </trkpt>
      <trkpt lat="47.84794" lon="6.92006">
        <ele>1108.6</ele>
        <time>2026-08-27T07:17:29.113Z</time>
      </trkpt>
      <trkpt lat="47.84794" lon="6.92006">
        <ele>1108.5</ele>
        <time>2026-08-27T07:17:30.121Z</time>
      </trkpt>
      <trkpt lat="47.84794" lon="6.92006">
        <ele>1108.6</ele>
        <time>2026-08-27T07:17:31.129Z</time>
      </trkpt>
      <trkpt lat="47.84794" lon="6.92006">
        <ele>1108.5</ele>
        <time>2026-08-27T07:17:32.136Z</time>
      </trkpt>
      <trkpt lat="47.84794" lon="6.92006">
        <ele>1108.4</ele>
        <time>2026-08-27T07:17:33.144Z</time>
      </trkpt>
      <trkpt lat="47.84794" lon="6.92006">
        <ele>1108.4</ele>
        <time>2026-08-27T07:17:34.153Z</time>
      </trkpt>
      <trkpt lat="47.84794" lon="6.92006">
        <ele>1108.6</ele>
        <time>2026-08-27T07:17:35.160Z</time>
      </trkpt>
      <trkpt lat="47.84794" lon="6.92006">
        <ele>1108.7</ele>
        <time>2026-08-27T07:17:37.177Z</time>
      </trkpt>
      <trkpt lat="47.84794" lon="6.92006">
        <ele>1108.6</ele>
        <time>2026-08-27T07:17:39.092Z</time>
      </trkpt>
      <trkpt lat="47.84794" lon="6.92006">
        <ele>1108.7</ele>
        <time>2026-08-27T07:17:40.100Z</time>
      </trkpt>
      <trkpt lat="47.84794" lon="6.92006">
        <ele>1108.9</ele>
        <time>2026-08-27T07:17:41.109Z</time>
      </trkpt>
      <trkpt lat="47.84794" lon="6.92006">
        <ele>1109.1</ele>
        <time>2026-08-27T07:17:42.116Z</time>
      </trkpt>
      <trkpt lat="47.84794" lon="6.92006">
        <ele>1109.1</ele>
        <time>2026-08-27T07:17:43.125Z</time>
      </trkpt>
      <trkpt lat="47.84794" lon="6.92006">
        <ele>1109</ele>
        <time>2026-08-27T07:17:45.141Z</time>
      </trkpt>
      <trkpt lat="47.84794" lon="6.92006">
        <ele>1108.8</ele>
        <time>2026-08-27T07:17:46.150Z</time>
      </trkpt>
      <trkpt lat="47.84794" lon="6.92006">
        <ele>1108.7</ele>
        <time>2026-08-27T07:17:47.158Z</time>
      </trkpt>
      <trkpt lat="47.84794" lon="6.92006">
        <ele>1108.6</ele>
        <time>2026-08-27T07:17:48.167Z</time>
      </trkpt>
      <trkpt lat="47.84794" lon="6.92006">
        <ele>1108.6</ele>
        <time>2026-08-27T07:17:49.175Z</time>
      </trkpt>
      <trkpt lat="47.84794" lon="6.92006">
        <ele>1108.5</ele>
        <time>2026-08-27T07:17:50.183Z</time>
      </trkpt>
      <trkpt lat="47.84794" lon="6.92006">
        <ele>1108.5</ele>
        <time>2026-08-27T07:17:52.099Z</time>
      </trkpt>
      <trkpt lat="47.84794" lon="6.92006">
        <ele>1108.3</ele>
        <time>2026-08-27T07:17:53.106Z</time>
      </trkpt>
      <trkpt lat="47.84794" lon="6.92006">
        <ele>1108.4</ele>
        <time>2026-08-27T07:17:54.114Z</time>
      </trkpt>
      <trkpt lat="47.84794" lon="6.92006">
        <ele>1107.9</ele>
        <time>2026-08-27T07:17:55.122Z</time>
      </trkpt>
      <trkpt lat="47.84794" lon="6.92006">
        <ele>1108.4</ele>
        <time>2026-08-27T07:17:56.132Z</time>
      </trkpt>
      <trkpt lat="47.84794" lon="6.92006">
        <ele>1108.5</ele>
        <time>2026-08-27T07:17:57.139Z</time>
      </trkpt>
      <trkpt lat="47.84794" lon="6.92006">
        <ele>1108.5</ele>
        <time>2026-08-27T07:17:58.148Z</time>
      </trkpt>
      <trkpt lat="47.84794" lon="6.92006">
        <ele>1108.3</ele>
        <time>2026-08-27T07:17:59.155Z</time>
      </trkpt>
      <trkpt lat="47.84794" lon="6.92006">
        <ele>1108.4</ele>
        <time>2026-08-27T07:18:00.164Z</time>
      </trkpt>
      <trkpt lat="47.84794" lon="6.92006">
        <ele>1108.2</ele>
        <time>2026-08-27T07:18:01.172Z</time>
      </trkpt>
      <trkpt lat="47.84794" lon="6.92006">
        <ele>1108.1</ele>
        <time>2026-08-27T07:18:03.088Z</time>
      </trkpt>
      <trkpt lat="47.84794" lon="6.92006">
        <ele>1108.3</ele>
        <time>2026-08-27T07:18:04.197Z</time>
      </trkpt>
      <trkpt lat="47.84794" lon="6.92006">
        <ele>1108.4</ele>
        <time>2026-08-27T07:18:06.112Z</time>
      </trkpt>
      <trkpt lat="47.84795" lon="6.92006">
        <ele>1108.4</ele>
        <time>2026-08-27T07:18:07.122Z</time>
      </trkpt>
      <trkpt lat="47.84795" lon="6.92006">
        <ele>1108.3</ele>
        <time>2026-08-27T07:18:08.129Z</time>
      </trkpt>
      <trkpt lat="47.84795" lon="6.92006">
        <ele>1108.5</ele>
        <time>2026-08-27T07:18:09.137Z</time>
      </trkpt>
      <trkpt lat="47.84795" lon="6.92006">
        <ele>1108.7</ele>
        <time>2026-08-27T07:18:10.145Z</time>
      </trkpt>
      <trkpt lat="47.84795" lon="6.92006">
        <ele>1108.8</ele>
        <time>2026-08-27T07:18:11.154Z</time>
      </trkpt>
      <trkpt lat="47.84795" lon="6.92006">
        <ele>1108.8</ele>
        <time>2026-08-27T07:18:12.162Z</time>
      </trkpt>
      <trkpt lat="47.84795" lon="6.92006">
        <ele>1108.8</ele>
        <time>2026-08-27T07:18:13.171Z</time>
      </trkpt>
      <trkpt lat="47.84795" lon="6.92006">
        <ele>1108.5</ele>
        <time>2026-08-27T07:18:15.087Z</time>
      </trkpt>
      <trkpt lat="47.84795" lon="6.92006">
        <ele>1108.5</ele>
        <time>2026-08-27T07:18:16.094Z</time>
      </trkpt>
      <trkpt lat="47.84795" lon="6.92006">
        <ele>1108.4</ele>
        <time>2026-08-27T07:18:17.102Z</time>
      </trkpt>
      <trkpt lat="47.84795" lon="6.92006">
        <ele>1108.4</ele>
        <time>2026-08-27T07:18:18.211Z</time>
      </trkpt>
      <trkpt lat="47.84795" lon="6.92006">
        <ele>1108.5</ele>
        <time>2026-08-27T07:18:20.127Z</time>
      </trkpt>
      <trkpt lat="47.84795" lon="6.92006">
        <ele>1108.4</ele>
        <time>2026-08-27T07:18:21.135Z</time>
      </trkpt>
      <trkpt lat="47.84795" lon="6.92006">
        <ele>1108.1</ele>
        <time>2026-08-27T07:18:22.143Z</time>
      </trkpt>
      <trkpt lat="47.84795" lon="6.92006">
        <ele>1108.2</ele>
        <time>2026-08-27T07:18:23.152Z</time>
      </trkpt>
      <trkpt lat="47.84795" lon="6.92006">
        <ele>1108.2</ele>
        <time>2026-08-27T07:18:24.160Z</time>
      </trkpt>
      <trkpt lat="47.84795" lon="6.92006">
        <ele>1108.6</ele>
        <time>2026-08-27T07:18:25.169Z</time>
      </trkpt>
      <trkpt lat="47.84795" lon="6.92006">
        <ele>1108.4</ele>
        <time>2026-08-27T07:18:26.176Z</time>
      </trkpt>
      <trkpt lat="47.84795" lon="6.92006">
        <ele>1108.4</ele>
        <time>2026-08-27T07:18:27.185Z</time>
      </trkpt>
      <trkpt lat="47.84795" lon="6.92006">
        <ele>1108.1</ele>
        <time>2026-08-27T07:18:29.100Z</time>
      </trkpt>
      <trkpt lat="47.84795" lon="6.92006">
        <ele>1107.8</ele>
        <time>2026-08-27T07:18:30.108Z</time>
      </trkpt>
      <trkpt lat="47.84796" lon="6.92006">
        <ele>1107.7</ele>
        <time>2026-08-27T07:18:31.118Z</time>
      </trkpt>
      <trkpt lat="47.84796" lon="6.92006">
        <ele>1107.7</ele>
        <time>2026-08-27T07:18:32.125Z</time>
      </trkpt>
      <trkpt lat="47.84796" lon="6.92006">
        <ele>1107.9</ele>
        <time>2026-08-27T07:18:33.133Z</time>
      </trkpt>
      <trkpt lat="47.84796" lon="6.92006">
        <ele>1108</ele>
        <time>2026-08-27T07:18:34.141Z</time>
      </trkpt>
      <trkpt lat="47.84796" lon="6.92006">
        <ele>1108</ele>
        <time>2026-08-27T07:18:35.151Z</time>
      </trkpt>
      <trkpt lat="47.84796" lon="6.92006">
        <ele>1107.9</ele>
        <time>2026-08-27T07:18:36.158Z</time>
      </trkpt>
      <trkpt lat="47.84796" lon="6.92006">
        <ele>1107.9</ele>
        <time>2026-08-27T07:18:37.166Z</time>
      </trkpt>
      <trkpt lat="47.84796" lon="6.92005">
        <ele>1108.2</ele>
        <time>2026-08-27T07:18:39.082Z</time>
      </trkpt>
      <trkpt lat="47.84796" lon="6.92005">
        <ele>1108.4</ele>
        <time>2026-08-27T07:18:40.091Z</time>
      </trkpt>
      <trkpt lat="47.84796" lon="6.92005">
        <ele>1108.4</ele>
        <time>2026-08-27T07:18:41.098Z</time>
      </trkpt>
      <trkpt lat="47.84796" lon="6.92005">
        <ele>1108.4</ele>
        <time>2026-08-27T07:18:42.107Z</time>
      </trkpt>
      <trkpt lat="47.84796" lon="6.92005">
        <ele>1108.1</ele>
        <time>2026-08-27T07:18:43.115Z</time>
      </trkpt>
      <trkpt lat="47.84796" lon="6.92005">
        <ele>1108.1</ele>
        <time>2026-08-27T07:18:44.123Z</time>
      </trkpt>
      <trkpt lat="47.84796" lon="6.92005">
        <ele>1108.3</ele>
        <time>2026-08-27T07:18:45.131Z</time>
      </trkpt>
      <trkpt lat="47.84796" lon="6.92005">
        <ele>1108</ele>
        <time>2026-08-27T07:18:46.141Z</time>
      </trkpt>
      <trkpt lat="47.84796" lon="6.92005">
        <ele>1108</ele>
        <time>2026-08-27T07:18:47.148Z</time>
      </trkpt>
      <trkpt lat="47.84796" lon="6.92005">
        <ele>1107.9</ele>
        <time>2026-08-27T07:18:48.156Z</time>
      </trkpt>
      <trkpt lat="47.84796" lon="6.92005">
        <ele>1108.1</ele>
        <time>2026-08-27T07:18:49.164Z</time>
      </trkpt>
      <trkpt lat="47.84796" lon="6.92005">
        <ele>1107.7</ele>
        <time>2026-08-27T07:18:51.182Z</time>
      </trkpt>
      <trkpt lat="47.84796" lon="6.92005">
        <ele>1107.8</ele>
        <time>2026-08-27T07:18:52.189Z</time>
      </trkpt>
      <trkpt lat="47.84796" lon="6.92005">
        <ele>1108.1</ele>
        <time>2026-08-27T07:18:54.105Z</time>
      </trkpt>
      <trkpt lat="47.84796" lon="6.92005">
        <ele>1108</ele>
        <time>2026-08-27T07:18:55.113Z</time>
      </trkpt>
      <trkpt lat="47.84796" lon="6.92005">
        <ele>1107.9</ele>
        <time>2026-08-27T07:18:56.122Z</time>
      </trkpt>
      <trkpt lat="47.84796" lon="6.92005">
        <ele>1107.9</ele>
        <time>2026-08-27T07:18:57.122Z</time>
      </trkpt>
      <trkpt lat="47.84796" lon="6.92005">
        <ele>1107.5</ele>
        <time>2026-08-27T07:18:58.138Z</time>
      </trkpt>
      <trkpt lat="47.84796" lon="6.92005">
        <ele>1107.2</ele>
        <time>2026-08-27T07:18:59.147Z</time>
      </trkpt>
      <trkpt lat="47.84796" lon="6.92004">
        <ele>1107.1</ele>
        <time>2026-08-27T07:19:00.155Z</time>
      </trkpt>
      <trkpt lat="47.84796" lon="6.92005">
        <ele>1107</ele>
        <time>2026-08-27T07:19:01.164Z</time>
      </trkpt>
      <trkpt lat="47.84797" lon="6.92005">
        <ele>1107.1</ele>
        <time>2026-08-27T07:19:03.180Z</time>
      </trkpt>
      <trkpt lat="47.84797" lon="6.92005">
        <ele>1107.1</ele>
        <time>2026-08-27T07:19:04.188Z</time>
      </trkpt>
      <trkpt lat="47.84798" lon="6.92005">
        <ele>1107.1</ele>
        <time>2026-08-27T07:19:05.197Z</time>
      </trkpt>
      <trkpt lat="47.84798" lon="6.92006">
        <ele>1106.6</ele>
        <time>2026-08-27T07:19:07.112Z</time>
      </trkpt>
      <trkpt lat="47.84799" lon="6.92006">
        <ele>1106.5</ele>
        <time>2026-08-27T07:19:08.221Z</time>
      </trkpt>
      <trkpt lat="47.848" lon="6.92007">
        <ele>1106.6</ele>
        <time>2026-08-27T07:19:10.036Z</time>
      </trkpt>
      <trkpt lat="47.84801" lon="6.92007">
        <ele>1106.3</ele>
        <time>2026-08-27T07:19:11.146Z</time>
      </trkpt>
      <trkpt lat="47.84802" lon="6.92008">
        <ele>1105.9</ele>
        <time>2026-08-27T07:19:12.154Z</time>
      </trkpt>
      <trkpt lat="47.84803" lon="6.92009">
        <ele>1105.9</ele>
        <time>2026-08-27T07:19:13.197Z</time>
      </trkpt>
      <trkpt lat="47.84804" lon="6.92009">
        <ele>1105.5</ele>
        <time>2026-08-27T07:19:15.120Z</time>
      </trkpt>
      <trkpt lat="47.84805" lon="6.9201">
        <ele>1105</ele>
        <time>2026-08-27T07:19:16.187Z</time>
      </trkpt>
      <trkpt lat="47.84806" lon="6.9201">
        <ele>1104.8</ele>
        <time>2026-08-27T07:19:17.196Z</time>
      </trkpt>
      <trkpt lat="47.84806" lon="6.92011">
        <ele>1104.7</ele>
        <time>2026-08-27T07:19:18.204Z</time>
      </trkpt>
      <trkpt lat="47.84808" lon="6.92012">
        <ele>1104.1</ele>
        <time>2026-08-27T07:19:20.119Z</time>
      </trkpt>
      <trkpt lat="47.8481" lon="6.92013">
        <ele>1103.5</ele>
        <time>2026-08-27T07:19:22.136Z</time>
      </trkpt>
      <trkpt lat="47.84811" lon="6.92013">
        <ele>1102.9</ele>
        <time>2026-08-27T07:19:23.145Z</time>
      </trkpt>
      <trkpt lat="47.84812" lon="6.92014">
        <ele>1102.8</ele>
        <time>2026-08-27T07:19:24.152Z</time>
      </trkpt>
      <trkpt lat="47.84813" lon="6.92014">
        <ele>1102.8</ele>
        <time>2026-08-27T07:19:25.177Z</time>
      </trkpt>
      <trkpt lat="47.84814" lon="6.92015">
        <ele>1102.8</ele>
        <time>2026-08-27T07:19:27.176Z</time>
      </trkpt>
      <trkpt lat="47.84815" lon="6.92016">
        <ele>1102.4</ele>
        <time>2026-08-27T07:19:28.186Z</time>
      </trkpt>
      <trkpt lat="47.84816" lon="6.92016">
        <ele>1102.3</ele>
        <time>2026-08-27T07:19:29.193Z</time>
      </trkpt>
      <trkpt lat="47.84818" lon="6.92018">
        <ele>1102</ele>
        <time>2026-08-27T07:19:31.109Z</time>
      </trkpt>
      <trkpt lat="47.84819" lon="6.92018">
        <ele>1102</ele>
        <time>2026-08-27T07:19:32.118Z</time>
      </trkpt>
      <trkpt lat="47.8482" lon="6.92019">
        <ele>1102</ele>
        <time>2026-08-27T07:19:33.126Z</time>
      </trkpt>
      <trkpt lat="47.8482" lon="6.9202">
        <ele>1102</ele>
        <time>2026-08-27T07:19:34.134Z</time>
      </trkpt>
      <trkpt lat="47.84821" lon="6.92022">
        <ele>1102</ele>
        <time>2026-08-27T07:19:35.141Z</time>
      </trkpt>
      <trkpt lat="47.84821" lon="6.92022">
        <ele>1102.1</ele>
        <time>2026-08-27T07:19:36.150Z</time>
      </trkpt>
      <trkpt lat="47.8482" lon="6.92022">
        <ele>1102.3</ele>
        <time>2026-08-27T07:19:37.158Z</time>
      </trkpt>
      <trkpt lat="47.8482" lon="6.92022">
        <ele>1102.7</ele>
        <time>2026-08-27T07:19:38.166Z</time>
      </trkpt>
      <trkpt lat="47.8482" lon="6.92022">
        <ele>1102.9</ele>
        <time>2026-08-27T07:19:39.174Z</time>
      </trkpt>
      <trkpt lat="47.8482" lon="6.92021">
        <ele>1102.6</ele>
        <time>2026-08-27T07:19:40.182Z</time>
      </trkpt>
      <trkpt lat="47.8482" lon="6.92021">
        <ele>1102.2</ele>
        <time>2026-08-27T07:19:41.190Z</time>
      </trkpt>
      <trkpt lat="47.8482" lon="6.92021">
        <ele>1102.1</ele>
        <time>2026-08-27T07:19:42.199Z</time>
      </trkpt>
      <trkpt lat="47.8482" lon="6.9202">
        <ele>1102.3</ele>
        <time>2026-08-27T07:19:43.207Z</time>
      </trkpt>
      <trkpt lat="47.84819" lon="6.9202">
        <ele>1101.7</ele>
        <time>2026-08-27T07:19:44.215Z</time>
      </trkpt>
      <trkpt lat="47.84818" lon="6.92019">
        <ele>1101.8</ele>
        <time>2026-08-27T07:19:46.130Z</time>
      </trkpt>
      <trkpt lat="47.84818" lon="6.9202">
        <ele>1102</ele>
        <time>2026-08-27T07:19:47.139Z</time>
      </trkpt>
      <trkpt lat="47.84819" lon="6.9202">
        <ele>1102</ele>
        <time>2026-08-27T07:19:48.155Z</time>
      </trkpt>
      <trkpt lat="47.84819" lon="6.9202">
        <ele>1101.8</ele>
        <time>2026-08-27T07:19:49.155Z</time>
      </trkpt>
      <trkpt lat="47.8482" lon="6.92021">
        <ele>1101.3</ele>
        <time>2026-08-27T07:19:51.171Z</time>
      </trkpt>
      <trkpt lat="47.84821" lon="6.92022">
        <ele>1101</ele>
        <time>2026-08-27T07:19:52.183Z</time>
      </trkpt>
      <trkpt lat="47.84823" lon="6.92023">
        <ele>1100.8</ele>
        <time>2026-08-27T07:19:54.112Z</time>
      </trkpt>
      <trkpt lat="47.84824" lon="6.92024">
        <ele>1100.5</ele>
        <time>2026-08-27T07:19:55.187Z</time>
      </trkpt>
      <trkpt lat="47.84825" lon="6.92027">
        <ele>1100.3</ele>
        <time>2026-08-27T07:19:57.069Z</time>
      </trkpt>
      <trkpt lat="47.84825" lon="6.92028">
        <ele>1100.5</ele>
        <time>2026-08-27T07:19:58.095Z</time>
      </trkpt>
      <trkpt lat="47.84825" lon="6.92029">
        <ele>1100.3</ele>
        <time>2026-08-27T07:19:59.127Z</time>
      </trkpt>
      <trkpt lat="47.84825" lon="6.9203">
        <ele>1100.1</ele>
        <time>2026-08-27T07:20:00.170Z</time>
      </trkpt>
      <trkpt lat="47.84826" lon="6.92032">
        <ele>1099.4</ele>
        <time>2026-08-27T07:20:02.168Z</time>
      </trkpt>
      <trkpt lat="47.84826" lon="6.92033">
        <ele>1099.2</ele>
        <time>2026-08-27T07:20:03.176Z</time>
      </trkpt>
      <trkpt lat="47.84827" lon="6.92035">
        <ele>1099</ele>
        <time>2026-08-27T07:20:04.185Z</time>
      </trkpt>
      <trkpt lat="47.84827" lon="6.92035">
        <ele>1098.6</ele>
        <time>2026-08-27T07:20:05.193Z</time>
      </trkpt>
      <trkpt lat="47.84828" lon="6.92037">
        <ele>1098.8</ele>
        <time>2026-08-27T07:20:07.108Z</time>
      </trkpt>
      <trkpt lat="47.84829" lon="6.92037">
        <ele>1098.8</ele>
        <time>2026-08-27T07:20:08.151Z</time>
      </trkpt>
      <trkpt lat="47.8483" lon="6.92038">
        <ele>1097.5</ele>
        <time>2026-08-27T07:20:10.133Z</time>
      </trkpt>
      <trkpt lat="47.84831" lon="6.92039">
        <ele>1097</ele>
        <time>2026-08-27T07:20:11.142Z</time>
      </trkpt>
      <trkpt lat="47.84832" lon="6.9204">
        <ele>1096.7</ele>
        <time>2026-08-27T07:20:12.149Z</time>
      </trkpt>
      <trkpt lat="47.84832" lon="6.92041">
        <ele>1096.5</ele>
        <time>2026-08-27T07:20:13.157Z</time>
      </trkpt>
      <trkpt lat="47.84833" lon="6.92041">
        <ele>1096.4</ele>
        <time>2026-08-27T07:20:14.165Z</time>
      </trkpt>
      <trkpt lat="47.84833" lon="6.92042">
        <ele>1096.4</ele>
        <time>2026-08-27T07:20:15.173Z</time>
      </trkpt>
      <trkpt lat="47.84834" lon="6.92043">
        <ele>1096.4</ele>
        <time>2026-08-27T07:20:16.181Z</time>
      </trkpt>
      <trkpt lat="47.84835" lon="6.92043">
        <ele>1096.7</ele>
        <time>2026-08-27T07:20:17.189Z</time>
      </trkpt>
      <trkpt lat="47.84836" lon="6.92044">
        <ele>1096.8</ele>
        <time>2026-08-27T07:20:18.206Z</time>
      </trkpt>
      <trkpt lat="47.84836" lon="6.92044">
        <ele>1096.9</ele>
        <time>2026-08-27T07:20:19.206Z</time>
      </trkpt>
      <trkpt lat="47.84837" lon="6.92045">
        <ele>1096.8</ele>
        <time>2026-08-27T07:20:20.215Z</time>
      </trkpt>
      <trkpt lat="47.84838" lon="6.92047">
        <ele>1096.9</ele>
        <time>2026-08-27T07:20:22.129Z</time>
      </trkpt>
      <trkpt lat="47.84838" lon="6.92048">
        <ele>1096.9</ele>
        <time>2026-08-27T07:20:23.129Z</time>
      </trkpt>
      <trkpt lat="47.84838" lon="6.92049">
        <ele>1096.9</ele>
        <time>2026-08-27T07:20:24.145Z</time>
      </trkpt>
      <trkpt lat="47.84839" lon="6.9205">
        <ele>1097.5</ele>
        <time>2026-08-27T07:20:26.161Z</time>
      </trkpt>
      <trkpt lat="47.8484" lon="6.92049">
        <ele>1097.6</ele>
        <time>2026-08-27T07:20:27.170Z</time>
      </trkpt>
      <trkpt lat="47.8484" lon="6.9205">
        <ele>1097.7</ele>
        <time>2026-08-27T07:20:28.179Z</time>
      </trkpt>
      <trkpt lat="47.84841" lon="6.9205">
        <ele>1097.5</ele>
        <time>2026-08-27T07:20:29.187Z</time>
      </trkpt>
      <trkpt lat="47.84841" lon="6.9205">
        <ele>1097.4</ele>
        <time>2026-08-27T07:20:30.195Z</time>
      </trkpt>
      <trkpt lat="47.84842" lon="6.9205">
        <ele>1097.4</ele>
        <time>2026-08-27T07:20:31.202Z</time>
      </trkpt>
      <trkpt lat="47.84843" lon="6.9205">
        <ele>1097.7</ele>
        <time>2026-08-27T07:20:32.211Z</time>
      </trkpt>
      <trkpt lat="47.84844" lon="6.92051">
        <ele>1097.9</ele>
        <time>2026-08-27T07:20:34.127Z</time>
      </trkpt>
      <trkpt lat="47.84845" lon="6.92052">
        <ele>1098</ele>
        <time>2026-08-27T07:20:35.134Z</time>
      </trkpt>
      <trkpt lat="47.84846" lon="6.92052">
        <ele>1098</ele>
        <time>2026-08-27T07:20:36.142Z</time>
      </trkpt>
      <trkpt lat="47.84847" lon="6.92052">
        <ele>1098.2</ele>
        <time>2026-08-27T07:20:37.150Z</time>
      </trkpt>
      <trkpt lat="47.84848" lon="6.92052">
        <ele>1098</ele>
        <time>2026-08-27T07:20:38.158Z</time>
      </trkpt>
      <trkpt lat="47.84849" lon="6.92052">
        <ele>1097.8</ele>
        <time>2026-08-27T07:20:39.166Z</time>
      </trkpt>
      <trkpt lat="47.8485" lon="6.92053">
        <ele>1097.7</ele>
        <time>2026-08-27T07:20:41.090Z</time>
      </trkpt>
      <trkpt lat="47.84851" lon="6.92053">
        <ele>1097.5</ele>
        <time>2026-08-27T07:20:42.090Z</time>
      </trkpt>
      <trkpt lat="47.84851" lon="6.92054">
        <ele>1097.5</ele>
        <time>2026-08-27T07:20:43.098Z</time>
      </trkpt>
      <trkpt lat="47.84854" lon="6.92055">
        <ele>1097.3</ele>
        <time>2026-08-27T07:20:45.147Z</time>
      </trkpt>
      <trkpt lat="47.84855" lon="6.92057">
        <ele>1097.3</ele>
        <time>2026-08-27T07:20:47.088Z</time>
      </trkpt>
      <trkpt lat="47.84856" lon="6.92058">
        <ele>1097.1</ele>
        <time>2026-08-27T07:20:48.138Z</time>
      </trkpt>
      <trkpt lat="47.84857" lon="6.92059">
        <ele>1096.8</ele>
        <time>2026-08-27T07:20:49.147Z</time>
      </trkpt>
      <trkpt lat="47.84858" lon="6.92061">
        <ele>1096.6</ele>
        <time>2026-08-27T07:20:50.156Z</time>
      </trkpt>
      <trkpt lat="47.84858" lon="6.92061">
        <ele>1096.5</ele>
        <time>2026-08-27T07:20:51.163Z</time>
      </trkpt>
      <trkpt lat="47.84859" lon="6.92062">
        <ele>1096.2</ele>
        <time>2026-08-27T07:20:52.171Z</time>
      </trkpt>
      <trkpt lat="47.8486" lon="6.92064">
        <ele>1096</ele>
        <time>2026-08-27T07:20:53.179Z</time>
      </trkpt>
      <trkpt lat="47.8486" lon="6.92065">
        <ele>1096.1</ele>
        <time>2026-08-27T07:20:54.187Z</time>
      </trkpt>
      <trkpt lat="47.84862" lon="6.92067">
        <ele>1096.1</ele>
        <time>2026-08-27T07:20:56.170Z</time>
      </trkpt>
      <trkpt lat="47.84862" lon="6.92069">
        <ele>1095.9</ele>
        <time>2026-08-27T07:20:57.212Z</time>
      </trkpt>
      <trkpt lat="47.84862" lon="6.92071">
        <ele>1095.4</ele>
        <time>2026-08-27T07:20:59.128Z</time>
      </trkpt>
      <trkpt lat="47.84862" lon="6.92071">
        <ele>1095.2</ele>
        <time>2026-08-27T07:21:00.136Z</time>
      </trkpt>
      <trkpt lat="47.84863" lon="6.92072">
        <ele>1095</ele>
        <time>2026-08-27T07:21:01.143Z</time>
      </trkpt>
      <trkpt lat="47.84863" lon="6.92073">
        <ele>1095</ele>
        <time>2026-08-27T07:21:02.151Z</time>
      </trkpt>
      <trkpt lat="47.84865" lon="6.92075">
        <ele>1094.9</ele>
        <time>2026-08-27T07:21:04.168Z</time>
      </trkpt>
      <trkpt lat="47.84865" lon="6.92075">
        <ele>1094.7</ele>
        <time>2026-08-27T07:21:05.176Z</time>
      </trkpt>
      <trkpt lat="47.84866" lon="6.92076">
        <ele>1094.6</ele>
        <time>2026-08-27T07:21:06.185Z</time>
      </trkpt>
      <trkpt lat="47.84866" lon="6.92077">
        <ele>1094.8</ele>
        <time>2026-08-27T07:21:07.192Z</time>
      </trkpt>
      <trkpt lat="47.84866" lon="6.92078">
        <ele>1095</ele>
        <time>2026-08-27T07:21:09.193Z</time>
      </trkpt>
      <trkpt lat="47.84867" lon="6.92079">
        <ele>1094.7</ele>
        <time>2026-08-27T07:21:10.218Z</time>
      </trkpt>
      <trkpt lat="47.84867" lon="6.9208">
        <ele>1094.5</ele>
        <time>2026-08-27T07:21:12.132Z</time>
      </trkpt>
      <trkpt lat="47.84868" lon="6.92081">
        <ele>1094.5</ele>
        <time>2026-08-27T07:21:13.140Z</time>
      </trkpt>
      <trkpt lat="47.84868" lon="6.92082">
        <ele>1094.6</ele>
        <time>2026-08-27T07:21:14.148Z</time>
      </trkpt>
      <trkpt lat="47.84869" lon="6.92083">
        <ele>1094.5</ele>
        <time>2026-08-27T07:21:15.157Z</time>
      </trkpt>
      <trkpt lat="47.8487" lon="6.92083">
        <ele>1094.4</ele>
        <time>2026-08-27T07:21:16.165Z</time>
      </trkpt>
      <trkpt lat="47.8487" lon="6.92084">
        <ele>1094.2</ele>
        <time>2026-08-27T07:21:17.173Z</time>
      </trkpt>
      <trkpt lat="47.84871" lon="6.92084">
        <ele>1094</ele>
        <time>2026-08-27T07:21:18.181Z</time>
      </trkpt>
      <trkpt lat="47.84872" lon="6.92085">
        <ele>1094</ele>
        <time>2026-08-27T07:21:19.189Z</time>
      </trkpt>
      <trkpt lat="47.84872" lon="6.92085">
        <ele>1094.1</ele>
        <time>2026-08-27T07:21:20.197Z</time>
      </trkpt>
      <trkpt lat="47.84873" lon="6.92085">
        <ele>1094.1</ele>
        <time>2026-08-27T07:21:22.112Z</time>
      </trkpt>
      <trkpt lat="47.84875" lon="6.92085">
        <ele>1094.5</ele>
        <time>2026-08-27T07:21:24.129Z</time>
      </trkpt>
      <trkpt lat="47.84875" lon="6.92086">
        <ele>1094.7</ele>
        <time>2026-08-27T07:21:25.137Z</time>
      </trkpt>
      <trkpt lat="47.84876" lon="6.92086">
        <ele>1094.7</ele>
        <time>2026-08-27T07:21:26.145Z</time>
      </trkpt>
      <trkpt lat="47.84876" lon="6.92086">
        <ele>1094.7</ele>
        <time>2026-08-27T07:21:27.154Z</time>
      </trkpt>
      <trkpt lat="47.84876" lon="6.92086">
        <ele>1094.9</ele>
        <time>2026-08-27T07:21:28.162Z</time>
      </trkpt>
      <trkpt lat="47.84876" lon="6.92087">
        <ele>1095.1</ele>
        <time>2026-08-27T07:21:29.169Z</time>
      </trkpt>
      <trkpt lat="47.84876" lon="6.92087">
        <ele>1095.3</ele>
        <time>2026-08-27T07:21:30.219Z</time>
      </trkpt>
      <trkpt lat="47.84876" lon="6.92087">
        <ele>1095.4</ele>
        <time>2026-08-27T07:21:32.203Z</time>
      </trkpt>
      <trkpt lat="47.84876" lon="6.92088">
        <ele>1095.4</ele>
        <time>2026-08-27T07:21:33.210Z</time>
      </trkpt>
      <trkpt lat="47.84877" lon="6.92089">
        <ele>1095.1</ele>
        <time>2026-08-27T07:21:35.127Z</time>
      </trkpt>
      <trkpt lat="47.84877" lon="6.92091">
        <ele>1095.2</ele>
        <time>2026-08-27T07:21:36.134Z</time>
      </trkpt>
      <trkpt lat="47.84877" lon="6.92093">
        <ele>1095.2</ele>
        <time>2026-08-27T07:21:37.176Z</time>
      </trkpt>
      <trkpt lat="47.84878" lon="6.92096">
        <ele>1094.8</ele>
        <time>2026-08-27T07:21:39.159Z</time>
      </trkpt>
      <trkpt lat="47.84879" lon="6.92096">
        <ele>1094.7</ele>
        <time>2026-08-27T07:21:40.166Z</time>
      </trkpt>
      <trkpt lat="47.84879" lon="6.92097">
        <ele>1094.5</ele>
        <time>2026-08-27T07:21:41.174Z</time>
      </trkpt>
      <trkpt lat="47.8488" lon="6.921">
        <ele>1094.5</ele>
        <time>2026-08-27T07:21:43.190Z</time>
      </trkpt>
      <trkpt lat="47.8488" lon="6.92101">
        <ele>1094.6</ele>
        <time>2026-08-27T07:21:44.199Z</time>
      </trkpt>
      <trkpt lat="47.8488" lon="6.92101">
        <ele>1094.3</ele>
        <time>2026-08-27T07:21:45.207Z</time>
      </trkpt>
      <trkpt lat="47.8488" lon="6.92102">
        <ele>1094.2</ele>
        <time>2026-08-27T07:21:46.215Z</time>
      </trkpt>
      <trkpt lat="47.84881" lon="6.92104">
        <ele>1094.1</ele>
        <time>2026-08-27T07:21:48.131Z</time>
      </trkpt>
      <trkpt lat="47.8488" lon="6.92107">
        <ele>1093.9</ele>
        <time>2026-08-27T07:21:50.147Z</time>
      </trkpt>
      <trkpt lat="47.8488" lon="6.92108">
        <ele>1093.9</ele>
        <time>2026-08-27T07:21:52.021Z</time>
      </trkpt>
      <trkpt lat="47.8488" lon="6.92109">
        <ele>1093.9</ele>
        <time>2026-08-27T07:21:53.172Z</time>
      </trkpt>
      <trkpt lat="47.84879" lon="6.92111">
        <ele>1093.8</ele>
        <time>2026-08-27T07:21:55.086Z</time>
      </trkpt>
      <trkpt lat="47.84879" lon="6.92111">
        <ele>1093.8</ele>
        <time>2026-08-27T07:21:56.153Z</time>
      </trkpt>
      <trkpt lat="47.84879" lon="6.92113">
        <ele>1093.9</ele>
        <time>2026-08-27T07:21:58.110Z</time>
      </trkpt>
      <trkpt lat="47.8488" lon="6.92114">
        <ele>1093.8</ele>
        <time>2026-08-27T07:21:59.118Z</time>
      </trkpt>
      <trkpt lat="47.8488" lon="6.92115">
        <ele>1093.8</ele>
        <time>2026-08-27T07:22:00.126Z</time>
      </trkpt>
      <trkpt lat="47.84881" lon="6.92116">
        <ele>1094</ele>
        <time>2026-08-27T07:22:01.134Z</time>
      </trkpt>
      <trkpt lat="47.84882" lon="6.92117">
        <ele>1094</ele>
        <time>2026-08-27T07:22:02.144Z</time>
      </trkpt>
      <trkpt lat="47.84883" lon="6.9212">
        <ele>1093.9</ele>
        <time>2026-08-27T07:22:04.059Z</time>
      </trkpt>
      <trkpt lat="47.84883" lon="6.92121">
        <ele>1093.9</ele>
        <time>2026-08-27T07:22:05.066Z</time>
      </trkpt>
      <trkpt lat="47.84884" lon="6.92126">
        <ele>1093.9</ele>
        <time>2026-08-27T07:22:07.082Z</time>
      </trkpt>
      <trkpt lat="47.84884" lon="6.92128">
        <ele>1093.8</ele>
        <time>2026-08-27T07:22:08.090Z</time>
      </trkpt>
      <trkpt lat="47.84884" lon="6.92131">
        <ele>1093.7</ele>
        <time>2026-08-27T07:22:09.098Z</time>
      </trkpt>
      <trkpt lat="47.84884" lon="6.92133">
        <ele>1093.4</ele>
        <time>2026-08-27T07:22:10.107Z</time>
      </trkpt>
      <trkpt lat="47.84884" lon="6.92135">
        <ele>1093.5</ele>
        <time>2026-08-27T07:22:11.115Z</time>
      </trkpt>
      <trkpt lat="47.84884" lon="6.92137">
        <ele>1093.5</ele>
        <time>2026-08-27T07:22:13.014Z</time>
      </trkpt>
      <trkpt lat="47.84884" lon="6.92139">
        <ele>1093.7</ele>
        <time>2026-08-27T07:22:14.140Z</time>
      </trkpt>
      <trkpt lat="47.84883" lon="6.92141">
        <ele>1093.3</ele>
        <time>2026-08-27T07:22:16.114Z</time>
      </trkpt>
      <trkpt lat="47.84883" lon="6.92142">
        <ele>1092.8</ele>
        <time>2026-08-27T07:22:17.163Z</time>
      </trkpt>
      <trkpt lat="47.84883" lon="6.92144">
        <ele>1092.4</ele>
        <time>2026-08-27T07:22:19.079Z</time>
      </trkpt>
      <trkpt lat="47.84883" lon="6.92145">
        <ele>1092.1</ele>
        <time>2026-08-27T07:22:20.087Z</time>
      </trkpt>
      <trkpt lat="47.84883" lon="6.92146">
        <ele>1092.2</ele>
        <time>2026-08-27T07:22:21.095Z</time>
      </trkpt>
      <trkpt lat="47.84883" lon="6.92147">
        <ele>1092.3</ele>
        <time>2026-08-27T07:22:22.103Z</time>
      </trkpt>
      <trkpt lat="47.84884" lon="6.92149">
        <ele>1092</ele>
        <time>2026-08-27T07:22:24.119Z</time>
      </trkpt>
      <trkpt lat="47.84884" lon="6.9215">
        <ele>1091.5</ele>
        <time>2026-08-27T07:22:25.127Z</time>
      </trkpt>
      <trkpt lat="47.84884" lon="6.9215">
        <ele>1091.5</ele>
        <time>2026-08-27T07:22:26.152Z</time>
      </trkpt>
      <trkpt lat="47.84885" lon="6.92152">
        <ele>1091.2</ele>
        <time>2026-08-27T07:22:28.051Z</time>
      </trkpt>
      <trkpt lat="47.84885" lon="6.92153">
        <ele>1091.1</ele>
        <time>2026-08-27T07:22:29.159Z</time>
      </trkpt>
      <trkpt lat="47.84885" lon="6.92155">
        <ele>1092</ele>
        <time>2026-08-27T07:22:30.168Z</time>
      </trkpt>
      <trkpt lat="47.84885" lon="6.92156">
        <ele>1092</ele>
        <time>2026-08-27T07:22:31.175Z</time>
      </trkpt>
      <trkpt lat="47.84886" lon="6.9216">
        <ele>1092</ele>
        <time>2026-08-27T07:22:33.116Z</time>
      </trkpt>
      <trkpt lat="47.84888" lon="6.92164">
        <ele>1091</ele>
        <time>2026-08-27T07:22:35.108Z</time>
      </trkpt>
      <trkpt lat="47.84889" lon="6.92166">
        <ele>1091.4</ele>
        <time>2026-08-27T07:22:36.116Z</time>
      </trkpt>
      <trkpt lat="47.8489" lon="6.9217">
        <ele>1090.5</ele>
        <time>2026-08-27T07:22:38.131Z</time>
      </trkpt>
      <trkpt lat="47.84889" lon="6.92171">
        <ele>1090.5</ele>
        <time>2026-08-27T07:22:39.140Z</time>
      </trkpt>
      <trkpt lat="47.84889" lon="6.92171">
        <ele>1091</ele>
        <time>2026-08-27T07:22:40.147Z</time>
      </trkpt>
      <trkpt lat="47.84888" lon="6.92172">
        <ele>1091.1</ele>
        <time>2026-08-27T07:22:42.080Z</time>
      </trkpt>
      <trkpt lat="47.84888" lon="6.92173">
        <ele>1090.9</ele>
        <time>2026-08-27T07:22:43.138Z</time>
      </trkpt>
      <trkpt lat="47.84887" lon="6.92175">
        <ele>1090.2</ele>
        <time>2026-08-27T07:22:45.087Z</time>
      </trkpt>
      <trkpt lat="47.84887" lon="6.92176">
        <ele>1090.1</ele>
        <time>2026-08-27T07:22:46.095Z</time>
      </trkpt>
      <trkpt lat="47.84887" lon="6.92177">
        <ele>1090.1</ele>
        <time>2026-08-27T07:22:47.120Z</time>
      </trkpt>
      <trkpt lat="47.84888" lon="6.92179">
        <ele>1089.6</ele>
        <time>2026-08-27T07:22:49.119Z</time>
      </trkpt>
      <trkpt lat="47.84888" lon="6.92181">
        <ele>1090.1</ele>
        <time>2026-08-27T07:22:50.128Z</time>
      </trkpt>
      <trkpt lat="47.84888" lon="6.92182">
        <ele>1090.4</ele>
        <time>2026-08-27T07:22:51.136Z</time>
      </trkpt>
      <trkpt lat="47.84888" lon="6.92184">
        <ele>1090.3</ele>
        <time>2026-08-27T07:22:52.143Z</time>
      </trkpt>
      <trkpt lat="47.84889" lon="6.92187">
        <ele>1089.9</ele>
        <time>2026-08-27T07:22:54.060Z</time>
      </trkpt>
      <trkpt lat="47.8489" lon="6.92189">
        <ele>1089.7</ele>
        <time>2026-08-27T07:22:55.067Z</time>
      </trkpt>
      <trkpt lat="47.8489" lon="6.9219">
        <ele>1089.5</ele>
        <time>2026-08-27T07:22:56.075Z</time>
      </trkpt>
      <trkpt lat="47.8489" lon="6.92192">
        <ele>1089.5</ele>
        <time>2026-08-27T07:22:57.084Z</time>
      </trkpt>
      <trkpt lat="47.8489" lon="6.92193">
        <ele>1089.5</ele>
        <time>2026-08-27T07:22:58.092Z</time>
      </trkpt>
      <trkpt lat="47.84889" lon="6.92195">
        <ele>1090.5</ele>
        <time>2026-08-27T07:22:59.100Z</time>
      </trkpt>
      <trkpt lat="47.84889" lon="6.92196">
        <ele>1090.6</ele>
        <time>2026-08-27T07:23:00.107Z</time>
      </trkpt>
      <trkpt lat="47.84889" lon="6.92197">
        <ele>1090.6</ele>
        <time>2026-08-27T07:23:01.115Z</time>
      </trkpt>
      <trkpt lat="47.84889" lon="6.92198">
        <ele>1090.3</ele>
        <time>2026-08-27T07:23:02.123Z</time>
      </trkpt>
      <trkpt lat="47.8489" lon="6.92201">
        <ele>1089.9</ele>
        <time>2026-08-27T07:23:04.114Z</time>
      </trkpt>
      <trkpt lat="47.84891" lon="6.92202">
        <ele>1089.4</ele>
        <time>2026-08-27T07:23:05.114Z</time>
      </trkpt>
      <trkpt lat="47.84892" lon="6.92204">
        <ele>1089</ele>
        <time>2026-08-27T07:23:07.098Z</time>
      </trkpt>
      <trkpt lat="47.84892" lon="6.92207">
        <ele>1089</ele>
        <time>2026-08-27T07:23:09.079Z</time>
      </trkpt>
      <trkpt lat="47.84893" lon="6.92209">
        <ele>1089</ele>
        <time>2026-08-27T07:23:11.137Z</time>
      </trkpt>
      <trkpt lat="47.84892" lon="6.92211">
        <ele>1088.2</ele>
        <time>2026-08-27T07:23:13.020Z</time>
      </trkpt>
      <trkpt lat="47.84893" lon="6.92212">
        <ele>1087.7</ele>
        <time>2026-08-27T07:23:14.119Z</time>
      </trkpt>
      <trkpt lat="47.84893" lon="6.92214">
        <ele>1087.4</ele>
        <time>2026-08-27T07:23:15.128Z</time>
      </trkpt>
      <trkpt lat="47.84893" lon="6.92215">
        <ele>1087.3</ele>
        <time>2026-08-27T07:23:16.136Z</time>
      </trkpt>
      <trkpt lat="47.84894" lon="6.92218">
        <ele>1086.6</ele>
        <time>2026-08-27T07:23:18.051Z</time>
      </trkpt>
      <trkpt lat="47.84894" lon="6.92219">
        <ele>1087.1</ele>
        <time>2026-08-27T07:23:19.059Z</time>
      </trkpt>
      <trkpt lat="47.84894" lon="6.9222">
        <ele>1087.1</ele>
        <time>2026-08-27T07:23:20.068Z</time>
      </trkpt>
      <trkpt lat="47.84894" lon="6.92221">
        <ele>1087</ele>
        <time>2026-08-27T07:23:21.076Z</time>
      </trkpt>
      <trkpt lat="47.84893" lon="6.92224">
        <ele>1086.4</ele>
        <time>2026-08-27T07:23:23.092Z</time>
      </trkpt>
      <trkpt lat="47.84893" lon="6.92225">
        <ele>1086.4</ele>
        <time>2026-08-27T07:23:24.133Z</time>
      </trkpt>
      <trkpt lat="47.84892" lon="6.92227">
        <ele>1085.9</ele>
        <time>2026-08-27T07:23:26.115Z</time>
      </trkpt>
      <trkpt lat="47.84892" lon="6.92229">
        <ele>1085.8</ele>
        <time>2026-08-27T07:23:27.124Z</time>
      </trkpt>
      <trkpt lat="47.84892" lon="6.92231">
        <ele>1085.8</ele>
        <time>2026-08-27T07:23:28.157Z</time>
      </trkpt>
      <trkpt lat="47.84892" lon="6.92233">
        <ele>1087</ele>
        <time>2026-08-27T07:23:29.518Z</time>
      </trkpt>
      <trkpt lat="47.84893" lon="6.92236">
        <ele>1087.1</ele>
        <time>2026-08-27T07:23:30.754Z</time>
      </trkpt>
      <trkpt lat="47.84893" lon="6.92238">
        <ele>1086.4</ele>
        <time>2026-08-27T07:23:31.996Z</time>
      </trkpt>
      <trkpt lat="47.84893" lon="6.92239">
        <ele>1085.5</ele>
        <time>2026-08-27T07:23:33.072Z</time>
      </trkpt>
      <trkpt lat="47.84893" lon="6.92241">
        <ele>1085.3</ele>
        <time>2026-08-27T07:23:34.079Z</time>
      </trkpt>
      <trkpt lat="47.84894" lon="6.92242">
        <ele>1085.1</ele>
        <time>2026-08-27T07:23:35.087Z</time>
      </trkpt>
      <trkpt lat="47.84894" lon="6.92243">
        <ele>1084.9</ele>
        <time>2026-08-27T07:23:36.096Z</time>
      </trkpt>
      <trkpt lat="47.84895" lon="6.92245">
        <ele>1084.9</ele>
        <time>2026-08-27T07:23:37.179Z</time>
      </trkpt>
      <trkpt lat="47.84895" lon="6.92247">
        <ele>1085.6</ele>
        <time>2026-08-27T07:23:39.120Z</time>
      </trkpt>
      <trkpt lat="47.84895" lon="6.92246">
        <ele>1085.5</ele>
        <time>2026-08-27T07:23:40.129Z</time>
      </trkpt>
      <trkpt lat="47.84895" lon="6.92245">
        <ele>1085</ele>
        <time>2026-08-27T07:23:41.136Z</time>
      </trkpt>
      <trkpt lat="47.84895" lon="6.92244">
        <ele>1084.9</ele>
        <time>2026-08-27T07:23:42.144Z</time>
      </trkpt>
      <trkpt lat="47.84896" lon="6.92244">
        <ele>1085</ele>
        <time>2026-08-27T07:23:43.152Z</time>
      </trkpt>
      <trkpt lat="47.84896" lon="6.92243">
        <ele>1084.6</ele>
        <time>2026-08-27T07:23:45.068Z</time>
      </trkpt>
      <trkpt lat="47.84896" lon="6.92243">
        <ele>1084.4</ele>
        <time>2026-08-27T07:23:46.075Z</time>
      </trkpt>
      <trkpt lat="47.84896" lon="6.92243">
        <ele>1084.2</ele>
        <time>2026-08-27T07:23:47.083Z</time>
      </trkpt>
      <trkpt lat="47.84896" lon="6.92243">
        <ele>1084.8</ele>
        <time>2026-08-27T07:23:48.091Z</time>
      </trkpt>
      <trkpt lat="47.84896" lon="6.92243">
        <ele>1084.9</ele>
        <time>2026-08-27T07:23:49.100Z</time>
      </trkpt>
      <trkpt lat="47.84895" lon="6.92243">
        <ele>1085</ele>
        <time>2026-08-27T07:23:50.107Z</time>
      </trkpt>
      <trkpt lat="47.84895" lon="6.92243">
        <ele>1084.6</ele>
        <time>2026-08-27T07:23:51.116Z</time>
      </trkpt>
      <trkpt lat="47.84895" lon="6.92243">
        <ele>1084.7</ele>
        <time>2026-08-27T07:23:52.125Z</time>
      </trkpt>
      <trkpt lat="47.84896" lon="6.92243">
        <ele>1084.7</ele>
        <time>2026-08-27T07:23:54.040Z</time>
      </trkpt>
      <trkpt lat="47.84896" lon="6.92244">
        <ele>1085</ele>
        <time>2026-08-27T07:23:55.047Z</time>
      </trkpt>
      <trkpt lat="47.84896" lon="6.92244">
        <ele>1085.6</ele>
        <time>2026-08-27T07:23:56.055Z</time>
      </trkpt>
      <trkpt lat="47.84896" lon="6.92244">
        <ele>1086.2</ele>
        <time>2026-08-27T07:23:57.063Z</time>
      </trkpt>
      <trkpt lat="47.84896" lon="6.92244">
        <ele>1086.3</ele>
        <time>2026-08-27T07:23:58.072Z</time>
      </trkpt>
      <trkpt lat="47.84896" lon="6.92244">
        <ele>1086.3</ele>
        <time>2026-08-27T07:23:59.079Z</time>
      </trkpt>
      <trkpt lat="47.84896" lon="6.92244">
        <ele>1086.2</ele>
        <time>2026-08-27T07:24:00.087Z</time>
      </trkpt>
      <trkpt lat="47.84896" lon="6.92244">
        <ele>1086.2</ele>
        <time>2026-08-27T07:24:01.097Z</time>
      </trkpt>
      <trkpt lat="47.84896" lon="6.92244">
        <ele>1086</ele>
        <time>2026-08-27T07:24:02.104Z</time>
      </trkpt>
      <trkpt lat="47.84896" lon="6.92244">
        <ele>1085.9</ele>
        <time>2026-08-27T07:24:03.113Z</time>
      </trkpt>
      <trkpt lat="47.84896" lon="6.92244">
        <ele>1084.7</ele>
        <time>2026-08-27T07:24:05.027Z</time>
      </trkpt>
      <trkpt lat="47.84896" lon="6.92244">
        <ele>1085.1</ele>
        <time>2026-08-27T07:24:06.035Z</time>
      </trkpt>
      <trkpt lat="47.84896" lon="6.92244">
        <ele>1085.8</ele>
        <time>2026-08-27T07:24:07.043Z</time>
      </trkpt>
      <trkpt lat="47.84896" lon="6.92244">
        <ele>1085.7</ele>
        <time>2026-08-27T07:24:08.052Z</time>
      </trkpt>
      <trkpt lat="47.84896" lon="6.92244">
        <ele>1085.4</ele>
        <time>2026-08-27T07:24:09.060Z</time>
      </trkpt>
      <trkpt lat="47.84896" lon="6.92244">
        <ele>1084.9</ele>
        <time>2026-08-27T07:24:10.068Z</time>
      </trkpt>
      <trkpt lat="47.84896" lon="6.92244">
        <ele>1085</ele>
        <time>2026-08-27T07:24:11.076Z</time>
      </trkpt>
      <trkpt lat="47.84897" lon="6.92245">
        <ele>1084.9</ele>
        <time>2026-08-27T07:24:12.085Z</time>
      </trkpt>
      <trkpt lat="47.84897" lon="6.92245">
        <ele>1084.7</ele>
        <time>2026-08-27T07:24:13.092Z</time>
      </trkpt>
      <trkpt lat="47.84897" lon="6.92246">
        <ele>1084.4</ele>
        <time>2026-08-27T07:24:14.101Z</time>
      </trkpt>
      <trkpt lat="47.84897" lon="6.92246">
        <ele>1084.1</ele>
        <time>2026-08-27T07:24:15.109Z</time>
      </trkpt>
      <trkpt lat="47.84897" lon="6.92246">
        <ele>1083.8</ele>
        <time>2026-08-27T07:24:16.117Z</time>
      </trkpt>
      <trkpt lat="47.84898" lon="6.92246">
        <ele>1084.5</ele>
        <time>2026-08-27T07:24:18.032Z</time>
      </trkpt>
      <trkpt lat="47.84898" lon="6.92245">
        <ele>1084.5</ele>
        <time>2026-08-27T07:24:19.041Z</time>
      </trkpt>
      <trkpt lat="47.84898" lon="6.92245">
        <ele>1084.2</ele>
        <time>2026-08-27T07:24:20.049Z</time>
      </trkpt>
      <trkpt lat="47.84898" lon="6.92245">
        <ele>1084.1</ele>
        <time>2026-08-27T07:24:21.058Z</time>
      </trkpt>
      <trkpt lat="47.84898" lon="6.92245">
        <ele>1085.1</ele>
        <time>2026-08-27T07:24:22.065Z</time>
      </trkpt>
      <trkpt lat="47.84898" lon="6.92246">
        <ele>1084.8</ele>
        <time>2026-08-27T07:24:23.074Z</time>
      </trkpt>
      <trkpt lat="47.84898" lon="6.92246">
        <ele>1084.6</ele>
        <time>2026-08-27T07:24:24.082Z</time>
      </trkpt>
      <trkpt lat="47.84898" lon="6.92246">
        <ele>1085.2</ele>
        <time>2026-08-27T07:24:25.090Z</time>
      </trkpt>
      <trkpt lat="47.84898" lon="6.92246">
        <ele>1085.4</ele>
        <time>2026-08-27T07:24:26.098Z</time>
      </trkpt>
      <trkpt lat="47.84898" lon="6.92246">
        <ele>1085.5</ele>
        <time>2026-08-27T07:24:27.106Z</time>
      </trkpt>
      <trkpt lat="47.84898" lon="6.92246">
        <ele>1085.6</ele>
        <time>2026-08-27T07:24:28.115Z</time>
      </trkpt>
      <trkpt lat="47.84898" lon="6.92246">
        <ele>1085.4</ele>
        <time>2026-08-27T07:24:29.122Z</time>
      </trkpt>
      <trkpt lat="47.84898" lon="6.92246">
        <ele>1085.1</ele>
        <time>2026-08-27T07:24:31.039Z</time>
      </trkpt>
      <trkpt lat="47.84899" lon="6.92246">
        <ele>1085.2</ele>
        <time>2026-08-27T07:24:32.046Z</time>
      </trkpt>
      <trkpt lat="47.84899" lon="6.92246">
        <ele>1084.4</ele>
        <time>2026-08-27T07:24:33.054Z</time>
      </trkpt>
      <trkpt lat="47.84899" lon="6.92246">
        <ele>1084.1</ele>
        <time>2026-08-27T07:24:34.063Z</time>
      </trkpt>
      <trkpt lat="47.84899" lon="6.92246">
        <ele>1084.4</ele>
        <time>2026-08-27T07:24:35.071Z</time>
      </trkpt>
      <trkpt lat="47.84899" lon="6.92246">
        <ele>1084.7</ele>
        <time>2026-08-27T07:24:36.080Z</time>
      </trkpt>
      <trkpt lat="47.84899" lon="6.92246">
        <ele>1085.1</ele>
        <time>2026-08-27T07:24:37.088Z</time>
      </trkpt>
      <trkpt lat="47.84899" lon="6.92246">
        <ele>1085.2</ele>
        <time>2026-08-27T07:24:38.096Z</time>
      </trkpt>
      <trkpt lat="47.84899" lon="6.92246">
        <ele>1085.2</ele>
        <time>2026-08-27T07:24:39.104Z</time>
      </trkpt>
      <trkpt lat="47.84899" lon="6.92246">
        <ele>1085</ele>
        <time>2026-08-27T07:24:40.113Z</time>
      </trkpt>
      <trkpt lat="47.84899" lon="6.92247">
        <ele>1084.6</ele>
        <time>2026-08-27T07:24:42.027Z</time>
      </trkpt>
      <trkpt lat="47.84899" lon="6.92247">
        <ele>1084.5</ele>
        <time>2026-08-27T07:24:43.035Z</time>
      </trkpt>
      <trkpt lat="47.84898" lon="6.92247">
        <ele>1084.4</ele>
        <time>2026-08-27T07:24:44.044Z</time>
      </trkpt>
      <trkpt lat="47.84898" lon="6.92247">
        <ele>1084.2</ele>
        <time>2026-08-27T07:24:45.052Z</time>
      </trkpt>
      <trkpt lat="47.84898" lon="6.92247">
        <ele>1084.7</ele>
        <time>2026-08-27T07:24:46.060Z</time>
      </trkpt>
      <trkpt lat="47.84898" lon="6.92247">
        <ele>1084.9</ele>
        <time>2026-08-27T07:24:47.068Z</time>
      </trkpt>
      <trkpt lat="47.84898" lon="6.92247">
        <ele>1085</ele>
        <time>2026-08-27T07:24:48.078Z</time>
      </trkpt>
      <trkpt lat="47.84898" lon="6.92247">
        <ele>1084.7</ele>
        <time>2026-08-27T07:24:49.086Z</time>
      </trkpt>
      <trkpt lat="47.84898" lon="6.92247">
        <ele>1084.5</ele>
        <time>2026-08-27T07:24:50.093Z</time>
      </trkpt>
      <trkpt lat="47.84898" lon="6.92247">
        <ele>1085.5</ele>
        <time>2026-08-27T07:24:51.101Z</time>
      </trkpt>
      <trkpt lat="47.84898" lon="6.92248">
        <ele>1085.1</ele>
        <time>2026-08-27T07:24:52.111Z</time>
      </trkpt>
      <trkpt lat="47.84898" lon="6.92248">
        <ele>1084.8</ele>
        <time>2026-08-27T07:24:53.118Z</time>
      </trkpt>
      <trkpt lat="47.84897" lon="6.92248">
        <ele>1085.3</ele>
        <time>2026-08-27T07:24:54.126Z</time>
      </trkpt>
      <trkpt lat="47.84897" lon="6.92248">
        <ele>1085.4</ele>
        <time>2026-08-27T07:24:55.135Z</time>
      </trkpt>
      <trkpt lat="47.84897" lon="6.92248">
        <ele>1085.5</ele>
        <time>2026-08-27T07:24:57.152Z</time>
      </trkpt>
      <trkpt lat="47.84897" lon="6.92248">
        <ele>1084.9</ele>
        <time>2026-08-27T07:24:59.066Z</time>
      </trkpt>
      <trkpt lat="47.84897" lon="6.92247">
        <ele>1084.7</ele>
        <time>2026-08-27T07:25:00.075Z</time>
      </trkpt>
      <trkpt lat="47.84897" lon="6.92248">
        <ele>1084.7</ele>
        <time>2026-08-27T07:25:02.057Z</time>
      </trkpt>
      <trkpt lat="47.84897" lon="6.9225">
        <ele>1084.2</ele>
        <time>2026-08-27T07:25:03.099Z</time>
      </trkpt>
      <trkpt lat="47.84897" lon="6.92251">
        <ele>1083.5</ele>
        <time>2026-08-27T07:25:04.108Z</time>
      </trkpt>
      <trkpt lat="47.84896" lon="6.92253">
        <ele>1083.6</ele>
        <time>2026-08-27T07:25:05.116Z</time>
      </trkpt>
      <trkpt lat="47.84895" lon="6.92254">
        <ele>1083.8</ele>
        <time>2026-08-27T07:25:06.124Z</time>
      </trkpt>
      <trkpt lat="47.84895" lon="6.92256">
        <ele>1083.2</ele>
        <time>2026-08-27T07:25:08.039Z</time>
      </trkpt>
      <trkpt lat="47.84894" lon="6.92257">
        <ele>1083.1</ele>
        <time>2026-08-27T07:25:09.048Z</time>
      </trkpt>
      <trkpt lat="47.84893" lon="6.92258">
        <ele>1082.9</ele>
        <time>2026-08-27T07:25:10.157Z</time>
      </trkpt>
      <trkpt lat="47.84893" lon="6.92259">
        <ele>1082.2</ele>
        <time>2026-08-27T07:25:12.072Z</time>
      </trkpt>
      <trkpt lat="47.84893" lon="6.92259">
        <ele>1082</ele>
        <time>2026-08-27T07:25:13.080Z</time>
      </trkpt>
      <trkpt lat="47.84893" lon="6.92259">
        <ele>1081.7</ele>
        <time>2026-08-27T07:25:14.088Z</time>
      </trkpt>
      <trkpt lat="47.84893" lon="6.92259">
        <ele>1082.2</ele>
        <time>2026-08-27T07:25:15.097Z</time>
      </trkpt>
      <trkpt lat="47.84893" lon="6.92259">
        <ele>1082.4</ele>
        <time>2026-08-27T07:25:16.106Z</time>
      </trkpt>
      <trkpt lat="47.84893" lon="6.92259">
        <ele>1082.3</ele>
        <time>2026-08-27T07:25:17.113Z</time>
      </trkpt>
      <trkpt lat="47.84893" lon="6.92259">
        <ele>1082.3</ele>
        <time>2026-08-27T07:25:18.121Z</time>
      </trkpt>
      <trkpt lat="47.84893" lon="6.92259">
        <ele>1082.3</ele>
        <time>2026-08-27T07:25:19.171Z</time>
      </trkpt>
      <trkpt lat="47.84893" lon="6.92259">
        <ele>1082.6</ele>
        <time>2026-08-27T07:25:21.147Z</time>
      </trkpt>
      <trkpt lat="47.84893" lon="6.92259">
        <ele>1083.1</ele>
        <time>2026-08-27T07:25:23.061Z</time>
      </trkpt>
      <trkpt lat="47.84893" lon="6.92259">
        <ele>1083.6</ele>
        <time>2026-08-27T07:25:24.069Z</time>
      </trkpt>
      <trkpt lat="47.84893" lon="6.92259">
        <ele>1083.7</ele>
        <time>2026-08-27T07:25:25.077Z</time>
      </trkpt>
      <trkpt lat="47.84893" lon="6.9226">
        <ele>1083.8</ele>
        <time>2026-08-27T07:25:26.086Z</time>
      </trkpt>
      <trkpt lat="47.84893" lon="6.9226">
        <ele>1083.5</ele>
        <time>2026-08-27T07:25:27.094Z</time>
      </trkpt>
      <trkpt lat="47.84893" lon="6.9226">
        <ele>1083.5</ele>
        <time>2026-08-27T07:25:28.102Z</time>
      </trkpt>
      <trkpt lat="47.84893" lon="6.9226">
        <ele>1083.2</ele>
        <time>2026-08-27T07:25:29.110Z</time>
      </trkpt>
      <trkpt lat="47.84893" lon="6.92261">
        <ele>1083.2</ele>
        <time>2026-08-27T07:25:30.118Z</time>
      </trkpt>
      <trkpt lat="47.84893" lon="6.92261">
        <ele>1083.1</ele>
        <time>2026-08-27T07:25:31.126Z</time>
      </trkpt>
      <trkpt lat="47.84893" lon="6.92261">
        <ele>1083.1</ele>
        <time>2026-08-27T07:25:32.134Z</time>
      </trkpt>
      <trkpt lat="47.84893" lon="6.92262">
        <ele>1083</ele>
        <time>2026-08-27T07:25:33.143Z</time>
      </trkpt>
      <trkpt lat="47.84893" lon="6.92262">
        <ele>1083.1</ele>
        <time>2026-08-27T07:25:34.150Z</time>
      </trkpt>
      <trkpt lat="47.84893" lon="6.92262">
        <ele>1082.5</ele>
        <time>2026-08-27T07:25:35.159Z</time>
      </trkpt>
      <trkpt lat="47.84893" lon="6.92263">
        <ele>1082.5</ele>
        <time>2026-08-27T07:25:37.074Z</time>
      </trkpt>
      <trkpt lat="47.84892" lon="6.92263">
        <ele>1082.1</ele>
        <time>2026-08-27T07:25:38.083Z</time>
      </trkpt>
      <trkpt lat="47.84892" lon="6.92263">
        <ele>1082.3</ele>
        <time>2026-08-27T07:25:39.090Z</time>
      </trkpt>
      <trkpt lat="47.84892" lon="6.92263">
        <ele>1082.4</ele>
        <time>2026-08-27T07:25:40.099Z</time>
      </trkpt>
      <trkpt lat="47.84892" lon="6.92263">
        <ele>1082.3</ele>
        <time>2026-08-27T07:25:41.107Z</time>
      </trkpt>
      <trkpt lat="47.84892" lon="6.92263">
        <ele>1082.1</ele>
        <time>2026-08-27T07:25:42.115Z</time>
      </trkpt>
      <trkpt lat="47.84891" lon="6.92264">
        <ele>1081.8</ele>
        <time>2026-08-27T07:25:43.123Z</time>
      </trkpt>
      <trkpt lat="47.84891" lon="6.92264">
        <ele>1081.4</ele>
        <time>2026-08-27T07:25:44.131Z</time>
      </trkpt>
      <trkpt lat="47.84891" lon="6.92264">
        <ele>1081.6</ele>
        <time>2026-08-27T07:25:45.139Z</time>
      </trkpt>
      <trkpt lat="47.84891" lon="6.92264">
        <ele>1081.3</ele>
        <time>2026-08-27T07:25:46.147Z</time>
      </trkpt>
      <trkpt lat="47.84891" lon="6.92264">
        <ele>1081.6</ele>
        <time>2026-08-27T07:25:48.062Z</time>
      </trkpt>
      <trkpt lat="47.84891" lon="6.92264">
        <ele>1081.4</ele>
        <time>2026-08-27T07:25:49.070Z</time>
      </trkpt>
      <trkpt lat="47.84891" lon="6.92264">
        <ele>1081.2</ele>
        <time>2026-08-27T07:25:50.080Z</time>
      </trkpt>
      <trkpt lat="47.84891" lon="6.92264">
        <ele>1081.3</ele>
        <time>2026-08-27T07:25:51.087Z</time>
      </trkpt>
      <trkpt lat="47.84891" lon="6.92264">
        <ele>1081.5</ele>
        <time>2026-08-27T07:25:52.095Z</time>
      </trkpt>
      <trkpt lat="47.84891" lon="6.92265">
        <ele>1081.7</ele>
        <time>2026-08-27T07:25:53.103Z</time>
      </trkpt>
      <trkpt lat="47.84891" lon="6.92265">
        <ele>1081.4</ele>
        <time>2026-08-27T07:25:54.111Z</time>
      </trkpt>
      <trkpt lat="47.84891" lon="6.92266">
        <ele>1081.5</ele>
        <time>2026-08-27T07:25:55.119Z</time>
      </trkpt>
      <trkpt lat="47.84892" lon="6.92267">
        <ele>1081.3</ele>
        <time>2026-08-27T07:25:56.127Z</time>
      </trkpt>
      <trkpt lat="47.84893" lon="6.92268">
        <ele>1081.5</ele>
        <time>2026-08-27T07:25:57.135Z</time>
      </trkpt>
      <trkpt lat="47.84893" lon="6.92269">
        <ele>1081.3</ele>
        <time>2026-08-27T07:25:58.143Z</time>
      </trkpt>
      <trkpt lat="47.84894" lon="6.9227">
        <ele>1080.8</ele>
        <time>2026-08-27T07:25:59.177Z</time>
      </trkpt>
      <trkpt lat="47.84894" lon="6.92271">
        <ele>1080.8</ele>
        <time>2026-08-27T07:26:01.168Z</time>
      </trkpt>
      <trkpt lat="47.84894" lon="6.92273">
        <ele>1081.4</ele>
        <time>2026-08-27T07:26:03.083Z</time>
      </trkpt>
      <trkpt lat="47.84893" lon="6.92276">
        <ele>1081.3</ele>
        <time>2026-08-27T07:26:05.099Z</time>
      </trkpt>
      <trkpt lat="47.84893" lon="6.92276">
        <ele>1081.5</ele>
        <time>2026-08-27T07:26:06.107Z</time>
      </trkpt>
      <trkpt lat="47.84891" lon="6.92277">
        <ele>1081.1</ele>
        <time>2026-08-27T07:26:07.116Z</time>
      </trkpt>
      <trkpt lat="47.8489" lon="6.92278">
        <ele>1081.5</ele>
        <time>2026-08-27T07:26:08.124Z</time>
      </trkpt>
      <trkpt lat="47.84889" lon="6.92278">
        <ele>1081.6</ele>
        <time>2026-08-27T07:26:09.132Z</time>
      </trkpt>
      <trkpt lat="47.84888" lon="6.92279">
        <ele>1081.8</ele>
        <time>2026-08-27T07:26:10.139Z</time>
      </trkpt>
      <trkpt lat="47.84887" lon="6.9228">
        <ele>1081.5</ele>
        <time>2026-08-27T07:26:11.147Z</time>
      </trkpt>
      <trkpt lat="47.84887" lon="6.92284">
        <ele>1081.3</ele>
        <time>2026-08-27T07:26:13.013Z</time>
      </trkpt>
      <trkpt lat="47.84887" lon="6.92285">
        <ele>1081.1</ele>
        <time>2026-08-27T07:26:14.072Z</time>
      </trkpt>
      <trkpt lat="47.84887" lon="6.92286">
        <ele>1081.1</ele>
        <time>2026-08-27T07:26:15.113Z</time>
      </trkpt>
      <trkpt lat="47.84887" lon="6.92286">
        <ele>1081.4</ele>
        <time>2026-08-27T07:26:16.138Z</time>
      </trkpt>
      <trkpt lat="47.84887" lon="6.92286">
        <ele>1081.2</ele>
        <time>2026-08-27T07:26:17.155Z</time>
      </trkpt>
      <trkpt lat="47.84887" lon="6.92286">
        <ele>1081.1</ele>
        <time>2026-08-27T07:26:19.137Z</time>
      </trkpt>
      <trkpt lat="47.84886" lon="6.92288">
        <ele>1081.1</ele>
        <time>2026-08-27T07:26:21.127Z</time>
      </trkpt>
      <trkpt lat="47.84886" lon="6.92291">
        <ele>1081.3</ele>
        <time>2026-08-27T07:26:22.135Z</time>
      </trkpt>
      <trkpt lat="47.84885" lon="6.92293">
        <ele>1081.3</ele>
        <time>2026-08-27T07:26:23.160Z</time>
      </trkpt>
      <trkpt lat="47.84884" lon="6.92296">
        <ele>1080.8</ele>
        <time>2026-08-27T07:26:25.059Z</time>
      </trkpt>
      <trkpt lat="47.84883" lon="6.92299">
        <ele>1080.6</ele>
        <time>2026-08-27T07:26:27.076Z</time>
      </trkpt>
      <trkpt lat="47.84883" lon="6.92301">
        <ele>1080.6</ele>
        <time>2026-08-27T07:26:28.100Z</time>
      </trkpt>
      <trkpt lat="47.84882" lon="6.92304">
        <ele>1080.5</ele>
        <time>2026-08-27T07:26:30.141Z</time>
      </trkpt>
      <trkpt lat="47.84883" lon="6.92307">
        <ele>1080.6</ele>
        <time>2026-08-27T07:26:32.023Z</time>
      </trkpt>
      <trkpt lat="47.84884" lon="6.92309">
        <ele>1079.6</ele>
        <time>2026-08-27T07:26:33.123Z</time>
      </trkpt>
      <trkpt lat="47.84885" lon="6.9231">
        <ele>1080.2</ele>
        <time>2026-08-27T07:26:34.132Z</time>
      </trkpt>
      <trkpt lat="47.84886" lon="6.92312">
        <ele>1079.6</ele>
        <time>2026-08-27T07:26:35.140Z</time>
      </trkpt>
      <trkpt lat="47.84887" lon="6.92313">
        <ele>1079.5</ele>
        <time>2026-08-27T07:26:36.148Z</time>
      </trkpt>
      <trkpt lat="47.8489" lon="6.92313">
        <ele>1079.5</ele>
        <time>2026-08-27T07:26:38.005Z</time>
      </trkpt>
      <trkpt lat="47.84891" lon="6.92314">
        <ele>1079.7</ele>
        <time>2026-08-27T07:26:39.071Z</time>
      </trkpt>
      <trkpt lat="47.84892" lon="6.92315">
        <ele>1079.4</ele>
        <time>2026-08-27T07:26:40.079Z</time>
      </trkpt>
      <trkpt lat="47.84892" lon="6.92316">
        <ele>1079.3</ele>
        <time>2026-08-27T07:26:41.087Z</time>
      </trkpt>
      <trkpt lat="47.84892" lon="6.92317">
        <ele>1079.3</ele>
        <time>2026-08-27T07:26:42.095Z</time>
      </trkpt>
      <trkpt lat="47.84892" lon="6.92317">
        <ele>1079.2</ele>
        <time>2026-08-27T07:26:43.104Z</time>
      </trkpt>
      <trkpt lat="47.84891" lon="6.92316">
        <ele>1079.5</ele>
        <time>2026-08-27T07:26:44.112Z</time>
      </trkpt>
      <trkpt lat="47.84891" lon="6.92315">
        <ele>1079.4</ele>
        <time>2026-08-27T07:26:45.119Z</time>
      </trkpt>
      <trkpt lat="47.84891" lon="6.92314">
        <ele>1079.1</ele>
        <time>2026-08-27T07:26:46.128Z</time>
      </trkpt>
      <trkpt lat="47.84891" lon="6.92313">
        <ele>1079.3</ele>
        <time>2026-08-27T07:26:47.135Z</time>
      </trkpt>
      <trkpt lat="47.84891" lon="6.92313">
        <ele>1079.4</ele>
        <time>2026-08-27T07:26:48.144Z</time>
      </trkpt>
      <trkpt lat="47.84892" lon="6.92313">
        <ele>1079.5</ele>
        <time>2026-08-27T07:26:50.063Z</time>
      </trkpt>
      <trkpt lat="47.84892" lon="6.92316">
        <ele>1079.8</ele>
        <time>2026-08-27T07:26:51.072Z</time>
      </trkpt>
      <trkpt lat="47.84893" lon="6.92318">
        <ele>1079.9</ele>
        <time>2026-08-27T07:26:52.079Z</time>
      </trkpt>
      <trkpt lat="47.84893" lon="6.92321">
        <ele>1079.6</ele>
        <time>2026-08-27T07:26:53.091Z</time>
      </trkpt>
      <trkpt lat="47.84892" lon="6.92324">
        <ele>1079.5</ele>
        <time>2026-08-27T07:26:54.100Z</time>
      </trkpt>
      <trkpt lat="47.84892" lon="6.92327">
        <ele>1079.3</ele>
        <time>2026-08-27T07:26:55.108Z</time>
      </trkpt>
      <trkpt lat="47.84891" lon="6.92329">
        <ele>1079.6</ele>
        <time>2026-08-27T07:26:56.117Z</time>
      </trkpt>
      <trkpt lat="47.8489" lon="6.92332">
        <ele>1079.2</ele>
        <time>2026-08-27T07:26:58.132Z</time>
      </trkpt>
      <trkpt lat="47.8489" lon="6.92332">
        <ele>1079.1</ele>
        <time>2026-08-27T07:26:59.140Z</time>
      </trkpt>
      <trkpt lat="47.8489" lon="6.92333">
        <ele>1078.7</ele>
        <time>2026-08-27T07:27:01.157Z</time>
      </trkpt>
      <trkpt lat="47.8489" lon="6.92332">
        <ele>1078.6</ele>
        <time>2026-08-27T07:27:02.164Z</time>
      </trkpt>
      <trkpt lat="47.8489" lon="6.92332">
        <ele>1078.4</ele>
        <time>2026-08-27T07:27:04.038Z</time>
      </trkpt>
      <trkpt lat="47.84889" lon="6.92332">
        <ele>1078.1</ele>
        <time>2026-08-27T07:27:05.139Z</time>
      </trkpt>
      <trkpt lat="47.84889" lon="6.92335">
        <ele>1077.8</ele>
        <time>2026-08-27T07:27:07.121Z</time>
      </trkpt>
      <trkpt lat="47.84887" lon="6.9234">
        <ele>1077.4</ele>
        <time>2026-08-27T07:27:09.120Z</time>
      </trkpt>
      <trkpt lat="47.84886" lon="6.92342">
        <ele>1077.3</ele>
        <time>2026-08-27T07:27:10.128Z</time>
      </trkpt>
      <trkpt lat="47.84886" lon="6.92343">
        <ele>1077.4</ele>
        <time>2026-08-27T07:27:11.136Z</time>
      </trkpt>
      <trkpt lat="47.84885" lon="6.92345">
        <ele>1077.3</ele>
        <time>2026-08-27T07:27:12.177Z</time>
      </trkpt>
      <trkpt lat="47.84884" lon="6.92348">
        <ele>1076.8</ele>
        <time>2026-08-27T07:27:14.060Z</time>
      </trkpt>
      <trkpt lat="47.84884" lon="6.9235">
        <ele>1076.8</ele>
        <time>2026-08-27T07:27:15.067Z</time>
      </trkpt>
      <trkpt lat="47.84883" lon="6.92352">
        <ele>1076.5</ele>
        <time>2026-08-27T07:27:16.075Z</time>
      </trkpt>
      <trkpt lat="47.84883" lon="6.92353">
        <ele>1076.6</ele>
        <time>2026-08-27T07:27:17.083Z</time>
      </trkpt>
      <trkpt lat="47.84882" lon="6.92355">
        <ele>1076.6</ele>
        <time>2026-08-27T07:27:18.092Z</time>
      </trkpt>
      <trkpt lat="47.84882" lon="6.92358">
        <ele>1076.5</ele>
        <time>2026-08-27T07:27:20.120Z</time>
      </trkpt>
      <trkpt lat="47.84881" lon="6.92359">
        <ele>1076.3</ele>
        <time>2026-08-27T07:27:21.128Z</time>
      </trkpt>
      <trkpt lat="47.8488" lon="6.9236">
        <ele>1076.2</ele>
        <time>2026-08-27T07:27:22.136Z</time>
      </trkpt>
      <trkpt lat="47.84879" lon="6.92361">
        <ele>1076.1</ele>
        <time>2026-08-27T07:27:24.153Z</time>
      </trkpt>
      <trkpt lat="47.84878" lon="6.92363">
        <ele>1075.6</ele>
        <time>2026-08-27T07:27:26.067Z</time>
      </trkpt>
      <trkpt lat="47.84878" lon="6.92365">
        <ele>1075.4</ele>
        <time>2026-08-27T07:27:27.075Z</time>
      </trkpt>
      <trkpt lat="47.84878" lon="6.92369">
        <ele>1075.1</ele>
        <time>2026-08-27T07:27:29.121Z</time>
      </trkpt>
      <trkpt lat="47.84878" lon="6.92372">
        <ele>1074.5</ele>
        <time>2026-08-27T07:27:31.112Z</time>
      </trkpt>
      <trkpt lat="47.84877" lon="6.92374">
        <ele>1074.5</ele>
        <time>2026-08-27T07:27:32.128Z</time>
      </trkpt>
      <trkpt lat="47.84877" lon="6.92375">
        <ele>1074.4</ele>
        <time>2026-08-27T07:27:33.128Z</time>
      </trkpt>
      <trkpt lat="47.84877" lon="6.92376">
        <ele>1074.1</ele>
        <time>2026-08-27T07:27:34.136Z</time>
      </trkpt>
      <trkpt lat="47.84876" lon="6.92378">
        <ele>1074.1</ele>
        <time>2026-08-27T07:27:36.152Z</time>
      </trkpt>
      <trkpt lat="47.84875" lon="6.92381">
        <ele>1074.1</ele>
        <time>2026-08-27T07:27:38.026Z</time>
      </trkpt>
      <trkpt lat="47.84874" lon="6.92383">
        <ele>1073.9</ele>
        <time>2026-08-27T07:27:39.168Z</time>
      </trkpt>
      <trkpt lat="47.84873" lon="6.92386">
        <ele>1073.9</ele>
        <time>2026-08-27T07:27:41.091Z</time>
      </trkpt>
      <trkpt lat="47.84871" lon="6.92389">
        <ele>1073.6</ele>
        <time>2026-08-27T07:27:43.032Z</time>
      </trkpt>
      <trkpt lat="47.84871" lon="6.92391">
        <ele>1073.1</ele>
        <time>2026-08-27T07:27:44.167Z</time>
      </trkpt>
      <trkpt lat="47.84869" lon="6.92394">
        <ele>1073.1</ele>
        <time>2026-08-27T07:27:46.064Z</time>
      </trkpt>
      <trkpt lat="47.84868" lon="6.92395">
        <ele>1073</ele>
        <time>2026-08-27T07:27:47.148Z</time>
      </trkpt>
      <trkpt lat="47.84867" lon="6.92396">
        <ele>1073</ele>
        <time>2026-08-27T07:27:48.148Z</time>
      </trkpt>
      <trkpt lat="47.84867" lon="6.92397">
        <ele>1072.8</ele>
        <time>2026-08-27T07:27:49.156Z</time>
      </trkpt>
      <trkpt lat="47.84866" lon="6.92399">
        <ele>1072.9</ele>
        <time>2026-08-27T07:27:50.164Z</time>
      </trkpt>
      <trkpt lat="47.84865" lon="6.92401">
        <ele>1072.8</ele>
        <time>2026-08-27T07:27:52.079Z</time>
      </trkpt>
      <trkpt lat="47.84864" lon="6.92403">
        <ele>1072.8</ele>
        <time>2026-08-27T07:27:53.088Z</time>
      </trkpt>
      <trkpt lat="47.84864" lon="6.92404">
        <ele>1072.8</ele>
        <time>2026-08-27T07:27:54.120Z</time>
      </trkpt>
      <trkpt lat="47.84864" lon="6.92406">
        <ele>1072.6</ele>
        <time>2026-08-27T07:27:55.120Z</time>
      </trkpt>
      <trkpt lat="47.84863" lon="6.92409">
        <ele>1072.3</ele>
        <time>2026-08-27T07:27:57.119Z</time>
      </trkpt>
      <trkpt lat="47.84863" lon="6.92411">
        <ele>1072.4</ele>
        <time>2026-08-27T07:27:58.127Z</time>
      </trkpt>
      <trkpt lat="47.84863" lon="6.92414">
        <ele>1071.9</ele>
        <time>2026-08-27T07:28:00.143Z</time>
      </trkpt>
      <trkpt lat="47.84863" lon="6.92418">
        <ele>1072.1</ele>
        <time>2026-08-27T07:28:02.060Z</time>
      </trkpt>
      <trkpt lat="47.84863" lon="6.92421">
        <ele>1071.4</ele>
        <time>2026-08-27T07:28:03.068Z</time>
      </trkpt>
      <trkpt lat="47.84863" lon="6.92424">
        <ele>1071.4</ele>
        <time>2026-08-27T07:28:04.940Z</time>
      </trkpt>
      <trkpt lat="47.84863" lon="6.92426">
        <ele>1071.3</ele>
        <time>2026-08-27T07:28:06.015Z</time>
      </trkpt>
      <trkpt lat="47.84863" lon="6.92428">
        <ele>1071.1</ele>
        <time>2026-08-27T07:28:07.099Z</time>
      </trkpt>
      <trkpt lat="47.84863" lon="6.9243">
        <ele>1071.6</ele>
        <time>2026-08-27T07:28:08.107Z</time>
      </trkpt>
      <trkpt lat="47.84863" lon="6.92431">
        <ele>1071.5</ele>
        <time>2026-08-27T07:28:09.115Z</time>
      </trkpt>
      <trkpt lat="47.84862" lon="6.92433">
        <ele>1071</ele>
        <time>2026-08-27T07:28:11.097Z</time>
      </trkpt>
      <trkpt lat="47.84862" lon="6.92435">
        <ele>1070.8</ele>
        <time>2026-08-27T07:28:12.140Z</time>
      </trkpt>
      <trkpt lat="47.84861" lon="6.92436">
        <ele>1070.8</ele>
        <time>2026-08-27T07:28:13.157Z</time>
      </trkpt>
      <trkpt lat="47.8486" lon="6.9244">
        <ele>1071.2</ele>
        <time>2026-08-27T07:28:15.062Z</time>
      </trkpt>
      <trkpt lat="47.8486" lon="6.92442">
        <ele>1070.9</ele>
        <time>2026-08-27T07:28:16.070Z</time>
      </trkpt>
      <trkpt lat="47.8486" lon="6.92444">
        <ele>1070.9</ele>
        <time>2026-08-27T07:28:17.096Z</time>
      </trkpt>
      <trkpt lat="47.8486" lon="6.92448">
        <ele>1071</ele>
        <time>2026-08-27T07:28:19.095Z</time>
      </trkpt>
      <trkpt lat="47.8486" lon="6.9245">
        <ele>1070.8</ele>
        <time>2026-08-27T07:28:20.103Z</time>
      </trkpt>
      <trkpt lat="47.84861" lon="6.92452">
        <ele>1070.9</ele>
        <time>2026-08-27T07:28:21.111Z</time>
      </trkpt>
      <trkpt lat="47.84861" lon="6.92454">
        <ele>1070.8</ele>
        <time>2026-08-27T07:28:22.120Z</time>
      </trkpt>
      <trkpt lat="47.84862" lon="6.92456">
        <ele>1070.8</ele>
        <time>2026-08-27T07:28:23.127Z</time>
      </trkpt>
      <trkpt lat="47.84863" lon="6.9246">
        <ele>1070.6</ele>
        <time>2026-08-27T07:28:25.144Z</time>
      </trkpt>
      <trkpt lat="47.84863" lon="6.92462">
        <ele>1070.6</ele>
        <time>2026-08-27T07:28:26.151Z</time>
      </trkpt>
      <trkpt lat="47.84863" lon="6.92466">
        <ele>1070.5</ele>
        <time>2026-08-27T07:28:28.116Z</time>
      </trkpt>
      <trkpt lat="47.84863" lon="6.92469">
        <ele>1070.9</ele>
        <time>2026-08-27T07:28:30.083Z</time>
      </trkpt>
      <trkpt lat="47.84863" lon="6.9247">
        <ele>1070.9</ele>
        <time>2026-08-27T07:28:31.099Z</time>
      </trkpt>
      <trkpt lat="47.84864" lon="6.92473">
        <ele>1071</ele>
        <time>2026-08-27T07:28:33.106Z</time>
      </trkpt>
      <trkpt lat="47.84864" lon="6.92474">
        <ele>1071.1</ele>
        <time>2026-08-27T07:28:34.114Z</time>
      </trkpt>
      <trkpt lat="47.84864" lon="6.92474">
        <ele>1071.5</ele>
        <time>2026-08-27T07:28:35.122Z</time>
      </trkpt>
      <trkpt lat="47.84864" lon="6.92475">
        <ele>1071.5</ele>
        <time>2026-08-27T07:28:36.131Z</time>
      </trkpt>
      <trkpt lat="47.84863" lon="6.92474">
        <ele>1071.6</ele>
        <time>2026-08-27T07:28:37.138Z</time>
      </trkpt>
      <trkpt lat="47.84862" lon="6.92473">
        <ele>1071.6</ele>
        <time>2026-08-27T07:28:38.146Z</time>
      </trkpt>
      <trkpt lat="47.84862" lon="6.92472">
        <ele>1072</ele>
        <time>2026-08-27T07:28:39.155Z</time>
      </trkpt>
      <trkpt lat="47.84863" lon="6.92472">
        <ele>1072</ele>
        <time>2026-08-27T07:28:41.071Z</time>
      </trkpt>
      <trkpt lat="47.84863" lon="6.92472">
        <ele>1072</ele>
        <time>2026-08-27T07:28:42.078Z</time>
      </trkpt>
      <trkpt lat="47.84863" lon="6.92473">
        <ele>1071.9</ele>
        <time>2026-08-27T07:28:43.086Z</time>
      </trkpt>
      <trkpt lat="47.84863" lon="6.92476">
        <ele>1071.5</ele>
        <time>2026-08-27T07:28:44.094Z</time>
      </trkpt>
      <trkpt lat="47.84864" lon="6.92478">
        <ele>1071.2</ele>
        <time>2026-08-27T07:28:45.102Z</time>
      </trkpt>
      <trkpt lat="47.84864" lon="6.9248">
        <ele>1071.3</ele>
        <time>2026-08-27T07:28:46.110Z</time>
      </trkpt>
      <trkpt lat="47.84864" lon="6.92482">
        <ele>1071.1</ele>
        <time>2026-08-27T07:28:47.135Z</time>
      </trkpt>
      <trkpt lat="47.84865" lon="6.92483">
        <ele>1071.4</ele>
        <time>2026-08-27T07:28:48.143Z</time>
      </trkpt>
      <trkpt lat="47.84866" lon="6.92484">
        <ele>1071.9</ele>
        <time>2026-08-27T07:28:49.151Z</time>
      </trkpt>
      <trkpt lat="47.84866" lon="6.92483">
        <ele>1072.1</ele>
        <time>2026-08-27T07:28:51.066Z</time>
      </trkpt>
      <trkpt lat="47.84866" lon="6.92482">
        <ele>1072.1</ele>
        <time>2026-08-27T07:28:52.078Z</time>
      </trkpt>
      <trkpt lat="47.84866" lon="6.92481">
        <ele>1072.2</ele>
        <time>2026-08-27T07:28:53.103Z</time>
      </trkpt>
      <trkpt lat="47.84866" lon="6.92481">
        <ele>1072.1</ele>
        <time>2026-08-27T07:28:54.112Z</time>
      </trkpt>
      <trkpt lat="47.84866" lon="6.9248">
        <ele>1072.2</ele>
        <time>2026-08-27T07:28:55.120Z</time>
      </trkpt>
      <trkpt lat="47.84865" lon="6.9248">
        <ele>1072.2</ele>
        <time>2026-08-27T07:28:57.034Z</time>
      </trkpt>
      <trkpt lat="47.84865" lon="6.92479">
        <ele>1072</ele>
        <time>2026-08-27T07:28:58.044Z</time>
      </trkpt>
      <trkpt lat="47.84865" lon="6.92479">
        <ele>1072.2</ele>
        <time>2026-08-27T07:28:59.052Z</time>
      </trkpt>
      <trkpt lat="47.84865" lon="6.92479">
        <ele>1072.3</ele>
        <time>2026-08-27T07:29:00.059Z</time>
      </trkpt>
      <trkpt lat="47.84865" lon="6.92479">
        <ele>1072.2</ele>
        <time>2026-08-27T07:29:01.067Z</time>
      </trkpt>
      <trkpt lat="47.84865" lon="6.92479">
        <ele>1072.1</ele>
        <time>2026-08-27T07:29:02.075Z</time>
      </trkpt>
      <trkpt lat="47.84865" lon="6.92479">
        <ele>1072</ele>
        <time>2026-08-27T07:29:03.083Z</time>
      </trkpt>
      <trkpt lat="47.84865" lon="6.92479">
        <ele>1072.3</ele>
        <time>2026-08-27T07:29:04.091Z</time>
      </trkpt>
      <trkpt lat="47.84865" lon="6.92479">
        <ele>1072.3</ele>
        <time>2026-08-27T07:29:05.099Z</time>
      </trkpt>
      <trkpt lat="47.84865" lon="6.92479">
        <ele>1072.4</ele>
        <time>2026-08-27T07:29:06.107Z</time>
      </trkpt>
      <trkpt lat="47.84865" lon="6.92479">
        <ele>1072.3</ele>
        <time>2026-08-27T07:29:07.115Z</time>
      </trkpt>
      <trkpt lat="47.84865" lon="6.92479">
        <ele>1071.9</ele>
        <time>2026-08-27T07:29:08.123Z</time>
      </trkpt>
      <trkpt lat="47.84865" lon="6.92479">
        <ele>1072.9</ele>
        <time>2026-08-27T07:29:09.133Z</time>
      </trkpt>
      <trkpt lat="47.84865" lon="6.92479">
        <ele>1072.5</ele>
        <time>2026-08-27T07:29:11.048Z</time>
      </trkpt>
      <trkpt lat="47.84865" lon="6.92479">
        <ele>1073</ele>
        <time>2026-08-27T07:29:12.056Z</time>
      </trkpt>
      <trkpt lat="47.84865" lon="6.92479">
        <ele>1072.6</ele>
        <time>2026-08-27T07:29:13.064Z</time>
      </trkpt>
      <trkpt lat="47.84865" lon="6.9248">
        <ele>1072.4</ele>
        <time>2026-08-27T07:29:14.072Z</time>
      </trkpt>
      <trkpt lat="47.84865" lon="6.9248">
        <ele>1072.2</ele>
        <time>2026-08-27T07:29:15.079Z</time>
      </trkpt>
      <trkpt lat="47.84865" lon="6.9248">
        <ele>1072.4</ele>
        <time>2026-08-27T07:29:16.089Z</time>
      </trkpt>
      <trkpt lat="47.84865" lon="6.92479">
        <ele>1072.5</ele>
        <time>2026-08-27T07:29:17.096Z</time>
      </trkpt>
      <trkpt lat="47.84865" lon="6.92479">
        <ele>1072.6</ele>
        <time>2026-08-27T07:29:18.104Z</time>
      </trkpt>
      <trkpt lat="47.84865" lon="6.92479">
        <ele>1072.8</ele>
        <time>2026-08-27T07:29:19.112Z</time>
      </trkpt>
      <trkpt lat="47.84865" lon="6.92479">
        <ele>1072.8</ele>
        <time>2026-08-27T07:29:20.121Z</time>
      </trkpt>
      <trkpt lat="47.84865" lon="6.92479">
        <ele>1072.9</ele>
        <time>2026-08-27T07:29:22.137Z</time>
      </trkpt>
      <trkpt lat="47.84865" lon="6.92479">
        <ele>1072.9</ele>
        <time>2026-08-27T07:29:24.052Z</time>
      </trkpt>
      <trkpt lat="47.84865" lon="6.92479">
        <ele>1072.9</ele>
        <time>2026-08-27T07:29:25.060Z</time>
      </trkpt>
      <trkpt lat="47.84865" lon="6.92479">
        <ele>1072.9</ele>
        <time>2026-08-27T07:29:26.069Z</time>
      </trkpt>
      <trkpt lat="47.84864" lon="6.92479">
        <ele>1072.8</ele>
        <time>2026-08-27T07:29:27.077Z</time>
      </trkpt>
      <trkpt lat="47.84864" lon="6.92479">
        <ele>1073</ele>
        <time>2026-08-27T07:29:28.084Z</time>
      </trkpt>
      <trkpt lat="47.84864" lon="6.92479">
        <ele>1073</ele>
        <time>2026-08-27T07:29:29.092Z</time>
      </trkpt>
      <trkpt lat="47.84864" lon="6.92479">
        <ele>1073</ele>
        <time>2026-08-27T07:29:30.100Z</time>
      </trkpt>
      <trkpt lat="47.84865" lon="6.9248">
        <ele>1072.7</ele>
        <time>2026-08-27T07:29:32.117Z</time>
      </trkpt>
      <trkpt lat="47.84865" lon="6.9248">
        <ele>1073</ele>
        <time>2026-08-27T07:29:33.125Z</time>
      </trkpt>
      <trkpt lat="47.84865" lon="6.92481">
        <ele>1073</ele>
        <time>2026-08-27T07:29:35.040Z</time>
      </trkpt>
      <trkpt lat="47.84865" lon="6.92481">
        <ele>1073</ele>
        <time>2026-08-27T07:29:36.048Z</time>
      </trkpt>
      <trkpt lat="47.84865" lon="6.92481">
        <ele>1073.4</ele>
        <time>2026-08-27T07:29:37.057Z</time>
      </trkpt>
      <trkpt lat="47.84865" lon="6.92482">
        <ele>1073.5</ele>
        <time>2026-08-27T07:29:38.065Z</time>
      </trkpt>
      <trkpt lat="47.84865" lon="6.92482">
        <ele>1073.4</ele>
        <time>2026-08-27T07:29:39.073Z</time>
      </trkpt>
      <trkpt lat="47.84865" lon="6.92482">
        <ele>1073.4</ele>
        <time>2026-08-27T07:29:40.082Z</time>
      </trkpt>
      <trkpt lat="47.84865" lon="6.92482">
        <ele>1073.3</ele>
        <time>2026-08-27T07:29:41.090Z</time>
      </trkpt>
      <trkpt lat="47.84865" lon="6.92482">
        <ele>1072.9</ele>
        <time>2026-08-27T07:29:42.098Z</time>
      </trkpt>
      <trkpt lat="47.84865" lon="6.92482">
        <ele>1072.6</ele>
        <time>2026-08-27T07:29:43.106Z</time>
      </trkpt>
      <trkpt lat="47.84865" lon="6.92482">
        <ele>1072.4</ele>
        <time>2026-08-27T07:29:44.114Z</time>
      </trkpt>
      <trkpt lat="47.84865" lon="6.92482">
        <ele>1072.8</ele>
        <time>2026-08-27T07:29:46.030Z</time>
      </trkpt>
      <trkpt lat="47.84865" lon="6.92482">
        <ele>1072.9</ele>
        <time>2026-08-27T07:29:47.139Z</time>
      </trkpt>
      <trkpt lat="47.84865" lon="6.92482">
        <ele>1072.8</ele>
        <time>2026-08-27T07:29:49.053Z</time>
      </trkpt>
      <trkpt lat="47.84865" lon="6.92482">
        <ele>1072.8</ele>
        <time>2026-08-27T07:29:50.061Z</time>
      </trkpt>
      <trkpt lat="47.84865" lon="6.92482">
        <ele>1072.8</ele>
        <time>2026-08-27T07:29:51.070Z</time>
      </trkpt>
      <trkpt lat="47.84865" lon="6.92482">
        <ele>1072.8</ele>
        <time>2026-08-27T07:29:52.079Z</time>
      </trkpt>
      <trkpt lat="47.84865" lon="6.92482">
        <ele>1072.8</ele>
        <time>2026-08-27T07:29:53.086Z</time>
      </trkpt>
      <trkpt lat="47.84865" lon="6.92482">
        <ele>1072.8</ele>
        <time>2026-08-27T07:29:54.094Z</time>
      </trkpt>
      <trkpt lat="47.84865" lon="6.92482">
        <ele>1072.8</ele>
        <time>2026-08-27T07:29:55.102Z</time>
      </trkpt>
      <trkpt lat="47.84865" lon="6.92482">
        <ele>1072.7</ele>
        <time>2026-08-27T07:29:56.110Z</time>
      </trkpt>
      <trkpt lat="47.84865" lon="6.92482">
        <ele>1073.1</ele>
        <time>2026-08-27T07:29:57.118Z</time>
      </trkpt>
      <trkpt lat="47.84865" lon="6.92482">
        <ele>1073.2</ele>
        <time>2026-08-27T07:29:58.127Z</time>
      </trkpt>
      <trkpt lat="47.84865" lon="6.92482">
        <ele>1073.3</ele>
        <time>2026-08-27T07:30:00.043Z</time>
      </trkpt>
      <trkpt lat="47.84865" lon="6.92482">
        <ele>1073.4</ele>
        <time>2026-08-27T07:30:01.051Z</time>
      </trkpt>
      <trkpt lat="47.84865" lon="6.92482">
        <ele>1073.4</ele>
        <time>2026-08-27T07:30:02.058Z</time>
      </trkpt>
      <trkpt lat="47.84865" lon="6.92482">
        <ele>1073.5</ele>
        <time>2026-08-27T07:30:03.067Z</time>
      </trkpt>
      <trkpt lat="47.84865" lon="6.92482">
        <ele>1073.4</ele>
        <time>2026-08-27T07:30:04.076Z</time>
      </trkpt>
      <trkpt lat="47.84865" lon="6.92482">
        <ele>1073.5</ele>
        <time>2026-08-27T07:30:05.084Z</time>
      </trkpt>
      <trkpt lat="47.84865" lon="6.92482">
        <ele>1073.8</ele>
        <time>2026-08-27T07:30:06.091Z</time>
      </trkpt>
      <trkpt lat="47.84865" lon="6.92482">
        <ele>1073.9</ele>
        <time>2026-08-27T07:30:07.100Z</time>
      </trkpt>
      <trkpt lat="47.84865" lon="6.92482">
        <ele>1073.9</ele>
        <time>2026-08-27T07:30:08.107Z</time>
      </trkpt>
      <trkpt lat="47.84865" lon="6.92482">
        <ele>1073.3</ele>
        <time>2026-08-27T07:30:09.116Z</time>
      </trkpt>
      <trkpt lat="47.84865" lon="6.92482">
        <ele>1072.7</ele>
        <time>2026-08-27T07:30:10.125Z</time>
      </trkpt>
      <trkpt lat="47.84865" lon="6.92482">
        <ele>1072.7</ele>
        <time>2026-08-27T07:30:11.133Z</time>
      </trkpt>
      <trkpt lat="47.84865" lon="6.92482">
        <ele>1072.8</ele>
        <time>2026-08-27T07:30:13.047Z</time>
      </trkpt>
      <trkpt lat="47.84865" lon="6.92482">
        <ele>1072.9</ele>
        <time>2026-08-27T07:30:14.056Z</time>
      </trkpt>
      <trkpt lat="47.84865" lon="6.92482">
        <ele>1073.1</ele>
        <time>2026-08-27T07:30:15.065Z</time>
      </trkpt>
      <trkpt lat="47.84865" lon="6.92482">
        <ele>1073.2</ele>
        <time>2026-08-27T07:30:16.073Z</time>
      </trkpt>
      <trkpt lat="47.84865" lon="6.92482">
        <ele>1073.1</ele>
        <time>2026-08-27T07:30:17.080Z</time>
      </trkpt>
      <trkpt lat="47.84865" lon="6.92482">
        <ele>1073</ele>
        <time>2026-08-27T07:30:18.088Z</time>
      </trkpt>
      <trkpt lat="47.84864" lon="6.92482">
        <ele>1073</ele>
        <time>2026-08-27T07:30:19.096Z</time>
      </trkpt>
      <trkpt lat="47.84864" lon="6.92482">
        <ele>1073</ele>
        <time>2026-08-27T07:30:20.105Z</time>
      </trkpt>
      <trkpt lat="47.84864" lon="6.92482">
        <ele>1073</ele>
        <time>2026-08-27T07:30:21.113Z</time>
      </trkpt>
      <trkpt lat="47.84864" lon="6.92482">
        <ele>1073</ele>
        <time>2026-08-27T07:30:22.121Z</time>
      </trkpt>
      <trkpt lat="47.84864" lon="6.92482">
        <ele>1072.9</ele>
        <time>2026-08-27T07:30:24.036Z</time>
      </trkpt>
      <trkpt lat="47.84864" lon="6.92482">
        <ele>1072.8</ele>
        <time>2026-08-27T07:30:25.044Z</time>
      </trkpt>
      <trkpt lat="47.84864" lon="6.92481">
        <ele>1073</ele>
        <time>2026-08-27T07:30:26.053Z</time>
      </trkpt>
      <trkpt lat="47.84864" lon="6.92481">
        <ele>1073.2</ele>
        <time>2026-08-27T07:30:27.061Z</time>
      </trkpt>
      <trkpt lat="47.84864" lon="6.92481">
        <ele>1072.6</ele>
        <time>2026-08-27T07:30:28.069Z</time>
      </trkpt>
      <trkpt lat="47.84864" lon="6.92481">
        <ele>1072.7</ele>
        <time>2026-08-27T07:30:29.077Z</time>
      </trkpt>
      <trkpt lat="47.84864" lon="6.92481">
        <ele>1072.7</ele>
        <time>2026-08-27T07:30:30.085Z</time>
      </trkpt>
      <trkpt lat="47.84864" lon="6.92481">
        <ele>1072.7</ele>
        <time>2026-08-27T07:30:31.094Z</time>
      </trkpt>
      <trkpt lat="47.84864" lon="6.92482">
        <ele>1072.8</ele>
        <time>2026-08-27T07:30:32.101Z</time>
      </trkpt>
      <trkpt lat="47.84864" lon="6.92482">
        <ele>1073</ele>
        <time>2026-08-27T07:30:33.110Z</time>
      </trkpt>
      <trkpt lat="47.84864" lon="6.92482">
        <ele>1072.9</ele>
        <time>2026-08-27T07:30:34.119Z</time>
      </trkpt>
      <trkpt lat="47.84864" lon="6.92482">
        <ele>1072.5</ele>
        <time>2026-08-27T07:30:36.034Z</time>
      </trkpt>
      <trkpt lat="47.84864" lon="6.92482">
        <ele>1072.6</ele>
        <time>2026-08-27T07:30:37.041Z</time>
      </trkpt>
      <trkpt lat="47.84864" lon="6.92482">
        <ele>1072.7</ele>
        <time>2026-08-27T07:30:38.050Z</time>
      </trkpt>
      <trkpt lat="47.84864" lon="6.92482">
        <ele>1072.7</ele>
        <time>2026-08-27T07:30:39.058Z</time>
      </trkpt>
      <trkpt lat="47.84864" lon="6.92483">
        <ele>1072.8</ele>
        <time>2026-08-27T07:30:40.067Z</time>
      </trkpt>
      <trkpt lat="47.84864" lon="6.92483">
        <ele>1073</ele>
        <time>2026-08-27T07:30:41.074Z</time>
      </trkpt>
      <trkpt lat="47.84864" lon="6.92483">
        <ele>1072.9</ele>
        <time>2026-08-27T07:30:42.082Z</time>
      </trkpt>
      <trkpt lat="47.84864" lon="6.92483">
        <ele>1073.1</ele>
        <time>2026-08-27T07:30:43.091Z</time>
      </trkpt>
      <trkpt lat="47.84864" lon="6.92483">
        <ele>1072.9</ele>
        <time>2026-08-27T07:30:44.098Z</time>
      </trkpt>
      <trkpt lat="47.84865" lon="6.92483">
        <ele>1073.1</ele>
        <time>2026-08-27T07:30:45.106Z</time>
      </trkpt>
      <trkpt lat="47.84865" lon="6.92483">
        <ele>1073.1</ele>
        <time>2026-08-27T07:30:46.115Z</time>
      </trkpt>
      <trkpt lat="47.84865" lon="6.92484">
        <ele>1073.2</ele>
        <time>2026-08-27T07:30:48.030Z</time>
      </trkpt>
      <trkpt lat="47.84865" lon="6.92484">
        <ele>1073.2</ele>
        <time>2026-08-27T07:30:49.038Z</time>
      </trkpt>
      <trkpt lat="47.84865" lon="6.92484">
        <ele>1073</ele>
        <time>2026-08-27T07:30:50.046Z</time>
      </trkpt>
      <trkpt lat="47.84865" lon="6.92484">
        <ele>1073.1</ele>
        <time>2026-08-27T07:30:51.054Z</time>
      </trkpt>
      <trkpt lat="47.84865" lon="6.92484">
        <ele>1073</ele>
        <time>2026-08-27T07:30:52.063Z</time>
      </trkpt>
      <trkpt lat="47.84865" lon="6.92484">
        <ele>1072.9</ele>
        <time>2026-08-27T07:30:53.071Z</time>
      </trkpt>
      <trkpt lat="47.84865" lon="6.92484">
        <ele>1072.6</ele>
        <time>2026-08-27T07:30:54.079Z</time>
      </trkpt>
      <trkpt lat="47.84865" lon="6.92484">
        <ele>1073.1</ele>
        <time>2026-08-27T07:30:55.087Z</time>
      </trkpt>
      <trkpt lat="47.84865" lon="6.92484">
        <ele>1073.1</ele>
        <time>2026-08-27T07:30:56.096Z</time>
      </trkpt>
      <trkpt lat="47.84865" lon="6.92484">
        <ele>1072.6</ele>
        <time>2026-08-27T07:30:57.103Z</time>
      </trkpt>
      <trkpt lat="47.84865" lon="6.92484">
        <ele>1072.4</ele>
        <time>2026-08-27T07:30:58.112Z</time>
      </trkpt>
      <trkpt lat="47.84865" lon="6.92484">
        <ele>1072.6</ele>
        <time>2026-08-27T07:31:00.116Z</time>
      </trkpt>
      <trkpt lat="47.84865" lon="6.92484">
        <ele>1072.4</ele>
        <time>2026-08-27T07:31:01.136Z</time>
      </trkpt>
      <trkpt lat="47.84865" lon="6.92484">
        <ele>1072.6</ele>
        <time>2026-08-27T07:31:02.145Z</time>
      </trkpt>
      <trkpt lat="47.84865" lon="6.92484">
        <ele>1072</ele>
        <time>2026-08-27T07:31:04.059Z</time>
      </trkpt>
      <trkpt lat="47.84865" lon="6.92484">
        <ele>1071.8</ele>
        <time>2026-08-27T07:31:06.077Z</time>
      </trkpt>
      <trkpt lat="47.84865" lon="6.92484">
        <ele>1071.6</ele>
        <time>2026-08-27T07:31:07.085Z</time>
      </trkpt>
      <trkpt lat="47.84864" lon="6.92484">
        <ele>1071.6</ele>
        <time>2026-08-27T07:31:08.155Z</time>
      </trkpt>
      <trkpt lat="47.84864" lon="6.92485">
        <ele>1071.9</ele>
        <time>2026-08-27T07:31:09.155Z</time>
      </trkpt>
      <trkpt lat="47.84863" lon="6.92488">
        <ele>1072</ele>
        <time>2026-08-27T07:31:11.117Z</time>
      </trkpt>
      <trkpt lat="47.84862" lon="6.92489">
        <ele>1071.9</ele>
        <time>2026-08-27T07:31:12.124Z</time>
      </trkpt>
      <trkpt lat="47.84862" lon="6.9249">
        <ele>1072.6</ele>
        <time>2026-08-27T07:31:13.138Z</time>
      </trkpt>
      <trkpt lat="47.84862" lon="6.92491">
        <ele>1072.7</ele>
        <time>2026-08-27T07:31:14.145Z</time>
      </trkpt>
      <trkpt lat="47.84862" lon="6.92491">
        <ele>1072.8</ele>
        <time>2026-08-27T07:31:15.154Z</time>
      </trkpt>
      <trkpt lat="47.84861" lon="6.92492">
        <ele>1073.2</ele>
        <time>2026-08-27T07:31:16.162Z</time>
      </trkpt>
      <trkpt lat="47.84861" lon="6.92492">
        <ele>1073.4</ele>
        <time>2026-08-27T07:31:17.169Z</time>
      </trkpt>
      <trkpt lat="47.84861" lon="6.92492">
        <ele>1073.5</ele>
        <time>2026-08-27T07:31:18.177Z</time>
      </trkpt>
      <trkpt lat="47.84861" lon="6.92494">
        <ele>1073.6</ele>
        <time>2026-08-27T07:31:20.194Z</time>
      </trkpt>
      <trkpt lat="47.84861" lon="6.92494">
        <ele>1074.2</ele>
        <time>2026-08-27T07:31:22.109Z</time>
      </trkpt>
      <trkpt lat="47.84861" lon="6.92493">
        <ele>1074.2</ele>
        <time>2026-08-27T07:31:23.117Z</time>
      </trkpt>
      <trkpt lat="47.84861" lon="6.92493">
        <ele>1074</ele>
        <time>2026-08-27T07:31:24.125Z</time>
      </trkpt>
      <trkpt lat="47.84862" lon="6.92493">
        <ele>1074</ele>
        <time>2026-08-27T07:31:25.158Z</time>
      </trkpt>
      <trkpt lat="47.84861" lon="6.92493">
        <ele>1074.1</ele>
        <time>2026-08-27T07:31:27.149Z</time>
      </trkpt>
      <trkpt lat="47.84861" lon="6.92494">
        <ele>1074.3</ele>
        <time>2026-08-27T07:31:28.157Z</time>
      </trkpt>
      <trkpt lat="47.84861" lon="6.92495">
        <ele>1074.3</ele>
        <time>2026-08-27T07:31:29.158Z</time>
      </trkpt>
      <trkpt lat="47.84862" lon="6.92497">
        <ele>1074.4</ele>
        <time>2026-08-27T07:31:30.173Z</time>
      </trkpt>
      <trkpt lat="47.84862" lon="6.925">
        <ele>1074.9</ele>
        <time>2026-08-27T07:31:31.181Z</time>
      </trkpt>
      <trkpt lat="47.84862" lon="6.92502">
        <ele>1075</ele>
        <time>2026-08-27T07:31:32.189Z</time>
      </trkpt>
      <trkpt lat="47.84863" lon="6.92505">
        <ele>1074.8</ele>
        <time>2026-08-27T07:31:34.105Z</time>
      </trkpt>
      <trkpt lat="47.84863" lon="6.92507">
        <ele>1075.1</ele>
        <time>2026-08-27T07:31:35.113Z</time>
      </trkpt>
      <trkpt lat="47.84863" lon="6.92507">
        <ele>1075.1</ele>
        <time>2026-08-27T07:31:36.139Z</time>
      </trkpt>
      <trkpt lat="47.84862" lon="6.92508">
        <ele>1075.8</ele>
        <time>2026-08-27T07:31:38.138Z</time>
      </trkpt>
      <trkpt lat="47.84861" lon="6.92508">
        <ele>1075.7</ele>
        <time>2026-08-27T07:31:39.145Z</time>
      </trkpt>
      <trkpt lat="47.84862" lon="6.92507">
        <ele>1076.3</ele>
        <time>2026-08-27T07:31:40.154Z</time>
      </trkpt>
      <trkpt lat="47.84862" lon="6.92507">
        <ele>1076.2</ele>
        <time>2026-08-27T07:31:41.161Z</time>
      </trkpt>
      <trkpt lat="47.84862" lon="6.92507">
        <ele>1076.7</ele>
        <time>2026-08-27T07:31:42.169Z</time>
      </trkpt>
      <trkpt lat="47.84862" lon="6.92507">
        <ele>1076.8</ele>
        <time>2026-08-27T07:31:43.177Z</time>
      </trkpt>
      <trkpt lat="47.84862" lon="6.92507">
        <ele>1077</ele>
        <time>2026-08-27T07:31:44.186Z</time>
      </trkpt>
      <trkpt lat="47.84862" lon="6.92507">
        <ele>1077.3</ele>
        <time>2026-08-27T07:31:45.193Z</time>
      </trkpt>
      <trkpt lat="47.84862" lon="6.92507">
        <ele>1077.2</ele>
        <time>2026-08-27T07:31:47.109Z</time>
      </trkpt>
      <trkpt lat="47.84862" lon="6.92507">
        <ele>1077.2</ele>
        <time>2026-08-27T07:31:48.116Z</time>
      </trkpt>
      <trkpt lat="47.84862" lon="6.92507">
        <ele>1077</ele>
        <time>2026-08-27T07:31:49.124Z</time>
      </trkpt>
      <trkpt lat="47.84862" lon="6.92507">
        <ele>1077</ele>
        <time>2026-08-27T07:31:50.134Z</time>
      </trkpt>
      <trkpt lat="47.84862" lon="6.92508">
        <ele>1076.9</ele>
        <time>2026-08-27T07:31:51.142Z</time>
      </trkpt>
      <trkpt lat="47.84862" lon="6.92508">
        <ele>1076.9</ele>
        <time>2026-08-27T07:31:52.217Z</time>
      </trkpt>
      <trkpt lat="47.84862" lon="6.92509">
        <ele>1076.7</ele>
        <time>2026-08-27T07:31:54.064Z</time>
      </trkpt>
      <trkpt lat="47.84862" lon="6.92509">
        <ele>1076.7</ele>
        <time>2026-08-27T07:31:55.072Z</time>
      </trkpt>
      <trkpt lat="47.84862" lon="6.92511">
        <ele>1076.9</ele>
        <time>2026-08-27T07:31:56.938Z</time>
      </trkpt>
      <trkpt lat="47.84862" lon="6.92511">
        <ele>1077</ele>
        <time>2026-08-27T07:31:58.096Z</time>
      </trkpt>
      <trkpt lat="47.84862" lon="6.92512">
        <ele>1077</ele>
        <time>2026-08-27T07:31:59.213Z</time>
      </trkpt>
      <trkpt lat="47.84862" lon="6.92512">
        <ele>1077.6</ele>
        <time>2026-08-27T07:32:01.120Z</time>
      </trkpt>
      <trkpt lat="47.84862" lon="6.92512">
        <ele>1077.5</ele>
        <time>2026-08-27T07:32:02.128Z</time>
      </trkpt>
      <trkpt lat="47.84861" lon="6.92512">
        <ele>1077.3</ele>
        <time>2026-08-27T07:32:03.136Z</time>
      </trkpt>
      <trkpt lat="47.84861" lon="6.92511">
        <ele>1077.7</ele>
        <time>2026-08-27T07:32:05.152Z</time>
      </trkpt>
      <trkpt lat="47.8486" lon="6.9251">
        <ele>1078.2</ele>
        <time>2026-08-27T07:32:07.168Z</time>
      </trkpt>
      <trkpt lat="47.8486" lon="6.92509">
        <ele>1078</ele>
        <time>2026-08-27T07:32:08.176Z</time>
      </trkpt>
      <trkpt lat="47.8486" lon="6.92509">
        <ele>1078.4</ele>
        <time>2026-08-27T07:32:10.202Z</time>
      </trkpt>
      <trkpt lat="47.8486" lon="6.92508">
        <ele>1078.9</ele>
        <time>2026-08-27T07:32:11.780Z</time>
      </trkpt>
      <trkpt lat="47.8486" lon="6.92508">
        <ele>1079.2</ele>
        <time>2026-08-27T07:32:13.115Z</time>
      </trkpt>
      <trkpt lat="47.84859" lon="6.92508">
        <ele>1079.7</ele>
        <time>2026-08-27T07:32:14.123Z</time>
      </trkpt>
      <trkpt lat="47.84859" lon="6.92508">
        <ele>1080</ele>
        <time>2026-08-27T07:32:15.133Z</time>
      </trkpt>
      <trkpt lat="47.84859" lon="6.92507">
        <ele>1079.9</ele>
        <time>2026-08-27T07:32:16.140Z</time>
      </trkpt>
      <trkpt lat="47.84858" lon="6.92507">
        <ele>1080.2</ele>
        <time>2026-08-27T07:32:17.148Z</time>
      </trkpt>
      <trkpt lat="47.84858" lon="6.92507">
        <ele>1080.2</ele>
        <time>2026-08-27T07:32:18.157Z</time>
      </trkpt>
      <trkpt lat="47.84857" lon="6.92507">
        <ele>1080.2</ele>
        <time>2026-08-27T07:32:19.165Z</time>
      </trkpt>
      <trkpt lat="47.84857" lon="6.92507">
        <ele>1079.6</ele>
        <time>2026-08-27T07:32:20.173Z</time>
      </trkpt>
      <trkpt lat="47.84857" lon="6.92506">
        <ele>1080.3</ele>
        <time>2026-08-27T07:32:21.181Z</time>
      </trkpt>
      <trkpt lat="47.84856" lon="6.92506">
        <ele>1080.3</ele>
        <time>2026-08-27T07:32:23.096Z</time>
      </trkpt>
      <trkpt lat="47.84854" lon="6.92505">
        <ele>1080.5</ele>
        <time>2026-08-27T07:32:25.035Z</time>
      </trkpt>
      <trkpt lat="47.84853" lon="6.92504">
        <ele>1081.2</ele>
        <time>2026-08-27T07:32:26.119Z</time>
      </trkpt>
      <trkpt lat="47.84853" lon="6.92503">
        <ele>1081.1</ele>
        <time>2026-08-27T07:32:27.128Z</time>
      </trkpt>
      <trkpt lat="47.84853" lon="6.92502">
        <ele>1081.4</ele>
        <time>2026-08-27T07:32:28.135Z</time>
      </trkpt>
      <trkpt lat="47.84852" lon="6.92502">
        <ele>1081.9</ele>
        <time>2026-08-27T07:32:29.143Z</time>
      </trkpt>
      <trkpt lat="47.84852" lon="6.92502">
        <ele>1082</ele>
        <time>2026-08-27T07:32:30.151Z</time>
      </trkpt>
      <trkpt lat="47.84852" lon="6.92502">
        <ele>1081.8</ele>
        <time>2026-08-27T07:32:31.159Z</time>
      </trkpt>
      <trkpt lat="47.84851" lon="6.92501">
        <ele>1081.7</ele>
        <time>2026-08-27T07:32:33.074Z</time>
      </trkpt>
      <trkpt lat="47.84851" lon="6.92501">
        <ele>1081.7</ele>
        <time>2026-08-27T07:32:34.074Z</time>
      </trkpt>
      <trkpt lat="47.84851" lon="6.92501">
        <ele>1082.1</ele>
        <time>2026-08-27T07:32:35.091Z</time>
      </trkpt>
      <trkpt lat="47.8485" lon="6.92501">
        <ele>1081.9</ele>
        <time>2026-08-27T07:32:36.099Z</time>
      </trkpt>
      <trkpt lat="47.84849" lon="6.925">
        <ele>1082.4</ele>
        <time>2026-08-27T07:32:37.107Z</time>
      </trkpt>
      <trkpt lat="47.84847" lon="6.925">
        <ele>1082.7</ele>
        <time>2026-08-27T07:32:39.122Z</time>
      </trkpt>
      <trkpt lat="47.84846" lon="6.92501">
        <ele>1083.1</ele>
        <time>2026-08-27T07:32:40.131Z</time>
      </trkpt>
      <trkpt lat="47.84844" lon="6.92501">
        <ele>1083.2</ele>
        <time>2026-08-27T07:32:41.138Z</time>
      </trkpt>
      <trkpt lat="47.84843" lon="6.92502">
        <ele>1083.2</ele>
        <time>2026-08-27T07:32:42.147Z</time>
      </trkpt>
      <trkpt lat="47.84842" lon="6.92502">
        <ele>1083.6</ele>
        <time>2026-08-27T07:32:44.162Z</time>
      </trkpt>
      <trkpt lat="47.8484" lon="6.92501">
        <ele>1083.6</ele>
        <time>2026-08-27T07:32:46.136Z</time>
      </trkpt>
      <trkpt lat="47.8484" lon="6.92501">
        <ele>1083.9</ele>
        <time>2026-08-27T07:32:47.187Z</time>
      </trkpt>
      <trkpt lat="47.84839" lon="6.92501">
        <ele>1083.4</ele>
        <time>2026-08-27T07:32:49.101Z</time>
      </trkpt>
      <trkpt lat="47.84839" lon="6.92502">
        <ele>1084</ele>
        <time>2026-08-27T07:32:50.110Z</time>
      </trkpt>
      <trkpt lat="47.84838" lon="6.92502">
        <ele>1083.9</ele>
        <time>2026-08-27T07:32:51.117Z</time>
      </trkpt>
      <trkpt lat="47.84838" lon="6.92502">
        <ele>1083.9</ele>
        <time>2026-08-27T07:32:52.126Z</time>
      </trkpt>
      <trkpt lat="47.84838" lon="6.92502">
        <ele>1084.5</ele>
        <time>2026-08-27T07:32:53.133Z</time>
      </trkpt>
      <trkpt lat="47.84838" lon="6.92503">
        <ele>1084.8</ele>
        <time>2026-08-27T07:32:54.142Z</time>
      </trkpt>
      <trkpt lat="47.84836" lon="6.92503">
        <ele>1085</ele>
        <time>2026-08-27T07:32:56.157Z</time>
      </trkpt>
      <trkpt lat="47.84836" lon="6.92504">
        <ele>1085.1</ele>
        <time>2026-08-27T07:32:57.166Z</time>
      </trkpt>
      <trkpt lat="47.84835" lon="6.92504">
        <ele>1085.6</ele>
        <time>2026-08-27T07:32:58.173Z</time>
      </trkpt>
      <trkpt lat="47.84834" lon="6.92506">
        <ele>1085.4</ele>
        <time>2026-08-27T07:33:00.089Z</time>
      </trkpt>
      <trkpt lat="47.84834" lon="6.92506">
        <ele>1085.4</ele>
        <time>2026-08-27T07:33:01.114Z</time>
      </trkpt>
      <trkpt lat="47.84833" lon="6.92506">
        <ele>1085.3</ele>
        <time>2026-08-27T07:33:02.205Z</time>
      </trkpt>
      <trkpt lat="47.84832" lon="6.92506">
        <ele>1085.3</ele>
        <time>2026-08-27T07:33:04.121Z</time>
      </trkpt>
      <trkpt lat="47.84832" lon="6.92506">
        <ele>1085.3</ele>
        <time>2026-08-27T07:33:05.129Z</time>
      </trkpt>
      <trkpt lat="47.84831" lon="6.92506">
        <ele>1085.6</ele>
        <time>2026-08-27T07:33:06.137Z</time>
      </trkpt>
      <trkpt lat="47.8483" lon="6.92507">
        <ele>1086</ele>
        <time>2026-08-27T07:33:08.153Z</time>
      </trkpt>
      <trkpt lat="47.84829" lon="6.92507">
        <ele>1086.1</ele>
        <time>2026-08-27T07:33:10.001Z</time>
      </trkpt>
      <trkpt lat="47.84829" lon="6.92508">
        <ele>1086.1</ele>
        <time>2026-08-27T07:33:12.000Z</time>
      </trkpt>
      <trkpt lat="47.84829" lon="6.92508">
        <ele>1086.6</ele>
        <time>2026-08-27T07:33:13.194Z</time>
      </trkpt>
      <trkpt lat="47.84827" lon="6.92509">
        <ele>1086.5</ele>
        <time>2026-08-27T07:33:15.108Z</time>
      </trkpt>
      <trkpt lat="47.84826" lon="6.92509">
        <ele>1086.4</ele>
        <time>2026-08-27T07:33:16.116Z</time>
      </trkpt>
      <trkpt lat="47.84825" lon="6.9251">
        <ele>1086.4</ele>
        <time>2026-08-27T07:33:17.125Z</time>
      </trkpt>
      <trkpt lat="47.84824" lon="6.9251">
        <ele>1085.7</ele>
        <time>2026-08-27T07:33:18.133Z</time>
      </trkpt>
      <trkpt lat="47.84824" lon="6.92511">
        <ele>1086.5</ele>
        <time>2026-08-27T07:33:19.141Z</time>
      </trkpt>
      <trkpt lat="47.84823" lon="6.92512">
        <ele>1086.3</ele>
        <time>2026-08-27T07:33:20.149Z</time>
      </trkpt>
      <trkpt lat="47.84823" lon="6.92513">
        <ele>1086.3</ele>
        <time>2026-08-27T07:33:21.157Z</time>
      </trkpt>
      <trkpt lat="47.84823" lon="6.92514">
        <ele>1086.7</ele>
        <time>2026-08-27T07:33:22.164Z</time>
      </trkpt>
      <trkpt lat="47.84822" lon="6.92515">
        <ele>1087.1</ele>
        <time>2026-08-27T07:33:23.172Z</time>
      </trkpt>
      <trkpt lat="47.84821" lon="6.92515">
        <ele>1087.4</ele>
        <time>2026-08-27T07:33:25.155Z</time>
      </trkpt>
      <trkpt lat="47.8482" lon="6.92515">
        <ele>1087.7</ele>
        <time>2026-08-27T07:33:27.019Z</time>
      </trkpt>
      <trkpt lat="47.84819" lon="6.92516">
        <ele>1087.9</ele>
        <time>2026-08-27T07:33:28.934Z</time>
      </trkpt>
      <trkpt lat="47.84819" lon="6.92516">
        <ele>1088</ele>
        <time>2026-08-27T07:33:30.035Z</time>
      </trkpt>
      <trkpt lat="47.84818" lon="6.92516">
        <ele>1087.8</ele>
        <time>2026-08-27T07:33:31.135Z</time>
      </trkpt>
      <trkpt lat="47.84818" lon="6.92517">
        <ele>1087.9</ele>
        <time>2026-08-27T07:33:32.143Z</time>
      </trkpt>
      <trkpt lat="47.84818" lon="6.92518">
        <ele>1088</ele>
        <time>2026-08-27T07:33:33.151Z</time>
      </trkpt>
      <trkpt lat="47.84818" lon="6.92521">
        <ele>1088.2</ele>
        <time>2026-08-27T07:33:35.066Z</time>
      </trkpt>
      <trkpt lat="47.84818" lon="6.92523">
        <ele>1088.6</ele>
        <time>2026-08-27T07:33:36.141Z</time>
      </trkpt>
      <trkpt lat="47.84819" lon="6.92524">
        <ele>1088.8</ele>
        <time>2026-08-27T07:33:37.183Z</time>
      </trkpt>
      <trkpt lat="47.8482" lon="6.92525">
        <ele>1089.3</ele>
        <time>2026-08-27T07:33:39.098Z</time>
      </trkpt>
      <trkpt lat="47.84821" lon="6.92526">
        <ele>1089.5</ele>
        <time>2026-08-27T07:33:40.106Z</time>
      </trkpt>
      <trkpt lat="47.84821" lon="6.92526">
        <ele>1089.9</ele>
        <time>2026-08-27T07:33:41.115Z</time>
      </trkpt>
      <trkpt lat="47.84822" lon="6.92526">
        <ele>1090.1</ele>
        <time>2026-08-27T07:33:42.123Z</time>
      </trkpt>
      <trkpt lat="47.84822" lon="6.92526">
        <ele>1090</ele>
        <time>2026-08-27T07:33:43.130Z</time>
      </trkpt>
      <trkpt lat="47.84823" lon="6.92526">
        <ele>1090.1</ele>
        <time>2026-08-27T07:33:44.139Z</time>
      </trkpt>
      <trkpt lat="47.84823" lon="6.92527">
        <ele>1090.2</ele>
        <time>2026-08-27T07:33:45.146Z</time>
      </trkpt>
      <trkpt lat="47.84824" lon="6.92527">
        <ele>1090.3</ele>
        <time>2026-08-27T07:33:46.154Z</time>
      </trkpt>
      <trkpt lat="47.84824" lon="6.92527">
        <ele>1090.4</ele>
        <time>2026-08-27T07:33:47.163Z</time>
      </trkpt>
      <trkpt lat="47.84825" lon="6.92529">
        <ele>1090.3</ele>
        <time>2026-08-27T07:33:49.078Z</time>
      </trkpt>
      <trkpt lat="47.84825" lon="6.9253">
        <ele>1090.4</ele>
        <time>2026-08-27T07:33:50.186Z</time>
      </trkpt>
      <trkpt lat="47.84826" lon="6.92531">
        <ele>1091.3</ele>
        <time>2026-08-27T07:33:52.202Z</time>
      </trkpt>
      <trkpt lat="47.84828" lon="6.92532">
        <ele>1091.4</ele>
        <time>2026-08-27T07:33:54.117Z</time>
      </trkpt>
      <trkpt lat="47.84828" lon="6.92533">
        <ele>1092.2</ele>
        <time>2026-08-27T07:33:55.126Z</time>
      </trkpt>
      <trkpt lat="47.84828" lon="6.92533">
        <ele>1092.1</ele>
        <time>2026-08-27T07:33:56.175Z</time>
      </trkpt>
      <trkpt lat="47.84829" lon="6.92534">
        <ele>1091.8</ele>
        <time>2026-08-27T07:33:58.149Z</time>
      </trkpt>
      <trkpt lat="47.8483" lon="6.92535">
        <ele>1091.7</ele>
        <time>2026-08-27T07:33:59.157Z</time>
      </trkpt>
      <trkpt lat="47.84831" lon="6.92536">
        <ele>1091.6</ele>
        <time>2026-08-27T07:34:00.165Z</time>
      </trkpt>
      <trkpt lat="47.84833" lon="6.92537">
        <ele>1091.8</ele>
        <time>2026-08-27T07:34:02.080Z</time>
      </trkpt>
      <trkpt lat="47.84833" lon="6.92537">
        <ele>1091.6</ele>
        <time>2026-08-27T07:34:03.088Z</time>
      </trkpt>
      <trkpt lat="47.84834" lon="6.92538">
        <ele>1091.6</ele>
        <time>2026-08-27T07:34:04.113Z</time>
      </trkpt>
      <trkpt lat="47.84835" lon="6.92539">
        <ele>1092.8</ele>
        <time>2026-08-27T07:34:06.112Z</time>
      </trkpt>
      <trkpt lat="47.84836" lon="6.92539">
        <ele>1092.9</ele>
        <time>2026-08-27T07:34:08.129Z</time>
      </trkpt>
      <trkpt lat="47.84837" lon="6.9254">
        <ele>1093.3</ele>
        <time>2026-08-27T07:34:09.136Z</time>
      </trkpt>
      <trkpt lat="47.84838" lon="6.9254">
        <ele>1093.3</ele>
        <time>2026-08-27T07:34:10.144Z</time>
      </trkpt>
      <trkpt lat="47.84838" lon="6.92541">
        <ele>1093.3</ele>
        <time>2026-08-27T07:34:11.152Z</time>
      </trkpt>
      <trkpt lat="47.84839" lon="6.92541">
        <ele>1093.3</ele>
        <time>2026-08-27T07:34:13.168Z</time>
      </trkpt>
      <trkpt lat="47.84839" lon="6.92543">
        <ele>1093.8</ele>
        <time>2026-08-27T07:34:15.041Z</time>
      </trkpt>
      <trkpt lat="47.8484" lon="6.92543">
        <ele>1093.7</ele>
        <time>2026-08-27T07:34:16.092Z</time>
      </trkpt>
      <trkpt lat="47.8484" lon="6.92543">
        <ele>1093.7</ele>
        <time>2026-08-27T07:34:17.099Z</time>
      </trkpt>
      <trkpt lat="47.84841" lon="6.92543">
        <ele>1093.7</ele>
        <time>2026-08-27T07:34:18.233Z</time>
      </trkpt>
      <trkpt lat="47.84841" lon="6.92544">
        <ele>1094</ele>
        <time>2026-08-27T07:34:19.435Z</time>
      </trkpt>
      <trkpt lat="47.84842" lon="6.92544">
        <ele>1094.8</ele>
        <time>2026-08-27T07:34:21.131Z</time>
      </trkpt>
      <trkpt lat="47.84844" lon="6.92545">
        <ele>1095.1</ele>
        <time>2026-08-27T07:34:22.139Z</time>
      </trkpt>
      <trkpt lat="47.84845" lon="6.92546">
        <ele>1095</ele>
        <time>2026-08-27T07:34:23.147Z</time>
      </trkpt>
      <trkpt lat="47.84845" lon="6.92547">
        <ele>1095.5</ele>
        <time>2026-08-27T07:34:24.155Z</time>
      </trkpt>
      <trkpt lat="47.84846" lon="6.92548">
        <ele>1095.1</ele>
        <time>2026-08-27T07:34:25.164Z</time>
      </trkpt>
      <trkpt lat="47.84846" lon="6.92549">
        <ele>1095.9</ele>
        <time>2026-08-27T07:34:26.172Z</time>
      </trkpt>
      <trkpt lat="47.84846" lon="6.9255">
        <ele>1095.9</ele>
        <time>2026-08-27T07:34:27.179Z</time>
      </trkpt>
      <trkpt lat="47.84846" lon="6.92552">
        <ele>1096</ele>
        <time>2026-08-27T07:34:29.094Z</time>
      </trkpt>
      <trkpt lat="47.84846" lon="6.92552">
        <ele>1095.8</ele>
        <time>2026-08-27T07:34:30.103Z</time>
      </trkpt>
      <trkpt lat="47.84847" lon="6.92553">
        <ele>1095.7</ele>
        <time>2026-08-27T07:34:31.110Z</time>
      </trkpt>
      <trkpt lat="47.84847" lon="6.92554">
        <ele>1095.9</ele>
        <time>2026-08-27T07:34:32.118Z</time>
      </trkpt>
      <trkpt lat="47.84848" lon="6.92554">
        <ele>1096.8</ele>
        <time>2026-08-27T07:34:34.134Z</time>
      </trkpt>
      <trkpt lat="47.84849" lon="6.92555">
        <ele>1097.2</ele>
        <time>2026-08-27T07:34:36.050Z</time>
      </trkpt>
      <trkpt lat="47.84849" lon="6.92555">
        <ele>1097.2</ele>
        <time>2026-08-27T07:34:37.058Z</time>
      </trkpt>
      <trkpt lat="47.8485" lon="6.92555">
        <ele>1097.5</ele>
        <time>2026-08-27T07:34:38.166Z</time>
      </trkpt>
      <trkpt lat="47.8485" lon="6.92555">
        <ele>1097.4</ele>
        <time>2026-08-27T07:34:39.175Z</time>
      </trkpt>
      <trkpt lat="47.8485" lon="6.92556">
        <ele>1097.3</ele>
        <time>2026-08-27T07:34:41.089Z</time>
      </trkpt>
      <trkpt lat="47.8485" lon="6.92557">
        <ele>1097.4</ele>
        <time>2026-08-27T07:34:42.097Z</time>
      </trkpt>
      <trkpt lat="47.8485" lon="6.92558">
        <ele>1097.5</ele>
        <time>2026-08-27T07:34:43.106Z</time>
      </trkpt>
      <trkpt lat="47.84851" lon="6.92559">
        <ele>1097.6</ele>
        <time>2026-08-27T07:34:44.114Z</time>
      </trkpt>
      <trkpt lat="47.84851" lon="6.9256">
        <ele>1097.5</ele>
        <time>2026-08-27T07:34:45.121Z</time>
      </trkpt>
      <trkpt lat="47.84851" lon="6.92561">
        <ele>1097.4</ele>
        <time>2026-08-27T07:34:46.130Z</time>
      </trkpt>
      <trkpt lat="47.84852" lon="6.92565">
        <ele>1097.8</ele>
        <time>2026-08-27T07:34:48.146Z</time>
      </trkpt>
      <trkpt lat="47.84852" lon="6.92566">
        <ele>1097.8</ele>
        <time>2026-08-27T07:34:49.154Z</time>
      </trkpt>
      <trkpt lat="47.84853" lon="6.92569">
        <ele>1098.3</ele>
        <time>2026-08-27T07:34:51.169Z</time>
      </trkpt>
      <trkpt lat="47.84853" lon="6.9257">
        <ele>1098.3</ele>
        <time>2026-08-27T07:34:53.119Z</time>
      </trkpt>
      <trkpt lat="47.84854" lon="6.92571">
        <ele>1099.1</ele>
        <time>2026-08-27T07:34:54.194Z</time>
      </trkpt>
      <trkpt lat="47.84854" lon="6.92573">
        <ele>1098.7</ele>
        <time>2026-08-27T07:34:56.041Z</time>
      </trkpt>
      <trkpt lat="47.84854" lon="6.92575">
        <ele>1098.5</ele>
        <time>2026-08-27T07:34:57.116Z</time>
      </trkpt>
      <trkpt lat="47.84854" lon="6.92576">
        <ele>1098.8</ele>
        <time>2026-08-27T07:34:58.124Z</time>
      </trkpt>
      <trkpt lat="47.84854" lon="6.92579">
        <ele>1098.8</ele>
        <time>2026-08-27T07:34:59.999Z</time>
      </trkpt>
      <trkpt lat="47.84854" lon="6.92581">
        <ele>1098.7</ele>
        <time>2026-08-27T07:35:01.148Z</time>
      </trkpt>
      <trkpt lat="47.84854" lon="6.92582">
        <ele>1099</ele>
        <time>2026-08-27T07:35:02.215Z</time>
      </trkpt>
      <trkpt lat="47.84854" lon="6.92584">
        <ele>1099.2</ele>
        <time>2026-08-27T07:35:03.736Z</time>
      </trkpt>
      <trkpt lat="47.84854" lon="6.92584">
        <ele>1100</ele>
        <time>2026-08-27T07:35:05.080Z</time>
      </trkpt>
      <trkpt lat="47.84854" lon="6.92584">
        <ele>1099.9</ele>
        <time>2026-08-27T07:35:06.088Z</time>
      </trkpt>
      <trkpt lat="47.84854" lon="6.92585">
        <ele>1100.3</ele>
        <time>2026-08-27T07:35:07.097Z</time>
      </trkpt>
      <trkpt lat="47.84854" lon="6.92587">
        <ele>1100.3</ele>
        <time>2026-08-27T07:35:08.137Z</time>
      </trkpt>
      <trkpt lat="47.84855" lon="6.9259">
        <ele>1100.1</ele>
        <time>2026-08-27T07:35:10.119Z</time>
      </trkpt>
      <trkpt lat="47.84856" lon="6.92592">
        <ele>1100.1</ele>
        <time>2026-08-27T07:35:12.001Z</time>
      </trkpt>
      <trkpt lat="47.84856" lon="6.92594">
        <ele>1099.4</ele>
        <time>2026-08-27T07:35:13.144Z</time>
      </trkpt>
      <trkpt lat="47.84856" lon="6.92595">
        <ele>1100</ele>
        <time>2026-08-27T07:35:14.152Z</time>
      </trkpt>
      <trkpt lat="47.84855" lon="6.92596">
        <ele>1099.7</ele>
        <time>2026-08-27T07:35:15.159Z</time>
      </trkpt>
      <trkpt lat="47.84855" lon="6.92597">
        <ele>1100</ele>
        <time>2026-08-27T07:35:17.075Z</time>
      </trkpt>
      <trkpt lat="47.84855" lon="6.92598">
        <ele>1100</ele>
        <time>2026-08-27T07:35:18.175Z</time>
      </trkpt>
      <trkpt lat="47.84854" lon="6.92601">
        <ele>1100</ele>
        <time>2026-08-27T07:35:20.175Z</time>
      </trkpt>
      <trkpt lat="47.84854" lon="6.92604">
        <ele>1100.6</ele>
        <time>2026-08-27T07:35:22.114Z</time>
      </trkpt>
      <trkpt lat="47.84853" lon="6.92606">
        <ele>1099.9</ele>
        <time>2026-08-27T07:35:23.122Z</time>
      </trkpt>
      <trkpt lat="47.84853" lon="6.92608">
        <ele>1100.3</ele>
        <time>2026-08-27T07:35:24.131Z</time>
      </trkpt>
      <trkpt lat="47.84853" lon="6.92609">
        <ele>1100.1</ele>
        <time>2026-08-27T07:35:25.138Z</time>
      </trkpt>
      <trkpt lat="47.84852" lon="6.92611">
        <ele>1100.1</ele>
        <time>2026-08-27T07:35:26.155Z</time>
      </trkpt>
      <trkpt lat="47.84852" lon="6.92614">
        <ele>1100</ele>
        <time>2026-08-27T07:35:28.062Z</time>
      </trkpt>
      <trkpt lat="47.84852" lon="6.92615">
        <ele>1100</ele>
        <time>2026-08-27T07:35:29.120Z</time>
      </trkpt>
      <trkpt lat="47.84851" lon="6.92617">
        <ele>1100.5</ele>
        <time>2026-08-27T07:35:31.086Z</time>
      </trkpt>
      <trkpt lat="47.84852" lon="6.92618">
        <ele>1100.2</ele>
        <time>2026-08-27T07:35:32.093Z</time>
      </trkpt>
      <trkpt lat="47.84852" lon="6.92619">
        <ele>1100.5</ele>
        <time>2026-08-27T07:35:33.101Z</time>
      </trkpt>
      <trkpt lat="47.84852" lon="6.92619">
        <ele>1100.8</ele>
        <time>2026-08-27T07:35:34.110Z</time>
      </trkpt>
      <trkpt lat="47.84852" lon="6.9262">
        <ele>1100.8</ele>
        <time>2026-08-27T07:35:35.159Z</time>
      </trkpt>
      <trkpt lat="47.84852" lon="6.92622">
        <ele>1100.7</ele>
        <time>2026-08-27T07:35:37.133Z</time>
      </trkpt>
      <trkpt lat="47.84851" lon="6.92624">
        <ele>1100.6</ele>
        <time>2026-08-27T07:35:38.141Z</time>
      </trkpt>
      <trkpt lat="47.84851" lon="6.92626">
        <ele>1100.8</ele>
        <time>2026-08-27T07:35:39.150Z</time>
      </trkpt>
      <trkpt lat="47.84851" lon="6.92629">
        <ele>1100.7</ele>
        <time>2026-08-27T07:35:41.066Z</time>
      </trkpt>
      <trkpt lat="47.84851" lon="6.9263">
        <ele>1100.1</ele>
        <time>2026-08-27T07:35:42.072Z</time>
      </trkpt>
      <trkpt lat="47.84851" lon="6.92633">
        <ele>1100.3</ele>
        <time>2026-08-27T07:35:44.088Z</time>
      </trkpt>
      <trkpt lat="47.84851" lon="6.92635">
        <ele>1100.3</ele>
        <time>2026-08-27T07:35:45.096Z</time>
      </trkpt>
      <trkpt lat="47.84851" lon="6.92636">
        <ele>1100.5</ele>
        <time>2026-08-27T07:35:46.104Z</time>
      </trkpt>
      <trkpt lat="47.84851" lon="6.92636">
        <ele>1100.5</ele>
        <time>2026-08-27T07:35:47.112Z</time>
      </trkpt>
      <trkpt lat="47.84851" lon="6.92637">
        <ele>1100.6</ele>
        <time>2026-08-27T07:35:48.121Z</time>
      </trkpt>
      <trkpt lat="47.84851" lon="6.92638">
        <ele>1100.6</ele>
        <time>2026-08-27T07:35:50.136Z</time>
      </trkpt>
      <trkpt lat="47.84851" lon="6.9264">
        <ele>1100.6</ele>
        <time>2026-08-27T07:35:51.145Z</time>
      </trkpt>
      <trkpt lat="47.84851" lon="6.92641">
        <ele>1100.3</ele>
        <time>2026-08-27T07:35:52.153Z</time>
      </trkpt>
      <trkpt lat="47.84851" lon="6.92642">
        <ele>1100.8</ele>
        <time>2026-08-27T07:35:53.160Z</time>
      </trkpt>
      <trkpt lat="47.8485" lon="6.92645">
        <ele>1100.7</ele>
        <time>2026-08-27T07:35:55.177Z</time>
      </trkpt>
      <trkpt lat="47.84849" lon="6.92647">
        <ele>1101</ele>
        <time>2026-08-27T07:35:57.091Z</time>
      </trkpt>
      <trkpt lat="47.84849" lon="6.92648">
        <ele>1100.6</ele>
        <time>2026-08-27T07:35:58.099Z</time>
      </trkpt>
      <trkpt lat="47.84849" lon="6.92649">
        <ele>1100.6</ele>
        <time>2026-08-27T07:35:59.158Z</time>
      </trkpt>
      <trkpt lat="47.84849" lon="6.92651">
        <ele>1101.3</ele>
        <time>2026-08-27T07:36:01.124Z</time>
      </trkpt>
      <trkpt lat="47.84849" lon="6.92654">
        <ele>1102</ele>
        <time>2026-08-27T07:36:03.139Z</time>
      </trkpt>
      <trkpt lat="47.84849" lon="6.92656">
        <ele>1101.8</ele>
        <time>2026-08-27T07:36:04.147Z</time>
      </trkpt>
      <trkpt lat="47.84849" lon="6.92658">
        <ele>1102.1</ele>
        <time>2026-08-27T07:36:05.155Z</time>
      </trkpt>
      <trkpt lat="47.84849" lon="6.9266">
        <ele>1102</ele>
        <time>2026-08-27T07:36:06.163Z</time>
      </trkpt>
      <trkpt lat="47.84849" lon="6.92661">
        <ele>1102</ele>
        <time>2026-08-27T07:36:08.079Z</time>
      </trkpt>
      <trkpt lat="47.84848" lon="6.92661">
        <ele>1101.9</ele>
        <time>2026-08-27T07:36:09.087Z</time>
      </trkpt>
      <trkpt lat="47.84848" lon="6.92661">
        <ele>1101.9</ele>
        <time>2026-08-27T07:36:10.120Z</time>
      </trkpt>
      <trkpt lat="47.84848" lon="6.92661">
        <ele>1102</ele>
        <time>2026-08-27T07:36:12.111Z</time>
      </trkpt>
      <trkpt lat="47.84848" lon="6.92661">
        <ele>1101.9</ele>
        <time>2026-08-27T07:36:13.118Z</time>
      </trkpt>
      <trkpt lat="47.84848" lon="6.9266">
        <ele>1102.4</ele>
        <time>2026-08-27T07:36:15.134Z</time>
      </trkpt>
      <trkpt lat="47.84848" lon="6.9266">
        <ele>1102.5</ele>
        <time>2026-08-27T07:36:16.143Z</time>
      </trkpt>
      <trkpt lat="47.84848" lon="6.92661">
        <ele>1103.2</ele>
        <time>2026-08-27T07:36:18.159Z</time>
      </trkpt>
      <trkpt lat="47.84848" lon="6.92662">
        <ele>1103.3</ele>
        <time>2026-08-27T07:36:19.166Z</time>
      </trkpt>
      <trkpt lat="47.84847" lon="6.92665">
        <ele>1103.2</ele>
        <time>2026-08-27T07:36:21.082Z</time>
      </trkpt>
      <trkpt lat="47.84847" lon="6.92666">
        <ele>1103.8</ele>
        <time>2026-08-27T07:36:22.090Z</time>
      </trkpt>
      <trkpt lat="47.84847" lon="6.92667">
        <ele>1103.5</ele>
        <time>2026-08-27T07:36:23.097Z</time>
      </trkpt>
      <trkpt lat="47.84847" lon="6.92667">
        <ele>1103.5</ele>
        <time>2026-08-27T07:36:24.105Z</time>
      </trkpt>
      <trkpt lat="47.84847" lon="6.92668">
        <ele>1103.5</ele>
        <time>2026-08-27T07:36:25.138Z</time>
      </trkpt>
      <trkpt lat="47.84846" lon="6.92669">
        <ele>1103.4</ele>
        <time>2026-08-27T07:36:27.129Z</time>
      </trkpt>
      <trkpt lat="47.84846" lon="6.9267">
        <ele>1104.5</ele>
        <time>2026-08-27T07:36:29.145Z</time>
      </trkpt>
      <trkpt lat="47.84846" lon="6.9267">
        <ele>1104.3</ele>
        <time>2026-08-27T07:36:30.153Z</time>
      </trkpt>
      <trkpt lat="47.84846" lon="6.92672">
        <ele>1104.8</ele>
        <time>2026-08-27T07:36:32.060Z</time>
      </trkpt>
      <trkpt lat="47.84846" lon="6.92673">
        <ele>1104.9</ele>
        <time>2026-08-27T07:36:33.076Z</time>
      </trkpt>
      <trkpt lat="47.84846" lon="6.92674">
        <ele>1105.2</ele>
        <time>2026-08-27T07:36:34.084Z</time>
      </trkpt>
      <trkpt lat="47.84846" lon="6.92675">
        <ele>1105.2</ele>
        <time>2026-08-27T07:36:35.092Z</time>
      </trkpt>
      <trkpt lat="47.84846" lon="6.92676">
        <ele>1105.2</ele>
        <time>2026-08-27T07:36:36.101Z</time>
      </trkpt>
      <trkpt lat="47.84846" lon="6.92678">
        <ele>1105.5</ele>
        <time>2026-08-27T07:36:37.108Z</time>
      </trkpt>
      <trkpt lat="47.84847" lon="6.9268">
        <ele>1105.4</ele>
        <time>2026-08-27T07:36:38.176Z</time>
      </trkpt>
      <trkpt lat="47.84848" lon="6.92685">
        <ele>1105.6</ele>
        <time>2026-08-27T07:36:40.174Z</time>
      </trkpt>
      <trkpt lat="47.84849" lon="6.9269">
        <ele>1105.3</ele>
        <time>2026-08-27T07:36:42.047Z</time>
      </trkpt>
      <trkpt lat="47.84849" lon="6.92693">
        <ele>1105.4</ele>
        <time>2026-08-27T07:36:43.055Z</time>
      </trkpt>
      <trkpt lat="47.84849" lon="6.92695">
        <ele>1105.6</ele>
        <time>2026-08-27T07:36:44.157Z</time>
      </trkpt>
      <trkpt lat="47.84848" lon="6.92698">
        <ele>1105.7</ele>
        <time>2026-08-27T07:36:46.079Z</time>
      </trkpt>
      <trkpt lat="47.84849" lon="6.927">
        <ele>1105.7</ele>
        <time>2026-08-27T07:36:47.079Z</time>
      </trkpt>
      <trkpt lat="47.84849" lon="6.92701">
        <ele>1106.1</ele>
        <time>2026-08-27T07:36:48.096Z</time>
      </trkpt>
      <trkpt lat="47.84848" lon="6.92703">
        <ele>1105.5</ele>
        <time>2026-08-27T07:36:49.104Z</time>
      </trkpt>
      <trkpt lat="47.84848" lon="6.92705">
        <ele>1105.2</ele>
        <time>2026-08-27T07:36:50.111Z</time>
      </trkpt>
      <trkpt lat="47.84848" lon="6.92708">
        <ele>1105.6</ele>
        <time>2026-08-27T07:36:52.127Z</time>
      </trkpt>
      <trkpt lat="47.84847" lon="6.92709">
        <ele>1105.6</ele>
        <time>2026-08-27T07:36:53.135Z</time>
      </trkpt>
      <trkpt lat="47.84847" lon="6.92709">
        <ele>1105.8</ele>
        <time>2026-08-27T07:36:54.143Z</time>
      </trkpt>
      <trkpt lat="47.84847" lon="6.92709">
        <ele>1105.9</ele>
        <time>2026-08-27T07:36:55.151Z</time>
      </trkpt>
      <trkpt lat="47.84847" lon="6.92709">
        <ele>1105.5</ele>
        <time>2026-08-27T07:36:56.159Z</time>
      </trkpt>
      <trkpt lat="47.84847" lon="6.92708">
        <ele>1106.2</ele>
        <time>2026-08-27T07:36:58.075Z</time>
      </trkpt>
      <trkpt lat="47.84847" lon="6.92708">
        <ele>1105.9</ele>
        <time>2026-08-27T07:36:59.082Z</time>
      </trkpt>
      <trkpt lat="47.84846" lon="6.92708">
        <ele>1106.2</ele>
        <time>2026-08-27T07:37:00.090Z</time>
      </trkpt>
      <trkpt lat="47.84846" lon="6.92708">
        <ele>1106.4</ele>
        <time>2026-08-27T07:37:01.098Z</time>
      </trkpt>
      <trkpt lat="47.84846" lon="6.92708">
        <ele>1106.1</ele>
        <time>2026-08-27T07:37:02.106Z</time>
      </trkpt>
      <trkpt lat="47.84846" lon="6.92708">
        <ele>1106.3</ele>
        <time>2026-08-27T07:37:03.114Z</time>
      </trkpt>
      <trkpt lat="47.84846" lon="6.92708">
        <ele>1106.2</ele>
        <time>2026-08-27T07:37:04.122Z</time>
      </trkpt>
      <trkpt lat="47.84846" lon="6.92708">
        <ele>1106.1</ele>
        <time>2026-08-27T07:37:05.131Z</time>
      </trkpt>
      <trkpt lat="47.84846" lon="6.92708">
        <ele>1106.2</ele>
        <time>2026-08-27T07:37:06.138Z</time>
      </trkpt>
      <trkpt lat="47.84846" lon="6.92708">
        <ele>1106</ele>
        <time>2026-08-27T07:37:07.147Z</time>
      </trkpt>
      <trkpt lat="47.84846" lon="6.92708">
        <ele>1105.9</ele>
        <time>2026-08-27T07:37:08.154Z</time>
      </trkpt>
      <trkpt lat="47.84846" lon="6.92708">
        <ele>1105.3</ele>
        <time>2026-08-27T07:37:09.162Z</time>
      </trkpt>
      <trkpt lat="47.84846" lon="6.92708">
        <ele>1105.8</ele>
        <time>2026-08-27T07:37:10.171Z</time>
      </trkpt>
      <trkpt lat="47.84846" lon="6.92708">
        <ele>1105.7</ele>
        <time>2026-08-27T07:37:12.085Z</time>
      </trkpt>
      <trkpt lat="47.84846" lon="6.92708">
        <ele>1105.7</ele>
        <time>2026-08-27T07:37:13.094Z</time>
      </trkpt>
      <trkpt lat="47.84846" lon="6.92708">
        <ele>1105.9</ele>
        <time>2026-08-27T07:37:14.101Z</time>
      </trkpt>
      <trkpt lat="47.84846" lon="6.92708">
        <ele>1106.2</ele>
        <time>2026-08-27T07:37:15.109Z</time>
      </trkpt>
      <trkpt lat="47.84846" lon="6.92708">
        <ele>1106.2</ele>
        <time>2026-08-27T07:37:16.117Z</time>
      </trkpt>
      <trkpt lat="47.84846" lon="6.92708">
        <ele>1106.7</ele>
        <time>2026-08-27T07:37:17.126Z</time>
      </trkpt>
      <trkpt lat="47.84846" lon="6.92708">
        <ele>1106.7</ele>
        <time>2026-08-27T07:37:18.133Z</time>
      </trkpt>
      <trkpt lat="47.84846" lon="6.92708">
        <ele>1106.8</ele>
        <time>2026-08-27T07:37:19.142Z</time>
      </trkpt>
      <trkpt lat="47.84846" lon="6.92708">
        <ele>1106.3</ele>
        <time>2026-08-27T07:37:20.150Z</time>
      </trkpt>
      <trkpt lat="47.84846" lon="6.92708">
        <ele>1106</ele>
        <time>2026-08-27T07:37:21.158Z</time>
      </trkpt>
      <trkpt lat="47.84846" lon="6.92708">
        <ele>1105.9</ele>
        <time>2026-08-27T07:37:22.165Z</time>
      </trkpt>
      <trkpt lat="47.84846" lon="6.92707">
        <ele>1106.1</ele>
        <time>2026-08-27T07:37:24.080Z</time>
      </trkpt>
      <trkpt lat="47.84846" lon="6.92707">
        <ele>1105.7</ele>
        <time>2026-08-27T07:37:25.089Z</time>
      </trkpt>
      <trkpt lat="47.84846" lon="6.92707">
        <ele>1105.7</ele>
        <time>2026-08-27T07:37:26.096Z</time>
      </trkpt>
      <trkpt lat="47.84846" lon="6.92707">
        <ele>1106.5</ele>
        <time>2026-08-27T07:37:27.105Z</time>
      </trkpt>
      <trkpt lat="47.84846" lon="6.92707">
        <ele>1106.2</ele>
        <time>2026-08-27T07:37:28.112Z</time>
      </trkpt>
      <trkpt lat="47.84846" lon="6.92707">
        <ele>1106.7</ele>
        <time>2026-08-27T07:37:29.120Z</time>
      </trkpt>
      <trkpt lat="47.84846" lon="6.92707">
        <ele>1106.5</ele>
        <time>2026-08-27T07:37:30.128Z</time>
      </trkpt>
      <trkpt lat="47.84846" lon="6.92707">
        <ele>1106.5</ele>
        <time>2026-08-27T07:37:31.136Z</time>
      </trkpt>
      <trkpt lat="47.84846" lon="6.92707">
        <ele>1106.8</ele>
        <time>2026-08-27T07:37:32.144Z</time>
      </trkpt>
      <trkpt lat="47.84846" lon="6.92707">
        <ele>1106.7</ele>
        <time>2026-08-27T07:37:33.153Z</time>
      </trkpt>
      <trkpt lat="47.84846" lon="6.92707">
        <ele>1106.6</ele>
        <time>2026-08-27T07:37:34.161Z</time>
      </trkpt>
      <trkpt lat="47.84846" lon="6.92707">
        <ele>1106.7</ele>
        <time>2026-08-27T07:37:35.168Z</time>
      </trkpt>
      <trkpt lat="47.84846" lon="6.92707">
        <ele>1106.4</ele>
        <time>2026-08-27T07:37:37.083Z</time>
      </trkpt>
      <trkpt lat="47.84846" lon="6.92707">
        <ele>1105.8</ele>
        <time>2026-08-27T07:37:38.091Z</time>
      </trkpt>
      <trkpt lat="47.84846" lon="6.92707">
        <ele>1106.3</ele>
        <time>2026-08-27T07:37:39.099Z</time>
      </trkpt>
      <trkpt lat="47.84846" lon="6.92707">
        <ele>1106.1</ele>
        <time>2026-08-27T07:37:40.107Z</time>
      </trkpt>
      <trkpt lat="47.84846" lon="6.92707">
        <ele>1106.1</ele>
        <time>2026-08-27T07:37:41.116Z</time>
      </trkpt>
      <trkpt lat="47.84846" lon="6.92707">
        <ele>1106.3</ele>
        <time>2026-08-27T07:37:42.122Z</time>
      </trkpt>
      <trkpt lat="47.84846" lon="6.92707">
        <ele>1106.3</ele>
        <time>2026-08-27T07:37:43.182Z</time>
      </trkpt>
      <trkpt lat="47.84847" lon="6.92709">
        <ele>1106.6</ele>
        <time>2026-08-27T07:37:45.146Z</time>
      </trkpt>
      <trkpt lat="47.84847" lon="6.92712">
        <ele>1107.2</ele>
        <time>2026-08-27T07:37:46.155Z</time>
      </trkpt>
      <trkpt lat="47.84846" lon="6.92715">
        <ele>1107.5</ele>
        <time>2026-08-27T07:37:48.070Z</time>
      </trkpt>
      <trkpt lat="47.84846" lon="6.92717">
        <ele>1107.2</ele>
        <time>2026-08-27T07:37:49.077Z</time>
      </trkpt>
      <trkpt lat="47.84846" lon="6.92718">
        <ele>1107.2</ele>
        <time>2026-08-27T07:37:50.086Z</time>
      </trkpt>
      <trkpt lat="47.84846" lon="6.9272">
        <ele>1107.4</ele>
        <time>2026-08-27T07:37:51.093Z</time>
      </trkpt>
      <trkpt lat="47.84846" lon="6.92721">
        <ele>1107.8</ele>
        <time>2026-08-27T07:37:52.101Z</time>
      </trkpt>
      <trkpt lat="47.84846" lon="6.92723">
        <ele>1108</ele>
        <time>2026-08-27T07:37:53.109Z</time>
      </trkpt>
      <trkpt lat="47.84846" lon="6.92724">
        <ele>1108.3</ele>
        <time>2026-08-27T07:37:54.117Z</time>
      </trkpt>
      <trkpt lat="47.84846" lon="6.92725">
        <ele>1108.3</ele>
        <time>2026-08-27T07:37:55.135Z</time>
      </trkpt>
      <trkpt lat="47.84846" lon="6.92727">
        <ele>1108.4</ele>
        <time>2026-08-27T07:37:57.142Z</time>
      </trkpt>
      <trkpt lat="47.84847" lon="6.92727">
        <ele>1109</ele>
        <time>2026-08-27T07:37:58.149Z</time>
      </trkpt>
      <trkpt lat="47.84847" lon="6.92728">
        <ele>1109</ele>
        <time>2026-08-27T07:37:59.157Z</time>
      </trkpt>
      <trkpt lat="47.84849" lon="6.92731">
        <ele>1109.2</ele>
        <time>2026-08-27T07:38:01.072Z</time>
      </trkpt>
      <trkpt lat="47.84849" lon="6.92732">
        <ele>1109.2</ele>
        <time>2026-08-27T07:38:02.080Z</time>
      </trkpt>
      <trkpt lat="47.8485" lon="6.92733">
        <ele>1109</ele>
        <time>2026-08-27T07:38:03.088Z</time>
      </trkpt>
      <trkpt lat="47.8485" lon="6.92734">
        <ele>1109</ele>
        <time>2026-08-27T07:38:04.096Z</time>
      </trkpt>
      <trkpt lat="47.8485" lon="6.92735">
        <ele>1109.1</ele>
        <time>2026-08-27T07:38:05.104Z</time>
      </trkpt>
      <trkpt lat="47.8485" lon="6.92737">
        <ele>1109</ele>
        <time>2026-08-27T07:38:06.113Z</time>
      </trkpt>
      <trkpt lat="47.8485" lon="6.92738">
        <ele>1108.9</ele>
        <time>2026-08-27T07:38:07.120Z</time>
      </trkpt>
      <trkpt lat="47.8485" lon="6.92739">
        <ele>1108.9</ele>
        <time>2026-08-27T07:38:08.128Z</time>
      </trkpt>
      <trkpt lat="47.8485" lon="6.9274">
        <ele>1108.8</ele>
        <time>2026-08-27T07:38:09.136Z</time>
      </trkpt>
      <trkpt lat="47.8485" lon="6.92742">
        <ele>1109.3</ele>
        <time>2026-08-27T07:38:10.144Z</time>
      </trkpt>
      <trkpt lat="47.8485" lon="6.92742">
        <ele>1109.6</ele>
        <time>2026-08-27T07:38:11.152Z</time>
      </trkpt>
      <trkpt lat="47.8485" lon="6.92743">
        <ele>1109.6</ele>
        <time>2026-08-27T07:38:12.161Z</time>
      </trkpt>
      <trkpt lat="47.8485" lon="6.92745">
        <ele>1109.5</ele>
        <time>2026-08-27T07:38:14.076Z</time>
      </trkpt>
      <trkpt lat="47.8485" lon="6.92749">
        <ele>1110.1</ele>
        <time>2026-08-27T07:38:16.091Z</time>
      </trkpt>
      <trkpt lat="47.8485" lon="6.92751">
        <ele>1110.7</ele>
        <time>2026-08-27T07:38:17.100Z</time>
      </trkpt>
      <trkpt lat="47.8485" lon="6.92754">
        <ele>1110.9</ele>
        <time>2026-08-27T07:38:18.107Z</time>
      </trkpt>
      <trkpt lat="47.8485" lon="6.92756">
        <ele>1111</ele>
        <time>2026-08-27T07:38:19.175Z</time>
      </trkpt>
      <trkpt lat="47.84851" lon="6.92759">
        <ele>1110.8</ele>
        <time>2026-08-27T07:38:21.131Z</time>
      </trkpt>
      <trkpt lat="47.84851" lon="6.9276">
        <ele>1110.7</ele>
        <time>2026-08-27T07:38:22.140Z</time>
      </trkpt>
      <trkpt lat="47.84851" lon="6.92761">
        <ele>1110.5</ele>
        <time>2026-08-27T07:38:23.148Z</time>
      </trkpt>
      <trkpt lat="47.84851" lon="6.92761">
        <ele>1110.3</ele>
        <time>2026-08-27T07:38:24.156Z</time>
      </trkpt>
      <trkpt lat="47.84851" lon="6.92761">
        <ele>1110.4</ele>
        <time>2026-08-27T07:38:25.163Z</time>
      </trkpt>
      <trkpt lat="47.84851" lon="6.92763">
        <ele>1110.9</ele>
        <time>2026-08-27T07:38:27.078Z</time>
      </trkpt>
      <trkpt lat="47.84851" lon="6.92765">
        <ele>1110.9</ele>
        <time>2026-08-27T07:38:28.094Z</time>
      </trkpt>
      <trkpt lat="47.84851" lon="6.92766">
        <ele>1110.9</ele>
        <time>2026-08-27T07:38:29.094Z</time>
      </trkpt>
      <trkpt lat="47.84851" lon="6.92767">
        <ele>1110.9</ele>
        <time>2026-08-27T07:38:30.103Z</time>
      </trkpt>
      <trkpt lat="47.84851" lon="6.92768">
        <ele>1110.9</ele>
        <time>2026-08-27T07:38:32.118Z</time>
      </trkpt>
      <trkpt lat="47.84852" lon="6.9277">
        <ele>1111.2</ele>
        <time>2026-08-27T07:38:34.134Z</time>
      </trkpt>
      <trkpt lat="47.84852" lon="6.9277">
        <ele>1111.4</ele>
        <time>2026-08-27T07:38:35.142Z</time>
      </trkpt>
      <trkpt lat="47.84852" lon="6.92772">
        <ele>1111.5</ele>
        <time>2026-08-27T07:38:37.158Z</time>
      </trkpt>
      <trkpt lat="47.84852" lon="6.92774">
        <ele>1112.2</ele>
        <time>2026-08-27T07:38:39.056Z</time>
      </trkpt>
      <trkpt lat="47.84852" lon="6.92775">
        <ele>1112.3</ele>
        <time>2026-08-27T07:38:40.081Z</time>
      </trkpt>
      <trkpt lat="47.84853" lon="6.92776">
        <ele>1112.6</ele>
        <time>2026-08-27T07:38:41.090Z</time>
      </trkpt>
      <trkpt lat="47.84854" lon="6.92779">
        <ele>1112.4</ele>
        <time>2026-08-27T07:38:43.105Z</time>
      </trkpt>
      <trkpt lat="47.84855" lon="6.9278">
        <ele>1113</ele>
        <time>2026-08-27T07:38:44.113Z</time>
      </trkpt>
      <trkpt lat="47.84855" lon="6.92782">
        <ele>1113.2</ele>
        <time>2026-08-27T07:38:45.121Z</time>
      </trkpt>
      <trkpt lat="47.84855" lon="6.92783">
        <ele>1113.8</ele>
        <time>2026-08-27T07:38:46.129Z</time>
      </trkpt>
      <trkpt lat="47.84855" lon="6.92785">
        <ele>1113.8</ele>
        <time>2026-08-27T07:38:47.180Z</time>
      </trkpt>
      <trkpt lat="47.84855" lon="6.92787">
        <ele>1113.7</ele>
        <time>2026-08-27T07:38:49.153Z</time>
      </trkpt>
      <trkpt lat="47.84855" lon="6.92788">
        <ele>1113.8</ele>
        <time>2026-08-27T07:38:50.161Z</time>
      </trkpt>
      <trkpt lat="47.84854" lon="6.92789">
        <ele>1113.3</ele>
        <time>2026-08-27T07:38:52.077Z</time>
      </trkpt>
      <trkpt lat="47.84854" lon="6.92789">
        <ele>1113.2</ele>
        <time>2026-08-27T07:38:53.084Z</time>
      </trkpt>
      <trkpt lat="47.84854" lon="6.9279">
        <ele>1113.3</ele>
        <time>2026-08-27T07:38:54.092Z</time>
      </trkpt>
      <trkpt lat="47.84853" lon="6.9279">
        <ele>1113.3</ele>
        <time>2026-08-27T07:38:55.101Z</time>
      </trkpt>
      <trkpt lat="47.84853" lon="6.92791">
        <ele>1114</ele>
        <time>2026-08-27T07:38:56.108Z</time>
      </trkpt>
      <trkpt lat="47.84853" lon="6.92793">
        <ele>1114.2</ele>
        <time>2026-08-27T07:38:57.116Z</time>
      </trkpt>
      <trkpt lat="47.84854" lon="6.92795">
        <ele>1114.3</ele>
        <time>2026-08-27T07:38:58.124Z</time>
      </trkpt>
      <trkpt lat="47.84854" lon="6.92797">
        <ele>1114.3</ele>
        <time>2026-08-27T07:38:59.132Z</time>
      </trkpt>
      <trkpt lat="47.84854" lon="6.92798">
        <ele>1113.5</ele>
        <time>2026-08-27T07:39:00.140Z</time>
      </trkpt>
      <trkpt lat="47.84854" lon="6.92799">
        <ele>1114.4</ele>
        <time>2026-08-27T07:39:01.148Z</time>
      </trkpt>
      <trkpt lat="47.84855" lon="6.928">
        <ele>1114.4</ele>
        <time>2026-08-27T07:39:02.156Z</time>
      </trkpt>
      <trkpt lat="47.84854" lon="6.92801">
        <ele>1114.8</ele>
        <time>2026-08-27T07:39:03.163Z</time>
      </trkpt>
      <trkpt lat="47.84854" lon="6.92802">
        <ele>1114.8</ele>
        <time>2026-08-27T07:39:04.171Z</time>
      </trkpt>
      <trkpt lat="47.84854" lon="6.92804">
        <ele>1114.8</ele>
        <time>2026-08-27T07:39:06.087Z</time>
      </trkpt>
      <trkpt lat="47.84854" lon="6.92805">
        <ele>1115.5</ele>
        <time>2026-08-27T07:39:07.094Z</time>
      </trkpt>
      <trkpt lat="47.84854" lon="6.92806">
        <ele>1115.7</ele>
        <time>2026-08-27T07:39:08.102Z</time>
      </trkpt>
      <trkpt lat="47.84854" lon="6.92807">
        <ele>1115.8</ele>
        <time>2026-08-27T07:39:09.110Z</time>
      </trkpt>
      <trkpt lat="47.84853" lon="6.92807">
        <ele>1115.9</ele>
        <time>2026-08-27T07:39:10.118Z</time>
      </trkpt>
      <trkpt lat="47.84853" lon="6.92807">
        <ele>1115.8</ele>
        <time>2026-08-27T07:39:11.126Z</time>
      </trkpt>
      <trkpt lat="47.84853" lon="6.92808">
        <ele>1115.8</ele>
        <time>2026-08-27T07:39:12.134Z</time>
      </trkpt>
      <trkpt lat="47.84853" lon="6.92808">
        <ele>1116.4</ele>
        <time>2026-08-27T07:39:14.150Z</time>
      </trkpt>
      <trkpt lat="47.84853" lon="6.92809">
        <ele>1117</ele>
        <time>2026-08-27T07:39:15.158Z</time>
      </trkpt>
      <trkpt lat="47.84854" lon="6.92811">
        <ele>1117.1</ele>
        <time>2026-08-27T07:39:17.040Z</time>
      </trkpt>
      <trkpt lat="47.84854" lon="6.92813">
        <ele>1116.9</ele>
        <time>2026-08-27T07:39:18.081Z</time>
      </trkpt>
      <trkpt lat="47.84855" lon="6.92814">
        <ele>1117.1</ele>
        <time>2026-08-27T07:39:19.089Z</time>
      </trkpt>
      <trkpt lat="47.84855" lon="6.92816">
        <ele>1116.9</ele>
        <time>2026-08-27T07:39:20.097Z</time>
      </trkpt>
      <trkpt lat="47.84856" lon="6.92817">
        <ele>1117.1</ele>
        <time>2026-08-27T07:39:21.106Z</time>
      </trkpt>
      <trkpt lat="47.84856" lon="6.92818">
        <ele>1117.1</ele>
        <time>2026-08-27T07:39:22.155Z</time>
      </trkpt>
      <trkpt lat="47.84856" lon="6.9282">
        <ele>1117.4</ele>
        <time>2026-08-27T07:39:24.130Z</time>
      </trkpt>
      <trkpt lat="47.84856" lon="6.9282">
        <ele>1117.8</ele>
        <time>2026-08-27T07:39:25.138Z</time>
      </trkpt>
      <trkpt lat="47.84856" lon="6.92821">
        <ele>1117.6</ele>
        <time>2026-08-27T07:39:27.154Z</time>
      </trkpt>
      <trkpt lat="47.84856" lon="6.92821">
        <ele>1118.1</ele>
        <time>2026-08-27T07:39:28.162Z</time>
      </trkpt>
      <trkpt lat="47.84856" lon="6.92822">
        <ele>1117.4</ele>
        <time>2026-08-27T07:39:30.077Z</time>
      </trkpt>
      <trkpt lat="47.84856" lon="6.92822">
        <ele>1118.5</ele>
        <time>2026-08-27T07:39:31.084Z</time>
      </trkpt>
      <trkpt lat="47.84856" lon="6.92822">
        <ele>1118.5</ele>
        <time>2026-08-27T07:39:32.160Z</time>
      </trkpt>
      <trkpt lat="47.84856" lon="6.92824">
        <ele>1118.9</ele>
        <time>2026-08-27T07:39:34.109Z</time>
      </trkpt>
      <trkpt lat="47.84856" lon="6.92826">
        <ele>1118.6</ele>
        <time>2026-08-27T07:39:35.116Z</time>
      </trkpt>
      <trkpt lat="47.84856" lon="6.92827">
        <ele>1119.8</ele>
        <time>2026-08-27T07:39:36.124Z</time>
      </trkpt>
      <trkpt lat="47.84856" lon="6.92828">
        <ele>1119.7</ele>
        <time>2026-08-27T07:39:37.132Z</time>
      </trkpt>
      <trkpt lat="47.84856" lon="6.92828">
        <ele>1119.8</ele>
        <time>2026-08-27T07:39:38.140Z</time>
      </trkpt>
      <trkpt lat="47.84857" lon="6.92829">
        <ele>1119.8</ele>
        <time>2026-08-27T07:39:39.181Z</time>
      </trkpt>
      <trkpt lat="47.84857" lon="6.92833">
        <ele>1119.7</ele>
        <time>2026-08-27T07:39:41.063Z</time>
      </trkpt>
      <trkpt lat="47.84858" lon="6.92834">
        <ele>1120.2</ele>
        <time>2026-08-27T07:39:42.071Z</time>
      </trkpt>
      <trkpt lat="47.84857" lon="6.92836">
        <ele>1120.2</ele>
        <time>2026-08-27T07:39:43.079Z</time>
      </trkpt>
      <trkpt lat="47.84858" lon="6.92836">
        <ele>1120.1</ele>
        <time>2026-08-27T07:39:45.095Z</time>
      </trkpt>
      <trkpt lat="47.84858" lon="6.92836">
        <ele>1120.8</ele>
        <time>2026-08-27T07:39:46.103Z</time>
      </trkpt>
      <trkpt lat="47.84858" lon="6.92836">
        <ele>1121</ele>
        <time>2026-08-27T07:39:47.112Z</time>
      </trkpt>
      <trkpt lat="47.84858" lon="6.92836">
        <ele>1121</ele>
        <time>2026-08-27T07:39:48.120Z</time>
      </trkpt>
      <trkpt lat="47.84858" lon="6.92837">
        <ele>1120.8</ele>
        <time>2026-08-27T07:39:49.127Z</time>
      </trkpt>
      <trkpt lat="47.84858" lon="6.92838">
        <ele>1120.7</ele>
        <time>2026-08-27T07:39:50.135Z</time>
      </trkpt>
      <trkpt lat="47.84859" lon="6.92839">
        <ele>1120.6</ele>
        <time>2026-08-27T07:39:51.143Z</time>
      </trkpt>
      <trkpt lat="47.84859" lon="6.92842">
        <ele>1120.6</ele>
        <time>2026-08-27T07:39:52.974Z</time>
      </trkpt>
      <trkpt lat="47.84859" lon="6.92843">
        <ele>1121.5</ele>
        <time>2026-08-27T07:39:54.167Z</time>
      </trkpt>
      <trkpt lat="47.8486" lon="6.92846">
        <ele>1121.6</ele>
        <time>2026-08-27T07:39:56.082Z</time>
      </trkpt>
      <trkpt lat="47.8486" lon="6.92848">
        <ele>1121.6</ele>
        <time>2026-08-27T07:39:57.091Z</time>
      </trkpt>
      <trkpt lat="47.8486" lon="6.9285">
        <ele>1121.5</ele>
        <time>2026-08-27T07:39:58.099Z</time>
      </trkpt>
      <trkpt lat="47.84861" lon="6.92852">
        <ele>1120.9</ele>
        <time>2026-08-27T07:39:59.106Z</time>
      </trkpt>
      <trkpt lat="47.84861" lon="6.92854">
        <ele>1122</ele>
        <time>2026-08-27T07:40:01.122Z</time>
      </trkpt>
      <trkpt lat="47.84861" lon="6.92855">
        <ele>1121.9</ele>
        <time>2026-08-27T07:40:02.131Z</time>
      </trkpt>
      <trkpt lat="47.8486" lon="6.92856">
        <ele>1122</ele>
        <time>2026-08-27T07:40:03.138Z</time>
      </trkpt>
      <trkpt lat="47.8486" lon="6.92857">
        <ele>1121.6</ele>
        <time>2026-08-27T07:40:04.146Z</time>
      </trkpt>
      <trkpt lat="47.8486" lon="6.92858">
        <ele>1122.2</ele>
        <time>2026-08-27T07:40:05.154Z</time>
      </trkpt>
      <trkpt lat="47.8486" lon="6.92859">
        <ele>1122.5</ele>
        <time>2026-08-27T07:40:07.169Z</time>
      </trkpt>
      <trkpt lat="47.8486" lon="6.92861">
        <ele>1122.4</ele>
        <time>2026-08-27T07:40:09.085Z</time>
      </trkpt>
      <trkpt lat="47.84859" lon="6.92863">
        <ele>1122.8</ele>
        <time>2026-08-27T07:40:11.100Z</time>
      </trkpt>
      <trkpt lat="47.84859" lon="6.92865">
        <ele>1122.8</ele>
        <time>2026-08-27T07:40:12.134Z</time>
      </trkpt>
      <trkpt lat="47.84859" lon="6.92867">
        <ele>1122.6</ele>
        <time>2026-08-27T07:40:14.124Z</time>
      </trkpt>
      <trkpt lat="47.84859" lon="6.92869">
        <ele>1122.5</ele>
        <time>2026-08-27T07:40:15.133Z</time>
      </trkpt>
      <trkpt lat="47.84859" lon="6.9287">
        <ele>1122.5</ele>
        <time>2026-08-27T07:40:16.140Z</time>
      </trkpt>
      <trkpt lat="47.84859" lon="6.92871">
        <ele>1122.6</ele>
        <time>2026-08-27T07:40:17.174Z</time>
      </trkpt>
      <trkpt lat="47.84859" lon="6.92873">
        <ele>1123.5</ele>
        <time>2026-08-27T07:40:19.164Z</time>
      </trkpt>
      <trkpt lat="47.84858" lon="6.92874">
        <ele>1123.7</ele>
        <time>2026-08-27T07:40:21.080Z</time>
      </trkpt>
      <trkpt lat="47.84857" lon="6.92875">
        <ele>1124</ele>
        <time>2026-08-27T07:40:22.087Z</time>
      </trkpt>
      <trkpt lat="47.84857" lon="6.92875">
        <ele>1124.5</ele>
        <time>2026-08-27T07:40:23.096Z</time>
      </trkpt>
      <trkpt lat="47.84857" lon="6.92875">
        <ele>1124.5</ele>
        <time>2026-08-27T07:40:24.103Z</time>
      </trkpt>
      <trkpt lat="47.84856" lon="6.92874">
        <ele>1124.1</ele>
        <time>2026-08-27T07:40:25.111Z</time>
      </trkpt>
      <trkpt lat="47.84856" lon="6.92874">
        <ele>1123.8</ele>
        <time>2026-08-27T07:40:26.119Z</time>
      </trkpt>
      <trkpt lat="47.84856" lon="6.92873">
        <ele>1124.2</ele>
        <time>2026-08-27T07:40:27.128Z</time>
      </trkpt>
      <trkpt lat="47.84856" lon="6.92873">
        <ele>1123.8</ele>
        <time>2026-08-27T07:40:28.135Z</time>
      </trkpt>
      <trkpt lat="47.84856" lon="6.92873">
        <ele>1124.5</ele>
        <time>2026-08-27T07:40:30.051Z</time>
      </trkpt>
      <trkpt lat="47.84856" lon="6.92873">
        <ele>1124.3</ele>
        <time>2026-08-27T07:40:31.059Z</time>
      </trkpt>
      <trkpt lat="47.84856" lon="6.92873">
        <ele>1124.3</ele>
        <time>2026-08-27T07:40:32.067Z</time>
      </trkpt>
      <trkpt lat="47.84856" lon="6.92873">
        <ele>1124</ele>
        <time>2026-08-27T07:40:33.074Z</time>
      </trkpt>
      <trkpt lat="47.84857" lon="6.92873">
        <ele>1124.6</ele>
        <time>2026-08-27T07:40:34.082Z</time>
      </trkpt>
      <trkpt lat="47.84857" lon="6.92873">
        <ele>1124.9</ele>
        <time>2026-08-27T07:40:35.091Z</time>
      </trkpt>
      <trkpt lat="47.84857" lon="6.92873">
        <ele>1124.8</ele>
        <time>2026-08-27T07:40:36.098Z</time>
      </trkpt>
      <trkpt lat="47.84857" lon="6.92873">
        <ele>1124.7</ele>
        <time>2026-08-27T07:40:37.106Z</time>
      </trkpt>
      <trkpt lat="47.84857" lon="6.92873">
        <ele>1124.6</ele>
        <time>2026-08-27T07:40:38.114Z</time>
      </trkpt>
      <trkpt lat="47.84857" lon="6.92873">
        <ele>1124.5</ele>
        <time>2026-08-27T07:40:39.122Z</time>
      </trkpt>
      <trkpt lat="47.84857" lon="6.92873">
        <ele>1124.7</ele>
        <time>2026-08-27T07:40:40.131Z</time>
      </trkpt>
      <trkpt lat="47.84857" lon="6.92873">
        <ele>1124.6</ele>
        <time>2026-08-27T07:40:41.138Z</time>
      </trkpt>
      <trkpt lat="47.84857" lon="6.92873">
        <ele>1124.3</ele>
        <time>2026-08-27T07:40:43.054Z</time>
      </trkpt>
      <trkpt lat="47.84857" lon="6.92873">
        <ele>1124.2</ele>
        <time>2026-08-27T07:40:44.062Z</time>
      </trkpt>
      <trkpt lat="47.84857" lon="6.92873">
        <ele>1124.1</ele>
        <time>2026-08-27T07:40:45.070Z</time>
      </trkpt>
      <trkpt lat="47.84857" lon="6.92873">
        <ele>1124.2</ele>
        <time>2026-08-27T07:40:46.078Z</time>
      </trkpt>
      <trkpt lat="47.84857" lon="6.92873">
        <ele>1124.3</ele>
        <time>2026-08-27T07:40:47.086Z</time>
      </trkpt>
      <trkpt lat="47.84857" lon="6.92873">
        <ele>1124.6</ele>
        <time>2026-08-27T07:40:48.093Z</time>
      </trkpt>
      <trkpt lat="47.84857" lon="6.92873">
        <ele>1124.5</ele>
        <time>2026-08-27T07:40:49.101Z</time>
      </trkpt>
      <trkpt lat="47.84857" lon="6.92873">
        <ele>1124.4</ele>
        <time>2026-08-27T07:40:50.109Z</time>
      </trkpt>
      <trkpt lat="47.84858" lon="6.92873">
        <ele>1124.6</ele>
        <time>2026-08-27T07:40:51.117Z</time>
      </trkpt>
      <trkpt lat="47.84858" lon="6.92873">
        <ele>1124.9</ele>
        <time>2026-08-27T07:40:52.125Z</time>
      </trkpt>
      <trkpt lat="47.84858" lon="6.92874">
        <ele>1124.8</ele>
        <time>2026-08-27T07:40:53.134Z</time>
      </trkpt>
      <trkpt lat="47.84858" lon="6.92874">
        <ele>1124.1</ele>
        <time>2026-08-27T07:40:55.150Z</time>
      </trkpt>
      <trkpt lat="47.84858" lon="6.92874">
        <ele>1123.9</ele>
        <time>2026-08-27T07:40:57.065Z</time>
      </trkpt>
      <trkpt lat="47.84858" lon="6.92874">
        <ele>1123.9</ele>
        <time>2026-08-27T07:40:58.073Z</time>
      </trkpt>
      <trkpt lat="47.84858" lon="6.92874">
        <ele>1124.8</ele>
        <time>2026-08-27T07:40:59.082Z</time>
      </trkpt>
      <trkpt lat="47.84858" lon="6.92874">
        <ele>1124.6</ele>
        <time>2026-08-27T07:41:00.089Z</time>
      </trkpt>
      <trkpt lat="47.84858" lon="6.92875">
        <ele>1124.7</ele>
        <time>2026-08-27T07:41:01.098Z</time>
      </trkpt>
      <trkpt lat="47.84858" lon="6.92875">
        <ele>1124.3</ele>
        <time>2026-08-27T07:41:02.106Z</time>
      </trkpt>
      <trkpt lat="47.84858" lon="6.92875">
        <ele>1124.9</ele>
        <time>2026-08-27T07:41:03.113Z</time>
      </trkpt>
      <trkpt lat="47.84858" lon="6.92875">
        <ele>1125.3</ele>
        <time>2026-08-27T07:41:04.121Z</time>
      </trkpt>
      <trkpt lat="47.84858" lon="6.92875">
        <ele>1125.1</ele>
        <time>2026-08-27T07:41:05.129Z</time>
      </trkpt>
      <trkpt lat="47.84858" lon="6.92875">
        <ele>1124.9</ele>
        <time>2026-08-27T07:41:07.045Z</time>
      </trkpt>
      <trkpt lat="47.84858" lon="6.92875">
        <ele>1124.8</ele>
        <time>2026-08-27T07:41:08.053Z</time>
      </trkpt>
      <trkpt lat="47.84858" lon="6.92875">
        <ele>1125</ele>
        <time>2026-08-27T07:41:09.162Z</time>
      </trkpt>
      <trkpt lat="47.84858" lon="6.92875">
        <ele>1124.9</ele>
        <time>2026-08-27T07:41:11.077Z</time>
      </trkpt>
      <trkpt lat="47.84858" lon="6.92875">
        <ele>1124.5</ele>
        <time>2026-08-27T07:41:12.086Z</time>
      </trkpt>
      <trkpt lat="47.84858" lon="6.92875">
        <ele>1124.3</ele>
        <time>2026-08-27T07:41:13.093Z</time>
      </trkpt>
      <trkpt lat="47.84858" lon="6.92875">
        <ele>1124.2</ele>
        <time>2026-08-27T07:41:14.101Z</time>
      </trkpt>
      <trkpt lat="47.84858" lon="6.92875">
        <ele>1124.3</ele>
        <time>2026-08-27T07:41:15.109Z</time>
      </trkpt>
      <trkpt lat="47.84858" lon="6.92875">
        <ele>1124.4</ele>
        <time>2026-08-27T07:41:16.117Z</time>
      </trkpt>
      <trkpt lat="47.84859" lon="6.92875">
        <ele>1124.7</ele>
        <time>2026-08-27T07:41:17.126Z</time>
      </trkpt>
      <trkpt lat="47.84859" lon="6.92875">
        <ele>1124.6</ele>
        <time>2026-08-27T07:41:18.134Z</time>
      </trkpt>
      <trkpt lat="47.84859" lon="6.92875">
        <ele>1124.6</ele>
        <time>2026-08-27T07:41:20.048Z</time>
      </trkpt>
      <trkpt lat="47.84859" lon="6.92875">
        <ele>1125.1</ele>
        <time>2026-08-27T07:41:21.058Z</time>
      </trkpt>
      <trkpt lat="47.84859" lon="6.92875">
        <ele>1125.1</ele>
        <time>2026-08-27T07:41:22.065Z</time>
      </trkpt>
      <trkpt lat="47.84859" lon="6.92875">
        <ele>1124.6</ele>
        <time>2026-08-27T07:41:23.073Z</time>
      </trkpt>
      <trkpt lat="47.84859" lon="6.92875">
        <ele>1124.3</ele>
        <time>2026-08-27T07:41:24.081Z</time>
      </trkpt>
      <trkpt lat="47.84859" lon="6.92875">
        <ele>1124.3</ele>
        <time>2026-08-27T07:41:25.089Z</time>
      </trkpt>
      <trkpt lat="47.84859" lon="6.92875">
        <ele>1124</ele>
        <time>2026-08-27T07:41:26.097Z</time>
      </trkpt>
      <trkpt lat="47.84859" lon="6.92875">
        <ele>1124</ele>
        <time>2026-08-27T07:41:27.106Z</time>
      </trkpt>
      <trkpt lat="47.84859" lon="6.92875">
        <ele>1124.7</ele>
        <time>2026-08-27T07:41:28.113Z</time>
      </trkpt>
      <trkpt lat="47.84859" lon="6.92875">
        <ele>1124.4</ele>
        <time>2026-08-27T07:41:29.121Z</time>
      </trkpt>
      <trkpt lat="47.84859" lon="6.92875">
        <ele>1124.4</ele>
        <time>2026-08-27T07:41:30.129Z</time>
      </trkpt>
      <trkpt lat="47.84859" lon="6.92875">
        <ele>1124.7</ele>
        <time>2026-08-27T07:41:32.045Z</time>
      </trkpt>
      <trkpt lat="47.84859" lon="6.92875">
        <ele>1125.1</ele>
        <time>2026-08-27T07:41:33.154Z</time>
      </trkpt>
      <trkpt lat="47.84859" lon="6.92875">
        <ele>1125.1</ele>
        <time>2026-08-27T07:41:35.069Z</time>
      </trkpt>
      <trkpt lat="47.84859" lon="6.92875">
        <ele>1125.2</ele>
        <time>2026-08-27T07:41:36.077Z</time>
      </trkpt>
      <trkpt lat="47.84859" lon="6.92875">
        <ele>1124.9</ele>
        <time>2026-08-27T07:41:37.085Z</time>
      </trkpt>
      <trkpt lat="47.84859" lon="6.92875">
        <ele>1125.2</ele>
        <time>2026-08-27T07:41:38.093Z</time>
      </trkpt>
      <trkpt lat="47.84859" lon="6.92875">
        <ele>1125.2</ele>
        <time>2026-08-27T07:41:39.101Z</time>
      </trkpt>
      <trkpt lat="47.84859" lon="6.92875">
        <ele>1125.1</ele>
        <time>2026-08-27T07:41:40.110Z</time>
      </trkpt>
      <trkpt lat="47.84858" lon="6.92875">
        <ele>1124.7</ele>
        <time>2026-08-27T07:41:41.118Z</time>
      </trkpt>
      <trkpt lat="47.84858" lon="6.92876">
        <ele>1124.5</ele>
        <time>2026-08-27T07:41:42.125Z</time>
      </trkpt>
      <trkpt lat="47.84858" lon="6.92876">
        <ele>1124.4</ele>
        <time>2026-08-27T07:41:43.133Z</time>
      </trkpt>
      <trkpt lat="47.84858" lon="6.92876">
        <ele>1124.4</ele>
        <time>2026-08-27T07:41:44.141Z</time>
      </trkpt>
      <trkpt lat="47.84858" lon="6.92876">
        <ele>1124.3</ele>
        <time>2026-08-27T07:41:45.149Z</time>
      </trkpt>
      <trkpt lat="47.84858" lon="6.92876">
        <ele>1124.6</ele>
        <time>2026-08-27T07:41:46.157Z</time>
      </trkpt>
      <trkpt lat="47.84858" lon="6.92875">
        <ele>1124.7</ele>
        <time>2026-08-27T07:41:47.166Z</time>
      </trkpt>
      <trkpt lat="47.84857" lon="6.92875">
        <ele>1124.7</ele>
        <time>2026-08-27T07:41:49.082Z</time>
      </trkpt>
      <trkpt lat="47.84857" lon="6.92875">
        <ele>1124.6</ele>
        <time>2026-08-27T07:41:50.089Z</time>
      </trkpt>
      <trkpt lat="47.84857" lon="6.92875">
        <ele>1124.6</ele>
        <time>2026-08-27T07:41:51.098Z</time>
      </trkpt>
      <trkpt lat="47.84857" lon="6.92875">
        <ele>1124.3</ele>
        <time>2026-08-27T07:41:53.114Z</time>
      </trkpt>
      <trkpt lat="47.84857" lon="6.92876">
        <ele>1124.5</ele>
        <time>2026-08-27T07:41:54.122Z</time>
      </trkpt>
      <trkpt lat="47.84857" lon="6.92876">
        <ele>1124</ele>
        <time>2026-08-27T07:41:55.129Z</time>
      </trkpt>
      <trkpt lat="47.84857" lon="6.92878">
        <ele>1124.6</ele>
        <time>2026-08-27T07:41:57.145Z</time>
      </trkpt>
      <trkpt lat="47.84856" lon="6.92881">
        <ele>1124.4</ele>
        <time>2026-08-27T07:41:58.154Z</time>
      </trkpt>
      <trkpt lat="47.84856" lon="6.92883">
        <ele>1124.4</ele>
        <time>2026-08-27T07:41:59.162Z</time>
      </trkpt>
      <trkpt lat="47.84856" lon="6.92884">
        <ele>1124.2</ele>
        <time>2026-08-27T07:42:00.170Z</time>
      </trkpt>
      <trkpt lat="47.84855" lon="6.92888">
        <ele>1125.4</ele>
        <time>2026-08-27T07:42:02.085Z</time>
      </trkpt>
      <trkpt lat="47.84854" lon="6.92889">
        <ele>1125.3</ele>
        <time>2026-08-27T07:42:03.093Z</time>
      </trkpt>
      <trkpt lat="47.84854" lon="6.92891">
        <ele>1125.4</ele>
        <time>2026-08-27T07:42:04.186Z</time>
      </trkpt>
      <trkpt lat="47.84854" lon="6.92893">
        <ele>1125.5</ele>
        <time>2026-08-27T07:42:06.118Z</time>
      </trkpt>
      <trkpt lat="47.84854" lon="6.92895">
        <ele>1125.8</ele>
        <time>2026-08-27T07:42:08.133Z</time>
      </trkpt>
      <trkpt lat="47.84854" lon="6.92897">
        <ele>1126.6</ele>
        <time>2026-08-27T07:42:09.141Z</time>
      </trkpt>
      <trkpt lat="47.84854" lon="6.92897">
        <ele>1125.7</ele>
        <time>2026-08-27T07:42:10.149Z</time>
      </trkpt>
      <trkpt lat="47.84854" lon="6.92898">
        <ele>1126.9</ele>
        <time>2026-08-27T07:42:11.157Z</time>
      </trkpt>
      <trkpt lat="47.84853" lon="6.92899">
        <ele>1126.7</ele>
        <time>2026-08-27T07:42:12.165Z</time>
      </trkpt>
      <trkpt lat="47.84853" lon="6.929">
        <ele>1126.8</ele>
        <time>2026-08-27T07:42:14.106Z</time>
      </trkpt>
      <trkpt lat="47.84852" lon="6.92902">
        <ele>1127</ele>
        <time>2026-08-27T07:42:16.096Z</time>
      </trkpt>
      <trkpt lat="47.84852" lon="6.92903">
        <ele>1126.7</ele>
        <time>2026-08-27T07:42:17.104Z</time>
      </trkpt>
      <trkpt lat="47.84852" lon="6.92904">
        <ele>1127.4</ele>
        <time>2026-08-27T07:42:18.112Z</time>
      </trkpt>
      <trkpt lat="47.8485" lon="6.92905">
        <ele>1127.3</ele>
        <time>2026-08-27T07:42:20.129Z</time>
      </trkpt>
      <trkpt lat="47.8485" lon="6.92906">
        <ele>1127.4</ele>
        <time>2026-08-27T07:42:21.137Z</time>
      </trkpt>
      <trkpt lat="47.84849" lon="6.92907">
        <ele>1128.1</ele>
        <time>2026-08-27T07:42:23.153Z</time>
      </trkpt>
      <trkpt lat="47.84849" lon="6.92908">
        <ele>1128.1</ele>
        <time>2026-08-27T07:42:24.161Z</time>
      </trkpt>
      <trkpt lat="47.84848" lon="6.92908">
        <ele>1128.3</ele>
        <time>2026-08-27T07:42:25.170Z</time>
      </trkpt>
      <trkpt lat="47.84848" lon="6.9291">
        <ele>1128.3</ele>
        <time>2026-08-27T07:42:27.084Z</time>
      </trkpt>
      <trkpt lat="47.84847" lon="6.92912">
        <ele>1128</ele>
        <time>2026-08-27T07:42:29.100Z</time>
      </trkpt>
      <trkpt lat="47.84847" lon="6.92913">
        <ele>1129.2</ele>
        <time>2026-08-27T07:42:30.109Z</time>
      </trkpt>
      <trkpt lat="47.84847" lon="6.92913">
        <ele>1129.2</ele>
        <time>2026-08-27T07:42:31.183Z</time>
      </trkpt>
      <trkpt lat="47.84847" lon="6.92915">
        <ele>1129.3</ele>
        <time>2026-08-27T07:42:33.132Z</time>
      </trkpt>
      <trkpt lat="47.84847" lon="6.92915">
        <ele>1129.5</ele>
        <time>2026-08-27T07:42:34.140Z</time>
      </trkpt>
      <trkpt lat="47.84847" lon="6.92915">
        <ele>1129.6</ele>
        <time>2026-08-27T07:42:35.148Z</time>
      </trkpt>
      <trkpt lat="47.84847" lon="6.92916">
        <ele>1129.8</ele>
        <time>2026-08-27T07:42:36.989Z</time>
      </trkpt>
      <trkpt lat="47.84847" lon="6.92916">
        <ele>1130.6</ele>
        <time>2026-08-27T07:42:38.173Z</time>
      </trkpt>
      <trkpt lat="47.84847" lon="6.92917">
        <ele>1130.9</ele>
        <time>2026-08-27T07:42:40.087Z</time>
      </trkpt>
      <trkpt lat="47.84847" lon="6.92918">
        <ele>1130.9</ele>
        <time>2026-08-27T07:42:41.130Z</time>
      </trkpt>
      <trkpt lat="47.84847" lon="6.9292">
        <ele>1130.7</ele>
        <time>2026-08-27T07:42:43.111Z</time>
      </trkpt>
      <trkpt lat="47.84848" lon="6.92921">
        <ele>1130.7</ele>
        <time>2026-08-27T07:42:44.128Z</time>
      </trkpt>
      <trkpt lat="47.84848" lon="6.92925">
        <ele>1130.7</ele>
        <time>2026-08-27T07:42:46.136Z</time>
      </trkpt>
      <trkpt lat="47.84848" lon="6.92927">
        <ele>1131.4</ele>
        <time>2026-08-27T07:42:47.143Z</time>
      </trkpt>
      <trkpt lat="47.84848" lon="6.92929">
        <ele>1131.1</ele>
        <time>2026-08-27T07:42:48.151Z</time>
      </trkpt>
      <trkpt lat="47.84847" lon="6.9293">
        <ele>1131.5</ele>
        <time>2026-08-27T07:42:49.159Z</time>
      </trkpt>
      <trkpt lat="47.84847" lon="6.92931">
        <ele>1131.3</ele>
        <time>2026-08-27T07:42:50.167Z</time>
      </trkpt>
      <trkpt lat="47.84847" lon="6.92932">
        <ele>1132.3</ele>
        <time>2026-08-27T07:42:52.082Z</time>
      </trkpt>
      <trkpt lat="47.84847" lon="6.92932">
        <ele>1132.3</ele>
        <time>2026-08-27T07:42:53.125Z</time>
      </trkpt>
      <trkpt lat="47.84846" lon="6.92933">
        <ele>1132.3</ele>
        <time>2026-08-27T07:42:55.106Z</time>
      </trkpt>
      <trkpt lat="47.84846" lon="6.92933">
        <ele>1132.2</ele>
        <time>2026-08-27T07:42:56.114Z</time>
      </trkpt>
      <trkpt lat="47.84846" lon="6.92933">
        <ele>1132</ele>
        <time>2026-08-27T07:42:57.122Z</time>
      </trkpt>
      <trkpt lat="47.84846" lon="6.92933">
        <ele>1132.5</ele>
        <time>2026-08-27T07:42:58.131Z</time>
      </trkpt>
      <trkpt lat="47.84846" lon="6.92933">
        <ele>1132.9</ele>
        <time>2026-08-27T07:42:59.138Z</time>
      </trkpt>
      <trkpt lat="47.84846" lon="6.92934">
        <ele>1132.9</ele>
        <time>2026-08-27T07:43:00.164Z</time>
      </trkpt>
      <trkpt lat="47.84846" lon="6.92934">
        <ele>1133.5</ele>
        <time>2026-08-27T07:43:02.162Z</time>
      </trkpt>
      <trkpt lat="47.84846" lon="6.92934">
        <ele>1133.3</ele>
        <time>2026-08-27T07:43:04.077Z</time>
      </trkpt>
      <trkpt lat="47.84846" lon="6.92934">
        <ele>1133.3</ele>
        <time>2026-08-27T07:43:05.086Z</time>
      </trkpt>
      <trkpt lat="47.84846" lon="6.92934">
        <ele>1133.5</ele>
        <time>2026-08-27T07:43:06.093Z</time>
      </trkpt>
      <trkpt lat="47.84846" lon="6.92934">
        <ele>1133.8</ele>
        <time>2026-08-27T07:43:07.103Z</time>
      </trkpt>
      <trkpt lat="47.84845" lon="6.92934">
        <ele>1134.3</ele>
        <time>2026-08-27T07:43:08.109Z</time>
      </trkpt>
      <trkpt lat="47.84845" lon="6.92934">
        <ele>1133.9</ele>
        <time>2026-08-27T07:43:09.118Z</time>
      </trkpt>
      <trkpt lat="47.84845" lon="6.92934">
        <ele>1133.9</ele>
        <time>2026-08-27T07:43:10.167Z</time>
      </trkpt>
      <trkpt lat="47.84845" lon="6.92936">
        <ele>1133.6</ele>
        <time>2026-08-27T07:43:12.142Z</time>
      </trkpt>
      <trkpt lat="47.84845" lon="6.92937">
        <ele>1133.8</ele>
        <time>2026-08-27T07:43:13.149Z</time>
      </trkpt>
      <trkpt lat="47.84844" lon="6.92939">
        <ele>1134.1</ele>
        <time>2026-08-27T07:43:14.157Z</time>
      </trkpt>
      <trkpt lat="47.84844" lon="6.92941">
        <ele>1133.7</ele>
        <time>2026-08-27T07:43:15.165Z</time>
      </trkpt>
      <trkpt lat="47.84843" lon="6.92942">
        <ele>1134.5</ele>
        <time>2026-08-27T07:43:17.081Z</time>
      </trkpt>
      <trkpt lat="47.84843" lon="6.92944">
        <ele>1134.3</ele>
        <time>2026-08-27T07:43:18.089Z</time>
      </trkpt>
      <trkpt lat="47.84843" lon="6.92945">
        <ele>1134.3</ele>
        <time>2026-08-27T07:43:19.097Z</time>
      </trkpt>
      <trkpt lat="47.84843" lon="6.92947">
        <ele>1135.2</ele>
        <time>2026-08-27T07:43:20.106Z</time>
      </trkpt>
      <trkpt lat="47.84843" lon="6.92949">
        <ele>1135.3</ele>
        <time>2026-08-27T07:43:21.114Z</time>
      </trkpt>
      <trkpt lat="47.84843" lon="6.9295">
        <ele>1135.2</ele>
        <time>2026-08-27T07:43:22.121Z</time>
      </trkpt>
      <trkpt lat="47.84843" lon="6.92951">
        <ele>1135.2</ele>
        <time>2026-08-27T07:43:23.129Z</time>
      </trkpt>
      <trkpt lat="47.84842" lon="6.92951">
        <ele>1135.5</ele>
        <time>2026-08-27T07:43:24.137Z</time>
      </trkpt>
      <trkpt lat="47.84842" lon="6.92951">
        <ele>1135.1</ele>
        <time>2026-08-27T07:43:25.145Z</time>
      </trkpt>
      <trkpt lat="47.84842" lon="6.92951">
        <ele>1135.7</ele>
        <time>2026-08-27T07:43:27.160Z</time>
      </trkpt>
      <trkpt lat="47.84842" lon="6.92951">
        <ele>1135.8</ele>
        <time>2026-08-27T07:43:29.076Z</time>
      </trkpt>
      <trkpt lat="47.84842" lon="6.92952">
        <ele>1135.8</ele>
        <time>2026-08-27T07:43:30.126Z</time>
      </trkpt>
      <trkpt lat="47.84841" lon="6.92952">
        <ele>1136.6</ele>
        <time>2026-08-27T07:43:32.101Z</time>
      </trkpt>
      <trkpt lat="47.8484" lon="6.92952">
        <ele>1136.8</ele>
        <time>2026-08-27T07:43:33.108Z</time>
      </trkpt>
      <trkpt lat="47.84839" lon="6.92954">
        <ele>1137.4</ele>
        <time>2026-08-27T07:43:35.124Z</time>
      </trkpt>
      <trkpt lat="47.84838" lon="6.92954">
        <ele>1138</ele>
        <time>2026-08-27T07:43:36.132Z</time>
      </trkpt>
      <trkpt lat="47.84838" lon="6.92955">
        <ele>1138.2</ele>
        <time>2026-08-27T07:43:38.047Z</time>
      </trkpt>
      <trkpt lat="47.84837" lon="6.92956">
        <ele>1138.1</ele>
        <time>2026-08-27T07:43:39.987Z</time>
      </trkpt>
      <trkpt lat="47.84837" lon="6.92956">
        <ele>1138.3</ele>
        <time>2026-08-27T07:43:41.171Z</time>
      </trkpt>
      <trkpt lat="47.84837" lon="6.92958">
        <ele>1138.7</ele>
        <time>2026-08-27T07:43:43.087Z</time>
      </trkpt>
      <trkpt lat="47.84837" lon="6.92959">
        <ele>1139.1</ele>
        <time>2026-08-27T07:43:44.095Z</time>
      </trkpt>
      <trkpt lat="47.84836" lon="6.92961">
        <ele>1138.8</ele>
        <time>2026-08-27T07:43:45.104Z</time>
      </trkpt>
      <trkpt lat="47.84837" lon="6.92962">
        <ele>1138.8</ele>
        <time>2026-08-27T07:43:46.111Z</time>
      </trkpt>
      <trkpt lat="47.84837" lon="6.92963">
        <ele>1139.8</ele>
        <time>2026-08-27T07:43:47.119Z</time>
      </trkpt>
      <trkpt lat="47.84837" lon="6.92963">
        <ele>1140.2</ele>
        <time>2026-08-27T07:43:48.127Z</time>
      </trkpt>
      <trkpt lat="47.84837" lon="6.92964">
        <ele>1139.9</ele>
        <time>2026-08-27T07:43:49.135Z</time>
      </trkpt>
      <trkpt lat="47.84837" lon="6.92964">
        <ele>1139.7</ele>
        <time>2026-08-27T07:43:50.144Z</time>
      </trkpt>
      <trkpt lat="47.84837" lon="6.92964">
        <ele>1140</ele>
        <time>2026-08-27T07:43:51.151Z</time>
      </trkpt>
      <trkpt lat="47.84837" lon="6.92965">
        <ele>1139.5</ele>
        <time>2026-08-27T07:43:52.159Z</time>
      </trkpt>
      <trkpt lat="47.84837" lon="6.92965">
        <ele>1139.9</ele>
        <time>2026-08-27T07:43:53.166Z</time>
      </trkpt>
      <trkpt lat="47.84837" lon="6.92965">
        <ele>1139.8</ele>
        <time>2026-08-27T07:43:54.174Z</time>
      </trkpt>
      <trkpt lat="47.84838" lon="6.92966">
        <ele>1139.7</ele>
        <time>2026-08-27T07:43:56.091Z</time>
      </trkpt>
      <trkpt lat="47.84838" lon="6.92966">
        <ele>1139.9</ele>
        <time>2026-08-27T07:43:57.098Z</time>
      </trkpt>
      <trkpt lat="47.84838" lon="6.92966">
        <ele>1139.8</ele>
        <time>2026-08-27T07:43:58.106Z</time>
      </trkpt>
      <trkpt lat="47.84838" lon="6.92966">
        <ele>1139.7</ele>
        <time>2026-08-27T07:43:59.114Z</time>
      </trkpt>
      <trkpt lat="47.84838" lon="6.92966">
        <ele>1139.7</ele>
        <time>2026-08-27T07:44:00.122Z</time>
      </trkpt>
      <trkpt lat="47.84838" lon="6.92967">
        <ele>1139.9</ele>
        <time>2026-08-27T07:44:01.130Z</time>
      </trkpt>
      <trkpt lat="47.84838" lon="6.92967">
        <ele>1139.7</ele>
        <time>2026-08-27T07:44:02.138Z</time>
      </trkpt>
      <trkpt lat="47.84839" lon="6.92968">
        <ele>1139.8</ele>
        <time>2026-08-27T07:44:03.147Z</time>
      </trkpt>
      <trkpt lat="47.84839" lon="6.92969">
        <ele>1140.1</ele>
        <time>2026-08-27T07:44:04.153Z</time>
      </trkpt>
      <trkpt lat="47.8484" lon="6.92971">
        <ele>1140.3</ele>
        <time>2026-08-27T07:44:05.162Z</time>
      </trkpt>
      <trkpt lat="47.8484" lon="6.92973">
        <ele>1140.4</ele>
        <time>2026-08-27T07:44:06.169Z</time>
      </trkpt>
      <trkpt lat="47.8484" lon="6.92976">
        <ele>1140</ele>
        <time>2026-08-27T07:44:08.086Z</time>
      </trkpt>
      <trkpt lat="47.8484" lon="6.92977">
        <ele>1140</ele>
        <time>2026-08-27T07:44:09.109Z</time>
      </trkpt>
      <trkpt lat="47.84839" lon="6.92977">
        <ele>1140.8</ele>
        <time>2026-08-27T07:44:11.109Z</time>
      </trkpt>
      <trkpt lat="47.84839" lon="6.92977">
        <ele>1140.8</ele>
        <time>2026-08-27T07:44:12.125Z</time>
      </trkpt>
      <trkpt lat="47.84839" lon="6.92978">
        <ele>1141.6</ele>
        <time>2026-08-27T07:44:13.125Z</time>
      </trkpt>
      <trkpt lat="47.84839" lon="6.92978">
        <ele>1141.3</ele>
        <time>2026-08-27T07:44:14.133Z</time>
      </trkpt>
      <trkpt lat="47.84838" lon="6.92979">
        <ele>1141.9</ele>
        <time>2026-08-27T07:44:15.141Z</time>
      </trkpt>
      <trkpt lat="47.84838" lon="6.92979">
        <ele>1142.2</ele>
        <time>2026-08-27T07:44:16.148Z</time>
      </trkpt>
      <trkpt lat="47.84838" lon="6.9298">
        <ele>1142.6</ele>
        <time>2026-08-27T07:44:17.156Z</time>
      </trkpt>
      <trkpt lat="47.84838" lon="6.92981">
        <ele>1142.6</ele>
        <time>2026-08-27T07:44:19.173Z</time>
      </trkpt>
      <trkpt lat="47.84838" lon="6.92981">
        <ele>1142.8</ele>
        <time>2026-08-27T07:44:21.046Z</time>
      </trkpt>
      <trkpt lat="47.84838" lon="6.92982">
        <ele>1143.2</ele>
        <time>2026-08-27T07:44:23.105Z</time>
      </trkpt>
      <trkpt lat="47.84838" lon="6.92982">
        <ele>1143.5</ele>
        <time>2026-08-27T07:44:24.112Z</time>
      </trkpt>
      <trkpt lat="47.84838" lon="6.92983">
        <ele>1143.4</ele>
        <time>2026-08-27T07:44:25.119Z</time>
      </trkpt>
      <trkpt lat="47.84838" lon="6.92983">
        <ele>1144</ele>
        <time>2026-08-27T07:44:26.128Z</time>
      </trkpt>
      <trkpt lat="47.84838" lon="6.92984">
        <ele>1144</ele>
        <time>2026-08-27T07:44:27.135Z</time>
      </trkpt>
      <trkpt lat="47.84838" lon="6.92985">
        <ele>1143.9</ele>
        <time>2026-08-27T07:44:28.143Z</time>
      </trkpt>
      <trkpt lat="47.84837" lon="6.92987">
        <ele>1143.9</ele>
        <time>2026-08-27T07:44:30.068Z</time>
      </trkpt>
      <trkpt lat="47.84837" lon="6.92988">
        <ele>1144.3</ele>
        <time>2026-08-27T07:44:31.167Z</time>
      </trkpt>
      <trkpt lat="47.84837" lon="6.92989">
        <ele>1144.8</ele>
        <time>2026-08-27T07:44:33.083Z</time>
      </trkpt>
      <trkpt lat="47.84836" lon="6.92991">
        <ele>1145</ele>
        <time>2026-08-27T07:44:35.098Z</time>
      </trkpt>
      <trkpt lat="47.84836" lon="6.92992">
        <ele>1144.6</ele>
        <time>2026-08-27T07:44:36.106Z</time>
      </trkpt>
      <trkpt lat="47.84836" lon="6.92992">
        <ele>1144.5</ele>
        <time>2026-08-27T07:44:37.115Z</time>
      </trkpt>
      <trkpt lat="47.84835" lon="6.92993">
        <ele>1144.5</ele>
        <time>2026-08-27T07:44:38.122Z</time>
      </trkpt>
      <trkpt lat="47.84835" lon="6.92993">
        <ele>1144.8</ele>
        <time>2026-08-27T07:44:39.130Z</time>
      </trkpt>
      <trkpt lat="47.84835" lon="6.92994">
        <ele>1145</ele>
        <time>2026-08-27T07:44:40.138Z</time>
      </trkpt>
      <trkpt lat="47.84835" lon="6.92994">
        <ele>1145.4</ele>
        <time>2026-08-27T07:44:41.146Z</time>
      </trkpt>
      <trkpt lat="47.84834" lon="6.92995">
        <ele>1146</ele>
        <time>2026-08-27T07:44:42.154Z</time>
      </trkpt>
      <trkpt lat="47.84834" lon="6.92996">
        <ele>1145.8</ele>
        <time>2026-08-27T07:44:43.162Z</time>
      </trkpt>
      <trkpt lat="47.84834" lon="6.92997">
        <ele>1146</ele>
        <time>2026-08-27T07:44:45.128Z</time>
      </trkpt>
      <trkpt lat="47.84834" lon="6.93">
        <ele>1146.6</ele>
        <time>2026-08-27T07:44:47.093Z</time>
      </trkpt>
      <trkpt lat="47.84834" lon="6.93002">
        <ele>1147</ele>
        <time>2026-08-27T07:44:49.109Z</time>
      </trkpt>
      <trkpt lat="47.84834" lon="6.93003">
        <ele>1146.5</ele>
        <time>2026-08-27T07:44:50.117Z</time>
      </trkpt>
      <trkpt lat="47.84834" lon="6.93004">
        <ele>1146.8</ele>
        <time>2026-08-27T07:44:51.126Z</time>
      </trkpt>
      <trkpt lat="47.84833" lon="6.93004">
        <ele>1147</ele>
        <time>2026-08-27T07:44:52.133Z</time>
      </trkpt>
      <trkpt lat="47.84833" lon="6.93005">
        <ele>1146.9</ele>
        <time>2026-08-27T07:44:53.141Z</time>
      </trkpt>
      <trkpt lat="47.84833" lon="6.93006">
        <ele>1147.1</ele>
        <time>2026-08-27T07:44:54.149Z</time>
      </trkpt>
      <trkpt lat="47.84833" lon="6.93007">
        <ele>1147.3</ele>
        <time>2026-08-27T07:44:55.158Z</time>
      </trkpt>
      <trkpt lat="47.84832" lon="6.93009">
        <ele>1147.5</ele>
        <time>2026-08-27T07:44:57.072Z</time>
      </trkpt>
      <trkpt lat="47.84832" lon="6.93009">
        <ele>1147.4</ele>
        <time>2026-08-27T07:44:58.181Z</time>
      </trkpt>
      <trkpt lat="47.84832" lon="6.9301">
        <ele>1147.8</ele>
        <time>2026-08-27T07:45:00.097Z</time>
      </trkpt>
      <trkpt lat="47.84832" lon="6.93011">
        <ele>1147.8</ele>
        <time>2026-08-27T07:45:01.104Z</time>
      </trkpt>
      <trkpt lat="47.84832" lon="6.93012">
        <ele>1148</ele>
        <time>2026-08-27T07:45:02.188Z</time>
      </trkpt>
      <trkpt lat="47.84831" lon="6.93013">
        <ele>1148.8</ele>
        <time>2026-08-27T07:45:04.129Z</time>
      </trkpt>
      <trkpt lat="47.84831" lon="6.93014">
        <ele>1148.8</ele>
        <time>2026-08-27T07:45:05.187Z</time>
      </trkpt>
      <trkpt lat="47.8483" lon="6.93016">
        <ele>1148.6</ele>
        <time>2026-08-27T07:45:07.152Z</time>
      </trkpt>
      <trkpt lat="47.8483" lon="6.93017">
        <ele>1148.9</ele>
        <time>2026-08-27T07:45:08.161Z</time>
      </trkpt>
      <trkpt lat="47.8483" lon="6.9302">
        <ele>1149</ele>
        <time>2026-08-27T07:45:10.126Z</time>
      </trkpt>
      <trkpt lat="47.84831" lon="6.93023">
        <ele>1149.2</ele>
        <time>2026-08-27T07:45:12.092Z</time>
      </trkpt>
      <trkpt lat="47.84831" lon="6.93024">
        <ele>1149.5</ele>
        <time>2026-08-27T07:45:13.099Z</time>
      </trkpt>
      <trkpt lat="47.84832" lon="6.93027">
        <ele>1150.1</ele>
        <time>2026-08-27T07:45:15.116Z</time>
      </trkpt>
      <trkpt lat="47.84832" lon="6.93028">
        <ele>1149.8</ele>
        <time>2026-08-27T07:45:16.123Z</time>
      </trkpt>
      <trkpt lat="47.84833" lon="6.9303">
        <ele>1150.1</ele>
        <time>2026-08-27T07:45:18.139Z</time>
      </trkpt>
      <trkpt lat="47.84832" lon="6.93032">
        <ele>1150.4</ele>
        <time>2026-08-27T07:45:19.164Z</time>
      </trkpt>
      <trkpt lat="47.84832" lon="6.93034">
        <ele>1150.3</ele>
        <time>2026-08-27T07:45:21.163Z</time>
      </trkpt>
      <trkpt lat="47.84831" lon="6.93035">
        <ele>1150.2</ele>
        <time>2026-08-27T07:45:22.171Z</time>
      </trkpt>
      <trkpt lat="47.84831" lon="6.93037">
        <ele>1150.3</ele>
        <time>2026-08-27T07:45:24.003Z</time>
      </trkpt>
      <trkpt lat="47.84831" lon="6.93038">
        <ele>1150.1</ele>
        <time>2026-08-27T07:45:25.094Z</time>
      </trkpt>
      <trkpt lat="47.84831" lon="6.93039">
        <ele>1150.3</ele>
        <time>2026-08-27T07:45:26.102Z</time>
      </trkpt>
      <trkpt lat="47.84831" lon="6.9304">
        <ele>1150.5</ele>
        <time>2026-08-27T07:45:27.110Z</time>
      </trkpt>
      <trkpt lat="47.84831" lon="6.93041">
        <ele>1150.7</ele>
        <time>2026-08-27T07:45:28.118Z</time>
      </trkpt>
      <trkpt lat="47.8483" lon="6.93042">
        <ele>1150.6</ele>
        <time>2026-08-27T07:45:29.126Z</time>
      </trkpt>
      <trkpt lat="47.8483" lon="6.93043">
        <ele>1150.6</ele>
        <time>2026-08-27T07:45:30.135Z</time>
      </trkpt>
      <trkpt lat="47.8483" lon="6.93045">
        <ele>1151.2</ele>
        <time>2026-08-27T07:45:32.151Z</time>
      </trkpt>
      <trkpt lat="47.8483" lon="6.93046">
        <ele>1151.2</ele>
        <time>2026-08-27T07:45:33.167Z</time>
      </trkpt>
      <trkpt lat="47.8483" lon="6.93048">
        <ele>1150.8</ele>
        <time>2026-08-27T07:45:35.073Z</time>
      </trkpt>
      <trkpt lat="47.8483" lon="6.93049">
        <ele>1150.8</ele>
        <time>2026-08-27T07:45:36.124Z</time>
      </trkpt>
      <trkpt lat="47.8483" lon="6.93051">
        <ele>1151.2</ele>
        <time>2026-08-27T07:45:38.097Z</time>
      </trkpt>
      <trkpt lat="47.8483" lon="6.93052">
        <ele>1151.4</ele>
        <time>2026-08-27T07:45:39.105Z</time>
      </trkpt>
      <trkpt lat="47.8483" lon="6.93053">
        <ele>1151.8</ele>
        <time>2026-08-27T07:45:40.114Z</time>
      </trkpt>
      <trkpt lat="47.8483" lon="6.93054">
        <ele>1151.8</ele>
        <time>2026-08-27T07:45:41.164Z</time>
      </trkpt>
      <trkpt lat="47.8483" lon="6.93056">
        <ele>1152.2</ele>
        <time>2026-08-27T07:45:43.137Z</time>
      </trkpt>
      <trkpt lat="47.8483" lon="6.93057">
        <ele>1152.4</ele>
        <time>2026-08-27T07:45:44.146Z</time>
      </trkpt>
      <trkpt lat="47.8483" lon="6.93058">
        <ele>1152.2</ele>
        <time>2026-08-27T07:45:45.153Z</time>
      </trkpt>
      <trkpt lat="47.84829" lon="6.93059">
        <ele>1152.6</ele>
        <time>2026-08-27T07:45:47.170Z</time>
      </trkpt>
      <trkpt lat="47.84829" lon="6.93061">
        <ele>1152.1</ele>
        <time>2026-08-27T07:45:49.144Z</time>
      </trkpt>
      <trkpt lat="47.8483" lon="6.93063">
        <ele>1152.4</ele>
        <time>2026-08-27T07:45:51.101Z</time>
      </trkpt>
      <trkpt lat="47.8483" lon="6.93064">
        <ele>1152.7</ele>
        <time>2026-08-27T07:45:52.110Z</time>
      </trkpt>
      <trkpt lat="47.8483" lon="6.93065">
        <ele>1152.7</ele>
        <time>2026-08-27T07:45:53.184Z</time>
      </trkpt>
      <trkpt lat="47.84831" lon="6.93067">
        <ele>1152.7</ele>
        <time>2026-08-27T07:45:55.132Z</time>
      </trkpt>
      <trkpt lat="47.84831" lon="6.93068">
        <ele>1153</ele>
        <time>2026-08-27T07:45:56.140Z</time>
      </trkpt>
      <trkpt lat="47.84831" lon="6.93069">
        <ele>1153.3</ele>
        <time>2026-08-27T07:45:57.149Z</time>
      </trkpt>
      <trkpt lat="47.84832" lon="6.93073">
        <ele>1153.5</ele>
        <time>2026-08-27T07:45:59.165Z</time>
      </trkpt>
      <trkpt lat="47.84832" lon="6.93075">
        <ele>1154.1</ele>
        <time>2026-08-27T07:46:01.081Z</time>
      </trkpt>
      <trkpt lat="47.84832" lon="6.93076">
        <ele>1154</ele>
        <time>2026-08-27T07:46:02.188Z</time>
      </trkpt>
      <trkpt lat="47.84833" lon="6.93077">
        <ele>1153.6</ele>
        <time>2026-08-27T07:46:04.105Z</time>
      </trkpt>
      <trkpt lat="47.84833" lon="6.93078">
        <ele>1154</ele>
        <time>2026-08-27T07:46:05.112Z</time>
      </trkpt>
      <trkpt lat="47.84833" lon="6.93079">
        <ele>1154.1</ele>
        <time>2026-08-27T07:46:06.120Z</time>
      </trkpt>
      <trkpt lat="47.84833" lon="6.9308">
        <ele>1154.2</ele>
        <time>2026-08-27T07:46:07.128Z</time>
      </trkpt>
      <trkpt lat="47.84834" lon="6.9308">
        <ele>1154.5</ele>
        <time>2026-08-27T07:46:08.136Z</time>
      </trkpt>
      <trkpt lat="47.84834" lon="6.93081">
        <ele>1154.5</ele>
        <time>2026-08-27T07:46:09.145Z</time>
      </trkpt>
      <trkpt lat="47.84834" lon="6.93082">
        <ele>1154.7</ele>
        <time>2026-08-27T07:46:10.151Z</time>
      </trkpt>
      <trkpt lat="47.84834" lon="6.93082">
        <ele>1155</ele>
        <time>2026-08-27T07:46:11.159Z</time>
      </trkpt>
      <trkpt lat="47.84834" lon="6.93083">
        <ele>1155.7</ele>
        <time>2026-08-27T07:46:12.168Z</time>
      </trkpt>
      <trkpt lat="47.84834" lon="6.93084">
        <ele>1155.1</ele>
        <time>2026-08-27T07:46:14.125Z</time>
      </trkpt>
      <trkpt lat="47.84835" lon="6.93086">
        <ele>1156</ele>
        <time>2026-08-27T07:46:16.099Z</time>
      </trkpt>
      <trkpt lat="47.84835" lon="6.93087">
        <ele>1155.9</ele>
        <time>2026-08-27T07:46:17.107Z</time>
      </trkpt>
      <trkpt lat="47.84835" lon="6.93088">
        <ele>1156</ele>
        <time>2026-08-27T07:46:18.115Z</time>
      </trkpt>
      <trkpt lat="47.84835" lon="6.93089">
        <ele>1156</ele>
        <time>2026-08-27T07:46:19.123Z</time>
      </trkpt>
      <trkpt lat="47.84835" lon="6.9309">
        <ele>1156.3</ele>
        <time>2026-08-27T07:46:20.132Z</time>
      </trkpt>
      <trkpt lat="47.84835" lon="6.93091">
        <ele>1156.3</ele>
        <time>2026-08-27T07:46:21.139Z</time>
      </trkpt>
      <trkpt lat="47.84836" lon="6.93092">
        <ele>1156.4</ele>
        <time>2026-08-27T07:46:23.155Z</time>
      </trkpt>
      <trkpt lat="47.84836" lon="6.93092">
        <ele>1156.6</ele>
        <time>2026-08-27T07:46:24.163Z</time>
      </trkpt>
      <trkpt lat="47.84836" lon="6.93092">
        <ele>1156.7</ele>
        <time>2026-08-27T07:46:25.171Z</time>
      </trkpt>
      <trkpt lat="47.84837" lon="6.93092">
        <ele>1156.9</ele>
        <time>2026-08-27T07:46:27.086Z</time>
      </trkpt>
      <trkpt lat="47.84837" lon="6.93093">
        <ele>1157.1</ele>
        <time>2026-08-27T07:46:28.144Z</time>
      </trkpt>
      <trkpt lat="47.84838" lon="6.93094">
        <ele>1157.4</ele>
        <time>2026-08-27T07:46:29.203Z</time>
      </trkpt>
      <trkpt lat="47.84839" lon="6.93094">
        <ele>1157.5</ele>
        <time>2026-08-27T07:46:31.118Z</time>
      </trkpt>
      <trkpt lat="47.8484" lon="6.93094">
        <ele>1157.3</ele>
        <time>2026-08-27T07:46:32.126Z</time>
      </trkpt>
      <trkpt lat="47.8484" lon="6.93093">
        <ele>1157.1</ele>
        <time>2026-08-27T07:46:33.134Z</time>
      </trkpt>
      <trkpt lat="47.84841" lon="6.93093">
        <ele>1157.1</ele>
        <time>2026-08-27T07:46:34.143Z</time>
      </trkpt>
      <trkpt lat="47.84841" lon="6.93092">
        <ele>1157</ele>
        <time>2026-08-27T07:46:35.150Z</time>
      </trkpt>
      <trkpt lat="47.84841" lon="6.93092">
        <ele>1157.1</ele>
        <time>2026-08-27T07:46:36.158Z</time>
      </trkpt>
      <trkpt lat="47.84842" lon="6.93092">
        <ele>1157.2</ele>
        <time>2026-08-27T07:46:37.167Z</time>
      </trkpt>
      <trkpt lat="47.84842" lon="6.93092">
        <ele>1157.4</ele>
        <time>2026-08-27T07:46:38.174Z</time>
      </trkpt>
      <trkpt lat="47.84842" lon="6.93092">
        <ele>1157.1</ele>
        <time>2026-08-27T07:46:39.182Z</time>
      </trkpt>
      <trkpt lat="47.84842" lon="6.93092">
        <ele>1156.7</ele>
        <time>2026-08-27T07:46:41.199Z</time>
      </trkpt>
      <trkpt lat="47.84842" lon="6.93092">
        <ele>1157.5</ele>
        <time>2026-08-27T07:46:43.113Z</time>
      </trkpt>
      <trkpt lat="47.84843" lon="6.93092">
        <ele>1157.7</ele>
        <time>2026-08-27T07:46:44.121Z</time>
      </trkpt>
      <trkpt lat="47.84843" lon="6.93092">
        <ele>1157.7</ele>
        <time>2026-08-27T07:46:45.130Z</time>
      </trkpt>
      <trkpt lat="47.84843" lon="6.93091">
        <ele>1157.4</ele>
        <time>2026-08-27T07:46:47.045Z</time>
      </trkpt>
      <trkpt lat="47.84843" lon="6.93091">
        <ele>1157.5</ele>
        <time>2026-08-27T07:46:48.053Z</time>
      </trkpt>
      <trkpt lat="47.84843" lon="6.93091">
        <ele>1157.8</ele>
        <time>2026-08-27T07:46:49.061Z</time>
      </trkpt>
      <trkpt lat="47.84843" lon="6.93091">
        <ele>1158.2</ele>
        <time>2026-08-27T07:46:50.068Z</time>
      </trkpt>
      <trkpt lat="47.84843" lon="6.93091">
        <ele>1158.3</ele>
        <time>2026-08-27T07:46:51.077Z</time>
      </trkpt>
      <trkpt lat="47.84843" lon="6.93091">
        <ele>1158.3</ele>
        <time>2026-08-27T07:46:52.084Z</time>
      </trkpt>
      <trkpt lat="47.84843" lon="6.93091">
        <ele>1158.2</ele>
        <time>2026-08-27T07:46:53.092Z</time>
      </trkpt>
      <trkpt lat="47.84843" lon="6.93091">
        <ele>1158.3</ele>
        <time>2026-08-27T07:46:54.100Z</time>
      </trkpt>
      <trkpt lat="47.84843" lon="6.93091">
        <ele>1158.1</ele>
        <time>2026-08-27T07:46:55.108Z</time>
      </trkpt>
      <trkpt lat="47.84843" lon="6.93091">
        <ele>1158.2</ele>
        <time>2026-08-27T07:46:56.116Z</time>
      </trkpt>
      <trkpt lat="47.84843" lon="6.9309">
        <ele>1158.2</ele>
        <time>2026-08-27T07:46:57.124Z</time>
      </trkpt>
      <trkpt lat="47.84843" lon="6.9309">
        <ele>1158.3</ele>
        <time>2026-08-27T07:46:58.132Z</time>
      </trkpt>
      <trkpt lat="47.84843" lon="6.9309">
        <ele>1158.7</ele>
        <time>2026-08-27T07:46:59.140Z</time>
      </trkpt>
      <trkpt lat="47.84843" lon="6.9309">
        <ele>1158.6</ele>
        <time>2026-08-27T07:47:01.055Z</time>
      </trkpt>
      <trkpt lat="47.84843" lon="6.93091">
        <ele>1158.7</ele>
        <time>2026-08-27T07:47:02.063Z</time>
      </trkpt>
      <trkpt lat="47.84843" lon="6.93091">
        <ele>1158.1</ele>
        <time>2026-08-27T07:47:03.071Z</time>
      </trkpt>
      <trkpt lat="47.84843" lon="6.9309">
        <ele>1158</ele>
        <time>2026-08-27T07:47:04.079Z</time>
      </trkpt>
      <trkpt lat="47.84843" lon="6.9309">
        <ele>1158.1</ele>
        <time>2026-08-27T07:47:05.189Z</time>
      </trkpt>
      <trkpt lat="47.84843" lon="6.93091">
        <ele>1158.5</ele>
        <time>2026-08-27T07:47:07.204Z</time>
      </trkpt>
      <trkpt lat="47.84843" lon="6.93091">
        <ele>1158</ele>
        <time>2026-08-27T07:47:08.212Z</time>
      </trkpt>
      <trkpt lat="47.84843" lon="6.93093">
        <ele>1158.3</ele>
        <time>2026-08-27T07:47:10.127Z</time>
      </trkpt>
      <trkpt lat="47.84843" lon="6.93095">
        <ele>1158.2</ele>
        <time>2026-08-27T07:47:11.135Z</time>
      </trkpt>
      <trkpt lat="47.84844" lon="6.93097">
        <ele>1158</ele>
        <time>2026-08-27T07:47:12.143Z</time>
      </trkpt>
      <trkpt lat="47.84844" lon="6.93099">
        <ele>1158</ele>
        <time>2026-08-27T07:47:13.185Z</time>
      </trkpt>
      <trkpt lat="47.84846" lon="6.93102">
        <ele>1158</ele>
        <time>2026-08-27T07:47:15.168Z</time>
      </trkpt>
      <trkpt lat="47.84846" lon="6.93103">
        <ele>1158.1</ele>
        <time>2026-08-27T07:47:16.176Z</time>
      </trkpt>
      <trkpt lat="47.84847" lon="6.93105">
        <ele>1158.3</ele>
        <time>2026-08-27T07:47:18.141Z</time>
      </trkpt>
      <trkpt lat="47.84847" lon="6.93106">
        <ele>1158.9</ele>
        <time>2026-08-27T07:47:20.107Z</time>
      </trkpt>
      <trkpt lat="47.84847" lon="6.93106">
        <ele>1159</ele>
        <time>2026-08-27T07:47:21.115Z</time>
      </trkpt>
      <trkpt lat="47.84848" lon="6.93106">
        <ele>1159.1</ele>
        <time>2026-08-27T07:47:22.124Z</time>
      </trkpt>
      <trkpt lat="47.84848" lon="6.93107">
        <ele>1159.4</ele>
        <time>2026-08-27T07:47:23.132Z</time>
      </trkpt>
      <trkpt lat="47.84848" lon="6.93107">
        <ele>1159.4</ele>
        <time>2026-08-27T07:47:24.139Z</time>
      </trkpt>
      <trkpt lat="47.84848" lon="6.93107">
        <ele>1159.5</ele>
        <time>2026-08-27T07:47:25.148Z</time>
      </trkpt>
      <trkpt lat="47.84848" lon="6.93108">
        <ele>1159.8</ele>
        <time>2026-08-27T07:47:26.155Z</time>
      </trkpt>
      <trkpt lat="47.84849" lon="6.93108">
        <ele>1160.1</ele>
        <time>2026-08-27T07:47:27.164Z</time>
      </trkpt>
      <trkpt lat="47.8485" lon="6.93108">
        <ele>1160.4</ele>
        <time>2026-08-27T07:47:29.179Z</time>
      </trkpt>
      <trkpt lat="47.8485" lon="6.93109">
        <ele>1160.5</ele>
        <time>2026-08-27T07:47:30.187Z</time>
      </trkpt>
      <trkpt lat="47.84851" lon="6.9311">
        <ele>1160.3</ele>
        <time>2026-08-27T07:47:32.103Z</time>
      </trkpt>
      <trkpt lat="47.84851" lon="6.93111">
        <ele>1160.3</ele>
        <time>2026-08-27T07:47:33.110Z</time>
      </trkpt>
      <trkpt lat="47.84851" lon="6.93111">
        <ele>1160.3</ele>
        <time>2026-08-27T07:47:34.118Z</time>
      </trkpt>
      <trkpt lat="47.84851" lon="6.93111">
        <ele>1161.1</ele>
        <time>2026-08-27T07:47:35.127Z</time>
      </trkpt>
      <trkpt lat="47.84851" lon="6.93111">
        <ele>1161.1</ele>
        <time>2026-08-27T07:47:37.143Z</time>
      </trkpt>
      <trkpt lat="47.84851" lon="6.93111">
        <ele>1160.8</ele>
        <time>2026-08-27T07:47:38.150Z</time>
      </trkpt>
      <trkpt lat="47.84851" lon="6.93111">
        <ele>1161.7</ele>
        <time>2026-08-27T07:47:40.166Z</time>
      </trkpt>
      <trkpt lat="47.84851" lon="6.93111">
        <ele>1161.4</ele>
        <time>2026-08-27T07:47:41.174Z</time>
      </trkpt>
      <trkpt lat="47.84851" lon="6.93111">
        <ele>1161.5</ele>
        <time>2026-08-27T07:47:42.182Z</time>
      </trkpt>
      <trkpt lat="47.84851" lon="6.9311">
        <ele>1161.5</ele>
        <time>2026-08-27T07:47:43.190Z</time>
      </trkpt>
      <trkpt lat="47.84851" lon="6.9311">
        <ele>1161.3</ele>
        <time>2026-08-27T07:47:44.198Z</time>
      </trkpt>
      <trkpt lat="47.84851" lon="6.93111">
        <ele>1161.3</ele>
        <time>2026-08-27T07:47:46.214Z</time>
      </trkpt>
      <trkpt lat="47.84852" lon="6.93112">
        <ele>1161.6</ele>
        <time>2026-08-27T07:47:48.130Z</time>
      </trkpt>
      <trkpt lat="47.84852" lon="6.93113">
        <ele>1161.6</ele>
        <time>2026-08-27T07:47:49.138Z</time>
      </trkpt>
      <trkpt lat="47.84853" lon="6.93114">
        <ele>1161.6</ele>
        <time>2026-08-27T07:47:50.147Z</time>
      </trkpt>
      <trkpt lat="47.84853" lon="6.93116">
        <ele>1161.8</ele>
        <time>2026-08-27T07:47:51.155Z</time>
      </trkpt>
      <trkpt lat="47.84854" lon="6.93118">
        <ele>1161.8</ele>
        <time>2026-08-27T07:47:53.170Z</time>
      </trkpt>
      <trkpt lat="47.84855" lon="6.93119">
        <ele>1162.1</ele>
        <time>2026-08-27T07:47:55.160Z</time>
      </trkpt>
      <trkpt lat="47.84855" lon="6.9312">
        <ele>1162.1</ele>
        <time>2026-08-27T07:47:56.161Z</time>
      </trkpt>
      <trkpt lat="47.84856" lon="6.9312">
        <ele>1162.6</ele>
        <time>2026-08-27T07:47:57.203Z</time>
      </trkpt>
      <trkpt lat="47.84857" lon="6.93122">
        <ele>1162.8</ele>
        <time>2026-08-27T07:47:59.219Z</time>
      </trkpt>
      <trkpt lat="47.84857" lon="6.93123">
        <ele>1162.9</ele>
        <time>2026-08-27T07:48:00.520Z</time>
      </trkpt>
      <trkpt lat="47.84858" lon="6.93125">
        <ele>1163.2</ele>
        <time>2026-08-27T07:48:02.141Z</time>
      </trkpt>
      <trkpt lat="47.84859" lon="6.93126">
        <ele>1162.7</ele>
        <time>2026-08-27T07:48:03.149Z</time>
      </trkpt>
      <trkpt lat="47.84859" lon="6.93128">
        <ele>1162.9</ele>
        <time>2026-08-27T07:48:04.157Z</time>
      </trkpt>
      <trkpt lat="47.84859" lon="6.93129">
        <ele>1163.5</ele>
        <time>2026-08-27T07:48:05.166Z</time>
      </trkpt>
      <trkpt lat="47.8486" lon="6.93131">
        <ele>1163.4</ele>
        <time>2026-08-27T07:48:07.181Z</time>
      </trkpt>
      <trkpt lat="47.84861" lon="6.93133">
        <ele>1163.2</ele>
        <time>2026-08-27T07:48:09.097Z</time>
      </trkpt>
      <trkpt lat="47.84861" lon="6.93134">
        <ele>1163.7</ele>
        <time>2026-08-27T07:48:10.205Z</time>
      </trkpt>
      <trkpt lat="47.84861" lon="6.93135">
        <ele>1164.1</ele>
        <time>2026-08-27T07:48:11.213Z</time>
      </trkpt>
      <trkpt lat="47.84862" lon="6.93136">
        <ele>1164.2</ele>
        <time>2026-08-27T07:48:13.129Z</time>
      </trkpt>
      <trkpt lat="47.84862" lon="6.93136">
        <ele>1164.3</ele>
        <time>2026-08-27T07:48:14.137Z</time>
      </trkpt>
      <trkpt lat="47.84862" lon="6.93136">
        <ele>1164.5</ele>
        <time>2026-08-27T07:48:15.144Z</time>
      </trkpt>
      <trkpt lat="47.84863" lon="6.93138">
        <ele>1164.6</ele>
        <time>2026-08-27T07:48:17.160Z</time>
      </trkpt>
      <trkpt lat="47.84863" lon="6.93139">
        <ele>1165</ele>
        <time>2026-08-27T07:48:18.168Z</time>
      </trkpt>
      <trkpt lat="47.84863" lon="6.93141">
        <ele>1165.2</ele>
        <time>2026-08-27T07:48:20.184Z</time>
      </trkpt>
      <trkpt lat="47.84864" lon="6.93143">
        <ele>1165.5</ele>
        <time>2026-08-27T07:48:22.099Z</time>
      </trkpt>
      <trkpt lat="47.84865" lon="6.93144">
        <ele>1165.5</ele>
        <time>2026-08-27T07:48:23.107Z</time>
      </trkpt>
      <trkpt lat="47.84865" lon="6.93145">
        <ele>1165.5</ele>
        <time>2026-08-27T07:48:24.182Z</time>
      </trkpt>
      <trkpt lat="47.84866" lon="6.93146">
        <ele>1166.2</ele>
        <time>2026-08-27T07:48:26.131Z</time>
      </trkpt>
      <trkpt lat="47.84866" lon="6.93146">
        <ele>1166.1</ele>
        <time>2026-08-27T07:48:27.140Z</time>
      </trkpt>
      <trkpt lat="47.84866" lon="6.93146">
        <ele>1165.9</ele>
        <time>2026-08-27T07:48:28.148Z</time>
      </trkpt>
      <trkpt lat="47.84867" lon="6.93147">
        <ele>1166</ele>
        <time>2026-08-27T07:48:30.164Z</time>
      </trkpt>
      <trkpt lat="47.84867" lon="6.93147">
        <ele>1166.1</ele>
        <time>2026-08-27T07:48:31.171Z</time>
      </trkpt>
      <trkpt lat="47.84867" lon="6.93147">
        <ele>1166.4</ele>
        <time>2026-08-27T07:48:32.180Z</time>
      </trkpt>
      <trkpt lat="47.84868" lon="6.93148">
        <ele>1167.2</ele>
        <time>2026-08-27T07:48:34.094Z</time>
      </trkpt>
      <trkpt lat="47.84868" lon="6.93149">
        <ele>1167</ele>
        <time>2026-08-27T07:48:35.203Z</time>
      </trkpt>
      <trkpt lat="47.84868" lon="6.93151">
        <ele>1167.4</ele>
        <time>2026-08-27T07:48:37.185Z</time>
      </trkpt>
      <trkpt lat="47.84868" lon="6.93154">
        <ele>1167.2</ele>
        <time>2026-08-27T07:48:39.135Z</time>
      </trkpt>
      <trkpt lat="47.84868" lon="6.93155">
        <ele>1167.6</ele>
        <time>2026-08-27T07:48:40.143Z</time>
      </trkpt>
      <trkpt lat="47.84868" lon="6.93156">
        <ele>1167.6</ele>
        <time>2026-08-27T07:48:41.151Z</time>
      </trkpt>
      <trkpt lat="47.84868" lon="6.93157">
        <ele>1167.5</ele>
        <time>2026-08-27T07:48:42.159Z</time>
      </trkpt>
      <trkpt lat="47.84868" lon="6.93159">
        <ele>1167.6</ele>
        <time>2026-08-27T07:48:43.167Z</time>
      </trkpt>
      <trkpt lat="47.84869" lon="6.9316">
        <ele>1167.9</ele>
        <time>2026-08-27T07:48:44.174Z</time>
      </trkpt>
      <trkpt lat="47.84869" lon="6.93161">
        <ele>1168</ele>
        <time>2026-08-27T07:48:45.183Z</time>
      </trkpt>
      <trkpt lat="47.8487" lon="6.93162">
        <ele>1168.3</ele>
        <time>2026-08-27T07:48:47.098Z</time>
      </trkpt>
      <trkpt lat="47.8487" lon="6.93163">
        <ele>1168.4</ele>
        <time>2026-08-27T07:48:48.105Z</time>
      </trkpt>
      <trkpt lat="47.8487" lon="6.93163">
        <ele>1168.5</ele>
        <time>2026-08-27T07:48:49.214Z</time>
      </trkpt>
      <trkpt lat="47.84871" lon="6.93164">
        <ele>1168.8</ele>
        <time>2026-08-27T07:48:51.129Z</time>
      </trkpt>
      <trkpt lat="47.84871" lon="6.93165">
        <ele>1168.8</ele>
        <time>2026-08-27T07:48:52.137Z</time>
      </trkpt>
      <trkpt lat="47.84871" lon="6.93165">
        <ele>1169</ele>
        <time>2026-08-27T07:48:53.145Z</time>
      </trkpt>
      <trkpt lat="47.84871" lon="6.93165">
        <ele>1169.3</ele>
        <time>2026-08-27T07:48:54.153Z</time>
      </trkpt>
      <trkpt lat="47.84871" lon="6.93164">
        <ele>1169.6</ele>
        <time>2026-08-27T07:48:55.162Z</time>
      </trkpt>
      <trkpt lat="47.84871" lon="6.93164">
        <ele>1169.6</ele>
        <time>2026-08-27T07:48:56.169Z</time>
      </trkpt>
      <trkpt lat="47.84871" lon="6.93165">
        <ele>1169.5</ele>
        <time>2026-08-27T07:48:57.177Z</time>
      </trkpt>
      <trkpt lat="47.84871" lon="6.93164">
        <ele>1170.2</ele>
        <time>2026-08-27T07:48:59.092Z</time>
      </trkpt>
      <trkpt lat="47.84871" lon="6.93164">
        <ele>1169.5</ele>
        <time>2026-08-27T07:49:00.101Z</time>
      </trkpt>
      <trkpt lat="47.84871" lon="6.93164">
        <ele>1169.5</ele>
        <time>2026-08-27T07:49:01.101Z</time>
      </trkpt>
      <trkpt lat="47.84871" lon="6.93164">
        <ele>1170</ele>
        <time>2026-08-27T07:49:02.117Z</time>
      </trkpt>
      <trkpt lat="47.84871" lon="6.93164">
        <ele>1170.1</ele>
        <time>2026-08-27T07:49:03.125Z</time>
      </trkpt>
      <trkpt lat="47.84871" lon="6.93165">
        <ele>1170.1</ele>
        <time>2026-08-27T07:49:04.133Z</time>
      </trkpt>
      <trkpt lat="47.84872" lon="6.93165">
        <ele>1170.1</ele>
        <time>2026-08-27T07:49:05.141Z</time>
      </trkpt>
      <trkpt lat="47.84872" lon="6.93165">
        <ele>1170.3</ele>
        <time>2026-08-27T07:49:06.148Z</time>
      </trkpt>
      <trkpt lat="47.84872" lon="6.93165">
        <ele>1170.2</ele>
        <time>2026-08-27T07:49:07.156Z</time>
      </trkpt>
      <trkpt lat="47.84872" lon="6.93165">
        <ele>1169.9</ele>
        <time>2026-08-27T07:49:08.164Z</time>
      </trkpt>
      <trkpt lat="47.84872" lon="6.93165">
        <ele>1170</ele>
        <time>2026-08-27T07:49:09.172Z</time>
      </trkpt>
      <trkpt lat="47.84872" lon="6.93166">
        <ele>1169.8</ele>
        <time>2026-08-27T07:49:11.087Z</time>
      </trkpt>
      <trkpt lat="47.84872" lon="6.93166">
        <ele>1169.8</ele>
        <time>2026-08-27T07:49:12.095Z</time>
      </trkpt>
      <trkpt lat="47.84872" lon="6.93166">
        <ele>1169.8</ele>
        <time>2026-08-27T07:49:13.179Z</time>
      </trkpt>
      <trkpt lat="47.84872" lon="6.93166">
        <ele>1170</ele>
        <time>2026-08-27T07:49:14.213Z</time>
      </trkpt>
      <trkpt lat="47.84873" lon="6.93168">
        <ele>1170.1</ele>
        <time>2026-08-27T07:49:16.043Z</time>
      </trkpt>
      <trkpt lat="47.84873" lon="6.93171">
        <ele>1170</ele>
        <time>2026-08-27T07:49:17.135Z</time>
      </trkpt>
      <trkpt lat="47.84874" lon="6.93173">
        <ele>1170</ele>
        <time>2026-08-27T07:49:18.143Z</time>
      </trkpt>
      <trkpt lat="47.84874" lon="6.93175">
        <ele>1170.2</ele>
        <time>2026-08-27T07:49:19.151Z</time>
      </trkpt>
      <trkpt lat="47.84875" lon="6.93176">
        <ele>1170.4</ele>
        <time>2026-08-27T07:49:20.159Z</time>
      </trkpt>
      <trkpt lat="47.84875" lon="6.93176">
        <ele>1170.4</ele>
        <time>2026-08-27T07:49:21.167Z</time>
      </trkpt>
      <trkpt lat="47.84875" lon="6.93177">
        <ele>1171</ele>
        <time>2026-08-27T07:49:23.184Z</time>
      </trkpt>
      <trkpt lat="47.84876" lon="6.93178">
        <ele>1171.1</ele>
        <time>2026-08-27T07:49:25.098Z</time>
      </trkpt>
      <trkpt lat="47.84877" lon="6.93179">
        <ele>1170.9</ele>
        <time>2026-08-27T07:49:26.107Z</time>
      </trkpt>
      <trkpt lat="47.84877" lon="6.9318">
        <ele>1170.7</ele>
        <time>2026-08-27T07:49:27.216Z</time>
      </trkpt>
      <trkpt lat="47.84879" lon="6.93182">
        <ele>1171</ele>
        <time>2026-08-27T07:49:29.131Z</time>
      </trkpt>
      <trkpt lat="47.84879" lon="6.93183">
        <ele>1171.4</ele>
        <time>2026-08-27T07:49:30.138Z</time>
      </trkpt>
      <trkpt lat="47.8488" lon="6.93186">
        <ele>1172</ele>
        <time>2026-08-27T07:49:32.155Z</time>
      </trkpt>
      <trkpt lat="47.84879" lon="6.93187">
        <ele>1172.1</ele>
        <time>2026-08-27T07:49:33.162Z</time>
      </trkpt>
      <trkpt lat="47.84879" lon="6.93188">
        <ele>1172.3</ele>
        <time>2026-08-27T07:49:34.171Z</time>
      </trkpt>
      <trkpt lat="47.84879" lon="6.93189">
        <ele>1172.6</ele>
        <time>2026-08-27T07:49:35.179Z</time>
      </trkpt>
      <trkpt lat="47.8488" lon="6.93191">
        <ele>1172.4</ele>
        <time>2026-08-27T07:49:37.093Z</time>
      </trkpt>
      <trkpt lat="47.8488" lon="6.93192">
        <ele>1172.4</ele>
        <time>2026-08-27T07:49:38.119Z</time>
      </trkpt>
      <trkpt lat="47.84881" lon="6.93194">
        <ele>1172.6</ele>
        <time>2026-08-27T07:49:40.117Z</time>
      </trkpt>
      <trkpt lat="47.84881" lon="6.93196">
        <ele>1172.8</ele>
        <time>2026-08-27T07:49:42.133Z</time>
      </trkpt>
      <trkpt lat="47.84881" lon="6.93197">
        <ele>1173</ele>
        <time>2026-08-27T07:49:43.141Z</time>
      </trkpt>
      <trkpt lat="47.84881" lon="6.93198">
        <ele>1172.9</ele>
        <time>2026-08-27T07:49:44.150Z</time>
      </trkpt>
      <trkpt lat="47.84881" lon="6.93198">
        <ele>1173.2</ele>
        <time>2026-08-27T07:49:45.157Z</time>
      </trkpt>
      <trkpt lat="47.84881" lon="6.93199">
        <ele>1173.3</ele>
        <time>2026-08-27T07:49:46.165Z</time>
      </trkpt>
      <trkpt lat="47.84881" lon="6.93201">
        <ele>1173.5</ele>
        <time>2026-08-27T07:49:48.080Z</time>
      </trkpt>
      <trkpt lat="47.84882" lon="6.93202">
        <ele>1173.8</ele>
        <time>2026-08-27T07:49:49.189Z</time>
      </trkpt>
      <trkpt lat="47.84882" lon="6.93202">
        <ele>1173.7</ele>
        <time>2026-08-27T07:49:50.198Z</time>
      </trkpt>
      <trkpt lat="47.84882" lon="6.93203">
        <ele>1174.2</ele>
        <time>2026-08-27T07:49:52.213Z</time>
      </trkpt>
      <trkpt lat="47.84883" lon="6.93206">
        <ele>1174.6</ele>
        <time>2026-08-27T07:49:54.161Z</time>
      </trkpt>
      <trkpt lat="47.84883" lon="6.93209">
        <ele>1174.8</ele>
        <time>2026-08-27T07:49:56.144Z</time>
      </trkpt>
      <trkpt lat="47.84883" lon="6.9321">
        <ele>1175.1</ele>
        <time>2026-08-27T07:49:57.152Z</time>
      </trkpt>
      <trkpt lat="47.84884" lon="6.93212">
        <ele>1174.7</ele>
        <time>2026-08-27T07:49:59.168Z</time>
      </trkpt>
      <trkpt lat="47.84884" lon="6.93214">
        <ele>1175.4</ele>
        <time>2026-08-27T07:50:01.083Z</time>
      </trkpt>
      <trkpt lat="47.84885" lon="6.93215">
        <ele>1175.6</ele>
        <time>2026-08-27T07:50:03.100Z</time>
      </trkpt>
      <trkpt lat="47.84885" lon="6.93215">
        <ele>1175.9</ele>
        <time>2026-08-27T07:50:04.107Z</time>
      </trkpt>
      <trkpt lat="47.84886" lon="6.93216">
        <ele>1176</ele>
        <time>2026-08-27T07:50:05.115Z</time>
      </trkpt>
      <trkpt lat="47.84886" lon="6.93216">
        <ele>1175.7</ele>
        <time>2026-08-27T07:50:06.124Z</time>
      </trkpt>
      <trkpt lat="47.84886" lon="6.93215">
        <ele>1176</ele>
        <time>2026-08-27T07:50:07.131Z</time>
      </trkpt>
      <trkpt lat="47.84886" lon="6.93215">
        <ele>1175.9</ele>
        <time>2026-08-27T07:50:08.139Z</time>
      </trkpt>
      <trkpt lat="47.84886" lon="6.93215">
        <ele>1175.7</ele>
        <time>2026-08-27T07:50:09.147Z</time>
      </trkpt>
      <trkpt lat="47.84886" lon="6.93215">
        <ele>1175.6</ele>
        <time>2026-08-27T07:50:10.156Z</time>
      </trkpt>
      <trkpt lat="47.84886" lon="6.93215">
        <ele>1175.6</ele>
        <time>2026-08-27T07:50:11.163Z</time>
      </trkpt>
      <trkpt lat="47.84886" lon="6.93216">
        <ele>1175.8</ele>
        <time>2026-08-27T07:50:12.171Z</time>
      </trkpt>
      <trkpt lat="47.84886" lon="6.93216">
        <ele>1175.8</ele>
        <time>2026-08-27T07:50:14.086Z</time>
      </trkpt>
      <trkpt lat="47.84886" lon="6.93216">
        <ele>1175.8</ele>
        <time>2026-08-27T07:50:15.094Z</time>
      </trkpt>
      <trkpt lat="47.84886" lon="6.93217">
        <ele>1175.7</ele>
        <time>2026-08-27T07:50:16.102Z</time>
      </trkpt>
      <trkpt lat="47.84886" lon="6.93217">
        <ele>1175.7</ele>
        <time>2026-08-27T07:50:17.110Z</time>
      </trkpt>
      <trkpt lat="47.84887" lon="6.93217">
        <ele>1175.7</ele>
        <time>2026-08-27T07:50:18.119Z</time>
      </trkpt>
      <trkpt lat="47.84887" lon="6.93217">
        <ele>1175.6</ele>
        <time>2026-08-27T07:50:19.126Z</time>
      </trkpt>
      <trkpt lat="47.84887" lon="6.93218">
        <ele>1175.8</ele>
        <time>2026-08-27T07:50:20.134Z</time>
      </trkpt>
      <trkpt lat="47.84887" lon="6.93218">
        <ele>1175.7</ele>
        <time>2026-08-27T07:50:21.142Z</time>
      </trkpt>
      <trkpt lat="47.84887" lon="6.93218">
        <ele>1176.1</ele>
        <time>2026-08-27T07:50:22.150Z</time>
      </trkpt>
      <trkpt lat="47.84887" lon="6.93218">
        <ele>1175.7</ele>
        <time>2026-08-27T07:50:23.158Z</time>
      </trkpt>
      <trkpt lat="47.84887" lon="6.93219">
        <ele>1175.6</ele>
        <time>2026-08-27T07:50:24.166Z</time>
      </trkpt>
      <trkpt lat="47.84887" lon="6.9322">
        <ele>1175.2</ele>
        <time>2026-08-27T07:50:25.175Z</time>
      </trkpt>
      <trkpt lat="47.84888" lon="6.93223">
        <ele>1175.4</ele>
        <time>2026-08-27T07:50:27.090Z</time>
      </trkpt>
      <trkpt lat="47.84888" lon="6.93224">
        <ele>1175.7</ele>
        <time>2026-08-27T07:50:28.097Z</time>
      </trkpt>
      <trkpt lat="47.84888" lon="6.93226">
        <ele>1176.2</ele>
        <time>2026-08-27T07:50:29.106Z</time>
      </trkpt>
      <trkpt lat="47.84888" lon="6.93227">
        <ele>1176.7</ele>
        <time>2026-08-27T07:50:30.113Z</time>
      </trkpt>
      <trkpt lat="47.84889" lon="6.93228">
        <ele>1176.7</ele>
        <time>2026-08-27T07:50:31.121Z</time>
      </trkpt>
      <trkpt lat="47.84889" lon="6.9323">
        <ele>1176.7</ele>
        <time>2026-08-27T07:50:32.129Z</time>
      </trkpt>
      <trkpt lat="47.84889" lon="6.93231">
        <ele>1177.1</ele>
        <time>2026-08-27T07:50:33.137Z</time>
      </trkpt>
      <trkpt lat="47.84889" lon="6.93233">
        <ele>1176.2</ele>
        <time>2026-08-27T07:50:34.145Z</time>
      </trkpt>
      <trkpt lat="47.8489" lon="6.93234">
        <ele>1176.9</ele>
        <time>2026-08-27T07:50:35.152Z</time>
      </trkpt>
      <trkpt lat="47.8489" lon="6.93235">
        <ele>1177.1</ele>
        <time>2026-08-27T07:50:36.160Z</time>
      </trkpt>
      <trkpt lat="47.8489" lon="6.93237">
        <ele>1177</ele>
        <time>2026-08-27T07:50:37.169Z</time>
      </trkpt>
      <trkpt lat="47.8489" lon="6.93238">
        <ele>1177</ele>
        <time>2026-08-27T07:50:39.085Z</time>
      </trkpt>
      <trkpt lat="47.8489" lon="6.93237">
        <ele>1176.9</ele>
        <time>2026-08-27T07:50:40.093Z</time>
      </trkpt>
      <trkpt lat="47.8489" lon="6.93237">
        <ele>1177.2</ele>
        <time>2026-08-27T07:50:41.100Z</time>
      </trkpt>
      <trkpt lat="47.8489" lon="6.93236">
        <ele>1177</ele>
        <time>2026-08-27T07:50:42.108Z</time>
      </trkpt>
      <trkpt lat="47.84889" lon="6.93236">
        <ele>1177.2</ele>
        <time>2026-08-27T07:50:43.116Z</time>
      </trkpt>
      <trkpt lat="47.84889" lon="6.93236">
        <ele>1177.1</ele>
        <time>2026-08-27T07:50:44.123Z</time>
      </trkpt>
      <trkpt lat="47.84889" lon="6.93236">
        <ele>1177.1</ele>
        <time>2026-08-27T07:50:45.131Z</time>
      </trkpt>
      <trkpt lat="47.84889" lon="6.93236">
        <ele>1177.1</ele>
        <time>2026-08-27T07:50:46.139Z</time>
      </trkpt>
      <trkpt lat="47.84889" lon="6.93236">
        <ele>1177</ele>
        <time>2026-08-27T07:50:47.147Z</time>
      </trkpt>
      <trkpt lat="47.84889" lon="6.93236">
        <ele>1176.8</ele>
        <time>2026-08-27T07:50:48.155Z</time>
      </trkpt>
      <trkpt lat="47.84889" lon="6.93237">
        <ele>1177</ele>
        <time>2026-08-27T07:50:50.171Z</time>
      </trkpt>
      <trkpt lat="47.8489" lon="6.93238">
        <ele>1177.3</ele>
        <time>2026-08-27T07:50:51.179Z</time>
      </trkpt>
      <trkpt lat="47.84891" lon="6.93243">
        <ele>1176.8</ele>
        <time>2026-08-27T07:50:53.094Z</time>
      </trkpt>
      <trkpt lat="47.84892" lon="6.93244">
        <ele>1176.9</ele>
        <time>2026-08-27T07:50:54.103Z</time>
      </trkpt>
      <trkpt lat="47.84892" lon="6.93246">
        <ele>1177.5</ele>
        <time>2026-08-27T07:50:55.212Z</time>
      </trkpt>
      <trkpt lat="47.84893" lon="6.93249">
        <ele>1177.3</ele>
        <time>2026-08-27T07:50:57.126Z</time>
      </trkpt>
      <trkpt lat="47.84893" lon="6.9325">
        <ele>1177.8</ele>
        <time>2026-08-27T07:50:58.134Z</time>
      </trkpt>
      <trkpt lat="47.84893" lon="6.93251">
        <ele>1177.9</ele>
        <time>2026-08-27T07:50:59.142Z</time>
      </trkpt>
      <trkpt lat="47.84893" lon="6.93253">
        <ele>1177.5</ele>
        <time>2026-08-27T07:51:00.150Z</time>
      </trkpt>
      <trkpt lat="47.84893" lon="6.93254">
        <ele>1177.5</ele>
        <time>2026-08-27T07:51:02.167Z</time>
      </trkpt>
      <trkpt lat="47.84894" lon="6.93256">
        <ele>1178.4</ele>
        <time>2026-08-27T07:51:04.081Z</time>
      </trkpt>
      <trkpt lat="47.84894" lon="6.93258">
        <ele>1178.4</ele>
        <time>2026-08-27T07:51:05.165Z</time>
      </trkpt>
      <trkpt lat="47.84894" lon="6.9326">
        <ele>1178.1</ele>
        <time>2026-08-27T07:51:07.139Z</time>
      </trkpt>
      <trkpt lat="47.84895" lon="6.93263">
        <ele>1178.7</ele>
        <time>2026-08-27T07:51:09.121Z</time>
      </trkpt>
      <trkpt lat="47.84895" lon="6.93264">
        <ele>1179</ele>
        <time>2026-08-27T07:51:10.130Z</time>
      </trkpt>
      <trkpt lat="47.84895" lon="6.93266">
        <ele>1178.9</ele>
        <time>2026-08-27T07:51:11.138Z</time>
      </trkpt>
      <trkpt lat="47.84896" lon="6.93267">
        <ele>1179.1</ele>
        <time>2026-08-27T07:51:12.146Z</time>
      </trkpt>
      <trkpt lat="47.84896" lon="6.93269">
        <ele>1179.2</ele>
        <time>2026-08-27T07:51:13.153Z</time>
      </trkpt>
      <trkpt lat="47.84896" lon="6.9327">
        <ele>1179.3</ele>
        <time>2026-08-27T07:51:14.162Z</time>
      </trkpt>
      <trkpt lat="47.84897" lon="6.93271">
        <ele>1179.3</ele>
        <time>2026-08-27T07:51:15.169Z</time>
      </trkpt>
      <trkpt lat="47.84897" lon="6.93273">
        <ele>1179.1</ele>
        <time>2026-08-27T07:51:17.084Z</time>
      </trkpt>
      <trkpt lat="47.84897" lon="6.93273">
        <ele>1179.1</ele>
        <time>2026-08-27T07:51:18.160Z</time>
      </trkpt>
      <trkpt lat="47.84897" lon="6.93275">
        <ele>1179.6</ele>
        <time>2026-08-27T07:51:20.108Z</time>
      </trkpt>
      <trkpt lat="47.84897" lon="6.93277">
        <ele>1179.5</ele>
        <time>2026-08-27T07:51:21.116Z</time>
      </trkpt>
      <trkpt lat="47.84898" lon="6.93278">
        <ele>1179.2</ele>
        <time>2026-08-27T07:51:22.124Z</time>
      </trkpt>
      <trkpt lat="47.84897" lon="6.9328">
        <ele>1179.2</ele>
        <time>2026-08-27T07:51:23.132Z</time>
      </trkpt>
      <trkpt lat="47.84898" lon="6.93282">
        <ele>1179.7</ele>
        <time>2026-08-27T07:51:24.140Z</time>
      </trkpt>
      <trkpt lat="47.84898" lon="6.93284">
        <ele>1179.4</ele>
        <time>2026-08-27T07:51:25.149Z</time>
      </trkpt>
      <trkpt lat="47.84899" lon="6.93285">
        <ele>1179.5</ele>
        <time>2026-08-27T07:51:26.156Z</time>
      </trkpt>
      <trkpt lat="47.84899" lon="6.93288">
        <ele>1179.7</ele>
        <time>2026-08-27T07:51:28.173Z</time>
      </trkpt>
      <trkpt lat="47.84899" lon="6.9329">
        <ele>1179.3</ele>
        <time>2026-08-27T07:51:30.087Z</time>
      </trkpt>
      <trkpt lat="47.849" lon="6.93292">
        <ele>1179.3</ele>
        <time>2026-08-27T07:51:31.104Z</time>
      </trkpt>
      <trkpt lat="47.84901" lon="6.93293">
        <ele>1180</ele>
        <time>2026-08-27T07:51:33.111Z</time>
      </trkpt>
      <trkpt lat="47.84901" lon="6.93294">
        <ele>1180.1</ele>
        <time>2026-08-27T07:51:34.120Z</time>
      </trkpt>
      <trkpt lat="47.84902" lon="6.93295">
        <ele>1179.7</ele>
        <time>2026-08-27T07:51:35.127Z</time>
      </trkpt>
      <trkpt lat="47.84902" lon="6.93296">
        <ele>1179.6</ele>
        <time>2026-08-27T07:51:36.135Z</time>
      </trkpt>
      <trkpt lat="47.84903" lon="6.93297">
        <ele>1180</ele>
        <time>2026-08-27T07:51:37.143Z</time>
      </trkpt>
      <trkpt lat="47.84903" lon="6.93299">
        <ele>1180.3</ele>
        <time>2026-08-27T07:51:39.159Z</time>
      </trkpt>
      <trkpt lat="47.84903" lon="6.933">
        <ele>1180.3</ele>
        <time>2026-08-27T07:51:40.168Z</time>
      </trkpt>
      <trkpt lat="47.84904" lon="6.93302">
        <ele>1180.4</ele>
        <time>2026-08-27T07:51:41.175Z</time>
      </trkpt>
      <trkpt lat="47.84904" lon="6.93305">
        <ele>1180.4</ele>
        <time>2026-08-27T07:51:42.999Z</time>
      </trkpt>
      <trkpt lat="47.84904" lon="6.93306">
        <ele>1180.6</ele>
        <time>2026-08-27T07:51:44.098Z</time>
      </trkpt>
      <trkpt lat="47.84904" lon="6.93307">
        <ele>1180.7</ele>
        <time>2026-08-27T07:51:45.106Z</time>
      </trkpt>
      <trkpt lat="47.84905" lon="6.93308">
        <ele>1180.7</ele>
        <time>2026-08-27T07:51:46.115Z</time>
      </trkpt>
      <trkpt lat="47.84905" lon="6.9331">
        <ele>1180.7</ele>
        <time>2026-08-27T07:51:47.122Z</time>
      </trkpt>
      <trkpt lat="47.84905" lon="6.93311">
        <ele>1180.8</ele>
        <time>2026-08-27T07:51:48.130Z</time>
      </trkpt>
      <trkpt lat="47.84905" lon="6.93313">
        <ele>1181</ele>
        <time>2026-08-27T07:51:49.180Z</time>
      </trkpt>
      <trkpt lat="47.84906" lon="6.93315">
        <ele>1180.5</ele>
        <time>2026-08-27T07:51:51.154Z</time>
      </trkpt>
      <trkpt lat="47.84907" lon="6.93316">
        <ele>1180.4</ele>
        <time>2026-08-27T07:51:52.162Z</time>
      </trkpt>
      <trkpt lat="47.84907" lon="6.93318">
        <ele>1181.1</ele>
        <time>2026-08-27T07:51:53.170Z</time>
      </trkpt>
      <trkpt lat="47.84908" lon="6.93319">
        <ele>1181.1</ele>
        <time>2026-08-27T07:51:54.179Z</time>
      </trkpt>
      <trkpt lat="47.84908" lon="6.93321">
        <ele>1180.8</ele>
        <time>2026-08-27T07:51:56.085Z</time>
      </trkpt>
      <trkpt lat="47.84908" lon="6.93323">
        <ele>1181.3</ele>
        <time>2026-08-27T07:51:57.202Z</time>
      </trkpt>
      <trkpt lat="47.84908" lon="6.93325">
        <ele>1181.2</ele>
        <time>2026-08-27T07:51:59.118Z</time>
      </trkpt>
      <trkpt lat="47.84909" lon="6.93327">
        <ele>1181.5</ele>
        <time>2026-08-27T07:52:00.125Z</time>
      </trkpt>
      <trkpt lat="47.84909" lon="6.93328">
        <ele>1181.4</ele>
        <time>2026-08-27T07:52:01.133Z</time>
      </trkpt>
      <trkpt lat="47.84909" lon="6.9333">
        <ele>1181.5</ele>
        <time>2026-08-27T07:52:02.141Z</time>
      </trkpt>
      <trkpt lat="47.84909" lon="6.93331">
        <ele>1181.6</ele>
        <time>2026-08-27T07:52:03.224Z</time>
      </trkpt>
      <trkpt lat="47.84909" lon="6.93333">
        <ele>1181.2</ele>
        <time>2026-08-27T07:52:05.165Z</time>
      </trkpt>
      <trkpt lat="47.84908" lon="6.93334">
        <ele>1181.8</ele>
        <time>2026-08-27T07:52:06.173Z</time>
      </trkpt>
      <trkpt lat="47.84909" lon="6.93336">
        <ele>1182.1</ele>
        <time>2026-08-27T07:52:08.089Z</time>
      </trkpt>
      <trkpt lat="47.84909" lon="6.93337">
        <ele>1182.1</ele>
        <time>2026-08-27T07:52:09.122Z</time>
      </trkpt>
      <trkpt lat="47.8491" lon="6.93339">
        <ele>1182.4</ele>
        <time>2026-08-27T07:52:11.112Z</time>
      </trkpt>
      <trkpt lat="47.84911" lon="6.93339">
        <ele>1182.4</ele>
        <time>2026-08-27T07:52:12.120Z</time>
      </trkpt>
      <trkpt lat="47.84912" lon="6.93341">
        <ele>1182.5</ele>
        <time>2026-08-27T07:52:13.965Z</time>
      </trkpt>
      <trkpt lat="47.84912" lon="6.93342">
        <ele>1182.2</ele>
        <time>2026-08-27T07:52:15.059Z</time>
      </trkpt>
      <trkpt lat="47.84913" lon="6.93342">
        <ele>1182.5</ele>
        <time>2026-08-27T07:52:16.168Z</time>
      </trkpt>
      <trkpt lat="47.84913" lon="6.93344">
        <ele>1182.3</ele>
        <time>2026-08-27T07:52:17.176Z</time>
      </trkpt>
      <trkpt lat="47.84913" lon="6.93345">
        <ele>1182.6</ele>
        <time>2026-08-27T07:52:18.184Z</time>
      </trkpt>
      <trkpt lat="47.84914" lon="6.93346">
        <ele>1182.4</ele>
        <time>2026-08-27T07:52:19.192Z</time>
      </trkpt>
      <trkpt lat="47.84913" lon="6.93348">
        <ele>1182.2</ele>
        <time>2026-08-27T07:52:21.200Z</time>
      </trkpt>
      <trkpt lat="47.84913" lon="6.93349">
        <ele>1182.5</ele>
        <time>2026-08-27T07:52:23.124Z</time>
      </trkpt>
      <trkpt lat="47.84913" lon="6.9335">
        <ele>1183</ele>
        <time>2026-08-27T07:52:24.198Z</time>
      </trkpt>
      <trkpt lat="47.84913" lon="6.93352">
        <ele>1183.1</ele>
        <time>2026-08-27T07:52:26.147Z</time>
      </trkpt>
      <trkpt lat="47.84914" lon="6.93353">
        <ele>1182.9</ele>
        <time>2026-08-27T07:52:27.155Z</time>
      </trkpt>
      <trkpt lat="47.84914" lon="6.93354">
        <ele>1182.9</ele>
        <time>2026-08-27T07:52:28.164Z</time>
      </trkpt>
      <trkpt lat="47.84914" lon="6.93355">
        <ele>1183</ele>
        <time>2026-08-27T07:52:29.171Z</time>
      </trkpt>
      <trkpt lat="47.84914" lon="6.93358">
        <ele>1183.6</ele>
        <time>2026-08-27T07:52:31.086Z</time>
      </trkpt>
      <trkpt lat="47.84915" lon="6.9336">
        <ele>1183.7</ele>
        <time>2026-08-27T07:52:32.094Z</time>
      </trkpt>
      <trkpt lat="47.84915" lon="6.93361">
        <ele>1183.4</ele>
        <time>2026-08-27T07:52:33.102Z</time>
      </trkpt>
      <trkpt lat="47.84916" lon="6.93362">
        <ele>1183.3</ele>
        <time>2026-08-27T07:52:34.110Z</time>
      </trkpt>
      <trkpt lat="47.84916" lon="6.93365">
        <ele>1183.7</ele>
        <time>2026-08-27T07:52:36.127Z</time>
      </trkpt>
      <trkpt lat="47.84916" lon="6.93367">
        <ele>1183.6</ele>
        <time>2026-08-27T07:52:37.135Z</time>
      </trkpt>
      <trkpt lat="47.84917" lon="6.93369">
        <ele>1184.1</ele>
        <time>2026-08-27T07:52:38.142Z</time>
      </trkpt>
      <trkpt lat="47.84917" lon="6.9337">
        <ele>1184.1</ele>
        <time>2026-08-27T07:52:39.150Z</time>
      </trkpt>
      <trkpt lat="47.84918" lon="6.93372">
        <ele>1183.9</ele>
        <time>2026-08-27T07:52:41.065Z</time>
      </trkpt>
      <trkpt lat="47.84918" lon="6.93372">
        <ele>1183.9</ele>
        <time>2026-08-27T07:52:42.081Z</time>
      </trkpt>
      <trkpt lat="47.84918" lon="6.93373">
        <ele>1183.8</ele>
        <time>2026-08-27T07:52:43.081Z</time>
      </trkpt>
      <trkpt lat="47.84919" lon="6.93373">
        <ele>1183.6</ele>
        <time>2026-08-27T07:52:44.089Z</time>
      </trkpt>
      <trkpt lat="47.84919" lon="6.93374">
        <ele>1183.9</ele>
        <time>2026-08-27T07:52:45.098Z</time>
      </trkpt>
      <trkpt lat="47.84919" lon="6.93376">
        <ele>1184</ele>
        <time>2026-08-27T07:52:47.214Z</time>
      </trkpt>
      <trkpt lat="47.8492" lon="6.93378">
        <ele>1183.5</ele>
        <time>2026-08-27T07:52:49.129Z</time>
      </trkpt>
      <trkpt lat="47.8492" lon="6.93379">
        <ele>1183.5</ele>
        <time>2026-08-27T07:52:50.138Z</time>
      </trkpt>
      <trkpt lat="47.84919" lon="6.9338">
        <ele>1184.1</ele>
        <time>2026-08-27T07:52:51.145Z</time>
      </trkpt>
      <trkpt lat="47.84919" lon="6.93381">
        <ele>1183.9</ele>
        <time>2026-08-27T07:52:52.154Z</time>
      </trkpt>
      <trkpt lat="47.84918" lon="6.93382">
        <ele>1184.5</ele>
        <time>2026-08-27T07:52:54.169Z</time>
      </trkpt>
      <trkpt lat="47.84918" lon="6.93382">
        <ele>1184.4</ele>
        <time>2026-08-27T07:52:55.177Z</time>
      </trkpt>
      <trkpt lat="47.84918" lon="6.93383">
        <ele>1184.3</ele>
        <time>2026-08-27T07:52:56.186Z</time>
      </trkpt>
      <trkpt lat="47.84918" lon="6.93384">
        <ele>1184.3</ele>
        <time>2026-08-27T07:52:58.100Z</time>
      </trkpt>
      <trkpt lat="47.84919" lon="6.93388">
        <ele>1185</ele>
        <time>2026-08-27T07:53:00.117Z</time>
      </trkpt>
      <trkpt lat="47.84919" lon="6.93392">
        <ele>1184.6</ele>
        <time>2026-08-27T07:53:02.133Z</time>
      </trkpt>
      <trkpt lat="47.84919" lon="6.93394">
        <ele>1184.7</ele>
        <time>2026-08-27T07:53:03.141Z</time>
      </trkpt>
      <trkpt lat="47.8492" lon="6.93395">
        <ele>1184.8</ele>
        <time>2026-08-27T07:53:04.148Z</time>
      </trkpt>
      <trkpt lat="47.8492" lon="6.93396">
        <ele>1184.7</ele>
        <time>2026-08-27T07:53:05.156Z</time>
      </trkpt>
      <trkpt lat="47.8492" lon="6.93399">
        <ele>1184.8</ele>
        <time>2026-08-27T07:53:07.171Z</time>
      </trkpt>
      <trkpt lat="47.8492" lon="6.93402">
        <ele>1184.8</ele>
        <time>2026-08-27T07:53:09.003Z</time>
      </trkpt>
      <trkpt lat="47.84921" lon="6.93403">
        <ele>1184.8</ele>
        <time>2026-08-27T07:53:10.095Z</time>
      </trkpt>
      <trkpt lat="47.84921" lon="6.93405">
        <ele>1184.4</ele>
        <time>2026-08-27T07:53:12.111Z</time>
      </trkpt>
      <trkpt lat="47.84921" lon="6.93406">
        <ele>1184.8</ele>
        <time>2026-08-27T07:53:13.119Z</time>
      </trkpt>
      <trkpt lat="47.84921" lon="6.93407">
        <ele>1184.4</ele>
        <time>2026-08-27T07:53:14.127Z</time>
      </trkpt>
      <trkpt lat="47.84921" lon="6.93409">
        <ele>1184.4</ele>
        <time>2026-08-27T07:53:15.134Z</time>
      </trkpt>
      <trkpt lat="47.84921" lon="6.93409">
        <ele>1184.4</ele>
        <time>2026-08-27T07:53:16.159Z</time>
      </trkpt>
      <trkpt lat="47.84921" lon="6.93411">
        <ele>1184.1</ele>
        <time>2026-08-27T07:53:18.159Z</time>
      </trkpt>
      <trkpt lat="47.84922" lon="6.93415">
        <ele>1184.5</ele>
        <time>2026-08-27T07:53:20.174Z</time>
      </trkpt>
      <trkpt lat="47.84924" lon="6.93418">
        <ele>1184.2</ele>
        <time>2026-08-27T07:53:22.140Z</time>
      </trkpt>
      <trkpt lat="47.84924" lon="6.93421">
        <ele>1184.3</ele>
        <time>2026-08-27T07:53:24.105Z</time>
      </trkpt>
      <trkpt lat="47.84924" lon="6.93423">
        <ele>1184.3</ele>
        <time>2026-08-27T07:53:25.113Z</time>
      </trkpt>
      <trkpt lat="47.84924" lon="6.93424">
        <ele>1184</ele>
        <time>2026-08-27T07:53:26.122Z</time>
      </trkpt>
      <trkpt lat="47.84924" lon="6.93426">
        <ele>1184.7</ele>
        <time>2026-08-27T07:53:27.180Z</time>
      </trkpt>
      <trkpt lat="47.84925" lon="6.93428">
        <ele>1184.3</ele>
        <time>2026-08-27T07:53:29.145Z</time>
      </trkpt>
      <trkpt lat="47.84926" lon="6.9343">
        <ele>1184.2</ele>
        <time>2026-08-27T07:53:30.153Z</time>
      </trkpt>
      <trkpt lat="47.84926" lon="6.93431">
        <ele>1183.9</ele>
        <time>2026-08-27T07:53:31.161Z</time>
      </trkpt>
      <trkpt lat="47.84928" lon="6.93434">
        <ele>1184</ele>
        <time>2026-08-27T07:53:33.102Z</time>
      </trkpt>
      <trkpt lat="47.84928" lon="6.93438">
        <ele>1183.6</ele>
        <time>2026-08-27T07:53:35.092Z</time>
      </trkpt>
      <trkpt lat="47.84929" lon="6.93439">
        <ele>1183.8</ele>
        <time>2026-08-27T07:53:36.101Z</time>
      </trkpt>
      <trkpt lat="47.84929" lon="6.93441">
        <ele>1183.7</ele>
        <time>2026-08-27T07:53:37.108Z</time>
      </trkpt>
      <trkpt lat="47.84929" lon="6.93442">
        <ele>1183.7</ele>
        <time>2026-08-27T07:53:38.125Z</time>
      </trkpt>
      <trkpt lat="47.8493" lon="6.93444">
        <ele>1183.4</ele>
        <time>2026-08-27T07:53:40.132Z</time>
      </trkpt>
      <trkpt lat="47.84931" lon="6.93444">
        <ele>1183.3</ele>
        <time>2026-08-27T07:53:41.140Z</time>
      </trkpt>
      <trkpt lat="47.84932" lon="6.93445">
        <ele>1183.3</ele>
        <time>2026-08-27T07:53:42.148Z</time>
      </trkpt>
      <trkpt lat="47.84932" lon="6.93446">
        <ele>1183</ele>
        <time>2026-08-27T07:53:43.156Z</time>
      </trkpt>
      <trkpt lat="47.84933" lon="6.93448">
        <ele>1183.1</ele>
        <time>2026-08-27T07:53:45.071Z</time>
      </trkpt>
      <trkpt lat="47.84933" lon="6.93451">
        <ele>1182.7</ele>
        <time>2026-08-27T07:53:47.087Z</time>
      </trkpt>
      <trkpt lat="47.84933" lon="6.93452">
        <ele>1183.1</ele>
        <time>2026-08-27T07:53:48.095Z</time>
      </trkpt>
      <trkpt lat="47.84933" lon="6.93454">
        <ele>1183.2</ele>
        <time>2026-08-27T07:53:49.103Z</time>
      </trkpt>
      <trkpt lat="47.84932" lon="6.93456">
        <ele>1183.1</ele>
        <time>2026-08-27T07:53:50.112Z</time>
      </trkpt>
      <trkpt lat="47.84933" lon="6.93457">
        <ele>1182.9</ele>
        <time>2026-08-27T07:53:51.119Z</time>
      </trkpt>
      <trkpt lat="47.84934" lon="6.93458">
        <ele>1183.2</ele>
        <time>2026-08-27T07:53:52.127Z</time>
      </trkpt>
      <trkpt lat="47.84935" lon="6.9346">
        <ele>1183</ele>
        <time>2026-08-27T07:53:53.135Z</time>
      </trkpt>
      <trkpt lat="47.84936" lon="6.9346">
        <ele>1183</ele>
        <time>2026-08-27T07:53:54.143Z</time>
      </trkpt>
      <trkpt lat="47.84936" lon="6.93461">
        <ele>1183.2</ele>
        <time>2026-08-27T07:53:55.152Z</time>
      </trkpt>
      <trkpt lat="47.84936" lon="6.9346">
        <ele>1182.9</ele>
        <time>2026-08-27T07:53:57.066Z</time>
      </trkpt>
      <trkpt lat="47.84936" lon="6.9346">
        <ele>1182.9</ele>
        <time>2026-08-27T07:53:58.074Z</time>
      </trkpt>
      <trkpt lat="47.84936" lon="6.9346">
        <ele>1182.9</ele>
        <time>2026-08-27T07:53:59.083Z</time>
      </trkpt>
      <trkpt lat="47.84936" lon="6.9346">
        <ele>1182.6</ele>
        <time>2026-08-27T07:54:00.090Z</time>
      </trkpt>
      <trkpt lat="47.84936" lon="6.9346">
        <ele>1182.6</ele>
        <time>2026-08-27T07:54:01.098Z</time>
      </trkpt>
      <trkpt lat="47.84936" lon="6.93461">
        <ele>1182.6</ele>
        <time>2026-08-27T07:54:02.148Z</time>
      </trkpt>
      <trkpt lat="47.84937" lon="6.93462">
        <ele>1182.6</ele>
        <time>2026-08-27T07:54:04.105Z</time>
      </trkpt>
      <trkpt lat="47.84937" lon="6.93464">
        <ele>1182.6</ele>
        <time>2026-08-27T07:54:05.130Z</time>
      </trkpt>
      <trkpt lat="47.84937" lon="6.93465">
        <ele>1182.6</ele>
        <time>2026-08-27T07:54:06.139Z</time>
      </trkpt>
      <trkpt lat="47.84938" lon="6.93466">
        <ele>1182.5</ele>
        <time>2026-08-27T07:54:07.146Z</time>
      </trkpt>
      <trkpt lat="47.84938" lon="6.93468">
        <ele>1182.5</ele>
        <time>2026-08-27T07:54:08.154Z</time>
      </trkpt>
      <trkpt lat="47.84939" lon="6.93469">
        <ele>1182.4</ele>
        <time>2026-08-27T07:54:10.070Z</time>
      </trkpt>
      <trkpt lat="47.84939" lon="6.9347">
        <ele>1182.4</ele>
        <time>2026-08-27T07:54:11.103Z</time>
      </trkpt>
      <trkpt lat="47.84941" lon="6.93472">
        <ele>1182.2</ele>
        <time>2026-08-27T07:54:13.094Z</time>
      </trkpt>
      <trkpt lat="47.84941" lon="6.93473">
        <ele>1182.2</ele>
        <time>2026-08-27T07:54:14.102Z</time>
      </trkpt>
      <trkpt lat="47.84942" lon="6.93474">
        <ele>1181.8</ele>
        <time>2026-08-27T07:54:15.111Z</time>
      </trkpt>
      <trkpt lat="47.84942" lon="6.93475">
        <ele>1181.9</ele>
        <time>2026-08-27T07:54:16.119Z</time>
      </trkpt>
      <trkpt lat="47.84942" lon="6.93476">
        <ele>1181.9</ele>
        <time>2026-08-27T07:54:17.126Z</time>
      </trkpt>
      <trkpt lat="47.84943" lon="6.93477">
        <ele>1182.1</ele>
        <time>2026-08-27T07:54:18.134Z</time>
      </trkpt>
      <trkpt lat="47.84943" lon="6.93479">
        <ele>1181.9</ele>
        <time>2026-08-27T07:54:19.142Z</time>
      </trkpt>
      <trkpt lat="47.84944" lon="6.93484">
        <ele>1181.8</ele>
        <time>2026-08-27T07:54:21.158Z</time>
      </trkpt>
      <trkpt lat="47.84944" lon="6.93486">
        <ele>1182</ele>
        <time>2026-08-27T07:54:22.166Z</time>
      </trkpt>
      <trkpt lat="47.84944" lon="6.93489">
        <ele>1181.9</ele>
        <time>2026-08-27T07:54:23.174Z</time>
      </trkpt>
      <trkpt lat="47.84946" lon="6.93493">
        <ele>1181.8</ele>
        <time>2026-08-27T07:54:25.148Z</time>
      </trkpt>
      <trkpt lat="47.84948" lon="6.93495">
        <ele>1181.3</ele>
        <time>2026-08-27T07:54:27.105Z</time>
      </trkpt>
      <trkpt lat="47.84949" lon="6.93496">
        <ele>1181.2</ele>
        <time>2026-08-27T07:54:28.113Z</time>
      </trkpt>
      <trkpt lat="47.84949" lon="6.93498">
        <ele>1181.1</ele>
        <time>2026-08-27T07:54:29.123Z</time>
      </trkpt>
      <trkpt lat="47.8495" lon="6.93499">
        <ele>1181.2</ele>
        <time>2026-08-27T07:54:30.130Z</time>
      </trkpt>
      <trkpt lat="47.8495" lon="6.935">
        <ele>1181.3</ele>
        <time>2026-08-27T07:54:31.139Z</time>
      </trkpt>
      <trkpt lat="47.8495" lon="6.93502">
        <ele>1181.4</ele>
        <time>2026-08-27T07:54:32.146Z</time>
      </trkpt>
      <trkpt lat="47.8495" lon="6.93503">
        <ele>1181.3</ele>
        <time>2026-08-27T07:54:33.154Z</time>
      </trkpt>
      <trkpt lat="47.84951" lon="6.93504">
        <ele>1181.7</ele>
        <time>2026-08-27T07:54:34.162Z</time>
      </trkpt>
      <trkpt lat="47.84951" lon="6.93506">
        <ele>1181.8</ele>
        <time>2026-08-27T07:54:35.170Z</time>
      </trkpt>
      <trkpt lat="47.84952" lon="6.93507">
        <ele>1181.8</ele>
        <time>2026-08-27T07:54:36.178Z</time>
      </trkpt>
      <trkpt lat="47.84952" lon="6.93509">
        <ele>1182.1</ele>
        <time>2026-08-27T07:54:37.187Z</time>
      </trkpt>
      <trkpt lat="47.84953" lon="6.93511">
        <ele>1182.5</ele>
        <time>2026-08-27T07:54:39.067Z</time>
      </trkpt>
      <trkpt lat="47.84953" lon="6.93511">
        <ele>1182.9</ele>
        <time>2026-08-27T07:54:40.210Z</time>
      </trkpt>
      <trkpt lat="47.84955" lon="6.93512">
        <ele>1183.3</ele>
        <time>2026-08-27T07:54:42.126Z</time>
      </trkpt>
      <trkpt lat="47.84955" lon="6.93512">
        <ele>1183.7</ele>
        <time>2026-08-27T07:54:43.133Z</time>
      </trkpt>
      <trkpt lat="47.84956" lon="6.93513">
        <ele>1183.6</ele>
        <time>2026-08-27T07:54:44.141Z</time>
      </trkpt>
      <trkpt lat="47.84957" lon="6.93513">
        <ele>1183.7</ele>
        <time>2026-08-27T07:54:45.149Z</time>
      </trkpt>
      <trkpt lat="47.84957" lon="6.93514">
        <ele>1183.9</ele>
        <time>2026-08-27T07:54:46.157Z</time>
      </trkpt>
      <trkpt lat="47.84958" lon="6.93514">
        <ele>1184.5</ele>
        <time>2026-08-27T07:54:48.173Z</time>
      </trkpt>
      <trkpt lat="47.84959" lon="6.93514">
        <ele>1184.8</ele>
        <time>2026-08-27T07:54:49.182Z</time>
      </trkpt>
      <trkpt lat="47.8496" lon="6.93516">
        <ele>1185</ele>
        <time>2026-08-27T07:54:51.096Z</time>
      </trkpt>
      <trkpt lat="47.8496" lon="6.93517">
        <ele>1185.1</ele>
        <time>2026-08-27T07:54:52.104Z</time>
      </trkpt>
      <trkpt lat="47.8496" lon="6.93519">
        <ele>1184.9</ele>
        <time>2026-08-27T07:54:53.113Z</time>
      </trkpt>
      <trkpt lat="47.8496" lon="6.9352">
        <ele>1185.1</ele>
        <time>2026-08-27T07:54:54.121Z</time>
      </trkpt>
      <trkpt lat="47.84961" lon="6.93521">
        <ele>1184.8</ele>
        <time>2026-08-27T07:54:55.128Z</time>
      </trkpt>
      <trkpt lat="47.84961" lon="6.93521">
        <ele>1185</ele>
        <time>2026-08-27T07:54:56.137Z</time>
      </trkpt>
      <trkpt lat="47.84961" lon="6.93522">
        <ele>1185</ele>
        <time>2026-08-27T07:54:57.145Z</time>
      </trkpt>
      <trkpt lat="47.84961" lon="6.93523">
        <ele>1185</ele>
        <time>2026-08-27T07:54:58.152Z</time>
      </trkpt>
      <trkpt lat="47.84961" lon="6.93524">
        <ele>1185.3</ele>
        <time>2026-08-27T07:54:59.161Z</time>
      </trkpt>
      <trkpt lat="47.84962" lon="6.93524">
        <ele>1185.6</ele>
        <time>2026-08-27T07:55:00.168Z</time>
      </trkpt>
      <trkpt lat="47.84963" lon="6.93525">
        <ele>1185.6</ele>
        <time>2026-08-27T07:55:01.177Z</time>
      </trkpt>
      <trkpt lat="47.84964" lon="6.93527">
        <ele>1185.6</ele>
        <time>2026-08-27T07:55:03.125Z</time>
      </trkpt>
      <trkpt lat="47.84966" lon="6.93529">
        <ele>1186.3</ele>
        <time>2026-08-27T07:55:05.108Z</time>
      </trkpt>
      <trkpt lat="47.84966" lon="6.9353">
        <ele>1186.2</ele>
        <time>2026-08-27T07:55:06.116Z</time>
      </trkpt>
      <trkpt lat="47.84967" lon="6.93531">
        <ele>1186.2</ele>
        <time>2026-08-27T07:55:07.166Z</time>
      </trkpt>
      <trkpt lat="47.84967" lon="6.93533">
        <ele>1186.4</ele>
        <time>2026-08-27T07:55:09.089Z</time>
      </trkpt>
      <trkpt lat="47.84967" lon="6.93534">
        <ele>1186.3</ele>
        <time>2026-08-27T07:55:10.148Z</time>
      </trkpt>
      <trkpt lat="47.84969" lon="6.93537">
        <ele>1187</ele>
        <time>2026-08-27T07:55:12.164Z</time>
      </trkpt>
      <trkpt lat="47.84969" lon="6.93538">
        <ele>1187.1</ele>
        <time>2026-08-27T07:55:13.173Z</time>
      </trkpt>
      <trkpt lat="47.8497" lon="6.93539">
        <ele>1187</ele>
        <time>2026-08-27T07:55:14.180Z</time>
      </trkpt>
      <trkpt lat="47.8497" lon="6.93541">
        <ele>1187</ele>
        <time>2026-08-27T07:55:15.188Z</time>
      </trkpt>
      <trkpt lat="47.84971" lon="6.93544">
        <ele>1187.5</ele>
        <time>2026-08-27T07:55:17.103Z</time>
      </trkpt>
      <trkpt lat="47.8497" lon="6.93546">
        <ele>1187.5</ele>
        <time>2026-08-27T07:55:18.111Z</time>
      </trkpt>
      <trkpt lat="47.84971" lon="6.93548">
        <ele>1187.4</ele>
        <time>2026-08-27T07:55:19.119Z</time>
      </trkpt>
      <trkpt lat="47.84971" lon="6.9355">
        <ele>1187.5</ele>
        <time>2026-08-27T07:55:21.025Z</time>
      </trkpt>
      <trkpt lat="47.84971" lon="6.93551">
        <ele>1187.3</ele>
        <time>2026-08-27T07:55:22.144Z</time>
      </trkpt>
      <trkpt lat="47.84972" lon="6.93552">
        <ele>1187.1</ele>
        <time>2026-08-27T07:55:23.151Z</time>
      </trkpt>
      <trkpt lat="47.84973" lon="6.93553">
        <ele>1186.8</ele>
        <time>2026-08-27T07:55:24.159Z</time>
      </trkpt>
      <trkpt lat="47.84973" lon="6.93554">
        <ele>1187.1</ele>
        <time>2026-08-27T07:55:25.168Z</time>
      </trkpt>
      <trkpt lat="47.84974" lon="6.93555">
        <ele>1186.8</ele>
        <time>2026-08-27T07:55:26.175Z</time>
      </trkpt>
      <trkpt lat="47.84974" lon="6.93555">
        <ele>1186.6</ele>
        <time>2026-08-27T07:55:27.184Z</time>
      </trkpt>
      <trkpt lat="47.84974" lon="6.93557">
        <ele>1186.5</ele>
        <time>2026-08-27T07:55:29.148Z</time>
      </trkpt>
      <trkpt lat="47.84973" lon="6.93558">
        <ele>1186.3</ele>
        <time>2026-08-27T07:55:31.114Z</time>
      </trkpt>
      <trkpt lat="47.84973" lon="6.93558">
        <ele>1186.3</ele>
        <time>2026-08-27T07:55:32.123Z</time>
      </trkpt>
      <trkpt lat="47.84973" lon="6.93558">
        <ele>1186.4</ele>
        <time>2026-08-27T07:55:33.130Z</time>
      </trkpt>
      <trkpt lat="47.84973" lon="6.93558">
        <ele>1186.4</ele>
        <time>2026-08-27T07:55:34.138Z</time>
      </trkpt>
      <trkpt lat="47.84974" lon="6.93558">
        <ele>1186.4</ele>
        <time>2026-08-27T07:55:35.147Z</time>
      </trkpt>
      <trkpt lat="47.84974" lon="6.93558">
        <ele>1186.3</ele>
        <time>2026-08-27T07:55:36.154Z</time>
      </trkpt>
      <trkpt lat="47.84974" lon="6.93558">
        <ele>1186</ele>
        <time>2026-08-27T07:55:37.162Z</time>
      </trkpt>
      <trkpt lat="47.84974" lon="6.9356">
        <ele>1185.6</ele>
        <time>2026-08-27T07:55:39.178Z</time>
      </trkpt>
      <trkpt lat="47.84975" lon="6.93563">
        <ele>1186</ele>
        <time>2026-08-27T07:55:41.093Z</time>
      </trkpt>
      <trkpt lat="47.84976" lon="6.93565">
        <ele>1185.9</ele>
        <time>2026-08-27T07:55:42.101Z</time>
      </trkpt>
      <trkpt lat="47.84977" lon="6.93567">
        <ele>1185.8</ele>
        <time>2026-08-27T07:55:43.167Z</time>
      </trkpt>
      <trkpt lat="47.84979" lon="6.93571">
        <ele>1185.4</ele>
        <time>2026-08-27T07:55:45.126Z</time>
      </trkpt>
      <trkpt lat="47.8498" lon="6.93572">
        <ele>1185.5</ele>
        <time>2026-08-27T07:55:46.134Z</time>
      </trkpt>
      <trkpt lat="47.84981" lon="6.93573">
        <ele>1185.3</ele>
        <time>2026-08-27T07:55:47.141Z</time>
      </trkpt>
      <trkpt lat="47.84981" lon="6.93574">
        <ele>1185.1</ele>
        <time>2026-08-27T07:55:48.149Z</time>
      </trkpt>
      <trkpt lat="47.84983" lon="6.93576">
        <ele>1184.9</ele>
        <time>2026-08-27T07:55:50.165Z</time>
      </trkpt>
      <trkpt lat="47.84984" lon="6.93577">
        <ele>1184.4</ele>
        <time>2026-08-27T07:55:51.172Z</time>
      </trkpt>
      <trkpt lat="47.84984" lon="6.93579">
        <ele>1184.4</ele>
        <time>2026-08-27T07:55:52.189Z</time>
      </trkpt>
      <trkpt lat="47.84985" lon="6.93581">
        <ele>1183.8</ele>
        <time>2026-08-27T07:55:53.425Z</time>
      </trkpt>
      <trkpt lat="47.84985" lon="6.93583">
        <ele>1184</ele>
        <time>2026-08-27T07:55:54.769Z</time>
      </trkpt>
      <trkpt lat="47.84986" lon="6.93585">
        <ele>1183.8</ele>
        <time>2026-08-27T07:55:55.843Z</time>
      </trkpt>
      <trkpt lat="47.84986" lon="6.93587">
        <ele>1183.6</ele>
        <time>2026-08-27T07:55:57.087Z</time>
      </trkpt>
      <trkpt lat="47.84987" lon="6.93588">
        <ele>1183.5</ele>
        <time>2026-08-27T07:55:58.129Z</time>
      </trkpt>
      <trkpt lat="47.84988" lon="6.9359">
        <ele>1183.5</ele>
        <time>2026-08-27T07:55:59.137Z</time>
      </trkpt>
      <trkpt lat="47.84989" lon="6.93591">
        <ele>1183.4</ele>
        <time>2026-08-27T07:56:00.144Z</time>
      </trkpt>
      <trkpt lat="47.8499" lon="6.93594">
        <ele>1183.5</ele>
        <time>2026-08-27T07:56:02.144Z</time>
      </trkpt>
      <trkpt lat="47.84991" lon="6.93595">
        <ele>1183.6</ele>
        <time>2026-08-27T07:56:03.167Z</time>
      </trkpt>
      <trkpt lat="47.84992" lon="6.93596">
        <ele>1183.5</ele>
        <time>2026-08-27T07:56:04.175Z</time>
      </trkpt>
      <trkpt lat="47.84993" lon="6.93597">
        <ele>1183.2</ele>
        <time>2026-08-27T07:56:06.091Z</time>
      </trkpt>
      <trkpt lat="47.84994" lon="6.93599">
        <ele>1183.2</ele>
        <time>2026-08-27T07:56:07.149Z</time>
      </trkpt>
      <trkpt lat="47.84995" lon="6.93601">
        <ele>1183.7</ele>
        <time>2026-08-27T07:56:09.114Z</time>
      </trkpt>
      <trkpt lat="47.84996" lon="6.93602">
        <ele>1183.5</ele>
        <time>2026-08-27T07:56:10.123Z</time>
      </trkpt>
      <trkpt lat="47.84996" lon="6.93604">
        <ele>1183.5</ele>
        <time>2026-08-27T07:56:11.130Z</time>
      </trkpt>
      <trkpt lat="47.84997" lon="6.93605">
        <ele>1183.7</ele>
        <time>2026-08-27T07:56:12.139Z</time>
      </trkpt>
      <trkpt lat="47.84997" lon="6.93606">
        <ele>1183.8</ele>
        <time>2026-08-27T07:56:13.146Z</time>
      </trkpt>
      <trkpt lat="47.84997" lon="6.93607">
        <ele>1183.9</ele>
        <time>2026-08-27T07:56:14.154Z</time>
      </trkpt>
      <trkpt lat="47.84997" lon="6.93608">
        <ele>1184</ele>
        <time>2026-08-27T07:56:15.162Z</time>
      </trkpt>
      <trkpt lat="47.84998" lon="6.93609">
        <ele>1183.9</ele>
        <time>2026-08-27T07:56:16.170Z</time>
      </trkpt>
      <trkpt lat="47.84998" lon="6.9361">
        <ele>1184.3</ele>
        <time>2026-08-27T07:56:17.178Z</time>
      </trkpt>
      <trkpt lat="47.84999" lon="6.93611">
        <ele>1184.4</ele>
        <time>2026-08-27T07:56:18.203Z</time>
      </trkpt>
      <trkpt lat="47.85001" lon="6.93613">
        <ele>1184.4</ele>
        <time>2026-08-27T07:56:20.009Z</time>
      </trkpt>
      <trkpt lat="47.85002" lon="6.93614">
        <ele>1184</ele>
        <time>2026-08-27T07:56:21.110Z</time>
      </trkpt>
      <trkpt lat="47.85003" lon="6.93616">
        <ele>1184.1</ele>
        <time>2026-08-27T07:56:22.118Z</time>
      </trkpt>
      <trkpt lat="47.85003" lon="6.93617">
        <ele>1184.2</ele>
        <time>2026-08-27T07:56:23.125Z</time>
      </trkpt>
      <trkpt lat="47.85004" lon="6.93618">
        <ele>1183.9</ele>
        <time>2026-08-27T07:56:24.133Z</time>
      </trkpt>
      <trkpt lat="47.85004" lon="6.93621">
        <ele>1183.8</ele>
        <time>2026-08-27T07:56:26.150Z</time>
      </trkpt>
      <trkpt lat="47.85005" lon="6.93622">
        <ele>1183.8</ele>
        <time>2026-08-27T07:56:27.157Z</time>
      </trkpt>
      <trkpt lat="47.85005" lon="6.93623">
        <ele>1183.8</ele>
        <time>2026-08-27T07:56:28.165Z</time>
      </trkpt>
      <trkpt lat="47.85006" lon="6.93624">
        <ele>1183.5</ele>
        <time>2026-08-27T07:56:29.173Z</time>
      </trkpt>
      <trkpt lat="47.85007" lon="6.93626">
        <ele>1183.8</ele>
        <time>2026-08-27T07:56:31.088Z</time>
      </trkpt>
      <trkpt lat="47.85007" lon="6.93627">
        <ele>1183.9</ele>
        <time>2026-08-27T07:56:32.096Z</time>
      </trkpt>
      <trkpt lat="47.85008" lon="6.93628">
        <ele>1183.9</ele>
        <time>2026-08-27T07:56:33.104Z</time>
      </trkpt>
      <trkpt lat="47.85009" lon="6.93629">
        <ele>1183.8</ele>
        <time>2026-08-27T07:56:34.113Z</time>
      </trkpt>
      <trkpt lat="47.8501" lon="6.9363">
        <ele>1183.7</ele>
        <time>2026-08-27T07:56:35.120Z</time>
      </trkpt>
      <trkpt lat="47.85011" lon="6.93633">
        <ele>1183.9</ele>
        <time>2026-08-27T07:56:37.136Z</time>
      </trkpt>
      <trkpt lat="47.85011" lon="6.93635">
        <ele>1184</ele>
        <time>2026-08-27T07:56:38.145Z</time>
      </trkpt>
      <trkpt lat="47.85012" lon="6.93636">
        <ele>1183.7</ele>
        <time>2026-08-27T07:56:39.152Z</time>
      </trkpt>
      <trkpt lat="47.85013" lon="6.93639">
        <ele>1184</ele>
        <time>2026-08-27T07:56:41.169Z</time>
      </trkpt>
      <trkpt lat="47.85013" lon="6.93641">
        <ele>1183.8</ele>
        <time>2026-08-27T07:56:42.177Z</time>
      </trkpt>
      <trkpt lat="47.85013" lon="6.93642">
        <ele>1183.8</ele>
        <time>2026-08-27T07:56:43.184Z</time>
      </trkpt>
      <trkpt lat="47.85014" lon="6.93645">
        <ele>1183.8</ele>
        <time>2026-08-27T07:56:45.065Z</time>
      </trkpt>
      <trkpt lat="47.85014" lon="6.93646">
        <ele>1183.1</ele>
        <time>2026-08-27T07:56:46.107Z</time>
      </trkpt>
      <trkpt lat="47.85015" lon="6.93648">
        <ele>1183.1</ele>
        <time>2026-08-27T07:56:47.149Z</time>
      </trkpt>
      <trkpt lat="47.85016" lon="6.9365">
        <ele>1182.6</ele>
        <time>2026-08-27T07:56:49.131Z</time>
      </trkpt>
      <trkpt lat="47.85016" lon="6.93651">
        <ele>1182.7</ele>
        <time>2026-08-27T07:56:50.139Z</time>
      </trkpt>
      <trkpt lat="47.85017" lon="6.93652">
        <ele>1182.9</ele>
        <time>2026-08-27T07:56:51.148Z</time>
      </trkpt>
      <trkpt lat="47.85019" lon="6.93654">
        <ele>1182.7</ele>
        <time>2026-08-27T07:56:53.003Z</time>
      </trkpt>
      <trkpt lat="47.8502" lon="6.93655">
        <ele>1182.1</ele>
        <time>2026-08-27T07:56:54.171Z</time>
      </trkpt>
      <trkpt lat="47.8502" lon="6.93656">
        <ele>1182.2</ele>
        <time>2026-08-27T07:56:55.180Z</time>
      </trkpt>
      <trkpt lat="47.85021" lon="6.93658">
        <ele>1182.1</ele>
        <time>2026-08-27T07:56:56.188Z</time>
      </trkpt>
      <trkpt lat="47.85022" lon="6.93659">
        <ele>1182.2</ele>
        <time>2026-08-27T07:56:57.195Z</time>
      </trkpt>
      <trkpt lat="47.85023" lon="6.93661">
        <ele>1181.9</ele>
        <time>2026-08-27T07:56:59.068Z</time>
      </trkpt>
      <trkpt lat="47.85024" lon="6.93662">
        <ele>1181.7</ele>
        <time>2026-08-27T07:57:00.118Z</time>
      </trkpt>
      <trkpt lat="47.85024" lon="6.93664">
        <ele>1182</ele>
        <time>2026-08-27T07:57:01.126Z</time>
      </trkpt>
      <trkpt lat="47.85025" lon="6.93665">
        <ele>1182.1</ele>
        <time>2026-08-27T07:57:02.135Z</time>
      </trkpt>
      <trkpt lat="47.85025" lon="6.93666">
        <ele>1182.1</ele>
        <time>2026-08-27T07:57:03.143Z</time>
      </trkpt>
      <trkpt lat="47.85025" lon="6.93667">
        <ele>1181.8</ele>
        <time>2026-08-27T07:57:04.151Z</time>
      </trkpt>
      <trkpt lat="47.85026" lon="6.93669">
        <ele>1182.2</ele>
        <time>2026-08-27T07:57:05.158Z</time>
      </trkpt>
      <trkpt lat="47.85027" lon="6.93671">
        <ele>1182.2</ele>
        <time>2026-08-27T07:57:06.166Z</time>
      </trkpt>
      <trkpt lat="47.85028" lon="6.93673">
        <ele>1182.1</ele>
        <time>2026-08-27T07:57:08.081Z</time>
      </trkpt>
      <trkpt lat="47.85028" lon="6.93675">
        <ele>1182.1</ele>
        <time>2026-08-27T07:57:09.164Z</time>
      </trkpt>
      <trkpt lat="47.8503" lon="6.93677">
        <ele>1182.6</ele>
        <time>2026-08-27T07:57:11.105Z</time>
      </trkpt>
      <trkpt lat="47.85031" lon="6.9368">
        <ele>1182.8</ele>
        <time>2026-08-27T07:57:13.121Z</time>
      </trkpt>
      <trkpt lat="47.85033" lon="6.93682">
        <ele>1182.9</ele>
        <time>2026-08-27T07:57:15.137Z</time>
      </trkpt>
      <trkpt lat="47.85034" lon="6.93683">
        <ele>1182.9</ele>
        <time>2026-08-27T07:57:16.144Z</time>
      </trkpt>
      <trkpt lat="47.85035" lon="6.93684">
        <ele>1182.9</ele>
        <time>2026-08-27T07:57:17.186Z</time>
      </trkpt>
      <trkpt lat="47.85037" lon="6.93686">
        <ele>1182.4</ele>
        <time>2026-08-27T07:57:19.168Z</time>
      </trkpt>
      <trkpt lat="47.85038" lon="6.93687">
        <ele>1182.3</ele>
        <time>2026-08-27T07:57:21.083Z</time>
      </trkpt>
      <trkpt lat="47.85039" lon="6.93688">
        <ele>1182.3</ele>
        <time>2026-08-27T07:57:22.209Z</time>
      </trkpt>
      <trkpt lat="47.8504" lon="6.93691">
        <ele>1182</ele>
        <time>2026-08-27T07:57:23.469Z</time>
      </trkpt>
      <trkpt lat="47.85041" lon="6.93693">
        <ele>1182.3</ele>
        <time>2026-08-27T07:57:24.788Z</time>
      </trkpt>
      <trkpt lat="47.85042" lon="6.93694">
        <ele>1182.5</ele>
        <time>2026-08-27T07:57:26.123Z</time>
      </trkpt>
      <trkpt lat="47.85042" lon="6.93695">
        <ele>1182.3</ele>
        <time>2026-08-27T07:57:27.132Z</time>
      </trkpt>
      <trkpt lat="47.85042" lon="6.93696">
        <ele>1182.4</ele>
        <time>2026-08-27T07:57:28.140Z</time>
      </trkpt>
      <trkpt lat="47.85043" lon="6.93698">
        <ele>1182.9</ele>
        <time>2026-08-27T07:57:30.155Z</time>
      </trkpt>
      <trkpt lat="47.85044" lon="6.93699">
        <ele>1183.1</ele>
        <time>2026-08-27T07:57:32.171Z</time>
      </trkpt>
      <trkpt lat="47.85046" lon="6.93701">
        <ele>1183.3</ele>
        <time>2026-08-27T07:57:34.086Z</time>
      </trkpt>
      <trkpt lat="47.85046" lon="6.93702">
        <ele>1183.5</ele>
        <time>2026-08-27T07:57:35.095Z</time>
      </trkpt>
      <trkpt lat="47.85047" lon="6.93703">
        <ele>1183.9</ele>
        <time>2026-08-27T07:57:36.103Z</time>
      </trkpt>
      <trkpt lat="47.85048" lon="6.93704">
        <ele>1183.6</ele>
        <time>2026-08-27T07:57:37.111Z</time>
      </trkpt>
      <trkpt lat="47.85048" lon="6.93706">
        <ele>1184.1</ele>
        <time>2026-08-27T07:57:39.127Z</time>
      </trkpt>
      <trkpt lat="47.85049" lon="6.93707">
        <ele>1184.1</ele>
        <time>2026-08-27T07:57:40.127Z</time>
      </trkpt>
      <trkpt lat="47.85049" lon="6.93708">
        <ele>1184.1</ele>
        <time>2026-08-27T07:57:41.142Z</time>
      </trkpt>
      <trkpt lat="47.85049" lon="6.93709">
        <ele>1184.4</ele>
        <time>2026-08-27T07:57:42.150Z</time>
      </trkpt>
      <trkpt lat="47.8505" lon="6.93709">
        <ele>1184.3</ele>
        <time>2026-08-27T07:57:43.158Z</time>
      </trkpt>
      <trkpt lat="47.85051" lon="6.9371">
        <ele>1184.7</ele>
        <time>2026-08-27T07:57:44.166Z</time>
      </trkpt>
      <trkpt lat="47.85052" lon="6.93712">
        <ele>1184.6</ele>
        <time>2026-08-27T07:57:46.183Z</time>
      </trkpt>
      <trkpt lat="47.85053" lon="6.93714">
        <ele>1184.1</ele>
        <time>2026-08-27T07:57:48.097Z</time>
      </trkpt>
      <trkpt lat="47.85053" lon="6.93715">
        <ele>1184.3</ele>
        <time>2026-08-27T07:57:49.105Z</time>
      </trkpt>
      <trkpt lat="47.85054" lon="6.93717">
        <ele>1184.2</ele>
        <time>2026-08-27T07:57:50.114Z</time>
      </trkpt>
      <trkpt lat="47.85054" lon="6.93719">
        <ele>1184</ele>
        <time>2026-08-27T07:57:51.121Z</time>
      </trkpt>
      <trkpt lat="47.85055" lon="6.9372">
        <ele>1184.1</ele>
        <time>2026-08-27T07:57:52.129Z</time>
      </trkpt>
      <trkpt lat="47.85055" lon="6.93722">
        <ele>1184.2</ele>
        <time>2026-08-27T07:57:53.138Z</time>
      </trkpt>
      <trkpt lat="47.85055" lon="6.93724">
        <ele>1184.1</ele>
        <time>2026-08-27T07:57:54.153Z</time>
      </trkpt>
      <trkpt lat="47.85056" lon="6.93725">
        <ele>1184.3</ele>
        <time>2026-08-27T07:57:55.161Z</time>
      </trkpt>
      <trkpt lat="47.85056" lon="6.93727">
        <ele>1184.1</ele>
        <time>2026-08-27T07:57:56.170Z</time>
      </trkpt>
      <trkpt lat="47.85057" lon="6.93728">
        <ele>1184</ele>
        <time>2026-08-27T07:57:57.178Z</time>
      </trkpt>
      <trkpt lat="47.85058" lon="6.9373">
        <ele>1184.3</ele>
        <time>2026-08-27T07:57:59.092Z</time>
      </trkpt>
      <trkpt lat="47.8506" lon="6.93731">
        <ele>1184.4</ele>
        <time>2026-08-27T07:58:01.024Z</time>
      </trkpt>
      <trkpt lat="47.85061" lon="6.93732">
        <ele>1184.1</ele>
        <time>2026-08-27T07:58:02.117Z</time>
      </trkpt>
      <trkpt lat="47.85062" lon="6.93733">
        <ele>1184.4</ele>
        <time>2026-08-27T07:58:03.124Z</time>
      </trkpt>
      <trkpt lat="47.85063" lon="6.93734">
        <ele>1184.5</ele>
        <time>2026-08-27T07:58:04.132Z</time>
      </trkpt>
      <trkpt lat="47.85064" lon="6.93735">
        <ele>1184.7</ele>
        <time>2026-08-27T07:58:05.140Z</time>
      </trkpt>
      <trkpt lat="47.85064" lon="6.93736">
        <ele>1184.5</ele>
        <time>2026-08-27T07:58:06.149Z</time>
      </trkpt>
      <trkpt lat="47.85065" lon="6.93737">
        <ele>1184.8</ele>
        <time>2026-08-27T07:58:07.157Z</time>
      </trkpt>
      <trkpt lat="47.85065" lon="6.93738">
        <ele>1184.9</ele>
        <time>2026-08-27T07:58:08.164Z</time>
      </trkpt>
      <trkpt lat="47.85066" lon="6.93739">
        <ele>1185</ele>
        <time>2026-08-27T07:58:09.172Z</time>
      </trkpt>
      <trkpt lat="47.85067" lon="6.9374">
        <ele>1185</ele>
        <time>2026-08-27T07:58:10.986Z</time>
      </trkpt>
      <trkpt lat="47.85069" lon="6.93742">
        <ele>1184.9</ele>
        <time>2026-08-27T07:58:12.197Z</time>
      </trkpt>
      <trkpt lat="47.8507" lon="6.93743">
        <ele>1184.8</ele>
        <time>2026-08-27T07:58:14.086Z</time>
      </trkpt>
      <trkpt lat="47.85071" lon="6.93744">
        <ele>1185.1</ele>
        <time>2026-08-27T07:58:15.119Z</time>
      </trkpt>
      <trkpt lat="47.85072" lon="6.93746">
        <ele>1184.3</ele>
        <time>2026-08-27T07:58:16.127Z</time>
      </trkpt>
      <trkpt lat="47.85072" lon="6.93747">
        <ele>1184.5</ele>
        <time>2026-08-27T07:58:17.135Z</time>
      </trkpt>
      <trkpt lat="47.85073" lon="6.93748">
        <ele>1184.8</ele>
        <time>2026-08-27T07:58:18.144Z</time>
      </trkpt>
      <trkpt lat="47.85073" lon="6.93749">
        <ele>1184.6</ele>
        <time>2026-08-27T07:58:19.151Z</time>
      </trkpt>
      <trkpt lat="47.85073" lon="6.9375">
        <ele>1184.3</ele>
        <time>2026-08-27T07:58:20.159Z</time>
      </trkpt>
      <trkpt lat="47.85074" lon="6.93752">
        <ele>1184.7</ele>
        <time>2026-08-27T07:58:22.174Z</time>
      </trkpt>
      <trkpt lat="47.85074" lon="6.93756">
        <ele>1184.6</ele>
        <time>2026-08-27T07:58:24.081Z</time>
      </trkpt>
      <trkpt lat="47.85075" lon="6.93757">
        <ele>1184.5</ele>
        <time>2026-08-27T07:58:25.098Z</time>
      </trkpt>
      <trkpt lat="47.85076" lon="6.93759">
        <ele>1184.3</ele>
        <time>2026-08-27T07:58:26.106Z</time>
      </trkpt>
      <trkpt lat="47.85076" lon="6.93761">
        <ele>1184.2</ele>
        <time>2026-08-27T07:58:27.114Z</time>
      </trkpt>
      <trkpt lat="47.85077" lon="6.93762">
        <ele>1184.5</ele>
        <time>2026-08-27T07:58:28.121Z</time>
      </trkpt>
      <trkpt lat="47.85077" lon="6.93764">
        <ele>1184.5</ele>
        <time>2026-08-27T07:58:29.146Z</time>
      </trkpt>
      <trkpt lat="47.85078" lon="6.93767">
        <ele>1184.5</ele>
        <time>2026-08-27T07:58:31.179Z</time>
      </trkpt>
      <trkpt lat="47.85079" lon="6.9377">
        <ele>1184.8</ele>
        <time>2026-08-27T07:58:33.161Z</time>
      </trkpt>
      <trkpt lat="47.85081" lon="6.93773">
        <ele>1184.8</ele>
        <time>2026-08-27T07:58:35.177Z</time>
      </trkpt>
      <trkpt lat="47.85082" lon="6.93775">
        <ele>1185.3</ele>
        <time>2026-08-27T07:58:37.093Z</time>
      </trkpt>
      <trkpt lat="47.85083" lon="6.93776">
        <ele>1185.3</ele>
        <time>2026-08-27T07:58:38.100Z</time>
      </trkpt>
      <trkpt lat="47.85083" lon="6.93776">
        <ele>1185.3</ele>
        <time>2026-08-27T07:58:39.109Z</time>
      </trkpt>
      <trkpt lat="47.85084" lon="6.93777">
        <ele>1185.5</ele>
        <time>2026-08-27T07:58:40.116Z</time>
      </trkpt>
      <trkpt lat="47.85084" lon="6.93777">
        <ele>1185.3</ele>
        <time>2026-08-27T07:58:41.124Z</time>
      </trkpt>
      <trkpt lat="47.85085" lon="6.93778">
        <ele>1185.1</ele>
        <time>2026-08-27T07:58:42.133Z</time>
      </trkpt>
      <trkpt lat="47.85086" lon="6.93779">
        <ele>1185</ele>
        <time>2026-08-27T07:58:43.141Z</time>
      </trkpt>
      <trkpt lat="47.85087" lon="6.9378">
        <ele>1184.7</ele>
        <time>2026-08-27T07:58:44.148Z</time>
      </trkpt>
      <trkpt lat="47.85088" lon="6.93782">
        <ele>1185</ele>
        <time>2026-08-27T07:58:46.164Z</time>
      </trkpt>
      <trkpt lat="47.85088" lon="6.93785">
        <ele>1185.1</ele>
        <time>2026-08-27T07:58:48.181Z</time>
      </trkpt>
      <trkpt lat="47.85088" lon="6.93786">
        <ele>1185.1</ele>
        <time>2026-08-27T07:58:49.206Z</time>
      </trkpt>
      <trkpt lat="47.85088" lon="6.93786">
        <ele>1185.1</ele>
        <time>2026-08-27T07:58:50.540Z</time>
      </trkpt>
      <trkpt lat="47.85088" lon="6.93787">
        <ele>1185.4</ele>
        <time>2026-08-27T07:58:51.927Z</time>
      </trkpt>
      <trkpt lat="47.85089" lon="6.93789">
        <ele>1185.5</ele>
        <time>2026-08-27T07:58:54.127Z</time>
      </trkpt>
      <trkpt lat="47.85089" lon="6.9379">
        <ele>1185.6</ele>
        <time>2026-08-27T07:58:55.135Z</time>
      </trkpt>
      <trkpt lat="47.85089" lon="6.93791">
        <ele>1185.6</ele>
        <time>2026-08-27T07:58:56.143Z</time>
      </trkpt>
      <trkpt lat="47.85089" lon="6.93792">
        <ele>1185.6</ele>
        <time>2026-08-27T07:58:57.184Z</time>
      </trkpt>
      <trkpt lat="47.8509" lon="6.93794">
        <ele>1186</ele>
        <time>2026-08-27T07:58:59.167Z</time>
      </trkpt>
      <trkpt lat="47.8509" lon="6.93795">
        <ele>1186.1</ele>
        <time>2026-08-27T07:59:00.176Z</time>
      </trkpt>
      <trkpt lat="47.85091" lon="6.93797">
        <ele>1186.4</ele>
        <time>2026-08-27T07:59:01.183Z</time>
      </trkpt>
      <trkpt lat="47.85092" lon="6.93799">
        <ele>1186.4</ele>
        <time>2026-08-27T07:59:02.199Z</time>
      </trkpt>
      <trkpt lat="47.85092" lon="6.93801">
        <ele>1186.6</ele>
        <time>2026-08-27T07:59:03.585Z</time>
      </trkpt>
      <trkpt lat="47.85093" lon="6.93803">
        <ele>1186.4</ele>
        <time>2026-08-27T07:59:04.846Z</time>
      </trkpt>
      <trkpt lat="47.85094" lon="6.93806">
        <ele>1186.8</ele>
        <time>2026-08-27T07:59:07.004Z</time>
      </trkpt>
      <trkpt lat="47.85094" lon="6.93807">
        <ele>1186.9</ele>
        <time>2026-08-27T07:59:08.137Z</time>
      </trkpt>
      <trkpt lat="47.85095" lon="6.93808">
        <ele>1186.5</ele>
        <time>2026-08-27T07:59:09.145Z</time>
      </trkpt>
      <trkpt lat="47.85095" lon="6.93809">
        <ele>1187</ele>
        <time>2026-08-27T07:59:10.153Z</time>
      </trkpt>
      <trkpt lat="47.85095" lon="6.9381">
        <ele>1187</ele>
        <time>2026-08-27T07:59:11.186Z</time>
      </trkpt>
      <trkpt lat="47.85096" lon="6.93811">
        <ele>1186</ele>
        <time>2026-08-27T07:59:13.177Z</time>
      </trkpt>
      <trkpt lat="47.85096" lon="6.93812">
        <ele>1186</ele>
        <time>2026-08-27T07:59:14.185Z</time>
      </trkpt>
      <trkpt lat="47.85096" lon="6.93815">
        <ele>1186.5</ele>
        <time>2026-08-27T07:59:16.202Z</time>
      </trkpt>
      <trkpt lat="47.85096" lon="6.93817">
        <ele>1186.1</ele>
        <time>2026-08-27T07:59:18.117Z</time>
      </trkpt>
      <trkpt lat="47.85097" lon="6.93817">
        <ele>1186.1</ele>
        <time>2026-08-27T07:59:19.124Z</time>
      </trkpt>
      <trkpt lat="47.85097" lon="6.93817">
        <ele>1186.1</ele>
        <time>2026-08-27T07:59:20.140Z</time>
      </trkpt>
      <trkpt lat="47.85097" lon="6.93817">
        <ele>1186.1</ele>
        <time>2026-08-27T07:59:21.140Z</time>
      </trkpt>
      <trkpt lat="47.85098" lon="6.93818">
        <ele>1186.1</ele>
        <time>2026-08-27T07:59:22.140Z</time>
      </trkpt>
      <trkpt lat="47.85099" lon="6.93819">
        <ele>1186</ele>
        <time>2026-08-27T07:59:23.156Z</time>
      </trkpt>
      <trkpt lat="47.85099" lon="6.9382">
        <ele>1185.9</ele>
        <time>2026-08-27T07:59:24.164Z</time>
      </trkpt>
      <trkpt lat="47.85099" lon="6.9382">
        <ele>1185.7</ele>
        <time>2026-08-27T07:59:25.172Z</time>
      </trkpt>
      <trkpt lat="47.85099" lon="6.9382">
        <ele>1185.7</ele>
        <time>2026-08-27T07:59:26.180Z</time>
      </trkpt>
      <trkpt lat="47.85099" lon="6.9382">
        <ele>1185.9</ele>
        <time>2026-08-27T07:59:27.189Z</time>
      </trkpt>
      <trkpt lat="47.85099" lon="6.93819">
        <ele>1186.1</ele>
        <time>2026-08-27T07:59:29.103Z</time>
      </trkpt>
      <trkpt lat="47.85099" lon="6.93819">
        <ele>1186.4</ele>
        <time>2026-08-27T07:59:30.112Z</time>
      </trkpt>
      <trkpt lat="47.85099" lon="6.93819">
        <ele>1186.4</ele>
        <time>2026-08-27T07:59:31.119Z</time>
      </trkpt>
      <trkpt lat="47.85099" lon="6.93819">
        <ele>1186.4</ele>
        <time>2026-08-27T07:59:32.128Z</time>
      </trkpt>
      <trkpt lat="47.85099" lon="6.93818">
        <ele>1186.2</ele>
        <time>2026-08-27T07:59:33.135Z</time>
      </trkpt>
      <trkpt lat="47.85099" lon="6.93818">
        <ele>1186</ele>
        <time>2026-08-27T07:59:34.143Z</time>
      </trkpt>
      <trkpt lat="47.85099" lon="6.93818">
        <ele>1185.8</ele>
        <time>2026-08-27T07:59:35.151Z</time>
      </trkpt>
      <trkpt lat="47.85099" lon="6.93818">
        <ele>1186.5</ele>
        <time>2026-08-27T07:59:36.159Z</time>
      </trkpt>
      <trkpt lat="47.85099" lon="6.93818">
        <ele>1186.7</ele>
        <time>2026-08-27T07:59:37.168Z</time>
      </trkpt>
      <trkpt lat="47.85099" lon="6.93818">
        <ele>1186.2</ele>
        <time>2026-08-27T07:59:38.175Z</time>
      </trkpt>
      <trkpt lat="47.85099" lon="6.93818">
        <ele>1186.6</ele>
        <time>2026-08-27T07:59:39.182Z</time>
      </trkpt>
      <trkpt lat="47.85099" lon="6.93818">
        <ele>1186.3</ele>
        <time>2026-08-27T07:59:40.190Z</time>
      </trkpt>
      <trkpt lat="47.85099" lon="6.93817">
        <ele>1186</ele>
        <time>2026-08-27T07:59:41.198Z</time>
      </trkpt>
      <trkpt lat="47.85099" lon="6.93817">
        <ele>1185.7</ele>
        <time>2026-08-27T07:59:42.206Z</time>
      </trkpt>
      <trkpt lat="47.85099" lon="6.93816">
        <ele>1185.8</ele>
        <time>2026-08-27T07:59:44.122Z</time>
      </trkpt>
      <trkpt lat="47.85099" lon="6.93816">
        <ele>1186.4</ele>
        <time>2026-08-27T07:59:45.130Z</time>
      </trkpt>
      <trkpt lat="47.85099" lon="6.93815">
        <ele>1186.2</ele>
        <time>2026-08-27T07:59:46.137Z</time>
      </trkpt>
      <trkpt lat="47.85099" lon="6.93814">
        <ele>1186</ele>
        <time>2026-08-27T07:59:47.146Z</time>
      </trkpt>
      <trkpt lat="47.85099" lon="6.93814">
        <ele>1186</ele>
        <time>2026-08-27T07:59:48.153Z</time>
      </trkpt>
      <trkpt lat="47.85099" lon="6.93814">
        <ele>1186.2</ele>
        <time>2026-08-27T07:59:49.161Z</time>
      </trkpt>
      <trkpt lat="47.85099" lon="6.93813">
        <ele>1186.3</ele>
        <time>2026-08-27T07:59:50.169Z</time>
      </trkpt>
      <trkpt lat="47.85099" lon="6.93813">
        <ele>1186.1</ele>
        <time>2026-08-27T07:59:52.185Z</time>
      </trkpt>
      <trkpt lat="47.85099" lon="6.93813">
        <ele>1185.7</ele>
        <time>2026-08-27T07:59:54.100Z</time>
      </trkpt>
      <trkpt lat="47.85099" lon="6.93813">
        <ele>1186.1</ele>
        <time>2026-08-27T07:59:55.109Z</time>
      </trkpt>
      <trkpt lat="47.85099" lon="6.93813">
        <ele>1185.9</ele>
        <time>2026-08-27T07:59:56.116Z</time>
      </trkpt>
      <trkpt lat="47.85099" lon="6.93813">
        <ele>1185.9</ele>
        <time>2026-08-27T07:59:57.124Z</time>
      </trkpt>
      <trkpt lat="47.85099" lon="6.93813">
        <ele>1185.9</ele>
        <time>2026-08-27T07:59:58.133Z</time>
      </trkpt>
      <trkpt lat="47.85099" lon="6.93813">
        <ele>1186.1</ele>
        <time>2026-08-27T07:59:59.140Z</time>
      </trkpt>
      <trkpt lat="47.85099" lon="6.93813">
        <ele>1186.1</ele>
        <time>2026-08-27T08:00:00.148Z</time>
      </trkpt>
      <trkpt lat="47.85099" lon="6.93813">
        <ele>1186.1</ele>
        <time>2026-08-27T08:00:01.156Z</time>
      </trkpt>
      <trkpt lat="47.85099" lon="6.93813">
        <ele>1185.8</ele>
        <time>2026-08-27T08:00:02.164Z</time>
      </trkpt>
      <trkpt lat="47.85099" lon="6.93813">
        <ele>1185.7</ele>
        <time>2026-08-27T08:00:03.172Z</time>
      </trkpt>
      <trkpt lat="47.85099" lon="6.93813">
        <ele>1185.6</ele>
        <time>2026-08-27T08:00:04.181Z</time>
      </trkpt>
      <trkpt lat="47.85099" lon="6.93813">
        <ele>1186.4</ele>
        <time>2026-08-27T08:00:06.095Z</time>
      </trkpt>
      <trkpt lat="47.85099" lon="6.93812">
        <ele>1186.4</ele>
        <time>2026-08-27T08:00:08.213Z</time>
      </trkpt>
      <trkpt lat="47.85099" lon="6.93812">
        <ele>1186.1</ele>
        <time>2026-08-27T08:00:09.221Z</time>
      </trkpt>
      <trkpt lat="47.85099" lon="6.93812">
        <ele>1185.6</ele>
        <time>2026-08-27T08:00:11.135Z</time>
      </trkpt>
      <trkpt lat="47.85099" lon="6.93812">
        <ele>1185.7</ele>
        <time>2026-08-27T08:00:12.144Z</time>
      </trkpt>
      <trkpt lat="47.85099" lon="6.93812">
        <ele>1185.9</ele>
        <time>2026-08-27T08:00:13.151Z</time>
      </trkpt>
      <trkpt lat="47.85099" lon="6.93812">
        <ele>1186.3</ele>
        <time>2026-08-27T08:00:15.067Z</time>
      </trkpt>
      <trkpt lat="47.85099" lon="6.93812">
        <ele>1186.2</ele>
        <time>2026-08-27T08:00:16.074Z</time>
      </trkpt>
      <trkpt lat="47.85099" lon="6.93813">
        <ele>1186.5</ele>
        <time>2026-08-27T08:00:17.083Z</time>
      </trkpt>
      <trkpt lat="47.85099" lon="6.93813">
        <ele>1186.4</ele>
        <time>2026-08-27T08:00:18.090Z</time>
      </trkpt>
      <trkpt lat="47.85099" lon="6.93814">
        <ele>1186.6</ele>
        <time>2026-08-27T08:00:19.098Z</time>
      </trkpt>
      <trkpt lat="47.85099" lon="6.93814">
        <ele>1186.3</ele>
        <time>2026-08-27T08:00:21.215Z</time>
      </trkpt>
      <trkpt lat="47.851" lon="6.93816">
        <ele>1186.2</ele>
        <time>2026-08-27T08:00:23.131Z</time>
      </trkpt>
      <trkpt lat="47.851" lon="6.93816">
        <ele>1186.1</ele>
        <time>2026-08-27T08:00:24.138Z</time>
      </trkpt>
      <trkpt lat="47.851" lon="6.93816">
        <ele>1186.7</ele>
        <time>2026-08-27T08:00:25.145Z</time>
      </trkpt>
      <trkpt lat="47.851" lon="6.93816">
        <ele>1186.4</ele>
        <time>2026-08-27T08:00:26.153Z</time>
      </trkpt>
      <trkpt lat="47.851" lon="6.93816">
        <ele>1186.4</ele>
        <time>2026-08-27T08:00:27.161Z</time>
      </trkpt>
      <trkpt lat="47.851" lon="6.93816">
        <ele>1186.6</ele>
        <time>2026-08-27T08:00:28.170Z</time>
      </trkpt>
      <trkpt lat="47.851" lon="6.93817">
        <ele>1186.6</ele>
        <time>2026-08-27T08:00:29.178Z</time>
      </trkpt>
      <trkpt lat="47.851" lon="6.93817">
        <ele>1186.6</ele>
        <time>2026-08-27T08:00:30.186Z</time>
      </trkpt>
      <trkpt lat="47.851" lon="6.93817">
        <ele>1186.4</ele>
        <time>2026-08-27T08:00:31.194Z</time>
      </trkpt>
      <trkpt lat="47.851" lon="6.93817">
        <ele>1186.2</ele>
        <time>2026-08-27T08:00:32.202Z</time>
      </trkpt>
      <trkpt lat="47.851" lon="6.93817">
        <ele>1186.7</ele>
        <time>2026-08-27T08:00:34.117Z</time>
      </trkpt>
      <trkpt lat="47.851" lon="6.93817">
        <ele>1186.9</ele>
        <time>2026-08-27T08:00:35.125Z</time>
      </trkpt>
      <trkpt lat="47.851" lon="6.93817">
        <ele>1186.5</ele>
        <time>2026-08-27T08:00:36.133Z</time>
      </trkpt>
      <trkpt lat="47.851" lon="6.93817">
        <ele>1187</ele>
        <time>2026-08-27T08:00:37.142Z</time>
      </trkpt>
      <trkpt lat="47.851" lon="6.93817">
        <ele>1186.6</ele>
        <time>2026-08-27T08:00:38.149Z</time>
      </trkpt>
      <trkpt lat="47.851" lon="6.93817">
        <ele>1186.3</ele>
        <time>2026-08-27T08:00:39.158Z</time>
      </trkpt>
      <trkpt lat="47.851" lon="6.93817">
        <ele>1186.1</ele>
        <time>2026-08-27T08:00:40.165Z</time>
      </trkpt>
      <trkpt lat="47.851" lon="6.93817">
        <ele>1186.3</ele>
        <time>2026-08-27T08:00:41.173Z</time>
      </trkpt>
      <trkpt lat="47.851" lon="6.93817">
        <ele>1186.3</ele>
        <time>2026-08-27T08:00:42.181Z</time>
      </trkpt>
      <trkpt lat="47.851" lon="6.93817">
        <ele>1186.7</ele>
        <time>2026-08-27T08:00:43.189Z</time>
      </trkpt>
      <trkpt lat="47.851" lon="6.93817">
        <ele>1186.3</ele>
        <time>2026-08-27T08:00:44.197Z</time>
      </trkpt>
      <trkpt lat="47.851" lon="6.93817">
        <ele>1186.3</ele>
        <time>2026-08-27T08:00:45.205Z</time>
      </trkpt>
      <trkpt lat="47.851" lon="6.93817">
        <ele>1186.4</ele>
        <time>2026-08-27T08:00:46.213Z</time>
      </trkpt>
      <trkpt lat="47.851" lon="6.93817">
        <ele>1186.5</ele>
        <time>2026-08-27T08:00:48.230Z</time>
      </trkpt>
      <trkpt lat="47.851" lon="6.93817">
        <ele>1186.5</ele>
        <time>2026-08-27T08:00:50.145Z</time>
      </trkpt>
      <trkpt lat="47.851" lon="6.93817">
        <ele>1186.5</ele>
        <time>2026-08-27T08:00:51.153Z</time>
      </trkpt>
      <trkpt lat="47.851" lon="6.93817">
        <ele>1186.4</ele>
        <time>2026-08-27T08:00:53.170Z</time>
      </trkpt>
      <trkpt lat="47.851" lon="6.93817">
        <ele>1186.9</ele>
        <time>2026-08-27T08:00:54.178Z</time>
      </trkpt>
      <trkpt lat="47.851" lon="6.93817">
        <ele>1186.6</ele>
        <time>2026-08-27T08:00:55.186Z</time>
      </trkpt>
      <trkpt lat="47.851" lon="6.93817">
        <ele>1186.6</ele>
        <time>2026-08-27T08:00:56.195Z</time>
      </trkpt>
      <trkpt lat="47.851" lon="6.93817">
        <ele>1186.8</ele>
        <time>2026-08-27T08:00:57.202Z</time>
      </trkpt>
      <trkpt lat="47.851" lon="6.93817">
        <ele>1186.8</ele>
        <time>2026-08-27T08:00:58.210Z</time>
      </trkpt>
      <trkpt lat="47.851" lon="6.93817">
        <ele>1186.9</ele>
        <time>2026-08-27T08:00:59.219Z</time>
      </trkpt>
      <trkpt lat="47.851" lon="6.93817">
        <ele>1186.7</ele>
        <time>2026-08-27T08:01:00.227Z</time>
      </trkpt>
      <trkpt lat="47.851" lon="6.93817">
        <ele>1186.3</ele>
        <time>2026-08-27T08:01:02.142Z</time>
      </trkpt>
      <trkpt lat="47.851" lon="6.93817">
        <ele>1186.9</ele>
        <time>2026-08-27T08:01:03.151Z</time>
      </trkpt>
      <trkpt lat="47.851" lon="6.93817">
        <ele>1187.1</ele>
        <time>2026-08-27T08:01:04.159Z</time>
      </trkpt>
      <trkpt lat="47.851" lon="6.93817">
        <ele>1186.6</ele>
        <time>2026-08-27T08:01:05.167Z</time>
      </trkpt>
      <trkpt lat="47.851" lon="6.93817">
        <ele>1187.1</ele>
        <time>2026-08-27T08:01:06.175Z</time>
      </trkpt>
      <trkpt lat="47.851" lon="6.93817">
        <ele>1186.7</ele>
        <time>2026-08-27T08:01:07.183Z</time>
      </trkpt>
      <trkpt lat="47.851" lon="6.93817">
        <ele>1186.4</ele>
        <time>2026-08-27T08:01:08.191Z</time>
      </trkpt>
      <trkpt lat="47.851" lon="6.93817">
        <ele>1186.3</ele>
        <time>2026-08-27T08:01:09.199Z</time>
      </trkpt>
      <trkpt lat="47.851" lon="6.93817">
        <ele>1187.1</ele>
        <time>2026-08-27T08:01:10.208Z</time>
      </trkpt>
      <trkpt lat="47.851" lon="6.93817">
        <ele>1186.7</ele>
        <time>2026-08-27T08:01:12.223Z</time>
      </trkpt>
      <trkpt lat="47.851" lon="6.93817">
        <ele>1186.3</ele>
        <time>2026-08-27T08:01:14.241Z</time>
      </trkpt>
      <trkpt lat="47.85101" lon="6.93817">
        <ele>1186.5</ele>
        <time>2026-08-27T08:01:16.156Z</time>
      </trkpt>
      <trkpt lat="47.85101" lon="6.93817">
        <ele>1186.7</ele>
        <time>2026-08-27T08:01:17.163Z</time>
      </trkpt>
      <trkpt lat="47.85101" lon="6.93817">
        <ele>1186.7</ele>
        <time>2026-08-27T08:01:18.172Z</time>
      </trkpt>
      <trkpt lat="47.85101" lon="6.93817">
        <ele>1186.4</ele>
        <time>2026-08-27T08:01:19.180Z</time>
      </trkpt>
      <trkpt lat="47.85101" lon="6.93817">
        <ele>1186.3</ele>
        <time>2026-08-27T08:01:20.188Z</time>
      </trkpt>
      <trkpt lat="47.85101" lon="6.93817">
        <ele>1186</ele>
        <time>2026-08-27T08:01:21.196Z</time>
      </trkpt>
      <trkpt lat="47.85101" lon="6.93817">
        <ele>1186.2</ele>
        <time>2026-08-27T08:01:22.204Z</time>
      </trkpt>
      <trkpt lat="47.85101" lon="6.93817">
        <ele>1186.7</ele>
        <time>2026-08-27T08:01:23.212Z</time>
      </trkpt>
      <trkpt lat="47.85101" lon="6.93817">
        <ele>1186.4</ele>
        <time>2026-08-27T08:01:25.028Z</time>
      </trkpt>
      <trkpt lat="47.85101" lon="6.93817">
        <ele>1186.6</ele>
        <time>2026-08-27T08:01:26.137Z</time>
      </trkpt>
      <trkpt lat="47.85101" lon="6.93817">
        <ele>1186.6</ele>
        <time>2026-08-27T08:01:27.144Z</time>
      </trkpt>
      <trkpt lat="47.85101" lon="6.93817">
        <ele>1186.7</ele>
        <time>2026-08-27T08:01:28.152Z</time>
      </trkpt>
      <trkpt lat="47.85101" lon="6.93817">
        <ele>1186.5</ele>
        <time>2026-08-27T08:01:29.161Z</time>
      </trkpt>
      <trkpt lat="47.85101" lon="6.93817">
        <ele>1186.4</ele>
        <time>2026-08-27T08:01:30.169Z</time>
      </trkpt>
      <trkpt lat="47.85101" lon="6.93817">
        <ele>1186.2</ele>
        <time>2026-08-27T08:01:31.177Z</time>
      </trkpt>
      <trkpt lat="47.85101" lon="6.93817">
        <ele>1186.7</ele>
        <time>2026-08-27T08:01:32.186Z</time>
      </trkpt>
      <trkpt lat="47.85101" lon="6.93817">
        <ele>1186.9</ele>
        <time>2026-08-27T08:01:33.193Z</time>
      </trkpt>
      <trkpt lat="47.85101" lon="6.93817">
        <ele>1186.8</ele>
        <time>2026-08-27T08:01:34.202Z</time>
      </trkpt>
      <trkpt lat="47.85101" lon="6.93817">
        <ele>1186.9</ele>
        <time>2026-08-27T08:01:35.209Z</time>
      </trkpt>
      <trkpt lat="47.85101" lon="6.93817">
        <ele>1186.6</ele>
        <time>2026-08-27T08:01:36.218Z</time>
      </trkpt>
      <trkpt lat="47.85101" lon="6.93817">
        <ele>1186.2</ele>
        <time>2026-08-27T08:01:38.133Z</time>
      </trkpt>
      <trkpt lat="47.85101" lon="6.93817">
        <ele>1187</ele>
        <time>2026-08-27T08:01:39.242Z</time>
      </trkpt>
      <trkpt lat="47.85101" lon="6.93817">
        <ele>1186.6</ele>
        <time>2026-08-27T08:01:41.159Z</time>
      </trkpt>
      <trkpt lat="47.85101" lon="6.93817">
        <ele>1186.3</ele>
        <time>2026-08-27T08:01:42.167Z</time>
      </trkpt>
      <trkpt lat="47.85101" lon="6.93817">
        <ele>1186.3</ele>
        <time>2026-08-27T08:01:43.175Z</time>
      </trkpt>
      <trkpt lat="47.85101" lon="6.93817">
        <ele>1186.5</ele>
        <time>2026-08-27T08:01:44.182Z</time>
      </trkpt>
      <trkpt lat="47.85101" lon="6.93817">
        <ele>1186.4</ele>
        <time>2026-08-27T08:01:45.190Z</time>
      </trkpt>
      <trkpt lat="47.85101" lon="6.93817">
        <ele>1186.5</ele>
        <time>2026-08-27T08:01:46.198Z</time>
      </trkpt>
      <trkpt lat="47.85101" lon="6.93817">
        <ele>1186.6</ele>
        <time>2026-08-27T08:01:47.206Z</time>
      </trkpt>
      <trkpt lat="47.85101" lon="6.93817">
        <ele>1186.2</ele>
        <time>2026-08-27T08:01:49.122Z</time>
      </trkpt>
      <trkpt lat="47.85101" lon="6.93817">
        <ele>1185.9</ele>
        <time>2026-08-27T08:01:50.130Z</time>
      </trkpt>
      <trkpt lat="47.85101" lon="6.93817">
        <ele>1186</ele>
        <time>2026-08-27T08:01:51.139Z</time>
      </trkpt>
      <trkpt lat="47.85101" lon="6.93817">
        <ele>1186.5</ele>
        <time>2026-08-27T08:01:52.147Z</time>
      </trkpt>
      <trkpt lat="47.85101" lon="6.93817">
        <ele>1186.2</ele>
        <time>2026-08-27T08:01:53.154Z</time>
      </trkpt>
      <trkpt lat="47.85101" lon="6.93817">
        <ele>1186.2</ele>
        <time>2026-08-27T08:01:54.162Z</time>
      </trkpt>
      <trkpt lat="47.85101" lon="6.93817">
        <ele>1186.4</ele>
        <time>2026-08-27T08:01:55.171Z</time>
      </trkpt>
      <trkpt lat="47.85101" lon="6.93817">
        <ele>1186.6</ele>
        <time>2026-08-27T08:01:56.179Z</time>
      </trkpt>
      <trkpt lat="47.85101" lon="6.93817">
        <ele>1186.4</ele>
        <time>2026-08-27T08:01:57.188Z</time>
      </trkpt>
      <trkpt lat="47.85101" lon="6.93817">
        <ele>1186</ele>
        <time>2026-08-27T08:01:59.203Z</time>
      </trkpt>
      <trkpt lat="47.85101" lon="6.93817">
        <ele>1186</ele>
        <time>2026-08-27T08:02:00.212Z</time>
      </trkpt>
      <trkpt lat="47.85101" lon="6.93817">
        <ele>1186.4</ele>
        <time>2026-08-27T08:02:01.219Z</time>
      </trkpt>
      <trkpt lat="47.85101" lon="6.93817">
        <ele>1186.6</ele>
        <time>2026-08-27T08:02:02.227Z</time>
      </trkpt>
      <trkpt lat="47.85101" lon="6.93817">
        <ele>1186.6</ele>
        <time>2026-08-27T08:02:04.143Z</time>
      </trkpt>
      <trkpt lat="47.85101" lon="6.93817">
        <ele>1186.3</ele>
        <time>2026-08-27T08:02:05.151Z</time>
      </trkpt>
      <trkpt lat="47.85101" lon="6.93817">
        <ele>1185.9</ele>
        <time>2026-08-27T08:02:06.159Z</time>
      </trkpt>
      <trkpt lat="47.85101" lon="6.93817">
        <ele>1185.9</ele>
        <time>2026-08-27T08:02:07.168Z</time>
      </trkpt>
      <trkpt lat="47.85101" lon="6.93817">
        <ele>1186.3</ele>
        <time>2026-08-27T08:02:08.176Z</time>
      </trkpt>
      <trkpt lat="47.85101" lon="6.93817">
        <ele>1186.4</ele>
        <time>2026-08-27T08:02:09.183Z</time>
      </trkpt>
      <trkpt lat="47.85101" lon="6.93817">
        <ele>1186.3</ele>
        <time>2026-08-27T08:02:10.192Z</time>
      </trkpt>
      <trkpt lat="47.85101" lon="6.93817">
        <ele>1185.9</ele>
        <time>2026-08-27T08:02:11.200Z</time>
      </trkpt>
      <trkpt lat="47.85101" lon="6.93817">
        <ele>1186</ele>
        <time>2026-08-27T08:02:12.208Z</time>
      </trkpt>
      <trkpt lat="47.85101" lon="6.93817">
        <ele>1186.1</ele>
        <time>2026-08-27T08:02:14.123Z</time>
      </trkpt>
      <trkpt lat="47.85101" lon="6.93817">
        <ele>1186.3</ele>
        <time>2026-08-27T08:02:15.132Z</time>
      </trkpt>
      <trkpt lat="47.85101" lon="6.93817">
        <ele>1186.2</ele>
        <time>2026-08-27T08:02:16.139Z</time>
      </trkpt>
      <trkpt lat="47.85101" lon="6.93817">
        <ele>1185.9</ele>
        <time>2026-08-27T08:02:17.148Z</time>
      </trkpt>
      <trkpt lat="47.85101" lon="6.93817">
        <ele>1185.8</ele>
        <time>2026-08-27T08:02:18.156Z</time>
      </trkpt>
      <trkpt lat="47.85101" lon="6.93817">
        <ele>1185.5</ele>
        <time>2026-08-27T08:02:19.164Z</time>
      </trkpt>
      <trkpt lat="47.85101" lon="6.93817">
        <ele>1185.7</ele>
        <time>2026-08-27T08:02:20.172Z</time>
      </trkpt>
      <trkpt lat="47.85101" lon="6.93817">
        <ele>1186.2</ele>
        <time>2026-08-27T08:02:21.180Z</time>
      </trkpt>
      <trkpt lat="47.85101" lon="6.93817">
        <ele>1185.9</ele>
        <time>2026-08-27T08:02:22.188Z</time>
      </trkpt>
      <trkpt lat="47.85101" lon="6.93817">
        <ele>1185.9</ele>
        <time>2026-08-27T08:02:23.197Z</time>
      </trkpt>
      <trkpt lat="47.85101" lon="6.93817">
        <ele>1186.1</ele>
        <time>2026-08-27T08:02:24.204Z</time>
      </trkpt>
      <trkpt lat="47.85101" lon="6.93817">
        <ele>1186.3</ele>
        <time>2026-08-27T08:02:25.212Z</time>
      </trkpt>
      <trkpt lat="47.85101" lon="6.93817">
        <ele>1186.1</ele>
        <time>2026-08-27T08:02:26.220Z</time>
      </trkpt>
      <trkpt lat="47.85101" lon="6.93817">
        <ele>1185.8</ele>
        <time>2026-08-27T08:02:28.137Z</time>
      </trkpt>
      <trkpt lat="47.85101" lon="6.93817">
        <ele>1185.8</ele>
        <time>2026-08-27T08:02:29.145Z</time>
      </trkpt>
      <trkpt lat="47.85101" lon="6.93817">
        <ele>1186.2</ele>
        <time>2026-08-27T08:02:30.152Z</time>
      </trkpt>
      <trkpt lat="47.85101" lon="6.93817">
        <ele>1186.4</ele>
        <time>2026-08-27T08:02:31.161Z</time>
      </trkpt>
      <trkpt lat="47.85101" lon="6.93817">
        <ele>1186.6</ele>
        <time>2026-08-27T08:02:32.168Z</time>
      </trkpt>
      <trkpt lat="47.85101" lon="6.93817">
        <ele>1186.6</ele>
        <time>2026-08-27T08:02:33.177Z</time>
      </trkpt>
      <trkpt lat="47.85101" lon="6.93817">
        <ele>1186.4</ele>
        <time>2026-08-27T08:02:34.184Z</time>
      </trkpt>
      <trkpt lat="47.85101" lon="6.93817">
        <ele>1186.3</ele>
        <time>2026-08-27T08:02:35.192Z</time>
      </trkpt>
      <trkpt lat="47.85101" lon="6.93817">
        <ele>1186.5</ele>
        <time>2026-08-27T08:02:36.202Z</time>
      </trkpt>
      <trkpt lat="47.85101" lon="6.93817">
        <ele>1186.5</ele>
        <time>2026-08-27T08:02:37.209Z</time>
      </trkpt>
      <trkpt lat="47.85101" lon="6.93817">
        <ele>1186.2</ele>
        <time>2026-08-27T08:02:38.217Z</time>
      </trkpt>
      <trkpt lat="47.85101" lon="6.93817">
        <ele>1186</ele>
        <time>2026-08-27T08:02:40.132Z</time>
      </trkpt>
      <trkpt lat="47.85101" lon="6.93817">
        <ele>1186</ele>
        <time>2026-08-27T08:02:41.140Z</time>
      </trkpt>
      <trkpt lat="47.85101" lon="6.93817">
        <ele>1186</ele>
        <time>2026-08-27T08:02:42.148Z</time>
      </trkpt>
      <trkpt lat="47.85101" lon="6.93817">
        <ele>1186</ele>
        <time>2026-08-27T08:02:43.157Z</time>
      </trkpt>
      <trkpt lat="47.85101" lon="6.93817">
        <ele>1186.2</ele>
        <time>2026-08-27T08:02:44.165Z</time>
      </trkpt>
      <trkpt lat="47.85101" lon="6.93817">
        <ele>1186.1</ele>
        <time>2026-08-27T08:02:45.173Z</time>
      </trkpt>
      <trkpt lat="47.85101" lon="6.93817">
        <ele>1186.1</ele>
        <time>2026-08-27T08:02:46.181Z</time>
      </trkpt>
      <trkpt lat="47.85101" lon="6.93817">
        <ele>1185.8</ele>
        <time>2026-08-27T08:02:47.189Z</time>
      </trkpt>
      <trkpt lat="47.85101" lon="6.93817">
        <ele>1186.2</ele>
        <time>2026-08-27T08:02:48.197Z</time>
      </trkpt>
      <trkpt lat="47.85101" lon="6.93817">
        <ele>1186.2</ele>
        <time>2026-08-27T08:02:49.206Z</time>
      </trkpt>
      <trkpt lat="47.85101" lon="6.93817">
        <ele>1185.9</ele>
        <time>2026-08-27T08:02:51.121Z</time>
      </trkpt>
      <trkpt lat="47.85101" lon="6.93817">
        <ele>1185.9</ele>
        <time>2026-08-27T08:02:52.230Z</time>
      </trkpt>
      <trkpt lat="47.85101" lon="6.93817">
        <ele>1186.2</ele>
        <time>2026-08-27T08:02:53.239Z</time>
      </trkpt>
      <trkpt lat="47.85101" lon="6.93817">
        <ele>1186.5</ele>
        <time>2026-08-27T08:02:55.153Z</time>
      </trkpt>
      <trkpt lat="47.85101" lon="6.93817">
        <ele>1186.4</ele>
        <time>2026-08-27T08:02:56.161Z</time>
      </trkpt>
      <trkpt lat="47.85101" lon="6.93817">
        <ele>1186.5</ele>
        <time>2026-08-27T08:02:57.169Z</time>
      </trkpt>
      <trkpt lat="47.85101" lon="6.93817">
        <ele>1186.6</ele>
        <time>2026-08-27T08:02:58.178Z</time>
      </trkpt>
      <trkpt lat="47.85101" lon="6.93817">
        <ele>1186.5</ele>
        <time>2026-08-27T08:02:59.186Z</time>
      </trkpt>
      <trkpt lat="47.85101" lon="6.93817">
        <ele>1186.6</ele>
        <time>2026-08-27T08:03:00.194Z</time>
      </trkpt>
      <trkpt lat="47.85101" lon="6.93817">
        <ele>1186.6</ele>
        <time>2026-08-27T08:03:01.202Z</time>
      </trkpt>
      <trkpt lat="47.85101" lon="6.93817">
        <ele>1186.7</ele>
        <time>2026-08-27T08:03:02.210Z</time>
      </trkpt>
      <trkpt lat="47.85101" lon="6.93817">
        <ele>1186.6</ele>
        <time>2026-08-27T08:03:04.125Z</time>
      </trkpt>
      <trkpt lat="47.85101" lon="6.93817">
        <ele>1186.5</ele>
        <time>2026-08-27T08:03:05.133Z</time>
      </trkpt>
      <trkpt lat="47.85101" lon="6.93817">
        <ele>1186.5</ele>
        <time>2026-08-27T08:03:06.142Z</time>
      </trkpt>
      <trkpt lat="47.85101" lon="6.93817">
        <ele>1186.2</ele>
        <time>2026-08-27T08:03:07.150Z</time>
      </trkpt>
      <trkpt lat="47.85101" lon="6.93817">
        <ele>1186.2</ele>
        <time>2026-08-27T08:03:08.159Z</time>
      </trkpt>
      <trkpt lat="47.85101" lon="6.93817">
        <ele>1186.1</ele>
        <time>2026-08-27T08:03:09.166Z</time>
      </trkpt>
      <trkpt lat="47.85101" lon="6.93817">
        <ele>1186.1</ele>
        <time>2026-08-27T08:03:10.175Z</time>
      </trkpt>
      <trkpt lat="47.85101" lon="6.93817">
        <ele>1186</ele>
        <time>2026-08-27T08:03:11.183Z</time>
      </trkpt>
      <trkpt lat="47.85101" lon="6.93817">
        <ele>1186.2</ele>
        <time>2026-08-27T08:03:12.191Z</time>
      </trkpt>
      <trkpt lat="47.85101" lon="6.93817">
        <ele>1186</ele>
        <time>2026-08-27T08:03:13.200Z</time>
      </trkpt>
      <trkpt lat="47.85101" lon="6.93817">
        <ele>1186</ele>
        <time>2026-08-27T08:03:14.207Z</time>
      </trkpt>
      <trkpt lat="47.85101" lon="6.93817">
        <ele>1185.8</ele>
        <time>2026-08-27T08:03:16.124Z</time>
      </trkpt>
      <trkpt lat="47.85101" lon="6.93817">
        <ele>1186.1</ele>
        <time>2026-08-27T08:03:17.132Z</time>
      </trkpt>
      <trkpt lat="47.85101" lon="6.93817">
        <ele>1186.1</ele>
        <time>2026-08-27T08:03:18.140Z</time>
      </trkpt>
      <trkpt lat="47.85101" lon="6.93817">
        <ele>1186.2</ele>
        <time>2026-08-27T08:03:19.147Z</time>
      </trkpt>
      <trkpt lat="47.85101" lon="6.93817">
        <ele>1186</ele>
        <time>2026-08-27T08:03:20.156Z</time>
      </trkpt>
      <trkpt lat="47.85101" lon="6.93817">
        <ele>1186.3</ele>
        <time>2026-08-27T08:03:21.164Z</time>
      </trkpt>
      <trkpt lat="47.85101" lon="6.93817">
        <ele>1186.2</ele>
        <time>2026-08-27T08:03:22.173Z</time>
      </trkpt>
      <trkpt lat="47.85101" lon="6.93817">
        <ele>1186.3</ele>
        <time>2026-08-27T08:03:23.181Z</time>
      </trkpt>
      <trkpt lat="47.85101" lon="6.93817">
        <ele>1186.4</ele>
        <time>2026-08-27T08:03:24.190Z</time>
      </trkpt>
      <trkpt lat="47.85101" lon="6.93817">
        <ele>1186.4</ele>
        <time>2026-08-27T08:03:25.197Z</time>
      </trkpt>
      <trkpt lat="47.85101" lon="6.93817">
        <ele>1186.5</ele>
        <time>2026-08-27T08:03:26.205Z</time>
      </trkpt>
      <trkpt lat="47.85101" lon="6.93817">
        <ele>1186.5</ele>
        <time>2026-08-27T08:03:27.215Z</time>
      </trkpt>
      <trkpt lat="47.85101" lon="6.93817">
        <ele>1186.6</ele>
        <time>2026-08-27T08:03:29.130Z</time>
      </trkpt>
      <trkpt lat="47.85101" lon="6.93817">
        <ele>1186.6</ele>
        <time>2026-08-27T08:03:30.139Z</time>
      </trkpt>
      <trkpt lat="47.85101" lon="6.93817">
        <ele>1186.6</ele>
        <time>2026-08-27T08:03:31.147Z</time>
      </trkpt>
      <trkpt lat="47.85101" lon="6.93817">
        <ele>1186.5</ele>
        <time>2026-08-27T08:03:32.155Z</time>
      </trkpt>
      <trkpt lat="47.85101" lon="6.93817">
        <ele>1186.3</ele>
        <time>2026-08-27T08:03:33.163Z</time>
      </trkpt>
      <trkpt lat="47.85101" lon="6.93817">
        <ele>1186.4</ele>
        <time>2026-08-27T08:03:34.171Z</time>
      </trkpt>
      <trkpt lat="47.85101" lon="6.93817">
        <ele>1186.4</ele>
        <time>2026-08-27T08:03:35.180Z</time>
      </trkpt>
      <trkpt lat="47.85101" lon="6.93817">
        <ele>1186</ele>
        <time>2026-08-27T08:03:36.188Z</time>
      </trkpt>
      <trkpt lat="47.85101" lon="6.93817">
        <ele>1186</ele>
        <time>2026-08-27T08:03:38.205Z</time>
      </trkpt>
      <trkpt lat="47.85101" lon="6.93817">
        <ele>1185.9</ele>
        <time>2026-08-27T08:03:39.212Z</time>
      </trkpt>
      <trkpt lat="47.85101" lon="6.93817">
        <ele>1185.8</ele>
        <time>2026-08-27T08:03:40.221Z</time>
      </trkpt>
      <trkpt lat="47.85101" lon="6.93817">
        <ele>1185.9</ele>
        <time>2026-08-27T08:03:42.136Z</time>
      </trkpt>
      <trkpt lat="47.85101" lon="6.93818">
        <ele>1185.8</ele>
        <time>2026-08-27T08:03:43.146Z</time>
      </trkpt>
      <trkpt lat="47.85101" lon="6.93818">
        <ele>1186</ele>
        <time>2026-08-27T08:03:44.254Z</time>
      </trkpt>
      <trkpt lat="47.85101" lon="6.93818">
        <ele>1185.9</ele>
        <time>2026-08-27T08:03:46.262Z</time>
      </trkpt>
      <trkpt lat="47.85101" lon="6.93818">
        <ele>1185.8</ele>
        <time>2026-08-27T08:03:48.187Z</time>
      </trkpt>
      <trkpt lat="47.85101" lon="6.93818">
        <ele>1185.7</ele>
        <time>2026-08-27T08:03:49.194Z</time>
      </trkpt>
      <trkpt lat="47.85102" lon="6.93818">
        <ele>1186</ele>
        <time>2026-08-27T08:03:51.111Z</time>
      </trkpt>
      <trkpt lat="47.85102" lon="6.93818">
        <ele>1186.3</ele>
        <time>2026-08-27T08:03:52.118Z</time>
      </trkpt>
      <trkpt lat="47.85102" lon="6.93818">
        <ele>1186.4</ele>
        <time>2026-08-27T08:03:53.128Z</time>
      </trkpt>
      <trkpt lat="47.85102" lon="6.93818">
        <ele>1186.4</ele>
        <time>2026-08-27T08:03:54.136Z</time>
      </trkpt>
      <trkpt lat="47.85102" lon="6.93818">
        <ele>1186.5</ele>
        <time>2026-08-27T08:03:55.143Z</time>
      </trkpt>
      <trkpt lat="47.85102" lon="6.93818">
        <ele>1186.5</ele>
        <time>2026-08-27T08:03:56.186Z</time>
      </trkpt>
      <trkpt lat="47.85102" lon="6.93818">
        <ele>1186.7</ele>
        <time>2026-08-27T08:03:58.168Z</time>
      </trkpt>
      <trkpt lat="47.85102" lon="6.93818">
        <ele>1186.6</ele>
        <time>2026-08-27T08:03:59.177Z</time>
      </trkpt>
      <trkpt lat="47.85102" lon="6.93818">
        <ele>1186.4</ele>
        <time>2026-08-27T08:04:00.185Z</time>
      </trkpt>
      <trkpt lat="47.85102" lon="6.93818">
        <ele>1186.1</ele>
        <time>2026-08-27T08:04:01.194Z</time>
      </trkpt>
      <trkpt lat="47.85102" lon="6.93818">
        <ele>1185.9</ele>
        <time>2026-08-27T08:04:02.201Z</time>
      </trkpt>
      <trkpt lat="47.85102" lon="6.93818">
        <ele>1186</ele>
        <time>2026-08-27T08:04:03.209Z</time>
      </trkpt>
      <trkpt lat="47.85102" lon="6.93818">
        <ele>1185.9</ele>
        <time>2026-08-27T08:04:04.218Z</time>
      </trkpt>
      <trkpt lat="47.85102" lon="6.93818">
        <ele>1185.5</ele>
        <time>2026-08-27T08:04:05.226Z</time>
      </trkpt>
      <trkpt lat="47.85102" lon="6.93818">
        <ele>1185.6</ele>
        <time>2026-08-27T08:04:06.234Z</time>
      </trkpt>
      <trkpt lat="47.85102" lon="6.93818">
        <ele>1185.5</ele>
        <time>2026-08-27T08:04:07.242Z</time>
      </trkpt>
      <trkpt lat="47.85102" lon="6.93819">
        <ele>1185.3</ele>
        <time>2026-08-27T08:04:09.159Z</time>
      </trkpt>
      <trkpt lat="47.85102" lon="6.93819">
        <ele>1185.4</ele>
        <time>2026-08-27T08:04:10.166Z</time>
      </trkpt>
      <trkpt lat="47.85102" lon="6.93819">
        <ele>1185.3</ele>
        <time>2026-08-27T08:04:11.174Z</time>
      </trkpt>
      <trkpt lat="47.85102" lon="6.93819">
        <ele>1185.3</ele>
        <time>2026-08-27T08:04:12.182Z</time>
      </trkpt>
      <trkpt lat="47.85102" lon="6.93819">
        <ele>1185.3</ele>
        <time>2026-08-27T08:04:13.191Z</time>
      </trkpt>
      <trkpt lat="47.85102" lon="6.93819">
        <ele>1185.2</ele>
        <time>2026-08-27T08:04:14.199Z</time>
      </trkpt>
      <trkpt lat="47.85102" lon="6.93819">
        <ele>1185.2</ele>
        <time>2026-08-27T08:04:15.207Z</time>
      </trkpt>
      <trkpt lat="47.85102" lon="6.93819">
        <ele>1185.2</ele>
        <time>2026-08-27T08:04:16.216Z</time>
      </trkpt>
      <trkpt lat="47.85102" lon="6.93819">
        <ele>1185.2</ele>
        <time>2026-08-27T08:04:17.224Z</time>
      </trkpt>
      <trkpt lat="47.85102" lon="6.93819">
        <ele>1185.1</ele>
        <time>2026-08-27T08:04:18.232Z</time>
      </trkpt>
      <trkpt lat="47.85102" lon="6.93819">
        <ele>1185.2</ele>
        <time>2026-08-27T08:04:19.241Z</time>
      </trkpt>
      <trkpt lat="47.85102" lon="6.93819">
        <ele>1185.2</ele>
        <time>2026-08-27T08:04:20.248Z</time>
      </trkpt>
      <trkpt lat="47.85102" lon="6.93819">
        <ele>1185.4</ele>
        <time>2026-08-27T08:04:22.163Z</time>
      </trkpt>
      <trkpt lat="47.85102" lon="6.93819">
        <ele>1185.4</ele>
        <time>2026-08-27T08:04:23.172Z</time>
      </trkpt>
      <trkpt lat="47.85102" lon="6.93819">
        <ele>1185.4</ele>
        <time>2026-08-27T08:04:24.181Z</time>
      </trkpt>
      <trkpt lat="47.85102" lon="6.93819">
        <ele>1185.5</ele>
        <time>2026-08-27T08:04:25.188Z</time>
      </trkpt>
      <trkpt lat="47.85102" lon="6.93819">
        <ele>1185.5</ele>
        <time>2026-08-27T08:04:26.196Z</time>
      </trkpt>
      <trkpt lat="47.85102" lon="6.93819">
        <ele>1185.7</ele>
        <time>2026-08-27T08:04:27.205Z</time>
      </trkpt>
      <trkpt lat="47.85102" lon="6.93819">
        <ele>1185.7</ele>
        <time>2026-08-27T08:04:29.221Z</time>
      </trkpt>
      <trkpt lat="47.85102" lon="6.93819">
        <ele>1185.4</ele>
        <time>2026-08-27T08:04:31.237Z</time>
      </trkpt>
      <trkpt lat="47.85102" lon="6.93819">
        <ele>1185.5</ele>
        <time>2026-08-27T08:04:32.245Z</time>
      </trkpt>
      <trkpt lat="47.85102" lon="6.93819">
        <ele>1185.2</ele>
        <time>2026-08-27T08:04:34.160Z</time>
      </trkpt>
      <trkpt lat="47.85102" lon="6.93819">
        <ele>1185.2</ele>
        <time>2026-08-27T08:04:35.169Z</time>
      </trkpt>
      <trkpt lat="47.85102" lon="6.93819">
        <ele>1185.2</ele>
        <time>2026-08-27T08:04:36.177Z</time>
      </trkpt>
      <trkpt lat="47.85102" lon="6.93819">
        <ele>1185.3</ele>
        <time>2026-08-27T08:04:37.186Z</time>
      </trkpt>
      <trkpt lat="47.85102" lon="6.93819">
        <ele>1185.1</ele>
        <time>2026-08-27T08:04:38.194Z</time>
      </trkpt>
      <trkpt lat="47.85102" lon="6.93819">
        <ele>1185.1</ele>
        <time>2026-08-27T08:04:39.201Z</time>
      </trkpt>
      <trkpt lat="47.85102" lon="6.93819">
        <ele>1185</ele>
        <time>2026-08-27T08:04:40.209Z</time>
      </trkpt>
      <trkpt lat="47.85102" lon="6.93819">
        <ele>1185.1</ele>
        <time>2026-08-27T08:04:41.217Z</time>
      </trkpt>
      <trkpt lat="47.85102" lon="6.93819">
        <ele>1185.3</ele>
        <time>2026-08-27T08:04:42.226Z</time>
      </trkpt>
      <trkpt lat="47.85102" lon="6.93819">
        <ele>1185.2</ele>
        <time>2026-08-27T08:04:43.234Z</time>
      </trkpt>
      <trkpt lat="47.85102" lon="6.93819">
        <ele>1185.1</ele>
        <time>2026-08-27T08:04:44.242Z</time>
      </trkpt>
      <trkpt lat="47.85102" lon="6.93819">
        <ele>1185.1</ele>
        <time>2026-08-27T08:04:46.158Z</time>
      </trkpt>
      <trkpt lat="47.85103" lon="6.93819">
        <ele>1184.8</ele>
        <time>2026-08-27T08:04:47.165Z</time>
      </trkpt>
      <trkpt lat="47.85103" lon="6.93819">
        <ele>1184.9</ele>
        <time>2026-08-27T08:04:48.173Z</time>
      </trkpt>
      <trkpt lat="47.85103" lon="6.93819">
        <ele>1184.9</ele>
        <time>2026-08-27T08:04:49.181Z</time>
      </trkpt>
      <trkpt lat="47.85103" lon="6.93819">
        <ele>1184.9</ele>
        <time>2026-08-27T08:04:50.191Z</time>
      </trkpt>
      <trkpt lat="47.85103" lon="6.93819">
        <ele>1185.2</ele>
        <time>2026-08-27T08:04:51.198Z</time>
      </trkpt>
      <trkpt lat="47.85103" lon="6.93819">
        <ele>1185.1</ele>
        <time>2026-08-27T08:04:52.206Z</time>
      </trkpt>
      <trkpt lat="47.85103" lon="6.93819">
        <ele>1185.1</ele>
        <time>2026-08-27T08:04:53.214Z</time>
      </trkpt>
      <trkpt lat="47.85103" lon="6.93819">
        <ele>1185.1</ele>
        <time>2026-08-27T08:04:54.223Z</time>
      </trkpt>
      <trkpt lat="47.85103" lon="6.93819">
        <ele>1185.1</ele>
        <time>2026-08-27T08:04:55.230Z</time>
      </trkpt>
      <trkpt lat="47.85103" lon="6.93819">
        <ele>1185.2</ele>
        <time>2026-08-27T08:04:56.238Z</time>
      </trkpt>
      <trkpt lat="47.85103" lon="6.93819">
        <ele>1185.3</ele>
        <time>2026-08-27T08:04:58.154Z</time>
      </trkpt>
      <trkpt lat="47.85103" lon="6.93819">
        <ele>1185.1</ele>
        <time>2026-08-27T08:04:59.163Z</time>
      </trkpt>
      <trkpt lat="47.85103" lon="6.93819">
        <ele>1185</ele>
        <time>2026-08-27T08:05:00.170Z</time>
      </trkpt>
      <trkpt lat="47.85103" lon="6.93819">
        <ele>1185.1</ele>
        <time>2026-08-27T08:05:01.178Z</time>
      </trkpt>
      <trkpt lat="47.85103" lon="6.93819">
        <ele>1185</ele>
        <time>2026-08-27T08:05:02.187Z</time>
      </trkpt>
      <trkpt lat="47.85103" lon="6.93819">
        <ele>1185</ele>
        <time>2026-08-27T08:05:03.194Z</time>
      </trkpt>
      <trkpt lat="47.85103" lon="6.93819">
        <ele>1185</ele>
        <time>2026-08-27T08:05:04.202Z</time>
      </trkpt>
      <trkpt lat="47.85103" lon="6.93819">
        <ele>1185.1</ele>
        <time>2026-08-27T08:05:05.210Z</time>
      </trkpt>
      <trkpt lat="47.85103" lon="6.93819">
        <ele>1185.1</ele>
        <time>2026-08-27T08:05:06.219Z</time>
      </trkpt>
      <trkpt lat="47.85103" lon="6.93819">
        <ele>1185.1</ele>
        <time>2026-08-27T08:05:07.226Z</time>
      </trkpt>
      <trkpt lat="47.85103" lon="6.93819">
        <ele>1185.2</ele>
        <time>2026-08-27T08:05:09.242Z</time>
      </trkpt>
      <trkpt lat="47.85103" lon="6.93819">
        <ele>1185.1</ele>
        <time>2026-08-27T08:05:10.252Z</time>
      </trkpt>
      <trkpt lat="47.85103" lon="6.93819">
        <ele>1185.4</ele>
        <time>2026-08-27T08:05:12.267Z</time>
      </trkpt>
      <trkpt lat="47.85103" lon="6.93819">
        <ele>1185.2</ele>
        <time>2026-08-27T08:05:14.183Z</time>
      </trkpt>
      <trkpt lat="47.85103" lon="6.93819">
        <ele>1185.1</ele>
        <time>2026-08-27T08:05:15.190Z</time>
      </trkpt>
      <trkpt lat="47.85103" lon="6.93819">
        <ele>1185.6</ele>
        <time>2026-08-27T08:05:16.199Z</time>
      </trkpt>
      <trkpt lat="47.85103" lon="6.93819">
        <ele>1185.6</ele>
        <time>2026-08-27T08:05:17.206Z</time>
      </trkpt>
      <trkpt lat="47.85103" lon="6.93819">
        <ele>1185.3</ele>
        <time>2026-08-27T08:05:18.214Z</time>
      </trkpt>
      <trkpt lat="47.85103" lon="6.93819">
        <ele>1185.3</ele>
        <time>2026-08-27T08:05:19.222Z</time>
      </trkpt>
      <trkpt lat="47.85103" lon="6.93819">
        <ele>1185.6</ele>
        <time>2026-08-27T08:05:20.230Z</time>
      </trkpt>
      <trkpt lat="47.85103" lon="6.93819">
        <ele>1185.5</ele>
        <time>2026-08-27T08:05:21.238Z</time>
      </trkpt>
      <trkpt lat="47.85103" lon="6.93819">
        <ele>1185.5</ele>
        <time>2026-08-27T08:05:23.154Z</time>
      </trkpt>
      <trkpt lat="47.85103" lon="6.93819">
        <ele>1185.5</ele>
        <time>2026-08-27T08:05:24.162Z</time>
      </trkpt>
      <trkpt lat="47.85103" lon="6.93819">
        <ele>1185.6</ele>
        <time>2026-08-27T08:05:25.170Z</time>
      </trkpt>
      <trkpt lat="47.85103" lon="6.93819">
        <ele>1185.5</ele>
        <time>2026-08-27T08:05:26.178Z</time>
      </trkpt>
      <trkpt lat="47.85103" lon="6.93819">
        <ele>1185.4</ele>
        <time>2026-08-27T08:05:27.186Z</time>
      </trkpt>
      <trkpt lat="47.85103" lon="6.93819">
        <ele>1185.4</ele>
        <time>2026-08-27T08:05:28.194Z</time>
      </trkpt>
      <trkpt lat="47.85103" lon="6.93819">
        <ele>1185.2</ele>
        <time>2026-08-27T08:05:29.203Z</time>
      </trkpt>
      <trkpt lat="47.85103" lon="6.93819">
        <ele>1185.3</ele>
        <time>2026-08-27T08:05:30.211Z</time>
      </trkpt>
      <trkpt lat="47.85103" lon="6.93819">
        <ele>1185.2</ele>
        <time>2026-08-27T08:05:31.219Z</time>
      </trkpt>
      <trkpt lat="47.85103" lon="6.93819">
        <ele>1185.1</ele>
        <time>2026-08-27T08:05:32.226Z</time>
      </trkpt>
      <trkpt lat="47.85103" lon="6.93819">
        <ele>1185.1</ele>
        <time>2026-08-27T08:05:33.234Z</time>
      </trkpt>
      <trkpt lat="47.85103" lon="6.93819">
        <ele>1185.1</ele>
        <time>2026-08-27T08:05:34.242Z</time>
      </trkpt>
      <trkpt lat="47.85103" lon="6.93819">
        <ele>1185.1</ele>
        <time>2026-08-27T08:05:36.158Z</time>
      </trkpt>
      <trkpt lat="47.85103" lon="6.93819">
        <ele>1185.3</ele>
        <time>2026-08-27T08:05:37.167Z</time>
      </trkpt>
      <trkpt lat="47.85103" lon="6.93819">
        <ele>1185.1</ele>
        <time>2026-08-27T08:05:38.174Z</time>
      </trkpt>
      <trkpt lat="47.85102" lon="6.93819">
        <ele>1185.1</ele>
        <time>2026-08-27T08:05:39.182Z</time>
      </trkpt>
      <trkpt lat="47.85102" lon="6.93819">
        <ele>1185.3</ele>
        <time>2026-08-27T08:05:40.191Z</time>
      </trkpt>
      <trkpt lat="47.85102" lon="6.93819">
        <ele>1185.3</ele>
        <time>2026-08-27T08:05:41.199Z</time>
      </trkpt>
      <trkpt lat="47.85102" lon="6.93819">
        <ele>1185.3</ele>
        <time>2026-08-27T08:05:42.207Z</time>
      </trkpt>
      <trkpt lat="47.85102" lon="6.93819">
        <ele>1185.1</ele>
        <time>2026-08-27T08:05:43.214Z</time>
      </trkpt>
      <trkpt lat="47.85102" lon="6.93819">
        <ele>1185</ele>
        <time>2026-08-27T08:05:44.223Z</time>
      </trkpt>
      <trkpt lat="47.85102" lon="6.93819">
        <ele>1185.4</ele>
        <time>2026-08-27T08:05:45.231Z</time>
      </trkpt>
      <trkpt lat="47.85102" lon="6.93819">
        <ele>1185.4</ele>
        <time>2026-08-27T08:05:46.238Z</time>
      </trkpt>
      <trkpt lat="47.85102" lon="6.93819">
        <ele>1185.2</ele>
        <time>2026-08-27T08:05:48.128Z</time>
      </trkpt>
      <trkpt lat="47.85102" lon="6.93819">
        <ele>1185.4</ele>
        <time>2026-08-27T08:05:49.162Z</time>
      </trkpt>
      <trkpt lat="47.85102" lon="6.93819">
        <ele>1185.3</ele>
        <time>2026-08-27T08:05:50.171Z</time>
      </trkpt>
      <trkpt lat="47.85102" lon="6.93819">
        <ele>1185.3</ele>
        <time>2026-08-27T08:05:51.178Z</time>
      </trkpt>
      <trkpt lat="47.85102" lon="6.93819">
        <ele>1185.3</ele>
        <time>2026-08-27T08:05:52.186Z</time>
      </trkpt>
      <trkpt lat="47.85102" lon="6.93819">
        <ele>1185.3</ele>
        <time>2026-08-27T08:05:53.194Z</time>
      </trkpt>
      <trkpt lat="47.85102" lon="6.93819">
        <ele>1185.3</ele>
        <time>2026-08-27T08:05:54.203Z</time>
      </trkpt>
      <trkpt lat="47.85102" lon="6.93819">
        <ele>1185.2</ele>
        <time>2026-08-27T08:05:55.210Z</time>
      </trkpt>
      <trkpt lat="47.85102" lon="6.93819">
        <ele>1185.2</ele>
        <time>2026-08-27T08:05:56.219Z</time>
      </trkpt>
      <trkpt lat="47.85102" lon="6.93819">
        <ele>1185.1</ele>
        <time>2026-08-27T08:05:57.226Z</time>
      </trkpt>
      <trkpt lat="47.85102" lon="6.93819">
        <ele>1185.2</ele>
        <time>2026-08-27T08:05:58.234Z</time>
      </trkpt>
      <trkpt lat="47.85102" lon="6.93819">
        <ele>1185.1</ele>
        <time>2026-08-27T08:05:59.242Z</time>
      </trkpt>
      <trkpt lat="47.85102" lon="6.93819">
        <ele>1184.8</ele>
        <time>2026-08-27T08:06:01.158Z</time>
      </trkpt>
      <trkpt lat="47.85102" lon="6.93819">
        <ele>1184.8</ele>
        <time>2026-08-27T08:06:02.249Z</time>
      </trkpt>
      <trkpt lat="47.85102" lon="6.93819">
        <ele>1185.1</ele>
        <time>2026-08-27T08:06:04.181Z</time>
      </trkpt>
      <trkpt lat="47.85102" lon="6.93819">
        <ele>1184.9</ele>
        <time>2026-08-27T08:06:05.189Z</time>
      </trkpt>
      <trkpt lat="47.85102" lon="6.93819">
        <ele>1184.8</ele>
        <time>2026-08-27T08:06:06.198Z</time>
      </trkpt>
      <trkpt lat="47.85102" lon="6.93819">
        <ele>1184.8</ele>
        <time>2026-08-27T08:06:07.206Z</time>
      </trkpt>
      <trkpt lat="47.85102" lon="6.9382">
        <ele>1184.6</ele>
        <time>2026-08-27T08:06:08.214Z</time>
      </trkpt>
      <trkpt lat="47.85102" lon="6.9382">
        <ele>1184.9</ele>
        <time>2026-08-27T08:06:09.222Z</time>
      </trkpt>
      <trkpt lat="47.85102" lon="6.9382">
        <ele>1184.9</ele>
        <time>2026-08-27T08:06:10.230Z</time>
      </trkpt>
      <trkpt lat="47.85102" lon="6.9382">
        <ele>1184.8</ele>
        <time>2026-08-27T08:06:11.238Z</time>
      </trkpt>
      <trkpt lat="47.85102" lon="6.9382">
        <ele>1185</ele>
        <time>2026-08-27T08:06:13.154Z</time>
      </trkpt>
      <trkpt lat="47.85102" lon="6.9382">
        <ele>1185</ele>
        <time>2026-08-27T08:06:14.161Z</time>
      </trkpt>
      <trkpt lat="47.85102" lon="6.93819">
        <ele>1185</ele>
        <time>2026-08-27T08:06:15.169Z</time>
      </trkpt>
      <trkpt lat="47.85102" lon="6.93819">
        <ele>1184.8</ele>
        <time>2026-08-27T08:06:16.178Z</time>
      </trkpt>
      <trkpt lat="47.85101" lon="6.93819">
        <ele>1185</ele>
        <time>2026-08-27T08:06:17.185Z</time>
      </trkpt>
      <trkpt lat="47.85101" lon="6.93819">
        <ele>1185.1</ele>
        <time>2026-08-27T08:06:18.194Z</time>
      </trkpt>
      <trkpt lat="47.85101" lon="6.93819">
        <ele>1185.1</ele>
        <time>2026-08-27T08:06:19.202Z</time>
      </trkpt>
      <trkpt lat="47.85101" lon="6.93819">
        <ele>1185.1</ele>
        <time>2026-08-27T08:06:20.209Z</time>
      </trkpt>
      <trkpt lat="47.85101" lon="6.93819">
        <ele>1185.1</ele>
        <time>2026-08-27T08:06:21.217Z</time>
      </trkpt>
      <trkpt lat="47.85101" lon="6.93819">
        <ele>1185.2</ele>
        <time>2026-08-27T08:06:22.225Z</time>
      </trkpt>
      <trkpt lat="47.85101" lon="6.93819">
        <ele>1185.2</ele>
        <time>2026-08-27T08:06:23.234Z</time>
      </trkpt>
      <trkpt lat="47.85101" lon="6.93819">
        <ele>1185.2</ele>
        <time>2026-08-27T08:06:24.241Z</time>
      </trkpt>
      <trkpt lat="47.85101" lon="6.93819">
        <ele>1185.2</ele>
        <time>2026-08-27T08:06:25.249Z</time>
      </trkpt>
      <trkpt lat="47.85101" lon="6.93819">
        <ele>1185.2</ele>
        <time>2026-08-27T08:06:27.166Z</time>
      </trkpt>
      <trkpt lat="47.85101" lon="6.93819">
        <ele>1185</ele>
        <time>2026-08-27T08:06:28.174Z</time>
      </trkpt>
      <trkpt lat="47.85101" lon="6.93819">
        <ele>1185</ele>
        <time>2026-08-27T08:06:29.181Z</time>
      </trkpt>
      <trkpt lat="47.85101" lon="6.93819">
        <ele>1184.8</ele>
        <time>2026-08-27T08:06:30.189Z</time>
      </trkpt>
      <trkpt lat="47.85101" lon="6.93819">
        <ele>1184.8</ele>
        <time>2026-08-27T08:06:31.197Z</time>
      </trkpt>
      <trkpt lat="47.85101" lon="6.93819">
        <ele>1185.1</ele>
        <time>2026-08-27T08:06:32.205Z</time>
      </trkpt>
      <trkpt lat="47.85101" lon="6.93819">
        <ele>1185.2</ele>
        <time>2026-08-27T08:06:33.214Z</time>
      </trkpt>
      <trkpt lat="47.85101" lon="6.93819">
        <ele>1185</ele>
        <time>2026-08-27T08:06:34.221Z</time>
      </trkpt>
      <trkpt lat="47.85101" lon="6.93818">
        <ele>1184.9</ele>
        <time>2026-08-27T08:06:35.229Z</time>
      </trkpt>
      <trkpt lat="47.85101" lon="6.93818">
        <ele>1184.8</ele>
        <time>2026-08-27T08:06:36.237Z</time>
      </trkpt>
      <trkpt lat="47.85101" lon="6.93818">
        <ele>1184.7</ele>
        <time>2026-08-27T08:06:37.246Z</time>
      </trkpt>
      <trkpt lat="47.85101" lon="6.93818">
        <ele>1184.9</ele>
        <time>2026-08-27T08:06:39.160Z</time>
      </trkpt>
      <trkpt lat="47.85101" lon="6.93818">
        <ele>1184.9</ele>
        <time>2026-08-27T08:06:40.168Z</time>
      </trkpt>
      <trkpt lat="47.85101" lon="6.93818">
        <ele>1184.8</ele>
        <time>2026-08-27T08:06:41.176Z</time>
      </trkpt>
      <trkpt lat="47.85101" lon="6.93818">
        <ele>1185.1</ele>
        <time>2026-08-27T08:06:42.184Z</time>
      </trkpt>
      <trkpt lat="47.85101" lon="6.93818">
        <ele>1185.1</ele>
        <time>2026-08-27T08:06:43.192Z</time>
      </trkpt>
      <trkpt lat="47.85101" lon="6.93818">
        <ele>1185.2</ele>
        <time>2026-08-27T08:06:44.200Z</time>
      </trkpt>
      <trkpt lat="47.85101" lon="6.93818">
        <ele>1185.1</ele>
        <time>2026-08-27T08:06:45.209Z</time>
      </trkpt>
      <trkpt lat="47.85101" lon="6.93818">
        <ele>1185.1</ele>
        <time>2026-08-27T08:06:46.216Z</time>
      </trkpt>
      <trkpt lat="47.85101" lon="6.93818">
        <ele>1185.2</ele>
        <time>2026-08-27T08:06:47.224Z</time>
      </trkpt>
      <trkpt lat="47.85101" lon="6.93818">
        <ele>1185.1</ele>
        <time>2026-08-27T08:06:48.232Z</time>
      </trkpt>
      <trkpt lat="47.85101" lon="6.93818">
        <ele>1185.1</ele>
        <time>2026-08-27T08:06:49.240Z</time>
      </trkpt>
      <trkpt lat="47.85101" lon="6.93818">
        <ele>1185.2</ele>
        <time>2026-08-27T08:06:51.257Z</time>
      </trkpt>
      <trkpt lat="47.85101" lon="6.93818">
        <ele>1185.3</ele>
        <time>2026-08-27T08:06:53.146Z</time>
      </trkpt>
      <trkpt lat="47.85101" lon="6.93818">
        <ele>1185.3</ele>
        <time>2026-08-27T08:06:54.180Z</time>
      </trkpt>
      <trkpt lat="47.85101" lon="6.93818">
        <ele>1185.2</ele>
        <time>2026-08-27T08:06:55.188Z</time>
      </trkpt>
      <trkpt lat="47.85101" lon="6.93818">
        <ele>1185.1</ele>
        <time>2026-08-27T08:06:56.197Z</time>
      </trkpt>
      <trkpt lat="47.85101" lon="6.93818">
        <ele>1185.1</ele>
        <time>2026-08-27T08:06:57.204Z</time>
      </trkpt>
      <trkpt lat="47.85101" lon="6.93818">
        <ele>1185</ele>
        <time>2026-08-27T08:06:58.213Z</time>
      </trkpt>
      <trkpt lat="47.85101" lon="6.93818">
        <ele>1185</ele>
        <time>2026-08-27T08:06:59.220Z</time>
      </trkpt>
      <trkpt lat="47.85101" lon="6.93818">
        <ele>1185</ele>
        <time>2026-08-27T08:07:00.228Z</time>
      </trkpt>
      <trkpt lat="47.85101" lon="6.93818">
        <ele>1185.2</ele>
        <time>2026-08-27T08:07:01.236Z</time>
      </trkpt>
      <trkpt lat="47.85101" lon="6.93818">
        <ele>1185.3</ele>
        <time>2026-08-27T08:07:02.244Z</time>
      </trkpt>
      <trkpt lat="47.85101" lon="6.93818">
        <ele>1185.1</ele>
        <time>2026-08-27T08:07:03.252Z</time>
      </trkpt>
      <trkpt lat="47.85101" lon="6.93818">
        <ele>1184.9</ele>
        <time>2026-08-27T08:07:05.167Z</time>
      </trkpt>
      <trkpt lat="47.85101" lon="6.93818">
        <ele>1184.8</ele>
        <time>2026-08-27T08:07:06.176Z</time>
      </trkpt>
      <trkpt lat="47.85101" lon="6.93818">
        <ele>1185.2</ele>
        <time>2026-08-27T08:07:07.183Z</time>
      </trkpt>
      <trkpt lat="47.85101" lon="6.93818">
        <ele>1185.2</ele>
        <time>2026-08-27T08:07:08.191Z</time>
      </trkpt>
      <trkpt lat="47.85101" lon="6.93818">
        <ele>1185</ele>
        <time>2026-08-27T08:07:09.199Z</time>
      </trkpt>
      <trkpt lat="47.85101" lon="6.93818">
        <ele>1184.9</ele>
        <time>2026-08-27T08:07:10.207Z</time>
      </trkpt>
      <trkpt lat="47.85101" lon="6.93819">
        <ele>1185.2</ele>
        <time>2026-08-27T08:07:11.215Z</time>
      </trkpt>
      <trkpt lat="47.85101" lon="6.93819">
        <ele>1185.2</ele>
        <time>2026-08-27T08:07:12.224Z</time>
      </trkpt>
      <trkpt lat="47.85101" lon="6.93819">
        <ele>1185.2</ele>
        <time>2026-08-27T08:07:13.231Z</time>
      </trkpt>
      <trkpt lat="47.85101" lon="6.93819">
        <ele>1185.3</ele>
        <time>2026-08-27T08:07:14.239Z</time>
      </trkpt>
      <trkpt lat="47.851" lon="6.93819">
        <ele>1185.5</ele>
        <time>2026-08-27T08:07:16.154Z</time>
      </trkpt>
      <trkpt lat="47.851" lon="6.93819">
        <ele>1185.2</ele>
        <time>2026-08-27T08:07:17.162Z</time>
      </trkpt>
      <trkpt lat="47.851" lon="6.93819">
        <ele>1185.3</ele>
        <time>2026-08-27T08:07:18.171Z</time>
      </trkpt>
      <trkpt lat="47.851" lon="6.93819">
        <ele>1185.2</ele>
        <time>2026-08-27T08:07:19.179Z</time>
      </trkpt>
      <trkpt lat="47.851" lon="6.93819">
        <ele>1185.4</ele>
        <time>2026-08-27T08:07:20.188Z</time>
      </trkpt>
      <trkpt lat="47.851" lon="6.93819">
        <ele>1185.6</ele>
        <time>2026-08-27T08:07:21.196Z</time>
      </trkpt>
      <trkpt lat="47.851" lon="6.93819">
        <ele>1185.5</ele>
        <time>2026-08-27T08:07:22.203Z</time>
      </trkpt>
      <trkpt lat="47.851" lon="6.93819">
        <ele>1185.2</ele>
        <time>2026-08-27T08:07:23.211Z</time>
      </trkpt>
      <trkpt lat="47.851" lon="6.93819">
        <ele>1185.3</ele>
        <time>2026-08-27T08:07:24.219Z</time>
      </trkpt>
      <trkpt lat="47.851" lon="6.93819">
        <ele>1185.2</ele>
        <time>2026-08-27T08:07:25.227Z</time>
      </trkpt>
      <trkpt lat="47.851" lon="6.93819">
        <ele>1185.1</ele>
        <time>2026-08-27T08:07:26.236Z</time>
      </trkpt>
      <trkpt lat="47.851" lon="6.93819">
        <ele>1185</ele>
        <time>2026-08-27T08:07:27.244Z</time>
      </trkpt>
      <trkpt lat="47.851" lon="6.93818">
        <ele>1185.3</ele>
        <time>2026-08-27T08:07:29.159Z</time>
      </trkpt>
      <trkpt lat="47.851" lon="6.93819">
        <ele>1185.2</ele>
        <time>2026-08-27T08:07:30.166Z</time>
      </trkpt>
      <trkpt lat="47.851" lon="6.93819">
        <ele>1185.3</ele>
        <time>2026-08-27T08:07:31.175Z</time>
      </trkpt>
      <trkpt lat="47.851" lon="6.93819">
        <ele>1185.1</ele>
        <time>2026-08-27T08:07:32.182Z</time>
      </trkpt>
      <trkpt lat="47.851" lon="6.93819">
        <ele>1184.9</ele>
        <time>2026-08-27T08:07:33.190Z</time>
      </trkpt>
      <trkpt lat="47.851" lon="6.93819">
        <ele>1184.9</ele>
        <time>2026-08-27T08:07:34.198Z</time>
      </trkpt>
      <trkpt lat="47.851" lon="6.93819">
        <ele>1184.8</ele>
        <time>2026-08-27T08:07:35.206Z</time>
      </trkpt>
      <trkpt lat="47.851" lon="6.93819">
        <ele>1185.2</ele>
        <time>2026-08-27T08:07:36.214Z</time>
      </trkpt>
      <trkpt lat="47.851" lon="6.93819">
        <ele>1185</ele>
        <time>2026-08-27T08:07:37.222Z</time>
      </trkpt>
      <trkpt lat="47.851" lon="6.93819">
        <ele>1185.1</ele>
        <time>2026-08-27T08:07:38.230Z</time>
      </trkpt>
      <trkpt lat="47.85101" lon="6.93819">
        <ele>1185.2</ele>
        <time>2026-08-27T08:07:39.239Z</time>
      </trkpt>
      <trkpt lat="47.85101" lon="6.93819">
        <ele>1185.2</ele>
        <time>2026-08-27T08:07:40.247Z</time>
      </trkpt>
      <trkpt lat="47.85101" lon="6.93819">
        <ele>1185.1</ele>
        <time>2026-08-27T08:07:42.161Z</time>
      </trkpt>
      <trkpt lat="47.85101" lon="6.93819">
        <ele>1185.1</ele>
        <time>2026-08-27T08:07:43.169Z</time>
      </trkpt>
      <trkpt lat="47.85101" lon="6.93819">
        <ele>1185.1</ele>
        <time>2026-08-27T08:07:44.187Z</time>
      </trkpt>
      <trkpt lat="47.85101" lon="6.93819">
        <ele>1185</ele>
        <time>2026-08-27T08:07:46.193Z</time>
      </trkpt>
      <trkpt lat="47.851" lon="6.93819">
        <ele>1185.1</ele>
        <time>2026-08-27T08:07:47.202Z</time>
      </trkpt>
      <trkpt lat="47.85101" lon="6.93819">
        <ele>1185.3</ele>
        <time>2026-08-27T08:07:49.217Z</time>
      </trkpt>
      <trkpt lat="47.85101" lon="6.93819">
        <ele>1185.5</ele>
        <time>2026-08-27T08:07:50.225Z</time>
      </trkpt>
      <trkpt lat="47.85101" lon="6.93819">
        <ele>1185.4</ele>
        <time>2026-08-27T08:07:51.233Z</time>
      </trkpt>
      <trkpt lat="47.85101" lon="6.93819">
        <ele>1185.1</ele>
        <time>2026-08-27T08:07:52.242Z</time>
      </trkpt>
      <trkpt lat="47.85101" lon="6.93819">
        <ele>1185.2</ele>
        <time>2026-08-27T08:07:53.249Z</time>
      </trkpt>
      <trkpt lat="47.85101" lon="6.93819">
        <ele>1185.1</ele>
        <time>2026-08-27T08:07:55.164Z</time>
      </trkpt>
      <trkpt lat="47.85101" lon="6.93819">
        <ele>1185</ele>
        <time>2026-08-27T08:07:56.173Z</time>
      </trkpt>
      <trkpt lat="47.85101" lon="6.93819">
        <ele>1184.8</ele>
        <time>2026-08-27T08:07:57.181Z</time>
      </trkpt>
      <trkpt lat="47.85101" lon="6.93819">
        <ele>1185.2</ele>
        <time>2026-08-27T08:07:58.189Z</time>
      </trkpt>
      <trkpt lat="47.85101" lon="6.93819">
        <ele>1185.2</ele>
        <time>2026-08-27T08:07:59.197Z</time>
      </trkpt>
      <trkpt lat="47.85101" lon="6.93819">
        <ele>1185.2</ele>
        <time>2026-08-27T08:08:00.205Z</time>
      </trkpt>
      <trkpt lat="47.85101" lon="6.93819">
        <ele>1185.1</ele>
        <time>2026-08-27T08:08:01.214Z</time>
      </trkpt>
      <trkpt lat="47.85101" lon="6.93819">
        <ele>1184.9</ele>
        <time>2026-08-27T08:08:02.221Z</time>
      </trkpt>
      <trkpt lat="47.85101" lon="6.93819">
        <ele>1185</ele>
        <time>2026-08-27T08:08:03.229Z</time>
      </trkpt>
      <trkpt lat="47.85101" lon="6.93819">
        <ele>1184.9</ele>
        <time>2026-08-27T08:08:04.237Z</time>
      </trkpt>
      <trkpt lat="47.85101" lon="6.93819">
        <ele>1185.3</ele>
        <time>2026-08-27T08:08:05.246Z</time>
      </trkpt>
      <trkpt lat="47.85101" lon="6.93819">
        <ele>1185.1</ele>
        <time>2026-08-27T08:08:06.253Z</time>
      </trkpt>
      <trkpt lat="47.85101" lon="6.93819">
        <ele>1185.3</ele>
        <time>2026-08-27T08:08:08.169Z</time>
      </trkpt>
      <trkpt lat="47.85101" lon="6.93819">
        <ele>1185.3</ele>
        <time>2026-08-27T08:08:09.176Z</time>
      </trkpt>
      <trkpt lat="47.85101" lon="6.93819">
        <ele>1185.3</ele>
        <time>2026-08-27T08:08:10.185Z</time>
      </trkpt>
      <trkpt lat="47.85101" lon="6.93819">
        <ele>1185.2</ele>
        <time>2026-08-27T08:08:11.192Z</time>
      </trkpt>
      <trkpt lat="47.85101" lon="6.93819">
        <ele>1185.3</ele>
        <time>2026-08-27T08:08:12.200Z</time>
      </trkpt>
      <trkpt lat="47.85101" lon="6.93819">
        <ele>1185.5</ele>
        <time>2026-08-27T08:08:13.208Z</time>
      </trkpt>
      <trkpt lat="47.85101" lon="6.93819">
        <ele>1185.2</ele>
        <time>2026-08-27T08:08:14.216Z</time>
      </trkpt>
      <trkpt lat="47.85101" lon="6.93819">
        <ele>1185.2</ele>
        <time>2026-08-27T08:08:15.225Z</time>
      </trkpt>
      <trkpt lat="47.85101" lon="6.93819">
        <ele>1185.3</ele>
        <time>2026-08-27T08:08:16.232Z</time>
      </trkpt>
      <trkpt lat="47.85101" lon="6.93819">
        <ele>1185.5</ele>
        <time>2026-08-27T08:08:17.240Z</time>
      </trkpt>
      <trkpt lat="47.85101" lon="6.93819">
        <ele>1185.7</ele>
        <time>2026-08-27T08:08:18.248Z</time>
      </trkpt>
      <trkpt lat="47.85101" lon="6.93819">
        <ele>1185.6</ele>
        <time>2026-08-27T08:08:19.256Z</time>
      </trkpt>
      <trkpt lat="47.85101" lon="6.93819">
        <ele>1185.3</ele>
        <time>2026-08-27T08:08:21.172Z</time>
      </trkpt>
      <trkpt lat="47.85101" lon="6.93819">
        <ele>1185.4</ele>
        <time>2026-08-27T08:08:22.180Z</time>
      </trkpt>
      <trkpt lat="47.85101" lon="6.93819">
        <ele>1185.3</ele>
        <time>2026-08-27T08:08:23.187Z</time>
      </trkpt>
      <trkpt lat="47.85101" lon="6.93819">
        <ele>1185.1</ele>
        <time>2026-08-27T08:08:24.196Z</time>
      </trkpt>
      <trkpt lat="47.85101" lon="6.93819">
        <ele>1185.1</ele>
        <time>2026-08-27T08:08:25.203Z</time>
      </trkpt>
      <trkpt lat="47.85101" lon="6.93819">
        <ele>1185</ele>
        <time>2026-08-27T08:08:26.212Z</time>
      </trkpt>
      <trkpt lat="47.85101" lon="6.93819">
        <ele>1185.3</ele>
        <time>2026-08-27T08:08:27.219Z</time>
      </trkpt>
      <trkpt lat="47.85101" lon="6.93819">
        <ele>1185.3</ele>
        <time>2026-08-27T08:08:28.227Z</time>
      </trkpt>
      <trkpt lat="47.85101" lon="6.93819">
        <ele>1185.1</ele>
        <time>2026-08-27T08:08:30.243Z</time>
      </trkpt>
      <trkpt lat="47.85101" lon="6.93819">
        <ele>1184.8</ele>
        <time>2026-08-27T08:08:31.252Z</time>
      </trkpt>
      <trkpt lat="47.85101" lon="6.93819">
        <ele>1185</ele>
        <time>2026-08-27T08:08:33.166Z</time>
      </trkpt>
      <trkpt lat="47.85101" lon="6.93819">
        <ele>1185.1</ele>
        <time>2026-08-27T08:08:34.174Z</time>
      </trkpt>
      <trkpt lat="47.85101" lon="6.93819">
        <ele>1185</ele>
        <time>2026-08-27T08:08:35.182Z</time>
      </trkpt>
      <trkpt lat="47.85102" lon="6.93819">
        <ele>1185.2</ele>
        <time>2026-08-27T08:08:36.191Z</time>
      </trkpt>
      <trkpt lat="47.85102" lon="6.93819">
        <ele>1185.2</ele>
        <time>2026-08-27T08:08:37.199Z</time>
      </trkpt>
      <trkpt lat="47.85102" lon="6.93819">
        <ele>1185</ele>
        <time>2026-08-27T08:08:38.207Z</time>
      </trkpt>
      <trkpt lat="47.85102" lon="6.93819">
        <ele>1185.1</ele>
        <time>2026-08-27T08:08:39.214Z</time>
      </trkpt>
      <trkpt lat="47.85102" lon="6.93819">
        <ele>1185</ele>
        <time>2026-08-27T08:08:40.223Z</time>
      </trkpt>
      <trkpt lat="47.85102" lon="6.93819">
        <ele>1184.9</ele>
        <time>2026-08-27T08:08:41.230Z</time>
      </trkpt>
      <trkpt lat="47.85102" lon="6.93819">
        <ele>1185.1</ele>
        <time>2026-08-27T08:08:42.239Z</time>
      </trkpt>
      <trkpt lat="47.85102" lon="6.93819">
        <ele>1184.8</ele>
        <time>2026-08-27T08:08:44.153Z</time>
      </trkpt>
      <trkpt lat="47.85102" lon="6.93819">
        <ele>1184.9</ele>
        <time>2026-08-27T08:08:45.161Z</time>
      </trkpt>
      <trkpt lat="47.85102" lon="6.93819">
        <ele>1185</ele>
        <time>2026-08-27T08:08:46.169Z</time>
      </trkpt>
      <trkpt lat="47.85102" lon="6.93819">
        <ele>1185.3</ele>
        <time>2026-08-27T08:08:47.178Z</time>
      </trkpt>
      <trkpt lat="47.85102" lon="6.93819">
        <ele>1185.2</ele>
        <time>2026-08-27T08:08:48.185Z</time>
      </trkpt>
      <trkpt lat="47.85102" lon="6.93819">
        <ele>1185.1</ele>
        <time>2026-08-27T08:08:49.194Z</time>
      </trkpt>
      <trkpt lat="47.85102" lon="6.93819">
        <ele>1184.9</ele>
        <time>2026-08-27T08:08:51.210Z</time>
      </trkpt>
      <trkpt lat="47.85102" lon="6.93819">
        <ele>1184.9</ele>
        <time>2026-08-27T08:08:52.218Z</time>
      </trkpt>
      <trkpt lat="47.85102" lon="6.93819">
        <ele>1184.7</ele>
        <time>2026-08-27T08:08:53.225Z</time>
      </trkpt>
      <trkpt lat="47.85102" lon="6.93819">
        <ele>1184.6</ele>
        <time>2026-08-27T08:08:54.233Z</time>
      </trkpt>
      <trkpt lat="47.85102" lon="6.93819">
        <ele>1184.5</ele>
        <time>2026-08-27T08:08:55.241Z</time>
      </trkpt>
      <trkpt lat="47.85102" lon="6.93819">
        <ele>1184.6</ele>
        <time>2026-08-27T08:08:56.249Z</time>
      </trkpt>
      <trkpt lat="47.85102" lon="6.93819">
        <ele>1184.7</ele>
        <time>2026-08-27T08:08:58.165Z</time>
      </trkpt>
      <trkpt lat="47.85102" lon="6.93819">
        <ele>1184.7</ele>
        <time>2026-08-27T08:08:59.173Z</time>
      </trkpt>
      <trkpt lat="47.85102" lon="6.93819">
        <ele>1184.5</ele>
        <time>2026-08-27T08:09:00.182Z</time>
      </trkpt>
      <trkpt lat="47.85102" lon="6.93819">
        <ele>1184.5</ele>
        <time>2026-08-27T08:09:01.189Z</time>
      </trkpt>
      <trkpt lat="47.85101" lon="6.93819">
        <ele>1184.6</ele>
        <time>2026-08-27T08:09:02.197Z</time>
      </trkpt>
      <trkpt lat="47.85101" lon="6.93819">
        <ele>1184.7</ele>
        <time>2026-08-27T08:09:03.206Z</time>
      </trkpt>
      <trkpt lat="47.85101" lon="6.93819">
        <ele>1184.4</ele>
        <time>2026-08-27T08:09:04.213Z</time>
      </trkpt>
      <trkpt lat="47.85101" lon="6.93819">
        <ele>1184.4</ele>
        <time>2026-08-27T08:09:05.221Z</time>
      </trkpt>
      <trkpt lat="47.85101" lon="6.93819">
        <ele>1184.8</ele>
        <time>2026-08-27T08:09:06.229Z</time>
      </trkpt>
      <trkpt lat="47.85101" lon="6.93819">
        <ele>1184.8</ele>
        <time>2026-08-27T08:09:07.237Z</time>
      </trkpt>
      <trkpt lat="47.85101" lon="6.93819">
        <ele>1184.9</ele>
        <time>2026-08-27T08:09:08.245Z</time>
      </trkpt>
      <trkpt lat="47.85101" lon="6.93819">
        <ele>1184.8</ele>
        <time>2026-08-27T08:09:10.160Z</time>
      </trkpt>
      <trkpt lat="47.85101" lon="6.93819">
        <ele>1185</ele>
        <time>2026-08-27T08:09:11.169Z</time>
      </trkpt>
      <trkpt lat="47.85101" lon="6.93819">
        <ele>1184.8</ele>
        <time>2026-08-27T08:09:12.177Z</time>
      </trkpt>
      <trkpt lat="47.85101" lon="6.93819">
        <ele>1184.8</ele>
        <time>2026-08-27T08:09:13.185Z</time>
      </trkpt>
      <trkpt lat="47.85101" lon="6.93819">
        <ele>1184.9</ele>
        <time>2026-08-27T08:09:14.192Z</time>
      </trkpt>
      <trkpt lat="47.85101" lon="6.93819">
        <ele>1185</ele>
        <time>2026-08-27T08:09:15.200Z</time>
      </trkpt>
      <trkpt lat="47.85101" lon="6.93819">
        <ele>1185.3</ele>
        <time>2026-08-27T08:09:16.208Z</time>
      </trkpt>
      <trkpt lat="47.85101" lon="6.93819">
        <ele>1185.2</ele>
        <time>2026-08-27T08:09:17.216Z</time>
      </trkpt>
      <trkpt lat="47.85101" lon="6.93819">
        <ele>1185.2</ele>
        <time>2026-08-27T08:09:18.224Z</time>
      </trkpt>
      <trkpt lat="47.85101" lon="6.93819">
        <ele>1184.9</ele>
        <time>2026-08-27T08:09:19.232Z</time>
      </trkpt>
      <trkpt lat="47.85101" lon="6.93819">
        <ele>1185</ele>
        <time>2026-08-27T08:09:20.240Z</time>
      </trkpt>
      <trkpt lat="47.85101" lon="6.93819">
        <ele>1184.9</ele>
        <time>2026-08-27T08:09:22.257Z</time>
      </trkpt>
      <trkpt lat="47.85101" lon="6.93819">
        <ele>1184.8</ele>
        <time>2026-08-27T08:09:24.172Z</time>
      </trkpt>
      <trkpt lat="47.85101" lon="6.93819">
        <ele>1184.9</ele>
        <time>2026-08-27T08:09:25.179Z</time>
      </trkpt>
      <trkpt lat="47.85101" lon="6.93819">
        <ele>1185.1</ele>
        <time>2026-08-27T08:09:26.187Z</time>
      </trkpt>
      <trkpt lat="47.85101" lon="6.93819">
        <ele>1185.1</ele>
        <time>2026-08-27T08:09:27.195Z</time>
      </trkpt>
      <trkpt lat="47.85101" lon="6.93819">
        <ele>1184.9</ele>
        <time>2026-08-27T08:09:28.204Z</time>
      </trkpt>
      <trkpt lat="47.85101" lon="6.93819">
        <ele>1184.9</ele>
        <time>2026-08-27T08:09:29.212Z</time>
      </trkpt>
      <trkpt lat="47.85101" lon="6.93819">
        <ele>1184.9</ele>
        <time>2026-08-27T08:09:30.219Z</time>
      </trkpt>
      <trkpt lat="47.85101" lon="6.93819">
        <ele>1184.8</ele>
        <time>2026-08-27T08:09:31.227Z</time>
      </trkpt>
      <trkpt lat="47.85101" lon="6.93819">
        <ele>1184.8</ele>
        <time>2026-08-27T08:09:33.244Z</time>
      </trkpt>
      <trkpt lat="47.85101" lon="6.93819">
        <ele>1184.8</ele>
        <time>2026-08-27T08:09:34.252Z</time>
      </trkpt>
      <trkpt lat="47.85101" lon="6.93819">
        <ele>1185.2</ele>
        <time>2026-08-27T08:09:36.166Z</time>
      </trkpt>
      <trkpt lat="47.85101" lon="6.93819">
        <ele>1185.2</ele>
        <time>2026-08-27T08:09:37.174Z</time>
      </trkpt>
      <trkpt lat="47.85101" lon="6.93819">
        <ele>1185.2</ele>
        <time>2026-08-27T08:09:38.224Z</time>
      </trkpt>
      <trkpt lat="47.85101" lon="6.93819">
        <ele>1185.2</ele>
        <time>2026-08-27T08:09:40.198Z</time>
      </trkpt>
      <trkpt lat="47.85101" lon="6.93819">
        <ele>1185.1</ele>
        <time>2026-08-27T08:09:41.206Z</time>
      </trkpt>
      <trkpt lat="47.85101" lon="6.93819">
        <ele>1185.1</ele>
        <time>2026-08-27T08:09:42.214Z</time>
      </trkpt>
      <trkpt lat="47.85101" lon="6.93819">
        <ele>1185.3</ele>
        <time>2026-08-27T08:09:43.222Z</time>
      </trkpt>
      <trkpt lat="47.85101" lon="6.93819">
        <ele>1185.5</ele>
        <time>2026-08-27T08:09:44.230Z</time>
      </trkpt>
      <trkpt lat="47.85101" lon="6.93819">
        <ele>1185.6</ele>
        <time>2026-08-27T08:09:45.239Z</time>
      </trkpt>
      <trkpt lat="47.85101" lon="6.93819">
        <ele>1185.6</ele>
        <time>2026-08-27T08:09:46.246Z</time>
      </trkpt>
      <trkpt lat="47.85101" lon="6.93819">
        <ele>1185.6</ele>
        <time>2026-08-27T08:09:47.255Z</time>
      </trkpt>
      <trkpt lat="47.85101" lon="6.93819">
        <ele>1185.5</ele>
        <time>2026-08-27T08:09:49.169Z</time>
      </trkpt>
      <trkpt lat="47.85101" lon="6.93819">
        <ele>1185.6</ele>
        <time>2026-08-27T08:09:50.177Z</time>
      </trkpt>
      <trkpt lat="47.85101" lon="6.93819">
        <ele>1185.5</ele>
        <time>2026-08-27T08:09:51.185Z</time>
      </trkpt>
      <trkpt lat="47.85101" lon="6.93819">
        <ele>1185.5</ele>
        <time>2026-08-27T08:09:52.194Z</time>
      </trkpt>
      <trkpt lat="47.85101" lon="6.93819">
        <ele>1185.4</ele>
        <time>2026-08-27T08:09:53.202Z</time>
      </trkpt>
      <trkpt lat="47.85101" lon="6.93819">
        <ele>1185.4</ele>
        <time>2026-08-27T08:09:54.210Z</time>
      </trkpt>
      <trkpt lat="47.85101" lon="6.93819">
        <ele>1185.6</ele>
        <time>2026-08-27T08:09:55.217Z</time>
      </trkpt>
      <trkpt lat="47.85101" lon="6.93819">
        <ele>1185.6</ele>
        <time>2026-08-27T08:09:56.225Z</time>
      </trkpt>
      <trkpt lat="47.85101" lon="6.93819">
        <ele>1185.5</ele>
        <time>2026-08-27T08:09:57.233Z</time>
      </trkpt>
      <trkpt lat="47.85101" lon="6.93819">
        <ele>1185.4</ele>
        <time>2026-08-27T08:09:58.242Z</time>
      </trkpt>
      <trkpt lat="47.85101" lon="6.93819">
        <ele>1185.4</ele>
        <time>2026-08-27T08:10:00.156Z</time>
      </trkpt>
      <trkpt lat="47.85101" lon="6.93819">
        <ele>1185.3</ele>
        <time>2026-08-27T08:10:01.164Z</time>
      </trkpt>
      <trkpt lat="47.85101" lon="6.93819">
        <ele>1185.2</ele>
        <time>2026-08-27T08:10:02.172Z</time>
      </trkpt>
      <trkpt lat="47.85101" lon="6.9382">
        <ele>1185.3</ele>
        <time>2026-08-27T08:10:03.180Z</time>
      </trkpt>
      <trkpt lat="47.85101" lon="6.9382">
        <ele>1185.7</ele>
        <time>2026-08-27T08:10:04.188Z</time>
      </trkpt>
      <trkpt lat="47.85101" lon="6.9382">
        <ele>1185.7</ele>
        <time>2026-08-27T08:10:05.196Z</time>
      </trkpt>
      <trkpt lat="47.85101" lon="6.9382">
        <ele>1185.8</ele>
        <time>2026-08-27T08:10:06.204Z</time>
      </trkpt>
      <trkpt lat="47.85101" lon="6.93819">
        <ele>1185.4</ele>
        <time>2026-08-27T08:10:07.213Z</time>
      </trkpt>
      <trkpt lat="47.85101" lon="6.93819">
        <ele>1185.5</ele>
        <time>2026-08-27T08:10:08.220Z</time>
      </trkpt>
      <trkpt lat="47.85101" lon="6.93819">
        <ele>1185.6</ele>
        <time>2026-08-27T08:10:09.229Z</time>
      </trkpt>
      <trkpt lat="47.85101" lon="6.93819">
        <ele>1185.6</ele>
        <time>2026-08-27T08:10:10.236Z</time>
      </trkpt>
      <trkpt lat="47.85101" lon="6.93819">
        <ele>1185.6</ele>
        <time>2026-08-27T08:10:11.244Z</time>
      </trkpt>
      <trkpt lat="47.85101" lon="6.93819">
        <ele>1185.5</ele>
        <time>2026-08-27T08:10:12.252Z</time>
      </trkpt>
      <trkpt lat="47.85101" lon="6.93819">
        <ele>1185.7</ele>
        <time>2026-08-27T08:10:14.168Z</time>
      </trkpt>
      <trkpt lat="47.85101" lon="6.93819">
        <ele>1185.6</ele>
        <time>2026-08-27T08:10:15.176Z</time>
      </trkpt>
      <trkpt lat="47.85101" lon="6.93819">
        <ele>1185.5</ele>
        <time>2026-08-27T08:10:16.185Z</time>
      </trkpt>
      <trkpt lat="47.85101" lon="6.93819">
        <ele>1185.4</ele>
        <time>2026-08-27T08:10:17.192Z</time>
      </trkpt>
      <trkpt lat="47.85101" lon="6.93819">
        <ele>1185.3</ele>
        <time>2026-08-27T08:10:18.201Z</time>
      </trkpt>
      <trkpt lat="47.85101" lon="6.93819">
        <ele>1185.5</ele>
        <time>2026-08-27T08:10:19.209Z</time>
      </trkpt>
      <trkpt lat="47.85101" lon="6.93819">
        <ele>1185.4</ele>
        <time>2026-08-27T08:10:20.216Z</time>
      </trkpt>
      <trkpt lat="47.85101" lon="6.93819">
        <ele>1185.3</ele>
        <time>2026-08-27T08:10:21.224Z</time>
      </trkpt>
      <trkpt lat="47.85101" lon="6.93819">
        <ele>1185.3</ele>
        <time>2026-08-27T08:10:22.232Z</time>
      </trkpt>
      <trkpt lat="47.85101" lon="6.93819">
        <ele>1185.3</ele>
        <time>2026-08-27T08:10:23.240Z</time>
      </trkpt>
      <trkpt lat="47.85101" lon="6.93819">
        <ele>1185.5</ele>
        <time>2026-08-27T08:10:24.248Z</time>
      </trkpt>
      <trkpt lat="47.85101" lon="6.93819">
        <ele>1185.4</ele>
        <time>2026-08-27T08:10:26.163Z</time>
      </trkpt>
      <trkpt lat="47.85101" lon="6.93819">
        <ele>1185.4</ele>
        <time>2026-08-27T08:10:27.171Z</time>
      </trkpt>
      <trkpt lat="47.85101" lon="6.93819">
        <ele>1185.1</ele>
        <time>2026-08-27T08:10:28.179Z</time>
      </trkpt>
      <trkpt lat="47.85101" lon="6.93819">
        <ele>1185.3</ele>
        <time>2026-08-27T08:10:29.187Z</time>
      </trkpt>
      <trkpt lat="47.85101" lon="6.93819">
        <ele>1185.2</ele>
        <time>2026-08-27T08:10:30.196Z</time>
      </trkpt>
      <trkpt lat="47.85101" lon="6.93819">
        <ele>1185.2</ele>
        <time>2026-08-27T08:10:31.203Z</time>
      </trkpt>
      <trkpt lat="47.85101" lon="6.93819">
        <ele>1185.2</ele>
        <time>2026-08-27T08:10:32.212Z</time>
      </trkpt>
      <trkpt lat="47.85101" lon="6.93819">
        <ele>1185.2</ele>
        <time>2026-08-27T08:10:33.227Z</time>
      </trkpt>
      <trkpt lat="47.85101" lon="6.93819">
        <ele>1185.6</ele>
        <time>2026-08-27T08:10:34.228Z</time>
      </trkpt>
      <trkpt lat="47.85101" lon="6.93819">
        <ele>1185.7</ele>
        <time>2026-08-27T08:10:35.235Z</time>
      </trkpt>
      <trkpt lat="47.85101" lon="6.93819">
        <ele>1185.4</ele>
        <time>2026-08-27T08:10:37.150Z</time>
      </trkpt>
      <trkpt lat="47.85101" lon="6.93819">
        <ele>1185.5</ele>
        <time>2026-08-27T08:10:38.159Z</time>
      </trkpt>
      <trkpt lat="47.85101" lon="6.93819">
        <ele>1185.5</ele>
        <time>2026-08-27T08:10:39.166Z</time>
      </trkpt>
      <trkpt lat="47.85101" lon="6.93819">
        <ele>1185.5</ele>
        <time>2026-08-27T08:10:40.175Z</time>
      </trkpt>
      <trkpt lat="47.85101" lon="6.93819">
        <ele>1185.5</ele>
        <time>2026-08-27T08:10:41.182Z</time>
      </trkpt>
      <trkpt lat="47.85101" lon="6.93819">
        <ele>1185.5</ele>
        <time>2026-08-27T08:10:42.191Z</time>
      </trkpt>
      <trkpt lat="47.85101" lon="6.93819">
        <ele>1185.6</ele>
        <time>2026-08-27T08:10:43.198Z</time>
      </trkpt>
      <trkpt lat="47.85101" lon="6.93819">
        <ele>1185.7</ele>
        <time>2026-08-27T08:10:44.207Z</time>
      </trkpt>
      <trkpt lat="47.85101" lon="6.93819">
        <ele>1185.7</ele>
        <time>2026-08-27T08:10:45.214Z</time>
      </trkpt>
      <trkpt lat="47.85101" lon="6.93819">
        <ele>1185.5</ele>
        <time>2026-08-27T08:10:46.222Z</time>
      </trkpt>
      <trkpt lat="47.85101" lon="6.93819">
        <ele>1185.5</ele>
        <time>2026-08-27T08:10:47.230Z</time>
      </trkpt>
      <trkpt lat="47.85101" lon="6.93819">
        <ele>1185.6</ele>
        <time>2026-08-27T08:10:48.238Z</time>
      </trkpt>
      <trkpt lat="47.85101" lon="6.93819">
        <ele>1185.6</ele>
        <time>2026-08-27T08:10:49.246Z</time>
      </trkpt>
      <trkpt lat="47.85101" lon="6.93819">
        <ele>1185.4</ele>
        <time>2026-08-27T08:10:50.255Z</time>
      </trkpt>
      <trkpt lat="47.851" lon="6.93819">
        <ele>1185.4</ele>
        <time>2026-08-27T08:10:52.170Z</time>
      </trkpt>
      <trkpt lat="47.851" lon="6.93819">
        <ele>1185.6</ele>
        <time>2026-08-27T08:10:53.178Z</time>
      </trkpt>
      <trkpt lat="47.851" lon="6.93819">
        <ele>1185.6</ele>
        <time>2026-08-27T08:10:54.186Z</time>
      </trkpt>
      <trkpt lat="47.851" lon="6.93819">
        <ele>1185.5</ele>
        <time>2026-08-27T08:10:55.194Z</time>
      </trkpt>
      <trkpt lat="47.851" lon="6.93819">
        <ele>1185.4</ele>
        <time>2026-08-27T08:10:56.201Z</time>
      </trkpt>
      <trkpt lat="47.851" lon="6.93819">
        <ele>1185.4</ele>
        <time>2026-08-27T08:10:57.209Z</time>
      </trkpt>
      <trkpt lat="47.851" lon="6.93819">
        <ele>1185.2</ele>
        <time>2026-08-27T08:10:58.217Z</time>
      </trkpt>
      <trkpt lat="47.851" lon="6.93819">
        <ele>1185.2</ele>
        <time>2026-08-27T08:10:59.225Z</time>
      </trkpt>
      <trkpt lat="47.851" lon="6.93819">
        <ele>1185.1</ele>
        <time>2026-08-27T08:11:00.234Z</time>
      </trkpt>
      <trkpt lat="47.851" lon="6.93819">
        <ele>1185.3</ele>
        <time>2026-08-27T08:11:01.242Z</time>
      </trkpt>
      <trkpt lat="47.851" lon="6.93819">
        <ele>1185.3</ele>
        <time>2026-08-27T08:11:02.250Z</time>
      </trkpt>
      <trkpt lat="47.851" lon="6.93819">
        <ele>1185.2</ele>
        <time>2026-08-27T08:11:03.258Z</time>
      </trkpt>
      <trkpt lat="47.851" lon="6.93819">
        <ele>1185.4</ele>
        <time>2026-08-27T08:11:05.172Z</time>
      </trkpt>
      <trkpt lat="47.851" lon="6.93819">
        <ele>1185.5</ele>
        <time>2026-08-27T08:11:06.181Z</time>
      </trkpt>
      <trkpt lat="47.851" lon="6.93819">
        <ele>1185.8</ele>
        <time>2026-08-27T08:11:07.188Z</time>
      </trkpt>
      <trkpt lat="47.851" lon="6.93819">
        <ele>1185.8</ele>
        <time>2026-08-27T08:11:08.196Z</time>
      </trkpt>
      <trkpt lat="47.851" lon="6.93819">
        <ele>1185.7</ele>
        <time>2026-08-27T08:11:09.205Z</time>
      </trkpt>
      <trkpt lat="47.851" lon="6.93819">
        <ele>1186</ele>
        <time>2026-08-27T08:11:10.212Z</time>
      </trkpt>
      <trkpt lat="47.851" lon="6.93819">
        <ele>1186.2</ele>
        <time>2026-08-27T08:11:12.128Z</time>
      </trkpt>
      <trkpt lat="47.851" lon="6.93819">
        <ele>1186.3</ele>
        <time>2026-08-27T08:11:13.135Z</time>
      </trkpt>
      <trkpt lat="47.851" lon="6.93819">
        <ele>1186.3</ele>
        <time>2026-08-27T08:11:14.144Z</time>
      </trkpt>
      <trkpt lat="47.851" lon="6.9382">
        <ele>1186.1</ele>
        <time>2026-08-27T08:11:15.151Z</time>
      </trkpt>
      <trkpt lat="47.851" lon="6.9382">
        <ele>1186.1</ele>
        <time>2026-08-27T08:11:16.159Z</time>
      </trkpt>
      <trkpt lat="47.85101" lon="6.9382">
        <ele>1186.1</ele>
        <time>2026-08-27T08:11:17.167Z</time>
      </trkpt>
      <trkpt lat="47.85101" lon="6.9382">
        <ele>1186.1</ele>
        <time>2026-08-27T08:11:18.176Z</time>
      </trkpt>
      <trkpt lat="47.85101" lon="6.9382">
        <ele>1185.9</ele>
        <time>2026-08-27T08:11:19.183Z</time>
      </trkpt>
      <trkpt lat="47.85101" lon="6.9382">
        <ele>1185.9</ele>
        <time>2026-08-27T08:11:20.192Z</time>
      </trkpt>
      <trkpt lat="47.85101" lon="6.9382">
        <ele>1186</ele>
        <time>2026-08-27T08:11:21.199Z</time>
      </trkpt>
      <trkpt lat="47.85101" lon="6.9382">
        <ele>1186.1</ele>
        <time>2026-08-27T08:11:22.207Z</time>
      </trkpt>
      <trkpt lat="47.85101" lon="6.9382">
        <ele>1186.1</ele>
        <time>2026-08-27T08:11:23.215Z</time>
      </trkpt>
      <trkpt lat="47.85101" lon="6.9382">
        <ele>1186.1</ele>
        <time>2026-08-27T08:11:24.224Z</time>
      </trkpt>
      <trkpt lat="47.85101" lon="6.9382">
        <ele>1185.9</ele>
        <time>2026-08-27T08:11:25.233Z</time>
      </trkpt>
      <trkpt lat="47.85101" lon="6.9382">
        <ele>1185.9</ele>
        <time>2026-08-27T08:11:27.148Z</time>
      </trkpt>
      <trkpt lat="47.85101" lon="6.9382">
        <ele>1185.8</ele>
        <time>2026-08-27T08:11:28.156Z</time>
      </trkpt>
      <trkpt lat="47.85101" lon="6.9382">
        <ele>1185.8</ele>
        <time>2026-08-27T08:11:29.164Z</time>
      </trkpt>
      <trkpt lat="47.85101" lon="6.9382">
        <ele>1185.8</ele>
        <time>2026-08-27T08:11:30.171Z</time>
      </trkpt>
      <trkpt lat="47.85101" lon="6.9382">
        <ele>1186.2</ele>
        <time>2026-08-27T08:11:31.179Z</time>
      </trkpt>
      <trkpt lat="47.85101" lon="6.9382">
        <ele>1186.3</ele>
        <time>2026-08-27T08:11:32.187Z</time>
      </trkpt>
      <trkpt lat="47.85101" lon="6.9382">
        <ele>1186.4</ele>
        <time>2026-08-27T08:11:33.196Z</time>
      </trkpt>
      <trkpt lat="47.85101" lon="6.9382">
        <ele>1186</ele>
        <time>2026-08-27T08:11:34.204Z</time>
      </trkpt>
      <trkpt lat="47.85101" lon="6.9382">
        <ele>1186.1</ele>
        <time>2026-08-27T08:11:35.211Z</time>
      </trkpt>
      <trkpt lat="47.85101" lon="6.9382">
        <ele>1186.4</ele>
        <time>2026-08-27T08:11:36.219Z</time>
      </trkpt>
      <trkpt lat="47.85101" lon="6.9382">
        <ele>1186.3</ele>
        <time>2026-08-27T08:11:38.135Z</time>
      </trkpt>
      <trkpt lat="47.85101" lon="6.9382">
        <ele>1186.4</ele>
        <time>2026-08-27T08:11:39.143Z</time>
      </trkpt>
      <trkpt lat="47.85101" lon="6.9382">
        <ele>1186.4</ele>
        <time>2026-08-27T08:11:40.151Z</time>
      </trkpt>
      <trkpt lat="47.85101" lon="6.9382">
        <ele>1186.6</ele>
        <time>2026-08-27T08:11:41.159Z</time>
      </trkpt>
      <trkpt lat="47.85101" lon="6.9382">
        <ele>1186.8</ele>
        <time>2026-08-27T08:11:42.167Z</time>
      </trkpt>
      <trkpt lat="47.85101" lon="6.9382">
        <ele>1186.6</ele>
        <time>2026-08-27T08:11:43.176Z</time>
      </trkpt>
      <trkpt lat="47.85101" lon="6.9382">
        <ele>1186.4</ele>
        <time>2026-08-27T08:11:44.183Z</time>
      </trkpt>
      <trkpt lat="47.85101" lon="6.9382">
        <ele>1186.6</ele>
        <time>2026-08-27T08:11:45.191Z</time>
      </trkpt>
      <trkpt lat="47.85101" lon="6.9382">
        <ele>1186.6</ele>
        <time>2026-08-27T08:11:46.199Z</time>
      </trkpt>
      <trkpt lat="47.85101" lon="6.9382">
        <ele>1186.4</ele>
        <time>2026-08-27T08:11:47.208Z</time>
      </trkpt>
      <trkpt lat="47.85101" lon="6.9382">
        <ele>1186.3</ele>
        <time>2026-08-27T08:11:48.215Z</time>
      </trkpt>
      <trkpt lat="47.85101" lon="6.9382">
        <ele>1186.6</ele>
        <time>2026-08-27T08:11:50.132Z</time>
      </trkpt>
      <trkpt lat="47.85101" lon="6.9382">
        <ele>1186.7</ele>
        <time>2026-08-27T08:11:51.139Z</time>
      </trkpt>
      <trkpt lat="47.85101" lon="6.9382">
        <ele>1186.6</ele>
        <time>2026-08-27T08:11:52.147Z</time>
      </trkpt>
      <trkpt lat="47.85101" lon="6.9382">
        <ele>1186.6</ele>
        <time>2026-08-27T08:11:53.156Z</time>
      </trkpt>
      <trkpt lat="47.85101" lon="6.9382">
        <ele>1186.3</ele>
        <time>2026-08-27T08:11:54.163Z</time>
      </trkpt>
      <trkpt lat="47.85101" lon="6.9382">
        <ele>1186.4</ele>
        <time>2026-08-27T08:11:55.171Z</time>
      </trkpt>
      <trkpt lat="47.85101" lon="6.9382">
        <ele>1186.3</ele>
        <time>2026-08-27T08:11:56.180Z</time>
      </trkpt>
      <trkpt lat="47.85101" lon="6.9382">
        <ele>1186.6</ele>
        <time>2026-08-27T08:11:57.188Z</time>
      </trkpt>
      <trkpt lat="47.85101" lon="6.9382">
        <ele>1186.2</ele>
        <time>2026-08-27T08:11:58.196Z</time>
      </trkpt>
      <trkpt lat="47.85101" lon="6.9382">
        <ele>1186.3</ele>
        <time>2026-08-27T08:11:59.204Z</time>
      </trkpt>
      <trkpt lat="47.85101" lon="6.9382">
        <ele>1186.7</ele>
        <time>2026-08-27T08:12:00.212Z</time>
      </trkpt>
      <trkpt lat="47.85101" lon="6.9382">
        <ele>1186.7</ele>
        <time>2026-08-27T08:12:01.220Z</time>
      </trkpt>
      <trkpt lat="47.85101" lon="6.9382">
        <ele>1186.6</ele>
        <time>2026-08-27T08:12:03.135Z</time>
      </trkpt>
      <trkpt lat="47.85101" lon="6.9382">
        <ele>1186.7</ele>
        <time>2026-08-27T08:12:04.144Z</time>
      </trkpt>
      <trkpt lat="47.85101" lon="6.9382">
        <ele>1186.9</ele>
        <time>2026-08-27T08:12:05.151Z</time>
      </trkpt>
      <trkpt lat="47.85101" lon="6.9382">
        <ele>1186.7</ele>
        <time>2026-08-27T08:12:06.160Z</time>
      </trkpt>
      <trkpt lat="47.85101" lon="6.9382">
        <ele>1186.7</ele>
        <time>2026-08-27T08:12:07.169Z</time>
      </trkpt>
      <trkpt lat="47.85101" lon="6.9382">
        <ele>1186.7</ele>
        <time>2026-08-27T08:12:08.176Z</time>
      </trkpt>
      <trkpt lat="47.85101" lon="6.9382">
        <ele>1186.8</ele>
        <time>2026-08-27T08:12:09.185Z</time>
      </trkpt>
      <trkpt lat="47.85101" lon="6.9382">
        <ele>1187.1</ele>
        <time>2026-08-27T08:12:10.192Z</time>
      </trkpt>
      <trkpt lat="47.85101" lon="6.9382">
        <ele>1187.1</ele>
        <time>2026-08-27T08:12:11.200Z</time>
      </trkpt>
      <trkpt lat="47.85101" lon="6.9382">
        <ele>1186.9</ele>
        <time>2026-08-27T08:12:12.208Z</time>
      </trkpt>
      <trkpt lat="47.85101" lon="6.9382">
        <ele>1186.6</ele>
        <time>2026-08-27T08:12:13.216Z</time>
      </trkpt>
      <trkpt lat="47.85101" lon="6.9382">
        <ele>1186.8</ele>
        <time>2026-08-27T08:12:14.224Z</time>
      </trkpt>
      <trkpt lat="47.85101" lon="6.9382">
        <ele>1186.8</ele>
        <time>2026-08-27T08:12:15.232Z</time>
      </trkpt>
      <trkpt lat="47.85101" lon="6.9382">
        <ele>1186.5</ele>
        <time>2026-08-27T08:12:17.249Z</time>
      </trkpt>
      <trkpt lat="47.85101" lon="6.9382">
        <ele>1186.8</ele>
        <time>2026-08-27T08:12:19.164Z</time>
      </trkpt>
      <trkpt lat="47.85101" lon="6.9382">
        <ele>1186.9</ele>
        <time>2026-08-27T08:12:20.173Z</time>
      </trkpt>
      <trkpt lat="47.85101" lon="6.9382">
        <ele>1186.8</ele>
        <time>2026-08-27T08:12:21.181Z</time>
      </trkpt>
      <trkpt lat="47.85101" lon="6.9382">
        <ele>1186.7</ele>
        <time>2026-08-27T08:12:22.230Z</time>
      </trkpt>
      <trkpt lat="47.85101" lon="6.9382">
        <ele>1186.5</ele>
        <time>2026-08-27T08:12:24.204Z</time>
      </trkpt>
      <trkpt lat="47.85101" lon="6.9382">
        <ele>1186.4</ele>
        <time>2026-08-27T08:12:25.213Z</time>
      </trkpt>
      <trkpt lat="47.85101" lon="6.9382">
        <ele>1186.6</ele>
        <time>2026-08-27T08:12:26.237Z</time>
      </trkpt>
      <trkpt lat="47.85101" lon="6.9382">
        <ele>1186.6</ele>
        <time>2026-08-27T08:12:28.237Z</time>
      </trkpt>
      <trkpt lat="47.85101" lon="6.9382">
        <ele>1186.3</ele>
        <time>2026-08-27T08:12:30.152Z</time>
      </trkpt>
      <trkpt lat="47.85101" lon="6.9382">
        <ele>1186.4</ele>
        <time>2026-08-27T08:12:31.160Z</time>
      </trkpt>
      <trkpt lat="47.85101" lon="6.9382">
        <ele>1186.3</ele>
        <time>2026-08-27T08:12:32.168Z</time>
      </trkpt>
      <trkpt lat="47.85101" lon="6.9382">
        <ele>1186.4</ele>
        <time>2026-08-27T08:12:33.177Z</time>
      </trkpt>
      <trkpt lat="47.85101" lon="6.9382">
        <ele>1186.4</ele>
        <time>2026-08-27T08:12:34.186Z</time>
      </trkpt>
      <trkpt lat="47.85101" lon="6.9382">
        <ele>1186.3</ele>
        <time>2026-08-27T08:12:35.194Z</time>
      </trkpt>
      <trkpt lat="47.851" lon="6.9382">
        <ele>1186.3</ele>
        <time>2026-08-27T08:12:36.202Z</time>
      </trkpt>
      <trkpt lat="47.851" lon="6.9382">
        <ele>1186.4</ele>
        <time>2026-08-27T08:12:37.210Z</time>
      </trkpt>
      <trkpt lat="47.851" lon="6.9382">
        <ele>1186.5</ele>
        <time>2026-08-27T08:12:38.217Z</time>
      </trkpt>
      <trkpt lat="47.851" lon="6.9382">
        <ele>1186.7</ele>
        <time>2026-08-27T08:12:39.225Z</time>
      </trkpt>
      <trkpt lat="47.851" lon="6.9382">
        <ele>1186.7</ele>
        <time>2026-08-27T08:12:40.233Z</time>
      </trkpt>
      <trkpt lat="47.851" lon="6.9382">
        <ele>1186.5</ele>
        <time>2026-08-27T08:12:41.241Z</time>
      </trkpt>
      <trkpt lat="47.851" lon="6.9382">
        <ele>1186.2</ele>
        <time>2026-08-27T08:12:42.250Z</time>
      </trkpt>
      <trkpt lat="47.851" lon="6.9382">
        <ele>1186.3</ele>
        <time>2026-08-27T08:12:44.165Z</time>
      </trkpt>
      <trkpt lat="47.851" lon="6.9382">
        <ele>1186.4</ele>
        <time>2026-08-27T08:12:45.174Z</time>
      </trkpt>
      <trkpt lat="47.851" lon="6.9382">
        <ele>1186.1</ele>
        <time>2026-08-27T08:12:46.181Z</time>
      </trkpt>
      <trkpt lat="47.851" lon="6.9382">
        <ele>1186.2</ele>
        <time>2026-08-27T08:12:47.189Z</time>
      </trkpt>
      <trkpt lat="47.851" lon="6.9382">
        <ele>1186.4</ele>
        <time>2026-08-27T08:12:48.197Z</time>
      </trkpt>
      <trkpt lat="47.851" lon="6.9382">
        <ele>1186.5</ele>
        <time>2026-08-27T08:12:49.205Z</time>
      </trkpt>
      <trkpt lat="47.851" lon="6.9382">
        <ele>1186.3</ele>
        <time>2026-08-27T08:12:50.213Z</time>
      </trkpt>
      <trkpt lat="47.851" lon="6.9382">
        <ele>1186.2</ele>
        <time>2026-08-27T08:12:51.221Z</time>
      </trkpt>
      <trkpt lat="47.851" lon="6.9382">
        <ele>1186.3</ele>
        <time>2026-08-27T08:12:52.229Z</time>
      </trkpt>
      <trkpt lat="47.851" lon="6.9382">
        <ele>1186.4</ele>
        <time>2026-08-27T08:12:53.237Z</time>
      </trkpt>
      <trkpt lat="47.851" lon="6.9382">
        <ele>1186.3</ele>
        <time>2026-08-27T08:12:54.246Z</time>
      </trkpt>
      <trkpt lat="47.851" lon="6.9382">
        <ele>1186.3</ele>
        <time>2026-08-27T08:12:55.253Z</time>
      </trkpt>
      <trkpt lat="47.851" lon="6.9382">
        <ele>1186.5</ele>
        <time>2026-08-27T08:12:57.270Z</time>
      </trkpt>
      <trkpt lat="47.851" lon="6.9382">
        <ele>1186.4</ele>
        <time>2026-08-27T08:12:59.185Z</time>
      </trkpt>
      <trkpt lat="47.851" lon="6.9382">
        <ele>1186.4</ele>
        <time>2026-08-27T08:13:00.194Z</time>
      </trkpt>
      <trkpt lat="47.851" lon="6.9382">
        <ele>1186.4</ele>
        <time>2026-08-27T08:13:01.202Z</time>
      </trkpt>
      <trkpt lat="47.851" lon="6.9382">
        <ele>1186.4</ele>
        <time>2026-08-27T08:13:02.210Z</time>
      </trkpt>
      <trkpt lat="47.851" lon="6.93819">
        <ele>1186.5</ele>
        <time>2026-08-27T08:13:03.218Z</time>
      </trkpt>
      <trkpt lat="47.851" lon="6.9382">
        <ele>1186.4</ele>
        <time>2026-08-27T08:13:04.225Z</time>
      </trkpt>
      <trkpt lat="47.851" lon="6.9382">
        <ele>1186.5</ele>
        <time>2026-08-27T08:13:05.234Z</time>
      </trkpt>
      <trkpt lat="47.851" lon="6.9382">
        <ele>1186.6</ele>
        <time>2026-08-27T08:13:06.242Z</time>
      </trkpt>
      <trkpt lat="47.851" lon="6.9382">
        <ele>1186.6</ele>
        <time>2026-08-27T08:13:07.250Z</time>
      </trkpt>
      <trkpt lat="47.851" lon="6.9382">
        <ele>1186.5</ele>
        <time>2026-08-27T08:13:09.164Z</time>
      </trkpt>
      <trkpt lat="47.851" lon="6.9382">
        <ele>1186.4</ele>
        <time>2026-08-27T08:13:10.172Z</time>
      </trkpt>
      <trkpt lat="47.851" lon="6.9382">
        <ele>1186.4</ele>
        <time>2026-08-27T08:13:11.181Z</time>
      </trkpt>
      <trkpt lat="47.851" lon="6.9382">
        <ele>1186.3</ele>
        <time>2026-08-27T08:13:12.189Z</time>
      </trkpt>
      <trkpt lat="47.851" lon="6.9382">
        <ele>1186.4</ele>
        <time>2026-08-27T08:13:13.196Z</time>
      </trkpt>
      <trkpt lat="47.851" lon="6.9382">
        <ele>1186.5</ele>
        <time>2026-08-27T08:13:14.204Z</time>
      </trkpt>
      <trkpt lat="47.851" lon="6.9382">
        <ele>1186.1</ele>
        <time>2026-08-27T08:13:15.213Z</time>
      </trkpt>
      <trkpt lat="47.851" lon="6.9382">
        <ele>1186.3</ele>
        <time>2026-08-27T08:13:16.222Z</time>
      </trkpt>
      <trkpt lat="47.851" lon="6.9382">
        <ele>1186.3</ele>
        <time>2026-08-27T08:13:17.229Z</time>
      </trkpt>
      <trkpt lat="47.851" lon="6.9382">
        <ele>1186.4</ele>
        <time>2026-08-27T08:13:18.237Z</time>
      </trkpt>
      <trkpt lat="47.851" lon="6.9382">
        <ele>1186.3</ele>
        <time>2026-08-27T08:13:19.245Z</time>
      </trkpt>
      <trkpt lat="47.851" lon="6.9382">
        <ele>1186.3</ele>
        <time>2026-08-27T08:13:20.253Z</time>
      </trkpt>
      <trkpt lat="47.851" lon="6.9382">
        <ele>1186.1</ele>
        <time>2026-08-27T08:13:22.168Z</time>
      </trkpt>
      <trkpt lat="47.851" lon="6.9382">
        <ele>1186.3</ele>
        <time>2026-08-27T08:13:23.177Z</time>
      </trkpt>
      <trkpt lat="47.851" lon="6.9382">
        <ele>1186.3</ele>
        <time>2026-08-27T08:13:24.185Z</time>
      </trkpt>
      <trkpt lat="47.851" lon="6.9382">
        <ele>1186.3</ele>
        <time>2026-08-27T08:13:25.192Z</time>
      </trkpt>
      <trkpt lat="47.851" lon="6.9382">
        <ele>1186.5</ele>
        <time>2026-08-27T08:13:26.200Z</time>
      </trkpt>
      <trkpt lat="47.851" lon="6.9382">
        <ele>1186.3</ele>
        <time>2026-08-27T08:13:27.208Z</time>
      </trkpt>
      <trkpt lat="47.851" lon="6.9382">
        <ele>1186.4</ele>
        <time>2026-08-27T08:13:28.217Z</time>
      </trkpt>
      <trkpt lat="47.851" lon="6.9382">
        <ele>1186.4</ele>
        <time>2026-08-27T08:13:29.225Z</time>
      </trkpt>
      <trkpt lat="47.851" lon="6.9382">
        <ele>1186.4</ele>
        <time>2026-08-27T08:13:30.232Z</time>
      </trkpt>
      <trkpt lat="47.851" lon="6.9382">
        <ele>1186.4</ele>
        <time>2026-08-27T08:13:31.240Z</time>
      </trkpt>
      <trkpt lat="47.851" lon="6.9382">
        <ele>1186.5</ele>
        <time>2026-08-27T08:13:32.248Z</time>
      </trkpt>
      <trkpt lat="47.851" lon="6.9382">
        <ele>1186.4</ele>
        <time>2026-08-27T08:13:33.256Z</time>
      </trkpt>
      <trkpt lat="47.851" lon="6.93821">
        <ele>1186.6</ele>
        <time>2026-08-27T08:13:35.172Z</time>
      </trkpt>
      <trkpt lat="47.851" lon="6.93821">
        <ele>1186.4</ele>
        <time>2026-08-27T08:13:36.181Z</time>
      </trkpt>
      <trkpt lat="47.851" lon="6.93821">
        <ele>1186.7</ele>
        <time>2026-08-27T08:13:37.189Z</time>
      </trkpt>
      <trkpt lat="47.85101" lon="6.93821">
        <ele>1186.5</ele>
        <time>2026-08-27T08:13:38.196Z</time>
      </trkpt>
      <trkpt lat="47.85101" lon="6.93821">
        <ele>1186.3</ele>
        <time>2026-08-27T08:13:39.205Z</time>
      </trkpt>
      <trkpt lat="47.85101" lon="6.93821">
        <ele>1186.2</ele>
        <time>2026-08-27T08:13:40.212Z</time>
      </trkpt>
      <trkpt lat="47.85101" lon="6.93821">
        <ele>1186.3</ele>
        <time>2026-08-27T08:13:41.221Z</time>
      </trkpt>
      <trkpt lat="47.85102" lon="6.93822">
        <ele>1186.2</ele>
        <time>2026-08-27T08:13:42.245Z</time>
      </trkpt>
      <trkpt lat="47.85105" lon="6.93825">
        <ele>1185.6</ele>
        <time>2026-08-27T08:13:44.244Z</time>
      </trkpt>
      <trkpt lat="47.85106" lon="6.93826">
        <ele>1185.7</ele>
        <time>2026-08-27T08:13:45.253Z</time>
      </trkpt>
      <trkpt lat="47.85108" lon="6.93828">
        <ele>1185.7</ele>
        <time>2026-08-27T08:13:47.125Z</time>
      </trkpt>
      <trkpt lat="47.85109" lon="6.93829">
        <ele>1185.3</ele>
        <time>2026-08-27T08:13:48.176Z</time>
      </trkpt>
      <trkpt lat="47.85111" lon="6.9383">
        <ele>1185.2</ele>
        <time>2026-08-27T08:13:49.183Z</time>
      </trkpt>
      <trkpt lat="47.85112" lon="6.93831">
        <ele>1185</ele>
        <time>2026-08-27T08:13:50.191Z</time>
      </trkpt>
      <trkpt lat="47.85113" lon="6.93832">
        <ele>1185</ele>
        <time>2026-08-27T08:13:51.249Z</time>
      </trkpt>
      <trkpt lat="47.85114" lon="6.93835">
        <ele>1184.7</ele>
        <time>2026-08-27T08:13:53.215Z</time>
      </trkpt>
      <trkpt lat="47.85115" lon="6.93835">
        <ele>1184.7</ele>
        <time>2026-08-27T08:13:54.223Z</time>
      </trkpt>
      <trkpt lat="47.85117" lon="6.93837">
        <ele>1184.5</ele>
        <time>2026-08-27T08:13:56.138Z</time>
      </trkpt>
      <trkpt lat="47.85118" lon="6.93838">
        <ele>1184.5</ele>
        <time>2026-08-27T08:13:57.146Z</time>
      </trkpt>
      <trkpt lat="47.85119" lon="6.9384">
        <ele>1184.1</ele>
        <time>2026-08-27T08:13:58.255Z</time>
      </trkpt>
      <trkpt lat="47.8512" lon="6.93841">
        <ele>1183.8</ele>
        <time>2026-08-27T08:14:00.170Z</time>
      </trkpt>
      <trkpt lat="47.85122" lon="6.93842">
        <ele>1183.7</ele>
        <time>2026-08-27T08:14:02.186Z</time>
      </trkpt>
      <trkpt lat="47.85123" lon="6.93843">
        <ele>1183.6</ele>
        <time>2026-08-27T08:14:03.194Z</time>
      </trkpt>
      <trkpt lat="47.85124" lon="6.93845">
        <ele>1183.4</ele>
        <time>2026-08-27T08:14:05.212Z</time>
      </trkpt>
      <trkpt lat="47.85125" lon="6.93846">
        <ele>1183.6</ele>
        <time>2026-08-27T08:14:06.219Z</time>
      </trkpt>
      <trkpt lat="47.85126" lon="6.93847">
        <ele>1183.4</ele>
        <time>2026-08-27T08:14:07.228Z</time>
      </trkpt>
      <trkpt lat="47.85127" lon="6.93848">
        <ele>1183.1</ele>
        <time>2026-08-27T08:14:08.235Z</time>
      </trkpt>
      <trkpt lat="47.85127" lon="6.93849">
        <ele>1182.9</ele>
        <time>2026-08-27T08:14:09.243Z</time>
      </trkpt>
      <trkpt lat="47.85128" lon="6.9385">
        <ele>1182.9</ele>
        <time>2026-08-27T08:14:10.251Z</time>
      </trkpt>
      <trkpt lat="47.8513" lon="6.93853">
        <ele>1182.8</ele>
        <time>2026-08-27T08:14:12.166Z</time>
      </trkpt>
      <trkpt lat="47.8513" lon="6.93854">
        <ele>1182.3</ele>
        <time>2026-08-27T08:14:13.174Z</time>
      </trkpt>
      <trkpt lat="47.85131" lon="6.93855">
        <ele>1182.4</ele>
        <time>2026-08-27T08:14:14.182Z</time>
      </trkpt>
      <trkpt lat="47.85132" lon="6.93856">
        <ele>1182.3</ele>
        <time>2026-08-27T08:14:15.191Z</time>
      </trkpt>
      <trkpt lat="47.85133" lon="6.93858">
        <ele>1182.2</ele>
        <time>2026-08-27T08:14:16.198Z</time>
      </trkpt>
      <trkpt lat="47.85133" lon="6.93859">
        <ele>1181.9</ele>
        <time>2026-08-27T08:14:17.206Z</time>
      </trkpt>
      <trkpt lat="47.85134" lon="6.9386">
        <ele>1181.7</ele>
        <time>2026-08-27T08:14:18.289Z</time>
      </trkpt>
      <trkpt lat="47.85135" lon="6.93863">
        <ele>1181.2</ele>
        <time>2026-08-27T08:14:20.230Z</time>
      </trkpt>
      <trkpt lat="47.85136" lon="6.93866">
        <ele>1181.1</ele>
        <time>2026-08-27T08:14:22.247Z</time>
      </trkpt>
      <trkpt lat="47.85137" lon="6.93869">
        <ele>1181.1</ele>
        <time>2026-08-27T08:14:24.270Z</time>
      </trkpt>
      <trkpt lat="47.85138" lon="6.9387">
        <ele>1180.9</ele>
        <time>2026-08-27T08:14:25.414Z</time>
      </trkpt>
      <trkpt lat="47.85139" lon="6.93872">
        <ele>1180.8</ele>
        <time>2026-08-27T08:14:27.068Z</time>
      </trkpt>
      <trkpt lat="47.85139" lon="6.93874">
        <ele>1180.7</ele>
        <time>2026-08-27T08:14:28.227Z</time>
      </trkpt>
      <trkpt lat="47.8514" lon="6.93876">
        <ele>1180.4</ele>
        <time>2026-08-27T08:14:30.210Z</time>
      </trkpt>
      <trkpt lat="47.85141" lon="6.93878">
        <ele>1180.2</ele>
        <time>2026-08-27T08:14:31.217Z</time>
      </trkpt>
      <trkpt lat="47.85142" lon="6.93879">
        <ele>1180.3</ele>
        <time>2026-08-27T08:14:32.225Z</time>
      </trkpt>
      <trkpt lat="47.85143" lon="6.9388">
        <ele>1180.5</ele>
        <time>2026-08-27T08:14:33.233Z</time>
      </trkpt>
      <trkpt lat="47.85144" lon="6.93883">
        <ele>1180.2</ele>
        <time>2026-08-27T08:14:35.250Z</time>
      </trkpt>
      <trkpt lat="47.85144" lon="6.93886">
        <ele>1180.2</ele>
        <time>2026-08-27T08:14:37.164Z</time>
      </trkpt>
      <trkpt lat="47.85145" lon="6.93889">
        <ele>1180</ele>
        <time>2026-08-27T08:14:39.180Z</time>
      </trkpt>
      <trkpt lat="47.85145" lon="6.93891">
        <ele>1180.1</ele>
        <time>2026-08-27T08:14:40.188Z</time>
      </trkpt>
      <trkpt lat="47.85146" lon="6.93894">
        <ele>1180</ele>
        <time>2026-08-27T08:14:42.205Z</time>
      </trkpt>
      <trkpt lat="47.85146" lon="6.93896">
        <ele>1180.3</ele>
        <time>2026-08-27T08:14:43.212Z</time>
      </trkpt>
      <trkpt lat="47.85147" lon="6.93899">
        <ele>1180.6</ele>
        <time>2026-08-27T08:14:45.229Z</time>
      </trkpt>
      <trkpt lat="47.85148" lon="6.93901">
        <ele>1180.4</ele>
        <time>2026-08-27T08:14:47.144Z</time>
      </trkpt>
      <trkpt lat="47.85148" lon="6.93903">
        <ele>1180.3</ele>
        <time>2026-08-27T08:14:48.252Z</time>
      </trkpt>
      <trkpt lat="47.8515" lon="6.93906">
        <ele>1180.3</ele>
        <time>2026-08-27T08:14:50.186Z</time>
      </trkpt>
      <trkpt lat="47.85151" lon="6.93909">
        <ele>1180.4</ele>
        <time>2026-08-27T08:14:52.252Z</time>
      </trkpt>
      <trkpt lat="47.85152" lon="6.93911">
        <ele>1180.2</ele>
        <time>2026-08-27T08:14:54.200Z</time>
      </trkpt>
      <trkpt lat="47.85152" lon="6.93913">
        <ele>1180.2</ele>
        <time>2026-08-27T08:14:55.208Z</time>
      </trkpt>
      <trkpt lat="47.85153" lon="6.93914">
        <ele>1180.2</ele>
        <time>2026-08-27T08:14:56.217Z</time>
      </trkpt>
      <trkpt lat="47.85154" lon="6.93916">
        <ele>1180.2</ele>
        <time>2026-08-27T08:14:58.233Z</time>
      </trkpt>
      <trkpt lat="47.85155" lon="6.93918">
        <ele>1180.1</ele>
        <time>2026-08-27T08:14:59.241Z</time>
      </trkpt>
      <trkpt lat="47.85156" lon="6.9392">
        <ele>1179.9</ele>
        <time>2026-08-27T08:15:01.256Z</time>
      </trkpt>
      <trkpt lat="47.85156" lon="6.93921">
        <ele>1179.8</ele>
        <time>2026-08-27T08:15:03.171Z</time>
      </trkpt>
      <trkpt lat="47.85157" lon="6.93922">
        <ele>1179.7</ele>
        <time>2026-08-27T08:15:04.179Z</time>
      </trkpt>
      <trkpt lat="47.85157" lon="6.93924">
        <ele>1179.8</ele>
        <time>2026-08-27T08:15:05.187Z</time>
      </trkpt>
      <trkpt lat="47.85158" lon="6.93925">
        <ele>1179.5</ele>
        <time>2026-08-27T08:15:06.195Z</time>
      </trkpt>
      <trkpt lat="47.85158" lon="6.93926">
        <ele>1179.5</ele>
        <time>2026-08-27T08:15:07.204Z</time>
      </trkpt>
      <trkpt lat="47.85158" lon="6.93928">
        <ele>1179.4</ele>
        <time>2026-08-27T08:15:08.211Z</time>
      </trkpt>
      <trkpt lat="47.85158" lon="6.9393">
        <ele>1179.5</ele>
        <time>2026-08-27T08:15:10.227Z</time>
      </trkpt>
      <trkpt lat="47.85158" lon="6.93931">
        <ele>1179.2</ele>
        <time>2026-08-27T08:15:11.235Z</time>
      </trkpt>
      <trkpt lat="47.85158" lon="6.93932">
        <ele>1179.4</ele>
        <time>2026-08-27T08:15:12.244Z</time>
      </trkpt>
      <trkpt lat="47.85159" lon="6.93934">
        <ele>1179.4</ele>
        <time>2026-08-27T08:15:14.151Z</time>
      </trkpt>
      <trkpt lat="47.85159" lon="6.93936">
        <ele>1179.2</ele>
        <time>2026-08-27T08:15:15.174Z</time>
      </trkpt>
      <trkpt lat="47.8516" lon="6.93939">
        <ele>1179.1</ele>
        <time>2026-08-27T08:15:17.191Z</time>
      </trkpt>
      <trkpt lat="47.8516" lon="6.9394">
        <ele>1179</ele>
        <time>2026-08-27T08:15:18.199Z</time>
      </trkpt>
      <trkpt lat="47.85161" lon="6.93941">
        <ele>1178.8</ele>
        <time>2026-08-27T08:15:19.206Z</time>
      </trkpt>
      <trkpt lat="47.85162" lon="6.93945">
        <ele>1178.9</ele>
        <time>2026-08-27T08:15:21.222Z</time>
      </trkpt>
      <trkpt lat="47.85163" lon="6.93948">
        <ele>1178.4</ele>
        <time>2026-08-27T08:15:23.239Z</time>
      </trkpt>
      <trkpt lat="47.85164" lon="6.93949">
        <ele>1178.5</ele>
        <time>2026-08-27T08:15:24.246Z</time>
      </trkpt>
      <trkpt lat="47.85164" lon="6.93952">
        <ele>1178.3</ele>
        <time>2026-08-27T08:15:26.204Z</time>
      </trkpt>
      <trkpt lat="47.85165" lon="6.93955">
        <ele>1178.2</ele>
        <time>2026-08-27T08:15:28.220Z</time>
      </trkpt>
      <trkpt lat="47.85165" lon="6.93958">
        <ele>1178.3</ele>
        <time>2026-08-27T08:15:30.194Z</time>
      </trkpt>
      <trkpt lat="47.85165" lon="6.9396">
        <ele>1178.2</ele>
        <time>2026-08-27T08:15:31.202Z</time>
      </trkpt>
      <trkpt lat="47.85165" lon="6.93961">
        <ele>1178.1</ele>
        <time>2026-08-27T08:15:32.210Z</time>
      </trkpt>
      <trkpt lat="47.85165" lon="6.93963">
        <ele>1178.3</ele>
        <time>2026-08-27T08:15:33.218Z</time>
      </trkpt>
      <trkpt lat="47.85166" lon="6.93964">
        <ele>1178.2</ele>
        <time>2026-08-27T08:15:34.226Z</time>
      </trkpt>
      <trkpt lat="47.85166" lon="6.93966">
        <ele>1177.9</ele>
        <time>2026-08-27T08:15:35.234Z</time>
      </trkpt>
      <trkpt lat="47.85166" lon="6.93968">
        <ele>1178</ele>
        <time>2026-08-27T08:15:36.242Z</time>
      </trkpt>
      <trkpt lat="47.85166" lon="6.93971">
        <ele>1177.8</ele>
        <time>2026-08-27T08:15:38.258Z</time>
      </trkpt>
      <trkpt lat="47.85167" lon="6.93974">
        <ele>1177.4</ele>
        <time>2026-08-27T08:15:40.173Z</time>
      </trkpt>
      <trkpt lat="47.85167" lon="6.93976">
        <ele>1177.5</ele>
        <time>2026-08-27T08:15:41.181Z</time>
      </trkpt>
      <trkpt lat="47.85167" lon="6.93977">
        <ele>1177.5</ele>
        <time>2026-08-27T08:15:42.189Z</time>
      </trkpt>
      <trkpt lat="47.85168" lon="6.93979">
        <ele>1177.5</ele>
        <time>2026-08-27T08:15:43.240Z</time>
      </trkpt>
      <trkpt lat="47.85168" lon="6.93981">
        <ele>1177.1</ele>
        <time>2026-08-27T08:15:45.263Z</time>
      </trkpt>
      <trkpt lat="47.85169" lon="6.93984">
        <ele>1176.8</ele>
        <time>2026-08-27T08:15:47.229Z</time>
      </trkpt>
      <trkpt lat="47.85169" lon="6.93986">
        <ele>1176.6</ele>
        <time>2026-08-27T08:15:48.237Z</time>
      </trkpt>
      <trkpt lat="47.8517" lon="6.93989">
        <ele>1176.5</ele>
        <time>2026-08-27T08:15:50.152Z</time>
      </trkpt>
      <trkpt lat="47.8517" lon="6.93991">
        <ele>1176.3</ele>
        <time>2026-08-27T08:15:51.262Z</time>
      </trkpt>
      <trkpt lat="47.8517" lon="6.93993">
        <ele>1176</ele>
        <time>2026-08-27T08:15:53.176Z</time>
      </trkpt>
      <trkpt lat="47.8517" lon="6.93996">
        <ele>1175.5</ele>
        <time>2026-08-27T08:15:55.192Z</time>
      </trkpt>
      <trkpt lat="47.8517" lon="6.93997">
        <ele>1175.4</ele>
        <time>2026-08-27T08:15:56.201Z</time>
      </trkpt>
      <trkpt lat="47.85171" lon="6.93998">
        <ele>1175.4</ele>
        <time>2026-08-27T08:15:57.209Z</time>
      </trkpt>
      <trkpt lat="47.85171" lon="6.94">
        <ele>1174.9</ele>
        <time>2026-08-27T08:15:58.216Z</time>
      </trkpt>
      <trkpt lat="47.85171" lon="6.94001">
        <ele>1175.2</ele>
        <time>2026-08-27T08:15:59.224Z</time>
      </trkpt>
      <trkpt lat="47.85171" lon="6.94004">
        <ele>1174.9</ele>
        <time>2026-08-27T08:16:01.240Z</time>
      </trkpt>
      <trkpt lat="47.85172" lon="6.94006">
        <ele>1175</ele>
        <time>2026-08-27T08:16:02.248Z</time>
      </trkpt>
      <trkpt lat="47.85172" lon="6.94008">
        <ele>1175</ele>
        <time>2026-08-27T08:16:03.273Z</time>
      </trkpt>
      <trkpt lat="47.85171" lon="6.9401">
        <ele>1174.2</ele>
        <time>2026-08-27T08:16:05.188Z</time>
      </trkpt>
      <trkpt lat="47.85171" lon="6.94012">
        <ele>1174</ele>
        <time>2026-08-27T08:16:06.196Z</time>
      </trkpt>
      <trkpt lat="47.85171" lon="6.94014">
        <ele>1173.9</ele>
        <time>2026-08-27T08:16:07.204Z</time>
      </trkpt>
      <trkpt lat="47.8517" lon="6.94015">
        <ele>1173.8</ele>
        <time>2026-08-27T08:16:08.212Z</time>
      </trkpt>
      <trkpt lat="47.8517" lon="6.94017">
        <ele>1173.8</ele>
        <time>2026-08-27T08:16:09.253Z</time>
      </trkpt>
      <trkpt lat="47.85169" lon="6.94019">
        <ele>1173.4</ele>
        <time>2026-08-27T08:16:11.237Z</time>
      </trkpt>
      <trkpt lat="47.85169" lon="6.94022">
        <ele>1173.1</ele>
        <time>2026-08-27T08:16:13.252Z</time>
      </trkpt>
      <trkpt lat="47.85168" lon="6.94024">
        <ele>1172.8</ele>
        <time>2026-08-27T08:16:15.168Z</time>
      </trkpt>
      <trkpt lat="47.85168" lon="6.94025">
        <ele>1172.6</ele>
        <time>2026-08-27T08:16:16.175Z</time>
      </trkpt>
      <trkpt lat="47.85167" lon="6.94027">
        <ele>1172.5</ele>
        <time>2026-08-27T08:16:17.183Z</time>
      </trkpt>
      <trkpt lat="47.85167" lon="6.94028">
        <ele>1172.4</ele>
        <time>2026-08-27T08:16:18.275Z</time>
      </trkpt>
      <trkpt lat="47.85166" lon="6.9403">
        <ele>1172.5</ele>
        <time>2026-08-27T08:16:20.131Z</time>
      </trkpt>
      <trkpt lat="47.85166" lon="6.94032">
        <ele>1172.2</ele>
        <time>2026-08-27T08:16:21.223Z</time>
      </trkpt>
      <trkpt lat="47.85165" lon="6.94033">
        <ele>1172.1</ele>
        <time>2026-08-27T08:16:22.231Z</time>
      </trkpt>
      <trkpt lat="47.85165" lon="6.94034">
        <ele>1171.8</ele>
        <time>2026-08-27T08:16:23.240Z</time>
      </trkpt>
      <trkpt lat="47.85164" lon="6.94037">
        <ele>1171.8</ele>
        <time>2026-08-27T08:16:25.259Z</time>
      </trkpt>
      <trkpt lat="47.85163" lon="6.94039">
        <ele>1171.3</ele>
        <time>2026-08-27T08:16:27.174Z</time>
      </trkpt>
      <trkpt lat="47.85163" lon="6.94041">
        <ele>1171.3</ele>
        <time>2026-08-27T08:16:28.182Z</time>
      </trkpt>
      <trkpt lat="47.85162" lon="6.94042">
        <ele>1171.3</ele>
        <time>2026-08-27T08:16:29.220Z</time>
      </trkpt>
      <trkpt lat="47.85161" lon="6.94044">
        <ele>1171.1</ele>
        <time>2026-08-27T08:16:31.177Z</time>
      </trkpt>
      <trkpt lat="47.8516" lon="6.94045">
        <ele>1171</ele>
        <time>2026-08-27T08:16:32.215Z</time>
      </trkpt>
      <trkpt lat="47.8516" lon="6.94046">
        <ele>1170.7</ele>
        <time>2026-08-27T08:16:33.222Z</time>
      </trkpt>
      <trkpt lat="47.85159" lon="6.94048">
        <ele>1170.2</ele>
        <time>2026-08-27T08:16:35.239Z</time>
      </trkpt>
      <trkpt lat="47.85158" lon="6.94049">
        <ele>1170.1</ele>
        <time>2026-08-27T08:16:36.246Z</time>
      </trkpt>
      <trkpt lat="47.85157" lon="6.94051">
        <ele>1169.6</ele>
        <time>2026-08-27T08:16:38.162Z</time>
      </trkpt>
      <trkpt lat="47.85156" lon="6.94052">
        <ele>1169.6</ele>
        <time>2026-08-27T08:16:39.169Z</time>
      </trkpt>
      <trkpt lat="47.85155" lon="6.94052">
        <ele>1169.4</ele>
        <time>2026-08-27T08:16:40.176Z</time>
      </trkpt>
      <trkpt lat="47.85154" lon="6.94053">
        <ele>1169</ele>
        <time>2026-08-27T08:16:41.185Z</time>
      </trkpt>
      <trkpt lat="47.85153" lon="6.94054">
        <ele>1168.7</ele>
        <time>2026-08-27T08:16:43.201Z</time>
      </trkpt>
      <trkpt lat="47.85152" lon="6.94054">
        <ele>1168.5</ele>
        <time>2026-08-27T08:16:44.209Z</time>
      </trkpt>
      <trkpt lat="47.85151" lon="6.94055">
        <ele>1168.2</ele>
        <time>2026-08-27T08:16:46.179Z</time>
      </trkpt>
      <trkpt lat="47.85151" lon="6.94056">
        <ele>1167.9</ele>
        <time>2026-08-27T08:16:47.234Z</time>
      </trkpt>
      <trkpt lat="47.85151" lon="6.94057">
        <ele>1167.9</ele>
        <time>2026-08-27T08:16:48.241Z</time>
      </trkpt>
      <trkpt lat="47.8515" lon="6.94058">
        <ele>1167.7</ele>
        <time>2026-08-27T08:16:50.254Z</time>
      </trkpt>
      <trkpt lat="47.8515" lon="6.94058">
        <ele>1166.7</ele>
        <time>2026-08-27T08:16:52.172Z</time>
      </trkpt>
      <trkpt lat="47.8515" lon="6.94058">
        <ele>1166.7</ele>
        <time>2026-08-27T08:16:54.076Z</time>
      </trkpt>
      <trkpt lat="47.85149" lon="6.94059">
        <ele>1166.6</ele>
        <time>2026-08-27T08:16:55.259Z</time>
      </trkpt>
      <trkpt lat="47.85148" lon="6.94061">
        <ele>1165.9</ele>
        <time>2026-08-27T08:16:57.212Z</time>
      </trkpt>
      <trkpt lat="47.85147" lon="6.94062">
        <ele>1165.7</ele>
        <time>2026-08-27T08:16:58.220Z</time>
      </trkpt>
      <trkpt lat="47.85146" lon="6.94063">
        <ele>1165.4</ele>
        <time>2026-08-27T08:16:59.228Z</time>
      </trkpt>
      <trkpt lat="47.85146" lon="6.94064">
        <ele>1165.2</ele>
        <time>2026-08-27T08:17:00.236Z</time>
      </trkpt>
      <trkpt lat="47.85145" lon="6.94066">
        <ele>1165</ele>
        <time>2026-08-27T08:17:01.245Z</time>
      </trkpt>
      <trkpt lat="47.85145" lon="6.94067">
        <ele>1164.7</ele>
        <time>2026-08-27T08:17:02.253Z</time>
      </trkpt>
      <trkpt lat="47.85144" lon="6.94068">
        <ele>1164.5</ele>
        <time>2026-08-27T08:17:04.114Z</time>
      </trkpt>
      <trkpt lat="47.85143" lon="6.9407">
        <ele>1164.2</ele>
        <time>2026-08-27T08:17:05.281Z</time>
      </trkpt>
      <trkpt lat="47.85141" lon="6.94071">
        <ele>1163.4</ele>
        <time>2026-08-27T08:17:07.192Z</time>
      </trkpt>
      <trkpt lat="47.8514" lon="6.94072">
        <ele>1163.5</ele>
        <time>2026-08-27T08:17:08.200Z</time>
      </trkpt>
      <trkpt lat="47.8514" lon="6.94073">
        <ele>1163.2</ele>
        <time>2026-08-27T08:17:09.207Z</time>
      </trkpt>
      <trkpt lat="47.85138" lon="6.94075">
        <ele>1162.7</ele>
        <time>2026-08-27T08:17:11.224Z</time>
      </trkpt>
      <trkpt lat="47.85137" lon="6.94075">
        <ele>1162.4</ele>
        <time>2026-08-27T08:17:12.232Z</time>
      </trkpt>
      <trkpt lat="47.85136" lon="6.94076">
        <ele>1162.3</ele>
        <time>2026-08-27T08:17:13.239Z</time>
      </trkpt>
      <trkpt lat="47.85135" lon="6.94078">
        <ele>1162.1</ele>
        <time>2026-08-27T08:17:14.248Z</time>
      </trkpt>
      <trkpt lat="47.85133" lon="6.9408">
        <ele>1161.9</ele>
        <time>2026-08-27T08:17:16.116Z</time>
      </trkpt>
      <trkpt lat="47.85132" lon="6.94081">
        <ele>1161.9</ele>
        <time>2026-08-27T08:17:17.175Z</time>
      </trkpt>
      <trkpt lat="47.85132" lon="6.94082">
        <ele>1161.7</ele>
        <time>2026-08-27T08:17:18.179Z</time>
      </trkpt>
      <trkpt lat="47.85131" lon="6.94083">
        <ele>1161.5</ele>
        <time>2026-08-27T08:17:19.187Z</time>
      </trkpt>
      <trkpt lat="47.8513" lon="6.94084">
        <ele>1161.6</ele>
        <time>2026-08-27T08:17:20.195Z</time>
      </trkpt>
      <trkpt lat="47.8513" lon="6.94085">
        <ele>1161.3</ele>
        <time>2026-08-27T08:17:21.202Z</time>
      </trkpt>
      <trkpt lat="47.85129" lon="6.94086">
        <ele>1161.2</ele>
        <time>2026-08-27T08:17:22.211Z</time>
      </trkpt>
      <trkpt lat="47.85128" lon="6.94087">
        <ele>1161.2</ele>
        <time>2026-08-27T08:17:23.219Z</time>
      </trkpt>
      <trkpt lat="47.85127" lon="6.94088">
        <ele>1160.9</ele>
        <time>2026-08-27T08:17:24.227Z</time>
      </trkpt>
      <trkpt lat="47.85127" lon="6.94088">
        <ele>1160.7</ele>
        <time>2026-08-27T08:17:25.234Z</time>
      </trkpt>
      <trkpt lat="47.85126" lon="6.94089">
        <ele>1160.7</ele>
        <time>2026-08-27T08:17:26.242Z</time>
      </trkpt>
      <trkpt lat="47.85125" lon="6.9409">
        <ele>1160.7</ele>
        <time>2026-08-27T08:17:28.061Z</time>
      </trkpt>
      <trkpt lat="47.85124" lon="6.94091">
        <ele>1160.7</ele>
        <time>2026-08-27T08:17:29.179Z</time>
      </trkpt>
      <trkpt lat="47.85123" lon="6.94092">
        <ele>1159.9</ele>
        <time>2026-08-27T08:17:31.181Z</time>
      </trkpt>
      <trkpt lat="47.85122" lon="6.94093">
        <ele>1159.7</ele>
        <time>2026-08-27T08:17:32.189Z</time>
      </trkpt>
      <trkpt lat="47.85121" lon="6.94094">
        <ele>1159.5</ele>
        <time>2026-08-27T08:17:33.197Z</time>
      </trkpt>
      <trkpt lat="47.85121" lon="6.94095">
        <ele>1159.1</ele>
        <time>2026-08-27T08:17:34.205Z</time>
      </trkpt>
      <trkpt lat="47.85119" lon="6.94097">
        <ele>1158.8</ele>
        <time>2026-08-27T08:17:36.259Z</time>
      </trkpt>
      <trkpt lat="47.85118" lon="6.94099">
        <ele>1158.3</ele>
        <time>2026-08-27T08:17:38.237Z</time>
      </trkpt>
      <trkpt lat="47.85117" lon="6.941">
        <ele>1158.1</ele>
        <time>2026-08-27T08:17:39.245Z</time>
      </trkpt>
      <trkpt lat="47.85115" lon="6.94102">
        <ele>1157.6</ele>
        <time>2026-08-27T08:17:41.160Z</time>
      </trkpt>
      <trkpt lat="47.85115" lon="6.94103">
        <ele>1157.4</ele>
        <time>2026-08-27T08:17:42.168Z</time>
      </trkpt>
      <trkpt lat="47.85114" lon="6.94104">
        <ele>1157.3</ele>
        <time>2026-08-27T08:17:43.176Z</time>
      </trkpt>
      <trkpt lat="47.85113" lon="6.94105">
        <ele>1157.3</ele>
        <time>2026-08-27T08:17:44.185Z</time>
      </trkpt>
      <trkpt lat="47.85112" lon="6.94107">
        <ele>1157.4</ele>
        <time>2026-08-27T08:17:45.193Z</time>
      </trkpt>
      <trkpt lat="47.85111" lon="6.94107">
        <ele>1157.4</ele>
        <time>2026-08-27T08:17:46.200Z</time>
      </trkpt>
      <trkpt lat="47.85109" lon="6.94109">
        <ele>1157.5</ele>
        <time>2026-08-27T08:17:48.216Z</time>
      </trkpt>
      <trkpt lat="47.85109" lon="6.9411">
        <ele>1157.5</ele>
        <time>2026-08-27T08:17:49.224Z</time>
      </trkpt>
      <trkpt lat="47.85108" lon="6.94111">
        <ele>1157.2</ele>
        <time>2026-08-27T08:17:50.232Z</time>
      </trkpt>
      <trkpt lat="47.85108" lon="6.94112">
        <ele>1157.2</ele>
        <time>2026-08-27T08:17:51.241Z</time>
      </trkpt>
      <trkpt lat="47.85107" lon="6.94113">
        <ele>1157.3</ele>
        <time>2026-08-27T08:17:52.249Z</time>
      </trkpt>
      <trkpt lat="47.85107" lon="6.94114">
        <ele>1157.3</ele>
        <time>2026-08-27T08:17:53.260Z</time>
      </trkpt>
      <trkpt lat="47.85106" lon="6.94116">
        <ele>1156.8</ele>
        <time>2026-08-27T08:17:55.100Z</time>
      </trkpt>
      <trkpt lat="47.85105" lon="6.94118">
        <ele>1156.9</ele>
        <time>2026-08-27T08:17:56.218Z</time>
      </trkpt>
      <trkpt lat="47.85104" lon="6.9412">
        <ele>1156.1</ele>
        <time>2026-08-27T08:17:58.195Z</time>
      </trkpt>
      <trkpt lat="47.85104" lon="6.94121">
        <ele>1156</ele>
        <time>2026-08-27T08:17:59.204Z</time>
      </trkpt>
      <trkpt lat="47.85103" lon="6.94122">
        <ele>1155.7</ele>
        <time>2026-08-27T08:18:00.211Z</time>
      </trkpt>
      <trkpt lat="47.85102" lon="6.94123">
        <ele>1155.5</ele>
        <time>2026-08-27T08:18:01.220Z</time>
      </trkpt>
      <trkpt lat="47.85101" lon="6.94125">
        <ele>1155.1</ele>
        <time>2026-08-27T08:18:03.236Z</time>
      </trkpt>
      <trkpt lat="47.85099" lon="6.94127">
        <ele>1155</ele>
        <time>2026-08-27T08:18:05.251Z</time>
      </trkpt>
      <trkpt lat="47.85098" lon="6.94129">
        <ele>1155</ele>
        <time>2026-08-27T08:18:07.254Z</time>
      </trkpt>
      <trkpt lat="47.85097" lon="6.94131">
        <ele>1154.4</ele>
        <time>2026-08-27T08:18:09.182Z</time>
      </trkpt>
      <trkpt lat="47.85096" lon="6.94132">
        <ele>1154.2</ele>
        <time>2026-08-27T08:18:11.198Z</time>
      </trkpt>
      <trkpt lat="47.85095" lon="6.94134">
        <ele>1153.8</ele>
        <time>2026-08-27T08:18:13.236Z</time>
      </trkpt>
      <trkpt lat="47.85094" lon="6.94136">
        <ele>1153.5</ele>
        <time>2026-08-27T08:18:15.230Z</time>
      </trkpt>
      <trkpt lat="47.85093" lon="6.94137">
        <ele>1153.3</ele>
        <time>2026-08-27T08:18:16.239Z</time>
      </trkpt>
      <trkpt lat="47.85092" lon="6.9414">
        <ele>1153</ele>
        <time>2026-08-27T08:18:18.174Z</time>
      </trkpt>
      <trkpt lat="47.85092" lon="6.94142">
        <ele>1152.6</ele>
        <time>2026-08-27T08:18:20.074Z</time>
      </trkpt>
      <trkpt lat="47.85092" lon="6.94144">
        <ele>1152.1</ele>
        <time>2026-08-27T08:18:21.178Z</time>
      </trkpt>
      <trkpt lat="47.85091" lon="6.94145">
        <ele>1151.8</ele>
        <time>2026-08-27T08:18:22.185Z</time>
      </trkpt>
      <trkpt lat="47.85091" lon="6.94146">
        <ele>1151.4</ele>
        <time>2026-08-27T08:18:23.193Z</time>
      </trkpt>
      <trkpt lat="47.85091" lon="6.94147">
        <ele>1151.7</ele>
        <time>2026-08-27T08:18:24.201Z</time>
      </trkpt>
      <trkpt lat="47.8509" lon="6.94148">
        <ele>1151.6</ele>
        <time>2026-08-27T08:18:25.209Z</time>
      </trkpt>
      <trkpt lat="47.8509" lon="6.94151">
        <ele>1151.2</ele>
        <time>2026-08-27T08:18:27.226Z</time>
      </trkpt>
      <trkpt lat="47.85089" lon="6.94152">
        <ele>1151.2</ele>
        <time>2026-08-27T08:18:28.234Z</time>
      </trkpt>
      <trkpt lat="47.85089" lon="6.94153">
        <ele>1150.9</ele>
        <time>2026-08-27T08:18:29.242Z</time>
      </trkpt>
      <trkpt lat="47.85088" lon="6.94156">
        <ele>1150.8</ele>
        <time>2026-08-27T08:18:31.257Z</time>
      </trkpt>
      <trkpt lat="47.85087" lon="6.94159">
        <ele>1150.5</ele>
        <time>2026-08-27T08:18:33.172Z</time>
      </trkpt>
      <trkpt lat="47.85087" lon="6.94161">
        <ele>1150.7</ele>
        <time>2026-08-27T08:18:34.180Z</time>
      </trkpt>
      <trkpt lat="47.85086" lon="6.94162">
        <ele>1150.6</ele>
        <time>2026-08-27T08:18:35.188Z</time>
      </trkpt>
      <trkpt lat="47.85086" lon="6.94163">
        <ele>1150.5</ele>
        <time>2026-08-27T08:18:36.197Z</time>
      </trkpt>
      <trkpt lat="47.85085" lon="6.94165">
        <ele>1150.5</ele>
        <time>2026-08-27T08:18:37.235Z</time>
      </trkpt>
      <trkpt lat="47.85084" lon="6.94167">
        <ele>1150.2</ele>
        <time>2026-08-27T08:18:39.258Z</time>
      </trkpt>
      <trkpt lat="47.85083" lon="6.94168">
        <ele>1150.2</ele>
        <time>2026-08-27T08:18:41.198Z</time>
      </trkpt>
      <trkpt lat="47.85083" lon="6.94169">
        <ele>1150.1</ele>
        <time>2026-08-27T08:18:42.258Z</time>
      </trkpt>
      <trkpt lat="47.85082" lon="6.9417">
        <ele>1150</ele>
        <time>2026-08-27T08:18:44.214Z</time>
      </trkpt>
      <trkpt lat="47.85082" lon="6.94171">
        <ele>1149.8</ele>
        <time>2026-08-27T08:18:45.268Z</time>
      </trkpt>
      <trkpt lat="47.85081" lon="6.94173">
        <ele>1149.3</ele>
        <time>2026-08-27T08:18:47.120Z</time>
      </trkpt>
      <trkpt lat="47.8508" lon="6.94174">
        <ele>1149.3</ele>
        <time>2026-08-27T08:18:48.120Z</time>
      </trkpt>
      <trkpt lat="47.85079" lon="6.94175">
        <ele>1148.9</ele>
        <time>2026-08-27T08:18:49.200Z</time>
      </trkpt>
      <trkpt lat="47.85078" lon="6.94176">
        <ele>1148.6</ele>
        <time>2026-08-27T08:18:50.207Z</time>
      </trkpt>
      <trkpt lat="47.85078" lon="6.94176">
        <ele>1148.6</ele>
        <time>2026-08-27T08:18:51.236Z</time>
      </trkpt>
      <trkpt lat="47.85077" lon="6.94178">
        <ele>1148.2</ele>
        <time>2026-08-27T08:18:53.232Z</time>
      </trkpt>
      <trkpt lat="47.85075" lon="6.94179">
        <ele>1147.8</ele>
        <time>2026-08-27T08:18:55.146Z</time>
      </trkpt>
      <trkpt lat="47.85075" lon="6.9418">
        <ele>1147.6</ele>
        <time>2026-08-27T08:18:56.255Z</time>
      </trkpt>
      <trkpt lat="47.85073" lon="6.94181">
        <ele>1147.2</ele>
        <time>2026-08-27T08:18:58.170Z</time>
      </trkpt>
      <trkpt lat="47.85073" lon="6.94182">
        <ele>1146.9</ele>
        <time>2026-08-27T08:18:59.178Z</time>
      </trkpt>
      <trkpt lat="47.85072" lon="6.94182">
        <ele>1146.9</ele>
        <time>2026-08-27T08:19:00.187Z</time>
      </trkpt>
      <trkpt lat="47.85071" lon="6.94182">
        <ele>1146.8</ele>
        <time>2026-08-27T08:19:01.195Z</time>
      </trkpt>
      <trkpt lat="47.85071" lon="6.94183">
        <ele>1146.5</ele>
        <time>2026-08-27T08:19:02.202Z</time>
      </trkpt>
      <trkpt lat="47.8507" lon="6.94183">
        <ele>1146.5</ele>
        <time>2026-08-27T08:19:03.210Z</time>
      </trkpt>
      <trkpt lat="47.85069" lon="6.94184">
        <ele>1146.5</ele>
        <time>2026-08-27T08:19:04.240Z</time>
      </trkpt>
      <trkpt lat="47.85068" lon="6.94185">
        <ele>1146.1</ele>
        <time>2026-08-27T08:19:06.234Z</time>
      </trkpt>
      <trkpt lat="47.85067" lon="6.94186">
        <ele>1145.8</ele>
        <time>2026-08-27T08:19:07.242Z</time>
      </trkpt>
      <trkpt lat="47.85066" lon="6.94186">
        <ele>1145.5</ele>
        <time>2026-08-27T08:19:09.157Z</time>
      </trkpt>
      <trkpt lat="47.85064" lon="6.94187">
        <ele>1145</ele>
        <time>2026-08-27T08:19:11.174Z</time>
      </trkpt>
      <trkpt lat="47.85063" lon="6.94187">
        <ele>1144.8</ele>
        <time>2026-08-27T08:19:12.181Z</time>
      </trkpt>
      <trkpt lat="47.85062" lon="6.94188">
        <ele>1144.6</ele>
        <time>2026-08-27T08:19:14.198Z</time>
      </trkpt>
      <trkpt lat="47.85061" lon="6.94188">
        <ele>1144.3</ele>
        <time>2026-08-27T08:19:16.213Z</time>
      </trkpt>
      <trkpt lat="47.8506" lon="6.94188">
        <ele>1144</ele>
        <time>2026-08-27T08:19:17.221Z</time>
      </trkpt>
      <trkpt lat="47.85059" lon="6.94189">
        <ele>1143.9</ele>
        <time>2026-08-27T08:19:18.230Z</time>
      </trkpt>
      <trkpt lat="47.85058" lon="6.94189">
        <ele>1143.6</ele>
        <time>2026-08-27T08:19:19.238Z</time>
      </trkpt>
      <trkpt lat="47.85057" lon="6.9419">
        <ele>1143.4</ele>
        <time>2026-08-27T08:19:21.072Z</time>
      </trkpt>
      <trkpt lat="47.85057" lon="6.9419">
        <ele>1143.3</ele>
        <time>2026-08-27T08:19:22.156Z</time>
      </trkpt>
      <trkpt lat="47.85056" lon="6.9419">
        <ele>1143</ele>
        <time>2026-08-27T08:19:23.168Z</time>
      </trkpt>
      <trkpt lat="47.85056" lon="6.9419">
        <ele>1142.9</ele>
        <time>2026-08-27T08:19:24.176Z</time>
      </trkpt>
      <trkpt lat="47.85055" lon="6.9419">
        <ele>1142.7</ele>
        <time>2026-08-27T08:19:25.184Z</time>
      </trkpt>
      <trkpt lat="47.85055" lon="6.9419">
        <ele>1142.4</ele>
        <time>2026-08-27T08:19:26.193Z</time>
      </trkpt>
      <trkpt lat="47.85054" lon="6.9419">
        <ele>1142.2</ele>
        <time>2026-08-27T08:19:27.201Z</time>
      </trkpt>
      <trkpt lat="47.85054" lon="6.9419">
        <ele>1142</ele>
        <time>2026-08-27T08:19:28.208Z</time>
      </trkpt>
      <trkpt lat="47.85054" lon="6.94191">
        <ele>1141.7</ele>
        <time>2026-08-27T08:19:30.225Z</time>
      </trkpt>
      <trkpt lat="47.85054" lon="6.94191">
        <ele>1141.5</ele>
        <time>2026-08-27T08:19:31.233Z</time>
      </trkpt>
      <trkpt lat="47.85054" lon="6.94191">
        <ele>1141.6</ele>
        <time>2026-08-27T08:19:32.241Z</time>
      </trkpt>
      <trkpt lat="47.85053" lon="6.9419">
        <ele>1141.5</ele>
        <time>2026-08-27T08:19:33.249Z</time>
      </trkpt>
      <trkpt lat="47.85052" lon="6.9419">
        <ele>1141.4</ele>
        <time>2026-08-27T08:19:35.163Z</time>
      </trkpt>
      <trkpt lat="47.85051" lon="6.9419">
        <ele>1141.2</ele>
        <time>2026-08-27T08:19:36.172Z</time>
      </trkpt>
      <trkpt lat="47.8505" lon="6.94191">
        <ele>1140.9</ele>
        <time>2026-08-27T08:19:37.180Z</time>
      </trkpt>
      <trkpt lat="47.85049" lon="6.94191">
        <ele>1140.8</ele>
        <time>2026-08-27T08:19:38.188Z</time>
      </trkpt>
      <trkpt lat="47.85048" lon="6.94192">
        <ele>1140.7</ele>
        <time>2026-08-27T08:19:39.195Z</time>
      </trkpt>
      <trkpt lat="47.85047" lon="6.94192">
        <ele>1140.6</ele>
        <time>2026-08-27T08:19:40.203Z</time>
      </trkpt>
      <trkpt lat="47.85046" lon="6.94192">
        <ele>1140.4</ele>
        <time>2026-08-27T08:19:41.212Z</time>
      </trkpt>
      <trkpt lat="47.85045" lon="6.94192">
        <ele>1140.4</ele>
        <time>2026-08-27T08:19:42.274Z</time>
      </trkpt>
      <trkpt lat="47.85044" lon="6.94193">
        <ele>1140</ele>
        <time>2026-08-27T08:19:44.235Z</time>
      </trkpt>
      <trkpt lat="47.85043" lon="6.94194">
        <ele>1139.7</ele>
        <time>2026-08-27T08:19:45.244Z</time>
      </trkpt>
      <trkpt lat="47.85042" lon="6.94194">
        <ele>1139.4</ele>
        <time>2026-08-27T08:19:47.159Z</time>
      </trkpt>
      <trkpt lat="47.85041" lon="6.94194">
        <ele>1139.1</ele>
        <time>2026-08-27T08:19:48.237Z</time>
      </trkpt>
      <trkpt lat="47.8504" lon="6.94194">
        <ele>1138.8</ele>
        <time>2026-08-27T08:19:50.095Z</time>
      </trkpt>
      <trkpt lat="47.85039" lon="6.94194">
        <ele>1138.8</ele>
        <time>2026-08-27T08:19:51.190Z</time>
      </trkpt>
      <trkpt lat="47.85039" lon="6.94194">
        <ele>1138.4</ele>
        <time>2026-08-27T08:19:52.199Z</time>
      </trkpt>
      <trkpt lat="47.85039" lon="6.94194">
        <ele>1138.2</ele>
        <time>2026-08-27T08:19:53.206Z</time>
      </trkpt>
      <trkpt lat="47.85039" lon="6.94195">
        <ele>1138.2</ele>
        <time>2026-08-27T08:19:54.219Z</time>
      </trkpt>
      <trkpt lat="47.85039" lon="6.94195">
        <ele>1138.1</ele>
        <time>2026-08-27T08:19:55.223Z</time>
      </trkpt>
      <trkpt lat="47.85039" lon="6.94195">
        <ele>1138</ele>
        <time>2026-08-27T08:19:56.231Z</time>
      </trkpt>
      <trkpt lat="47.85039" lon="6.94194">
        <ele>1137.8</ele>
        <time>2026-08-27T08:19:57.238Z</time>
      </trkpt>
      <trkpt lat="47.85039" lon="6.94195">
        <ele>1137.7</ele>
        <time>2026-08-27T08:19:59.258Z</time>
      </trkpt>
      <trkpt lat="47.85038" lon="6.94195">
        <ele>1137.3</ele>
        <time>2026-08-27T08:20:01.169Z</time>
      </trkpt>
      <trkpt lat="47.85038" lon="6.94196">
        <ele>1137.2</ele>
        <time>2026-08-27T08:20:02.274Z</time>
      </trkpt>
      <trkpt lat="47.85036" lon="6.94198">
        <ele>1137.1</ele>
        <time>2026-08-27T08:20:04.214Z</time>
      </trkpt>
      <trkpt lat="47.85034" lon="6.94198">
        <ele>1136.3</ele>
        <time>2026-08-27T08:20:06.209Z</time>
      </trkpt>
      <trkpt lat="47.85033" lon="6.94198">
        <ele>1135.9</ele>
        <time>2026-08-27T08:20:07.217Z</time>
      </trkpt>
      <trkpt lat="47.85032" lon="6.94199">
        <ele>1135.5</ele>
        <time>2026-08-27T08:20:09.233Z</time>
      </trkpt>
      <trkpt lat="47.85031" lon="6.942">
        <ele>1135.2</ele>
        <time>2026-08-27T08:20:10.241Z</time>
      </trkpt>
      <trkpt lat="47.8503" lon="6.942">
        <ele>1135.2</ele>
        <time>2026-08-27T08:20:11.278Z</time>
      </trkpt>
      <trkpt lat="47.85029" lon="6.94201">
        <ele>1134.6</ele>
        <time>2026-08-27T08:20:13.164Z</time>
      </trkpt>
      <trkpt lat="47.85028" lon="6.94202">
        <ele>1134.6</ele>
        <time>2026-08-27T08:20:14.194Z</time>
      </trkpt>
      <trkpt lat="47.85027" lon="6.94203">
        <ele>1133.9</ele>
        <time>2026-08-27T08:20:16.188Z</time>
      </trkpt>
      <trkpt lat="47.85027" lon="6.94203">
        <ele>1133.4</ele>
        <time>2026-08-27T08:20:17.197Z</time>
      </trkpt>
      <trkpt lat="47.85026" lon="6.94204">
        <ele>1133</ele>
        <time>2026-08-27T08:20:19.199Z</time>
      </trkpt>
      <trkpt lat="47.85025" lon="6.94204">
        <ele>1133.1</ele>
        <time>2026-08-27T08:20:20.220Z</time>
      </trkpt>
      <trkpt lat="47.85024" lon="6.94204">
        <ele>1132.7</ele>
        <time>2026-08-27T08:20:21.229Z</time>
      </trkpt>
      <trkpt lat="47.85023" lon="6.94205">
        <ele>1132.4</ele>
        <time>2026-08-27T08:20:22.237Z</time>
      </trkpt>
      <trkpt lat="47.85022" lon="6.94206">
        <ele>1131.9</ele>
        <time>2026-08-27T08:20:24.253Z</time>
      </trkpt>
      <trkpt lat="47.85021" lon="6.94207">
        <ele>1131.8</ele>
        <time>2026-08-27T08:20:25.260Z</time>
      </trkpt>
      <trkpt lat="47.85019" lon="6.94208">
        <ele>1131.5</ele>
        <time>2026-08-27T08:20:27.175Z</time>
      </trkpt>
      <trkpt lat="47.85018" lon="6.94208">
        <ele>1131.4</ele>
        <time>2026-08-27T08:20:28.183Z</time>
      </trkpt>
      <trkpt lat="47.85017" lon="6.94209">
        <ele>1131.1</ele>
        <time>2026-08-27T08:20:29.191Z</time>
      </trkpt>
      <trkpt lat="47.85016" lon="6.94209">
        <ele>1131.1</ele>
        <time>2026-08-27T08:20:30.220Z</time>
      </trkpt>
      <trkpt lat="47.85013" lon="6.9421">
        <ele>1131</ele>
        <time>2026-08-27T08:20:32.236Z</time>
      </trkpt>
      <trkpt lat="47.85011" lon="6.94211">
        <ele>1130.6</ele>
        <time>2026-08-27T08:20:34.231Z</time>
      </trkpt>
      <trkpt lat="47.8501" lon="6.94211">
        <ele>1130.6</ele>
        <time>2026-08-27T08:20:35.239Z</time>
      </trkpt>
      <trkpt lat="47.8501" lon="6.94211">
        <ele>1130.5</ele>
        <time>2026-08-27T08:20:36.247Z</time>
      </trkpt>
      <trkpt lat="47.85009" lon="6.94211">
        <ele>1130.4</ele>
        <time>2026-08-27T08:20:37.256Z</time>
      </trkpt>
      <trkpt lat="47.85008" lon="6.94211">
        <ele>1130.4</ele>
        <time>2026-08-27T08:20:38.264Z</time>
      </trkpt>
      <trkpt lat="47.85008" lon="6.94211">
        <ele>1130.2</ele>
        <time>2026-08-27T08:20:40.179Z</time>
      </trkpt>
      <trkpt lat="47.85007" lon="6.94212">
        <ele>1130</ele>
        <time>2026-08-27T08:20:42.194Z</time>
      </trkpt>
      <trkpt lat="47.85007" lon="6.94212">
        <ele>1129.5</ele>
        <time>2026-08-27T08:20:43.203Z</time>
      </trkpt>
      <trkpt lat="47.85007" lon="6.94213">
        <ele>1129.2</ele>
        <time>2026-08-27T08:20:45.257Z</time>
      </trkpt>
      <trkpt lat="47.85006" lon="6.94213">
        <ele>1128.5</ele>
        <time>2026-08-27T08:20:47.234Z</time>
      </trkpt>
      <trkpt lat="47.85004" lon="6.94215">
        <ele>1128.5</ele>
        <time>2026-08-27T08:20:49.180Z</time>
      </trkpt>
      <trkpt lat="47.85002" lon="6.94217">
        <ele>1127.6</ele>
        <time>2026-08-27T08:20:51.165Z</time>
      </trkpt>
      <trkpt lat="47.85" lon="6.94218">
        <ele>1127.5</ele>
        <time>2026-08-27T08:20:52.174Z</time>
      </trkpt>
      <trkpt lat="47.84998" lon="6.94218">
        <ele>1126.8</ele>
        <time>2026-08-27T08:20:54.189Z</time>
      </trkpt>
      <trkpt lat="47.84997" lon="6.94219">
        <ele>1126.7</ele>
        <time>2026-08-27T08:20:55.197Z</time>
      </trkpt>
      <trkpt lat="47.84996" lon="6.94219">
        <ele>1126.6</ele>
        <time>2026-08-27T08:20:56.205Z</time>
      </trkpt>
      <trkpt lat="47.84996" lon="6.9422">
        <ele>1126.5</ele>
        <time>2026-08-27T08:20:57.213Z</time>
      </trkpt>
      <trkpt lat="47.84995" lon="6.9422">
        <ele>1126.4</ele>
        <time>2026-08-27T08:20:58.226Z</time>
      </trkpt>
      <trkpt lat="47.84993" lon="6.94222">
        <ele>1126.3</ele>
        <time>2026-08-27T08:21:00.241Z</time>
      </trkpt>
      <trkpt lat="47.84992" lon="6.94223">
        <ele>1126.1</ele>
        <time>2026-08-27T08:21:01.249Z</time>
      </trkpt>
      <trkpt lat="47.8499" lon="6.94224">
        <ele>1126</ele>
        <time>2026-08-27T08:21:03.081Z</time>
      </trkpt>
      <trkpt lat="47.84989" lon="6.94225">
        <ele>1125.7</ele>
        <time>2026-08-27T08:21:04.174Z</time>
      </trkpt>
      <trkpt lat="47.84988" lon="6.94226">
        <ele>1125.6</ele>
        <time>2026-08-27T08:21:05.182Z</time>
      </trkpt>
      <trkpt lat="47.84987" lon="6.94226">
        <ele>1125.4</ele>
        <time>2026-08-27T08:21:06.281Z</time>
      </trkpt>
      <trkpt lat="47.84986" lon="6.94228">
        <ele>1125.7</ele>
        <time>2026-08-27T08:21:08.205Z</time>
      </trkpt>
      <trkpt lat="47.84984" lon="6.94228">
        <ele>1125.5</ele>
        <time>2026-08-27T08:21:09.213Z</time>
      </trkpt>
      <trkpt lat="47.84983" lon="6.94228">
        <ele>1125.5</ele>
        <time>2026-08-27T08:21:10.221Z</time>
      </trkpt>
      <trkpt lat="47.84982" lon="6.94229">
        <ele>1125.5</ele>
        <time>2026-08-27T08:21:11.230Z</time>
      </trkpt>
      <trkpt lat="47.84981" lon="6.9423">
        <ele>1125.1</ele>
        <time>2026-08-27T08:21:13.245Z</time>
      </trkpt>
      <trkpt lat="47.8498" lon="6.94231">
        <ele>1125</ele>
        <time>2026-08-27T08:21:14.252Z</time>
      </trkpt>
      <trkpt lat="47.84979" lon="6.94232">
        <ele>1124.9</ele>
        <time>2026-08-27T08:21:15.261Z</time>
      </trkpt>
      <trkpt lat="47.84977" lon="6.94233">
        <ele>1125</ele>
        <time>2026-08-27T08:21:17.176Z</time>
      </trkpt>
      <trkpt lat="47.84976" lon="6.94233">
        <ele>1125</ele>
        <time>2026-08-27T08:21:18.184Z</time>
      </trkpt>
      <trkpt lat="47.84975" lon="6.94234">
        <ele>1125</ele>
        <time>2026-08-27T08:21:19.193Z</time>
      </trkpt>
      <trkpt lat="47.84974" lon="6.94234">
        <ele>1125</ele>
        <time>2026-08-27T08:21:20.201Z</time>
      </trkpt>
      <trkpt lat="47.84973" lon="6.94234">
        <ele>1125</ele>
        <time>2026-08-27T08:21:21.224Z</time>
      </trkpt>
      <trkpt lat="47.84972" lon="6.94234">
        <ele>1124.9</ele>
        <time>2026-08-27T08:21:23.225Z</time>
      </trkpt>
      <trkpt lat="47.84971" lon="6.94234">
        <ele>1125.1</ele>
        <time>2026-08-27T08:21:24.232Z</time>
      </trkpt>
      <trkpt lat="47.84971" lon="6.94234">
        <ele>1125.5</ele>
        <time>2026-08-27T08:21:25.240Z</time>
      </trkpt>
      <trkpt lat="47.8497" lon="6.94236">
        <ele>1125.2</ele>
        <time>2026-08-27T08:21:27.205Z</time>
      </trkpt>
      <trkpt lat="47.84969" lon="6.94237">
        <ele>1125.1</ele>
        <time>2026-08-27T08:21:29.171Z</time>
      </trkpt>
      <trkpt lat="47.84968" lon="6.94237">
        <ele>1125.2</ele>
        <time>2026-08-27T08:21:30.180Z</time>
      </trkpt>
      <trkpt lat="47.84967" lon="6.94238">
        <ele>1125.2</ele>
        <time>2026-08-27T08:21:31.204Z</time>
      </trkpt>
      <trkpt lat="47.84965" lon="6.94238">
        <ele>1124.7</ele>
        <time>2026-08-27T08:21:33.204Z</time>
      </trkpt>
      <trkpt lat="47.84964" lon="6.94239">
        <ele>1124.5</ele>
        <time>2026-08-27T08:21:34.211Z</time>
      </trkpt>
      <trkpt lat="47.84963" lon="6.94239">
        <ele>1124.3</ele>
        <time>2026-08-27T08:21:35.219Z</time>
      </trkpt>
      <trkpt lat="47.84962" lon="6.94239">
        <ele>1124.4</ele>
        <time>2026-08-27T08:21:36.227Z</time>
      </trkpt>
      <trkpt lat="47.8496" lon="6.9424">
        <ele>1124.2</ele>
        <time>2026-08-27T08:21:38.243Z</time>
      </trkpt>
      <trkpt lat="47.84958" lon="6.94241">
        <ele>1124.3</ele>
        <time>2026-08-27T08:21:40.158Z</time>
      </trkpt>
      <trkpt lat="47.84957" lon="6.94243">
        <ele>1124.1</ele>
        <time>2026-08-27T08:21:42.284Z</time>
      </trkpt>
      <trkpt lat="47.84956" lon="6.94243">
        <ele>1124.3</ele>
        <time>2026-08-27T08:21:43.501Z</time>
      </trkpt>
      <trkpt lat="47.84954" lon="6.94243">
        <ele>1124.3</ele>
        <time>2026-08-27T08:21:44.821Z</time>
      </trkpt>
      <trkpt lat="47.84953" lon="6.94244">
        <ele>1124.5</ele>
        <time>2026-08-27T08:21:46.207Z</time>
      </trkpt>
      <trkpt lat="47.84952" lon="6.94244">
        <ele>1124.6</ele>
        <time>2026-08-27T08:21:47.214Z</time>
      </trkpt>
      <trkpt lat="47.84951" lon="6.94244">
        <ele>1124.7</ele>
        <time>2026-08-27T08:21:48.222Z</time>
      </trkpt>
      <trkpt lat="47.8495" lon="6.94245">
        <ele>1124.7</ele>
        <time>2026-08-27T08:21:49.231Z</time>
      </trkpt>
      <trkpt lat="47.8495" lon="6.94246">
        <ele>1124.8</ele>
        <time>2026-08-27T08:21:50.239Z</time>
      </trkpt>
      <trkpt lat="47.84949" lon="6.94247">
        <ele>1124.8</ele>
        <time>2026-08-27T08:21:51.247Z</time>
      </trkpt>
      <trkpt lat="47.84948" lon="6.94249">
        <ele>1124.7</ele>
        <time>2026-08-27T08:21:53.161Z</time>
      </trkpt>
      <trkpt lat="47.84947" lon="6.94249">
        <ele>1124.8</ele>
        <time>2026-08-27T08:21:54.169Z</time>
      </trkpt>
      <trkpt lat="47.84946" lon="6.9425">
        <ele>1124.8</ele>
        <time>2026-08-27T08:21:55.178Z</time>
      </trkpt>
      <trkpt lat="47.84946" lon="6.94251">
        <ele>1124.8</ele>
        <time>2026-08-27T08:21:56.185Z</time>
      </trkpt>
      <trkpt lat="47.84944" lon="6.94253">
        <ele>1124.7</ele>
        <time>2026-08-27T08:21:58.201Z</time>
      </trkpt>
      <trkpt lat="47.84944" lon="6.94254">
        <ele>1124.7</ele>
        <time>2026-08-27T08:21:59.209Z</time>
      </trkpt>
      <trkpt lat="47.84942" lon="6.94257">
        <ele>1124.5</ele>
        <time>2026-08-27T08:22:01.125Z</time>
      </trkpt>
      <trkpt lat="47.84941" lon="6.94258">
        <ele>1124.4</ele>
        <time>2026-08-27T08:22:02.233Z</time>
      </trkpt>
      <trkpt lat="47.8494" lon="6.94259">
        <ele>1124.3</ele>
        <time>2026-08-27T08:22:04.249Z</time>
      </trkpt>
      <trkpt lat="47.8494" lon="6.9426">
        <ele>1124.3</ele>
        <time>2026-08-27T08:22:05.258Z</time>
      </trkpt>
      <trkpt lat="47.84939" lon="6.94261">
        <ele>1124.3</ele>
        <time>2026-08-27T08:22:06.265Z</time>
      </trkpt>
      <trkpt lat="47.84937" lon="6.94262">
        <ele>1124.3</ele>
        <time>2026-08-27T08:22:08.180Z</time>
      </trkpt>
      <trkpt lat="47.84936" lon="6.94263">
        <ele>1124</ele>
        <time>2026-08-27T08:22:10.196Z</time>
      </trkpt>
      <trkpt lat="47.84934" lon="6.94266">
        <ele>1123.9</ele>
        <time>2026-08-27T08:22:12.246Z</time>
      </trkpt>
      <trkpt lat="47.84933" lon="6.94269">
        <ele>1123.8</ele>
        <time>2026-08-27T08:22:14.228Z</time>
      </trkpt>
      <trkpt lat="47.84933" lon="6.9427">
        <ele>1123.8</ele>
        <time>2026-08-27T08:22:15.236Z</time>
      </trkpt>
      <trkpt lat="47.84932" lon="6.94271">
        <ele>1123.8</ele>
        <time>2026-08-27T08:22:16.245Z</time>
      </trkpt>
      <trkpt lat="47.84932" lon="6.94272">
        <ele>1123.6</ele>
        <time>2026-08-27T08:22:17.253Z</time>
      </trkpt>
      <trkpt lat="47.8493" lon="6.94274">
        <ele>1123.3</ele>
        <time>2026-08-27T08:22:19.167Z</time>
      </trkpt>
      <trkpt lat="47.84929" lon="6.94275">
        <ele>1123.1</ele>
        <time>2026-08-27T08:22:20.176Z</time>
      </trkpt>
      <trkpt lat="47.84928" lon="6.94276">
        <ele>1123.1</ele>
        <time>2026-08-27T08:22:21.176Z</time>
      </trkpt>
      <trkpt lat="47.84928" lon="6.94277">
        <ele>1123.1</ele>
        <time>2026-08-27T08:22:22.192Z</time>
      </trkpt>
      <trkpt lat="47.84927" lon="6.94279">
        <ele>1123.1</ele>
        <time>2026-08-27T08:22:23.199Z</time>
      </trkpt>
      <trkpt lat="47.84926" lon="6.9428">
        <ele>1123.1</ele>
        <time>2026-08-27T08:22:24.255Z</time>
      </trkpt>
      <trkpt lat="47.84925" lon="6.94282">
        <ele>1122.6</ele>
        <time>2026-08-27T08:22:26.223Z</time>
      </trkpt>
      <trkpt lat="47.84924" lon="6.94283">
        <ele>1122.6</ele>
        <time>2026-08-27T08:22:27.231Z</time>
      </trkpt>
      <trkpt lat="47.84923" lon="6.94285">
        <ele>1122.5</ele>
        <time>2026-08-27T08:22:28.239Z</time>
      </trkpt>
      <trkpt lat="47.84923" lon="6.94286">
        <ele>1122.5</ele>
        <time>2026-08-27T08:22:29.247Z</time>
      </trkpt>
      <trkpt lat="47.84921" lon="6.94288">
        <ele>1122.5</ele>
        <time>2026-08-27T08:22:31.162Z</time>
      </trkpt>
      <trkpt lat="47.84921" lon="6.94289">
        <ele>1122.3</ele>
        <time>2026-08-27T08:22:32.171Z</time>
      </trkpt>
      <trkpt lat="47.8492" lon="6.9429">
        <ele>1122.3</ele>
        <time>2026-08-27T08:22:33.221Z</time>
      </trkpt>
      <trkpt lat="47.84919" lon="6.94292">
        <ele>1122.5</ele>
        <time>2026-08-27T08:22:35.194Z</time>
      </trkpt>
      <trkpt lat="47.84919" lon="6.94293">
        <ele>1122.3</ele>
        <time>2026-08-27T08:22:36.202Z</time>
      </trkpt>
      <trkpt lat="47.84918" lon="6.94294">
        <ele>1122.3</ele>
        <time>2026-08-27T08:22:37.211Z</time>
      </trkpt>
      <trkpt lat="47.84918" lon="6.94295">
        <ele>1122.3</ele>
        <time>2026-08-27T08:22:38.219Z</time>
      </trkpt>
      <trkpt lat="47.84917" lon="6.94296">
        <ele>1122.1</ele>
        <time>2026-08-27T08:22:39.227Z</time>
      </trkpt>
      <trkpt lat="47.84916" lon="6.94297">
        <ele>1122</ele>
        <time>2026-08-27T08:22:40.235Z</time>
      </trkpt>
      <trkpt lat="47.84915" lon="6.94298">
        <ele>1121.9</ele>
        <time>2026-08-27T08:22:42.166Z</time>
      </trkpt>
      <trkpt lat="47.84914" lon="6.94299">
        <ele>1121.9</ele>
        <time>2026-08-27T08:22:43.175Z</time>
      </trkpt>
      <trkpt lat="47.84914" lon="6.943">
        <ele>1121.9</ele>
        <time>2026-08-27T08:22:44.177Z</time>
      </trkpt>
      <trkpt lat="47.84913" lon="6.94302">
        <ele>1121.8</ele>
        <time>2026-08-27T08:22:45.190Z</time>
      </trkpt>
      <trkpt lat="47.84912" lon="6.94305">
        <ele>1121.9</ele>
        <time>2026-08-27T08:22:47.241Z</time>
      </trkpt>
      <trkpt lat="47.84911" lon="6.94307">
        <ele>1121.6</ele>
        <time>2026-08-27T08:22:49.155Z</time>
      </trkpt>
      <trkpt lat="47.84911" lon="6.94308">
        <ele>1121.7</ele>
        <time>2026-08-27T08:22:50.239Z</time>
      </trkpt>
      <trkpt lat="47.84911" lon="6.94309">
        <ele>1121.8</ele>
        <time>2026-08-27T08:22:52.246Z</time>
      </trkpt>
      <trkpt lat="47.84911" lon="6.94309">
        <ele>1121.8</ele>
        <time>2026-08-27T08:22:53.254Z</time>
      </trkpt>
      <trkpt lat="47.84911" lon="6.94309">
        <ele>1121.2</ele>
        <time>2026-08-27T08:22:55.169Z</time>
      </trkpt>
      <trkpt lat="47.84911" lon="6.94309">
        <ele>1121.1</ele>
        <time>2026-08-27T08:22:56.178Z</time>
      </trkpt>
      <trkpt lat="47.84911" lon="6.94309">
        <ele>1121</ele>
        <time>2026-08-27T08:22:57.186Z</time>
      </trkpt>
      <trkpt lat="47.8491" lon="6.94309">
        <ele>1121</ele>
        <time>2026-08-27T08:22:58.235Z</time>
      </trkpt>
      <trkpt lat="47.84909" lon="6.94311">
        <ele>1120.5</ele>
        <time>2026-08-27T08:23:00.210Z</time>
      </trkpt>
      <trkpt lat="47.84908" lon="6.94311">
        <ele>1120.3</ele>
        <time>2026-08-27T08:23:01.217Z</time>
      </trkpt>
      <trkpt lat="47.84907" lon="6.94312">
        <ele>1120.3</ele>
        <time>2026-08-27T08:23:02.233Z</time>
      </trkpt>
      <trkpt lat="47.84906" lon="6.94312">
        <ele>1120.2</ele>
        <time>2026-08-27T08:23:03.234Z</time>
      </trkpt>
      <trkpt lat="47.84904" lon="6.94314">
        <ele>1120.3</ele>
        <time>2026-08-27T08:23:05.250Z</time>
      </trkpt>
      <trkpt lat="47.84903" lon="6.94315">
        <ele>1120.1</ele>
        <time>2026-08-27T08:23:06.257Z</time>
      </trkpt>
      <trkpt lat="47.84901" lon="6.94317">
        <ele>1120.2</ele>
        <time>2026-08-27T08:23:08.273Z</time>
      </trkpt>
      <trkpt lat="47.849" lon="6.94319">
        <ele>1120.2</ele>
        <time>2026-08-27T08:23:10.171Z</time>
      </trkpt>
      <trkpt lat="47.84899" lon="6.94321">
        <ele>1120</ele>
        <time>2026-08-27T08:23:11.197Z</time>
      </trkpt>
      <trkpt lat="47.84898" lon="6.94322">
        <ele>1120.1</ele>
        <time>2026-08-27T08:23:12.205Z</time>
      </trkpt>
      <trkpt lat="47.84897" lon="6.94323">
        <ele>1119.9</ele>
        <time>2026-08-27T08:23:13.213Z</time>
      </trkpt>
      <trkpt lat="47.84897" lon="6.94325">
        <ele>1119.9</ele>
        <time>2026-08-27T08:23:14.255Z</time>
      </trkpt>
      <trkpt lat="47.84896" lon="6.94326">
        <ele>1119.9</ele>
        <time>2026-08-27T08:23:16.152Z</time>
      </trkpt>
      <trkpt lat="47.84895" lon="6.94328">
        <ele>1119.5</ele>
        <time>2026-08-27T08:23:17.245Z</time>
      </trkpt>
      <trkpt lat="47.84894" lon="6.94329">
        <ele>1119.2</ele>
        <time>2026-08-27T08:23:18.252Z</time>
      </trkpt>
      <trkpt lat="47.84894" lon="6.9433">
        <ele>1119.1</ele>
        <time>2026-08-27T08:23:19.261Z</time>
      </trkpt>
      <trkpt lat="47.84893" lon="6.94333">
        <ele>1118.7</ele>
        <time>2026-08-27T08:23:21.175Z</time>
      </trkpt>
      <trkpt lat="47.84892" lon="6.94334">
        <ele>1118.6</ele>
        <time>2026-08-27T08:23:22.183Z</time>
      </trkpt>
      <trkpt lat="47.84892" lon="6.94336">
        <ele>1118.6</ele>
        <time>2026-08-27T08:23:23.191Z</time>
      </trkpt>
      <trkpt lat="47.84892" lon="6.94337">
        <ele>1118.3</ele>
        <time>2026-08-27T08:23:24.199Z</time>
      </trkpt>
      <trkpt lat="47.84891" lon="6.94338">
        <ele>1118.3</ele>
        <time>2026-08-27T08:23:25.207Z</time>
      </trkpt>
      <trkpt lat="47.84891" lon="6.94339">
        <ele>1118.1</ele>
        <time>2026-08-27T08:23:26.215Z</time>
      </trkpt>
      <trkpt lat="47.84889" lon="6.94341">
        <ele>1118</ele>
        <time>2026-08-27T08:23:28.231Z</time>
      </trkpt>
      <trkpt lat="47.84889" lon="6.94342">
        <ele>1117.8</ele>
        <time>2026-08-27T08:23:29.239Z</time>
      </trkpt>
      <trkpt lat="47.84887" lon="6.94345">
        <ele>1117.4</ele>
        <time>2026-08-27T08:23:31.255Z</time>
      </trkpt>
      <trkpt lat="47.84885" lon="6.94347">
        <ele>1117.5</ele>
        <time>2026-08-27T08:23:33.155Z</time>
      </trkpt>
      <trkpt lat="47.84885" lon="6.94349">
        <ele>1117.4</ele>
        <time>2026-08-27T08:23:34.178Z</time>
      </trkpt>
      <trkpt lat="47.84884" lon="6.9435">
        <ele>1117.5</ele>
        <time>2026-08-27T08:23:35.186Z</time>
      </trkpt>
      <trkpt lat="47.84883" lon="6.94351">
        <ele>1117.4</ele>
        <time>2026-08-27T08:23:36.194Z</time>
      </trkpt>
      <trkpt lat="47.84883" lon="6.94352">
        <ele>1117.2</ele>
        <time>2026-08-27T08:23:37.202Z</time>
      </trkpt>
      <trkpt lat="47.84882" lon="6.94355">
        <ele>1117.1</ele>
        <time>2026-08-27T08:23:39.252Z</time>
      </trkpt>
      <trkpt lat="47.84881" lon="6.94358">
        <ele>1117.1</ele>
        <time>2026-08-27T08:23:41.150Z</time>
      </trkpt>
      <trkpt lat="47.8488" lon="6.94359">
        <ele>1116.9</ele>
        <time>2026-08-27T08:23:42.242Z</time>
      </trkpt>
      <trkpt lat="47.8488" lon="6.9436">
        <ele>1116.8</ele>
        <time>2026-08-27T08:23:43.250Z</time>
      </trkpt>
      <trkpt lat="47.84878" lon="6.94363">
        <ele>1116.7</ele>
        <time>2026-08-27T08:23:45.166Z</time>
      </trkpt>
      <trkpt lat="47.84878" lon="6.94364">
        <ele>1116.6</ele>
        <time>2026-08-27T08:23:46.173Z</time>
      </trkpt>
      <trkpt lat="47.84877" lon="6.94367">
        <ele>1116.4</ele>
        <time>2026-08-27T08:23:48.189Z</time>
      </trkpt>
      <trkpt lat="47.84877" lon="6.94369">
        <ele>1116.1</ele>
        <time>2026-08-27T08:23:49.197Z</time>
      </trkpt>
      <trkpt lat="47.84876" lon="6.9437">
        <ele>1116</ele>
        <time>2026-08-27T08:23:50.206Z</time>
      </trkpt>
      <trkpt lat="47.84876" lon="6.94371">
        <ele>1115.8</ele>
        <time>2026-08-27T08:23:51.213Z</time>
      </trkpt>
      <trkpt lat="47.84875" lon="6.94373">
        <ele>1115.8</ele>
        <time>2026-08-27T08:23:52.238Z</time>
      </trkpt>
      <trkpt lat="47.84875" lon="6.94376">
        <ele>1115.6</ele>
        <time>2026-08-27T08:23:54.179Z</time>
      </trkpt>
      <trkpt lat="47.84874" lon="6.94378">
        <ele>1115.6</ele>
        <time>2026-08-27T08:23:55.262Z</time>
      </trkpt>
      <trkpt lat="47.84873" lon="6.94381">
        <ele>1115.2</ele>
        <time>2026-08-27T08:23:57.261Z</time>
      </trkpt>
      <trkpt lat="47.84873" lon="6.94384">
        <ele>1114.7</ele>
        <time>2026-08-27T08:23:59.177Z</time>
      </trkpt>
      <trkpt lat="47.84872" lon="6.94387">
        <ele>1114.5</ele>
        <time>2026-08-27T08:24:01.201Z</time>
      </trkpt>
      <trkpt lat="47.84872" lon="6.94388">
        <ele>1114.5</ele>
        <time>2026-08-27T08:24:02.202Z</time>
      </trkpt>
      <trkpt lat="47.84871" lon="6.94389">
        <ele>1114.4</ele>
        <time>2026-08-27T08:24:03.209Z</time>
      </trkpt>
      <trkpt lat="47.84871" lon="6.94391">
        <ele>1114.3</ele>
        <time>2026-08-27T08:24:04.217Z</time>
      </trkpt>
      <trkpt lat="47.8487" lon="6.94394">
        <ele>1113.8</ele>
        <time>2026-08-27T08:24:06.232Z</time>
      </trkpt>
      <trkpt lat="47.8487" lon="6.94395">
        <ele>1113.6</ele>
        <time>2026-08-27T08:24:07.241Z</time>
      </trkpt>
      <trkpt lat="47.84869" lon="6.94397">
        <ele>1113.4</ele>
        <time>2026-08-27T08:24:08.248Z</time>
      </trkpt>
      <trkpt lat="47.84868" lon="6.94399">
        <ele>1113.3</ele>
        <time>2026-08-27T08:24:10.138Z</time>
      </trkpt>
      <trkpt lat="47.84868" lon="6.94401">
        <ele>1113.2</ele>
        <time>2026-08-27T08:24:11.172Z</time>
      </trkpt>
      <trkpt lat="47.84867" lon="6.94402">
        <ele>1113.2</ele>
        <time>2026-08-27T08:24:12.180Z</time>
      </trkpt>
      <trkpt lat="47.84866" lon="6.94403">
        <ele>1113.1</ele>
        <time>2026-08-27T08:24:13.188Z</time>
      </trkpt>
      <trkpt lat="47.84866" lon="6.94404">
        <ele>1112.8</ele>
        <time>2026-08-27T08:24:14.197Z</time>
      </trkpt>
      <trkpt lat="47.84865" lon="6.94406">
        <ele>1112.9</ele>
        <time>2026-08-27T08:24:15.204Z</time>
      </trkpt>
      <trkpt lat="47.84865" lon="6.94407">
        <ele>1112.6</ele>
        <time>2026-08-27T08:24:16.212Z</time>
      </trkpt>
      <trkpt lat="47.84865" lon="6.94409">
        <ele>1112.5</ele>
        <time>2026-08-27T08:24:17.220Z</time>
      </trkpt>
      <trkpt lat="47.84865" lon="6.9441">
        <ele>1112.5</ele>
        <time>2026-08-27T08:24:18.229Z</time>
      </trkpt>
      <trkpt lat="47.84864" lon="6.94413">
        <ele>1112.4</ele>
        <time>2026-08-27T08:24:20.248Z</time>
      </trkpt>
      <trkpt lat="47.84863" lon="6.94416">
        <ele>1112.3</ele>
        <time>2026-08-27T08:24:22.265Z</time>
      </trkpt>
      <trkpt lat="47.84862" lon="6.94418">
        <ele>1112.4</ele>
        <time>2026-08-27T08:24:24.235Z</time>
      </trkpt>
      <trkpt lat="47.84861" lon="6.94421">
        <ele>1112.2</ele>
        <time>2026-08-27T08:24:26.233Z</time>
      </trkpt>
      <trkpt lat="47.8486" lon="6.94424">
        <ele>1112.1</ele>
        <time>2026-08-27T08:24:28.211Z</time>
      </trkpt>
      <trkpt lat="47.8486" lon="6.94426">
        <ele>1112</ele>
        <time>2026-08-27T08:24:29.220Z</time>
      </trkpt>
      <trkpt lat="47.84859" lon="6.94429">
        <ele>1111.8</ele>
        <time>2026-08-27T08:24:31.259Z</time>
      </trkpt>
      <trkpt lat="47.84858" lon="6.94432">
        <ele>1111.8</ele>
        <time>2026-08-27T08:24:33.222Z</time>
      </trkpt>
      <trkpt lat="47.84858" lon="6.94434">
        <ele>1111.6</ele>
        <time>2026-08-27T08:24:34.259Z</time>
      </trkpt>
      <trkpt lat="47.84857" lon="6.94436">
        <ele>1111.4</ele>
        <time>2026-08-27T08:24:36.178Z</time>
      </trkpt>
      <trkpt lat="47.84856" lon="6.94437">
        <ele>1111.4</ele>
        <time>2026-08-27T08:24:37.183Z</time>
      </trkpt>
      <trkpt lat="47.84856" lon="6.94438">
        <ele>1111.2</ele>
        <time>2026-08-27T08:24:38.190Z</time>
      </trkpt>
      <trkpt lat="47.84856" lon="6.94439">
        <ele>1111.1</ele>
        <time>2026-08-27T08:24:39.198Z</time>
      </trkpt>
      <trkpt lat="47.84856" lon="6.9444">
        <ele>1111.3</ele>
        <time>2026-08-27T08:24:40.206Z</time>
      </trkpt>
      <trkpt lat="47.84856" lon="6.94442">
        <ele>1111.3</ele>
        <time>2026-08-27T08:24:41.214Z</time>
      </trkpt>
      <trkpt lat="47.84856" lon="6.94443">
        <ele>1111.3</ele>
        <time>2026-08-27T08:24:42.277Z</time>
      </trkpt>
      <trkpt lat="47.84855" lon="6.94444">
        <ele>1110.8</ele>
        <time>2026-08-27T08:24:44.238Z</time>
      </trkpt>
      <trkpt lat="47.84854" lon="6.94445">
        <ele>1110.7</ele>
        <time>2026-08-27T08:24:46.175Z</time>
      </trkpt>
      <trkpt lat="47.84854" lon="6.94446">
        <ele>1110.2</ele>
        <time>2026-08-27T08:24:47.262Z</time>
      </trkpt>
      <trkpt lat="47.84853" lon="6.94446">
        <ele>1110</ele>
        <time>2026-08-27T08:24:48.270Z</time>
      </trkpt>
      <trkpt lat="47.84852" lon="6.94448">
        <ele>1110.2</ele>
        <time>2026-08-27T08:24:50.080Z</time>
      </trkpt>
      <trkpt lat="47.84851" lon="6.94449">
        <ele>1109.8</ele>
        <time>2026-08-27T08:24:52.079Z</time>
      </trkpt>
      <trkpt lat="47.8485" lon="6.9445">
        <ele>1109.7</ele>
        <time>2026-08-27T08:24:53.210Z</time>
      </trkpt>
      <trkpt lat="47.8485" lon="6.94451">
        <ele>1109.5</ele>
        <time>2026-08-27T08:24:54.217Z</time>
      </trkpt>
      <trkpt lat="47.84849" lon="6.94451">
        <ele>1109.1</ele>
        <time>2026-08-27T08:24:55.225Z</time>
      </trkpt>
      <trkpt lat="47.84849" lon="6.94451">
        <ele>1109.1</ele>
        <time>2026-08-27T08:24:56.234Z</time>
      </trkpt>
      <trkpt lat="47.8485" lon="6.9445">
        <ele>1108.9</ele>
        <time>2026-08-27T08:24:57.241Z</time>
      </trkpt>
      <trkpt lat="47.8485" lon="6.9445">
        <ele>1108.8</ele>
        <time>2026-08-27T08:24:58.249Z</time>
      </trkpt>
      <trkpt lat="47.8485" lon="6.9445">
        <ele>1108.9</ele>
        <time>2026-08-27T08:24:59.258Z</time>
      </trkpt>
      <trkpt lat="47.8485" lon="6.94451">
        <ele>1108.8</ele>
        <time>2026-08-27T08:25:00.265Z</time>
      </trkpt>
      <trkpt lat="47.84851" lon="6.94451">
        <ele>1108.7</ele>
        <time>2026-08-27T08:25:02.180Z</time>
      </trkpt>
      <trkpt lat="47.84851" lon="6.94451">
        <ele>1108.8</ele>
        <time>2026-08-27T08:25:04.196Z</time>
      </trkpt>
      <trkpt lat="47.84851" lon="6.94451">
        <ele>1108.8</ele>
        <time>2026-08-27T08:25:05.205Z</time>
      </trkpt>
      <trkpt lat="47.84851" lon="6.94451">
        <ele>1108.9</ele>
        <time>2026-08-27T08:25:06.213Z</time>
      </trkpt>
      <trkpt lat="47.84851" lon="6.94452">
        <ele>1108.6</ele>
        <time>2026-08-27T08:25:07.220Z</time>
      </trkpt>
      <trkpt lat="47.8485" lon="6.94452">
        <ele>1108.5</ele>
        <time>2026-08-27T08:25:08.228Z</time>
      </trkpt>
      <trkpt lat="47.8485" lon="6.94452">
        <ele>1108.6</ele>
        <time>2026-08-27T08:25:09.237Z</time>
      </trkpt>
      <trkpt lat="47.8485" lon="6.94452">
        <ele>1108.8</ele>
        <time>2026-08-27T08:25:10.244Z</time>
      </trkpt>
      <trkpt lat="47.8485" lon="6.94452">
        <ele>1108.5</ele>
        <time>2026-08-27T08:25:12.261Z</time>
      </trkpt>
      <trkpt lat="47.8485" lon="6.94452">
        <ele>1108.5</ele>
        <time>2026-08-27T08:25:13.298Z</time>
      </trkpt>
      <trkpt lat="47.8485" lon="6.94452">
        <ele>1108.4</ele>
        <time>2026-08-27T08:25:15.256Z</time>
      </trkpt>
      <trkpt lat="47.8485" lon="6.94452">
        <ele>1108.5</ele>
        <time>2026-08-27T08:25:17.199Z</time>
      </trkpt>
      <trkpt lat="47.8485" lon="6.94452">
        <ele>1108.4</ele>
        <time>2026-08-27T08:25:18.207Z</time>
      </trkpt>
      <trkpt lat="47.8485" lon="6.94452">
        <ele>1108.4</ele>
        <time>2026-08-27T08:25:19.236Z</time>
      </trkpt>
      <trkpt lat="47.8485" lon="6.94452">
        <ele>1109</ele>
        <time>2026-08-27T08:25:21.231Z</time>
      </trkpt>
      <trkpt lat="47.8485" lon="6.94452">
        <ele>1109.3</ele>
        <time>2026-08-27T08:25:22.239Z</time>
      </trkpt>
      <trkpt lat="47.8485" lon="6.94452">
        <ele>1109.5</ele>
        <time>2026-08-27T08:25:24.256Z</time>
      </trkpt>
      <trkpt lat="47.8485" lon="6.94452">
        <ele>1109.7</ele>
        <time>2026-08-27T08:25:26.170Z</time>
      </trkpt>
      <trkpt lat="47.84849" lon="6.94453">
        <ele>1109.9</ele>
        <time>2026-08-27T08:25:28.186Z</time>
      </trkpt>
      <trkpt lat="47.84849" lon="6.94454">
        <ele>1110</ele>
        <time>2026-08-27T08:25:29.194Z</time>
      </trkpt>
      <trkpt lat="47.84847" lon="6.94455">
        <ele>1109.7</ele>
        <time>2026-08-27T08:25:31.211Z</time>
      </trkpt>
      <trkpt lat="47.84846" lon="6.94456">
        <ele>1109.7</ele>
        <time>2026-08-27T08:25:32.218Z</time>
      </trkpt>
      <trkpt lat="47.84845" lon="6.94457">
        <ele>1109.5</ele>
        <time>2026-08-27T08:25:33.226Z</time>
      </trkpt>
      <trkpt lat="47.84843" lon="6.9446">
        <ele>1109.3</ele>
        <time>2026-08-27T08:25:35.243Z</time>
      </trkpt>
      <trkpt lat="47.84841" lon="6.94461">
        <ele>1109</ele>
        <time>2026-08-27T08:25:36.250Z</time>
      </trkpt>
      <trkpt lat="47.8484" lon="6.94462">
        <ele>1108.8</ele>
        <time>2026-08-27T08:25:37.258Z</time>
      </trkpt>
      <trkpt lat="47.84839" lon="6.94463">
        <ele>1108.7</ele>
        <time>2026-08-27T08:25:38.266Z</time>
      </trkpt>
      <trkpt lat="47.84836" lon="6.94464">
        <ele>1108.9</ele>
        <time>2026-08-27T08:25:40.219Z</time>
      </trkpt>
      <trkpt lat="47.84834" lon="6.94466">
        <ele>1108.5</ele>
        <time>2026-08-27T08:25:42.197Z</time>
      </trkpt>
      <trkpt lat="47.84833" lon="6.94467">
        <ele>1108.1</ele>
        <time>2026-08-27T08:25:43.206Z</time>
      </trkpt>
      <trkpt lat="47.84832" lon="6.94468">
        <ele>1108</ele>
        <time>2026-08-27T08:25:44.214Z</time>
      </trkpt>
      <trkpt lat="47.84831" lon="6.94469">
        <ele>1107.9</ele>
        <time>2026-08-27T08:25:45.221Z</time>
      </trkpt>
      <trkpt lat="47.8483" lon="6.94472">
        <ele>1107.7</ele>
        <time>2026-08-27T08:25:47.237Z</time>
      </trkpt>
      <trkpt lat="47.84829" lon="6.94473">
        <ele>1107.6</ele>
        <time>2026-08-27T08:25:48.246Z</time>
      </trkpt>
      <trkpt lat="47.84829" lon="6.94474">
        <ele>1107.6</ele>
        <time>2026-08-27T08:25:49.274Z</time>
      </trkpt>
      <trkpt lat="47.84828" lon="6.94476">
        <ele>1107.6</ele>
        <time>2026-08-27T08:25:51.169Z</time>
      </trkpt>
      <trkpt lat="47.84827" lon="6.94478">
        <ele>1107.5</ele>
        <time>2026-08-27T08:25:53.039Z</time>
      </trkpt>
      <trkpt lat="47.84827" lon="6.94479">
        <ele>1107.4</ele>
        <time>2026-08-27T08:25:54.096Z</time>
      </trkpt>
      <trkpt lat="47.84827" lon="6.9448">
        <ele>1107.1</ele>
        <time>2026-08-27T08:25:55.200Z</time>
      </trkpt>
      <trkpt lat="47.84826" lon="6.94481">
        <ele>1107.1</ele>
        <time>2026-08-27T08:25:56.208Z</time>
      </trkpt>
      <trkpt lat="47.84826" lon="6.94482">
        <ele>1106.8</ele>
        <time>2026-08-27T08:25:57.216Z</time>
      </trkpt>
      <trkpt lat="47.84825" lon="6.94484">
        <ele>1106.7</ele>
        <time>2026-08-27T08:25:59.253Z</time>
      </trkpt>
      <trkpt lat="47.84823" lon="6.94485">
        <ele>1106.3</ele>
        <time>2026-08-27T08:26:01.248Z</time>
      </trkpt>
      <trkpt lat="47.84823" lon="6.94485">
        <ele>1106</ele>
        <time>2026-08-27T08:26:02.256Z</time>
      </trkpt>
      <trkpt lat="47.84822" lon="6.94486">
        <ele>1106</ele>
        <time>2026-08-27T08:26:03.264Z</time>
      </trkpt>
      <trkpt lat="47.84821" lon="6.94488">
        <ele>1105.9</ele>
        <time>2026-08-27T08:26:05.234Z</time>
      </trkpt>
      <trkpt lat="47.84821" lon="6.9449">
        <ele>1105.5</ele>
        <time>2026-08-27T08:26:07.099Z</time>
      </trkpt>
      <trkpt lat="47.8482" lon="6.9449">
        <ele>1106</ele>
        <time>2026-08-27T08:26:08.205Z</time>
      </trkpt>
      <trkpt lat="47.8482" lon="6.94491">
        <ele>1105.8</ele>
        <time>2026-08-27T08:26:09.213Z</time>
      </trkpt>
      <trkpt lat="47.8482" lon="6.94493">
        <ele>1105.7</ele>
        <time>2026-08-27T08:26:10.221Z</time>
      </trkpt>
      <trkpt lat="47.84819" lon="6.94494">
        <ele>1105.8</ele>
        <time>2026-08-27T08:26:11.228Z</time>
      </trkpt>
      <trkpt lat="47.84819" lon="6.94496">
        <ele>1105.3</ele>
        <time>2026-08-27T08:26:13.155Z</time>
      </trkpt>
      <trkpt lat="47.84818" lon="6.94496">
        <ele>1104.9</ele>
        <time>2026-08-27T08:26:14.252Z</time>
      </trkpt>
      <trkpt lat="47.84818" lon="6.94497">
        <ele>1104.7</ele>
        <time>2026-08-27T08:26:15.260Z</time>
      </trkpt>
      <trkpt lat="47.84817" lon="6.94498">
        <ele>1104.6</ele>
        <time>2026-08-27T08:26:16.268Z</time>
      </trkpt>
      <trkpt lat="47.84816" lon="6.945">
        <ele>1104.2</ele>
        <time>2026-08-27T08:26:18.183Z</time>
      </trkpt>
      <trkpt lat="47.84816" lon="6.94501">
        <ele>1104.2</ele>
        <time>2026-08-27T08:26:19.237Z</time>
      </trkpt>
      <trkpt lat="47.84815" lon="6.94502">
        <ele>1104</ele>
        <time>2026-08-27T08:26:21.177Z</time>
      </trkpt>
      <trkpt lat="47.84814" lon="6.94503">
        <ele>1103.7</ele>
        <time>2026-08-27T08:26:22.216Z</time>
      </trkpt>
      <trkpt lat="47.84814" lon="6.94503">
        <ele>1103.2</ele>
        <time>2026-08-27T08:26:23.224Z</time>
      </trkpt>
      <trkpt lat="47.84813" lon="6.94504">
        <ele>1103.1</ele>
        <time>2026-08-27T08:26:24.231Z</time>
      </trkpt>
      <trkpt lat="47.84813" lon="6.94504">
        <ele>1103.1</ele>
        <time>2026-08-27T08:26:25.239Z</time>
      </trkpt>
      <trkpt lat="47.84812" lon="6.94505">
        <ele>1102.9</ele>
        <time>2026-08-27T08:26:27.256Z</time>
      </trkpt>
      <trkpt lat="47.84812" lon="6.94506">
        <ele>1102.8</ele>
        <time>2026-08-27T08:26:28.263Z</time>
      </trkpt>
      <trkpt lat="47.84811" lon="6.94506">
        <ele>1102.5</ele>
        <time>2026-08-27T08:26:29.271Z</time>
      </trkpt>
      <trkpt lat="47.8481" lon="6.94507">
        <ele>1102.5</ele>
        <time>2026-08-27T08:26:31.215Z</time>
      </trkpt>
      <trkpt lat="47.84809" lon="6.9451">
        <ele>1101.8</ele>
        <time>2026-08-27T08:26:33.203Z</time>
      </trkpt>
      <trkpt lat="47.84808" lon="6.94511">
        <ele>1101.8</ele>
        <time>2026-08-27T08:26:34.257Z</time>
      </trkpt>
      <trkpt lat="47.84807" lon="6.94514">
        <ele>1101.4</ele>
        <time>2026-08-27T08:26:36.226Z</time>
      </trkpt>
      <trkpt lat="47.84806" lon="6.94515">
        <ele>1101.3</ele>
        <time>2026-08-27T08:26:37.239Z</time>
      </trkpt>
      <trkpt lat="47.84805" lon="6.94517">
        <ele>1100.8</ele>
        <time>2026-08-27T08:26:39.254Z</time>
      </trkpt>
      <trkpt lat="47.84804" lon="6.9452">
        <ele>1100.5</ele>
        <time>2026-08-27T08:26:41.262Z</time>
      </trkpt>
      <trkpt lat="47.84804" lon="6.94522">
        <ele>1099.5</ele>
        <time>2026-08-27T08:26:43.186Z</time>
      </trkpt>
      <trkpt lat="47.84803" lon="6.94523">
        <ele>1099.2</ele>
        <time>2026-08-27T08:26:44.193Z</time>
      </trkpt>
      <trkpt lat="47.84802" lon="6.94526">
        <ele>1098.7</ele>
        <time>2026-08-27T08:26:46.209Z</time>
      </trkpt>
      <trkpt lat="47.84802" lon="6.94527">
        <ele>1098.5</ele>
        <time>2026-08-27T08:26:47.217Z</time>
      </trkpt>
      <trkpt lat="47.84802" lon="6.94528">
        <ele>1098.3</ele>
        <time>2026-08-27T08:26:48.225Z</time>
      </trkpt>
      <trkpt lat="47.84802" lon="6.94531">
        <ele>1098.1</ele>
        <time>2026-08-27T08:26:50.241Z</time>
      </trkpt>
      <trkpt lat="47.84802" lon="6.94532">
        <ele>1097.9</ele>
        <time>2026-08-27T08:26:51.250Z</time>
      </trkpt>
      <trkpt lat="47.84802" lon="6.94533">
        <ele>1097.7</ele>
        <time>2026-08-27T08:26:52.261Z</time>
      </trkpt>
      <trkpt lat="47.84801" lon="6.94534">
        <ele>1097.2</ele>
        <time>2026-08-27T08:26:54.178Z</time>
      </trkpt>
      <trkpt lat="47.84801" lon="6.94535">
        <ele>1097.2</ele>
        <time>2026-08-27T08:26:55.186Z</time>
      </trkpt>
      <trkpt lat="47.84801" lon="6.94535">
        <ele>1097.1</ele>
        <time>2026-08-27T08:26:56.193Z</time>
      </trkpt>
      <trkpt lat="47.848" lon="6.94536">
        <ele>1097.1</ele>
        <time>2026-08-27T08:26:57.201Z</time>
      </trkpt>
      <trkpt lat="47.84799" lon="6.94537">
        <ele>1096.8</ele>
        <time>2026-08-27T08:26:58.210Z</time>
      </trkpt>
      <trkpt lat="47.84798" lon="6.94538">
        <ele>1097.1</ele>
        <time>2026-08-27T08:26:59.218Z</time>
      </trkpt>
      <trkpt lat="47.84797" lon="6.9454">
        <ele>1097.1</ele>
        <time>2026-08-27T08:27:00.226Z</time>
      </trkpt>
      <trkpt lat="47.84797" lon="6.94541">
        <ele>1096.9</ele>
        <time>2026-08-27T08:27:01.233Z</time>
      </trkpt>
      <trkpt lat="47.84796" lon="6.94542">
        <ele>1096.9</ele>
        <time>2026-08-27T08:27:02.241Z</time>
      </trkpt>
      <trkpt lat="47.84795" lon="6.94543">
        <ele>1096.7</ele>
        <time>2026-08-27T08:27:03.250Z</time>
      </trkpt>
      <trkpt lat="47.84794" lon="6.94545">
        <ele>1096.6</ele>
        <time>2026-08-27T08:27:04.257Z</time>
      </trkpt>
      <trkpt lat="47.84793" lon="6.94547">
        <ele>1096.7</ele>
        <time>2026-08-27T08:27:06.172Z</time>
      </trkpt>
      <trkpt lat="47.84792" lon="6.94548">
        <ele>1096.6</ele>
        <time>2026-08-27T08:27:07.181Z</time>
      </trkpt>
      <trkpt lat="47.84791" lon="6.94548">
        <ele>1096.6</ele>
        <time>2026-08-27T08:27:08.189Z</time>
      </trkpt>
      <trkpt lat="47.8479" lon="6.94549">
        <ele>1096.4</ele>
        <time>2026-08-27T08:27:09.196Z</time>
      </trkpt>
      <trkpt lat="47.8479" lon="6.9455">
        <ele>1096.2</ele>
        <time>2026-08-27T08:27:10.204Z</time>
      </trkpt>
      <trkpt lat="47.8479" lon="6.9455">
        <ele>1096.1</ele>
        <time>2026-08-27T08:27:11.212Z</time>
      </trkpt>
      <trkpt lat="47.8479" lon="6.94551">
        <ele>1095.8</ele>
        <time>2026-08-27T08:27:13.156Z</time>
      </trkpt>
      <trkpt lat="47.84789" lon="6.94552">
        <ele>1095.5</ele>
        <time>2026-08-27T08:27:14.236Z</time>
      </trkpt>
      <trkpt lat="47.84789" lon="6.94552">
        <ele>1095.5</ele>
        <time>2026-08-27T08:27:15.245Z</time>
      </trkpt>
      <trkpt lat="47.84788" lon="6.94553">
        <ele>1095.4</ele>
        <time>2026-08-27T08:27:16.253Z</time>
      </trkpt>
      <trkpt lat="47.84788" lon="6.94554">
        <ele>1095.1</ele>
        <time>2026-08-27T08:27:17.260Z</time>
      </trkpt>
      <trkpt lat="47.84787" lon="6.94556">
        <ele>1094.8</ele>
        <time>2026-08-27T08:27:19.175Z</time>
      </trkpt>
      <trkpt lat="47.84787" lon="6.94557">
        <ele>1094.8</ele>
        <time>2026-08-27T08:27:20.180Z</time>
      </trkpt>
      <trkpt lat="47.84786" lon="6.94557">
        <ele>1094.4</ele>
        <time>2026-08-27T08:27:21.191Z</time>
      </trkpt>
      <trkpt lat="47.84786" lon="6.94559">
        <ele>1094.1</ele>
        <time>2026-08-27T08:27:23.178Z</time>
      </trkpt>
      <trkpt lat="47.84786" lon="6.94561">
        <ele>1093.9</ele>
        <time>2026-08-27T08:27:24.261Z</time>
      </trkpt>
      <trkpt lat="47.84785" lon="6.94563">
        <ele>1093.8</ele>
        <time>2026-08-27T08:27:26.231Z</time>
      </trkpt>
      <trkpt lat="47.84785" lon="6.94564">
        <ele>1093.4</ele>
        <time>2026-08-27T08:27:27.239Z</time>
      </trkpt>
      <trkpt lat="47.84785" lon="6.94566">
        <ele>1093.4</ele>
        <time>2026-08-27T08:27:28.247Z</time>
      </trkpt>
      <trkpt lat="47.84784" lon="6.94567">
        <ele>1093.2</ele>
        <time>2026-08-27T08:27:29.256Z</time>
      </trkpt>
      <trkpt lat="47.84783" lon="6.9457">
        <ele>1092.8</ele>
        <time>2026-08-27T08:27:31.170Z</time>
      </trkpt>
      <trkpt lat="47.84783" lon="6.94573">
        <ele>1092.6</ele>
        <time>2026-08-27T08:27:33.258Z</time>
      </trkpt>
      <trkpt lat="47.84783" lon="6.94575">
        <ele>1092.1</ele>
        <time>2026-08-27T08:27:35.202Z</time>
      </trkpt>
      <trkpt lat="47.84782" lon="6.94577">
        <ele>1091.8</ele>
        <time>2026-08-27T08:27:37.218Z</time>
      </trkpt>
      <trkpt lat="47.84781" lon="6.94577">
        <ele>1091.6</ele>
        <time>2026-08-27T08:27:38.226Z</time>
      </trkpt>
      <trkpt lat="47.84781" lon="6.94579">
        <ele>1091.4</ele>
        <time>2026-08-27T08:27:39.234Z</time>
      </trkpt>
      <trkpt lat="47.84781" lon="6.9458">
        <ele>1091.1</ele>
        <time>2026-08-27T08:27:40.242Z</time>
      </trkpt>
      <trkpt lat="47.84781" lon="6.94581">
        <ele>1091</ele>
        <time>2026-08-27T08:27:41.250Z</time>
      </trkpt>
      <trkpt lat="47.8478" lon="6.94583">
        <ele>1090.7</ele>
        <time>2026-08-27T08:27:42.258Z</time>
      </trkpt>
      <trkpt lat="47.8478" lon="6.94586">
        <ele>1090.4</ele>
        <time>2026-08-27T08:27:44.173Z</time>
      </trkpt>
      <trkpt lat="47.84779" lon="6.94586">
        <ele>1090.3</ele>
        <time>2026-08-27T08:27:45.182Z</time>
      </trkpt>
      <trkpt lat="47.84778" lon="6.94587">
        <ele>1090.3</ele>
        <time>2026-08-27T08:27:47.277Z</time>
      </trkpt>
      <trkpt lat="47.84778" lon="6.94588">
        <ele>1090.1</ele>
        <time>2026-08-27T08:27:49.213Z</time>
      </trkpt>
      <trkpt lat="47.84777" lon="6.94588">
        <ele>1090.2</ele>
        <time>2026-08-27T08:27:50.221Z</time>
      </trkpt>
      <trkpt lat="47.84777" lon="6.94588">
        <ele>1089.9</ele>
        <time>2026-08-27T08:27:51.230Z</time>
      </trkpt>
      <trkpt lat="47.84777" lon="6.94588">
        <ele>1090</ele>
        <time>2026-08-27T08:27:52.237Z</time>
      </trkpt>
      <trkpt lat="47.84777" lon="6.94588">
        <ele>1090.1</ele>
        <time>2026-08-27T08:27:53.246Z</time>
      </trkpt>
      <trkpt lat="47.84777" lon="6.94589">
        <ele>1090</ele>
        <time>2026-08-27T08:27:54.258Z</time>
      </trkpt>
      <trkpt lat="47.84776" lon="6.94589">
        <ele>1089.9</ele>
        <time>2026-08-27T08:27:55.262Z</time>
      </trkpt>
      <trkpt lat="47.84775" lon="6.94591">
        <ele>1089.6</ele>
        <time>2026-08-27T08:27:57.176Z</time>
      </trkpt>
      <trkpt lat="47.84774" lon="6.94593">
        <ele>1089.2</ele>
        <time>2026-08-27T08:27:58.185Z</time>
      </trkpt>
      <trkpt lat="47.84773" lon="6.94594">
        <ele>1089.2</ele>
        <time>2026-08-27T08:27:59.198Z</time>
      </trkpt>
      <trkpt lat="47.84773" lon="6.94595">
        <ele>1089</ele>
        <time>2026-08-27T08:28:00.201Z</time>
      </trkpt>
      <trkpt lat="47.84772" lon="6.94597">
        <ele>1088.3</ele>
        <time>2026-08-27T08:28:02.217Z</time>
      </trkpt>
      <trkpt lat="47.84772" lon="6.94598">
        <ele>1088.5</ele>
        <time>2026-08-27T08:28:03.225Z</time>
      </trkpt>
      <trkpt lat="47.8477" lon="6.94598">
        <ele>1088</ele>
        <time>2026-08-27T08:28:05.241Z</time>
      </trkpt>
      <trkpt lat="47.8477" lon="6.94599">
        <ele>1087.7</ele>
        <time>2026-08-27T08:28:06.249Z</time>
      </trkpt>
      <trkpt lat="47.8477" lon="6.946">
        <ele>1087.6</ele>
        <time>2026-08-27T08:28:07.256Z</time>
      </trkpt>
      <trkpt lat="47.8477" lon="6.94601">
        <ele>1087.2</ele>
        <time>2026-08-27T08:28:08.264Z</time>
      </trkpt>
      <trkpt lat="47.8477" lon="6.94602">
        <ele>1086.9</ele>
        <time>2026-08-27T08:28:10.180Z</time>
      </trkpt>
      <trkpt lat="47.84771" lon="6.94602">
        <ele>1086.5</ele>
        <time>2026-08-27T08:28:11.188Z</time>
      </trkpt>
      <trkpt lat="47.84772" lon="6.94602">
        <ele>1086.3</ele>
        <time>2026-08-27T08:28:12.197Z</time>
      </trkpt>
      <trkpt lat="47.84773" lon="6.94602">
        <ele>1086.1</ele>
        <time>2026-08-27T08:28:13.204Z</time>
      </trkpt>
      <trkpt lat="47.84774" lon="6.94602">
        <ele>1085.9</ele>
        <time>2026-08-27T08:28:14.212Z</time>
      </trkpt>
      <trkpt lat="47.84774" lon="6.94602">
        <ele>1085.9</ele>
        <time>2026-08-27T08:28:15.221Z</time>
      </trkpt>
      <trkpt lat="47.84775" lon="6.94602">
        <ele>1085.8</ele>
        <time>2026-08-27T08:28:16.228Z</time>
      </trkpt>
      <trkpt lat="47.84776" lon="6.94602">
        <ele>1085.8</ele>
        <time>2026-08-27T08:28:17.283Z</time>
      </trkpt>
      <trkpt lat="47.84777" lon="6.94601">
        <ele>1085</ele>
        <time>2026-08-27T08:28:19.253Z</time>
      </trkpt>
      <trkpt lat="47.84778" lon="6.94601">
        <ele>1085</ele>
        <time>2026-08-27T08:28:21.079Z</time>
      </trkpt>
      <trkpt lat="47.84778" lon="6.94602">
        <ele>1084.9</ele>
        <time>2026-08-27T08:28:22.175Z</time>
      </trkpt>
      <trkpt lat="47.84778" lon="6.94602">
        <ele>1084.9</ele>
        <time>2026-08-27T08:28:23.222Z</time>
      </trkpt>
      <trkpt lat="47.84778" lon="6.94603">
        <ele>1084.4</ele>
        <time>2026-08-27T08:28:25.279Z</time>
      </trkpt>
      <trkpt lat="47.84779" lon="6.94603">
        <ele>1084.2</ele>
        <time>2026-08-27T08:28:27.215Z</time>
      </trkpt>
      <trkpt lat="47.84779" lon="6.94603">
        <ele>1084.3</ele>
        <time>2026-08-27T08:28:28.223Z</time>
      </trkpt>
      <trkpt lat="47.84779" lon="6.94603">
        <ele>1084.1</ele>
        <time>2026-08-27T08:28:29.231Z</time>
      </trkpt>
      <trkpt lat="47.84779" lon="6.94603">
        <ele>1084.1</ele>
        <time>2026-08-27T08:28:30.277Z</time>
      </trkpt>
      <trkpt lat="47.84779" lon="6.94604">
        <ele>1084</ele>
        <time>2026-08-27T08:28:32.255Z</time>
      </trkpt>
      <trkpt lat="47.84778" lon="6.94604">
        <ele>1083.8</ele>
        <time>2026-08-27T08:28:34.171Z</time>
      </trkpt>
      <trkpt lat="47.84778" lon="6.94605">
        <ele>1083.6</ele>
        <time>2026-08-27T08:28:35.179Z</time>
      </trkpt>
      <trkpt lat="47.84778" lon="6.94605">
        <ele>1083.3</ele>
        <time>2026-08-27T08:28:36.186Z</time>
      </trkpt>
      <trkpt lat="47.84778" lon="6.94605">
        <ele>1083</ele>
        <time>2026-08-27T08:28:37.195Z</time>
      </trkpt>
      <trkpt lat="47.84778" lon="6.94606">
        <ele>1083.1</ele>
        <time>2026-08-27T08:28:38.203Z</time>
      </trkpt>
      <trkpt lat="47.84778" lon="6.94606">
        <ele>1082.8</ele>
        <time>2026-08-27T08:28:39.210Z</time>
      </trkpt>
      <trkpt lat="47.84778" lon="6.94607">
        <ele>1082.4</ele>
        <time>2026-08-27T08:28:40.219Z</time>
      </trkpt>
      <trkpt lat="47.84778" lon="6.94609">
        <ele>1082.4</ele>
        <time>2026-08-27T08:28:41.256Z</time>
      </trkpt>
      <trkpt lat="47.84778" lon="6.94612">
        <ele>1081.9</ele>
        <time>2026-08-27T08:28:43.243Z</time>
      </trkpt>
      <trkpt lat="47.84777" lon="6.94614">
        <ele>1081.6</ele>
        <time>2026-08-27T08:28:44.250Z</time>
      </trkpt>
      <trkpt lat="47.84777" lon="6.94616">
        <ele>1081.3</ele>
        <time>2026-08-27T08:28:45.259Z</time>
      </trkpt>
      <trkpt lat="47.84776" lon="6.94618">
        <ele>1081</ele>
        <time>2026-08-27T08:28:47.174Z</time>
      </trkpt>
      <trkpt lat="47.84776" lon="6.94619">
        <ele>1081</ele>
        <time>2026-08-27T08:28:48.278Z</time>
      </trkpt>
      <trkpt lat="47.84775" lon="6.9462">
        <ele>1080.7</ele>
        <time>2026-08-27T08:28:50.197Z</time>
      </trkpt>
      <trkpt lat="47.84775" lon="6.9462">
        <ele>1080.7</ele>
        <time>2026-08-27T08:28:51.205Z</time>
      </trkpt>
      <trkpt lat="47.84774" lon="6.94621">
        <ele>1080.7</ele>
        <time>2026-08-27T08:28:52.213Z</time>
      </trkpt>
      <trkpt lat="47.84774" lon="6.94622">
        <ele>1080.6</ele>
        <time>2026-08-27T08:28:53.221Z</time>
      </trkpt>
      <trkpt lat="47.84773" lon="6.94623">
        <ele>1080.2</ele>
        <time>2026-08-27T08:28:54.229Z</time>
      </trkpt>
      <trkpt lat="47.84773" lon="6.94623">
        <ele>1080.3</ele>
        <time>2026-08-27T08:28:55.238Z</time>
      </trkpt>
      <trkpt lat="47.84772" lon="6.94624">
        <ele>1080</ele>
        <time>2026-08-27T08:28:56.246Z</time>
      </trkpt>
      <trkpt lat="47.84772" lon="6.94624">
        <ele>1079.9</ele>
        <time>2026-08-27T08:28:57.254Z</time>
      </trkpt>
      <trkpt lat="47.84772" lon="6.94625">
        <ele>1079.6</ele>
        <time>2026-08-27T08:28:58.261Z</time>
      </trkpt>
      <trkpt lat="47.84772" lon="6.94625">
        <ele>1079.4</ele>
        <time>2026-08-27T08:29:00.277Z</time>
      </trkpt>
      <trkpt lat="47.84773" lon="6.94627">
        <ele>1079.1</ele>
        <time>2026-08-27T08:29:02.193Z</time>
      </trkpt>
      <trkpt lat="47.84774" lon="6.94627">
        <ele>1078.8</ele>
        <time>2026-08-27T08:29:04.210Z</time>
      </trkpt>
      <trkpt lat="47.84775" lon="6.94627">
        <ele>1078.6</ele>
        <time>2026-08-27T08:29:05.217Z</time>
      </trkpt>
      <trkpt lat="47.84775" lon="6.94627">
        <ele>1078.1</ele>
        <time>2026-08-27T08:29:06.226Z</time>
      </trkpt>
      <trkpt lat="47.84775" lon="6.94628">
        <ele>1078</ele>
        <time>2026-08-27T08:29:07.233Z</time>
      </trkpt>
      <trkpt lat="47.84775" lon="6.94628">
        <ele>1077.6</ele>
        <time>2026-08-27T08:29:08.242Z</time>
      </trkpt>
      <trkpt lat="47.84775" lon="6.94629">
        <ele>1077.6</ele>
        <time>2026-08-27T08:29:09.249Z</time>
      </trkpt>
      <trkpt lat="47.84775" lon="6.94629">
        <ele>1077.6</ele>
        <time>2026-08-27T08:29:10.258Z</time>
      </trkpt>
      <trkpt lat="47.84775" lon="6.94629">
        <ele>1077.4</ele>
        <time>2026-08-27T08:29:11.265Z</time>
      </trkpt>
      <trkpt lat="47.84775" lon="6.94629">
        <ele>1077.7</ele>
        <time>2026-08-27T08:29:13.181Z</time>
      </trkpt>
      <trkpt lat="47.84775" lon="6.94629">
        <ele>1077.7</ele>
        <time>2026-08-27T08:29:14.289Z</time>
      </trkpt>
      <trkpt lat="47.84775" lon="6.94629">
        <ele>1077.7</ele>
        <time>2026-08-27T08:29:16.158Z</time>
      </trkpt>
      <trkpt lat="47.84775" lon="6.94629">
        <ele>1077.5</ele>
        <time>2026-08-27T08:29:17.258Z</time>
      </trkpt>
      <trkpt lat="47.84776" lon="6.94628">
        <ele>1077.5</ele>
        <time>2026-08-27T08:29:19.228Z</time>
      </trkpt>
      <trkpt lat="47.84777" lon="6.94627">
        <ele>1077.7</ele>
        <time>2026-08-27T08:29:20.237Z</time>
      </trkpt>
      <trkpt lat="47.84777" lon="6.94626">
        <ele>1077.7</ele>
        <time>2026-08-27T08:29:21.244Z</time>
      </trkpt>
      <trkpt lat="47.84778" lon="6.94626">
        <ele>1077.1</ele>
        <time>2026-08-27T08:29:22.253Z</time>
      </trkpt>
      <trkpt lat="47.84779" lon="6.94625">
        <ele>1077.2</ele>
        <time>2026-08-27T08:29:23.260Z</time>
      </trkpt>
      <trkpt lat="47.8478" lon="6.94624">
        <ele>1077.3</ele>
        <time>2026-08-27T08:29:25.196Z</time>
      </trkpt>
      <trkpt lat="47.84782" lon="6.94623">
        <ele>1076.7</ele>
        <time>2026-08-27T08:29:27.191Z</time>
      </trkpt>
      <trkpt lat="47.84783" lon="6.94623">
        <ele>1076.7</ele>
        <time>2026-08-27T08:29:28.220Z</time>
      </trkpt>
      <trkpt lat="47.84785" lon="6.94622">
        <ele>1076.2</ele>
        <time>2026-08-27T08:29:29.279Z</time>
      </trkpt>
      <trkpt lat="47.84786" lon="6.94621">
        <ele>1076.1</ele>
        <time>2026-08-27T08:29:31.224Z</time>
      </trkpt>
      <trkpt lat="47.84787" lon="6.94621">
        <ele>1075.8</ele>
        <time>2026-08-27T08:29:32.231Z</time>
      </trkpt>
      <trkpt lat="47.84789" lon="6.9462">
        <ele>1075.4</ele>
        <time>2026-08-27T08:29:34.247Z</time>
      </trkpt>
      <trkpt lat="47.8479" lon="6.9462">
        <ele>1074.7</ele>
        <time>2026-08-27T08:29:35.255Z</time>
      </trkpt>
      <trkpt lat="47.8479" lon="6.9462">
        <ele>1074.7</ele>
        <time>2026-08-27T08:29:36.264Z</time>
      </trkpt>
      <trkpt lat="47.84791" lon="6.9462">
        <ele>1074</ele>
        <time>2026-08-27T08:29:38.116Z</time>
      </trkpt>
      <trkpt lat="47.8479" lon="6.94621">
        <ele>1073.5</ele>
        <time>2026-08-27T08:29:40.259Z</time>
      </trkpt>
      <trkpt lat="47.84789" lon="6.94622">
        <ele>1073.1</ele>
        <time>2026-08-27T08:29:42.211Z</time>
      </trkpt>
      <trkpt lat="47.84789" lon="6.94623">
        <ele>1072.9</ele>
        <time>2026-08-27T08:29:43.219Z</time>
      </trkpt>
      <trkpt lat="47.84788" lon="6.94625">
        <ele>1072.4</ele>
        <time>2026-08-27T08:29:45.235Z</time>
      </trkpt>
      <trkpt lat="47.84788" lon="6.94626">
        <ele>1072.4</ele>
        <time>2026-08-27T08:29:46.243Z</time>
      </trkpt>
      <trkpt lat="47.84787" lon="6.94627">
        <ele>1072.2</ele>
        <time>2026-08-27T08:29:47.252Z</time>
      </trkpt>
      <trkpt lat="47.84787" lon="6.94628">
        <ele>1072</ele>
        <time>2026-08-27T08:29:48.259Z</time>
      </trkpt>
      <trkpt lat="47.84787" lon="6.9463">
        <ele>1071.7</ele>
        <time>2026-08-27T08:29:50.196Z</time>
      </trkpt>
      <trkpt lat="47.84787" lon="6.94631">
        <ele>1071.2</ele>
        <time>2026-08-27T08:29:52.190Z</time>
      </trkpt>
      <trkpt lat="47.84787" lon="6.94632">
        <ele>1071.2</ele>
        <time>2026-08-27T08:29:53.198Z</time>
      </trkpt>
      <trkpt lat="47.84787" lon="6.94631">
        <ele>1071</ele>
        <time>2026-08-27T08:29:54.206Z</time>
      </trkpt>
      <trkpt lat="47.84787" lon="6.9463">
        <ele>1071.1</ele>
        <time>2026-08-27T08:29:55.214Z</time>
      </trkpt>
      <trkpt lat="47.84787" lon="6.9463">
        <ele>1070.9</ele>
        <time>2026-08-27T08:29:56.223Z</time>
      </trkpt>
      <trkpt lat="47.84787" lon="6.94629">
        <ele>1070.6</ele>
        <time>2026-08-27T08:29:57.230Z</time>
      </trkpt>
      <trkpt lat="47.84787" lon="6.94629">
        <ele>1070.6</ele>
        <time>2026-08-27T08:29:58.239Z</time>
      </trkpt>
      <trkpt lat="47.84787" lon="6.94629">
        <ele>1070.7</ele>
        <time>2026-08-27T08:29:59.246Z</time>
      </trkpt>
      <trkpt lat="47.84787" lon="6.94629">
        <ele>1070.7</ele>
        <time>2026-08-27T08:30:00.254Z</time>
      </trkpt>
      <trkpt lat="47.84787" lon="6.94629">
        <ele>1070.7</ele>
        <time>2026-08-27T08:30:01.262Z</time>
      </trkpt>
      <trkpt lat="47.84787" lon="6.94629">
        <ele>1070.8</ele>
        <time>2026-08-27T08:30:03.177Z</time>
      </trkpt>
      <trkpt lat="47.84787" lon="6.94629">
        <ele>1070.6</ele>
        <time>2026-08-27T08:30:04.185Z</time>
      </trkpt>
      <trkpt lat="47.84786" lon="6.94629">
        <ele>1070.6</ele>
        <time>2026-08-27T08:30:05.193Z</time>
      </trkpt>
      <trkpt lat="47.84786" lon="6.94629">
        <ele>1070.5</ele>
        <time>2026-08-27T08:30:06.201Z</time>
      </trkpt>
      <trkpt lat="47.84786" lon="6.94629">
        <ele>1070.5</ele>
        <time>2026-08-27T08:30:07.210Z</time>
      </trkpt>
      <trkpt lat="47.84786" lon="6.94629">
        <ele>1070.3</ele>
        <time>2026-08-27T08:30:08.217Z</time>
      </trkpt>
      <trkpt lat="47.84786" lon="6.94629">
        <ele>1070.2</ele>
        <time>2026-08-27T08:30:09.226Z</time>
      </trkpt>
      <trkpt lat="47.84786" lon="6.94629">
        <ele>1070.1</ele>
        <time>2026-08-27T08:30:10.233Z</time>
      </trkpt>
      <trkpt lat="47.84787" lon="6.94629">
        <ele>1070.1</ele>
        <time>2026-08-27T08:30:11.242Z</time>
      </trkpt>
      <trkpt lat="47.84787" lon="6.94629">
        <ele>1070.1</ele>
        <time>2026-08-27T08:30:12.250Z</time>
      </trkpt>
      <trkpt lat="47.84787" lon="6.94629">
        <ele>1070.5</ele>
        <time>2026-08-27T08:30:13.257Z</time>
      </trkpt>
      <trkpt lat="47.84787" lon="6.94629">
        <ele>1070.4</ele>
        <time>2026-08-27T08:30:14.266Z</time>
      </trkpt>
      <trkpt lat="47.84787" lon="6.94629">
        <ele>1070.6</ele>
        <time>2026-08-27T08:30:16.282Z</time>
      </trkpt>
      <trkpt lat="47.84786" lon="6.94629">
        <ele>1070.5</ele>
        <time>2026-08-27T08:30:18.197Z</time>
      </trkpt>
      <trkpt lat="47.84786" lon="6.9463">
        <ele>1070.4</ele>
        <time>2026-08-27T08:30:19.206Z</time>
      </trkpt>
      <trkpt lat="47.84786" lon="6.9463">
        <ele>1070.7</ele>
        <time>2026-08-27T08:30:20.214Z</time>
      </trkpt>
      <trkpt lat="47.84786" lon="6.9463">
        <ele>1070.8</ele>
        <time>2026-08-27T08:30:21.222Z</time>
      </trkpt>
      <trkpt lat="47.84786" lon="6.9463">
        <ele>1070.8</ele>
        <time>2026-08-27T08:30:22.230Z</time>
      </trkpt>
      <trkpt lat="47.84786" lon="6.9463">
        <ele>1070.5</ele>
        <time>2026-08-27T08:30:23.238Z</time>
      </trkpt>
      <trkpt lat="47.84787" lon="6.9463">
        <ele>1070.8</ele>
        <time>2026-08-27T08:30:25.152Z</time>
      </trkpt>
      <trkpt lat="47.84787" lon="6.9463">
        <ele>1070.8</ele>
        <time>2026-08-27T08:30:26.160Z</time>
      </trkpt>
      <trkpt lat="47.84787" lon="6.9463">
        <ele>1070.8</ele>
        <time>2026-08-27T08:30:27.169Z</time>
      </trkpt>
      <trkpt lat="47.84787" lon="6.9463">
        <ele>1070.9</ele>
        <time>2026-08-27T08:30:28.177Z</time>
      </trkpt>
      <trkpt lat="47.84787" lon="6.9463">
        <ele>1070.9</ele>
        <time>2026-08-27T08:30:29.185Z</time>
      </trkpt>
      <trkpt lat="47.84786" lon="6.9463">
        <ele>1070.9</ele>
        <time>2026-08-27T08:30:30.192Z</time>
      </trkpt>
      <trkpt lat="47.84786" lon="6.9463">
        <ele>1071.2</ele>
        <time>2026-08-27T08:30:31.200Z</time>
      </trkpt>
      <trkpt lat="47.84786" lon="6.9463">
        <ele>1071.2</ele>
        <time>2026-08-27T08:30:32.208Z</time>
      </trkpt>
      <trkpt lat="47.84786" lon="6.9463">
        <ele>1070.9</ele>
        <time>2026-08-27T08:30:33.216Z</time>
      </trkpt>
      <trkpt lat="47.84786" lon="6.9463">
        <ele>1070.9</ele>
        <time>2026-08-27T08:30:34.225Z</time>
      </trkpt>
      <trkpt lat="47.84786" lon="6.9463">
        <ele>1070.7</ele>
        <time>2026-08-27T08:30:36.241Z</time>
      </trkpt>
      <trkpt lat="47.84786" lon="6.9463">
        <ele>1070.3</ele>
        <time>2026-08-27T08:30:38.156Z</time>
      </trkpt>
      <trkpt lat="47.84786" lon="6.9463">
        <ele>1070.3</ele>
        <time>2026-08-27T08:30:39.164Z</time>
      </trkpt>
      <trkpt lat="47.84786" lon="6.9463">
        <ele>1070.8</ele>
        <time>2026-08-27T08:30:40.172Z</time>
      </trkpt>
      <trkpt lat="47.84786" lon="6.9463">
        <ele>1070.8</ele>
        <time>2026-08-27T08:30:41.180Z</time>
      </trkpt>
      <trkpt lat="47.84786" lon="6.9463">
        <ele>1070.7</ele>
        <time>2026-08-27T08:30:42.188Z</time>
      </trkpt>
      <trkpt lat="47.84786" lon="6.9463">
        <ele>1070.7</ele>
        <time>2026-08-27T08:30:43.197Z</time>
      </trkpt>
      <trkpt lat="47.84786" lon="6.9463">
        <ele>1070.8</ele>
        <time>2026-08-27T08:30:45.213Z</time>
      </trkpt>
      <trkpt lat="47.84786" lon="6.94631">
        <ele>1070.9</ele>
        <time>2026-08-27T08:30:46.221Z</time>
      </trkpt>
      <trkpt lat="47.84786" lon="6.94631">
        <ele>1070.7</ele>
        <time>2026-08-27T08:30:47.230Z</time>
      </trkpt>
      <trkpt lat="47.84786" lon="6.94632">
        <ele>1070.3</ele>
        <time>2026-08-27T08:30:48.237Z</time>
      </trkpt>
      <trkpt lat="47.84786" lon="6.94633">
        <ele>1070.3</ele>
        <time>2026-08-27T08:30:49.246Z</time>
      </trkpt>
      <trkpt lat="47.84786" lon="6.94635">
        <ele>1070</ele>
        <time>2026-08-27T08:30:50.254Z</time>
      </trkpt>
      <trkpt lat="47.84785" lon="6.94637">
        <ele>1069.1</ele>
        <time>2026-08-27T08:30:52.168Z</time>
      </trkpt>
      <trkpt lat="47.84785" lon="6.94638">
        <ele>1069</ele>
        <time>2026-08-27T08:30:54.265Z</time>
      </trkpt>
      <trkpt lat="47.84785" lon="6.94639">
        <ele>1068.6</ele>
        <time>2026-08-27T08:30:56.202Z</time>
      </trkpt>
      <trkpt lat="47.84785" lon="6.9464">
        <ele>1068.4</ele>
        <time>2026-08-27T08:30:57.210Z</time>
      </trkpt>
      <trkpt lat="47.84785" lon="6.94641">
        <ele>1068.4</ele>
        <time>2026-08-27T08:30:58.217Z</time>
      </trkpt>
      <trkpt lat="47.84785" lon="6.94642">
        <ele>1068.4</ele>
        <time>2026-08-27T08:30:59.225Z</time>
      </trkpt>
      <trkpt lat="47.84785" lon="6.94643">
        <ele>1068</ele>
        <time>2026-08-27T08:31:01.242Z</time>
      </trkpt>
      <trkpt lat="47.84785" lon="6.94644">
        <ele>1067.6</ele>
        <time>2026-08-27T08:31:03.085Z</time>
      </trkpt>
      <trkpt lat="47.84785" lon="6.94644">
        <ele>1067.3</ele>
        <time>2026-08-27T08:31:04.085Z</time>
      </trkpt>
      <trkpt lat="47.84785" lon="6.94644">
        <ele>1067</ele>
        <time>2026-08-27T08:31:05.174Z</time>
      </trkpt>
      <trkpt lat="47.84785" lon="6.94644">
        <ele>1066.6</ele>
        <time>2026-08-27T08:31:06.181Z</time>
      </trkpt>
      <trkpt lat="47.84785" lon="6.94645">
        <ele>1066.1</ele>
        <time>2026-08-27T08:31:07.189Z</time>
      </trkpt>
      <trkpt lat="47.84785" lon="6.94646">
        <ele>1066.5</ele>
        <time>2026-08-27T08:31:08.197Z</time>
      </trkpt>
      <trkpt lat="47.84785" lon="6.94647">
        <ele>1066.3</ele>
        <time>2026-08-27T08:31:09.205Z</time>
      </trkpt>
      <trkpt lat="47.84785" lon="6.94649">
        <ele>1066</ele>
        <time>2026-08-27T08:31:10.213Z</time>
      </trkpt>
      <trkpt lat="47.84785" lon="6.9465">
        <ele>1065.7</ele>
        <time>2026-08-27T08:31:11.222Z</time>
      </trkpt>
      <trkpt lat="47.84785" lon="6.94652">
        <ele>1065.4</ele>
        <time>2026-08-27T08:31:12.229Z</time>
      </trkpt>
      <trkpt lat="47.84785" lon="6.94653">
        <ele>1065.2</ele>
        <time>2026-08-27T08:31:13.237Z</time>
      </trkpt>
      <trkpt lat="47.84785" lon="6.94654">
        <ele>1065</ele>
        <time>2026-08-27T08:31:14.245Z</time>
      </trkpt>
      <trkpt lat="47.84786" lon="6.94653">
        <ele>1064.7</ele>
        <time>2026-08-27T08:31:15.253Z</time>
      </trkpt>
      <trkpt lat="47.84787" lon="6.94652">
        <ele>1064.7</ele>
        <time>2026-08-27T08:31:16.261Z</time>
      </trkpt>
      <trkpt lat="47.84788" lon="6.94652">
        <ele>1064.4</ele>
        <time>2026-08-27T08:31:17.269Z</time>
      </trkpt>
      <trkpt lat="47.84789" lon="6.9465">
        <ele>1064</ele>
        <time>2026-08-27T08:31:19.207Z</time>
      </trkpt>
      <trkpt lat="47.8479" lon="6.9465">
        <ele>1063</ele>
        <time>2026-08-27T08:31:21.202Z</time>
      </trkpt>
      <trkpt lat="47.84791" lon="6.9465">
        <ele>1063.3</ele>
        <time>2026-08-27T08:31:22.209Z</time>
      </trkpt>
      <trkpt lat="47.84792" lon="6.94649">
        <ele>1062.6</ele>
        <time>2026-08-27T08:31:23.217Z</time>
      </trkpt>
      <trkpt lat="47.84793" lon="6.94649">
        <ele>1062.5</ele>
        <time>2026-08-27T08:31:24.226Z</time>
      </trkpt>
      <trkpt lat="47.84794" lon="6.9465">
        <ele>1062.1</ele>
        <time>2026-08-27T08:31:26.241Z</time>
      </trkpt>
      <trkpt lat="47.84793" lon="6.94652">
        <ele>1061.7</ele>
        <time>2026-08-27T08:31:28.257Z</time>
      </trkpt>
      <trkpt lat="47.84792" lon="6.94653">
        <ele>1061.6</ele>
        <time>2026-08-27T08:31:29.265Z</time>
      </trkpt>
      <trkpt lat="47.84792" lon="6.94654">
        <ele>1061.2</ele>
        <time>2026-08-27T08:31:31.182Z</time>
      </trkpt>
      <trkpt lat="47.84792" lon="6.94655">
        <ele>1060.9</ele>
        <time>2026-08-27T08:31:32.189Z</time>
      </trkpt>
      <trkpt lat="47.84791" lon="6.94656">
        <ele>1060.9</ele>
        <time>2026-08-27T08:31:33.226Z</time>
      </trkpt>
      <trkpt lat="47.8479" lon="6.94659">
        <ele>1060.2</ele>
        <time>2026-08-27T08:31:35.213Z</time>
      </trkpt>
      <trkpt lat="47.8479" lon="6.9466">
        <ele>1060.1</ele>
        <time>2026-08-27T08:31:36.221Z</time>
      </trkpt>
      <trkpt lat="47.84789" lon="6.94661">
        <ele>1060</ele>
        <time>2026-08-27T08:31:37.229Z</time>
      </trkpt>
      <trkpt lat="47.84789" lon="6.94662">
        <ele>1060.1</ele>
        <time>2026-08-27T08:31:38.237Z</time>
      </trkpt>
      <trkpt lat="47.84788" lon="6.94663">
        <ele>1059.9</ele>
        <time>2026-08-27T08:31:39.245Z</time>
      </trkpt>
      <trkpt lat="47.84787" lon="6.94665">
        <ele>1059.5</ele>
        <time>2026-08-27T08:31:40.254Z</time>
      </trkpt>
      <trkpt lat="47.84786" lon="6.94667">
        <ele>1059.3</ele>
        <time>2026-08-27T08:31:42.269Z</time>
      </trkpt>
      <trkpt lat="47.84785" lon="6.9467">
        <ele>1059.1</ele>
        <time>2026-08-27T08:31:44.205Z</time>
      </trkpt>
      <trkpt lat="47.84785" lon="6.94672">
        <ele>1058.6</ele>
        <time>2026-08-27T08:31:46.202Z</time>
      </trkpt>
      <trkpt lat="47.84784" lon="6.94674">
        <ele>1058.6</ele>
        <time>2026-08-27T08:31:47.205Z</time>
      </trkpt>
      <trkpt lat="47.84784" lon="6.94675">
        <ele>1058.4</ele>
        <time>2026-08-27T08:31:48.217Z</time>
      </trkpt>
      <trkpt lat="47.84784" lon="6.94677">
        <ele>1057.9</ele>
        <time>2026-08-27T08:31:49.226Z</time>
      </trkpt>
      <trkpt lat="47.84783" lon="6.94678">
        <ele>1057.7</ele>
        <time>2026-08-27T08:31:50.233Z</time>
      </trkpt>
      <trkpt lat="47.84783" lon="6.94682">
        <ele>1057.4</ele>
        <time>2026-08-27T08:31:52.250Z</time>
      </trkpt>
      <trkpt lat="47.84783" lon="6.94684">
        <ele>1057.4</ele>
        <time>2026-08-27T08:31:54.265Z</time>
      </trkpt>
      <trkpt lat="47.84783" lon="6.94686">
        <ele>1057.3</ele>
        <time>2026-08-27T08:31:55.273Z</time>
      </trkpt>
      <trkpt lat="47.84783" lon="6.94689">
        <ele>1057.2</ele>
        <time>2026-08-27T08:31:57.126Z</time>
      </trkpt>
      <trkpt lat="47.84783" lon="6.94691">
        <ele>1057.1</ele>
        <time>2026-08-27T08:31:58.196Z</time>
      </trkpt>
      <trkpt lat="47.84783" lon="6.94692">
        <ele>1057</ele>
        <time>2026-08-27T08:31:59.204Z</time>
      </trkpt>
      <trkpt lat="47.84783" lon="6.94693">
        <ele>1056.8</ele>
        <time>2026-08-27T08:32:00.213Z</time>
      </trkpt>
      <trkpt lat="47.84782" lon="6.94694">
        <ele>1056.5</ele>
        <time>2026-08-27T08:32:01.220Z</time>
      </trkpt>
      <trkpt lat="47.84782" lon="6.94695">
        <ele>1056.4</ele>
        <time>2026-08-27T08:32:02.228Z</time>
      </trkpt>
      <trkpt lat="47.84781" lon="6.94696">
        <ele>1056.4</ele>
        <time>2026-08-27T08:32:03.236Z</time>
      </trkpt>
      <trkpt lat="47.84782" lon="6.94696">
        <ele>1056.2</ele>
        <time>2026-08-27T08:32:04.249Z</time>
      </trkpt>
      <trkpt lat="47.84782" lon="6.94697">
        <ele>1056</ele>
        <time>2026-08-27T08:32:05.252Z</time>
      </trkpt>
      <trkpt lat="47.84782" lon="6.94697">
        <ele>1055.8</ele>
        <time>2026-08-27T08:32:06.261Z</time>
      </trkpt>
      <trkpt lat="47.84782" lon="6.94698">
        <ele>1055.7</ele>
        <time>2026-08-27T08:32:07.270Z</time>
      </trkpt>
      <trkpt lat="47.84783" lon="6.947">
        <ele>1055.7</ele>
        <time>2026-08-27T08:32:09.192Z</time>
      </trkpt>
      <trkpt lat="47.84783" lon="6.94702">
        <ele>1055.7</ele>
        <time>2026-08-27T08:32:10.201Z</time>
      </trkpt>
      <trkpt lat="47.84783" lon="6.94703">
        <ele>1055.6</ele>
        <time>2026-08-27T08:32:11.208Z</time>
      </trkpt>
      <trkpt lat="47.84782" lon="6.94705">
        <ele>1055.5</ele>
        <time>2026-08-27T08:32:12.216Z</time>
      </trkpt>
      <trkpt lat="47.84782" lon="6.94706">
        <ele>1055.5</ele>
        <time>2026-08-27T08:32:13.225Z</time>
      </trkpt>
      <trkpt lat="47.84782" lon="6.94708">
        <ele>1055.5</ele>
        <time>2026-08-27T08:32:14.233Z</time>
      </trkpt>
      <trkpt lat="47.84781" lon="6.9471">
        <ele>1055.3</ele>
        <time>2026-08-27T08:32:16.248Z</time>
      </trkpt>
      <trkpt lat="47.8478" lon="6.94712">
        <ele>1055.4</ele>
        <time>2026-08-27T08:32:17.258Z</time>
      </trkpt>
      <trkpt lat="47.8478" lon="6.94715">
        <ele>1055.7</ele>
        <time>2026-08-27T08:32:19.273Z</time>
      </trkpt>
      <trkpt lat="47.8478" lon="6.94718">
        <ele>1055.7</ele>
        <time>2026-08-27T08:32:21.188Z</time>
      </trkpt>
      <trkpt lat="47.8478" lon="6.9472">
        <ele>1055.7</ele>
        <time>2026-08-27T08:32:22.192Z</time>
      </trkpt>
      <trkpt lat="47.8478" lon="6.94722">
        <ele>1056.1</ele>
        <time>2026-08-27T08:32:23.204Z</time>
      </trkpt>
      <trkpt lat="47.84779" lon="6.94724">
        <ele>1056.1</ele>
        <time>2026-08-27T08:32:24.213Z</time>
      </trkpt>
      <trkpt lat="47.84779" lon="6.94725">
        <ele>1056</ele>
        <time>2026-08-27T08:32:25.220Z</time>
      </trkpt>
      <trkpt lat="47.84779" lon="6.94727">
        <ele>1056</ele>
        <time>2026-08-27T08:32:26.228Z</time>
      </trkpt>
      <trkpt lat="47.84779" lon="6.94728">
        <ele>1056</ele>
        <time>2026-08-27T08:32:27.236Z</time>
      </trkpt>
      <trkpt lat="47.84779" lon="6.9473">
        <ele>1055.9</ele>
        <time>2026-08-27T08:32:28.244Z</time>
      </trkpt>
      <trkpt lat="47.8478" lon="6.94734">
        <ele>1055.4</ele>
        <time>2026-08-27T08:32:30.159Z</time>
      </trkpt>
      <trkpt lat="47.8478" lon="6.94736">
        <ele>1055.2</ele>
        <time>2026-08-27T08:32:32.180Z</time>
      </trkpt>
      <trkpt lat="47.8478" lon="6.94737">
        <ele>1055.1</ele>
        <time>2026-08-27T08:32:33.188Z</time>
      </trkpt>
      <trkpt lat="47.8478" lon="6.94738">
        <ele>1055.1</ele>
        <time>2026-08-27T08:32:34.205Z</time>
      </trkpt>
      <trkpt lat="47.84779" lon="6.94739">
        <ele>1054.8</ele>
        <time>2026-08-27T08:32:36.212Z</time>
      </trkpt>
      <trkpt lat="47.8478" lon="6.9474">
        <ele>1054.9</ele>
        <time>2026-08-27T08:32:37.270Z</time>
      </trkpt>
      <trkpt lat="47.8478" lon="6.94741">
        <ele>1055.2</ele>
        <time>2026-08-27T08:32:39.270Z</time>
      </trkpt>
      <trkpt lat="47.8478" lon="6.94743">
        <ele>1055.3</ele>
        <time>2026-08-27T08:32:41.253Z</time>
      </trkpt>
      <trkpt lat="47.84779" lon="6.94745">
        <ele>1055.4</ele>
        <time>2026-08-27T08:32:43.268Z</time>
      </trkpt>
      <trkpt lat="47.84779" lon="6.94746">
        <ele>1055.2</ele>
        <time>2026-08-27T08:32:44.277Z</time>
      </trkpt>
      <trkpt lat="47.84779" lon="6.94749">
        <ele>1054.9</ele>
        <time>2026-08-27T08:32:46.196Z</time>
      </trkpt>
      <trkpt lat="47.84779" lon="6.94751">
        <ele>1055</ele>
        <time>2026-08-27T08:32:47.204Z</time>
      </trkpt>
      <trkpt lat="47.84779" lon="6.94752">
        <ele>1054.8</ele>
        <time>2026-08-27T08:32:48.212Z</time>
      </trkpt>
      <trkpt lat="47.84778" lon="6.94754">
        <ele>1054.8</ele>
        <time>2026-08-27T08:32:49.220Z</time>
      </trkpt>
      <trkpt lat="47.84777" lon="6.94756">
        <ele>1054.2</ele>
        <time>2026-08-27T08:32:50.228Z</time>
      </trkpt>
      <trkpt lat="47.84777" lon="6.94758">
        <ele>1054.3</ele>
        <time>2026-08-27T08:32:51.236Z</time>
      </trkpt>
      <trkpt lat="47.84776" lon="6.94759">
        <ele>1054.2</ele>
        <time>2026-08-27T08:32:52.244Z</time>
      </trkpt>
      <trkpt lat="47.84776" lon="6.94761">
        <ele>1054.3</ele>
        <time>2026-08-27T08:32:53.252Z</time>
      </trkpt>
      <trkpt lat="47.84776" lon="6.94763">
        <ele>1054.3</ele>
        <time>2026-08-27T08:32:54.260Z</time>
      </trkpt>
      <trkpt lat="47.84775" lon="6.94766">
        <ele>1054.2</ele>
        <time>2026-08-27T08:32:56.155Z</time>
      </trkpt>
      <trkpt lat="47.84774" lon="6.94767">
        <ele>1054.2</ele>
        <time>2026-08-27T08:32:57.183Z</time>
      </trkpt>
      <trkpt lat="47.84773" lon="6.94769">
        <ele>1054.1</ele>
        <time>2026-08-27T08:32:58.191Z</time>
      </trkpt>
      <trkpt lat="47.84773" lon="6.9477">
        <ele>1054.1</ele>
        <time>2026-08-27T08:32:59.199Z</time>
      </trkpt>
      <trkpt lat="47.84772" lon="6.94771">
        <ele>1053.8</ele>
        <time>2026-08-27T08:33:00.207Z</time>
      </trkpt>
      <trkpt lat="47.84772" lon="6.94772">
        <ele>1053.9</ele>
        <time>2026-08-27T08:33:01.215Z</time>
      </trkpt>
      <trkpt lat="47.84771" lon="6.94774">
        <ele>1053.9</ele>
        <time>2026-08-27T08:33:02.269Z</time>
      </trkpt>
      <trkpt lat="47.8477" lon="6.94776">
        <ele>1054.4</ele>
        <time>2026-08-27T08:33:04.240Z</time>
      </trkpt>
      <trkpt lat="47.84769" lon="6.94776">
        <ele>1054.6</ele>
        <time>2026-08-27T08:33:05.247Z</time>
      </trkpt>
      <trkpt lat="47.84768" lon="6.94777">
        <ele>1054.6</ele>
        <time>2026-08-27T08:33:06.255Z</time>
      </trkpt>
      <trkpt lat="47.84768" lon="6.94779">
        <ele>1054.5</ele>
        <time>2026-08-27T08:33:08.271Z</time>
      </trkpt>
      <trkpt lat="47.84767" lon="6.94781">
        <ele>1054.6</ele>
        <time>2026-08-27T08:33:10.188Z</time>
      </trkpt>
      <trkpt lat="47.84767" lon="6.94783">
        <ele>1054.5</ele>
        <time>2026-08-27T08:33:12.047Z</time>
      </trkpt>
      <trkpt lat="47.84767" lon="6.94785">
        <ele>1054.8</ele>
        <time>2026-08-27T08:33:13.190Z</time>
      </trkpt>
      <trkpt lat="47.84766" lon="6.94786">
        <ele>1054</ele>
        <time>2026-08-27T08:33:14.273Z</time>
      </trkpt>
      <trkpt lat="47.84765" lon="6.94788">
        <ele>1053.9</ele>
        <time>2026-08-27T08:33:16.239Z</time>
      </trkpt>
      <trkpt lat="47.84764" lon="6.9479">
        <ele>1053.7</ele>
        <time>2026-08-27T08:33:18.087Z</time>
      </trkpt>
      <trkpt lat="47.84763" lon="6.94791">
        <ele>1053.2</ele>
        <time>2026-08-27T08:33:19.162Z</time>
      </trkpt>
      <trkpt lat="47.84761" lon="6.94794">
        <ele>1052.7</ele>
        <time>2026-08-27T08:33:21.179Z</time>
      </trkpt>
      <trkpt lat="47.84761" lon="6.94795">
        <ele>1052.7</ele>
        <time>2026-08-27T08:33:22.187Z</time>
      </trkpt>
      <trkpt lat="47.8476" lon="6.94796">
        <ele>1052.7</ele>
        <time>2026-08-27T08:33:23.195Z</time>
      </trkpt>
      <trkpt lat="47.84757" lon="6.94797">
        <ele>1052.5</ele>
        <time>2026-08-27T08:33:25.254Z</time>
      </trkpt>
      <trkpt lat="47.84756" lon="6.94798">
        <ele>1052.1</ele>
        <time>2026-08-27T08:33:27.236Z</time>
      </trkpt>
      <trkpt lat="47.84755" lon="6.94799">
        <ele>1052</ele>
        <time>2026-08-27T08:33:28.243Z</time>
      </trkpt>
      <trkpt lat="47.84754" lon="6.94801">
        <ele>1051.8</ele>
        <time>2026-08-27T08:33:29.251Z</time>
      </trkpt>
      <trkpt lat="47.84754" lon="6.94802">
        <ele>1051.6</ele>
        <time>2026-08-27T08:33:30.260Z</time>
      </trkpt>
      <trkpt lat="47.84753" lon="6.94804">
        <ele>1051.5</ele>
        <time>2026-08-27T08:33:31.268Z</time>
      </trkpt>
      <trkpt lat="47.84752" lon="6.94806">
        <ele>1051.5</ele>
        <time>2026-08-27T08:33:33.182Z</time>
      </trkpt>
      <trkpt lat="47.84751" lon="6.94809">
        <ele>1051.3</ele>
        <time>2026-08-27T08:33:35.199Z</time>
      </trkpt>
      <trkpt lat="47.8475" lon="6.9481">
        <ele>1051.2</ele>
        <time>2026-08-27T08:33:36.208Z</time>
      </trkpt>
      <trkpt lat="47.84749" lon="6.94811">
        <ele>1051.1</ele>
        <time>2026-08-27T08:33:37.215Z</time>
      </trkpt>
      <trkpt lat="47.84749" lon="6.94812">
        <ele>1051.2</ele>
        <time>2026-08-27T08:33:38.224Z</time>
      </trkpt>
      <trkpt lat="47.84748" lon="6.94814">
        <ele>1051.1</ele>
        <time>2026-08-27T08:33:39.231Z</time>
      </trkpt>
      <trkpt lat="47.84748" lon="6.94815">
        <ele>1051.2</ele>
        <time>2026-08-27T08:33:40.239Z</time>
      </trkpt>
      <trkpt lat="47.84747" lon="6.94817">
        <ele>1051.2</ele>
        <time>2026-08-27T08:33:41.292Z</time>
      </trkpt>
      <trkpt lat="47.84746" lon="6.9482">
        <ele>1050.9</ele>
        <time>2026-08-27T08:33:43.263Z</time>
      </trkpt>
      <trkpt lat="47.84745" lon="6.94822">
        <ele>1050.8</ele>
        <time>2026-08-27T08:33:44.271Z</time>
      </trkpt>
      <trkpt lat="47.84745" lon="6.94825">
        <ele>1050.9</ele>
        <time>2026-08-27T08:33:46.186Z</time>
      </trkpt>
      <trkpt lat="47.84744" lon="6.94826">
        <ele>1051</ele>
        <time>2026-08-27T08:33:47.195Z</time>
      </trkpt>
      <trkpt lat="47.84744" lon="6.94829">
        <ele>1050.7</ele>
        <time>2026-08-27T08:33:49.261Z</time>
      </trkpt>
      <trkpt lat="47.84743" lon="6.94831">
        <ele>1051.2</ele>
        <time>2026-08-27T08:33:51.226Z</time>
      </trkpt>
      <trkpt lat="47.84742" lon="6.94832">
        <ele>1051.2</ele>
        <time>2026-08-27T08:33:52.234Z</time>
      </trkpt>
      <trkpt lat="47.84742" lon="6.94832">
        <ele>1051.2</ele>
        <time>2026-08-27T08:33:53.242Z</time>
      </trkpt>
      <trkpt lat="47.84741" lon="6.94833">
        <ele>1051.3</ele>
        <time>2026-08-27T08:33:54.251Z</time>
      </trkpt>
      <trkpt lat="47.84741" lon="6.94834">
        <ele>1051.4</ele>
        <time>2026-08-27T08:33:55.259Z</time>
      </trkpt>
      <trkpt lat="47.84741" lon="6.94835">
        <ele>1051.6</ele>
        <time>2026-08-27T08:33:57.175Z</time>
      </trkpt>
      <trkpt lat="47.84741" lon="6.94837">
        <ele>1051.5</ele>
        <time>2026-08-27T08:33:58.182Z</time>
      </trkpt>
      <trkpt lat="47.84741" lon="6.94838">
        <ele>1051.7</ele>
        <time>2026-08-27T08:33:59.190Z</time>
      </trkpt>
      <trkpt lat="47.84741" lon="6.94839">
        <ele>1051.7</ele>
        <time>2026-08-27T08:34:00.202Z</time>
      </trkpt>
      <trkpt lat="47.84741" lon="6.94841">
        <ele>1051.7</ele>
        <time>2026-08-27T08:34:01.211Z</time>
      </trkpt>
      <trkpt lat="47.84741" lon="6.94842">
        <ele>1051.8</ele>
        <time>2026-08-27T08:34:02.218Z</time>
      </trkpt>
      <trkpt lat="47.84742" lon="6.94845">
        <ele>1051.9</ele>
        <time>2026-08-27T08:34:04.234Z</time>
      </trkpt>
      <trkpt lat="47.84742" lon="6.94847">
        <ele>1051.8</ele>
        <time>2026-08-27T08:34:05.242Z</time>
      </trkpt>
      <trkpt lat="47.84742" lon="6.94848">
        <ele>1051.7</ele>
        <time>2026-08-27T08:34:06.250Z</time>
      </trkpt>
      <trkpt lat="47.84742" lon="6.94849">
        <ele>1051.9</ele>
        <time>2026-08-27T08:34:07.258Z</time>
      </trkpt>
      <trkpt lat="47.84742" lon="6.94851">
        <ele>1051.7</ele>
        <time>2026-08-27T08:34:08.266Z</time>
      </trkpt>
      <trkpt lat="47.84743" lon="6.94854">
        <ele>1051.8</ele>
        <time>2026-08-27T08:34:10.182Z</time>
      </trkpt>
      <trkpt lat="47.84743" lon="6.94855">
        <ele>1051.8</ele>
        <time>2026-08-27T08:34:11.189Z</time>
      </trkpt>
      <trkpt lat="47.84743" lon="6.94856">
        <ele>1051.6</ele>
        <time>2026-08-27T08:34:12.198Z</time>
      </trkpt>
      <trkpt lat="47.84742" lon="6.94857">
        <ele>1051.5</ele>
        <time>2026-08-27T08:34:13.205Z</time>
      </trkpt>
      <trkpt lat="47.84742" lon="6.9486">
        <ele>1051.4</ele>
        <time>2026-08-27T08:34:15.235Z</time>
      </trkpt>
      <trkpt lat="47.84743" lon="6.94861">
        <ele>1051.5</ele>
        <time>2026-08-27T08:34:16.242Z</time>
      </trkpt>
      <trkpt lat="47.84743" lon="6.94863">
        <ele>1051.4</ele>
        <time>2026-08-27T08:34:17.250Z</time>
      </trkpt>
      <trkpt lat="47.84744" lon="6.94864">
        <ele>1050.9</ele>
        <time>2026-08-27T08:34:18.259Z</time>
      </trkpt>
      <trkpt lat="47.84744" lon="6.94867">
        <ele>1051.3</ele>
        <time>2026-08-27T08:34:20.148Z</time>
      </trkpt>
      <trkpt lat="47.84744" lon="6.94869">
        <ele>1051.1</ele>
        <time>2026-08-27T08:34:21.182Z</time>
      </trkpt>
      <trkpt lat="47.84744" lon="6.94871">
        <ele>1050.9</ele>
        <time>2026-08-27T08:34:22.189Z</time>
      </trkpt>
      <trkpt lat="47.84744" lon="6.94872">
        <ele>1051</ele>
        <time>2026-08-27T08:34:23.198Z</time>
      </trkpt>
      <trkpt lat="47.84744" lon="6.94873">
        <ele>1050.8</ele>
        <time>2026-08-27T08:34:24.206Z</time>
      </trkpt>
      <trkpt lat="47.84744" lon="6.94875">
        <ele>1050.4</ele>
        <time>2026-08-27T08:34:25.214Z</time>
      </trkpt>
      <trkpt lat="47.84744" lon="6.94876">
        <ele>1050.4</ele>
        <time>2026-08-27T08:34:26.248Z</time>
      </trkpt>
      <trkpt lat="47.84744" lon="6.94879">
        <ele>1050</ele>
        <time>2026-08-27T08:34:28.238Z</time>
      </trkpt>
      <trkpt lat="47.84743" lon="6.94881">
        <ele>1050</ele>
        <time>2026-08-27T08:34:29.262Z</time>
      </trkpt>
      <trkpt lat="47.84743" lon="6.94883">
        <ele>1050</ele>
        <time>2026-08-27T08:34:30.565Z</time>
      </trkpt>
      <trkpt lat="47.84743" lon="6.94885">
        <ele>1049.9</ele>
        <time>2026-08-27T08:34:32.271Z</time>
      </trkpt>
      <trkpt lat="47.84743" lon="6.94886">
        <ele>1050</ele>
        <time>2026-08-27T08:34:33.278Z</time>
      </trkpt>
      <trkpt lat="47.84743" lon="6.94888">
        <ele>1050.4</ele>
        <time>2026-08-27T08:34:35.193Z</time>
      </trkpt>
      <trkpt lat="47.84744" lon="6.94891">
        <ele>1050.4</ele>
        <time>2026-08-27T08:34:37.286Z</time>
      </trkpt>
      <trkpt lat="47.84744" lon="6.94893">
        <ele>1050.5</ele>
        <time>2026-08-27T08:34:39.226Z</time>
      </trkpt>
      <trkpt lat="47.84744" lon="6.94894">
        <ele>1050.2</ele>
        <time>2026-08-27T08:34:40.234Z</time>
      </trkpt>
      <trkpt lat="47.84745" lon="6.94895">
        <ele>1050.1</ele>
        <time>2026-08-27T08:34:41.241Z</time>
      </trkpt>
      <trkpt lat="47.84745" lon="6.94897">
        <ele>1049.9</ele>
        <time>2026-08-27T08:34:42.249Z</time>
      </trkpt>
      <trkpt lat="47.84744" lon="6.949">
        <ele>1049.5</ele>
        <time>2026-08-27T08:34:44.165Z</time>
      </trkpt>
      <trkpt lat="47.84744" lon="6.94902">
        <ele>1049.1</ele>
        <time>2026-08-27T08:34:46.182Z</time>
      </trkpt>
      <trkpt lat="47.84743" lon="6.94905">
        <ele>1049.4</ele>
        <time>2026-08-27T08:34:48.197Z</time>
      </trkpt>
      <trkpt lat="47.84743" lon="6.94905">
        <ele>1049.6</ele>
        <time>2026-08-27T08:34:49.205Z</time>
      </trkpt>
      <trkpt lat="47.84742" lon="6.94906">
        <ele>1049.4</ele>
        <time>2026-08-27T08:34:50.213Z</time>
      </trkpt>
      <trkpt lat="47.84742" lon="6.94907">
        <ele>1049.5</ele>
        <time>2026-08-27T08:34:51.221Z</time>
      </trkpt>
      <trkpt lat="47.84742" lon="6.94908">
        <ele>1050</ele>
        <time>2026-08-27T08:34:52.229Z</time>
      </trkpt>
      <trkpt lat="47.84741" lon="6.94908">
        <ele>1050.2</ele>
        <time>2026-08-27T08:34:53.237Z</time>
      </trkpt>
      <trkpt lat="47.84741" lon="6.94909">
        <ele>1050.1</ele>
        <time>2026-08-27T08:34:54.246Z</time>
      </trkpt>
      <trkpt lat="47.84741" lon="6.9491">
        <ele>1050.3</ele>
        <time>2026-08-27T08:34:55.253Z</time>
      </trkpt>
      <trkpt lat="47.84741" lon="6.94911">
        <ele>1050.5</ele>
        <time>2026-08-27T08:34:56.261Z</time>
      </trkpt>
      <trkpt lat="47.84741" lon="6.94913">
        <ele>1050.5</ele>
        <time>2026-08-27T08:34:58.084Z</time>
      </trkpt>
      <trkpt lat="47.84741" lon="6.94914">
        <ele>1050.8</ele>
        <time>2026-08-27T08:34:59.184Z</time>
      </trkpt>
      <trkpt lat="47.84742" lon="6.94915">
        <ele>1050.8</ele>
        <time>2026-08-27T08:35:00.226Z</time>
      </trkpt>
      <trkpt lat="47.84742" lon="6.94917">
        <ele>1050.8</ele>
        <time>2026-08-27T08:35:02.208Z</time>
      </trkpt>
      <trkpt lat="47.84743" lon="6.94919">
        <ele>1050.8</ele>
        <time>2026-08-27T08:35:03.217Z</time>
      </trkpt>
      <trkpt lat="47.84743" lon="6.9492">
        <ele>1050.8</ele>
        <time>2026-08-27T08:35:04.224Z</time>
      </trkpt>
      <trkpt lat="47.84744" lon="6.94922">
        <ele>1050.5</ele>
        <time>2026-08-27T08:35:05.232Z</time>
      </trkpt>
      <trkpt lat="47.84744" lon="6.94923">
        <ele>1050.8</ele>
        <time>2026-08-27T08:35:06.240Z</time>
      </trkpt>
      <trkpt lat="47.84745" lon="6.94925">
        <ele>1050.8</ele>
        <time>2026-08-27T08:35:07.249Z</time>
      </trkpt>
      <trkpt lat="47.84745" lon="6.94926">
        <ele>1050.7</ele>
        <time>2026-08-27T08:35:08.256Z</time>
      </trkpt>
      <trkpt lat="47.84745" lon="6.94927">
        <ele>1050.7</ele>
        <time>2026-08-27T08:35:09.265Z</time>
      </trkpt>
      <trkpt lat="47.84745" lon="6.94928">
        <ele>1050.7</ele>
        <time>2026-08-27T08:35:10.272Z</time>
      </trkpt>
      <trkpt lat="47.84745" lon="6.9493">
        <ele>1050.6</ele>
        <time>2026-08-27T08:35:12.105Z</time>
      </trkpt>
      <trkpt lat="47.84745" lon="6.94931">
        <ele>1050.4</ele>
        <time>2026-08-27T08:35:13.146Z</time>
      </trkpt>
      <trkpt lat="47.84745" lon="6.94932">
        <ele>1050.1</ele>
        <time>2026-08-27T08:35:14.204Z</time>
      </trkpt>
      <trkpt lat="47.84745" lon="6.94935">
        <ele>1050.5</ele>
        <time>2026-08-27T08:35:16.220Z</time>
      </trkpt>
      <trkpt lat="47.84746" lon="6.94937">
        <ele>1050.9</ele>
        <time>2026-08-27T08:35:18.236Z</time>
      </trkpt>
      <trkpt lat="47.84746" lon="6.94938">
        <ele>1050.4</ele>
        <time>2026-08-27T08:35:19.244Z</time>
      </trkpt>
      <trkpt lat="47.84746" lon="6.94939">
        <ele>1050.6</ele>
        <time>2026-08-27T08:35:20.252Z</time>
      </trkpt>
      <trkpt lat="47.84746" lon="6.9494">
        <ele>1050.8</ele>
        <time>2026-08-27T08:35:21.260Z</time>
      </trkpt>
      <trkpt lat="47.84746" lon="6.94943">
        <ele>1051</ele>
        <time>2026-08-27T08:35:23.276Z</time>
      </trkpt>
      <trkpt lat="47.84746" lon="6.94945">
        <ele>1050.8</ele>
        <time>2026-08-27T08:35:25.191Z</time>
      </trkpt>
      <trkpt lat="47.84746" lon="6.94947">
        <ele>1050.6</ele>
        <time>2026-08-27T08:35:26.200Z</time>
      </trkpt>
      <trkpt lat="47.84747" lon="6.94951">
        <ele>1050.4</ele>
        <time>2026-08-27T08:35:28.207Z</time>
      </trkpt>
      <trkpt lat="47.84747" lon="6.94952">
        <ele>1050.2</ele>
        <time>2026-08-27T08:35:29.223Z</time>
      </trkpt>
      <trkpt lat="47.84747" lon="6.94954">
        <ele>1050.3</ele>
        <time>2026-08-27T08:35:30.231Z</time>
      </trkpt>
      <trkpt lat="47.84748" lon="6.94956">
        <ele>1050.4</ele>
        <time>2026-08-27T08:35:31.239Z</time>
      </trkpt>
      <trkpt lat="47.84748" lon="6.94957">
        <ele>1050.3</ele>
        <time>2026-08-27T08:35:32.247Z</time>
      </trkpt>
      <trkpt lat="47.84748" lon="6.94959">
        <ele>1050.3</ele>
        <time>2026-08-27T08:35:33.255Z</time>
      </trkpt>
      <trkpt lat="47.84748" lon="6.9496">
        <ele>1050.4</ele>
        <time>2026-08-27T08:35:34.264Z</time>
      </trkpt>
      <trkpt lat="47.84748" lon="6.94963">
        <ele>1050.9</ele>
        <time>2026-08-27T08:35:36.179Z</time>
      </trkpt>
      <trkpt lat="47.84748" lon="6.94965">
        <ele>1050.9</ele>
        <time>2026-08-27T08:35:37.187Z</time>
      </trkpt>
      <trkpt lat="47.84748" lon="6.94969">
        <ele>1051.4</ele>
        <time>2026-08-27T08:35:39.203Z</time>
      </trkpt>
      <trkpt lat="47.84748" lon="6.9497">
        <ele>1051.3</ele>
        <time>2026-08-27T08:35:40.212Z</time>
      </trkpt>
      <trkpt lat="47.84748" lon="6.94972">
        <ele>1051.3</ele>
        <time>2026-08-27T08:35:41.286Z</time>
      </trkpt>
      <trkpt lat="47.84747" lon="6.94975">
        <ele>1050.8</ele>
        <time>2026-08-27T08:35:43.167Z</time>
      </trkpt>
      <trkpt lat="47.84747" lon="6.94976">
        <ele>1051.2</ele>
        <time>2026-08-27T08:35:44.244Z</time>
      </trkpt>
      <trkpt lat="47.84747" lon="6.94977">
        <ele>1051.4</ele>
        <time>2026-08-27T08:35:45.252Z</time>
      </trkpt>
      <trkpt lat="47.84746" lon="6.94979">
        <ele>1051.5</ele>
        <time>2026-08-27T08:35:46.259Z</time>
      </trkpt>
      <trkpt lat="47.84746" lon="6.94979">
        <ele>1051.5</ele>
        <time>2026-08-27T08:35:47.268Z</time>
      </trkpt>
      <trkpt lat="47.84747" lon="6.94981">
        <ele>1051.9</ele>
        <time>2026-08-27T08:35:49.182Z</time>
      </trkpt>
      <trkpt lat="47.84747" lon="6.94982">
        <ele>1052.2</ele>
        <time>2026-08-27T08:35:50.190Z</time>
      </trkpt>
      <trkpt lat="47.84747" lon="6.94985">
        <ele>1052.4</ele>
        <time>2026-08-27T08:35:52.207Z</time>
      </trkpt>
      <trkpt lat="47.84747" lon="6.94988">
        <ele>1052.4</ele>
        <time>2026-08-27T08:35:54.222Z</time>
      </trkpt>
      <trkpt lat="47.84748" lon="6.94989">
        <ele>1052.2</ele>
        <time>2026-08-27T08:35:55.230Z</time>
      </trkpt>
      <trkpt lat="47.84748" lon="6.94991">
        <ele>1052.2</ele>
        <time>2026-08-27T08:35:56.238Z</time>
      </trkpt>
      <trkpt lat="47.84748" lon="6.94992">
        <ele>1052.2</ele>
        <time>2026-08-27T08:35:57.246Z</time>
      </trkpt>
      <trkpt lat="47.84749" lon="6.94995">
        <ele>1052.2</ele>
        <time>2026-08-27T08:35:59.262Z</time>
      </trkpt>
      <trkpt lat="47.84749" lon="6.94997">
        <ele>1052.2</ele>
        <time>2026-08-27T08:36:00.270Z</time>
      </trkpt>
      <trkpt lat="47.84749" lon="6.95001">
        <ele>1052.2</ele>
        <time>2026-08-27T08:36:02.286Z</time>
      </trkpt>
      <trkpt lat="47.8475" lon="6.95004">
        <ele>1052.4</ele>
        <time>2026-08-27T08:36:04.203Z</time>
      </trkpt>
      <trkpt lat="47.8475" lon="6.95005">
        <ele>1052.5</ele>
        <time>2026-08-27T08:36:05.211Z</time>
      </trkpt>
      <trkpt lat="47.84751" lon="6.95008">
        <ele>1052.1</ele>
        <time>2026-08-27T08:36:07.227Z</time>
      </trkpt>
      <trkpt lat="47.84751" lon="6.9501">
        <ele>1051.8</ele>
        <time>2026-08-27T08:36:09.246Z</time>
      </trkpt>
      <trkpt lat="47.84752" lon="6.95013">
        <ele>1052</ele>
        <time>2026-08-27T08:36:11.175Z</time>
      </trkpt>
      <trkpt lat="47.84752" lon="6.95014">
        <ele>1051.9</ele>
        <time>2026-08-27T08:36:12.182Z</time>
      </trkpt>
      <trkpt lat="47.84752" lon="6.95016">
        <ele>1051.5</ele>
        <time>2026-08-27T08:36:13.190Z</time>
      </trkpt>
      <trkpt lat="47.84752" lon="6.95017">
        <ele>1051.3</ele>
        <time>2026-08-27T08:36:14.199Z</time>
      </trkpt>
      <trkpt lat="47.84752" lon="6.95018">
        <ele>1051.3</ele>
        <time>2026-08-27T08:36:15.206Z</time>
      </trkpt>
      <trkpt lat="47.84751" lon="6.95021">
        <ele>1051.5</ele>
        <time>2026-08-27T08:36:17.222Z</time>
      </trkpt>
      <trkpt lat="47.84751" lon="6.95022">
        <ele>1051.5</ele>
        <time>2026-08-27T08:36:18.230Z</time>
      </trkpt>
      <trkpt lat="47.84751" lon="6.95024">
        <ele>1051.7</ele>
        <time>2026-08-27T08:36:19.239Z</time>
      </trkpt>
      <trkpt lat="47.84751" lon="6.95025">
        <ele>1051.8</ele>
        <time>2026-08-27T08:36:20.247Z</time>
      </trkpt>
      <trkpt lat="47.84751" lon="6.95027">
        <ele>1051.9</ele>
        <time>2026-08-27T08:36:21.254Z</time>
      </trkpt>
      <trkpt lat="47.8475" lon="6.9503">
        <ele>1051.9</ele>
        <time>2026-08-27T08:36:23.169Z</time>
      </trkpt>
      <trkpt lat="47.8475" lon="6.95031">
        <ele>1051.9</ele>
        <time>2026-08-27T08:36:24.228Z</time>
      </trkpt>
      <trkpt lat="47.8475" lon="6.95033">
        <ele>1051.5</ele>
        <time>2026-08-27T08:36:26.295Z</time>
      </trkpt>
      <trkpt lat="47.8475" lon="6.95035">
        <ele>1051.5</ele>
        <time>2026-08-27T08:36:28.210Z</time>
      </trkpt>
      <trkpt lat="47.8475" lon="6.95036">
        <ele>1051.3</ele>
        <time>2026-08-27T08:36:29.218Z</time>
      </trkpt>
      <trkpt lat="47.8475" lon="6.95037">
        <ele>1051</ele>
        <time>2026-08-27T08:36:30.225Z</time>
      </trkpt>
      <trkpt lat="47.84749" lon="6.95039">
        <ele>1051</ele>
        <time>2026-08-27T08:36:31.233Z</time>
      </trkpt>
      <trkpt lat="47.84749" lon="6.9504">
        <ele>1051.1</ele>
        <time>2026-08-27T08:36:32.242Z</time>
      </trkpt>
      <trkpt lat="47.84748" lon="6.95042">
        <ele>1050.9</ele>
        <time>2026-08-27T08:36:34.258Z</time>
      </trkpt>
      <trkpt lat="47.84747" lon="6.95045">
        <ele>1050.9</ele>
        <time>2026-08-27T08:36:36.173Z</time>
      </trkpt>
      <trkpt lat="47.84747" lon="6.95046">
        <ele>1050.4</ele>
        <time>2026-08-27T08:36:37.181Z</time>
      </trkpt>
      <trkpt lat="47.84745" lon="6.9505">
        <ele>1050.7</ele>
        <time>2026-08-27T08:36:39.273Z</time>
      </trkpt>
      <trkpt lat="47.84745" lon="6.95053">
        <ele>1050.7</ele>
        <time>2026-08-27T08:36:41.288Z</time>
      </trkpt>
      <trkpt lat="47.84745" lon="6.95056">
        <ele>1050.4</ele>
        <time>2026-08-27T08:36:43.229Z</time>
      </trkpt>
      <trkpt lat="47.84744" lon="6.95057">
        <ele>1050.5</ele>
        <time>2026-08-27T08:36:44.237Z</time>
      </trkpt>
      <trkpt lat="47.84744" lon="6.95058">
        <ele>1050.5</ele>
        <time>2026-08-27T08:36:45.245Z</time>
      </trkpt>
      <trkpt lat="47.84744" lon="6.95059">
        <ele>1050.7</ele>
        <time>2026-08-27T08:36:46.254Z</time>
      </trkpt>
      <trkpt lat="47.84744" lon="6.95061">
        <ele>1050.7</ele>
        <time>2026-08-27T08:36:48.067Z</time>
      </trkpt>
      <trkpt lat="47.84744" lon="6.95061">
        <ele>1050.8</ele>
        <time>2026-08-27T08:36:49.176Z</time>
      </trkpt>
      <trkpt lat="47.84744" lon="6.95062">
        <ele>1050.9</ele>
        <time>2026-08-27T08:36:50.184Z</time>
      </trkpt>
      <trkpt lat="47.84743" lon="6.95063">
        <ele>1050.8</ele>
        <time>2026-08-27T08:36:51.192Z</time>
      </trkpt>
      <trkpt lat="47.84743" lon="6.95064">
        <ele>1050.6</ele>
        <time>2026-08-27T08:36:52.200Z</time>
      </trkpt>
      <trkpt lat="47.84742" lon="6.95064">
        <ele>1050.5</ele>
        <time>2026-08-27T08:36:53.208Z</time>
      </trkpt>
      <trkpt lat="47.84742" lon="6.95064">
        <ele>1050.7</ele>
        <time>2026-08-27T08:36:54.216Z</time>
      </trkpt>
      <trkpt lat="47.84742" lon="6.95064">
        <ele>1050.6</ele>
        <time>2026-08-27T08:36:55.224Z</time>
      </trkpt>
      <trkpt lat="47.84742" lon="6.95066">
        <ele>1050.6</ele>
        <time>2026-08-27T08:36:57.241Z</time>
      </trkpt>
      <trkpt lat="47.84742" lon="6.95067">
        <ele>1050.6</ele>
        <time>2026-08-27T08:36:58.248Z</time>
      </trkpt>
      <trkpt lat="47.84741" lon="6.95069">
        <ele>1050.5</ele>
        <time>2026-08-27T08:36:59.256Z</time>
      </trkpt>
      <trkpt lat="47.8474" lon="6.95071">
        <ele>1050.5</ele>
        <time>2026-08-27T08:37:00.264Z</time>
      </trkpt>
      <trkpt lat="47.8474" lon="6.95072">
        <ele>1050.4</ele>
        <time>2026-08-27T08:37:01.272Z</time>
      </trkpt>
      <trkpt lat="47.84739" lon="6.95075">
        <ele>1050.7</ele>
        <time>2026-08-27T08:37:03.187Z</time>
      </trkpt>
      <trkpt lat="47.84738" lon="6.95077">
        <ele>1050.5</ele>
        <time>2026-08-27T08:37:04.195Z</time>
      </trkpt>
      <trkpt lat="47.84738" lon="6.95078">
        <ele>1050.1</ele>
        <time>2026-08-27T08:37:05.203Z</time>
      </trkpt>
      <trkpt lat="47.84736" lon="6.9508">
        <ele>1049.7</ele>
        <time>2026-08-27T08:37:07.219Z</time>
      </trkpt>
      <trkpt lat="47.84735" lon="6.95081">
        <ele>1050</ele>
        <time>2026-08-27T08:37:08.227Z</time>
      </trkpt>
      <trkpt lat="47.84735" lon="6.95081">
        <ele>1050.4</ele>
        <time>2026-08-27T08:37:09.235Z</time>
      </trkpt>
      <trkpt lat="47.84734" lon="6.95081">
        <ele>1050.5</ele>
        <time>2026-08-27T08:37:10.245Z</time>
      </trkpt>
      <trkpt lat="47.84734" lon="6.95081">
        <ele>1051</ele>
        <time>2026-08-27T08:37:11.252Z</time>
      </trkpt>
      <trkpt lat="47.84734" lon="6.95081">
        <ele>1051</ele>
        <time>2026-08-27T08:37:12.260Z</time>
      </trkpt>
      <trkpt lat="47.84734" lon="6.95081">
        <ele>1051.2</ele>
        <time>2026-08-27T08:37:13.268Z</time>
      </trkpt>
      <trkpt lat="47.84734" lon="6.95081">
        <ele>1051.1</ele>
        <time>2026-08-27T08:37:14.277Z</time>
      </trkpt>
      <trkpt lat="47.84734" lon="6.95082">
        <ele>1051</ele>
        <time>2026-08-27T08:37:16.192Z</time>
      </trkpt>
      <trkpt lat="47.84734" lon="6.95083">
        <ele>1051.1</ele>
        <time>2026-08-27T08:37:17.200Z</time>
      </trkpt>
      <trkpt lat="47.84733" lon="6.95084">
        <ele>1051.2</ele>
        <time>2026-08-27T08:37:18.208Z</time>
      </trkpt>
      <trkpt lat="47.84733" lon="6.95085">
        <ele>1051.4</ele>
        <time>2026-08-27T08:37:19.216Z</time>
      </trkpt>
      <trkpt lat="47.84733" lon="6.95086">
        <ele>1051.3</ele>
        <time>2026-08-27T08:37:20.223Z</time>
      </trkpt>
      <trkpt lat="47.84733" lon="6.95087">
        <ele>1051.1</ele>
        <time>2026-08-27T08:37:21.231Z</time>
      </trkpt>
      <trkpt lat="47.84733" lon="6.95088">
        <ele>1050.9</ele>
        <time>2026-08-27T08:37:22.239Z</time>
      </trkpt>
      <trkpt lat="47.84733" lon="6.95088">
        <ele>1050.8</ele>
        <time>2026-08-27T08:37:23.248Z</time>
      </trkpt>
      <trkpt lat="47.84733" lon="6.95089">
        <ele>1050.7</ele>
        <time>2026-08-27T08:37:24.255Z</time>
      </trkpt>
      <trkpt lat="47.84733" lon="6.95088">
        <ele>1050.6</ele>
        <time>2026-08-27T08:37:25.264Z</time>
      </trkpt>
      <trkpt lat="47.84733" lon="6.95088">
        <ele>1050.7</ele>
        <time>2026-08-27T08:37:26.271Z</time>
      </trkpt>
      <trkpt lat="47.84733" lon="6.95089">
        <ele>1050.6</ele>
        <time>2026-08-27T08:37:28.187Z</time>
      </trkpt>
      <trkpt lat="47.84733" lon="6.95089">
        <ele>1050.6</ele>
        <time>2026-08-27T08:37:29.194Z</time>
      </trkpt>
      <trkpt lat="47.84733" lon="6.95089">
        <ele>1050.6</ele>
        <time>2026-08-27T08:37:30.203Z</time>
      </trkpt>
      <trkpt lat="47.84733" lon="6.95089">
        <ele>1050.8</ele>
        <time>2026-08-27T08:37:31.211Z</time>
      </trkpt>
      <trkpt lat="47.84733" lon="6.9509">
        <ele>1050.9</ele>
        <time>2026-08-27T08:37:32.218Z</time>
      </trkpt>
      <trkpt lat="47.84732" lon="6.9509">
        <ele>1050.9</ele>
        <time>2026-08-27T08:37:33.252Z</time>
      </trkpt>
      <trkpt lat="47.84732" lon="6.95092">
        <ele>1049.7</ele>
        <time>2026-08-27T08:37:35.243Z</time>
      </trkpt>
      <trkpt lat="47.84731" lon="6.95093">
        <ele>1049.8</ele>
        <time>2026-08-27T08:37:36.251Z</time>
      </trkpt>
      <trkpt lat="47.84729" lon="6.95095">
        <ele>1050</ele>
        <time>2026-08-27T08:37:37.258Z</time>
      </trkpt>
      <trkpt lat="47.84728" lon="6.95097">
        <ele>1050</ele>
        <time>2026-08-27T08:37:38.267Z</time>
      </trkpt>
      <trkpt lat="47.84726" lon="6.951">
        <ele>1050</ele>
        <time>2026-08-27T08:37:40.182Z</time>
      </trkpt>
      <trkpt lat="47.84726" lon="6.95101">
        <ele>1049.9</ele>
        <time>2026-08-27T08:37:41.191Z</time>
      </trkpt>
      <trkpt lat="47.84726" lon="6.95103">
        <ele>1049.9</ele>
        <time>2026-08-27T08:37:42.199Z</time>
      </trkpt>
      <trkpt lat="47.84725" lon="6.95105">
        <ele>1049.9</ele>
        <time>2026-08-27T08:37:43.273Z</time>
      </trkpt>
      <trkpt lat="47.84724" lon="6.95107">
        <ele>1049.3</ele>
        <time>2026-08-27T08:37:45.222Z</time>
      </trkpt>
      <trkpt lat="47.84723" lon="6.95108">
        <ele>1049.3</ele>
        <time>2026-08-27T08:37:46.230Z</time>
      </trkpt>
      <trkpt lat="47.84722" lon="6.95109">
        <ele>1049.3</ele>
        <time>2026-08-27T08:37:47.256Z</time>
      </trkpt>
      <trkpt lat="47.8472" lon="6.9511">
        <ele>1049.5</ele>
        <time>2026-08-27T08:37:49.153Z</time>
      </trkpt>
      <trkpt lat="47.84719" lon="6.9511">
        <ele>1049.4</ele>
        <time>2026-08-27T08:37:50.262Z</time>
      </trkpt>
      <trkpt lat="47.84719" lon="6.95111">
        <ele>1049.1</ele>
        <time>2026-08-27T08:37:51.271Z</time>
      </trkpt>
      <trkpt lat="47.84718" lon="6.95114">
        <ele>1048.9</ele>
        <time>2026-08-27T08:37:53.186Z</time>
      </trkpt>
      <trkpt lat="47.84718" lon="6.95115">
        <ele>1048.9</ele>
        <time>2026-08-27T08:37:54.193Z</time>
      </trkpt>
      <trkpt lat="47.84717" lon="6.95116">
        <ele>1048.9</ele>
        <time>2026-08-27T08:37:55.202Z</time>
      </trkpt>
      <trkpt lat="47.84717" lon="6.95118">
        <ele>1048.8</ele>
        <time>2026-08-27T08:37:56.209Z</time>
      </trkpt>
      <trkpt lat="47.84716" lon="6.95121">
        <ele>1048.3</ele>
        <time>2026-08-27T08:37:58.225Z</time>
      </trkpt>
      <trkpt lat="47.84715" lon="6.95123">
        <ele>1048</ele>
        <time>2026-08-27T08:37:59.233Z</time>
      </trkpt>
      <trkpt lat="47.84714" lon="6.95125">
        <ele>1048</ele>
        <time>2026-08-27T08:38:01.249Z</time>
      </trkpt>
      <trkpt lat="47.84712" lon="6.95127">
        <ele>1047.3</ele>
        <time>2026-08-27T08:38:03.164Z</time>
      </trkpt>
      <trkpt lat="47.84711" lon="6.9513">
        <ele>1047.2</ele>
        <time>2026-08-27T08:38:05.248Z</time>
      </trkpt>
      <trkpt lat="47.84711" lon="6.95132">
        <ele>1047.4</ele>
        <time>2026-08-27T08:38:07.197Z</time>
      </trkpt>
      <trkpt lat="47.8471" lon="6.95133">
        <ele>1047.5</ele>
        <time>2026-08-27T08:38:08.205Z</time>
      </trkpt>
      <trkpt lat="47.8471" lon="6.95135">
        <ele>1047.7</ele>
        <time>2026-08-27T08:38:09.213Z</time>
      </trkpt>
      <trkpt lat="47.84709" lon="6.95136">
        <ele>1047.6</ele>
        <time>2026-08-27T08:38:10.222Z</time>
      </trkpt>
      <trkpt lat="47.84709" lon="6.95138">
        <ele>1047.7</ele>
        <time>2026-08-27T08:38:11.230Z</time>
      </trkpt>
      <trkpt lat="47.84708" lon="6.95141">
        <ele>1047.5</ele>
        <time>2026-08-27T08:38:13.246Z</time>
      </trkpt>
      <trkpt lat="47.84706" lon="6.95143">
        <ele>1047.8</ele>
        <time>2026-08-27T08:38:15.261Z</time>
      </trkpt>
      <trkpt lat="47.84705" lon="6.95146">
        <ele>1048.1</ele>
        <time>2026-08-27T08:38:17.277Z</time>
      </trkpt>
      <trkpt lat="47.84704" lon="6.95148">
        <ele>1048.3</ele>
        <time>2026-08-27T08:38:19.150Z</time>
      </trkpt>
      <trkpt lat="47.84703" lon="6.95149">
        <ele>1048.1</ele>
        <time>2026-08-27T08:38:20.201Z</time>
      </trkpt>
      <trkpt lat="47.84703" lon="6.9515">
        <ele>1048.3</ele>
        <time>2026-08-27T08:38:21.208Z</time>
      </trkpt>
      <trkpt lat="47.84702" lon="6.95151">
        <ele>1048.4</ele>
        <time>2026-08-27T08:38:22.216Z</time>
      </trkpt>
      <trkpt lat="47.84701" lon="6.95152">
        <ele>1048.3</ele>
        <time>2026-08-27T08:38:23.224Z</time>
      </trkpt>
      <trkpt lat="47.847" lon="6.95153">
        <ele>1048.8</ele>
        <time>2026-08-27T08:38:24.274Z</time>
      </trkpt>
      <trkpt lat="47.84699" lon="6.95154">
        <ele>1049</ele>
        <time>2026-08-27T08:38:26.249Z</time>
      </trkpt>
      <trkpt lat="47.84699" lon="6.95155">
        <ele>1049.2</ele>
        <time>2026-08-27T08:38:27.257Z</time>
      </trkpt>
      <trkpt lat="47.84699" lon="6.95157">
        <ele>1049.2</ele>
        <time>2026-08-27T08:38:28.264Z</time>
      </trkpt>
      <trkpt lat="47.847" lon="6.9516">
        <ele>1049.9</ele>
        <time>2026-08-27T08:38:30.179Z</time>
      </trkpt>
      <trkpt lat="47.847" lon="6.95161">
        <ele>1049.8</ele>
        <time>2026-08-27T08:38:31.188Z</time>
      </trkpt>
      <trkpt lat="47.847" lon="6.95163">
        <ele>1049.6</ele>
        <time>2026-08-27T08:38:32.195Z</time>
      </trkpt>
      <trkpt lat="47.84699" lon="6.95166">
        <ele>1049.5</ele>
        <time>2026-08-27T08:38:34.229Z</time>
      </trkpt>
      <trkpt lat="47.84697" lon="6.95168">
        <ele>1049.9</ele>
        <time>2026-08-27T08:38:36.169Z</time>
      </trkpt>
      <trkpt lat="47.84697" lon="6.95169">
        <ele>1050.1</ele>
        <time>2026-08-27T08:38:37.235Z</time>
      </trkpt>
      <trkpt lat="47.84696" lon="6.9517">
        <ele>1050.2</ele>
        <time>2026-08-27T08:38:38.243Z</time>
      </trkpt>
      <trkpt lat="47.84695" lon="6.95171">
        <ele>1050.2</ele>
        <time>2026-08-27T08:38:39.252Z</time>
      </trkpt>
      <trkpt lat="47.84695" lon="6.95172">
        <ele>1050.3</ele>
        <time>2026-08-27T08:38:40.259Z</time>
      </trkpt>
      <trkpt lat="47.84694" lon="6.95173">
        <ele>1050.1</ele>
        <time>2026-08-27T08:38:41.268Z</time>
      </trkpt>
      <trkpt lat="47.84694" lon="6.95176">
        <ele>1050</ele>
        <time>2026-08-27T08:38:43.184Z</time>
      </trkpt>
      <trkpt lat="47.84694" lon="6.95178">
        <ele>1049.9</ele>
        <time>2026-08-27T08:38:44.192Z</time>
      </trkpt>
      <trkpt lat="47.84694" lon="6.95179">
        <ele>1050.1</ele>
        <time>2026-08-27T08:38:45.199Z</time>
      </trkpt>
      <trkpt lat="47.84694" lon="6.95181">
        <ele>1050.2</ele>
        <time>2026-08-27T08:38:46.207Z</time>
      </trkpt>
      <trkpt lat="47.84693" lon="6.95183">
        <ele>1050.3</ele>
        <time>2026-08-27T08:38:47.274Z</time>
      </trkpt>
      <trkpt lat="47.84692" lon="6.95185">
        <ele>1049.9</ele>
        <time>2026-08-27T08:38:49.231Z</time>
      </trkpt>
      <trkpt lat="47.84691" lon="6.95187">
        <ele>1049.9</ele>
        <time>2026-08-27T08:38:50.239Z</time>
      </trkpt>
      <trkpt lat="47.84691" lon="6.95188">
        <ele>1050</ele>
        <time>2026-08-27T08:38:51.247Z</time>
      </trkpt>
      <trkpt lat="47.84691" lon="6.95189">
        <ele>1049.8</ele>
        <time>2026-08-27T08:38:52.256Z</time>
      </trkpt>
      <trkpt lat="47.84691" lon="6.9519">
        <ele>1050.2</ele>
        <time>2026-08-27T08:38:53.263Z</time>
      </trkpt>
      <trkpt lat="47.84692" lon="6.95191">
        <ele>1050.3</ele>
        <time>2026-08-27T08:38:54.271Z</time>
      </trkpt>
      <trkpt lat="47.84693" lon="6.95192">
        <ele>1050.3</ele>
        <time>2026-08-27T08:38:55.280Z</time>
      </trkpt>
      <trkpt lat="47.84694" lon="6.95194">
        <ele>1050.5</ele>
        <time>2026-08-27T08:38:57.203Z</time>
      </trkpt>
      <trkpt lat="47.84695" lon="6.95196">
        <ele>1050.5</ele>
        <time>2026-08-27T08:38:58.227Z</time>
      </trkpt>
      <trkpt lat="47.84695" lon="6.95197">
        <ele>1050.9</ele>
        <time>2026-08-27T08:38:59.236Z</time>
      </trkpt>
      <trkpt lat="47.84696" lon="6.95199">
        <ele>1050.7</ele>
        <time>2026-08-27T08:39:00.244Z</time>
      </trkpt>
      <trkpt lat="47.84696" lon="6.95201">
        <ele>1050.3</ele>
        <time>2026-08-27T08:39:01.251Z</time>
      </trkpt>
      <trkpt lat="47.84695" lon="6.95204">
        <ele>1050.4</ele>
        <time>2026-08-27T08:39:03.267Z</time>
      </trkpt>
      <trkpt lat="47.84695" lon="6.95205">
        <ele>1050.6</ele>
        <time>2026-08-27T08:39:04.275Z</time>
      </trkpt>
      <trkpt lat="47.84695" lon="6.95207">
        <ele>1050.8</ele>
        <time>2026-08-27T08:39:06.250Z</time>
      </trkpt>
      <trkpt lat="47.84694" lon="6.95209">
        <ele>1051</ele>
        <time>2026-08-27T08:39:08.207Z</time>
      </trkpt>
      <trkpt lat="47.84694" lon="6.95211">
        <ele>1051</ele>
        <time>2026-08-27T08:39:09.282Z</time>
      </trkpt>
      <trkpt lat="47.84693" lon="6.95212">
        <ele>1051.2</ele>
        <time>2026-08-27T08:39:11.231Z</time>
      </trkpt>
      <trkpt lat="47.84693" lon="6.95212">
        <ele>1051.3</ele>
        <time>2026-08-27T08:39:12.239Z</time>
      </trkpt>
      <trkpt lat="47.84693" lon="6.95213">
        <ele>1051.3</ele>
        <time>2026-08-27T08:39:13.247Z</time>
      </trkpt>
      <trkpt lat="47.84693" lon="6.95213">
        <ele>1051.3</ele>
        <time>2026-08-27T08:39:14.264Z</time>
      </trkpt>
      <trkpt lat="47.84693" lon="6.95215">
        <ele>1051.8</ele>
        <time>2026-08-27T08:39:16.170Z</time>
      </trkpt>
      <trkpt lat="47.84693" lon="6.95215">
        <ele>1052</ele>
        <time>2026-08-27T08:39:17.179Z</time>
      </trkpt>
      <trkpt lat="47.84693" lon="6.95216">
        <ele>1052.2</ele>
        <time>2026-08-27T08:39:18.186Z</time>
      </trkpt>
      <trkpt lat="47.84693" lon="6.95215">
        <ele>1052.2</ele>
        <time>2026-08-27T08:39:19.194Z</time>
      </trkpt>
      <trkpt lat="47.84693" lon="6.95215">
        <ele>1052.3</ele>
        <time>2026-08-27T08:39:20.202Z</time>
      </trkpt>
      <trkpt lat="47.84693" lon="6.95214">
        <ele>1052.1</ele>
        <time>2026-08-27T08:39:21.210Z</time>
      </trkpt>
      <trkpt lat="47.84693" lon="6.95214">
        <ele>1052.4</ele>
        <time>2026-08-27T08:39:22.218Z</time>
      </trkpt>
      <trkpt lat="47.84693" lon="6.95214">
        <ele>1052.3</ele>
        <time>2026-08-27T08:39:23.227Z</time>
      </trkpt>
      <trkpt lat="47.84693" lon="6.95214">
        <ele>1052.3</ele>
        <time>2026-08-27T08:39:24.234Z</time>
      </trkpt>
      <trkpt lat="47.84693" lon="6.95216">
        <ele>1052.3</ele>
        <time>2026-08-27T08:39:25.242Z</time>
      </trkpt>
      <trkpt lat="47.84693" lon="6.95218">
        <ele>1052.2</ele>
        <time>2026-08-27T08:39:26.250Z</time>
      </trkpt>
      <trkpt lat="47.84693" lon="6.9522">
        <ele>1052.3</ele>
        <time>2026-08-27T08:39:27.258Z</time>
      </trkpt>
      <trkpt lat="47.84694" lon="6.95224">
        <ele>1052</ele>
        <time>2026-08-27T08:39:29.275Z</time>
      </trkpt>
      <trkpt lat="47.84695" lon="6.95227">
        <ele>1051.5</ele>
        <time>2026-08-27T08:39:31.190Z</time>
      </trkpt>
      <trkpt lat="47.84694" lon="6.9523">
        <ele>1051.4</ele>
        <time>2026-08-27T08:39:32.198Z</time>
      </trkpt>
      <trkpt lat="47.84693" lon="6.95232">
        <ele>1051.6</ele>
        <time>2026-08-27T08:39:33.206Z</time>
      </trkpt>
      <trkpt lat="47.84693" lon="6.95235">
        <ele>1051.6</ele>
        <time>2026-08-27T08:39:34.239Z</time>
      </trkpt>
      <trkpt lat="47.84693" lon="6.95239">
        <ele>1051.9</ele>
        <time>2026-08-27T08:39:36.238Z</time>
      </trkpt>
      <trkpt lat="47.84693" lon="6.95241">
        <ele>1052</ele>
        <time>2026-08-27T08:39:37.239Z</time>
      </trkpt>
      <trkpt lat="47.84693" lon="6.95242">
        <ele>1052.1</ele>
        <time>2026-08-27T08:39:39.153Z</time>
      </trkpt>
      <trkpt lat="47.84693" lon="6.95242">
        <ele>1052.1</ele>
        <time>2026-08-27T08:39:40.161Z</time>
      </trkpt>
      <trkpt lat="47.84693" lon="6.95242">
        <ele>1052.3</ele>
        <time>2026-08-27T08:39:41.170Z</time>
      </trkpt>
      <trkpt lat="47.84693" lon="6.95241">
        <ele>1052.3</ele>
        <time>2026-08-27T08:39:42.177Z</time>
      </trkpt>
      <trkpt lat="47.84693" lon="6.95241">
        <ele>1052.5</ele>
        <time>2026-08-27T08:39:43.186Z</time>
      </trkpt>
      <trkpt lat="47.84693" lon="6.95241">
        <ele>1052.4</ele>
        <time>2026-08-27T08:39:44.193Z</time>
      </trkpt>
      <trkpt lat="47.84693" lon="6.95241">
        <ele>1052.5</ele>
        <time>2026-08-27T08:39:45.201Z</time>
      </trkpt>
      <trkpt lat="47.84693" lon="6.95241">
        <ele>1052.5</ele>
        <time>2026-08-27T08:39:46.209Z</time>
      </trkpt>
      <trkpt lat="47.84693" lon="6.95242">
        <ele>1052.5</ele>
        <time>2026-08-27T08:39:47.218Z</time>
      </trkpt>
      <trkpt lat="47.84693" lon="6.95243">
        <ele>1052.5</ele>
        <time>2026-08-27T08:39:48.225Z</time>
      </trkpt>
      <trkpt lat="47.84692" lon="6.95244">
        <ele>1052.5</ele>
        <time>2026-08-27T08:39:49.234Z</time>
      </trkpt>
      <trkpt lat="47.84693" lon="6.95245">
        <ele>1052.3</ele>
        <time>2026-08-27T08:39:50.242Z</time>
      </trkpt>
      <trkpt lat="47.84693" lon="6.95248">
        <ele>1052.5</ele>
        <time>2026-08-27T08:39:52.258Z</time>
      </trkpt>
      <trkpt lat="47.84692" lon="6.9525">
        <ele>1052.5</ele>
        <time>2026-08-27T08:39:53.266Z</time>
      </trkpt>
      <trkpt lat="47.84692" lon="6.95255">
        <ele>1052.6</ele>
        <time>2026-08-27T08:39:55.199Z</time>
      </trkpt>
      <trkpt lat="47.84692" lon="6.95258">
        <ele>1052.5</ele>
        <time>2026-08-27T08:39:57.181Z</time>
      </trkpt>
      <trkpt lat="47.84691" lon="6.95259">
        <ele>1052.4</ele>
        <time>2026-08-27T08:39:58.205Z</time>
      </trkpt>
      <trkpt lat="47.84691" lon="6.9526">
        <ele>1052.1</ele>
        <time>2026-08-27T08:39:59.213Z</time>
      </trkpt>
      <trkpt lat="47.84691" lon="6.95261">
        <ele>1052.2</ele>
        <time>2026-08-27T08:40:00.222Z</time>
      </trkpt>
      <trkpt lat="47.84691" lon="6.95262">
        <ele>1052.4</ele>
        <time>2026-08-27T08:40:01.230Z</time>
      </trkpt>
      <trkpt lat="47.84691" lon="6.95263">
        <ele>1052.5</ele>
        <time>2026-08-27T08:40:02.280Z</time>
      </trkpt>
      <trkpt lat="47.8469" lon="6.95265">
        <ele>1052.8</ele>
        <time>2026-08-27T08:40:04.179Z</time>
      </trkpt>
      <trkpt lat="47.8469" lon="6.95268">
        <ele>1052.6</ele>
        <time>2026-08-27T08:40:06.271Z</time>
      </trkpt>
      <trkpt lat="47.84689" lon="6.95271">
        <ele>1052.5</ele>
        <time>2026-08-27T08:40:08.185Z</time>
      </trkpt>
      <trkpt lat="47.84689" lon="6.95272">
        <ele>1052.6</ele>
        <time>2026-08-27T08:40:09.194Z</time>
      </trkpt>
      <trkpt lat="47.84688" lon="6.95273">
        <ele>1052.7</ele>
        <time>2026-08-27T08:40:10.202Z</time>
      </trkpt>
      <trkpt lat="47.84688" lon="6.95275">
        <ele>1052.7</ele>
        <time>2026-08-27T08:40:11.210Z</time>
      </trkpt>
      <trkpt lat="47.84687" lon="6.95277">
        <ele>1052.7</ele>
        <time>2026-08-27T08:40:13.226Z</time>
      </trkpt>
      <trkpt lat="47.84687" lon="6.95278">
        <ele>1053</ele>
        <time>2026-08-27T08:40:14.233Z</time>
      </trkpt>
      <trkpt lat="47.84687" lon="6.9528">
        <ele>1053.1</ele>
        <time>2026-08-27T08:40:15.241Z</time>
      </trkpt>
      <trkpt lat="47.84687" lon="6.95281">
        <ele>1053</ele>
        <time>2026-08-27T08:40:16.249Z</time>
      </trkpt>
      <trkpt lat="47.84687" lon="6.95282">
        <ele>1053.1</ele>
        <time>2026-08-27T08:40:17.258Z</time>
      </trkpt>
      <trkpt lat="47.84686" lon="6.95284">
        <ele>1053.3</ele>
        <time>2026-08-27T08:40:18.266Z</time>
      </trkpt>
      <trkpt lat="47.84686" lon="6.95287">
        <ele>1053.4</ele>
        <time>2026-08-27T08:40:20.182Z</time>
      </trkpt>
      <trkpt lat="47.84686" lon="6.95289">
        <ele>1053.5</ele>
        <time>2026-08-27T08:40:21.189Z</time>
      </trkpt>
      <trkpt lat="47.84686" lon="6.95292">
        <ele>1053.5</ele>
        <time>2026-08-27T08:40:23.205Z</time>
      </trkpt>
      <trkpt lat="47.84685" lon="6.95294">
        <ele>1053.5</ele>
        <time>2026-08-27T08:40:24.221Z</time>
      </trkpt>
      <trkpt lat="47.84685" lon="6.95295">
        <ele>1053.6</ele>
        <time>2026-08-27T08:40:25.221Z</time>
      </trkpt>
      <trkpt lat="47.84685" lon="6.95296">
        <ele>1053.6</ele>
        <time>2026-08-27T08:40:26.230Z</time>
      </trkpt>
      <trkpt lat="47.84685" lon="6.95297">
        <ele>1053.5</ele>
        <time>2026-08-27T08:40:27.279Z</time>
      </trkpt>
      <trkpt lat="47.84685" lon="6.95299">
        <ele>1052.9</ele>
        <time>2026-08-27T08:40:29.253Z</time>
      </trkpt>
      <trkpt lat="47.84686" lon="6.953">
        <ele>1053.1</ele>
        <time>2026-08-27T08:40:30.261Z</time>
      </trkpt>
      <trkpt lat="47.84685" lon="6.95302">
        <ele>1053</ele>
        <time>2026-08-27T08:40:32.176Z</time>
      </trkpt>
      <trkpt lat="47.84685" lon="6.95303">
        <ele>1052.5</ele>
        <time>2026-08-27T08:40:33.184Z</time>
      </trkpt>
      <trkpt lat="47.84685" lon="6.95305">
        <ele>1052.5</ele>
        <time>2026-08-27T08:40:34.193Z</time>
      </trkpt>
      <trkpt lat="47.84685" lon="6.95306">
        <ele>1052.4</ele>
        <time>2026-08-27T08:40:35.200Z</time>
      </trkpt>
      <trkpt lat="47.84685" lon="6.95307">
        <ele>1052.4</ele>
        <time>2026-08-27T08:40:36.208Z</time>
      </trkpt>
      <trkpt lat="47.84685" lon="6.95308">
        <ele>1052.3</ele>
        <time>2026-08-27T08:40:37.216Z</time>
      </trkpt>
      <trkpt lat="47.84685" lon="6.95309">
        <ele>1052.4</ele>
        <time>2026-08-27T08:40:38.224Z</time>
      </trkpt>
      <trkpt lat="47.84684" lon="6.9531">
        <ele>1052.4</ele>
        <time>2026-08-27T08:40:39.232Z</time>
      </trkpt>
      <trkpt lat="47.84684" lon="6.95311">
        <ele>1052.6</ele>
        <time>2026-08-27T08:40:40.241Z</time>
      </trkpt>
      <trkpt lat="47.84683" lon="6.95312">
        <ele>1052.7</ele>
        <time>2026-08-27T08:40:41.249Z</time>
      </trkpt>
      <trkpt lat="47.84683" lon="6.95312">
        <ele>1052.8</ele>
        <time>2026-08-27T08:40:42.257Z</time>
      </trkpt>
      <trkpt lat="47.84682" lon="6.95314">
        <ele>1053.1</ele>
        <time>2026-08-27T08:40:44.172Z</time>
      </trkpt>
      <trkpt lat="47.84682" lon="6.95315">
        <ele>1053.2</ele>
        <time>2026-08-27T08:40:45.181Z</time>
      </trkpt>
      <trkpt lat="47.84682" lon="6.95317">
        <ele>1053.6</ele>
        <time>2026-08-27T08:40:46.189Z</time>
      </trkpt>
      <trkpt lat="47.84682" lon="6.95318">
        <ele>1053.8</ele>
        <time>2026-08-27T08:40:47.196Z</time>
      </trkpt>
      <trkpt lat="47.84682" lon="6.95319">
        <ele>1053.8</ele>
        <time>2026-08-27T08:40:48.204Z</time>
      </trkpt>
      <trkpt lat="47.84682" lon="6.9532">
        <ele>1053.9</ele>
        <time>2026-08-27T08:40:49.212Z</time>
      </trkpt>
      <trkpt lat="47.84682" lon="6.95322">
        <ele>1053.9</ele>
        <time>2026-08-27T08:40:50.220Z</time>
      </trkpt>
      <trkpt lat="47.84682" lon="6.95323">
        <ele>1053.9</ele>
        <time>2026-08-27T08:40:51.229Z</time>
      </trkpt>
      <trkpt lat="47.84681" lon="6.95325">
        <ele>1053.9</ele>
        <time>2026-08-27T08:40:52.236Z</time>
      </trkpt>
      <trkpt lat="47.84681" lon="6.95326">
        <ele>1053.9</ele>
        <time>2026-08-27T08:40:53.244Z</time>
      </trkpt>
      <trkpt lat="47.8468" lon="6.95329">
        <ele>1053.5</ele>
        <time>2026-08-27T08:40:55.264Z</time>
      </trkpt>
      <trkpt lat="47.84679" lon="6.95331">
        <ele>1053.3</ele>
        <time>2026-08-27T08:40:57.197Z</time>
      </trkpt>
      <trkpt lat="47.84678" lon="6.95333">
        <ele>1053.2</ele>
        <time>2026-08-27T08:40:59.213Z</time>
      </trkpt>
      <trkpt lat="47.84678" lon="6.95334">
        <ele>1053.9</ele>
        <time>2026-08-27T08:41:00.220Z</time>
      </trkpt>
      <trkpt lat="47.84678" lon="6.95336">
        <ele>1053.9</ele>
        <time>2026-08-27T08:41:01.228Z</time>
      </trkpt>
      <trkpt lat="47.84677" lon="6.95337">
        <ele>1053.7</ele>
        <time>2026-08-27T08:41:02.236Z</time>
      </trkpt>
      <trkpt lat="47.84677" lon="6.95339">
        <ele>1053.8</ele>
        <time>2026-08-27T08:41:04.254Z</time>
      </trkpt>
      <trkpt lat="47.84677" lon="6.9534">
        <ele>1054</ele>
        <time>2026-08-27T08:41:05.261Z</time>
      </trkpt>
      <trkpt lat="47.84676" lon="6.95342">
        <ele>1053.8</ele>
        <time>2026-08-27T08:41:06.269Z</time>
      </trkpt>
      <trkpt lat="47.84677" lon="6.95344">
        <ele>1053.9</ele>
        <time>2026-08-27T08:41:08.185Z</time>
      </trkpt>
      <trkpt lat="47.84677" lon="6.95344">
        <ele>1053.8</ele>
        <time>2026-08-27T08:41:09.192Z</time>
      </trkpt>
      <trkpt lat="47.84677" lon="6.95344">
        <ele>1053.6</ele>
        <time>2026-08-27T08:41:10.200Z</time>
      </trkpt>
      <trkpt lat="47.84677" lon="6.95343">
        <ele>1053.6</ele>
        <time>2026-08-27T08:41:11.209Z</time>
      </trkpt>
      <trkpt lat="47.84677" lon="6.95342">
        <ele>1053.2</ele>
        <time>2026-08-27T08:41:12.216Z</time>
      </trkpt>
      <trkpt lat="47.84677" lon="6.95342">
        <ele>1053.3</ele>
        <time>2026-08-27T08:41:13.224Z</time>
      </trkpt>
      <trkpt lat="47.84677" lon="6.95342">
        <ele>1053.4</ele>
        <time>2026-08-27T08:41:14.232Z</time>
      </trkpt>
      <trkpt lat="47.84677" lon="6.95342">
        <ele>1053.5</ele>
        <time>2026-08-27T08:41:15.240Z</time>
      </trkpt>
      <trkpt lat="47.84677" lon="6.95342">
        <ele>1053.4</ele>
        <time>2026-08-27T08:41:16.248Z</time>
      </trkpt>
      <trkpt lat="47.84677" lon="6.95342">
        <ele>1053.5</ele>
        <time>2026-08-27T08:41:17.257Z</time>
      </trkpt>
      <trkpt lat="47.84676" lon="6.95342">
        <ele>1053.6</ele>
        <time>2026-08-27T08:41:18.265Z</time>
      </trkpt>
      <trkpt lat="47.84676" lon="6.95341">
        <ele>1053.4</ele>
        <time>2026-08-27T08:41:20.179Z</time>
      </trkpt>
      <trkpt lat="47.84676" lon="6.95342">
        <ele>1053.8</ele>
        <time>2026-08-27T08:41:21.188Z</time>
      </trkpt>
      <trkpt lat="47.84676" lon="6.95342">
        <ele>1053.3</ele>
        <time>2026-08-27T08:41:22.195Z</time>
      </trkpt>
      <trkpt lat="47.84676" lon="6.95342">
        <ele>1053.3</ele>
        <time>2026-08-27T08:41:23.203Z</time>
      </trkpt>
      <trkpt lat="47.84676" lon="6.95342">
        <ele>1053.3</ele>
        <time>2026-08-27T08:41:24.233Z</time>
      </trkpt>
      <trkpt lat="47.84676" lon="6.95342">
        <ele>1053.1</ele>
        <time>2026-08-27T08:41:26.227Z</time>
      </trkpt>
      <trkpt lat="47.84676" lon="6.95343">
        <ele>1053</ele>
        <time>2026-08-27T08:41:28.144Z</time>
      </trkpt>
      <trkpt lat="47.84676" lon="6.95344">
        <ele>1053.3</ele>
        <time>2026-08-27T08:41:29.152Z</time>
      </trkpt>
      <trkpt lat="47.84675" lon="6.95346">
        <ele>1053.1</ele>
        <time>2026-08-27T08:41:30.260Z</time>
      </trkpt>
      <trkpt lat="47.84675" lon="6.95349">
        <ele>1052.8</ele>
        <time>2026-08-27T08:41:32.271Z</time>
      </trkpt>
      <trkpt lat="47.84675" lon="6.9535">
        <ele>1052.8</ele>
        <time>2026-08-27T08:41:33.272Z</time>
      </trkpt>
      <trkpt lat="47.84674" lon="6.95353">
        <ele>1052.7</ele>
        <time>2026-08-27T08:41:35.169Z</time>
      </trkpt>
      <trkpt lat="47.84674" lon="6.95355">
        <ele>1052.3</ele>
        <time>2026-08-27T08:41:36.211Z</time>
      </trkpt>
      <trkpt lat="47.84674" lon="6.95357">
        <ele>1052</ele>
        <time>2026-08-27T08:41:37.220Z</time>
      </trkpt>
      <trkpt lat="47.84673" lon="6.95358">
        <ele>1051.9</ele>
        <time>2026-08-27T08:41:38.227Z</time>
      </trkpt>
      <trkpt lat="47.84673" lon="6.9536">
        <ele>1051.8</ele>
        <time>2026-08-27T08:41:39.235Z</time>
      </trkpt>
      <trkpt lat="47.84672" lon="6.95361">
        <ele>1051.8</ele>
        <time>2026-08-27T08:41:40.294Z</time>
      </trkpt>
      <trkpt lat="47.84671" lon="6.95364">
        <ele>1051.6</ele>
        <time>2026-08-27T08:41:42.259Z</time>
      </trkpt>
      <trkpt lat="47.8467" lon="6.95365">
        <ele>1051.8</ele>
        <time>2026-08-27T08:41:43.267Z</time>
      </trkpt>
      <trkpt lat="47.84669" lon="6.95368">
        <ele>1052.2</ele>
        <time>2026-08-27T08:41:45.182Z</time>
      </trkpt>
      <trkpt lat="47.84668" lon="6.95369">
        <ele>1052.4</ele>
        <time>2026-08-27T08:41:46.190Z</time>
      </trkpt>
      <trkpt lat="47.84667" lon="6.9537">
        <ele>1052.6</ele>
        <time>2026-08-27T08:41:47.198Z</time>
      </trkpt>
      <trkpt lat="47.84667" lon="6.95372">
        <ele>1052.6</ele>
        <time>2026-08-27T08:41:48.206Z</time>
      </trkpt>
      <trkpt lat="47.84667" lon="6.95372">
        <ele>1052.7</ele>
        <time>2026-08-27T08:41:49.214Z</time>
      </trkpt>
      <trkpt lat="47.84666" lon="6.95374">
        <ele>1052.9</ele>
        <time>2026-08-27T08:41:50.224Z</time>
      </trkpt>
      <trkpt lat="47.84666" lon="6.95375">
        <ele>1052.9</ele>
        <time>2026-08-27T08:41:51.231Z</time>
      </trkpt>
      <trkpt lat="47.84665" lon="6.95377">
        <ele>1052.5</ele>
        <time>2026-08-27T08:41:53.247Z</time>
      </trkpt>
      <trkpt lat="47.84665" lon="6.95379">
        <ele>1052.6</ele>
        <time>2026-08-27T08:41:54.289Z</time>
      </trkpt>
      <trkpt lat="47.84665" lon="6.95382">
        <ele>1053</ele>
        <time>2026-08-27T08:41:56.271Z</time>
      </trkpt>
      <trkpt lat="47.84665" lon="6.95384">
        <ele>1053.1</ele>
        <time>2026-08-27T08:41:58.186Z</time>
      </trkpt>
      <trkpt lat="47.84665" lon="6.95385">
        <ele>1053.2</ele>
        <time>2026-08-27T08:41:59.194Z</time>
      </trkpt>
      <trkpt lat="47.84665" lon="6.95387">
        <ele>1053.7</ele>
        <time>2026-08-27T08:42:01.210Z</time>
      </trkpt>
      <trkpt lat="47.84665" lon="6.95388">
        <ele>1053.7</ele>
        <time>2026-08-27T08:42:02.218Z</time>
      </trkpt>
      <trkpt lat="47.84664" lon="6.9539">
        <ele>1054</ele>
        <time>2026-08-27T08:42:03.227Z</time>
      </trkpt>
      <trkpt lat="47.84664" lon="6.95391">
        <ele>1053.9</ele>
        <time>2026-08-27T08:42:04.235Z</time>
      </trkpt>
      <trkpt lat="47.84664" lon="6.95393">
        <ele>1054.1</ele>
        <time>2026-08-27T08:42:05.243Z</time>
      </trkpt>
      <trkpt lat="47.84664" lon="6.95394">
        <ele>1054</ele>
        <time>2026-08-27T08:42:06.251Z</time>
      </trkpt>
      <trkpt lat="47.84664" lon="6.95395">
        <ele>1054.1</ele>
        <time>2026-08-27T08:42:07.259Z</time>
      </trkpt>
      <trkpt lat="47.84663" lon="6.95398">
        <ele>1054.1</ele>
        <time>2026-08-27T08:42:09.174Z</time>
      </trkpt>
      <trkpt lat="47.84663" lon="6.95399">
        <ele>1053.9</ele>
        <time>2026-08-27T08:42:10.181Z</time>
      </trkpt>
      <trkpt lat="47.84662" lon="6.954">
        <ele>1054.2</ele>
        <time>2026-08-27T08:42:11.189Z</time>
      </trkpt>
      <trkpt lat="47.84662" lon="6.95401">
        <ele>1054.2</ele>
        <time>2026-08-27T08:42:12.197Z</time>
      </trkpt>
      <trkpt lat="47.84662" lon="6.95401">
        <ele>1054.5</ele>
        <time>2026-08-27T08:42:13.205Z</time>
      </trkpt>
      <trkpt lat="47.84662" lon="6.95402">
        <ele>1054.2</ele>
        <time>2026-08-27T08:42:14.214Z</time>
      </trkpt>
      <trkpt lat="47.84662" lon="6.95403">
        <ele>1054.8</ele>
        <time>2026-08-27T08:42:15.221Z</time>
      </trkpt>
      <trkpt lat="47.84661" lon="6.95406">
        <ele>1054.5</ele>
        <time>2026-08-27T08:42:17.238Z</time>
      </trkpt>
      <trkpt lat="47.84661" lon="6.95407">
        <ele>1054.6</ele>
        <time>2026-08-27T08:42:18.247Z</time>
      </trkpt>
      <trkpt lat="47.84661" lon="6.95408">
        <ele>1054.5</ele>
        <time>2026-08-27T08:42:19.254Z</time>
      </trkpt>
      <trkpt lat="47.84661" lon="6.9541">
        <ele>1054.5</ele>
        <time>2026-08-27T08:42:20.262Z</time>
      </trkpt>
      <trkpt lat="47.84661" lon="6.95411">
        <ele>1054.5</ele>
        <time>2026-08-27T08:42:21.271Z</time>
      </trkpt>
      <trkpt lat="47.84661" lon="6.95413">
        <ele>1054.9</ele>
        <time>2026-08-27T08:42:23.185Z</time>
      </trkpt>
      <trkpt lat="47.84661" lon="6.95414">
        <ele>1055.3</ele>
        <time>2026-08-27T08:42:24.193Z</time>
      </trkpt>
      <trkpt lat="47.84661" lon="6.95416">
        <ele>1055.3</ele>
        <time>2026-08-27T08:42:26.210Z</time>
      </trkpt>
      <trkpt lat="47.84661" lon="6.95418">
        <ele>1055</ele>
        <time>2026-08-27T08:42:28.226Z</time>
      </trkpt>
      <trkpt lat="47.84661" lon="6.95419">
        <ele>1055.2</ele>
        <time>2026-08-27T08:42:29.233Z</time>
      </trkpt>
      <trkpt lat="47.8466" lon="6.9542">
        <ele>1055.3</ele>
        <time>2026-08-27T08:42:30.241Z</time>
      </trkpt>
      <trkpt lat="47.8466" lon="6.95422">
        <ele>1055.8</ele>
        <time>2026-08-27T08:42:31.249Z</time>
      </trkpt>
      <trkpt lat="47.8466" lon="6.95424">
        <ele>1056.4</ele>
        <time>2026-08-27T08:42:33.165Z</time>
      </trkpt>
      <trkpt lat="47.8466" lon="6.95425">
        <ele>1056.7</ele>
        <time>2026-08-27T08:42:34.273Z</time>
      </trkpt>
      <trkpt lat="47.84659" lon="6.95427">
        <ele>1056.8</ele>
        <time>2026-08-27T08:42:36.189Z</time>
      </trkpt>
      <trkpt lat="47.84659" lon="6.95428">
        <ele>1057</ele>
        <time>2026-08-27T08:42:37.290Z</time>
      </trkpt>
      <trkpt lat="47.84659" lon="6.9543">
        <ele>1056.9</ele>
        <time>2026-08-27T08:42:39.212Z</time>
      </trkpt>
      <trkpt lat="47.84659" lon="6.95431">
        <ele>1057.1</ele>
        <time>2026-08-27T08:42:40.221Z</time>
      </trkpt>
      <trkpt lat="47.84659" lon="6.95432">
        <ele>1057</ele>
        <time>2026-08-27T08:42:41.228Z</time>
      </trkpt>
      <trkpt lat="47.84659" lon="6.95433">
        <ele>1057</ele>
        <time>2026-08-27T08:42:42.253Z</time>
      </trkpt>
      <trkpt lat="47.84659" lon="6.95437">
        <ele>1058</ele>
        <time>2026-08-27T08:42:44.254Z</time>
      </trkpt>
      <trkpt lat="47.84659" lon="6.95438">
        <ele>1057.9</ele>
        <time>2026-08-27T08:42:45.261Z</time>
      </trkpt>
      <trkpt lat="47.84659" lon="6.9544">
        <ele>1057.6</ele>
        <time>2026-08-27T08:42:46.269Z</time>
      </trkpt>
      <trkpt lat="47.84659" lon="6.95442">
        <ele>1057.6</ele>
        <time>2026-08-27T08:42:48.184Z</time>
      </trkpt>
      <trkpt lat="47.84658" lon="6.95443">
        <ele>1057.6</ele>
        <time>2026-08-27T08:42:49.218Z</time>
      </trkpt>
      <trkpt lat="47.84659" lon="6.95444">
        <ele>1057.9</ele>
        <time>2026-08-27T08:42:51.208Z</time>
      </trkpt>
      <trkpt lat="47.84659" lon="6.95445">
        <ele>1058.1</ele>
        <time>2026-08-27T08:42:52.216Z</time>
      </trkpt>
      <trkpt lat="47.84659" lon="6.95446">
        <ele>1058.1</ele>
        <time>2026-08-27T08:42:53.224Z</time>
      </trkpt>
      <trkpt lat="47.84659" lon="6.95447">
        <ele>1058.4</ele>
        <time>2026-08-27T08:42:54.232Z</time>
      </trkpt>
      <trkpt lat="47.8466" lon="6.95449">
        <ele>1058.5</ele>
        <time>2026-08-27T08:42:55.240Z</time>
      </trkpt>
      <trkpt lat="47.8466" lon="6.95449">
        <ele>1058.5</ele>
        <time>2026-08-27T08:42:56.248Z</time>
      </trkpt>
      <trkpt lat="47.8466" lon="6.9545">
        <ele>1058.6</ele>
        <time>2026-08-27T08:42:57.257Z</time>
      </trkpt>
      <trkpt lat="47.8466" lon="6.9545">
        <ele>1058.5</ele>
        <time>2026-08-27T08:42:58.265Z</time>
      </trkpt>
      <trkpt lat="47.8466" lon="6.95449">
        <ele>1058.6</ele>
        <time>2026-08-27T08:42:59.272Z</time>
      </trkpt>
      <trkpt lat="47.8466" lon="6.95449">
        <ele>1058.8</ele>
        <time>2026-08-27T08:43:00.281Z</time>
      </trkpt>
      <trkpt lat="47.8466" lon="6.95449">
        <ele>1059.2</ele>
        <time>2026-08-27T08:43:02.195Z</time>
      </trkpt>
      <trkpt lat="47.8466" lon="6.95449">
        <ele>1059.4</ele>
        <time>2026-08-27T08:43:03.203Z</time>
      </trkpt>
      <trkpt lat="47.8466" lon="6.95449">
        <ele>1059.4</ele>
        <time>2026-08-27T08:43:04.211Z</time>
      </trkpt>
      <trkpt lat="47.8466" lon="6.95449">
        <ele>1059.4</ele>
        <time>2026-08-27T08:43:05.220Z</time>
      </trkpt>
      <trkpt lat="47.8466" lon="6.95449">
        <ele>1059.5</ele>
        <time>2026-08-27T08:43:06.227Z</time>
      </trkpt>
      <trkpt lat="47.8466" lon="6.95449">
        <ele>1059.3</ele>
        <time>2026-08-27T08:43:07.236Z</time>
      </trkpt>
      <trkpt lat="47.8466" lon="6.95449">
        <ele>1059.2</ele>
        <time>2026-08-27T08:43:08.243Z</time>
      </trkpt>
      <trkpt lat="47.8466" lon="6.95449">
        <ele>1059.2</ele>
        <time>2026-08-27T08:43:09.251Z</time>
      </trkpt>
      <trkpt lat="47.84659" lon="6.95449">
        <ele>1059.2</ele>
        <time>2026-08-27T08:43:10.259Z</time>
      </trkpt>
      <trkpt lat="47.84659" lon="6.95449">
        <ele>1059.2</ele>
        <time>2026-08-27T08:43:11.267Z</time>
      </trkpt>
      <trkpt lat="47.84659" lon="6.95449">
        <ele>1059.3</ele>
        <time>2026-08-27T08:43:12.275Z</time>
      </trkpt>
      <trkpt lat="47.84659" lon="6.95449">
        <ele>1059.5</ele>
        <time>2026-08-27T08:43:14.192Z</time>
      </trkpt>
      <trkpt lat="47.8466" lon="6.95449">
        <ele>1059.2</ele>
        <time>2026-08-27T08:43:15.200Z</time>
      </trkpt>
      <trkpt lat="47.8466" lon="6.95449">
        <ele>1059.2</ele>
        <time>2026-08-27T08:43:16.207Z</time>
      </trkpt>
      <trkpt lat="47.8466" lon="6.95449">
        <ele>1059.1</ele>
        <time>2026-08-27T08:43:17.216Z</time>
      </trkpt>
      <trkpt lat="47.8466" lon="6.95449">
        <ele>1058.8</ele>
        <time>2026-08-27T08:43:18.224Z</time>
      </trkpt>
      <trkpt lat="47.8466" lon="6.95449">
        <ele>1058.8</ele>
        <time>2026-08-27T08:43:19.231Z</time>
      </trkpt>
      <trkpt lat="47.8466" lon="6.9545">
        <ele>1058.8</ele>
        <time>2026-08-27T08:43:20.257Z</time>
      </trkpt>
      <trkpt lat="47.84661" lon="6.95452">
        <ele>1059</ele>
        <time>2026-08-27T08:43:22.256Z</time>
      </trkpt>
      <trkpt lat="47.84661" lon="6.95454">
        <ele>1059.2</ele>
        <time>2026-08-27T08:43:23.264Z</time>
      </trkpt>
      <trkpt lat="47.84661" lon="6.95455">
        <ele>1059</ele>
        <time>2026-08-27T08:43:24.271Z</time>
      </trkpt>
      <trkpt lat="47.84661" lon="6.95458">
        <ele>1059.2</ele>
        <time>2026-08-27T08:43:26.186Z</time>
      </trkpt>
      <trkpt lat="47.84661" lon="6.95459">
        <ele>1059.4</ele>
        <time>2026-08-27T08:43:27.194Z</time>
      </trkpt>
      <trkpt lat="47.84662" lon="6.95462">
        <ele>1060</ele>
        <time>2026-08-27T08:43:29.210Z</time>
      </trkpt>
      <trkpt lat="47.84662" lon="6.95464">
        <ele>1060.8</ele>
        <time>2026-08-27T08:43:31.226Z</time>
      </trkpt>
      <trkpt lat="47.84662" lon="6.95465">
        <ele>1060.9</ele>
        <time>2026-08-27T08:43:32.234Z</time>
      </trkpt>
      <trkpt lat="47.84662" lon="6.95467">
        <ele>1061.1</ele>
        <time>2026-08-27T08:43:33.242Z</time>
      </trkpt>
      <trkpt lat="47.84662" lon="6.95468">
        <ele>1061.3</ele>
        <time>2026-08-27T08:43:34.251Z</time>
      </trkpt>
      <trkpt lat="47.84662" lon="6.95469">
        <ele>1061.3</ele>
        <time>2026-08-27T08:43:35.259Z</time>
      </trkpt>
      <trkpt lat="47.84663" lon="6.95469">
        <ele>1061.4</ele>
        <time>2026-08-27T08:43:36.267Z</time>
      </trkpt>
      <trkpt lat="47.84663" lon="6.95471">
        <ele>1061.4</ele>
        <time>2026-08-27T08:43:37.274Z</time>
      </trkpt>
      <trkpt lat="47.84663" lon="6.95473">
        <ele>1061.7</ele>
        <time>2026-08-27T08:43:39.190Z</time>
      </trkpt>
      <trkpt lat="47.84663" lon="6.95474">
        <ele>1061.7</ele>
        <time>2026-08-27T08:43:40.198Z</time>
      </trkpt>
      <trkpt lat="47.84663" lon="6.95475">
        <ele>1062</ele>
        <time>2026-08-27T08:43:41.206Z</time>
      </trkpt>
      <trkpt lat="47.84663" lon="6.95476">
        <ele>1062.1</ele>
        <time>2026-08-27T08:43:42.214Z</time>
      </trkpt>
      <trkpt lat="47.84663" lon="6.95476">
        <ele>1062.2</ele>
        <time>2026-08-27T08:43:43.223Z</time>
      </trkpt>
      <trkpt lat="47.84663" lon="6.95477">
        <ele>1062.4</ele>
        <time>2026-08-27T08:43:44.231Z</time>
      </trkpt>
      <trkpt lat="47.84664" lon="6.95478">
        <ele>1062.4</ele>
        <time>2026-08-27T08:43:45.254Z</time>
      </trkpt>
      <trkpt lat="47.84665" lon="6.9548">
        <ele>1062.3</ele>
        <time>2026-08-27T08:43:47.254Z</time>
      </trkpt>
      <trkpt lat="47.84665" lon="6.95481">
        <ele>1062.3</ele>
        <time>2026-08-27T08:43:48.263Z</time>
      </trkpt>
      <trkpt lat="47.84666" lon="6.95482">
        <ele>1062.6</ele>
        <time>2026-08-27T08:43:49.270Z</time>
      </trkpt>
      <trkpt lat="47.84667" lon="6.95485">
        <ele>1062.5</ele>
        <time>2026-08-27T08:43:51.277Z</time>
      </trkpt>
      <trkpt lat="47.84667" lon="6.95488">
        <ele>1062.3</ele>
        <time>2026-08-27T08:43:53.201Z</time>
      </trkpt>
      <trkpt lat="47.84667" lon="6.95489">
        <ele>1062.2</ele>
        <time>2026-08-27T08:43:54.209Z</time>
      </trkpt>
      <trkpt lat="47.84667" lon="6.9549">
        <ele>1062.3</ele>
        <time>2026-08-27T08:43:55.217Z</time>
      </trkpt>
      <trkpt lat="47.84667" lon="6.95492">
        <ele>1062.5</ele>
        <time>2026-08-27T08:43:56.226Z</time>
      </trkpt>
      <trkpt lat="47.84667" lon="6.95493">
        <ele>1062.8</ele>
        <time>2026-08-27T08:43:57.233Z</time>
      </trkpt>
      <trkpt lat="47.84668" lon="6.95494">
        <ele>1063</ele>
        <time>2026-08-27T08:43:58.241Z</time>
      </trkpt>
      <trkpt lat="47.84668" lon="6.95496">
        <ele>1063.8</ele>
        <time>2026-08-27T08:44:00.258Z</time>
      </trkpt>
      <trkpt lat="47.84669" lon="6.95498">
        <ele>1064</ele>
        <time>2026-08-27T08:44:02.172Z</time>
      </trkpt>
      <trkpt lat="47.84669" lon="6.95499">
        <ele>1064.2</ele>
        <time>2026-08-27T08:44:03.180Z</time>
      </trkpt>
      <trkpt lat="47.84669" lon="6.95501">
        <ele>1064.2</ele>
        <time>2026-08-27T08:44:04.239Z</time>
      </trkpt>
      <trkpt lat="47.84668" lon="6.95503">
        <ele>1064.5</ele>
        <time>2026-08-27T08:44:06.205Z</time>
      </trkpt>
      <trkpt lat="47.84668" lon="6.95504">
        <ele>1064.7</ele>
        <time>2026-08-27T08:44:07.212Z</time>
      </trkpt>
      <trkpt lat="47.84668" lon="6.95505">
        <ele>1065</ele>
        <time>2026-08-27T08:44:09.228Z</time>
      </trkpt>
      <trkpt lat="47.84668" lon="6.95506">
        <ele>1064.9</ele>
        <time>2026-08-27T08:44:10.236Z</time>
      </trkpt>
      <trkpt lat="47.84668" lon="6.95506">
        <ele>1064.6</ele>
        <time>2026-08-27T08:44:11.244Z</time>
      </trkpt>
      <trkpt lat="47.84668" lon="6.95507">
        <ele>1064.5</ele>
        <time>2026-08-27T08:44:12.254Z</time>
      </trkpt>
      <trkpt lat="47.84668" lon="6.95508">
        <ele>1064.8</ele>
        <time>2026-08-27T08:44:13.262Z</time>
      </trkpt>
      <trkpt lat="47.84668" lon="6.95509">
        <ele>1064.8</ele>
        <time>2026-08-27T08:44:15.252Z</time>
      </trkpt>
      <trkpt lat="47.84668" lon="6.95511">
        <ele>1065.5</ele>
        <time>2026-08-27T08:44:17.193Z</time>
      </trkpt>
      <trkpt lat="47.84668" lon="6.95513">
        <ele>1065.8</ele>
        <time>2026-08-27T08:44:18.200Z</time>
      </trkpt>
      <trkpt lat="47.84669" lon="6.95514">
        <ele>1065.8</ele>
        <time>2026-08-27T08:44:19.209Z</time>
      </trkpt>
      <trkpt lat="47.84669" lon="6.95516">
        <ele>1065.9</ele>
        <time>2026-08-27T08:44:20.217Z</time>
      </trkpt>
      <trkpt lat="47.84669" lon="6.95517">
        <ele>1066</ele>
        <time>2026-08-27T08:44:21.224Z</time>
      </trkpt>
      <trkpt lat="47.8467" lon="6.95518">
        <ele>1066</ele>
        <time>2026-08-27T08:44:22.232Z</time>
      </trkpt>
      <trkpt lat="47.8467" lon="6.95519">
        <ele>1066.1</ele>
        <time>2026-08-27T08:44:23.240Z</time>
      </trkpt>
      <trkpt lat="47.84671" lon="6.95519">
        <ele>1066.4</ele>
        <time>2026-08-27T08:44:24.248Z</time>
      </trkpt>
      <trkpt lat="47.84671" lon="6.95518">
        <ele>1066.5</ele>
        <time>2026-08-27T08:44:25.256Z</time>
      </trkpt>
      <trkpt lat="47.8467" lon="6.95518">
        <ele>1066.7</ele>
        <time>2026-08-27T08:44:26.264Z</time>
      </trkpt>
      <trkpt lat="47.8467" lon="6.95518">
        <ele>1066.8</ele>
        <time>2026-08-27T08:44:27.272Z</time>
      </trkpt>
      <trkpt lat="47.8467" lon="6.95518">
        <ele>1066.9</ele>
        <time>2026-08-27T08:44:29.187Z</time>
      </trkpt>
      <trkpt lat="47.8467" lon="6.95518">
        <ele>1066.9</ele>
        <time>2026-08-27T08:44:30.280Z</time>
      </trkpt>
      <trkpt lat="47.8467" lon="6.95518">
        <ele>1066.6</ele>
        <time>2026-08-27T08:44:32.296Z</time>
      </trkpt>
      <trkpt lat="47.8467" lon="6.95518">
        <ele>1066.5</ele>
        <time>2026-08-27T08:44:34.252Z</time>
      </trkpt>
      <trkpt lat="47.8467" lon="6.9552">
        <ele>1066.6</ele>
        <time>2026-08-27T08:44:36.244Z</time>
      </trkpt>
      <trkpt lat="47.8467" lon="6.95521">
        <ele>1066.7</ele>
        <time>2026-08-27T08:44:37.252Z</time>
      </trkpt>
      <trkpt lat="47.8467" lon="6.95522">
        <ele>1066.9</ele>
        <time>2026-08-27T08:44:38.259Z</time>
      </trkpt>
      <trkpt lat="47.8467" lon="6.95523">
        <ele>1066.9</ele>
        <time>2026-08-27T08:44:39.267Z</time>
      </trkpt>
      <trkpt lat="47.84669" lon="6.95524">
        <ele>1067</ele>
        <time>2026-08-27T08:44:41.184Z</time>
      </trkpt>
      <trkpt lat="47.84669" lon="6.95526">
        <ele>1067.2</ele>
        <time>2026-08-27T08:44:42.192Z</time>
      </trkpt>
      <trkpt lat="47.84669" lon="6.95527">
        <ele>1067.4</ele>
        <time>2026-08-27T08:44:43.200Z</time>
      </trkpt>
      <trkpt lat="47.84669" lon="6.95529">
        <ele>1067.5</ele>
        <time>2026-08-27T08:44:44.208Z</time>
      </trkpt>
      <trkpt lat="47.84669" lon="6.9553">
        <ele>1067.8</ele>
        <time>2026-08-27T08:44:45.216Z</time>
      </trkpt>
      <trkpt lat="47.84669" lon="6.95531">
        <ele>1068.1</ele>
        <time>2026-08-27T08:44:46.223Z</time>
      </trkpt>
      <trkpt lat="47.84669" lon="6.95532">
        <ele>1068.4</ele>
        <time>2026-08-27T08:44:47.232Z</time>
      </trkpt>
      <trkpt lat="47.84669" lon="6.95533">
        <ele>1068.4</ele>
        <time>2026-08-27T08:44:48.240Z</time>
      </trkpt>
      <trkpt lat="47.84669" lon="6.95534">
        <ele>1068.5</ele>
        <time>2026-08-27T08:44:49.247Z</time>
      </trkpt>
      <trkpt lat="47.84669" lon="6.95535">
        <ele>1068.7</ele>
        <time>2026-08-27T08:44:50.255Z</time>
      </trkpt>
      <trkpt lat="47.84669" lon="6.95535">
        <ele>1068.3</ele>
        <time>2026-08-27T08:44:51.264Z</time>
      </trkpt>
      <trkpt lat="47.8467" lon="6.95535">
        <ele>1068.4</ele>
        <time>2026-08-27T08:44:52.271Z</time>
      </trkpt>
      <trkpt lat="47.8467" lon="6.95535">
        <ele>1068.5</ele>
        <time>2026-08-27T08:44:53.280Z</time>
      </trkpt>
      <trkpt lat="47.8467" lon="6.95536">
        <ele>1068.6</ele>
        <time>2026-08-27T08:44:55.119Z</time>
      </trkpt>
      <trkpt lat="47.8467" lon="6.95537">
        <ele>1068.9</ele>
        <time>2026-08-27T08:44:56.202Z</time>
      </trkpt>
      <trkpt lat="47.8467" lon="6.95538">
        <ele>1068.9</ele>
        <time>2026-08-27T08:44:57.219Z</time>
      </trkpt>
      <trkpt lat="47.8467" lon="6.95538">
        <ele>1068.6</ele>
        <time>2026-08-27T08:44:59.226Z</time>
      </trkpt>
      <trkpt lat="47.8467" lon="6.95538">
        <ele>1068.6</ele>
        <time>2026-08-27T08:45:00.234Z</time>
      </trkpt>
      <trkpt lat="47.8467" lon="6.95538">
        <ele>1068.6</ele>
        <time>2026-08-27T08:45:01.242Z</time>
      </trkpt>
      <trkpt lat="47.84669" lon="6.95538">
        <ele>1068.4</ele>
        <time>2026-08-27T08:45:03.158Z</time>
      </trkpt>
      <trkpt lat="47.84669" lon="6.95538">
        <ele>1068.2</ele>
        <time>2026-08-27T08:45:04.165Z</time>
      </trkpt>
      <trkpt lat="47.84669" lon="6.95538">
        <ele>1068.4</ele>
        <time>2026-08-27T08:45:05.173Z</time>
      </trkpt>
      <trkpt lat="47.8467" lon="6.95538">
        <ele>1068.5</ele>
        <time>2026-08-27T08:45:06.181Z</time>
      </trkpt>
      <trkpt lat="47.8467" lon="6.95538">
        <ele>1068.5</ele>
        <time>2026-08-27T08:45:07.189Z</time>
      </trkpt>
      <trkpt lat="47.8467" lon="6.95538">
        <ele>1068.4</ele>
        <time>2026-08-27T08:45:08.197Z</time>
      </trkpt>
      <trkpt lat="47.8467" lon="6.95538">
        <ele>1068.5</ele>
        <time>2026-08-27T08:45:09.206Z</time>
      </trkpt>
      <trkpt lat="47.8467" lon="6.95538">
        <ele>1068.1</ele>
        <time>2026-08-27T08:45:10.214Z</time>
      </trkpt>
      <trkpt lat="47.8467" lon="6.95538">
        <ele>1068.3</ele>
        <time>2026-08-27T08:45:11.221Z</time>
      </trkpt>
      <trkpt lat="47.8467" lon="6.95538">
        <ele>1068.6</ele>
        <time>2026-08-27T08:45:12.229Z</time>
      </trkpt>
      <trkpt lat="47.8467" lon="6.95538">
        <ele>1068.5</ele>
        <time>2026-08-27T08:45:13.238Z</time>
      </trkpt>
      <trkpt lat="47.8467" lon="6.95538">
        <ele>1068.6</ele>
        <time>2026-08-27T08:45:15.154Z</time>
      </trkpt>
      <trkpt lat="47.8467" lon="6.95538">
        <ele>1068.9</ele>
        <time>2026-08-27T08:45:16.161Z</time>
      </trkpt>
      <trkpt lat="47.8467" lon="6.95538">
        <ele>1069</ele>
        <time>2026-08-27T08:45:17.169Z</time>
      </trkpt>
      <trkpt lat="47.8467" lon="6.95538">
        <ele>1069</ele>
        <time>2026-08-27T08:45:18.177Z</time>
      </trkpt>
      <trkpt lat="47.8467" lon="6.95538">
        <ele>1068.8</ele>
        <time>2026-08-27T08:45:19.185Z</time>
      </trkpt>
      <trkpt lat="47.8467" lon="6.95538">
        <ele>1068.7</ele>
        <time>2026-08-27T08:45:20.194Z</time>
      </trkpt>
      <trkpt lat="47.8467" lon="6.95538">
        <ele>1068.6</ele>
        <time>2026-08-27T08:45:21.202Z</time>
      </trkpt>
      <trkpt lat="47.8467" lon="6.95538">
        <ele>1068.8</ele>
        <time>2026-08-27T08:45:22.209Z</time>
      </trkpt>
      <trkpt lat="47.8467" lon="6.95538">
        <ele>1069</ele>
        <time>2026-08-27T08:45:23.218Z</time>
      </trkpt>
      <trkpt lat="47.8467" lon="6.95538">
        <ele>1069.1</ele>
        <time>2026-08-27T08:45:24.226Z</time>
      </trkpt>
      <trkpt lat="47.8467" lon="6.95538">
        <ele>1068.9</ele>
        <time>2026-08-27T08:45:25.233Z</time>
      </trkpt>
      <trkpt lat="47.8467" lon="6.95538">
        <ele>1068.9</ele>
        <time>2026-08-27T08:45:27.149Z</time>
      </trkpt>
      <trkpt lat="47.8467" lon="6.95538">
        <ele>1068.9</ele>
        <time>2026-08-27T08:45:29.266Z</time>
      </trkpt>
      <trkpt lat="47.8467" lon="6.95538">
        <ele>1068.7</ele>
        <time>2026-08-27T08:45:31.273Z</time>
      </trkpt>
      <trkpt lat="47.8467" lon="6.95538">
        <ele>1068.2</ele>
        <time>2026-08-27T08:45:33.198Z</time>
      </trkpt>
      <trkpt lat="47.8467" lon="6.95538">
        <ele>1068</ele>
        <time>2026-08-27T08:45:34.205Z</time>
      </trkpt>
      <trkpt lat="47.8467" lon="6.95538">
        <ele>1068</ele>
        <time>2026-08-27T08:45:35.213Z</time>
      </trkpt>
      <trkpt lat="47.8467" lon="6.95537">
        <ele>1067.9</ele>
        <time>2026-08-27T08:45:36.221Z</time>
      </trkpt>
      <trkpt lat="47.8467" lon="6.95537">
        <ele>1068.2</ele>
        <time>2026-08-27T08:45:37.229Z</time>
      </trkpt>
      <trkpt lat="47.8467" lon="6.95536">
        <ele>1067.8</ele>
        <time>2026-08-27T08:45:39.279Z</time>
      </trkpt>
      <trkpt lat="47.8467" lon="6.95536">
        <ele>1068</ele>
        <time>2026-08-27T08:45:41.262Z</time>
      </trkpt>
      <trkpt lat="47.84669" lon="6.95538">
        <ele>1068.3</ele>
        <time>2026-08-27T08:45:43.178Z</time>
      </trkpt>
      <trkpt lat="47.84669" lon="6.95539">
        <ele>1068.3</ele>
        <time>2026-08-27T08:45:44.294Z</time>
      </trkpt>
      <trkpt lat="47.84668" lon="6.95541">
        <ele>1068.9</ele>
        <time>2026-08-27T08:45:45.714Z</time>
      </trkpt>
      <trkpt lat="47.84668" lon="6.95543">
        <ele>1069.3</ele>
        <time>2026-08-27T08:45:47.293Z</time>
      </trkpt>
      <trkpt lat="47.84667" lon="6.95545">
        <ele>1069.4</ele>
        <time>2026-08-27T08:45:49.226Z</time>
      </trkpt>
      <trkpt lat="47.84667" lon="6.95546">
        <ele>1069.7</ele>
        <time>2026-08-27T08:45:50.234Z</time>
      </trkpt>
      <trkpt lat="47.84668" lon="6.95546">
        <ele>1069.9</ele>
        <time>2026-08-27T08:45:51.243Z</time>
      </trkpt>
      <trkpt lat="47.84668" lon="6.95545">
        <ele>1070.2</ele>
        <time>2026-08-27T08:45:52.251Z</time>
      </trkpt>
      <trkpt lat="47.84668" lon="6.95545">
        <ele>1070.2</ele>
        <time>2026-08-27T08:45:53.258Z</time>
      </trkpt>
      <trkpt lat="47.84668" lon="6.95545">
        <ele>1070</ele>
        <time>2026-08-27T08:45:54.266Z</time>
      </trkpt>
      <trkpt lat="47.84668" lon="6.95545">
        <ele>1070.1</ele>
        <time>2026-08-27T08:45:55.274Z</time>
      </trkpt>
      <trkpt lat="47.84669" lon="6.95545">
        <ele>1070.2</ele>
        <time>2026-08-27T08:45:57.190Z</time>
      </trkpt>
      <trkpt lat="47.84669" lon="6.95545">
        <ele>1070.2</ele>
        <time>2026-08-27T08:45:58.198Z</time>
      </trkpt>
      <trkpt lat="47.84668" lon="6.95546">
        <ele>1070</ele>
        <time>2026-08-27T08:46:00.037Z</time>
      </trkpt>
      <trkpt lat="47.84668" lon="6.95547">
        <ele>1070</ele>
        <time>2026-08-27T08:46:01.239Z</time>
      </trkpt>
      <trkpt lat="47.84668" lon="6.95548">
        <ele>1069.9</ele>
        <time>2026-08-27T08:46:03.239Z</time>
      </trkpt>
      <trkpt lat="47.84668" lon="6.95549">
        <ele>1069.9</ele>
        <time>2026-08-27T08:46:04.296Z</time>
      </trkpt>
      <trkpt lat="47.84668" lon="6.9555">
        <ele>1069.9</ele>
        <time>2026-08-27T08:46:06.221Z</time>
      </trkpt>
      <trkpt lat="47.84667" lon="6.9555">
        <ele>1070.1</ele>
        <time>2026-08-27T08:46:07.270Z</time>
      </trkpt>
      <trkpt lat="47.84666" lon="6.95552">
        <ele>1070.2</ele>
        <time>2026-08-27T08:46:09.186Z</time>
      </trkpt>
      <trkpt lat="47.84666" lon="6.95554">
        <ele>1070.4</ele>
        <time>2026-08-27T08:46:10.193Z</time>
      </trkpt>
      <trkpt lat="47.84666" lon="6.95555">
        <ele>1070.7</ele>
        <time>2026-08-27T08:46:11.202Z</time>
      </trkpt>
      <trkpt lat="47.84665" lon="6.95557">
        <ele>1071</ele>
        <time>2026-08-27T08:46:12.209Z</time>
      </trkpt>
      <trkpt lat="47.84665" lon="6.95558">
        <ele>1071.5</ele>
        <time>2026-08-27T08:46:13.218Z</time>
      </trkpt>
      <trkpt lat="47.84664" lon="6.95559">
        <ele>1071.6</ele>
        <time>2026-08-27T08:46:14.225Z</time>
      </trkpt>
      <trkpt lat="47.84664" lon="6.95561">
        <ele>1071.6</ele>
        <time>2026-08-27T08:46:15.233Z</time>
      </trkpt>
      <trkpt lat="47.84664" lon="6.95562">
        <ele>1071.6</ele>
        <time>2026-08-27T08:46:16.242Z</time>
      </trkpt>
      <trkpt lat="47.84664" lon="6.95563">
        <ele>1071.6</ele>
        <time>2026-08-27T08:46:17.275Z</time>
      </trkpt>
      <trkpt lat="47.84663" lon="6.95565">
        <ele>1071.8</ele>
        <time>2026-08-27T08:46:18.719Z</time>
      </trkpt>
      <trkpt lat="47.84663" lon="6.95566">
        <ele>1072.1</ele>
        <time>2026-08-27T08:46:20.173Z</time>
      </trkpt>
      <trkpt lat="47.84663" lon="6.95567">
        <ele>1072.4</ele>
        <time>2026-08-27T08:46:21.181Z</time>
      </trkpt>
      <trkpt lat="47.84662" lon="6.95568">
        <ele>1072.5</ele>
        <time>2026-08-27T08:46:22.190Z</time>
      </trkpt>
      <trkpt lat="47.84662" lon="6.95569">
        <ele>1072.6</ele>
        <time>2026-08-27T08:46:23.197Z</time>
      </trkpt>
      <trkpt lat="47.84662" lon="6.95569">
        <ele>1072.7</ele>
        <time>2026-08-27T08:46:24.206Z</time>
      </trkpt>
      <trkpt lat="47.84661" lon="6.9557">
        <ele>1072.3</ele>
        <time>2026-08-27T08:46:25.213Z</time>
      </trkpt>
      <trkpt lat="47.84661" lon="6.95571">
        <ele>1072.5</ele>
        <time>2026-08-27T08:46:26.222Z</time>
      </trkpt>
      <trkpt lat="47.84661" lon="6.95572">
        <ele>1072.8</ele>
        <time>2026-08-27T08:46:27.229Z</time>
      </trkpt>
      <trkpt lat="47.8466" lon="6.95573">
        <ele>1073</ele>
        <time>2026-08-27T08:46:29.246Z</time>
      </trkpt>
      <trkpt lat="47.8466" lon="6.95574">
        <ele>1072.8</ele>
        <time>2026-08-27T08:46:30.254Z</time>
      </trkpt>
      <trkpt lat="47.84659" lon="6.95576">
        <ele>1073.1</ele>
        <time>2026-08-27T08:46:32.270Z</time>
      </trkpt>
      <trkpt lat="47.84658" lon="6.95578">
        <ele>1073.1</ele>
        <time>2026-08-27T08:46:34.135Z</time>
      </trkpt>
      <trkpt lat="47.84658" lon="6.95579">
        <ele>1073.4</ele>
        <time>2026-08-27T08:46:35.192Z</time>
      </trkpt>
      <trkpt lat="47.84658" lon="6.9558">
        <ele>1073.3</ele>
        <time>2026-08-27T08:46:36.202Z</time>
      </trkpt>
      <trkpt lat="47.84657" lon="6.95581">
        <ele>1073.3</ele>
        <time>2026-08-27T08:46:37.217Z</time>
      </trkpt>
      <trkpt lat="47.84657" lon="6.95582">
        <ele>1073.5</ele>
        <time>2026-08-27T08:46:38.217Z</time>
      </trkpt>
      <trkpt lat="47.84657" lon="6.95583">
        <ele>1073.7</ele>
        <time>2026-08-27T08:46:39.225Z</time>
      </trkpt>
      <trkpt lat="47.84657" lon="6.95584">
        <ele>1073.9</ele>
        <time>2026-08-27T08:46:40.234Z</time>
      </trkpt>
      <trkpt lat="47.84657" lon="6.95585">
        <ele>1074.1</ele>
        <time>2026-08-27T08:46:41.242Z</time>
      </trkpt>
      <trkpt lat="47.84656" lon="6.95586">
        <ele>1074.3</ele>
        <time>2026-08-27T08:46:42.250Z</time>
      </trkpt>
      <trkpt lat="47.84656" lon="6.95587">
        <ele>1074.4</ele>
        <time>2026-08-27T08:46:44.274Z</time>
      </trkpt>
      <trkpt lat="47.84655" lon="6.95586">
        <ele>1074.7</ele>
        <time>2026-08-27T08:46:45.575Z</time>
      </trkpt>
      <trkpt lat="47.84654" lon="6.95585">
        <ele>1075.1</ele>
        <time>2026-08-27T08:46:47.155Z</time>
      </trkpt>
      <trkpt lat="47.84654" lon="6.95585">
        <ele>1075.2</ele>
        <time>2026-08-27T08:46:48.197Z</time>
      </trkpt>
      <trkpt lat="47.84653" lon="6.95584">
        <ele>1075.5</ele>
        <time>2026-08-27T08:46:49.204Z</time>
      </trkpt>
      <trkpt lat="47.84653" lon="6.95584">
        <ele>1075.5</ele>
        <time>2026-08-27T08:46:50.212Z</time>
      </trkpt>
      <trkpt lat="47.84653" lon="6.95583">
        <ele>1076.3</ele>
        <time>2026-08-27T08:46:51.220Z</time>
      </trkpt>
      <trkpt lat="47.84652" lon="6.95582">
        <ele>1076</ele>
        <time>2026-08-27T08:46:53.236Z</time>
      </trkpt>
      <trkpt lat="47.84652" lon="6.95581">
        <ele>1075.8</ele>
        <time>2026-08-27T08:46:54.244Z</time>
      </trkpt>
      <trkpt lat="47.84651" lon="6.9558">
        <ele>1075.8</ele>
        <time>2026-08-27T08:46:55.279Z</time>
      </trkpt>
      <trkpt lat="47.84651" lon="6.9558">
        <ele>1076.8</ele>
        <time>2026-08-27T08:46:57.268Z</time>
      </trkpt>
      <trkpt lat="47.8465" lon="6.9558">
        <ele>1076.8</ele>
        <time>2026-08-27T08:46:58.276Z</time>
      </trkpt>
      <trkpt lat="47.8465" lon="6.9558">
        <ele>1077</ele>
        <time>2026-08-27T08:47:00.192Z</time>
      </trkpt>
      <trkpt lat="47.84649" lon="6.9558">
        <ele>1077.4</ele>
        <time>2026-08-27T08:47:01.200Z</time>
      </trkpt>
      <trkpt lat="47.84649" lon="6.9558">
        <ele>1077.4</ele>
        <time>2026-08-27T08:47:02.208Z</time>
      </trkpt>
      <trkpt lat="47.84649" lon="6.95579">
        <ele>1077.7</ele>
        <time>2026-08-27T08:47:03.216Z</time>
      </trkpt>
      <trkpt lat="47.84649" lon="6.95579">
        <ele>1077.7</ele>
        <time>2026-08-27T08:47:04.225Z</time>
      </trkpt>
      <trkpt lat="47.84649" lon="6.95579">
        <ele>1077.7</ele>
        <time>2026-08-27T08:47:05.233Z</time>
      </trkpt>
      <trkpt lat="47.84649" lon="6.95579">
        <ele>1077.9</ele>
        <time>2026-08-27T08:47:06.241Z</time>
      </trkpt>
      <trkpt lat="47.84649" lon="6.95579">
        <ele>1077.9</ele>
        <time>2026-08-27T08:47:07.248Z</time>
      </trkpt>
      <trkpt lat="47.84649" lon="6.95579">
        <ele>1077.9</ele>
        <time>2026-08-27T08:47:08.256Z</time>
      </trkpt>
      <trkpt lat="47.84649" lon="6.9558">
        <ele>1077.9</ele>
        <time>2026-08-27T08:47:09.264Z</time>
      </trkpt>
      <trkpt lat="47.84649" lon="6.9558">
        <ele>1078</ele>
        <time>2026-08-27T08:47:10.272Z</time>
      </trkpt>
      <trkpt lat="47.84649" lon="6.9558">
        <ele>1077.8</ele>
        <time>2026-08-27T08:47:11.281Z</time>
      </trkpt>
      <trkpt lat="47.84649" lon="6.9558">
        <ele>1077.9</ele>
        <time>2026-08-27T08:47:13.196Z</time>
      </trkpt>
      <trkpt lat="47.84648" lon="6.95581">
        <ele>1077.9</ele>
        <time>2026-08-27T08:47:14.213Z</time>
      </trkpt>
      <trkpt lat="47.84648" lon="6.95582">
        <ele>1078</ele>
        <time>2026-08-27T08:47:16.219Z</time>
      </trkpt>
      <trkpt lat="47.84647" lon="6.95583">
        <ele>1078.1</ele>
        <time>2026-08-27T08:47:17.228Z</time>
      </trkpt>
      <trkpt lat="47.84647" lon="6.95584">
        <ele>1078.3</ele>
        <time>2026-08-27T08:47:18.237Z</time>
      </trkpt>
      <trkpt lat="47.84647" lon="6.95584">
        <ele>1078.2</ele>
        <time>2026-08-27T08:47:19.244Z</time>
      </trkpt>
      <trkpt lat="47.84647" lon="6.95584">
        <ele>1078.2</ele>
        <time>2026-08-27T08:47:20.253Z</time>
      </trkpt>
      <trkpt lat="47.84647" lon="6.95584">
        <ele>1078.3</ele>
        <time>2026-08-27T08:47:21.260Z</time>
      </trkpt>
      <trkpt lat="47.84647" lon="6.95584">
        <ele>1078.3</ele>
        <time>2026-08-27T08:47:22.268Z</time>
      </trkpt>
      <trkpt lat="47.84647" lon="6.95584">
        <ele>1078.1</ele>
        <time>2026-08-27T08:47:23.276Z</time>
      </trkpt>
      <trkpt lat="47.84647" lon="6.95584">
        <ele>1078.2</ele>
        <time>2026-08-27T08:47:24.285Z</time>
      </trkpt>
      <trkpt lat="47.84647" lon="6.95584">
        <ele>1077.9</ele>
        <time>2026-08-27T08:47:26.199Z</time>
      </trkpt>
      <trkpt lat="47.84647" lon="6.95584">
        <ele>1077.9</ele>
        <time>2026-08-27T08:47:27.207Z</time>
      </trkpt>
      <trkpt lat="47.84647" lon="6.95585">
        <ele>1078.1</ele>
        <time>2026-08-27T08:47:28.216Z</time>
      </trkpt>
      <trkpt lat="47.84647" lon="6.95585">
        <ele>1078.2</ele>
        <time>2026-08-27T08:47:29.223Z</time>
      </trkpt>
      <trkpt lat="47.84647" lon="6.95585">
        <ele>1078.3</ele>
        <time>2026-08-27T08:47:30.231Z</time>
      </trkpt>
      <trkpt lat="47.84647" lon="6.95585">
        <ele>1078.2</ele>
        <time>2026-08-27T08:47:31.240Z</time>
      </trkpt>
      <trkpt lat="47.84647" lon="6.95585">
        <ele>1078.1</ele>
        <time>2026-08-27T08:47:32.247Z</time>
      </trkpt>
      <trkpt lat="47.84647" lon="6.95585">
        <ele>1078.1</ele>
        <time>2026-08-27T08:47:33.255Z</time>
      </trkpt>
      <trkpt lat="47.84647" lon="6.95585">
        <ele>1077.9</ele>
        <time>2026-08-27T08:47:34.263Z</time>
      </trkpt>
      <trkpt lat="47.84647" lon="6.95585">
        <ele>1078</ele>
        <time>2026-08-27T08:47:35.271Z</time>
      </trkpt>
      <trkpt lat="47.84647" lon="6.95585">
        <ele>1078.2</ele>
        <time>2026-08-27T08:47:36.279Z</time>
      </trkpt>
      <trkpt lat="47.84647" lon="6.95585">
        <ele>1078.3</ele>
        <time>2026-08-27T08:47:38.195Z</time>
      </trkpt>
      <trkpt lat="47.84647" lon="6.95585">
        <ele>1078.2</ele>
        <time>2026-08-27T08:47:39.203Z</time>
      </trkpt>
      <trkpt lat="47.84647" lon="6.95585">
        <ele>1078.3</ele>
        <time>2026-08-27T08:47:40.211Z</time>
      </trkpt>
      <trkpt lat="47.84646" lon="6.95585">
        <ele>1078.3</ele>
        <time>2026-08-27T08:47:41.219Z</time>
      </trkpt>
      <trkpt lat="47.84646" lon="6.95585">
        <ele>1078.3</ele>
        <time>2026-08-27T08:47:42.227Z</time>
      </trkpt>
      <trkpt lat="47.84646" lon="6.95585">
        <ele>1078.2</ele>
        <time>2026-08-27T08:47:43.236Z</time>
      </trkpt>
      <trkpt lat="47.84647" lon="6.95585">
        <ele>1078.1</ele>
        <time>2026-08-27T08:47:44.244Z</time>
      </trkpt>
      <trkpt lat="47.84647" lon="6.95585">
        <ele>1078.2</ele>
        <time>2026-08-27T08:47:45.252Z</time>
      </trkpt>
      <trkpt lat="47.84647" lon="6.95585">
        <ele>1078.2</ele>
        <time>2026-08-27T08:47:46.259Z</time>
      </trkpt>
      <trkpt lat="47.84647" lon="6.95585">
        <ele>1078.4</ele>
        <time>2026-08-27T08:47:47.267Z</time>
      </trkpt>
      <trkpt lat="47.84647" lon="6.95585">
        <ele>1078.5</ele>
        <time>2026-08-27T08:47:48.276Z</time>
      </trkpt>
      <trkpt lat="47.84647" lon="6.95585">
        <ele>1078.4</ele>
        <time>2026-08-27T08:47:50.292Z</time>
      </trkpt>
      <trkpt lat="47.84647" lon="6.95585">
        <ele>1078.3</ele>
        <time>2026-08-27T08:47:52.207Z</time>
      </trkpt>
      <trkpt lat="47.84647" lon="6.95585">
        <ele>1078.5</ele>
        <time>2026-08-27T08:47:53.214Z</time>
      </trkpt>
      <trkpt lat="47.84647" lon="6.95585">
        <ele>1078.6</ele>
        <time>2026-08-27T08:47:54.222Z</time>
      </trkpt>
      <trkpt lat="47.84647" lon="6.95585">
        <ele>1078.2</ele>
        <time>2026-08-27T08:47:55.231Z</time>
      </trkpt>
      <trkpt lat="47.84647" lon="6.95585">
        <ele>1078.3</ele>
        <time>2026-08-27T08:47:56.238Z</time>
      </trkpt>
      <trkpt lat="47.84647" lon="6.95585">
        <ele>1078.5</ele>
        <time>2026-08-27T08:47:58.154Z</time>
      </trkpt>
      <trkpt lat="47.84647" lon="6.95585">
        <ele>1078.4</ele>
        <time>2026-08-27T08:47:59.162Z</time>
      </trkpt>
      <trkpt lat="47.84647" lon="6.95585">
        <ele>1078.5</ele>
        <time>2026-08-27T08:48:00.170Z</time>
      </trkpt>
      <trkpt lat="47.84647" lon="6.95585">
        <ele>1078.5</ele>
        <time>2026-08-27T08:48:01.178Z</time>
      </trkpt>
      <trkpt lat="47.84647" lon="6.95585">
        <ele>1078.5</ele>
        <time>2026-08-27T08:48:02.186Z</time>
      </trkpt>
      <trkpt lat="47.84647" lon="6.95585">
        <ele>1078.4</ele>
        <time>2026-08-27T08:48:03.194Z</time>
      </trkpt>
      <trkpt lat="47.84647" lon="6.95585">
        <ele>1078.6</ele>
        <time>2026-08-27T08:48:04.203Z</time>
      </trkpt>
      <trkpt lat="47.84647" lon="6.95585">
        <ele>1078.7</ele>
        <time>2026-08-27T08:48:05.210Z</time>
      </trkpt>
      <trkpt lat="47.84647" lon="6.95585">
        <ele>1078.7</ele>
        <time>2026-08-27T08:48:06.219Z</time>
      </trkpt>
      <trkpt lat="47.84647" lon="6.95585">
        <ele>1078.7</ele>
        <time>2026-08-27T08:48:07.226Z</time>
      </trkpt>
      <trkpt lat="47.84647" lon="6.95585">
        <ele>1077.8</ele>
        <time>2026-08-27T08:48:08.235Z</time>
      </trkpt>
      <trkpt lat="47.84647" lon="6.95585">
        <ele>1078.7</ele>
        <time>2026-08-27T08:48:09.243Z</time>
      </trkpt>
      <trkpt lat="47.84647" lon="6.95585">
        <ele>1078.6</ele>
        <time>2026-08-27T08:48:11.258Z</time>
      </trkpt>
      <trkpt lat="47.84647" lon="6.95585">
        <ele>1078.4</ele>
        <time>2026-08-27T08:48:13.174Z</time>
      </trkpt>
      <trkpt lat="47.84647" lon="6.95585">
        <ele>1078.4</ele>
        <time>2026-08-27T08:48:14.183Z</time>
      </trkpt>
      <trkpt lat="47.84647" lon="6.95585">
        <ele>1078.5</ele>
        <time>2026-08-27T08:48:15.191Z</time>
      </trkpt>
      <trkpt lat="47.84647" lon="6.95585">
        <ele>1078.7</ele>
        <time>2026-08-27T08:48:16.198Z</time>
      </trkpt>
      <trkpt lat="47.84647" lon="6.95585">
        <ele>1078.7</ele>
        <time>2026-08-27T08:48:17.207Z</time>
      </trkpt>
      <trkpt lat="47.84647" lon="6.95585">
        <ele>1078.7</ele>
        <time>2026-08-27T08:48:18.214Z</time>
      </trkpt>
      <trkpt lat="47.84647" lon="6.95585">
        <ele>1078.6</ele>
        <time>2026-08-27T08:48:19.222Z</time>
      </trkpt>
      <trkpt lat="47.84647" lon="6.95585">
        <ele>1078.7</ele>
        <time>2026-08-27T08:48:20.230Z</time>
      </trkpt>
      <trkpt lat="47.84647" lon="6.95585">
        <ele>1078.5</ele>
        <time>2026-08-27T08:48:21.238Z</time>
      </trkpt>
      <trkpt lat="47.84647" lon="6.95585">
        <ele>1078.6</ele>
        <time>2026-08-27T08:48:22.247Z</time>
      </trkpt>
      <trkpt lat="47.84647" lon="6.95585">
        <ele>1078.7</ele>
        <time>2026-08-27T08:48:23.255Z</time>
      </trkpt>
      <trkpt lat="47.84647" lon="6.95585">
        <ele>1078.1</ele>
        <time>2026-08-27T08:48:25.271Z</time>
      </trkpt>
      <trkpt lat="47.84647" lon="6.95585">
        <ele>1077.9</ele>
        <time>2026-08-27T08:48:27.186Z</time>
      </trkpt>
      <trkpt lat="47.84647" lon="6.95585">
        <ele>1077.8</ele>
        <time>2026-08-27T08:48:28.195Z</time>
      </trkpt>
      <trkpt lat="47.84647" lon="6.95585">
        <ele>1077.8</ele>
        <time>2026-08-27T08:48:29.202Z</time>
      </trkpt>
      <trkpt lat="47.84647" lon="6.95585">
        <ele>1077.7</ele>
        <time>2026-08-27T08:48:30.212Z</time>
      </trkpt>
      <trkpt lat="47.84647" lon="6.95585">
        <ele>1077.9</ele>
        <time>2026-08-27T08:48:31.219Z</time>
      </trkpt>
      <trkpt lat="47.84647" lon="6.95585">
        <ele>1077.9</ele>
        <time>2026-08-27T08:48:32.227Z</time>
      </trkpt>
      <trkpt lat="47.84647" lon="6.95585">
        <ele>1077.8</ele>
        <time>2026-08-27T08:48:33.236Z</time>
      </trkpt>
      <trkpt lat="47.84647" lon="6.95585">
        <ele>1077.4</ele>
        <time>2026-08-27T08:48:34.243Z</time>
      </trkpt>
      <trkpt lat="47.84647" lon="6.95585">
        <ele>1077.2</ele>
        <time>2026-08-27T08:48:36.158Z</time>
      </trkpt>
      <trkpt lat="47.84647" lon="6.95585">
        <ele>1078</ele>
        <time>2026-08-27T08:48:37.168Z</time>
      </trkpt>
      <trkpt lat="47.84647" lon="6.95585">
        <ele>1077.6</ele>
        <time>2026-08-27T08:48:38.176Z</time>
      </trkpt>
      <trkpt lat="47.84647" lon="6.95585">
        <ele>1077.1</ele>
        <time>2026-08-27T08:48:39.184Z</time>
      </trkpt>
      <trkpt lat="47.84647" lon="6.95585">
        <ele>1077</ele>
        <time>2026-08-27T08:48:40.191Z</time>
      </trkpt>
      <trkpt lat="47.84647" lon="6.95585">
        <ele>1077</ele>
        <time>2026-08-27T08:48:41.199Z</time>
      </trkpt>
      <trkpt lat="47.84647" lon="6.95585">
        <ele>1076.7</ele>
        <time>2026-08-27T08:48:42.207Z</time>
      </trkpt>
      <trkpt lat="47.84647" lon="6.95585">
        <ele>1076.6</ele>
        <time>2026-08-27T08:48:43.216Z</time>
      </trkpt>
      <trkpt lat="47.84647" lon="6.95585">
        <ele>1076.6</ele>
        <time>2026-08-27T08:48:44.224Z</time>
      </trkpt>
      <trkpt lat="47.84647" lon="6.95585">
        <ele>1076.5</ele>
        <time>2026-08-27T08:48:45.231Z</time>
      </trkpt>
      <trkpt lat="47.84647" lon="6.95585">
        <ele>1076.7</ele>
        <time>2026-08-27T08:48:46.240Z</time>
      </trkpt>
      <trkpt lat="47.84647" lon="6.95585">
        <ele>1076.6</ele>
        <time>2026-08-27T08:48:47.248Z</time>
      </trkpt>
      <trkpt lat="47.84647" lon="6.95585">
        <ele>1076.6</ele>
        <time>2026-08-27T08:48:48.257Z</time>
      </trkpt>
      <trkpt lat="47.84647" lon="6.95585">
        <ele>1078.5</ele>
        <time>2026-08-27T08:48:50.171Z</time>
      </trkpt>
      <trkpt lat="47.84647" lon="6.95585">
        <ele>1078.4</ele>
        <time>2026-08-27T08:48:51.179Z</time>
      </trkpt>
      <trkpt lat="47.84647" lon="6.95585">
        <ele>1078.1</ele>
        <time>2026-08-27T08:48:52.188Z</time>
      </trkpt>
      <trkpt lat="47.84647" lon="6.95585">
        <ele>1078</ele>
        <time>2026-08-27T08:48:53.196Z</time>
      </trkpt>
      <trkpt lat="47.84647" lon="6.95585">
        <ele>1078</ele>
        <time>2026-08-27T08:48:54.204Z</time>
      </trkpt>
      <trkpt lat="47.84647" lon="6.95585">
        <ele>1077.6</ele>
        <time>2026-08-27T08:48:55.212Z</time>
      </trkpt>
      <trkpt lat="47.84647" lon="6.95585">
        <ele>1077.8</ele>
        <time>2026-08-27T08:48:56.221Z</time>
      </trkpt>
      <trkpt lat="47.84647" lon="6.95585">
        <ele>1077.7</ele>
        <time>2026-08-27T08:48:57.229Z</time>
      </trkpt>
      <trkpt lat="47.84647" lon="6.95585">
        <ele>1077.5</ele>
        <time>2026-08-27T08:48:58.237Z</time>
      </trkpt>
      <trkpt lat="47.84647" lon="6.95585">
        <ele>1077.5</ele>
        <time>2026-08-27T08:48:59.244Z</time>
      </trkpt>
      <trkpt lat="47.84647" lon="6.95585">
        <ele>1077.4</ele>
        <time>2026-08-27T08:49:01.160Z</time>
      </trkpt>
      <trkpt lat="47.84647" lon="6.95585">
        <ele>1077.2</ele>
        <time>2026-08-27T08:49:02.168Z</time>
      </trkpt>
      <trkpt lat="47.84647" lon="6.95585">
        <ele>1077.1</ele>
        <time>2026-08-27T08:49:03.176Z</time>
      </trkpt>
      <trkpt lat="47.84647" lon="6.95585">
        <ele>1076.7</ele>
        <time>2026-08-27T08:49:04.184Z</time>
      </trkpt>
      <trkpt lat="47.84647" lon="6.95585">
        <ele>1076.7</ele>
        <time>2026-08-27T08:49:05.192Z</time>
      </trkpt>
      <trkpt lat="47.84647" lon="6.95585">
        <ele>1076.6</ele>
        <time>2026-08-27T08:49:06.201Z</time>
      </trkpt>
      <trkpt lat="47.84647" lon="6.95585">
        <ele>1076.5</ele>
        <time>2026-08-27T08:49:07.209Z</time>
      </trkpt>
      <trkpt lat="47.84647" lon="6.95585">
        <ele>1076.6</ele>
        <time>2026-08-27T08:49:08.217Z</time>
      </trkpt>
      <trkpt lat="47.84647" lon="6.95585">
        <ele>1076.5</ele>
        <time>2026-08-27T08:49:09.225Z</time>
      </trkpt>
      <trkpt lat="47.84647" lon="6.95585">
        <ele>1076.2</ele>
        <time>2026-08-27T08:49:10.234Z</time>
      </trkpt>
      <trkpt lat="47.84647" lon="6.95585">
        <ele>1076.2</ele>
        <time>2026-08-27T08:49:11.241Z</time>
      </trkpt>
      <trkpt lat="47.84647" lon="6.95585">
        <ele>1075.9</ele>
        <time>2026-08-27T08:49:13.157Z</time>
      </trkpt>
      <trkpt lat="47.84647" lon="6.95585">
        <ele>1075.8</ele>
        <time>2026-08-27T08:49:14.165Z</time>
      </trkpt>
      <trkpt lat="47.84647" lon="6.95585">
        <ele>1075.9</ele>
        <time>2026-08-27T08:49:15.174Z</time>
      </trkpt>
      <trkpt lat="47.84647" lon="6.95585">
        <ele>1076.2</ele>
        <time>2026-08-27T08:49:16.182Z</time>
      </trkpt>
      <trkpt lat="47.84647" lon="6.95585">
        <ele>1076.2</ele>
        <time>2026-08-27T08:49:17.189Z</time>
      </trkpt>
      <trkpt lat="47.84647" lon="6.95585">
        <ele>1076.5</ele>
        <time>2026-08-27T08:49:18.197Z</time>
      </trkpt>
      <trkpt lat="47.84647" lon="6.95585">
        <ele>1076.6</ele>
        <time>2026-08-27T08:49:19.206Z</time>
      </trkpt>
      <trkpt lat="47.84647" lon="6.95585">
        <ele>1076.6</ele>
        <time>2026-08-27T08:49:20.214Z</time>
      </trkpt>
      <trkpt lat="47.84647" lon="6.95585">
        <ele>1076.6</ele>
        <time>2026-08-27T08:49:21.223Z</time>
      </trkpt>
      <trkpt lat="47.84647" lon="6.95585">
        <ele>1076.6</ele>
        <time>2026-08-27T08:49:22.230Z</time>
      </trkpt>
      <trkpt lat="47.84647" lon="6.95585">
        <ele>1076.6</ele>
        <time>2026-08-27T08:49:23.239Z</time>
      </trkpt>
      <trkpt lat="47.84647" lon="6.95585">
        <ele>1076.6</ele>
        <time>2026-08-27T08:49:24.247Z</time>
      </trkpt>
      <trkpt lat="47.84647" lon="6.95585">
        <ele>1076.4</ele>
        <time>2026-08-27T08:49:25.255Z</time>
      </trkpt>
      <trkpt lat="47.84647" lon="6.95584">
        <ele>1076.5</ele>
        <time>2026-08-27T08:49:27.171Z</time>
      </trkpt>
      <trkpt lat="47.84647" lon="6.95584">
        <ele>1076.5</ele>
        <time>2026-08-27T08:49:28.179Z</time>
      </trkpt>
      <trkpt lat="47.84647" lon="6.95584">
        <ele>1076.6</ele>
        <time>2026-08-27T08:49:29.186Z</time>
      </trkpt>
      <trkpt lat="47.84647" lon="6.95584">
        <ele>1076.6</ele>
        <time>2026-08-27T08:49:30.195Z</time>
      </trkpt>
      <trkpt lat="47.84647" lon="6.95584">
        <ele>1076.6</ele>
        <time>2026-08-27T08:49:31.203Z</time>
      </trkpt>
      <trkpt lat="47.84647" lon="6.95584">
        <ele>1076.7</ele>
        <time>2026-08-27T08:49:32.211Z</time>
      </trkpt>
      <trkpt lat="47.84647" lon="6.95584">
        <ele>1076.7</ele>
        <time>2026-08-27T08:49:33.219Z</time>
      </trkpt>
      <trkpt lat="47.84647" lon="6.95584">
        <ele>1076.7</ele>
        <time>2026-08-27T08:49:34.228Z</time>
      </trkpt>
      <trkpt lat="47.84647" lon="6.95584">
        <ele>1076.5</ele>
        <time>2026-08-27T08:49:35.236Z</time>
      </trkpt>
      <trkpt lat="47.84647" lon="6.95584">
        <ele>1076.5</ele>
        <time>2026-08-27T08:49:36.243Z</time>
      </trkpt>
      <trkpt lat="47.84647" lon="6.95584">
        <ele>1076.5</ele>
        <time>2026-08-27T08:49:37.251Z</time>
      </trkpt>
      <trkpt lat="47.84647" lon="6.95584">
        <ele>1076.2</ele>
        <time>2026-08-27T08:49:39.167Z</time>
      </trkpt>
      <trkpt lat="47.84647" lon="6.95584">
        <ele>1076.3</ele>
        <time>2026-08-27T08:49:40.175Z</time>
      </trkpt>
      <trkpt lat="47.84647" lon="6.95585">
        <ele>1076</ele>
        <time>2026-08-27T08:49:41.184Z</time>
      </trkpt>
      <trkpt lat="47.84647" lon="6.95585">
        <ele>1075.6</ele>
        <time>2026-08-27T08:49:42.191Z</time>
      </trkpt>
      <trkpt lat="47.84647" lon="6.95585">
        <ele>1075.8</ele>
        <time>2026-08-27T08:49:43.199Z</time>
      </trkpt>
      <trkpt lat="47.84647" lon="6.95585">
        <ele>1075.9</ele>
        <time>2026-08-27T08:49:44.209Z</time>
      </trkpt>
      <trkpt lat="47.84647" lon="6.95585">
        <ele>1076.3</ele>
        <time>2026-08-27T08:49:45.216Z</time>
      </trkpt>
      <trkpt lat="47.84647" lon="6.95585">
        <ele>1076.3</ele>
        <time>2026-08-27T08:49:46.225Z</time>
      </trkpt>
      <trkpt lat="47.84647" lon="6.95585">
        <ele>1076.3</ele>
        <time>2026-08-27T08:49:47.232Z</time>
      </trkpt>
      <trkpt lat="47.84647" lon="6.95585">
        <ele>1076.2</ele>
        <time>2026-08-27T08:49:48.240Z</time>
      </trkpt>
      <trkpt lat="47.84647" lon="6.95585">
        <ele>1076.2</ele>
        <time>2026-08-27T08:49:50.156Z</time>
      </trkpt>
      <trkpt lat="47.84647" lon="6.95585">
        <ele>1076.2</ele>
        <time>2026-08-27T08:49:51.164Z</time>
      </trkpt>
      <trkpt lat="47.84647" lon="6.95585">
        <ele>1076.1</ele>
        <time>2026-08-27T08:49:52.173Z</time>
      </trkpt>
      <trkpt lat="47.84647" lon="6.95585">
        <ele>1076.2</ele>
        <time>2026-08-27T08:49:53.181Z</time>
      </trkpt>
      <trkpt lat="47.84647" lon="6.95585">
        <ele>1075.3</ele>
        <time>2026-08-27T08:49:54.189Z</time>
      </trkpt>
      <trkpt lat="47.84647" lon="6.95585">
        <ele>1076.4</ele>
        <time>2026-08-27T08:49:55.198Z</time>
      </trkpt>
      <trkpt lat="47.84647" lon="6.95585">
        <ele>1076.4</ele>
        <time>2026-08-27T08:49:56.205Z</time>
      </trkpt>
      <trkpt lat="47.84647" lon="6.95585">
        <ele>1076.4</ele>
        <time>2026-08-27T08:49:57.213Z</time>
      </trkpt>
      <trkpt lat="47.84647" lon="6.95585">
        <ele>1076.4</ele>
        <time>2026-08-27T08:49:58.222Z</time>
      </trkpt>
      <trkpt lat="47.84647" lon="6.95585">
        <ele>1076.4</ele>
        <time>2026-08-27T08:49:59.230Z</time>
      </trkpt>
      <trkpt lat="47.84647" lon="6.95585">
        <ele>1076.4</ele>
        <time>2026-08-27T08:50:00.238Z</time>
      </trkpt>
      <trkpt lat="47.84647" lon="6.95585">
        <ele>1076.3</ele>
        <time>2026-08-27T08:50:01.246Z</time>
      </trkpt>
      <trkpt lat="47.84647" lon="6.95585">
        <ele>1076.2</ele>
        <time>2026-08-27T08:50:03.263Z</time>
      </trkpt>
      <trkpt lat="47.84647" lon="6.95585">
        <ele>1076.1</ele>
        <time>2026-08-27T08:50:04.271Z</time>
      </trkpt>
      <trkpt lat="47.84647" lon="6.95585">
        <ele>1076</ele>
        <time>2026-08-27T08:50:06.187Z</time>
      </trkpt>
      <trkpt lat="47.84647" lon="6.95585">
        <ele>1076</ele>
        <time>2026-08-27T08:50:07.195Z</time>
      </trkpt>
      <trkpt lat="47.84647" lon="6.95585">
        <ele>1076</ele>
        <time>2026-08-27T08:50:08.203Z</time>
      </trkpt>
      <trkpt lat="47.84647" lon="6.95585">
        <ele>1075.9</ele>
        <time>2026-08-27T08:50:09.212Z</time>
      </trkpt>
      <trkpt lat="47.84647" lon="6.95585">
        <ele>1075.9</ele>
        <time>2026-08-27T08:50:10.220Z</time>
      </trkpt>
      <trkpt lat="47.84647" lon="6.95585">
        <ele>1075.6</ele>
        <time>2026-08-27T08:50:11.228Z</time>
      </trkpt>
      <trkpt lat="47.84647" lon="6.95585">
        <ele>1076</ele>
        <time>2026-08-27T08:50:12.237Z</time>
      </trkpt>
      <trkpt lat="47.84647" lon="6.95585">
        <ele>1075.9</ele>
        <time>2026-08-27T08:50:13.246Z</time>
      </trkpt>
      <trkpt lat="47.84647" lon="6.95585">
        <ele>1076.4</ele>
        <time>2026-08-27T08:50:14.253Z</time>
      </trkpt>
      <trkpt lat="47.84647" lon="6.95585">
        <ele>1076.2</ele>
        <time>2026-08-27T08:50:16.269Z</time>
      </trkpt>
      <trkpt lat="47.84647" lon="6.95585">
        <ele>1076.3</ele>
        <time>2026-08-27T08:50:18.185Z</time>
      </trkpt>
      <trkpt lat="47.84647" lon="6.95585">
        <ele>1076.3</ele>
        <time>2026-08-27T08:50:19.193Z</time>
      </trkpt>
      <trkpt lat="47.84647" lon="6.95585">
        <ele>1076.3</ele>
        <time>2026-08-27T08:50:20.202Z</time>
      </trkpt>
      <trkpt lat="47.84647" lon="6.95585">
        <ele>1076.1</ele>
        <time>2026-08-27T08:50:21.210Z</time>
      </trkpt>
      <trkpt lat="47.84647" lon="6.95585">
        <ele>1075.6</ele>
        <time>2026-08-27T08:50:22.218Z</time>
      </trkpt>
      <trkpt lat="47.84647" lon="6.95585">
        <ele>1075.4</ele>
        <time>2026-08-27T08:50:23.226Z</time>
      </trkpt>
      <trkpt lat="47.84647" lon="6.95585">
        <ele>1075.7</ele>
        <time>2026-08-27T08:50:24.234Z</time>
      </trkpt>
      <trkpt lat="47.84647" lon="6.95585">
        <ele>1075.6</ele>
        <time>2026-08-27T08:50:25.244Z</time>
      </trkpt>
      <trkpt lat="47.84647" lon="6.95585">
        <ele>1075.7</ele>
        <time>2026-08-27T08:50:26.251Z</time>
      </trkpt>
      <trkpt lat="47.84647" lon="6.95585">
        <ele>1076.1</ele>
        <time>2026-08-27T08:50:27.259Z</time>
      </trkpt>
      <trkpt lat="47.84647" lon="6.95585">
        <ele>1075.9</ele>
        <time>2026-08-27T08:50:28.267Z</time>
      </trkpt>
      <trkpt lat="47.84647" lon="6.95585">
        <ele>1076.1</ele>
        <time>2026-08-27T08:50:29.277Z</time>
      </trkpt>
      <trkpt lat="47.84647" lon="6.95585">
        <ele>1076.3</ele>
        <time>2026-08-27T08:50:31.191Z</time>
      </trkpt>
      <trkpt lat="47.84647" lon="6.95585">
        <ele>1076.2</ele>
        <time>2026-08-27T08:50:32.200Z</time>
      </trkpt>
      <trkpt lat="47.84647" lon="6.95585">
        <ele>1076.1</ele>
        <time>2026-08-27T08:50:35.224Z</time>
      </trkpt>
      <trkpt lat="47.84647" lon="6.95585">
        <ele>1076.1</ele>
        <time>2026-08-27T08:50:36.233Z</time>
      </trkpt>
      <trkpt lat="47.84647" lon="6.95585">
        <ele>1076.3</ele>
        <time>2026-08-27T08:50:37.241Z</time>
      </trkpt>
      <trkpt lat="47.84647" lon="6.95585">
        <ele>1076</ele>
        <time>2026-08-27T08:50:39.156Z</time>
      </trkpt>
      <trkpt lat="47.84647" lon="6.95584">
        <ele>1076.2</ele>
        <time>2026-08-27T08:50:40.164Z</time>
      </trkpt>
      <trkpt lat="47.84647" lon="6.95584">
        <ele>1075.8</ele>
        <time>2026-08-27T08:50:41.173Z</time>
      </trkpt>
      <trkpt lat="47.84647" lon="6.95584">
        <ele>1076.1</ele>
        <time>2026-08-27T08:50:42.181Z</time>
      </trkpt>
      <trkpt lat="47.84647" lon="6.95584">
        <ele>1076.3</ele>
        <time>2026-08-27T08:50:43.190Z</time>
      </trkpt>
      <trkpt lat="47.84647" lon="6.95584">
        <ele>1076.4</ele>
        <time>2026-08-27T08:50:44.198Z</time>
      </trkpt>
      <trkpt lat="47.84647" lon="6.95584">
        <ele>1076.2</ele>
        <time>2026-08-27T08:50:45.207Z</time>
      </trkpt>
      <trkpt lat="47.84647" lon="6.95584">
        <ele>1076.1</ele>
        <time>2026-08-27T08:50:46.315Z</time>
      </trkpt>
      <trkpt lat="47.84647" lon="6.95584">
        <ele>1076.4</ele>
        <time>2026-08-27T08:50:48.230Z</time>
      </trkpt>
      <trkpt lat="47.84647" lon="6.95584">
        <ele>1076.4</ele>
        <time>2026-08-27T08:50:49.238Z</time>
      </trkpt>
      <trkpt lat="47.84647" lon="6.95584">
        <ele>1076.2</ele>
        <time>2026-08-27T08:50:50.247Z</time>
      </trkpt>
      <trkpt lat="47.84647" lon="6.95584">
        <ele>1075.7</ele>
        <time>2026-08-27T08:50:52.162Z</time>
      </trkpt>
      <trkpt lat="47.84647" lon="6.95584">
        <ele>1076.1</ele>
        <time>2026-08-27T08:50:54.179Z</time>
      </trkpt>
      <trkpt lat="47.84647" lon="6.95584">
        <ele>1075.7</ele>
        <time>2026-08-27T08:50:55.187Z</time>
      </trkpt>
      <trkpt lat="47.84647" lon="6.95584">
        <ele>1075.8</ele>
        <time>2026-08-27T08:50:56.195Z</time>
      </trkpt>
      <trkpt lat="47.84647" lon="6.95584">
        <ele>1076.2</ele>
        <time>2026-08-27T08:50:57.204Z</time>
      </trkpt>
      <trkpt lat="47.84647" lon="6.95584">
        <ele>1076</ele>
        <time>2026-08-27T08:50:58.212Z</time>
      </trkpt>
      <trkpt lat="47.84647" lon="6.95584">
        <ele>1076.3</ele>
        <time>2026-08-27T08:50:59.221Z</time>
      </trkpt>
      <trkpt lat="47.84647" lon="6.95584">
        <ele>1076.4</ele>
        <time>2026-08-27T08:51:00.229Z</time>
      </trkpt>
      <trkpt lat="47.84647" lon="6.95584">
        <ele>1076.5</ele>
        <time>2026-08-27T08:51:01.237Z</time>
      </trkpt>
      <trkpt lat="47.84647" lon="6.95584">
        <ele>1076.4</ele>
        <time>2026-08-27T08:51:02.245Z</time>
      </trkpt>
      <trkpt lat="47.84647" lon="6.95584">
        <ele>1076.4</ele>
        <time>2026-08-27T08:51:03.253Z</time>
      </trkpt>
      <trkpt lat="47.84647" lon="6.95584">
        <ele>1076.4</ele>
        <time>2026-08-27T08:51:04.261Z</time>
      </trkpt>
      <trkpt lat="47.84647" lon="6.95584">
        <ele>1076.5</ele>
        <time>2026-08-27T08:51:06.178Z</time>
      </trkpt>
      <trkpt lat="47.84647" lon="6.95584">
        <ele>1076.4</ele>
        <time>2026-08-27T08:51:07.186Z</time>
      </trkpt>
      <trkpt lat="47.84647" lon="6.95584">
        <ele>1076.5</ele>
        <time>2026-08-27T08:51:08.294Z</time>
      </trkpt>
      <trkpt lat="47.84647" lon="6.95584">
        <ele>1076</ele>
        <time>2026-08-27T08:51:10.211Z</time>
      </trkpt>
      <trkpt lat="47.84647" lon="6.95584">
        <ele>1076.2</ele>
        <time>2026-08-27T08:51:11.218Z</time>
      </trkpt>
      <trkpt lat="47.84647" lon="6.95584">
        <ele>1076.4</ele>
        <time>2026-08-27T08:51:12.227Z</time>
      </trkpt>
      <trkpt lat="47.84647" lon="6.95584">
        <ele>1076.5</ele>
        <time>2026-08-27T08:51:13.235Z</time>
      </trkpt>
      <trkpt lat="47.84647" lon="6.95584">
        <ele>1076.3</ele>
        <time>2026-08-27T08:51:14.243Z</time>
      </trkpt>
      <trkpt lat="47.84647" lon="6.95584">
        <ele>1076.2</ele>
        <time>2026-08-27T08:51:15.251Z</time>
      </trkpt>
      <trkpt lat="47.84647" lon="6.95584">
        <ele>1076.5</ele>
        <time>2026-08-27T08:51:16.260Z</time>
      </trkpt>
      <trkpt lat="47.84647" lon="6.95584">
        <ele>1076.5</ele>
        <time>2026-08-27T08:51:18.276Z</time>
      </trkpt>
      <trkpt lat="47.84647" lon="6.95584">
        <ele>1076.2</ele>
        <time>2026-08-27T08:51:20.192Z</time>
      </trkpt>
      <trkpt lat="47.84647" lon="6.95585">
        <ele>1075.8</ele>
        <time>2026-08-27T08:51:21.201Z</time>
      </trkpt>
      <trkpt lat="47.84647" lon="6.95585">
        <ele>1076.1</ele>
        <time>2026-08-27T08:51:23.116Z</time>
      </trkpt>
      <trkpt lat="47.84647" lon="6.95585">
        <ele>1076.1</ele>
        <time>2026-08-27T08:51:24.124Z</time>
      </trkpt>
      <trkpt lat="47.84647" lon="6.95585">
        <ele>1076.2</ele>
        <time>2026-08-27T08:51:25.132Z</time>
      </trkpt>
      <trkpt lat="47.84647" lon="6.95585">
        <ele>1076.2</ele>
        <time>2026-08-27T08:51:27.149Z</time>
      </trkpt>
      <trkpt lat="47.84647" lon="6.95585">
        <ele>1076.2</ele>
        <time>2026-08-27T08:51:28.157Z</time>
      </trkpt>
      <trkpt lat="47.84647" lon="6.95585">
        <ele>1076.3</ele>
        <time>2026-08-27T08:51:29.166Z</time>
      </trkpt>
      <trkpt lat="47.84647" lon="6.95585">
        <ele>1076.4</ele>
        <time>2026-08-27T08:51:30.175Z</time>
      </trkpt>
      <trkpt lat="47.84647" lon="6.95585">
        <ele>1076.3</ele>
        <time>2026-08-27T08:51:31.182Z</time>
      </trkpt>
      <trkpt lat="47.84647" lon="6.95585">
        <ele>1076.2</ele>
        <time>2026-08-27T08:51:32.190Z</time>
      </trkpt>
      <trkpt lat="47.84647" lon="6.95585">
        <ele>1076.3</ele>
        <time>2026-08-27T08:51:33.199Z</time>
      </trkpt>
      <trkpt lat="47.84647" lon="6.95585">
        <ele>1076.1</ele>
        <time>2026-08-27T08:51:34.207Z</time>
      </trkpt>
      <trkpt lat="47.84647" lon="6.95586">
        <ele>1076.2</ele>
        <time>2026-08-27T08:51:36.122Z</time>
      </trkpt>
      <trkpt lat="47.84647" lon="6.95586">
        <ele>1076.3</ele>
        <time>2026-08-27T08:51:37.131Z</time>
      </trkpt>
      <trkpt lat="47.84647" lon="6.95586">
        <ele>1076.2</ele>
        <time>2026-08-27T08:51:38.140Z</time>
      </trkpt>
      <trkpt lat="47.84647" lon="6.95586">
        <ele>1076</ele>
        <time>2026-08-27T08:51:39.147Z</time>
      </trkpt>
      <trkpt lat="47.84647" lon="6.95586">
        <ele>1076</ele>
        <time>2026-08-27T08:51:40.156Z</time>
      </trkpt>
      <trkpt lat="47.84647" lon="6.95586">
        <ele>1076.2</ele>
        <time>2026-08-27T08:51:41.164Z</time>
      </trkpt>
      <trkpt lat="47.84647" lon="6.95586">
        <ele>1076.4</ele>
        <time>2026-08-27T08:51:42.172Z</time>
      </trkpt>
      <trkpt lat="47.84647" lon="6.95586">
        <ele>1076.5</ele>
        <time>2026-08-27T08:51:43.181Z</time>
      </trkpt>
      <trkpt lat="47.84647" lon="6.95586">
        <ele>1076.1</ele>
        <time>2026-08-27T08:51:44.188Z</time>
      </trkpt>
      <trkpt lat="47.84647" lon="6.95586">
        <ele>1076.4</ele>
        <time>2026-08-27T08:51:46.205Z</time>
      </trkpt>
      <trkpt lat="47.84647" lon="6.95586">
        <ele>1076.4</ele>
        <time>2026-08-27T08:51:47.213Z</time>
      </trkpt>
      <trkpt lat="47.84647" lon="6.95586">
        <ele>1076.4</ele>
        <time>2026-08-27T08:51:49.129Z</time>
      </trkpt>
      <trkpt lat="47.84647" lon="6.95586">
        <ele>1075.7</ele>
        <time>2026-08-27T08:51:50.137Z</time>
      </trkpt>
      <trkpt lat="47.84647" lon="6.95586">
        <ele>1075.7</ele>
        <time>2026-08-27T08:51:51.146Z</time>
      </trkpt>
      <trkpt lat="47.84647" lon="6.95587">
        <ele>1076</ele>
        <time>2026-08-27T08:51:52.154Z</time>
      </trkpt>
      <trkpt lat="47.84647" lon="6.95587">
        <ele>1076</ele>
        <time>2026-08-27T08:51:53.162Z</time>
      </trkpt>
      <trkpt lat="47.84647" lon="6.95587">
        <ele>1076.1</ele>
        <time>2026-08-27T08:51:54.170Z</time>
      </trkpt>
      <trkpt lat="47.84647" lon="6.95587">
        <ele>1076.1</ele>
        <time>2026-08-27T08:51:55.178Z</time>
      </trkpt>
      <trkpt lat="47.84647" lon="6.95587">
        <ele>1076.1</ele>
        <time>2026-08-27T08:51:56.188Z</time>
      </trkpt>
      <trkpt lat="47.84647" lon="6.95587">
        <ele>1076.3</ele>
        <time>2026-08-27T08:51:58.102Z</time>
      </trkpt>
      <trkpt lat="47.84647" lon="6.95587">
        <ele>1076.3</ele>
        <time>2026-08-27T08:51:59.110Z</time>
      </trkpt>
      <trkpt lat="47.84647" lon="6.95587">
        <ele>1076.6</ele>
        <time>2026-08-27T08:52:00.220Z</time>
      </trkpt>
      <trkpt lat="47.84647" lon="6.95587">
        <ele>1076.7</ele>
        <time>2026-08-27T08:52:02.135Z</time>
      </trkpt>
      <trkpt lat="47.84647" lon="6.95587">
        <ele>1076</ele>
        <time>2026-08-27T08:52:03.143Z</time>
      </trkpt>
      <trkpt lat="47.84647" lon="6.95587">
        <ele>1076.4</ele>
        <time>2026-08-27T08:52:04.152Z</time>
      </trkpt>
      <trkpt lat="47.84647" lon="6.95587">
        <ele>1076.1</ele>
        <time>2026-08-27T08:52:05.160Z</time>
      </trkpt>
      <trkpt lat="47.84647" lon="6.95587">
        <ele>1076.3</ele>
        <time>2026-08-27T08:52:06.168Z</time>
      </trkpt>
      <trkpt lat="47.84647" lon="6.95587">
        <ele>1076.1</ele>
        <time>2026-08-27T08:52:07.176Z</time>
      </trkpt>
      <trkpt lat="47.84647" lon="6.95587">
        <ele>1075.9</ele>
        <time>2026-08-27T08:52:08.185Z</time>
      </trkpt>
      <trkpt lat="47.84647" lon="6.95587">
        <ele>1075.9</ele>
        <time>2026-08-27T08:52:09.193Z</time>
      </trkpt>
      <trkpt lat="47.84647" lon="6.95587">
        <ele>1076.3</ele>
        <time>2026-08-27T08:52:11.109Z</time>
      </trkpt>
      <trkpt lat="47.84647" lon="6.95587">
        <ele>1076.4</ele>
        <time>2026-08-27T08:52:12.117Z</time>
      </trkpt>
      <trkpt lat="47.84647" lon="6.95587">
        <ele>1076.4</ele>
        <time>2026-08-27T08:52:13.125Z</time>
      </trkpt>
      <trkpt lat="47.84647" lon="6.95587">
        <ele>1076.3</ele>
        <time>2026-08-27T08:52:14.133Z</time>
      </trkpt>
      <trkpt lat="47.84647" lon="6.95587">
        <ele>1076.3</ele>
        <time>2026-08-27T08:52:15.141Z</time>
      </trkpt>
      <trkpt lat="47.84647" lon="6.95587">
        <ele>1076.3</ele>
        <time>2026-08-27T08:52:16.150Z</time>
      </trkpt>
      <trkpt lat="47.84647" lon="6.95587">
        <ele>1076.3</ele>
        <time>2026-08-27T08:52:17.159Z</time>
      </trkpt>
      <trkpt lat="47.84647" lon="6.95587">
        <ele>1076.2</ele>
        <time>2026-08-27T08:52:18.167Z</time>
      </trkpt>
      <trkpt lat="47.84647" lon="6.95587">
        <ele>1076.3</ele>
        <time>2026-08-27T08:52:20.183Z</time>
      </trkpt>
      <trkpt lat="47.84647" lon="6.95587">
        <ele>1076.3</ele>
        <time>2026-08-27T08:52:21.191Z</time>
      </trkpt>
      <trkpt lat="47.84647" lon="6.95587">
        <ele>1076.3</ele>
        <time>2026-08-27T08:52:22.199Z</time>
      </trkpt>
      <trkpt lat="47.84647" lon="6.95587">
        <ele>1076.3</ele>
        <time>2026-08-27T08:52:24.216Z</time>
      </trkpt>
      <trkpt lat="47.84647" lon="6.95587">
        <ele>1076.3</ele>
        <time>2026-08-27T08:52:26.131Z</time>
      </trkpt>
      <trkpt lat="47.84647" lon="6.95587">
        <ele>1076.1</ele>
        <time>2026-08-27T08:52:27.140Z</time>
      </trkpt>
      <trkpt lat="47.84647" lon="6.95587">
        <ele>1076.3</ele>
        <time>2026-08-27T08:52:28.149Z</time>
      </trkpt>
      <trkpt lat="47.84647" lon="6.95587">
        <ele>1076.5</ele>
        <time>2026-08-27T08:52:29.156Z</time>
      </trkpt>
      <trkpt lat="47.84647" lon="6.95587">
        <ele>1076.6</ele>
        <time>2026-08-27T08:52:30.165Z</time>
      </trkpt>
      <trkpt lat="47.84647" lon="6.95587">
        <ele>1076.6</ele>
        <time>2026-08-27T08:52:31.172Z</time>
      </trkpt>
      <trkpt lat="47.84647" lon="6.95587">
        <ele>1076.4</ele>
        <time>2026-08-27T08:52:32.181Z</time>
      </trkpt>
      <trkpt lat="47.84647" lon="6.95587">
        <ele>1076.3</ele>
        <time>2026-08-27T08:52:33.189Z</time>
      </trkpt>
      <trkpt lat="47.84647" lon="6.95587">
        <ele>1076.5</ele>
        <time>2026-08-27T08:52:34.197Z</time>
      </trkpt>
      <trkpt lat="47.84647" lon="6.95587">
        <ele>1076.2</ele>
        <time>2026-08-27T08:52:35.206Z</time>
      </trkpt>
      <trkpt lat="47.84647" lon="6.95587">
        <ele>1075.9</ele>
        <time>2026-08-27T08:52:36.215Z</time>
      </trkpt>
      <trkpt lat="47.84647" lon="6.95587">
        <ele>1075.9</ele>
        <time>2026-08-27T08:52:37.223Z</time>
      </trkpt>
      <trkpt lat="47.84647" lon="6.95587">
        <ele>1076</ele>
        <time>2026-08-27T08:52:39.138Z</time>
      </trkpt>
      <trkpt lat="47.84647" lon="6.95587">
        <ele>1076.4</ele>
        <time>2026-08-27T08:52:40.146Z</time>
      </trkpt>
      <trkpt lat="47.84647" lon="6.95587">
        <ele>1076.2</ele>
        <time>2026-08-27T08:52:41.154Z</time>
      </trkpt>
      <trkpt lat="47.84647" lon="6.95587">
        <ele>1076.6</ele>
        <time>2026-08-27T08:52:42.162Z</time>
      </trkpt>
      <trkpt lat="47.84647" lon="6.95587">
        <ele>1076.5</ele>
        <time>2026-08-27T08:52:43.171Z</time>
      </trkpt>
      <trkpt lat="47.84647" lon="6.95587">
        <ele>1076.5</ele>
        <time>2026-08-27T08:52:44.179Z</time>
      </trkpt>
      <trkpt lat="47.84647" lon="6.95587">
        <ele>1076.5</ele>
        <time>2026-08-27T08:52:45.191Z</time>
      </trkpt>
      <trkpt lat="47.84647" lon="6.95587">
        <ele>1076.4</ele>
        <time>2026-08-27T08:52:46.199Z</time>
      </trkpt>
      <trkpt lat="47.84647" lon="6.95587">
        <ele>1076.5</ele>
        <time>2026-08-27T08:52:48.217Z</time>
      </trkpt>
      <trkpt lat="47.84647" lon="6.95587">
        <ele>1076.5</ele>
        <time>2026-08-27T08:52:49.225Z</time>
      </trkpt>
      <trkpt lat="47.84647" lon="6.95587">
        <ele>1076.5</ele>
        <time>2026-08-27T08:52:51.140Z</time>
      </trkpt>
      <trkpt lat="47.84647" lon="6.95587">
        <ele>1076.5</ele>
        <time>2026-08-27T08:52:52.148Z</time>
      </trkpt>
      <trkpt lat="47.84647" lon="6.95587">
        <ele>1076.5</ele>
        <time>2026-08-27T08:52:53.157Z</time>
      </trkpt>
      <trkpt lat="47.84647" lon="6.95587">
        <ele>1076.4</ele>
        <time>2026-08-27T08:52:54.164Z</time>
      </trkpt>
      <trkpt lat="47.84647" lon="6.95587">
        <ele>1076.5</ele>
        <time>2026-08-27T08:52:55.173Z</time>
      </trkpt>
      <trkpt lat="47.84648" lon="6.95587">
        <ele>1076.4</ele>
        <time>2026-08-27T08:52:56.181Z</time>
      </trkpt>
      <trkpt lat="47.84648" lon="6.95587">
        <ele>1076.6</ele>
        <time>2026-08-27T08:52:57.189Z</time>
      </trkpt>
      <trkpt lat="47.84648" lon="6.95587">
        <ele>1076.8</ele>
        <time>2026-08-27T08:52:58.197Z</time>
      </trkpt>
      <trkpt lat="47.84648" lon="6.95587">
        <ele>1076.8</ele>
        <time>2026-08-27T08:53:00.113Z</time>
      </trkpt>
      <trkpt lat="47.84648" lon="6.95587">
        <ele>1076.6</ele>
        <time>2026-08-27T08:53:01.121Z</time>
      </trkpt>
      <trkpt lat="47.84648" lon="6.95587">
        <ele>1076.5</ele>
        <time>2026-08-27T08:53:02.129Z</time>
      </trkpt>
      <trkpt lat="47.84648" lon="6.95587">
        <ele>1076.4</ele>
        <time>2026-08-27T08:53:03.139Z</time>
      </trkpt>
      <trkpt lat="47.84648" lon="6.95587">
        <ele>1076.3</ele>
        <time>2026-08-27T08:53:04.146Z</time>
      </trkpt>
      <trkpt lat="47.84648" lon="6.95587">
        <ele>1076</ele>
        <time>2026-08-27T08:53:05.155Z</time>
      </trkpt>
      <trkpt lat="47.84648" lon="6.95587">
        <ele>1076</ele>
        <time>2026-08-27T08:53:06.162Z</time>
      </trkpt>
      <trkpt lat="47.84648" lon="6.95587">
        <ele>1076.1</ele>
        <time>2026-08-27T08:53:07.171Z</time>
      </trkpt>
      <trkpt lat="47.84648" lon="6.95587">
        <ele>1076.1</ele>
        <time>2026-08-27T08:53:08.179Z</time>
      </trkpt>
      <trkpt lat="47.84648" lon="6.95587">
        <ele>1076.5</ele>
        <time>2026-08-27T08:53:09.187Z</time>
      </trkpt>
      <trkpt lat="47.84648" lon="6.95587">
        <ele>1076.4</ele>
        <time>2026-08-27T08:53:10.195Z</time>
      </trkpt>
      <trkpt lat="47.84648" lon="6.95586">
        <ele>1076.7</ele>
        <time>2026-08-27T08:53:11.204Z</time>
      </trkpt>
      <trkpt lat="47.84648" lon="6.95586">
        <ele>1076.6</ele>
        <time>2026-08-27T08:53:13.220Z</time>
      </trkpt>
      <trkpt lat="47.84648" lon="6.95586">
        <ele>1076.6</ele>
        <time>2026-08-27T08:53:14.228Z</time>
      </trkpt>
      <trkpt lat="47.84648" lon="6.95586">
        <ele>1076.5</ele>
        <time>2026-08-27T08:53:16.144Z</time>
      </trkpt>
      <trkpt lat="47.84648" lon="6.95586">
        <ele>1076.6</ele>
        <time>2026-08-27T08:53:17.152Z</time>
      </trkpt>
      <trkpt lat="47.84648" lon="6.95586">
        <ele>1076.7</ele>
        <time>2026-08-27T08:53:18.162Z</time>
      </trkpt>
      <trkpt lat="47.84648" lon="6.95586">
        <ele>1076.6</ele>
        <time>2026-08-27T08:53:19.170Z</time>
      </trkpt>
      <trkpt lat="47.84648" lon="6.95586">
        <ele>1076.6</ele>
        <time>2026-08-27T08:53:20.177Z</time>
      </trkpt>
      <trkpt lat="47.84649" lon="6.95586">
        <ele>1076.7</ele>
        <time>2026-08-27T08:53:21.185Z</time>
      </trkpt>
      <trkpt lat="47.84649" lon="6.95586">
        <ele>1076.6</ele>
        <time>2026-08-27T08:53:22.195Z</time>
      </trkpt>
      <trkpt lat="47.84649" lon="6.95586">
        <ele>1076.5</ele>
        <time>2026-08-27T08:53:23.202Z</time>
      </trkpt>
      <trkpt lat="47.84649" lon="6.95586">
        <ele>1076.6</ele>
        <time>2026-08-27T08:53:24.211Z</time>
      </trkpt>
      <trkpt lat="47.84649" lon="6.95586">
        <ele>1076.6</ele>
        <time>2026-08-27T08:53:25.218Z</time>
      </trkpt>
      <trkpt lat="47.84649" lon="6.95586">
        <ele>1076.7</ele>
        <time>2026-08-27T08:53:26.227Z</time>
      </trkpt>
      <trkpt lat="47.84649" lon="6.95586">
        <ele>1076.9</ele>
        <time>2026-08-27T08:53:28.142Z</time>
      </trkpt>
      <trkpt lat="47.84649" lon="6.95586">
        <ele>1076.9</ele>
        <time>2026-08-27T08:53:29.150Z</time>
      </trkpt>
      <trkpt lat="47.84649" lon="6.95586">
        <ele>1076.7</ele>
        <time>2026-08-27T08:53:30.159Z</time>
      </trkpt>
      <trkpt lat="47.84649" lon="6.95586">
        <ele>1076.6</ele>
        <time>2026-08-27T08:53:31.167Z</time>
      </trkpt>
      <trkpt lat="47.8465" lon="6.95586">
        <ele>1076.4</ele>
        <time>2026-08-27T08:53:33.184Z</time>
      </trkpt>
      <trkpt lat="47.8465" lon="6.95586">
        <ele>1076</ele>
        <time>2026-08-27T08:53:34.193Z</time>
      </trkpt>
      <trkpt lat="47.8465" lon="6.95586">
        <ele>1076.1</ele>
        <time>2026-08-27T08:53:35.200Z</time>
      </trkpt>
      <trkpt lat="47.8465" lon="6.95586">
        <ele>1076</ele>
        <time>2026-08-27T08:53:36.208Z</time>
      </trkpt>
      <trkpt lat="47.8465" lon="6.95586">
        <ele>1076</ele>
        <time>2026-08-27T08:53:37.216Z</time>
      </trkpt>
      <trkpt lat="47.8465" lon="6.95586">
        <ele>1076.3</ele>
        <time>2026-08-27T08:53:39.132Z</time>
      </trkpt>
      <trkpt lat="47.8465" lon="6.95586">
        <ele>1076.5</ele>
        <time>2026-08-27T08:53:41.149Z</time>
      </trkpt>
      <trkpt lat="47.84651" lon="6.95586">
        <ele>1076.5</ele>
        <time>2026-08-27T08:53:42.157Z</time>
      </trkpt>
      <trkpt lat="47.84651" lon="6.95586">
        <ele>1076.5</ele>
        <time>2026-08-27T08:53:43.166Z</time>
      </trkpt>
      <trkpt lat="47.84651" lon="6.95586">
        <ele>1076.4</ele>
        <time>2026-08-27T08:53:44.174Z</time>
      </trkpt>
      <trkpt lat="47.84651" lon="6.95586">
        <ele>1076.4</ele>
        <time>2026-08-27T08:53:45.182Z</time>
      </trkpt>
      <trkpt lat="47.8465" lon="6.95586">
        <ele>1076.5</ele>
        <time>2026-08-27T08:53:46.191Z</time>
      </trkpt>
      <trkpt lat="47.8465" lon="6.95586">
        <ele>1076.5</ele>
        <time>2026-08-27T08:53:47.198Z</time>
      </trkpt>
      <trkpt lat="47.8465" lon="6.95586">
        <ele>1076.5</ele>
        <time>2026-08-27T08:53:48.207Z</time>
      </trkpt>
      <trkpt lat="47.8465" lon="6.95586">
        <ele>1076.6</ele>
        <time>2026-08-27T08:53:50.122Z</time>
      </trkpt>
      <trkpt lat="47.8465" lon="6.95586">
        <ele>1076.6</ele>
        <time>2026-08-27T08:53:51.131Z</time>
      </trkpt>
      <trkpt lat="47.84649" lon="6.95586">
        <ele>1076.5</ele>
        <time>2026-08-27T08:53:52.138Z</time>
      </trkpt>
      <trkpt lat="47.84649" lon="6.95586">
        <ele>1076.6</ele>
        <time>2026-08-27T08:53:53.147Z</time>
      </trkpt>
      <trkpt lat="47.84649" lon="6.95585">
        <ele>1076.6</ele>
        <time>2026-08-27T08:53:54.155Z</time>
      </trkpt>
      <trkpt lat="47.84648" lon="6.95585">
        <ele>1076.7</ele>
        <time>2026-08-27T08:53:55.164Z</time>
      </trkpt>
      <trkpt lat="47.84648" lon="6.95584">
        <ele>1076.9</ele>
        <time>2026-08-27T08:53:56.171Z</time>
      </trkpt>
      <trkpt lat="47.84648" lon="6.95584">
        <ele>1077</ele>
        <time>2026-08-27T08:53:57.181Z</time>
      </trkpt>
      <trkpt lat="47.84648" lon="6.95584">
        <ele>1077</ele>
        <time>2026-08-27T08:53:58.188Z</time>
      </trkpt>
      <trkpt lat="47.84648" lon="6.95583">
        <ele>1076.8</ele>
        <time>2026-08-27T08:53:59.196Z</time>
      </trkpt>
      <trkpt lat="47.84648" lon="6.95583">
        <ele>1076.7</ele>
        <time>2026-08-27T08:54:00.205Z</time>
      </trkpt>
      <trkpt lat="47.84647" lon="6.95583">
        <ele>1076.5</ele>
        <time>2026-08-27T08:54:02.120Z</time>
      </trkpt>
      <trkpt lat="47.84647" lon="6.95583">
        <ele>1076.2</ele>
        <time>2026-08-27T08:54:03.128Z</time>
      </trkpt>
      <trkpt lat="47.84647" lon="6.95583">
        <ele>1076.4</ele>
        <time>2026-08-27T08:54:04.136Z</time>
      </trkpt>
      <trkpt lat="47.84647" lon="6.95583">
        <ele>1076.4</ele>
        <time>2026-08-27T08:54:05.146Z</time>
      </trkpt>
      <trkpt lat="47.84647" lon="6.95582">
        <ele>1076.7</ele>
        <time>2026-08-27T08:54:06.154Z</time>
      </trkpt>
      <trkpt lat="47.84647" lon="6.95582">
        <ele>1076.7</ele>
        <time>2026-08-27T08:54:07.161Z</time>
      </trkpt>
      <trkpt lat="47.84647" lon="6.95582">
        <ele>1076.6</ele>
        <time>2026-08-27T08:54:08.169Z</time>
      </trkpt>
      <trkpt lat="47.84647" lon="6.95582">
        <ele>1076.8</ele>
        <time>2026-08-27T08:54:09.179Z</time>
      </trkpt>
      <trkpt lat="47.84647" lon="6.95582">
        <ele>1076.8</ele>
        <time>2026-08-27T08:54:10.187Z</time>
      </trkpt>
      <trkpt lat="47.84646" lon="6.95582">
        <ele>1076.8</ele>
        <time>2026-08-27T08:54:11.194Z</time>
      </trkpt>
      <trkpt lat="47.84646" lon="6.95582">
        <ele>1076.8</ele>
        <time>2026-08-27T08:54:12.203Z</time>
      </trkpt>
      <trkpt lat="47.84646" lon="6.95582">
        <ele>1076.8</ele>
        <time>2026-08-27T08:54:14.119Z</time>
      </trkpt>
      <trkpt lat="47.84646" lon="6.95582">
        <ele>1076.8</ele>
        <time>2026-08-27T08:54:15.126Z</time>
      </trkpt>
      <trkpt lat="47.84646" lon="6.95582">
        <ele>1076.9</ele>
        <time>2026-08-27T08:54:16.135Z</time>
      </trkpt>
      <trkpt lat="47.84646" lon="6.95582">
        <ele>1076.8</ele>
        <time>2026-08-27T08:54:17.143Z</time>
      </trkpt>
      <trkpt lat="47.84646" lon="6.95582">
        <ele>1076.8</ele>
        <time>2026-08-27T08:54:18.152Z</time>
      </trkpt>
      <trkpt lat="47.84646" lon="6.95582">
        <ele>1076.8</ele>
        <time>2026-08-27T08:54:19.159Z</time>
      </trkpt>
      <trkpt lat="47.84646" lon="6.95582">
        <ele>1076.8</ele>
        <time>2026-08-27T08:54:20.167Z</time>
      </trkpt>
      <trkpt lat="47.84646" lon="6.95582">
        <ele>1076.7</ele>
        <time>2026-08-27T08:54:21.177Z</time>
      </trkpt>
      <trkpt lat="47.84646" lon="6.95582">
        <ele>1076.7</ele>
        <time>2026-08-27T08:54:22.184Z</time>
      </trkpt>
      <trkpt lat="47.84646" lon="6.95582">
        <ele>1076.7</ele>
        <time>2026-08-27T08:54:23.192Z</time>
      </trkpt>
      <trkpt lat="47.84646" lon="6.95583">
        <ele>1076.8</ele>
        <time>2026-08-27T08:54:24.200Z</time>
      </trkpt>
      <trkpt lat="47.84646" lon="6.95583">
        <ele>1077</ele>
        <time>2026-08-27T08:54:25.210Z</time>
      </trkpt>
      <trkpt lat="47.84647" lon="6.95583">
        <ele>1077</ele>
        <time>2026-08-27T08:54:26.217Z</time>
      </trkpt>
      <trkpt lat="47.84647" lon="6.95583">
        <ele>1077</ele>
        <time>2026-08-27T08:54:27.226Z</time>
      </trkpt>
      <trkpt lat="47.84647" lon="6.95583">
        <ele>1076.8</ele>
        <time>2026-08-27T08:54:28.234Z</time>
      </trkpt>
      <trkpt lat="47.84647" lon="6.95583">
        <ele>1076.7</ele>
        <time>2026-08-27T08:54:30.150Z</time>
      </trkpt>
      <trkpt lat="47.84647" lon="6.95583">
        <ele>1076.5</ele>
        <time>2026-08-27T08:54:31.157Z</time>
      </trkpt>
      <trkpt lat="47.84647" lon="6.95583">
        <ele>1076.2</ele>
        <time>2026-08-27T08:54:32.166Z</time>
      </trkpt>
      <trkpt lat="47.84647" lon="6.95583">
        <ele>1076.3</ele>
        <time>2026-08-27T08:54:33.175Z</time>
      </trkpt>
      <trkpt lat="47.84647" lon="6.95584">
        <ele>1076.5</ele>
        <time>2026-08-27T08:54:34.182Z</time>
      </trkpt>
      <trkpt lat="47.84647" lon="6.95584">
        <ele>1076.7</ele>
        <time>2026-08-27T08:54:35.190Z</time>
      </trkpt>
      <trkpt lat="47.84647" lon="6.95584">
        <ele>1076.7</ele>
        <time>2026-08-27T08:54:36.198Z</time>
      </trkpt>
      <trkpt lat="47.84647" lon="6.95584">
        <ele>1076.5</ele>
        <time>2026-08-27T08:54:37.208Z</time>
      </trkpt>
      <trkpt lat="47.84647" lon="6.95584">
        <ele>1076.7</ele>
        <time>2026-08-27T08:54:39.122Z</time>
      </trkpt>
      <trkpt lat="47.84647" lon="6.95584">
        <ele>1076.7</ele>
        <time>2026-08-27T08:54:40.130Z</time>
      </trkpt>
      <trkpt lat="47.84647" lon="6.95584">
        <ele>1076.7</ele>
        <time>2026-08-27T08:54:41.151Z</time>
      </trkpt>
      <trkpt lat="47.84647" lon="6.95584">
        <ele>1076.7</ele>
        <time>2026-08-27T08:54:43.155Z</time>
      </trkpt>
      <trkpt lat="47.84647" lon="6.95584">
        <ele>1076.7</ele>
        <time>2026-08-27T08:54:44.163Z</time>
      </trkpt>
      <trkpt lat="47.84647" lon="6.95584">
        <ele>1076.8</ele>
        <time>2026-08-27T08:54:45.171Z</time>
      </trkpt>
      <trkpt lat="47.84647" lon="6.95584">
        <ele>1076.7</ele>
        <time>2026-08-27T08:54:46.181Z</time>
      </trkpt>
      <trkpt lat="47.84647" lon="6.95584">
        <ele>1076.7</ele>
        <time>2026-08-27T08:54:47.189Z</time>
      </trkpt>
      <trkpt lat="47.84647" lon="6.95584">
        <ele>1076.7</ele>
        <time>2026-08-27T08:54:48.196Z</time>
      </trkpt>
      <trkpt lat="47.84647" lon="6.95584">
        <ele>1076.6</ele>
        <time>2026-08-27T08:54:50.112Z</time>
      </trkpt>
      <trkpt lat="47.84647" lon="6.95584">
        <ele>1076.6</ele>
        <time>2026-08-27T08:54:51.221Z</time>
      </trkpt>
      <trkpt lat="47.84647" lon="6.95584">
        <ele>1076.8</ele>
        <time>2026-08-27T08:54:53.138Z</time>
      </trkpt>
      <trkpt lat="47.84647" lon="6.95584">
        <ele>1077</ele>
        <time>2026-08-27T08:54:54.146Z</time>
      </trkpt>
      <trkpt lat="47.84647" lon="6.95584">
        <ele>1077</ele>
        <time>2026-08-27T08:54:55.153Z</time>
      </trkpt>
      <trkpt lat="47.84647" lon="6.95584">
        <ele>1077</ele>
        <time>2026-08-27T08:54:56.161Z</time>
      </trkpt>
      <trkpt lat="47.84647" lon="6.95584">
        <ele>1076.8</ele>
        <time>2026-08-27T08:54:57.170Z</time>
      </trkpt>
      <trkpt lat="47.84647" lon="6.95584">
        <ele>1076.7</ele>
        <time>2026-08-27T08:54:58.178Z</time>
      </trkpt>
      <trkpt lat="47.84648" lon="6.95584">
        <ele>1076.6</ele>
        <time>2026-08-27T08:54:59.186Z</time>
      </trkpt>
      <trkpt lat="47.84648" lon="6.95584">
        <ele>1076.5</ele>
        <time>2026-08-27T08:55:00.195Z</time>
      </trkpt>
      <trkpt lat="47.84648" lon="6.95584">
        <ele>1076.2</ele>
        <time>2026-08-27T08:55:01.204Z</time>
      </trkpt>
      <trkpt lat="47.84648" lon="6.95584">
        <ele>1076.4</ele>
        <time>2026-08-27T08:55:03.118Z</time>
      </trkpt>
      <trkpt lat="47.84648" lon="6.95584">
        <ele>1076.6</ele>
        <time>2026-08-27T08:55:04.128Z</time>
      </trkpt>
      <trkpt lat="47.84648" lon="6.95584">
        <ele>1076.8</ele>
        <time>2026-08-27T08:55:05.135Z</time>
      </trkpt>
      <trkpt lat="47.84648" lon="6.95584">
        <ele>1076.5</ele>
        <time>2026-08-27T08:55:06.143Z</time>
      </trkpt>
      <trkpt lat="47.84648" lon="6.95584">
        <ele>1076.9</ele>
        <time>2026-08-27T08:55:07.152Z</time>
      </trkpt>
      <trkpt lat="47.84648" lon="6.95584">
        <ele>1077.1</ele>
        <time>2026-08-27T08:55:08.160Z</time>
      </trkpt>
      <trkpt lat="47.84648" lon="6.95584">
        <ele>1077.2</ele>
        <time>2026-08-27T08:55:09.169Z</time>
      </trkpt>
      <trkpt lat="47.84648" lon="6.95584">
        <ele>1077.1</ele>
        <time>2026-08-27T08:55:10.177Z</time>
      </trkpt>
      <trkpt lat="47.84648" lon="6.95585">
        <ele>1076.6</ele>
        <time>2026-08-27T08:55:11.184Z</time>
      </trkpt>
      <trkpt lat="47.84648" lon="6.95585">
        <ele>1076.7</ele>
        <time>2026-08-27T08:55:12.193Z</time>
      </trkpt>
      <trkpt lat="47.84648" lon="6.95585">
        <ele>1076.8</ele>
        <time>2026-08-27T08:55:14.108Z</time>
      </trkpt>
      <trkpt lat="47.84648" lon="6.95585">
        <ele>1076.7</ele>
        <time>2026-08-27T08:55:15.117Z</time>
      </trkpt>
      <trkpt lat="47.84648" lon="6.95585">
        <ele>1076.7</ele>
        <time>2026-08-27T08:55:16.126Z</time>
      </trkpt>
      <trkpt lat="47.84648" lon="6.95585">
        <ele>1076.7</ele>
        <time>2026-08-27T08:55:17.133Z</time>
      </trkpt>
      <trkpt lat="47.84648" lon="6.95585">
        <ele>1076.7</ele>
        <time>2026-08-27T08:55:18.141Z</time>
      </trkpt>
      <trkpt lat="47.84648" lon="6.95585">
        <ele>1076.6</ele>
        <time>2026-08-27T08:55:19.150Z</time>
      </trkpt>
      <trkpt lat="47.84648" lon="6.95585">
        <ele>1076.7</ele>
        <time>2026-08-27T08:55:20.159Z</time>
      </trkpt>
      <trkpt lat="47.84648" lon="6.95585">
        <ele>1076.6</ele>
        <time>2026-08-27T08:55:21.166Z</time>
      </trkpt>
      <trkpt lat="47.84648" lon="6.95585">
        <ele>1076.8</ele>
        <time>2026-08-27T08:55:22.174Z</time>
      </trkpt>
      <trkpt lat="47.84648" lon="6.95585">
        <ele>1077</ele>
        <time>2026-08-27T08:55:23.183Z</time>
      </trkpt>
      <trkpt lat="47.84648" lon="6.95585">
        <ele>1077</ele>
        <time>2026-08-27T08:55:24.192Z</time>
      </trkpt>
      <trkpt lat="47.84648" lon="6.95585">
        <ele>1077</ele>
        <time>2026-08-27T08:55:25.200Z</time>
      </trkpt>
      <trkpt lat="47.84648" lon="6.95585">
        <ele>1076.8</ele>
        <time>2026-08-27T08:55:27.116Z</time>
      </trkpt>
      <trkpt lat="47.84648" lon="6.95585">
        <ele>1076.6</ele>
        <time>2026-08-27T08:55:28.123Z</time>
      </trkpt>
      <trkpt lat="47.84648" lon="6.95586">
        <ele>1076.5</ele>
        <time>2026-08-27T08:55:29.131Z</time>
      </trkpt>
      <trkpt lat="47.84647" lon="6.95586">
        <ele>1076.1</ele>
        <time>2026-08-27T08:55:30.141Z</time>
      </trkpt>
      <trkpt lat="47.84647" lon="6.95586">
        <ele>1076.3</ele>
        <time>2026-08-27T08:55:31.148Z</time>
      </trkpt>
      <trkpt lat="47.84647" lon="6.95586">
        <ele>1076.4</ele>
        <time>2026-08-27T08:55:32.156Z</time>
      </trkpt>
      <trkpt lat="47.84647" lon="6.95586">
        <ele>1076.6</ele>
        <time>2026-08-27T08:55:33.164Z</time>
      </trkpt>
      <trkpt lat="47.84647" lon="6.95586">
        <ele>1076.7</ele>
        <time>2026-08-27T08:55:34.174Z</time>
      </trkpt>
      <trkpt lat="47.84647" lon="6.95586">
        <ele>1076.4</ele>
        <time>2026-08-27T08:55:35.181Z</time>
      </trkpt>
      <trkpt lat="47.84647" lon="6.95586">
        <ele>1076.9</ele>
        <time>2026-08-27T08:55:36.189Z</time>
      </trkpt>
      <trkpt lat="47.84647" lon="6.95586">
        <ele>1077</ele>
        <time>2026-08-27T08:55:37.197Z</time>
      </trkpt>
      <trkpt lat="47.84647" lon="6.95585">
        <ele>1077</ele>
        <time>2026-08-27T08:55:39.113Z</time>
      </trkpt>
      <trkpt lat="47.84647" lon="6.95585">
        <ele>1076.9</ele>
        <time>2026-08-27T08:55:40.121Z</time>
      </trkpt>
      <trkpt lat="47.84647" lon="6.95585">
        <ele>1076.8</ele>
        <time>2026-08-27T08:55:41.131Z</time>
      </trkpt>
      <trkpt lat="47.84647" lon="6.95585">
        <ele>1076.8</ele>
        <time>2026-08-27T08:55:42.138Z</time>
      </trkpt>
      <trkpt lat="47.84647" lon="6.95585">
        <ele>1076.6</ele>
        <time>2026-08-27T08:55:43.147Z</time>
      </trkpt>
      <trkpt lat="47.84647" lon="6.95585">
        <ele>1076.6</ele>
        <time>2026-08-27T08:55:44.154Z</time>
      </trkpt>
      <trkpt lat="47.84647" lon="6.95585">
        <ele>1076.5</ele>
        <time>2026-08-27T08:55:45.163Z</time>
      </trkpt>
      <trkpt lat="47.84647" lon="6.95585">
        <ele>1076.6</ele>
        <time>2026-08-27T08:55:46.171Z</time>
      </trkpt>
      <trkpt lat="47.84647" lon="6.95585">
        <ele>1076.5</ele>
        <time>2026-08-27T08:55:47.179Z</time>
      </trkpt>
      <trkpt lat="47.84646" lon="6.95585">
        <ele>1076.4</ele>
        <time>2026-08-27T08:55:48.187Z</time>
      </trkpt>
      <trkpt lat="47.84646" lon="6.95585">
        <ele>1076.5</ele>
        <time>2026-08-27T08:55:49.196Z</time>
      </trkpt>
      <trkpt lat="47.84646" lon="6.95585">
        <ele>1076.6</ele>
        <time>2026-08-27T08:55:51.111Z</time>
      </trkpt>
      <trkpt lat="47.84647" lon="6.95584">
        <ele>1076.8</ele>
        <time>2026-08-27T08:55:52.120Z</time>
      </trkpt>
      <trkpt lat="47.84647" lon="6.95584">
        <ele>1076.8</ele>
        <time>2026-08-27T08:55:53.128Z</time>
      </trkpt>
      <trkpt lat="47.84647" lon="6.95584">
        <ele>1076.8</ele>
        <time>2026-08-27T08:55:54.136Z</time>
      </trkpt>
      <trkpt lat="47.84647" lon="6.95584">
        <ele>1076.7</ele>
        <time>2026-08-27T08:55:55.146Z</time>
      </trkpt>
      <trkpt lat="47.84647" lon="6.95584">
        <ele>1076.6</ele>
        <time>2026-08-27T08:55:56.154Z</time>
      </trkpt>
      <trkpt lat="47.84647" lon="6.95584">
        <ele>1076.5</ele>
        <time>2026-08-27T08:55:57.161Z</time>
      </trkpt>
      <trkpt lat="47.84647" lon="6.95584">
        <ele>1076.3</ele>
        <time>2026-08-27T08:55:58.170Z</time>
      </trkpt>
      <trkpt lat="47.84647" lon="6.95584">
        <ele>1076</ele>
        <time>2026-08-27T08:55:59.178Z</time>
      </trkpt>
      <trkpt lat="47.84647" lon="6.95584">
        <ele>1076.2</ele>
        <time>2026-08-27T08:56:00.186Z</time>
      </trkpt>
      <trkpt lat="47.84647" lon="6.95583">
        <ele>1076.3</ele>
        <time>2026-08-27T08:56:01.194Z</time>
      </trkpt>
      <trkpt lat="47.84647" lon="6.95583">
        <ele>1076.5</ele>
        <time>2026-08-27T08:56:02.202Z</time>
      </trkpt>
      <trkpt lat="47.84647" lon="6.95583">
        <ele>1076.7</ele>
        <time>2026-08-27T08:56:04.118Z</time>
      </trkpt>
      <trkpt lat="47.84647" lon="6.95583">
        <ele>1076.9</ele>
        <time>2026-08-27T08:56:05.126Z</time>
      </trkpt>
      <trkpt lat="47.84647" lon="6.95583">
        <ele>1077</ele>
        <time>2026-08-27T08:56:06.135Z</time>
      </trkpt>
      <trkpt lat="47.84647" lon="6.95583">
        <ele>1077.1</ele>
        <time>2026-08-27T08:56:07.143Z</time>
      </trkpt>
      <trkpt lat="47.84647" lon="6.95583">
        <ele>1077</ele>
        <time>2026-08-27T08:56:08.151Z</time>
      </trkpt>
      <trkpt lat="47.84647" lon="6.95583">
        <ele>1077</ele>
        <time>2026-08-27T08:56:09.159Z</time>
      </trkpt>
      <trkpt lat="47.84647" lon="6.95583">
        <ele>1076.9</ele>
        <time>2026-08-27T08:56:10.169Z</time>
      </trkpt>
      <trkpt lat="47.84647" lon="6.95583">
        <ele>1076.9</ele>
        <time>2026-08-27T08:56:11.176Z</time>
      </trkpt>
      <trkpt lat="47.84647" lon="6.95583">
        <ele>1076.8</ele>
        <time>2026-08-27T08:56:12.184Z</time>
      </trkpt>
      <trkpt lat="47.84647" lon="6.95583">
        <ele>1076.8</ele>
        <time>2026-08-27T08:56:13.193Z</time>
      </trkpt>
      <trkpt lat="47.84647" lon="6.95583">
        <ele>1076.7</ele>
        <time>2026-08-27T08:56:14.201Z</time>
      </trkpt>
      <trkpt lat="47.84647" lon="6.95583">
        <ele>1076.7</ele>
        <time>2026-08-27T08:56:15.210Z</time>
      </trkpt>
      <trkpt lat="47.84647" lon="6.95583">
        <ele>1076.7</ele>
        <time>2026-08-27T08:56:16.217Z</time>
      </trkpt>
      <trkpt lat="47.84647" lon="6.95583">
        <ele>1076.6</ele>
        <time>2026-08-27T08:56:17.226Z</time>
      </trkpt>
      <trkpt lat="47.84647" lon="6.95584">
        <ele>1076.8</ele>
        <time>2026-08-27T08:56:19.141Z</time>
      </trkpt>
      <trkpt lat="47.84646" lon="6.95584">
        <ele>1077</ele>
        <time>2026-08-27T08:56:20.150Z</time>
      </trkpt>
      <trkpt lat="47.84646" lon="6.95584">
        <ele>1077</ele>
        <time>2026-08-27T08:56:21.159Z</time>
      </trkpt>
      <trkpt lat="47.84646" lon="6.95584">
        <ele>1077</ele>
        <time>2026-08-27T08:56:22.167Z</time>
      </trkpt>
      <trkpt lat="47.84646" lon="6.95584">
        <ele>1077</ele>
        <time>2026-08-27T08:56:23.174Z</time>
      </trkpt>
      <trkpt lat="47.84646" lon="6.95584">
        <ele>1076.9</ele>
        <time>2026-08-27T08:56:24.183Z</time>
      </trkpt>
      <trkpt lat="47.84646" lon="6.95585">
        <ele>1076.8</ele>
        <time>2026-08-27T08:56:25.192Z</time>
      </trkpt>
      <trkpt lat="47.84646" lon="6.95585">
        <ele>1076.7</ele>
        <time>2026-08-27T08:56:26.200Z</time>
      </trkpt>
      <trkpt lat="47.84646" lon="6.95585">
        <ele>1076.2</ele>
        <time>2026-08-27T08:56:28.216Z</time>
      </trkpt>
      <trkpt lat="47.84646" lon="6.95585">
        <ele>1076.4</ele>
        <time>2026-08-27T08:56:29.224Z</time>
      </trkpt>
      <trkpt lat="47.84646" lon="6.95585">
        <ele>1076.7</ele>
        <time>2026-08-27T08:56:31.139Z</time>
      </trkpt>
      <trkpt lat="47.84646" lon="6.95585">
        <ele>1076.8</ele>
        <time>2026-08-27T08:56:32.149Z</time>
      </trkpt>
      <trkpt lat="47.84646" lon="6.95586">
        <ele>1076.9</ele>
        <time>2026-08-27T08:56:33.156Z</time>
      </trkpt>
      <trkpt lat="47.84646" lon="6.95586">
        <ele>1077</ele>
        <time>2026-08-27T08:56:34.165Z</time>
      </trkpt>
      <trkpt lat="47.84645" lon="6.95586">
        <ele>1077.2</ele>
        <time>2026-08-27T08:56:35.172Z</time>
      </trkpt>
      <trkpt lat="47.84645" lon="6.95586">
        <ele>1077.2</ele>
        <time>2026-08-27T08:56:36.181Z</time>
      </trkpt>
      <trkpt lat="47.84645" lon="6.95586">
        <ele>1077.1</ele>
        <time>2026-08-27T08:56:37.189Z</time>
      </trkpt>
      <trkpt lat="47.84645" lon="6.95586">
        <ele>1077</ele>
        <time>2026-08-27T08:56:38.197Z</time>
      </trkpt>
      <trkpt lat="47.84645" lon="6.95586">
        <ele>1076.9</ele>
        <time>2026-08-27T08:56:39.205Z</time>
      </trkpt>
      <trkpt lat="47.84645" lon="6.95586">
        <ele>1076.9</ele>
        <time>2026-08-27T08:56:40.214Z</time>
      </trkpt>
      <trkpt lat="47.84645" lon="6.95586">
        <ele>1076.8</ele>
        <time>2026-08-27T08:56:41.222Z</time>
      </trkpt>
      <trkpt lat="47.84645" lon="6.95586">
        <ele>1076.9</ele>
        <time>2026-08-27T08:56:43.137Z</time>
      </trkpt>
      <trkpt lat="47.84645" lon="6.95586">
        <ele>1076.8</ele>
        <time>2026-08-27T08:56:44.146Z</time>
      </trkpt>
      <trkpt lat="47.84645" lon="6.95586">
        <ele>1076.8</ele>
        <time>2026-08-27T08:56:45.154Z</time>
      </trkpt>
      <trkpt lat="47.84645" lon="6.95586">
        <ele>1076.7</ele>
        <time>2026-08-27T08:56:46.162Z</time>
      </trkpt>
      <trkpt lat="47.84645" lon="6.95587">
        <ele>1076.8</ele>
        <time>2026-08-27T08:56:47.171Z</time>
      </trkpt>
      <trkpt lat="47.84645" lon="6.95587">
        <ele>1077</ele>
        <time>2026-08-27T08:56:48.180Z</time>
      </trkpt>
      <trkpt lat="47.84645" lon="6.95587">
        <ele>1077.2</ele>
        <time>2026-08-27T08:56:49.188Z</time>
      </trkpt>
      <trkpt lat="47.84645" lon="6.95587">
        <ele>1077.2</ele>
        <time>2026-08-27T08:56:50.196Z</time>
      </trkpt>
      <trkpt lat="47.84646" lon="6.95587">
        <ele>1077.1</ele>
        <time>2026-08-27T08:56:52.212Z</time>
      </trkpt>
      <trkpt lat="47.84646" lon="6.95587">
        <ele>1076.9</ele>
        <time>2026-08-27T08:56:54.128Z</time>
      </trkpt>
      <trkpt lat="47.84646" lon="6.95587">
        <ele>1076.8</ele>
        <time>2026-08-27T08:56:55.136Z</time>
      </trkpt>
      <trkpt lat="47.84646" lon="6.95587">
        <ele>1076.7</ele>
        <time>2026-08-27T08:56:56.145Z</time>
      </trkpt>
      <trkpt lat="47.84646" lon="6.95587">
        <ele>1076.5</ele>
        <time>2026-08-27T08:56:57.153Z</time>
      </trkpt>
      <trkpt lat="47.84646" lon="6.95587">
        <ele>1076.6</ele>
        <time>2026-08-27T08:56:58.162Z</time>
      </trkpt>
      <trkpt lat="47.84646" lon="6.95587">
        <ele>1076.9</ele>
        <time>2026-08-27T08:56:59.170Z</time>
      </trkpt>
      <trkpt lat="47.84646" lon="6.95587">
        <ele>1077.1</ele>
        <time>2026-08-27T08:57:00.177Z</time>
      </trkpt>
      <trkpt lat="47.84646" lon="6.95586">
        <ele>1077.2</ele>
        <time>2026-08-27T08:57:01.186Z</time>
      </trkpt>
      <trkpt lat="47.84646" lon="6.95586">
        <ele>1077.3</ele>
        <time>2026-08-27T08:57:02.195Z</time>
      </trkpt>
      <trkpt lat="47.84646" lon="6.95586">
        <ele>1077.4</ele>
        <time>2026-08-27T08:57:03.202Z</time>
      </trkpt>
      <trkpt lat="47.84646" lon="6.95586">
        <ele>1077.6</ele>
        <time>2026-08-27T08:57:04.210Z</time>
      </trkpt>
      <trkpt lat="47.84646" lon="6.95586">
        <ele>1077.7</ele>
        <time>2026-08-27T08:57:05.219Z</time>
      </trkpt>
      <trkpt lat="47.84646" lon="6.95586">
        <ele>1077.5</ele>
        <time>2026-08-27T08:57:07.135Z</time>
      </trkpt>
      <trkpt lat="47.84646" lon="6.95586">
        <ele>1077.4</ele>
        <time>2026-08-27T08:57:08.143Z</time>
      </trkpt>
      <trkpt lat="47.84646" lon="6.95586">
        <ele>1077.5</ele>
        <time>2026-08-27T08:57:09.152Z</time>
      </trkpt>
      <trkpt lat="47.84647" lon="6.95586">
        <ele>1077.3</ele>
        <time>2026-08-27T08:57:10.159Z</time>
      </trkpt>
      <trkpt lat="47.84647" lon="6.95586">
        <ele>1077.4</ele>
        <time>2026-08-27T08:57:11.168Z</time>
      </trkpt>
      <trkpt lat="47.84647" lon="6.95586">
        <ele>1077.3</ele>
        <time>2026-08-27T08:57:12.176Z</time>
      </trkpt>
      <trkpt lat="47.84647" lon="6.95586">
        <ele>1077.3</ele>
        <time>2026-08-27T08:57:13.184Z</time>
      </trkpt>
      <trkpt lat="47.84647" lon="6.95585">
        <ele>1077.2</ele>
        <time>2026-08-27T08:57:14.194Z</time>
      </trkpt>
      <trkpt lat="47.84647" lon="6.95585">
        <ele>1077</ele>
        <time>2026-08-27T08:57:15.201Z</time>
      </trkpt>
      <trkpt lat="47.84647" lon="6.95585">
        <ele>1077.1</ele>
        <time>2026-08-27T08:57:16.209Z</time>
      </trkpt>
      <trkpt lat="47.84647" lon="6.95585">
        <ele>1077.4</ele>
        <time>2026-08-27T08:57:18.125Z</time>
      </trkpt>
      <trkpt lat="47.84647" lon="6.95585">
        <ele>1077.5</ele>
        <time>2026-08-27T08:57:19.134Z</time>
      </trkpt>
      <trkpt lat="47.84647" lon="6.95585">
        <ele>1077.3</ele>
        <time>2026-08-27T08:57:20.142Z</time>
      </trkpt>
      <trkpt lat="47.84647" lon="6.95585">
        <ele>1077.3</ele>
        <time>2026-08-27T08:57:21.150Z</time>
      </trkpt>
      <trkpt lat="47.84647" lon="6.95585">
        <ele>1077.3</ele>
        <time>2026-08-27T08:57:22.158Z</time>
      </trkpt>
      <trkpt lat="47.84647" lon="6.95585">
        <ele>1077.1</ele>
        <time>2026-08-27T08:57:23.167Z</time>
      </trkpt>
      <trkpt lat="47.84647" lon="6.95585">
        <ele>1076.9</ele>
        <time>2026-08-27T08:57:24.174Z</time>
      </trkpt>
      <trkpt lat="47.84647" lon="6.95585">
        <ele>1076.7</ele>
        <time>2026-08-27T08:57:25.184Z</time>
      </trkpt>
      <trkpt lat="47.84647" lon="6.95585">
        <ele>1076.5</ele>
        <time>2026-08-27T08:57:26.191Z</time>
      </trkpt>
      <trkpt lat="47.84647" lon="6.95585">
        <ele>1076.5</ele>
        <time>2026-08-27T08:57:27.200Z</time>
      </trkpt>
      <trkpt lat="47.84647" lon="6.95585">
        <ele>1076.7</ele>
        <time>2026-08-27T08:57:28.208Z</time>
      </trkpt>
      <trkpt lat="47.84647" lon="6.95585">
        <ele>1076.9</ele>
        <time>2026-08-27T08:57:30.124Z</time>
      </trkpt>
      <trkpt lat="47.84647" lon="6.95585">
        <ele>1077</ele>
        <time>2026-08-27T08:57:31.132Z</time>
      </trkpt>
      <trkpt lat="47.84647" lon="6.95585">
        <ele>1077.1</ele>
        <time>2026-08-27T08:57:32.140Z</time>
      </trkpt>
      <trkpt lat="47.84647" lon="6.95585">
        <ele>1077.3</ele>
        <time>2026-08-27T08:57:33.148Z</time>
      </trkpt>
      <trkpt lat="47.84647" lon="6.95585">
        <ele>1077.4</ele>
        <time>2026-08-27T08:57:34.156Z</time>
      </trkpt>
      <trkpt lat="47.84647" lon="6.95585">
        <ele>1077.3</ele>
        <time>2026-08-27T08:57:35.165Z</time>
      </trkpt>
      <trkpt lat="47.84647" lon="6.95586">
        <ele>1077.3</ele>
        <time>2026-08-27T08:57:36.173Z</time>
      </trkpt>
      <trkpt lat="47.84647" lon="6.95586">
        <ele>1077.3</ele>
        <time>2026-08-27T08:57:37.181Z</time>
      </trkpt>
      <trkpt lat="47.84647" lon="6.95586">
        <ele>1077.4</ele>
        <time>2026-08-27T08:57:38.190Z</time>
      </trkpt>
      <trkpt lat="47.84647" lon="6.95586">
        <ele>1077.3</ele>
        <time>2026-08-27T08:57:39.198Z</time>
      </trkpt>
      <trkpt lat="47.84646" lon="6.95586">
        <ele>1077.3</ele>
        <time>2026-08-27T08:57:41.215Z</time>
      </trkpt>
      <trkpt lat="47.84646" lon="6.95586">
        <ele>1077.4</ele>
        <time>2026-08-27T08:57:42.222Z</time>
      </trkpt>
      <trkpt lat="47.84646" lon="6.95586">
        <ele>1077.1</ele>
        <time>2026-08-27T08:57:44.139Z</time>
      </trkpt>
      <trkpt lat="47.84646" lon="6.95586">
        <ele>1077.2</ele>
        <time>2026-08-27T08:57:45.146Z</time>
      </trkpt>
      <trkpt lat="47.84646" lon="6.95586">
        <ele>1077.4</ele>
        <time>2026-08-27T08:57:46.156Z</time>
      </trkpt>
      <trkpt lat="47.84646" lon="6.95585">
        <ele>1077.6</ele>
        <time>2026-08-27T08:57:48.172Z</time>
      </trkpt>
      <trkpt lat="47.84646" lon="6.95585">
        <ele>1077.6</ele>
        <time>2026-08-27T08:57:49.179Z</time>
      </trkpt>
      <trkpt lat="47.84646" lon="6.95585">
        <ele>1077.6</ele>
        <time>2026-08-27T08:57:50.189Z</time>
      </trkpt>
      <trkpt lat="47.84646" lon="6.95585">
        <ele>1077.7</ele>
        <time>2026-08-27T08:57:51.197Z</time>
      </trkpt>
      <trkpt lat="47.84646" lon="6.95585">
        <ele>1077.4</ele>
        <time>2026-08-27T08:57:53.213Z</time>
      </trkpt>
      <trkpt lat="47.84646" lon="6.95585">
        <ele>1077</ele>
        <time>2026-08-27T08:57:55.128Z</time>
      </trkpt>
      <trkpt lat="47.84646" lon="6.95585">
        <ele>1077</ele>
        <time>2026-08-27T08:57:56.137Z</time>
      </trkpt>
      <trkpt lat="47.84646" lon="6.95584">
        <ele>1077.3</ele>
        <time>2026-08-27T08:57:57.145Z</time>
      </trkpt>
      <trkpt lat="47.84646" lon="6.95584">
        <ele>1077.3</ele>
        <time>2026-08-27T08:57:58.153Z</time>
      </trkpt>
      <trkpt lat="47.84647" lon="6.95584">
        <ele>1077.3</ele>
        <time>2026-08-27T08:57:59.161Z</time>
      </trkpt>
      <trkpt lat="47.84647" lon="6.95584">
        <ele>1077.3</ele>
        <time>2026-08-27T08:58:00.169Z</time>
      </trkpt>
      <trkpt lat="47.84647" lon="6.95584">
        <ele>1077.5</ele>
        <time>2026-08-27T08:58:01.178Z</time>
      </trkpt>
      <trkpt lat="47.84647" lon="6.95584">
        <ele>1077.6</ele>
        <time>2026-08-27T08:58:02.186Z</time>
      </trkpt>
      <trkpt lat="47.84647" lon="6.95583">
        <ele>1077.5</ele>
        <time>2026-08-27T08:58:03.195Z</time>
      </trkpt>
      <trkpt lat="47.84647" lon="6.95583">
        <ele>1077.3</ele>
        <time>2026-08-27T08:58:05.211Z</time>
      </trkpt>
      <trkpt lat="47.84647" lon="6.95583">
        <ele>1077</ele>
        <time>2026-08-27T08:58:06.240Z</time>
      </trkpt>
      <trkpt lat="47.84647" lon="6.95583">
        <ele>1076.7</ele>
        <time>2026-08-27T08:58:08.135Z</time>
      </trkpt>
      <trkpt lat="47.84647" lon="6.95583">
        <ele>1076.7</ele>
        <time>2026-08-27T08:58:09.143Z</time>
      </trkpt>
      <trkpt lat="47.84647" lon="6.95583">
        <ele>1076.6</ele>
        <time>2026-08-27T08:58:10.253Z</time>
      </trkpt>
      <trkpt lat="47.84647" lon="6.95583">
        <ele>1076.6</ele>
        <time>2026-08-27T08:58:11.260Z</time>
      </trkpt>
      <trkpt lat="47.84647" lon="6.95583">
        <ele>1076.5</ele>
        <time>2026-08-27T08:58:13.176Z</time>
      </trkpt>
      <trkpt lat="47.84647" lon="6.95583">
        <ele>1076.4</ele>
        <time>2026-08-27T08:58:14.184Z</time>
      </trkpt>
      <trkpt lat="47.84647" lon="6.95582">
        <ele>1076.3</ele>
        <time>2026-08-27T08:58:15.193Z</time>
      </trkpt>
      <trkpt lat="47.84647" lon="6.95582">
        <ele>1076.4</ele>
        <time>2026-08-27T08:58:16.201Z</time>
      </trkpt>
      <trkpt lat="47.84647" lon="6.95582">
        <ele>1076.5</ele>
        <time>2026-08-27T08:58:17.209Z</time>
      </trkpt>
      <trkpt lat="47.84646" lon="6.95582">
        <ele>1076.5</ele>
        <time>2026-08-27T08:58:18.217Z</time>
      </trkpt>
      <trkpt lat="47.84646" lon="6.95581">
        <ele>1076.4</ele>
        <time>2026-08-27T08:58:20.133Z</time>
      </trkpt>
      <trkpt lat="47.84646" lon="6.9558">
        <ele>1076.2</ele>
        <time>2026-08-27T08:58:21.242Z</time>
      </trkpt>
      <trkpt lat="47.84646" lon="6.9558">
        <ele>1075.6</ele>
        <time>2026-08-27T08:58:23.158Z</time>
      </trkpt>
      <trkpt lat="47.84646" lon="6.9558">
        <ele>1075.7</ele>
        <time>2026-08-27T08:58:24.166Z</time>
      </trkpt>
      <trkpt lat="47.84646" lon="6.9558">
        <ele>1075.7</ele>
        <time>2026-08-27T08:58:25.174Z</time>
      </trkpt>
      <trkpt lat="47.84646" lon="6.9558">
        <ele>1076</ele>
        <time>2026-08-27T08:58:26.183Z</time>
      </trkpt>
      <trkpt lat="47.84646" lon="6.95579">
        <ele>1076</ele>
        <time>2026-08-27T08:58:27.192Z</time>
      </trkpt>
      <trkpt lat="47.84646" lon="6.95579">
        <ele>1076.1</ele>
        <time>2026-08-27T08:58:28.199Z</time>
      </trkpt>
      <trkpt lat="47.84646" lon="6.95579">
        <ele>1076.3</ele>
        <time>2026-08-27T08:58:29.207Z</time>
      </trkpt>
      <trkpt lat="47.84646" lon="6.95579">
        <ele>1076.6</ele>
        <time>2026-08-27T08:58:30.216Z</time>
      </trkpt>
      <trkpt lat="47.84646" lon="6.95579">
        <ele>1076.5</ele>
        <time>2026-08-27T08:58:31.225Z</time>
      </trkpt>
      <trkpt lat="47.84646" lon="6.95579">
        <ele>1076.4</ele>
        <time>2026-08-27T08:58:33.139Z</time>
      </trkpt>
      <trkpt lat="47.84646" lon="6.9558">
        <ele>1076.2</ele>
        <time>2026-08-27T08:58:34.148Z</time>
      </trkpt>
      <trkpt lat="47.84646" lon="6.9558">
        <ele>1076.3</ele>
        <time>2026-08-27T08:58:35.157Z</time>
      </trkpt>
      <trkpt lat="47.84646" lon="6.9558">
        <ele>1076.2</ele>
        <time>2026-08-27T08:58:36.165Z</time>
      </trkpt>
      <trkpt lat="47.84646" lon="6.9558">
        <ele>1076.1</ele>
        <time>2026-08-27T08:58:37.173Z</time>
      </trkpt>
      <trkpt lat="47.84646" lon="6.9558">
        <ele>1076.2</ele>
        <time>2026-08-27T08:58:38.180Z</time>
      </trkpt>
      <trkpt lat="47.84646" lon="6.9558">
        <ele>1076.2</ele>
        <time>2026-08-27T08:58:39.188Z</time>
      </trkpt>
      <trkpt lat="47.84646" lon="6.9558">
        <ele>1076.2</ele>
        <time>2026-08-27T08:58:40.198Z</time>
      </trkpt>
      <trkpt lat="47.84646" lon="6.9558">
        <ele>1076.2</ele>
        <time>2026-08-27T08:58:41.205Z</time>
      </trkpt>
      <trkpt lat="47.84646" lon="6.9558">
        <ele>1076.1</ele>
        <time>2026-08-27T08:58:42.213Z</time>
      </trkpt>
      <trkpt lat="47.84646" lon="6.9558">
        <ele>1076.1</ele>
        <time>2026-08-27T08:58:43.221Z</time>
      </trkpt>
      <trkpt lat="47.84646" lon="6.9558">
        <ele>1076.1</ele>
        <time>2026-08-27T08:58:44.229Z</time>
      </trkpt>
      <trkpt lat="47.84646" lon="6.9558">
        <ele>1076.3</ele>
        <time>2026-08-27T08:58:45.238Z</time>
      </trkpt>
      <trkpt lat="47.84646" lon="6.9558">
        <ele>1076.3</ele>
        <time>2026-08-27T08:58:47.153Z</time>
      </trkpt>
      <trkpt lat="47.84646" lon="6.9558">
        <ele>1076.4</ele>
        <time>2026-08-27T08:58:48.161Z</time>
      </trkpt>
      <trkpt lat="47.84646" lon="6.9558">
        <ele>1076.2</ele>
        <time>2026-08-27T08:58:49.169Z</time>
      </trkpt>
      <trkpt lat="47.84646" lon="6.9558">
        <ele>1076</ele>
        <time>2026-08-27T08:58:50.178Z</time>
      </trkpt>
      <trkpt lat="47.84646" lon="6.9558">
        <ele>1075.9</ele>
        <time>2026-08-27T08:58:51.187Z</time>
      </trkpt>
      <trkpt lat="47.84646" lon="6.9558">
        <ele>1075.5</ele>
        <time>2026-08-27T08:58:52.194Z</time>
      </trkpt>
      <trkpt lat="47.84646" lon="6.9558">
        <ele>1075.6</ele>
        <time>2026-08-27T08:58:53.202Z</time>
      </trkpt>
      <trkpt lat="47.84646" lon="6.9558">
        <ele>1075.7</ele>
        <time>2026-08-27T08:58:54.211Z</time>
      </trkpt>
      <trkpt lat="47.84646" lon="6.9558">
        <ele>1075.9</ele>
        <time>2026-08-27T08:58:55.218Z</time>
      </trkpt>
      <trkpt lat="47.84646" lon="6.9558">
        <ele>1076</ele>
        <time>2026-08-27T08:58:56.227Z</time>
      </trkpt>
      <trkpt lat="47.84646" lon="6.9558">
        <ele>1076.1</ele>
        <time>2026-08-27T08:58:57.235Z</time>
      </trkpt>
      <trkpt lat="47.84646" lon="6.9558">
        <ele>1076.3</ele>
        <time>2026-08-27T08:58:58.244Z</time>
      </trkpt>
      <trkpt lat="47.84646" lon="6.9558">
        <ele>1076.5</ele>
        <time>2026-08-27T08:59:00.159Z</time>
      </trkpt>
      <trkpt lat="47.84645" lon="6.9558">
        <ele>1076.5</ele>
        <time>2026-08-27T08:59:01.167Z</time>
      </trkpt>
      <trkpt lat="47.84645" lon="6.9558">
        <ele>1076.5</ele>
        <time>2026-08-27T08:59:02.175Z</time>
      </trkpt>
      <trkpt lat="47.84645" lon="6.9558">
        <ele>1076.2</ele>
        <time>2026-08-27T08:59:03.183Z</time>
      </trkpt>
      <trkpt lat="47.84645" lon="6.9558">
        <ele>1076.2</ele>
        <time>2026-08-27T08:59:04.192Z</time>
      </trkpt>
      <trkpt lat="47.84645" lon="6.95579">
        <ele>1076.1</ele>
        <time>2026-08-27T08:59:05.200Z</time>
      </trkpt>
      <trkpt lat="47.84645" lon="6.95579">
        <ele>1076.1</ele>
        <time>2026-08-27T08:59:06.207Z</time>
      </trkpt>
      <trkpt lat="47.84645" lon="6.95579">
        <ele>1076.1</ele>
        <time>2026-08-27T08:59:07.216Z</time>
      </trkpt>
      <trkpt lat="47.84645" lon="6.95579">
        <ele>1076.2</ele>
        <time>2026-08-27T08:59:08.225Z</time>
      </trkpt>
      <trkpt lat="47.84645" lon="6.95579">
        <ele>1076.2</ele>
        <time>2026-08-27T08:59:10.140Z</time>
      </trkpt>
      <trkpt lat="47.84645" lon="6.95579">
        <ele>1076.2</ele>
        <time>2026-08-27T08:59:11.147Z</time>
      </trkpt>
      <trkpt lat="47.84645" lon="6.95579">
        <ele>1076.2</ele>
        <time>2026-08-27T08:59:12.155Z</time>
      </trkpt>
      <trkpt lat="47.84645" lon="6.95579">
        <ele>1076.2</ele>
        <time>2026-08-27T08:59:13.164Z</time>
      </trkpt>
      <trkpt lat="47.84645" lon="6.95579">
        <ele>1076.4</ele>
        <time>2026-08-27T08:59:14.172Z</time>
      </trkpt>
      <trkpt lat="47.84645" lon="6.95579">
        <ele>1076.4</ele>
        <time>2026-08-27T08:59:15.181Z</time>
      </trkpt>
      <trkpt lat="47.84646" lon="6.95579">
        <ele>1076.4</ele>
        <time>2026-08-27T08:59:16.188Z</time>
      </trkpt>
      <trkpt lat="47.84646" lon="6.95579">
        <ele>1076.5</ele>
        <time>2026-08-27T08:59:17.197Z</time>
      </trkpt>
      <trkpt lat="47.84646" lon="6.95579">
        <ele>1076.3</ele>
        <time>2026-08-27T08:59:18.204Z</time>
      </trkpt>
      <trkpt lat="47.84645" lon="6.95579">
        <ele>1076.1</ele>
        <time>2026-08-27T08:59:20.124Z</time>
      </trkpt>
      <trkpt lat="47.84645" lon="6.95579">
        <ele>1075.9</ele>
        <time>2026-08-27T08:59:21.132Z</time>
      </trkpt>
      <trkpt lat="47.84646" lon="6.95579">
        <ele>1075.8</ele>
        <time>2026-08-27T08:59:22.140Z</time>
      </trkpt>
      <trkpt lat="47.84646" lon="6.95579">
        <ele>1076.2</ele>
        <time>2026-08-27T08:59:23.148Z</time>
      </trkpt>
      <trkpt lat="47.84646" lon="6.95579">
        <ele>1076.4</ele>
        <time>2026-08-27T08:59:24.157Z</time>
      </trkpt>
      <trkpt lat="47.84646" lon="6.95579">
        <ele>1076.5</ele>
        <time>2026-08-27T08:59:25.165Z</time>
      </trkpt>
      <trkpt lat="47.84646" lon="6.9558">
        <ele>1076.6</ele>
        <time>2026-08-27T08:59:26.173Z</time>
      </trkpt>
      <trkpt lat="47.84646" lon="6.9558">
        <ele>1076.7</ele>
        <time>2026-08-27T08:59:27.181Z</time>
      </trkpt>
      <trkpt lat="47.84646" lon="6.9558">
        <ele>1076.9</ele>
        <time>2026-08-27T08:59:28.189Z</time>
      </trkpt>
      <trkpt lat="47.84646" lon="6.95581">
        <ele>1076.9</ele>
        <time>2026-08-27T08:59:29.198Z</time>
      </trkpt>
      <trkpt lat="47.84646" lon="6.95581">
        <ele>1076.9</ele>
        <time>2026-08-27T08:59:30.207Z</time>
      </trkpt>
      <trkpt lat="47.84646" lon="6.95581">
        <ele>1076.9</ele>
        <time>2026-08-27T08:59:31.214Z</time>
      </trkpt>
      <trkpt lat="47.84646" lon="6.95581">
        <ele>1076.9</ele>
        <time>2026-08-27T08:59:32.222Z</time>
      </trkpt>
      <trkpt lat="47.84646" lon="6.95582">
        <ele>1076.5</ele>
        <time>2026-08-27T08:59:34.138Z</time>
      </trkpt>
      <trkpt lat="47.84646" lon="6.95582">
        <ele>1076.5</ele>
        <time>2026-08-27T08:59:35.247Z</time>
      </trkpt>
      <trkpt lat="47.84646" lon="6.95582">
        <ele>1076.5</ele>
        <time>2026-08-27T08:59:36.255Z</time>
      </trkpt>
      <trkpt lat="47.84646" lon="6.95583">
        <ele>1076.4</ele>
        <time>2026-08-27T08:59:38.171Z</time>
      </trkpt>
      <trkpt lat="47.84647" lon="6.95583">
        <ele>1076.3</ele>
        <time>2026-08-27T08:59:39.178Z</time>
      </trkpt>
      <trkpt lat="47.84647" lon="6.95583">
        <ele>1076.3</ele>
        <time>2026-08-27T08:59:40.186Z</time>
      </trkpt>
      <trkpt lat="47.84647" lon="6.95583">
        <ele>1076.2</ele>
        <time>2026-08-27T08:59:41.195Z</time>
      </trkpt>
      <trkpt lat="47.84647" lon="6.95583">
        <ele>1076.2</ele>
        <time>2026-08-27T08:59:42.220Z</time>
      </trkpt>
      <trkpt lat="47.84647" lon="6.95583">
        <ele>1076.4</ele>
        <time>2026-08-27T08:59:44.220Z</time>
      </trkpt>
      <trkpt lat="47.84647" lon="6.95583">
        <ele>1076.6</ele>
        <time>2026-08-27T08:59:45.228Z</time>
      </trkpt>
      <trkpt lat="47.84647" lon="6.95582">
        <ele>1076.5</ele>
        <time>2026-08-27T08:59:46.235Z</time>
      </trkpt>
      <trkpt lat="47.84647" lon="6.95582">
        <ele>1076.2</ele>
        <time>2026-08-27T08:59:48.151Z</time>
      </trkpt>
      <trkpt lat="47.84647" lon="6.95582">
        <ele>1076.2</ele>
        <time>2026-08-27T08:59:49.160Z</time>
      </trkpt>
      <trkpt lat="47.84647" lon="6.95582">
        <ele>1076</ele>
        <time>2026-08-27T08:59:50.269Z</time>
      </trkpt>
      <trkpt lat="47.84647" lon="6.95584">
        <ele>1076.1</ele>
        <time>2026-08-27T08:59:52.183Z</time>
      </trkpt>
      <trkpt lat="47.84646" lon="6.95586">
        <ele>1076.5</ele>
        <time>2026-08-27T08:59:53.192Z</time>
      </trkpt>
      <trkpt lat="47.84646" lon="6.95587">
        <ele>1076.5</ele>
        <time>2026-08-27T08:59:54.201Z</time>
      </trkpt>
      <trkpt lat="47.84646" lon="6.95589">
        <ele>1076.7</ele>
        <time>2026-08-27T08:59:55.209Z</time>
      </trkpt>
      <trkpt lat="47.84646" lon="6.95591">
        <ele>1077</ele>
        <time>2026-08-27T08:59:56.216Z</time>
      </trkpt>
      <trkpt lat="47.84646" lon="6.95594">
        <ele>1077.5</ele>
        <time>2026-08-27T08:59:58.133Z</time>
      </trkpt>
      <trkpt lat="47.84646" lon="6.95595">
        <ele>1077.7</ele>
        <time>2026-08-27T08:59:59.141Z</time>
      </trkpt>
      <trkpt lat="47.84645" lon="6.95597">
        <ele>1077.8</ele>
        <time>2026-08-27T09:00:00.148Z</time>
      </trkpt>
      <trkpt lat="47.84645" lon="6.95598">
        <ele>1078.1</ele>
        <time>2026-08-27T09:00:01.258Z</time>
      </trkpt>
      <trkpt lat="47.84644" lon="6.95599">
        <ele>1078.3</ele>
        <time>2026-08-27T09:00:03.173Z</time>
      </trkpt>
      <trkpt lat="47.84644" lon="6.95599">
        <ele>1078.4</ele>
        <time>2026-08-27T09:00:04.181Z</time>
      </trkpt>
      <trkpt lat="47.84645" lon="6.956">
        <ele>1078.6</ele>
        <time>2026-08-27T09:00:05.189Z</time>
      </trkpt>
      <trkpt lat="47.84645" lon="6.956">
        <ele>1079.1</ele>
        <time>2026-08-27T09:00:06.197Z</time>
      </trkpt>
      <trkpt lat="47.84645" lon="6.956">
        <ele>1078.8</ele>
        <time>2026-08-27T09:00:07.205Z</time>
      </trkpt>
      <trkpt lat="47.84645" lon="6.956">
        <ele>1079.1</ele>
        <time>2026-08-27T09:00:08.213Z</time>
      </trkpt>
      <trkpt lat="47.84645" lon="6.95601">
        <ele>1079.4</ele>
        <time>2026-08-27T09:00:10.229Z</time>
      </trkpt>
      <trkpt lat="47.84645" lon="6.95601">
        <ele>1079.9</ele>
        <time>2026-08-27T09:00:12.245Z</time>
      </trkpt>
      <trkpt lat="47.84645" lon="6.95601">
        <ele>1080.1</ele>
        <time>2026-08-27T09:00:14.060Z</time>
      </trkpt>
      <trkpt lat="47.84645" lon="6.95602">
        <ele>1080.5</ele>
        <time>2026-08-27T09:00:15.271Z</time>
      </trkpt>
      <trkpt lat="47.84645" lon="6.95602">
        <ele>1080.6</ele>
        <time>2026-08-27T09:00:17.185Z</time>
      </trkpt>
      <trkpt lat="47.84645" lon="6.95603">
        <ele>1080.7</ele>
        <time>2026-08-27T09:00:18.193Z</time>
      </trkpt>
      <trkpt lat="47.84645" lon="6.95604">
        <ele>1080.5</ele>
        <time>2026-08-27T09:00:19.218Z</time>
      </trkpt>
      <trkpt lat="47.84646" lon="6.95606">
        <ele>1080.6</ele>
        <time>2026-08-27T09:00:21.218Z</time>
      </trkpt>
      <trkpt lat="47.84646" lon="6.95607">
        <ele>1081.3</ele>
        <time>2026-08-27T09:00:23.201Z</time>
      </trkpt>
      <trkpt lat="47.84645" lon="6.95609">
        <ele>1081.7</ele>
        <time>2026-08-27T09:00:25.159Z</time>
      </trkpt>
      <trkpt lat="47.84644" lon="6.95609">
        <ele>1082.3</ele>
        <time>2026-08-27T09:00:26.159Z</time>
      </trkpt>
      <trkpt lat="47.84644" lon="6.95609">
        <ele>1082.4</ele>
        <time>2026-08-27T09:00:27.268Z</time>
      </trkpt>
      <trkpt lat="47.84644" lon="6.95609">
        <ele>1082.5</ele>
        <time>2026-08-27T09:00:29.182Z</time>
      </trkpt>
      <trkpt lat="47.84644" lon="6.95609">
        <ele>1082.6</ele>
        <time>2026-08-27T09:00:30.191Z</time>
      </trkpt>
      <trkpt lat="47.84644" lon="6.95608">
        <ele>1082.6</ele>
        <time>2026-08-27T09:00:31.198Z</time>
      </trkpt>
      <trkpt lat="47.84644" lon="6.95608">
        <ele>1082.6</ele>
        <time>2026-08-27T09:00:32.240Z</time>
      </trkpt>
      <trkpt lat="47.84644" lon="6.95609">
        <ele>1082.8</ele>
        <time>2026-08-27T09:00:34.256Z</time>
      </trkpt>
      <trkpt lat="47.84644" lon="6.95611">
        <ele>1083.1</ele>
        <time>2026-08-27T09:00:35.718Z</time>
      </trkpt>
      <trkpt lat="47.84644" lon="6.95612">
        <ele>1083.1</ele>
        <time>2026-08-27T09:00:37.248Z</time>
      </trkpt>
      <trkpt lat="47.84644" lon="6.95613">
        <ele>1082.7</ele>
        <time>2026-08-27T09:00:39.179Z</time>
      </trkpt>
      <trkpt lat="47.84644" lon="6.95614">
        <ele>1083.3</ele>
        <time>2026-08-27T09:00:41.179Z</time>
      </trkpt>
      <trkpt lat="47.84645" lon="6.95614">
        <ele>1083.7</ele>
        <time>2026-08-27T09:00:42.187Z</time>
      </trkpt>
      <trkpt lat="47.84645" lon="6.95615">
        <ele>1084.1</ele>
        <time>2026-08-27T09:00:44.204Z</time>
      </trkpt>
      <trkpt lat="47.84646" lon="6.95615">
        <ele>1084.3</ele>
        <time>2026-08-27T09:00:45.211Z</time>
      </trkpt>
      <trkpt lat="47.84646" lon="6.95616">
        <ele>1084.4</ele>
        <time>2026-08-27T09:00:46.219Z</time>
      </trkpt>
      <trkpt lat="47.84647" lon="6.95617">
        <ele>1084.4</ele>
        <time>2026-08-27T09:00:47.220Z</time>
      </trkpt>
      <trkpt lat="47.84647" lon="6.95618">
        <ele>1084.5</ele>
        <time>2026-08-27T09:00:48.236Z</time>
      </trkpt>
      <trkpt lat="47.84647" lon="6.95619">
        <ele>1084.2</ele>
        <time>2026-08-27T09:00:49.243Z</time>
      </trkpt>
      <trkpt lat="47.84647" lon="6.9562">
        <ele>1084.3</ele>
        <time>2026-08-27T09:00:51.118Z</time>
      </trkpt>
      <trkpt lat="47.84647" lon="6.9562">
        <ele>1084.6</ele>
        <time>2026-08-27T09:00:52.167Z</time>
      </trkpt>
      <trkpt lat="47.84646" lon="6.9562">
        <ele>1084.8</ele>
        <time>2026-08-27T09:00:53.176Z</time>
      </trkpt>
      <trkpt lat="47.84646" lon="6.9562">
        <ele>1085</ele>
        <time>2026-08-27T09:00:54.184Z</time>
      </trkpt>
      <trkpt lat="47.84646" lon="6.95619">
        <ele>1085.2</ele>
        <time>2026-08-27T09:00:55.191Z</time>
      </trkpt>
      <trkpt lat="47.84646" lon="6.9562">
        <ele>1085.2</ele>
        <time>2026-08-27T09:00:57.141Z</time>
      </trkpt>
      <trkpt lat="47.84646" lon="6.95619">
        <ele>1085.5</ele>
        <time>2026-08-27T09:00:58.216Z</time>
      </trkpt>
      <trkpt lat="47.84646" lon="6.95619">
        <ele>1085.7</ele>
        <time>2026-08-27T09:00:59.225Z</time>
      </trkpt>
      <trkpt lat="47.84646" lon="6.95619">
        <ele>1085.6</ele>
        <time>2026-08-27T09:01:01.140Z</time>
      </trkpt>
      <trkpt lat="47.84645" lon="6.95619">
        <ele>1085.8</ele>
        <time>2026-08-27T09:01:02.147Z</time>
      </trkpt>
      <trkpt lat="47.84645" lon="6.95619">
        <ele>1085.9</ele>
        <time>2026-08-27T09:01:03.156Z</time>
      </trkpt>
      <trkpt lat="47.84645" lon="6.9562">
        <ele>1086.1</ele>
        <time>2026-08-27T09:01:04.163Z</time>
      </trkpt>
      <trkpt lat="47.84645" lon="6.9562">
        <ele>1086.2</ele>
        <time>2026-08-27T09:01:05.171Z</time>
      </trkpt>
      <trkpt lat="47.84645" lon="6.9562">
        <ele>1086.3</ele>
        <time>2026-08-27T09:01:06.238Z</time>
      </trkpt>
      <trkpt lat="47.84644" lon="6.9562">
        <ele>1086.5</ele>
        <time>2026-08-27T09:01:08.096Z</time>
      </trkpt>
      <trkpt lat="47.84644" lon="6.9562">
        <ele>1086.6</ele>
        <time>2026-08-27T09:01:09.204Z</time>
      </trkpt>
      <trkpt lat="47.84644" lon="6.9562">
        <ele>1086.6</ele>
        <time>2026-08-27T09:01:10.220Z</time>
      </trkpt>
      <trkpt lat="47.84644" lon="6.9562">
        <ele>1087.3</ele>
        <time>2026-08-27T09:01:11.220Z</time>
      </trkpt>
      <trkpt lat="47.84644" lon="6.9562">
        <ele>1087.3</ele>
        <time>2026-08-27T09:01:12.229Z</time>
      </trkpt>
      <trkpt lat="47.84644" lon="6.95621">
        <ele>1087.3</ele>
        <time>2026-08-27T09:01:13.236Z</time>
      </trkpt>
      <trkpt lat="47.84644" lon="6.95622">
        <ele>1087.1</ele>
        <time>2026-08-27T09:01:15.152Z</time>
      </trkpt>
      <trkpt lat="47.84644" lon="6.95622">
        <ele>1087</ele>
        <time>2026-08-27T09:01:16.160Z</time>
      </trkpt>
      <trkpt lat="47.84644" lon="6.95624">
        <ele>1086.6</ele>
        <time>2026-08-27T09:01:18.176Z</time>
      </trkpt>
      <trkpt lat="47.84644" lon="6.95625">
        <ele>1086.7</ele>
        <time>2026-08-27T09:01:19.184Z</time>
      </trkpt>
      <trkpt lat="47.84644" lon="6.95626">
        <ele>1086.8</ele>
        <time>2026-08-27T09:01:20.193Z</time>
      </trkpt>
      <trkpt lat="47.84644" lon="6.95627">
        <ele>1086.9</ele>
        <time>2026-08-27T09:01:21.200Z</time>
      </trkpt>
      <trkpt lat="47.84644" lon="6.95628">
        <ele>1087</ele>
        <time>2026-08-27T09:01:22.208Z</time>
      </trkpt>
      <trkpt lat="47.84645" lon="6.9563">
        <ele>1087.1</ele>
        <time>2026-08-27T09:01:23.216Z</time>
      </trkpt>
      <trkpt lat="47.84645" lon="6.95631">
        <ele>1087.1</ele>
        <time>2026-08-27T09:01:24.225Z</time>
      </trkpt>
      <trkpt lat="47.84646" lon="6.95633">
        <ele>1087.5</ele>
        <time>2026-08-27T09:01:25.233Z</time>
      </trkpt>
      <trkpt lat="47.84646" lon="6.95636">
        <ele>1087</ele>
        <time>2026-08-27T09:01:27.266Z</time>
      </trkpt>
      <trkpt lat="47.84646" lon="6.95639">
        <ele>1086.7</ele>
        <time>2026-08-27T09:01:29.182Z</time>
      </trkpt>
      <trkpt lat="47.84646" lon="6.9564">
        <ele>1086.7</ele>
        <time>2026-08-27T09:01:31.197Z</time>
      </trkpt>
      <trkpt lat="47.84645" lon="6.9564">
        <ele>1086.8</ele>
        <time>2026-08-27T09:01:32.205Z</time>
      </trkpt>
      <trkpt lat="47.84645" lon="6.95641">
        <ele>1086.8</ele>
        <time>2026-08-27T09:01:33.255Z</time>
      </trkpt>
      <trkpt lat="47.84645" lon="6.95642">
        <ele>1087.2</ele>
        <time>2026-08-27T09:01:35.230Z</time>
      </trkpt>
      <trkpt lat="47.84645" lon="6.95644">
        <ele>1087.7</ele>
        <time>2026-08-27T09:01:37.145Z</time>
      </trkpt>
      <trkpt lat="47.84644" lon="6.95646">
        <ele>1087.9</ele>
        <time>2026-08-27T09:01:38.154Z</time>
      </trkpt>
      <trkpt lat="47.84644" lon="6.95647">
        <ele>1088</ele>
        <time>2026-08-27T09:01:39.162Z</time>
      </trkpt>
      <trkpt lat="47.84644" lon="6.95648">
        <ele>1088</ele>
        <time>2026-08-27T09:01:40.211Z</time>
      </trkpt>
      <trkpt lat="47.84644" lon="6.95652">
        <ele>1088.4</ele>
        <time>2026-08-27T09:01:42.186Z</time>
      </trkpt>
      <trkpt lat="47.84644" lon="6.95653">
        <ele>1088.5</ele>
        <time>2026-08-27T09:01:43.193Z</time>
      </trkpt>
      <trkpt lat="47.84645" lon="6.95655">
        <ele>1088.4</ele>
        <time>2026-08-27T09:01:44.202Z</time>
      </trkpt>
      <trkpt lat="47.84645" lon="6.95658">
        <ele>1088.6</ele>
        <time>2026-08-27T09:01:45.210Z</time>
      </trkpt>
      <trkpt lat="47.84645" lon="6.9566">
        <ele>1088.6</ele>
        <time>2026-08-27T09:01:46.217Z</time>
      </trkpt>
      <trkpt lat="47.84645" lon="6.95663">
        <ele>1088.4</ele>
        <time>2026-08-27T09:01:48.234Z</time>
      </trkpt>
      <trkpt lat="47.84646" lon="6.95666">
        <ele>1089</ele>
        <time>2026-08-27T09:01:50.250Z</time>
      </trkpt>
      <trkpt lat="47.84647" lon="6.95667">
        <ele>1089.4</ele>
        <time>2026-08-27T09:01:52.133Z</time>
      </trkpt>
      <trkpt lat="47.84647" lon="6.95668">
        <ele>1090.2</ele>
        <time>2026-08-27T09:01:53.275Z</time>
      </trkpt>
      <trkpt lat="47.84647" lon="6.95668">
        <ele>1090.5</ele>
        <time>2026-08-27T09:01:54.282Z</time>
      </trkpt>
      <trkpt lat="47.84646" lon="6.95669">
        <ele>1090.7</ele>
        <time>2026-08-27T09:01:56.097Z</time>
      </trkpt>
      <trkpt lat="47.84646" lon="6.9567">
        <ele>1090.6</ele>
        <time>2026-08-27T09:01:57.206Z</time>
      </trkpt>
      <trkpt lat="47.84646" lon="6.95671">
        <ele>1090.6</ele>
        <time>2026-08-27T09:01:58.215Z</time>
      </trkpt>
      <trkpt lat="47.84646" lon="6.95673">
        <ele>1090.5</ele>
        <time>2026-08-27T09:02:00.231Z</time>
      </trkpt>
      <trkpt lat="47.84646" lon="6.95676">
        <ele>1090.3</ele>
        <time>2026-08-27T09:02:02.145Z</time>
      </trkpt>
      <trkpt lat="47.84647" lon="6.9568">
        <ele>1090.2</ele>
        <time>2026-08-27T09:02:04.238Z</time>
      </trkpt>
      <trkpt lat="47.84648" lon="6.95683">
        <ele>1090.2</ele>
        <time>2026-08-27T09:02:06.178Z</time>
      </trkpt>
      <trkpt lat="47.84648" lon="6.95684">
        <ele>1090.1</ele>
        <time>2026-08-27T09:02:07.186Z</time>
      </trkpt>
      <trkpt lat="47.84647" lon="6.95684">
        <ele>1089.9</ele>
        <time>2026-08-27T09:02:08.194Z</time>
      </trkpt>
      <trkpt lat="47.84647" lon="6.95685">
        <ele>1089.9</ele>
        <time>2026-08-27T09:02:09.202Z</time>
      </trkpt>
      <trkpt lat="47.84647" lon="6.95686">
        <ele>1090</ele>
        <time>2026-08-27T09:02:10.210Z</time>
      </trkpt>
      <trkpt lat="47.84646" lon="6.95688">
        <ele>1090</ele>
        <time>2026-08-27T09:02:11.218Z</time>
      </trkpt>
      <trkpt lat="47.84646" lon="6.95689">
        <ele>1089.9</ele>
        <time>2026-08-27T09:02:12.227Z</time>
      </trkpt>
      <trkpt lat="47.84646" lon="6.9569">
        <ele>1090.1</ele>
        <time>2026-08-27T09:02:13.235Z</time>
      </trkpt>
      <trkpt lat="47.84646" lon="6.95691">
        <ele>1090.3</ele>
        <time>2026-08-27T09:02:14.243Z</time>
      </trkpt>
      <trkpt lat="47.84646" lon="6.95691">
        <ele>1090.4</ele>
        <time>2026-08-27T09:02:15.250Z</time>
      </trkpt>
      <trkpt lat="47.84646" lon="6.95691">
        <ele>1090.8</ele>
        <time>2026-08-27T09:02:17.166Z</time>
      </trkpt>
      <trkpt lat="47.84645" lon="6.95692">
        <ele>1090.9</ele>
        <time>2026-08-27T09:02:18.175Z</time>
      </trkpt>
      <trkpt lat="47.84645" lon="6.95692">
        <ele>1090.9</ele>
        <time>2026-08-27T09:02:19.183Z</time>
      </trkpt>
      <trkpt lat="47.84645" lon="6.95693">
        <ele>1091</ele>
        <time>2026-08-27T09:02:20.257Z</time>
      </trkpt>
      <trkpt lat="47.84645" lon="6.95694">
        <ele>1091.6</ele>
        <time>2026-08-27T09:02:22.291Z</time>
      </trkpt>
      <trkpt lat="47.84645" lon="6.95695">
        <ele>1092</ele>
        <time>2026-08-27T09:02:24.222Z</time>
      </trkpt>
      <trkpt lat="47.84645" lon="6.95695">
        <ele>1092</ele>
        <time>2026-08-27T09:02:25.230Z</time>
      </trkpt>
      <trkpt lat="47.84646" lon="6.95696">
        <ele>1092.3</ele>
        <time>2026-08-27T09:02:27.255Z</time>
      </trkpt>
      <trkpt lat="47.84646" lon="6.95697">
        <ele>1092.5</ele>
        <time>2026-08-27T09:02:28.255Z</time>
      </trkpt>
      <trkpt lat="47.84646" lon="6.95699">
        <ele>1092.8</ele>
        <time>2026-08-27T09:02:30.271Z</time>
      </trkpt>
      <trkpt lat="47.84646" lon="6.95701">
        <ele>1092.9</ele>
        <time>2026-08-27T09:02:32.094Z</time>
      </trkpt>
      <trkpt lat="47.84646" lon="6.95702">
        <ele>1093.4</ele>
        <time>2026-08-27T09:02:33.195Z</time>
      </trkpt>
      <trkpt lat="47.84647" lon="6.95703">
        <ele>1093.5</ele>
        <time>2026-08-27T09:02:34.202Z</time>
      </trkpt>
      <trkpt lat="47.84647" lon="6.95705">
        <ele>1093.8</ele>
        <time>2026-08-27T09:02:35.210Z</time>
      </trkpt>
      <trkpt lat="47.84648" lon="6.95708">
        <ele>1094</ele>
        <time>2026-08-27T09:02:36.218Z</time>
      </trkpt>
      <trkpt lat="47.84648" lon="6.9571">
        <ele>1094.2</ele>
        <time>2026-08-27T09:02:37.226Z</time>
      </trkpt>
      <trkpt lat="47.84647" lon="6.95714">
        <ele>1094.5</ele>
        <time>2026-08-27T09:02:39.142Z</time>
      </trkpt>
      <trkpt lat="47.84647" lon="6.95715">
        <ele>1094.7</ele>
        <time>2026-08-27T09:02:40.151Z</time>
      </trkpt>
      <trkpt lat="47.84648" lon="6.95715">
        <ele>1094.8</ele>
        <time>2026-08-27T09:02:41.276Z</time>
      </trkpt>
      <trkpt lat="47.84647" lon="6.95716">
        <ele>1095.2</ele>
        <time>2026-08-27T09:02:43.174Z</time>
      </trkpt>
      <trkpt lat="47.84647" lon="6.95717">
        <ele>1095.4</ele>
        <time>2026-08-27T09:02:44.182Z</time>
      </trkpt>
      <trkpt lat="47.84648" lon="6.95717">
        <ele>1095.7</ele>
        <time>2026-08-27T09:02:46.198Z</time>
      </trkpt>
      <trkpt lat="47.84648" lon="6.95717">
        <ele>1095.8</ele>
        <time>2026-08-27T09:02:47.206Z</time>
      </trkpt>
      <trkpt lat="47.84648" lon="6.95717">
        <ele>1095.9</ele>
        <time>2026-08-27T09:02:48.214Z</time>
      </trkpt>
      <trkpt lat="47.84648" lon="6.95719">
        <ele>1096.1</ele>
        <time>2026-08-27T09:02:50.232Z</time>
      </trkpt>
      <trkpt lat="47.84649" lon="6.95721">
        <ele>1096.3</ele>
        <time>2026-08-27T09:02:52.247Z</time>
      </trkpt>
      <trkpt lat="47.84649" lon="6.95722">
        <ele>1096.6</ele>
        <time>2026-08-27T09:02:54.162Z</time>
      </trkpt>
      <trkpt lat="47.84648" lon="6.95724">
        <ele>1096.8</ele>
        <time>2026-08-27T09:02:56.137Z</time>
      </trkpt>
      <trkpt lat="47.84648" lon="6.95725">
        <ele>1096.7</ele>
        <time>2026-08-27T09:02:57.187Z</time>
      </trkpt>
      <trkpt lat="47.84648" lon="6.95725">
        <ele>1096.8</ele>
        <time>2026-08-27T09:02:58.253Z</time>
      </trkpt>
      <trkpt lat="47.84648" lon="6.95727">
        <ele>1097.1</ele>
        <time>2026-08-27T09:03:00.152Z</time>
      </trkpt>
      <trkpt lat="47.84648" lon="6.95728">
        <ele>1097.1</ele>
        <time>2026-08-27T09:03:02.017Z</time>
      </trkpt>
      <trkpt lat="47.84648" lon="6.95729">
        <ele>1097.1</ele>
        <time>2026-08-27T09:03:03.135Z</time>
      </trkpt>
      <trkpt lat="47.84648" lon="6.95729">
        <ele>1097.7</ele>
        <time>2026-08-27T09:03:04.142Z</time>
      </trkpt>
      <trkpt lat="47.84648" lon="6.95729">
        <ele>1097.7</ele>
        <time>2026-08-27T09:03:05.150Z</time>
      </trkpt>
      <trkpt lat="47.84648" lon="6.95731">
        <ele>1097.8</ele>
        <time>2026-08-27T09:03:07.166Z</time>
      </trkpt>
      <trkpt lat="47.84648" lon="6.95732">
        <ele>1097.8</ele>
        <time>2026-08-27T09:03:08.217Z</time>
      </trkpt>
      <trkpt lat="47.84648" lon="6.95734">
        <ele>1098.3</ele>
        <time>2026-08-27T09:03:10.190Z</time>
      </trkpt>
      <trkpt lat="47.84647" lon="6.95736">
        <ele>1098.3</ele>
        <time>2026-08-27T09:03:11.198Z</time>
      </trkpt>
      <trkpt lat="47.84647" lon="6.95737">
        <ele>1098.3</ele>
        <time>2026-08-27T09:03:12.232Z</time>
      </trkpt>
      <trkpt lat="47.84646" lon="6.95738">
        <ele>1098.9</ele>
        <time>2026-08-27T09:03:14.223Z</time>
      </trkpt>
      <trkpt lat="47.84647" lon="6.95739">
        <ele>1099.2</ele>
        <time>2026-08-27T09:03:15.232Z</time>
      </trkpt>
      <trkpt lat="47.84648" lon="6.95742">
        <ele>1099.5</ele>
        <time>2026-08-27T09:03:17.146Z</time>
      </trkpt>
      <trkpt lat="47.84649" lon="6.95744">
        <ele>1099.5</ele>
        <time>2026-08-27T09:03:18.213Z</time>
      </trkpt>
      <trkpt lat="47.8465" lon="6.95748">
        <ele>1099.9</ele>
        <time>2026-08-27T09:03:20.170Z</time>
      </trkpt>
      <trkpt lat="47.8465" lon="6.9575">
        <ele>1100.3</ele>
        <time>2026-08-27T09:03:21.179Z</time>
      </trkpt>
      <trkpt lat="47.84651" lon="6.95751">
        <ele>1100.5</ele>
        <time>2026-08-27T09:03:22.186Z</time>
      </trkpt>
      <trkpt lat="47.84651" lon="6.95752">
        <ele>1100.6</ele>
        <time>2026-08-27T09:03:23.195Z</time>
      </trkpt>
      <trkpt lat="47.84651" lon="6.95753">
        <ele>1100.6</ele>
        <time>2026-08-27T09:03:24.204Z</time>
      </trkpt>
      <trkpt lat="47.84651" lon="6.95754">
        <ele>1100.5</ele>
        <time>2026-08-27T09:03:25.211Z</time>
      </trkpt>
      <trkpt lat="47.84652" lon="6.95755">
        <ele>1100.7</ele>
        <time>2026-08-27T09:03:27.227Z</time>
      </trkpt>
      <trkpt lat="47.84653" lon="6.95756">
        <ele>1100.6</ele>
        <time>2026-08-27T09:03:28.235Z</time>
      </trkpt>
      <trkpt lat="47.84653" lon="6.95756">
        <ele>1100.6</ele>
        <time>2026-08-27T09:03:30.252Z</time>
      </trkpt>
      <trkpt lat="47.84652" lon="6.95757">
        <ele>1100.8</ele>
        <time>2026-08-27T09:03:32.166Z</time>
      </trkpt>
      <trkpt lat="47.84652" lon="6.95757">
        <ele>1100.8</ele>
        <time>2026-08-27T09:03:33.174Z</time>
      </trkpt>
      <trkpt lat="47.84652" lon="6.95757">
        <ele>1100.8</ele>
        <time>2026-08-27T09:03:34.182Z</time>
      </trkpt>
      <trkpt lat="47.84652" lon="6.95757">
        <ele>1101.1</ele>
        <time>2026-08-27T09:03:35.191Z</time>
      </trkpt>
      <trkpt lat="47.84652" lon="6.95758">
        <ele>1101.3</ele>
        <time>2026-08-27T09:03:37.207Z</time>
      </trkpt>
      <trkpt lat="47.84652" lon="6.95758">
        <ele>1101.5</ele>
        <time>2026-08-27T09:03:38.216Z</time>
      </trkpt>
      <trkpt lat="47.84652" lon="6.95758">
        <ele>1101.7</ele>
        <time>2026-08-27T09:03:39.223Z</time>
      </trkpt>
      <trkpt lat="47.84652" lon="6.95758">
        <ele>1101.5</ele>
        <time>2026-08-27T09:03:40.231Z</time>
      </trkpt>
      <trkpt lat="47.84652" lon="6.95759">
        <ele>1102</ele>
        <time>2026-08-27T09:03:41.240Z</time>
      </trkpt>
      <trkpt lat="47.84652" lon="6.95762">
        <ele>1101.7</ele>
        <time>2026-08-27T09:03:43.154Z</time>
      </trkpt>
      <trkpt lat="47.84652" lon="6.95764">
        <ele>1101.6</ele>
        <time>2026-08-27T09:03:44.162Z</time>
      </trkpt>
      <trkpt lat="47.84652" lon="6.95767">
        <ele>1101.6</ele>
        <time>2026-08-27T09:03:45.171Z</time>
      </trkpt>
      <trkpt lat="47.84652" lon="6.95769">
        <ele>1101.6</ele>
        <time>2026-08-27T09:03:46.178Z</time>
      </trkpt>
      <trkpt lat="47.84652" lon="6.95771">
        <ele>1101.7</ele>
        <time>2026-08-27T09:03:47.186Z</time>
      </trkpt>
      <trkpt lat="47.84652" lon="6.95773">
        <ele>1101.5</ele>
        <time>2026-08-27T09:03:48.196Z</time>
      </trkpt>
      <trkpt lat="47.84652" lon="6.95774">
        <ele>1101.4</ele>
        <time>2026-08-27T09:03:49.204Z</time>
      </trkpt>
      <trkpt lat="47.84652" lon="6.95775">
        <ele>1101.5</ele>
        <time>2026-08-27T09:03:50.211Z</time>
      </trkpt>
      <trkpt lat="47.84652" lon="6.95777">
        <ele>1101.4</ele>
        <time>2026-08-27T09:03:51.220Z</time>
      </trkpt>
      <trkpt lat="47.84652" lon="6.95778">
        <ele>1101.6</ele>
        <time>2026-08-27T09:03:52.228Z</time>
      </trkpt>
      <trkpt lat="47.84653" lon="6.9578">
        <ele>1101.5</ele>
        <time>2026-08-27T09:03:54.244Z</time>
      </trkpt>
      <trkpt lat="47.84653" lon="6.95784">
        <ele>1100.9</ele>
        <time>2026-08-27T09:03:56.151Z</time>
      </trkpt>
      <trkpt lat="47.84653" lon="6.95785">
        <ele>1100.9</ele>
        <time>2026-08-27T09:03:57.166Z</time>
      </trkpt>
      <trkpt lat="47.84653" lon="6.95786">
        <ele>1100.9</ele>
        <time>2026-08-27T09:03:58.192Z</time>
      </trkpt>
      <trkpt lat="47.84653" lon="6.95788">
        <ele>1100.9</ele>
        <time>2026-08-27T09:04:00.191Z</time>
      </trkpt>
      <trkpt lat="47.84653" lon="6.9579">
        <ele>1100.9</ele>
        <time>2026-08-27T09:04:01.257Z</time>
      </trkpt>
      <trkpt lat="47.84653" lon="6.95792">
        <ele>1102.2</ele>
        <time>2026-08-27T09:04:03.114Z</time>
      </trkpt>
      <trkpt lat="47.84653" lon="6.95793">
        <ele>1102</ele>
        <time>2026-08-27T09:04:04.224Z</time>
      </trkpt>
      <trkpt lat="47.84653" lon="6.95796">
        <ele>1101.4</ele>
        <time>2026-08-27T09:04:06.139Z</time>
      </trkpt>
      <trkpt lat="47.84653" lon="6.95798">
        <ele>1101.7</ele>
        <time>2026-08-27T09:04:07.146Z</time>
      </trkpt>
      <trkpt lat="47.84654" lon="6.958">
        <ele>1101.7</ele>
        <time>2026-08-27T09:04:08.154Z</time>
      </trkpt>
      <trkpt lat="47.84654" lon="6.95803">
        <ele>1101.9</ele>
        <time>2026-08-27T09:04:09.162Z</time>
      </trkpt>
      <trkpt lat="47.84654" lon="6.95805">
        <ele>1101.9</ele>
        <time>2026-08-27T09:04:10.170Z</time>
      </trkpt>
      <trkpt lat="47.84654" lon="6.95807">
        <ele>1102</ele>
        <time>2026-08-27T09:04:11.179Z</time>
      </trkpt>
      <trkpt lat="47.84654" lon="6.95809">
        <ele>1101.9</ele>
        <time>2026-08-27T09:04:12.187Z</time>
      </trkpt>
      <trkpt lat="47.84655" lon="6.95811">
        <ele>1101.9</ele>
        <time>2026-08-27T09:04:13.195Z</time>
      </trkpt>
      <trkpt lat="47.84656" lon="6.95812">
        <ele>1102.2</ele>
        <time>2026-08-27T09:04:14.203Z</time>
      </trkpt>
      <trkpt lat="47.84656" lon="6.95813">
        <ele>1102.1</ele>
        <time>2026-08-27T09:04:15.211Z</time>
      </trkpt>
      <trkpt lat="47.84657" lon="6.95813">
        <ele>1102.2</ele>
        <time>2026-08-27T09:04:16.220Z</time>
      </trkpt>
      <trkpt lat="47.84658" lon="6.95814">
        <ele>1102.3</ele>
        <time>2026-08-27T09:04:17.227Z</time>
      </trkpt>
      <trkpt lat="47.84659" lon="6.95815">
        <ele>1102.6</ele>
        <time>2026-08-27T09:04:19.226Z</time>
      </trkpt>
      <trkpt lat="47.84661" lon="6.95817">
        <ele>1102.6</ele>
        <time>2026-08-27T09:04:21.175Z</time>
      </trkpt>
      <trkpt lat="47.84662" lon="6.95818">
        <ele>1102.7</ele>
        <time>2026-08-27T09:04:22.183Z</time>
      </trkpt>
      <trkpt lat="47.84663" lon="6.9582">
        <ele>1102.6</ele>
        <time>2026-08-27T09:04:24.224Z</time>
      </trkpt>
      <trkpt lat="47.84664" lon="6.95822">
        <ele>1101.8</ele>
        <time>2026-08-27T09:04:26.215Z</time>
      </trkpt>
      <trkpt lat="47.84665" lon="6.95823">
        <ele>1101.4</ele>
        <time>2026-08-27T09:04:27.223Z</time>
      </trkpt>
      <trkpt lat="47.84665" lon="6.95824">
        <ele>1101.6</ele>
        <time>2026-08-27T09:04:28.233Z</time>
      </trkpt>
      <trkpt lat="47.84663" lon="6.95824">
        <ele>1102.5</ele>
        <time>2026-08-27T09:04:30.147Z</time>
      </trkpt>
      <trkpt lat="47.84663" lon="6.95823">
        <ele>1102.8</ele>
        <time>2026-08-27T09:04:31.155Z</time>
      </trkpt>
      <trkpt lat="47.84662" lon="6.95822">
        <ele>1102.8</ele>
        <time>2026-08-27T09:04:32.163Z</time>
      </trkpt>
      <trkpt lat="47.84662" lon="6.95822">
        <ele>1102.5</ele>
        <time>2026-08-27T09:04:33.171Z</time>
      </trkpt>
      <trkpt lat="47.84662" lon="6.95821">
        <ele>1102.3</ele>
        <time>2026-08-27T09:04:34.180Z</time>
      </trkpt>
      <trkpt lat="47.84662" lon="6.95821">
        <ele>1102.4</ele>
        <time>2026-08-27T09:04:35.187Z</time>
      </trkpt>
      <trkpt lat="47.84662" lon="6.95822">
        <ele>1102.4</ele>
        <time>2026-08-27T09:04:36.246Z</time>
      </trkpt>
      <trkpt lat="47.84663" lon="6.95823">
        <ele>1102.6</ele>
        <time>2026-08-27T09:04:38.211Z</time>
      </trkpt>
      <trkpt lat="47.84663" lon="6.95824">
        <ele>1102.3</ele>
        <time>2026-08-27T09:04:39.219Z</time>
      </trkpt>
      <trkpt lat="47.84663" lon="6.95825">
        <ele>1102.2</ele>
        <time>2026-08-27T09:04:40.227Z</time>
      </trkpt>
      <trkpt lat="47.84664" lon="6.95824">
        <ele>1102</ele>
        <time>2026-08-27T09:04:42.144Z</time>
      </trkpt>
      <trkpt lat="47.84664" lon="6.95824">
        <ele>1101.6</ele>
        <time>2026-08-27T09:04:43.252Z</time>
      </trkpt>
      <trkpt lat="47.84664" lon="6.95823">
        <ele>1101.3</ele>
        <time>2026-08-27T09:04:45.168Z</time>
      </trkpt>
      <trkpt lat="47.84664" lon="6.95823">
        <ele>1101</ele>
        <time>2026-08-27T09:04:46.175Z</time>
      </trkpt>
      <trkpt lat="47.84663" lon="6.95823">
        <ele>1101.2</ele>
        <time>2026-08-27T09:04:47.184Z</time>
      </trkpt>
      <trkpt lat="47.84663" lon="6.95823">
        <ele>1101.1</ele>
        <time>2026-08-27T09:04:49.200Z</time>
      </trkpt>
      <trkpt lat="47.84663" lon="6.95823">
        <ele>1101</ele>
        <time>2026-08-27T09:04:50.208Z</time>
      </trkpt>
      <trkpt lat="47.84662" lon="6.95823">
        <ele>1101</ele>
        <time>2026-08-27T09:04:51.249Z</time>
      </trkpt>
      <trkpt lat="47.8466" lon="6.95822">
        <ele>1101.1</ele>
        <time>2026-08-27T09:04:53.231Z</time>
      </trkpt>
      <trkpt lat="47.84659" lon="6.95823">
        <ele>1100.9</ele>
        <time>2026-08-27T09:04:55.223Z</time>
      </trkpt>
      <trkpt lat="47.84658" lon="6.95823">
        <ele>1100.7</ele>
        <time>2026-08-27T09:04:57.188Z</time>
      </trkpt>
      <trkpt lat="47.84656" lon="6.95824">
        <ele>1100.3</ele>
        <time>2026-08-27T09:04:59.180Z</time>
      </trkpt>
      <trkpt lat="47.84655" lon="6.95824">
        <ele>1100.3</ele>
        <time>2026-08-27T09:05:00.187Z</time>
      </trkpt>
      <trkpt lat="47.84653" lon="6.95826">
        <ele>1099.5</ele>
        <time>2026-08-27T09:05:02.203Z</time>
      </trkpt>
      <trkpt lat="47.84652" lon="6.95827">
        <ele>1099.2</ele>
        <time>2026-08-27T09:05:03.212Z</time>
      </trkpt>
      <trkpt lat="47.84649" lon="6.95829">
        <ele>1098.6</ele>
        <time>2026-08-27T09:05:05.228Z</time>
      </trkpt>
      <trkpt lat="47.84649" lon="6.95829">
        <ele>1098.6</ele>
        <time>2026-08-27T09:05:06.236Z</time>
      </trkpt>
      <trkpt lat="47.84648" lon="6.9583">
        <ele>1098.5</ele>
        <time>2026-08-27T09:05:07.244Z</time>
      </trkpt>
      <trkpt lat="47.84647" lon="6.95832">
        <ele>1098.1</ele>
        <time>2026-08-27T09:05:09.160Z</time>
      </trkpt>
      <trkpt lat="47.84646" lon="6.95833">
        <ele>1097.9</ele>
        <time>2026-08-27T09:05:11.175Z</time>
      </trkpt>
      <trkpt lat="47.84646" lon="6.95833">
        <ele>1097.6</ele>
        <time>2026-08-27T09:05:12.183Z</time>
      </trkpt>
      <trkpt lat="47.84646" lon="6.95834">
        <ele>1097.6</ele>
        <time>2026-08-27T09:05:13.217Z</time>
      </trkpt>
      <trkpt lat="47.84646" lon="6.95835">
        <ele>1096.9</ele>
        <time>2026-08-27T09:05:15.207Z</time>
      </trkpt>
      <trkpt lat="47.84646" lon="6.95835">
        <ele>1097.1</ele>
        <time>2026-08-27T09:05:16.216Z</time>
      </trkpt>
      <trkpt lat="47.84646" lon="6.95835">
        <ele>1097</ele>
        <time>2026-08-27T09:05:17.223Z</time>
      </trkpt>
      <trkpt lat="47.84645" lon="6.95835">
        <ele>1097.1</ele>
        <time>2026-08-27T09:05:18.231Z</time>
      </trkpt>
      <trkpt lat="47.84645" lon="6.95835">
        <ele>1096.9</ele>
        <time>2026-08-27T09:05:20.080Z</time>
      </trkpt>
      <trkpt lat="47.84645" lon="6.95836">
        <ele>1096.7</ele>
        <time>2026-08-27T09:05:21.240Z</time>
      </trkpt>
      <trkpt lat="47.84644" lon="6.95836">
        <ele>1096.9</ele>
        <time>2026-08-27T09:05:23.171Z</time>
      </trkpt>
      <trkpt lat="47.84643" lon="6.95837">
        <ele>1096.7</ele>
        <time>2026-08-27T09:05:25.238Z</time>
      </trkpt>
      <trkpt lat="47.84641" lon="6.95837">
        <ele>1095.9</ele>
        <time>2026-08-27T09:05:27.203Z</time>
      </trkpt>
      <trkpt lat="47.84641" lon="6.95838">
        <ele>1095.7</ele>
        <time>2026-08-27T09:05:28.211Z</time>
      </trkpt>
      <trkpt lat="47.8464" lon="6.95838">
        <ele>1095.7</ele>
        <time>2026-08-27T09:05:29.220Z</time>
      </trkpt>
      <trkpt lat="47.8464" lon="6.95839">
        <ele>1095.7</ele>
        <time>2026-08-27T09:05:30.228Z</time>
      </trkpt>
      <trkpt lat="47.84639" lon="6.9584">
        <ele>1095.3</ele>
        <time>2026-08-27T09:05:31.235Z</time>
      </trkpt>
      <trkpt lat="47.84638" lon="6.95841">
        <ele>1095.2</ele>
        <time>2026-08-27T09:05:33.218Z</time>
      </trkpt>
      <trkpt lat="47.84637" lon="6.95843">
        <ele>1094.5</ele>
        <time>2026-08-27T09:05:35.167Z</time>
      </trkpt>
      <trkpt lat="47.84636" lon="6.95843">
        <ele>1094.1</ele>
        <time>2026-08-27T09:05:36.175Z</time>
      </trkpt>
      <trkpt lat="47.84635" lon="6.95844">
        <ele>1093.7</ele>
        <time>2026-08-27T09:05:37.184Z</time>
      </trkpt>
      <trkpt lat="47.84634" lon="6.95844">
        <ele>1093.5</ele>
        <time>2026-08-27T09:05:38.192Z</time>
      </trkpt>
      <trkpt lat="47.84634" lon="6.95845">
        <ele>1093.3</ele>
        <time>2026-08-27T09:05:39.199Z</time>
      </trkpt>
      <trkpt lat="47.84633" lon="6.95845">
        <ele>1093.2</ele>
        <time>2026-08-27T09:05:40.208Z</time>
      </trkpt>
      <trkpt lat="47.84632" lon="6.95845">
        <ele>1092.9</ele>
        <time>2026-08-27T09:05:41.216Z</time>
      </trkpt>
      <trkpt lat="47.84632" lon="6.95846">
        <ele>1092.5</ele>
        <time>2026-08-27T09:05:42.223Z</time>
      </trkpt>
      <trkpt lat="47.84631" lon="6.95846">
        <ele>1092</ele>
        <time>2026-08-27T09:05:43.231Z</time>
      </trkpt>
      <trkpt lat="47.84629" lon="6.95849">
        <ele>1091.6</ele>
        <time>2026-08-27T09:05:45.139Z</time>
      </trkpt>
      <trkpt lat="47.84628" lon="6.9585">
        <ele>1091.9</ele>
        <time>2026-08-27T09:05:46.155Z</time>
      </trkpt>
      <trkpt lat="47.84627" lon="6.95851">
        <ele>1091.8</ele>
        <time>2026-08-27T09:05:47.163Z</time>
      </trkpt>
      <trkpt lat="47.84626" lon="6.95852">
        <ele>1091.8</ele>
        <time>2026-08-27T09:05:48.179Z</time>
      </trkpt>
      <trkpt lat="47.84625" lon="6.95853">
        <ele>1091.3</ele>
        <time>2026-08-27T09:05:49.179Z</time>
      </trkpt>
      <trkpt lat="47.84625" lon="6.95855">
        <ele>1091.4</ele>
        <time>2026-08-27T09:05:50.187Z</time>
      </trkpt>
      <trkpt lat="47.84624" lon="6.95856">
        <ele>1091.8</ele>
        <time>2026-08-27T09:05:51.195Z</time>
      </trkpt>
      <trkpt lat="47.84624" lon="6.95858">
        <ele>1091.4</ele>
        <time>2026-08-27T09:05:52.204Z</time>
      </trkpt>
      <trkpt lat="47.84623" lon="6.95859">
        <ele>1091.1</ele>
        <time>2026-08-27T09:05:53.211Z</time>
      </trkpt>
      <trkpt lat="47.84623" lon="6.9586">
        <ele>1090.6</ele>
        <time>2026-08-27T09:05:54.220Z</time>
      </trkpt>
      <trkpt lat="47.84622" lon="6.95861">
        <ele>1090.4</ele>
        <time>2026-08-27T09:05:55.227Z</time>
      </trkpt>
      <trkpt lat="47.84621" lon="6.95862">
        <ele>1090.1</ele>
        <time>2026-08-27T09:05:56.236Z</time>
      </trkpt>
      <trkpt lat="47.84619" lon="6.95863">
        <ele>1089.9</ele>
        <time>2026-08-27T09:05:58.110Z</time>
      </trkpt>
      <trkpt lat="47.84618" lon="6.95864">
        <ele>1089.4</ele>
        <time>2026-08-27T09:05:59.168Z</time>
      </trkpt>
      <trkpt lat="47.84617" lon="6.95866">
        <ele>1089.3</ele>
        <time>2026-08-27T09:06:01.175Z</time>
      </trkpt>
      <trkpt lat="47.84617" lon="6.95867">
        <ele>1089</ele>
        <time>2026-08-27T09:06:02.183Z</time>
      </trkpt>
      <trkpt lat="47.84617" lon="6.95869">
        <ele>1088.8</ele>
        <time>2026-08-27T09:06:03.191Z</time>
      </trkpt>
      <trkpt lat="47.84617" lon="6.95872">
        <ele>1088.3</ele>
        <time>2026-08-27T09:06:04.199Z</time>
      </trkpt>
      <trkpt lat="47.84616" lon="6.95873">
        <ele>1088</ele>
        <time>2026-08-27T09:06:05.207Z</time>
      </trkpt>
      <trkpt lat="47.84616" lon="6.95875">
        <ele>1087.8</ele>
        <time>2026-08-27T09:06:06.215Z</time>
      </trkpt>
      <trkpt lat="47.84615" lon="6.95877">
        <ele>1087.6</ele>
        <time>2026-08-27T09:06:07.232Z</time>
      </trkpt>
      <trkpt lat="47.84615" lon="6.95881">
        <ele>1087.4</ele>
        <time>2026-08-27T09:06:09.147Z</time>
      </trkpt>
      <trkpt lat="47.84615" lon="6.95884">
        <ele>1087.2</ele>
        <time>2026-08-27T09:06:10.155Z</time>
      </trkpt>
      <trkpt lat="47.84614" lon="6.95886">
        <ele>1086.9</ele>
        <time>2026-08-27T09:06:11.163Z</time>
      </trkpt>
      <trkpt lat="47.84613" lon="6.95889">
        <ele>1086.3</ele>
        <time>2026-08-27T09:06:13.180Z</time>
      </trkpt>
      <trkpt lat="47.84612" lon="6.9589">
        <ele>1086.4</ele>
        <time>2026-08-27T09:06:14.187Z</time>
      </trkpt>
      <trkpt lat="47.84611" lon="6.95891">
        <ele>1086.6</ele>
        <time>2026-08-27T09:06:15.196Z</time>
      </trkpt>
      <trkpt lat="47.8461" lon="6.95894">
        <ele>1086.3</ele>
        <time>2026-08-27T09:06:17.212Z</time>
      </trkpt>
      <trkpt lat="47.84609" lon="6.95895">
        <ele>1086.2</ele>
        <time>2026-08-27T09:06:18.220Z</time>
      </trkpt>
      <trkpt lat="47.84608" lon="6.95897">
        <ele>1086.7</ele>
        <time>2026-08-27T09:06:19.229Z</time>
      </trkpt>
      <trkpt lat="47.84606" lon="6.959">
        <ele>1086.7</ele>
        <time>2026-08-27T09:06:21.244Z</time>
      </trkpt>
      <trkpt lat="47.84606" lon="6.95903">
        <ele>1086.7</ele>
        <time>2026-08-27T09:06:23.160Z</time>
      </trkpt>
      <trkpt lat="47.84606" lon="6.95904">
        <ele>1086.5</ele>
        <time>2026-08-27T09:06:24.167Z</time>
      </trkpt>
      <trkpt lat="47.84606" lon="6.95906">
        <ele>1086.4</ele>
        <time>2026-08-27T09:06:25.175Z</time>
      </trkpt>
      <trkpt lat="47.84607" lon="6.95907">
        <ele>1086.3</ele>
        <time>2026-08-27T09:06:26.183Z</time>
      </trkpt>
      <trkpt lat="47.84607" lon="6.95908">
        <ele>1086.2</ele>
        <time>2026-08-27T09:06:27.191Z</time>
      </trkpt>
      <trkpt lat="47.84607" lon="6.95908">
        <ele>1086.4</ele>
        <time>2026-08-27T09:06:28.200Z</time>
      </trkpt>
      <trkpt lat="47.84607" lon="6.95907">
        <ele>1086.4</ele>
        <time>2026-08-27T09:06:29.207Z</time>
      </trkpt>
      <trkpt lat="47.84607" lon="6.95907">
        <ele>1086.5</ele>
        <time>2026-08-27T09:06:30.216Z</time>
      </trkpt>
      <trkpt lat="47.84608" lon="6.95907">
        <ele>1086.4</ele>
        <time>2026-08-27T09:06:31.224Z</time>
      </trkpt>
      <trkpt lat="47.84608" lon="6.95907">
        <ele>1086.4</ele>
        <time>2026-08-27T09:06:32.248Z</time>
      </trkpt>
      <trkpt lat="47.84607" lon="6.95907">
        <ele>1085.7</ele>
        <time>2026-08-27T09:06:34.147Z</time>
      </trkpt>
      <trkpt lat="47.84607" lon="6.95907">
        <ele>1085.4</ele>
        <time>2026-08-27T09:06:35.155Z</time>
      </trkpt>
      <trkpt lat="47.84607" lon="6.95906">
        <ele>1085.1</ele>
        <time>2026-08-27T09:06:36.163Z</time>
      </trkpt>
      <trkpt lat="47.84607" lon="6.95906">
        <ele>1085.3</ele>
        <time>2026-08-27T09:06:37.171Z</time>
      </trkpt>
      <trkpt lat="47.84607" lon="6.95906">
        <ele>1085.2</ele>
        <time>2026-08-27T09:06:38.180Z</time>
      </trkpt>
      <trkpt lat="47.84607" lon="6.95907">
        <ele>1085.1</ele>
        <time>2026-08-27T09:06:39.188Z</time>
      </trkpt>
      <trkpt lat="47.84607" lon="6.95907">
        <ele>1085.3</ele>
        <time>2026-08-27T09:06:40.195Z</time>
      </trkpt>
      <trkpt lat="47.84607" lon="6.95907">
        <ele>1085.5</ele>
        <time>2026-08-27T09:06:41.203Z</time>
      </trkpt>
      <trkpt lat="47.84607" lon="6.95907">
        <ele>1085.4</ele>
        <time>2026-08-27T09:06:42.212Z</time>
      </trkpt>
      <trkpt lat="47.84607" lon="6.95907">
        <ele>1085.4</ele>
        <time>2026-08-27T09:06:43.253Z</time>
      </trkpt>
      <trkpt lat="47.84607" lon="6.95907">
        <ele>1085.3</ele>
        <time>2026-08-27T09:06:44.531Z</time>
      </trkpt>
      <trkpt lat="47.84606" lon="6.95907">
        <ele>1085.1</ele>
        <time>2026-08-27T09:06:46.554Z</time>
      </trkpt>
      <trkpt lat="47.84606" lon="6.95908">
        <ele>1085.3</ele>
        <time>2026-08-27T09:06:47.656Z</time>
      </trkpt>
      <trkpt lat="47.84606" lon="6.95909">
        <ele>1085.4</ele>
        <time>2026-08-27T09:06:48.856Z</time>
      </trkpt>
      <trkpt lat="47.84606" lon="6.95912">
        <ele>1085.6</ele>
        <time>2026-08-27T09:06:50.175Z</time>
      </trkpt>
      <trkpt lat="47.84606" lon="6.95913">
        <ele>1085.2</ele>
        <time>2026-08-27T09:06:51.183Z</time>
      </trkpt>
      <trkpt lat="47.84605" lon="6.95913">
        <ele>1085.2</ele>
        <time>2026-08-27T09:06:52.192Z</time>
      </trkpt>
      <trkpt lat="47.84605" lon="6.95914">
        <ele>1084.8</ele>
        <time>2026-08-27T09:06:53.200Z</time>
      </trkpt>
      <trkpt lat="47.84605" lon="6.95913">
        <ele>1084.7</ele>
        <time>2026-08-27T09:06:54.208Z</time>
      </trkpt>
      <trkpt lat="47.84605" lon="6.95913">
        <ele>1084.3</ele>
        <time>2026-08-27T09:06:55.215Z</time>
      </trkpt>
      <trkpt lat="47.84605" lon="6.95913">
        <ele>1084.2</ele>
        <time>2026-08-27T09:06:56.223Z</time>
      </trkpt>
      <trkpt lat="47.84605" lon="6.95913">
        <ele>1084.2</ele>
        <time>2026-08-27T09:06:57.232Z</time>
      </trkpt>
      <trkpt lat="47.84604" lon="6.95913">
        <ele>1084.2</ele>
        <time>2026-08-27T09:06:59.172Z</time>
      </trkpt>
      <trkpt lat="47.84603" lon="6.95913">
        <ele>1084.3</ele>
        <time>2026-08-27T09:07:01.112Z</time>
      </trkpt>
      <trkpt lat="47.84603" lon="6.95913">
        <ele>1083.3</ele>
        <time>2026-08-27T09:07:02.171Z</time>
      </trkpt>
      <trkpt lat="47.84603" lon="6.95913">
        <ele>1083.3</ele>
        <time>2026-08-27T09:07:03.213Z</time>
      </trkpt>
      <trkpt lat="47.84601" lon="6.95913">
        <ele>1083</ele>
        <time>2026-08-27T09:07:05.213Z</time>
      </trkpt>
      <trkpt lat="47.84601" lon="6.95913">
        <ele>1082.7</ele>
        <time>2026-08-27T09:07:07.211Z</time>
      </trkpt>
      <trkpt lat="47.846" lon="6.95914">
        <ele>1082.2</ele>
        <time>2026-08-27T09:07:08.220Z</time>
      </trkpt>
      <trkpt lat="47.84599" lon="6.95914">
        <ele>1082.3</ele>
        <time>2026-08-27T09:07:09.228Z</time>
      </trkpt>
      <trkpt lat="47.84598" lon="6.95915">
        <ele>1082.2</ele>
        <time>2026-08-27T09:07:10.236Z</time>
      </trkpt>
      <trkpt lat="47.84595" lon="6.95917">
        <ele>1082</ele>
        <time>2026-08-27T09:07:12.151Z</time>
      </trkpt>
      <trkpt lat="47.84594" lon="6.95917">
        <ele>1081.7</ele>
        <time>2026-08-27T09:07:13.160Z</time>
      </trkpt>
      <trkpt lat="47.84593" lon="6.95917">
        <ele>1081.4</ele>
        <time>2026-08-27T09:07:14.168Z</time>
      </trkpt>
      <trkpt lat="47.84593" lon="6.95916">
        <ele>1081.3</ele>
        <time>2026-08-27T09:07:15.276Z</time>
      </trkpt>
      <trkpt lat="47.84593" lon="6.95915">
        <ele>1081.2</ele>
        <time>2026-08-27T09:07:17.174Z</time>
      </trkpt>
      <trkpt lat="47.84592" lon="6.95915">
        <ele>1081.4</ele>
        <time>2026-08-27T09:07:18.199Z</time>
      </trkpt>
      <trkpt lat="47.84591" lon="6.95917">
        <ele>1081.3</ele>
        <time>2026-08-27T09:07:20.216Z</time>
      </trkpt>
      <trkpt lat="47.84591" lon="6.95919">
        <ele>1080.7</ele>
        <time>2026-08-27T09:07:21.223Z</time>
      </trkpt>
      <trkpt lat="47.8459" lon="6.95922">
        <ele>1080.3</ele>
        <time>2026-08-27T09:07:22.231Z</time>
      </trkpt>
      <trkpt lat="47.84589" lon="6.95925">
        <ele>1080</ele>
        <time>2026-08-27T09:07:23.239Z</time>
      </trkpt>
      <trkpt lat="47.84587" lon="6.9593">
        <ele>1079.7</ele>
        <time>2026-08-27T09:07:25.206Z</time>
      </trkpt>
      <trkpt lat="47.84586" lon="6.95934">
        <ele>1079.5</ele>
        <time>2026-08-27T09:07:27.129Z</time>
      </trkpt>
      <trkpt lat="47.84586" lon="6.95936">
        <ele>1079.3</ele>
        <time>2026-08-27T09:07:28.180Z</time>
      </trkpt>
      <trkpt lat="47.84586" lon="6.95937">
        <ele>1079.3</ele>
        <time>2026-08-27T09:07:29.187Z</time>
      </trkpt>
      <trkpt lat="47.84585" lon="6.95938">
        <ele>1078.7</ele>
        <time>2026-08-27T09:07:30.196Z</time>
      </trkpt>
      <trkpt lat="47.84585" lon="6.95939">
        <ele>1078.5</ele>
        <time>2026-08-27T09:07:31.203Z</time>
      </trkpt>
      <trkpt lat="47.84585" lon="6.9594">
        <ele>1077.9</ele>
        <time>2026-08-27T09:07:32.211Z</time>
      </trkpt>
      <trkpt lat="47.84584" lon="6.95941">
        <ele>1077.9</ele>
        <time>2026-08-27T09:07:33.221Z</time>
      </trkpt>
      <trkpt lat="47.84582" lon="6.95945">
        <ele>1077.2</ele>
        <time>2026-08-27T09:07:35.143Z</time>
      </trkpt>
      <trkpt lat="47.84582" lon="6.95947">
        <ele>1077</ele>
        <time>2026-08-27T09:07:36.243Z</time>
      </trkpt>
      <trkpt lat="47.84581" lon="6.95951">
        <ele>1076.4</ele>
        <time>2026-08-27T09:07:38.164Z</time>
      </trkpt>
      <trkpt lat="47.84581" lon="6.95953">
        <ele>1076.4</ele>
        <time>2026-08-27T09:07:39.171Z</time>
      </trkpt>
      <trkpt lat="47.84581" lon="6.95954">
        <ele>1076.2</ele>
        <time>2026-08-27T09:07:40.179Z</time>
      </trkpt>
      <trkpt lat="47.8458" lon="6.95955">
        <ele>1076.2</ele>
        <time>2026-08-27T09:07:41.187Z</time>
      </trkpt>
      <trkpt lat="47.8458" lon="6.95958">
        <ele>1075.5</ele>
        <time>2026-08-27T09:07:43.203Z</time>
      </trkpt>
      <trkpt lat="47.84579" lon="6.95959">
        <ele>1075.4</ele>
        <time>2026-08-27T09:07:44.212Z</time>
      </trkpt>
      <trkpt lat="47.84578" lon="6.95961">
        <ele>1075.4</ele>
        <time>2026-08-27T09:07:45.248Z</time>
      </trkpt>
      <trkpt lat="47.84577" lon="6.95963">
        <ele>1075.2</ele>
        <time>2026-08-27T09:07:47.235Z</time>
      </trkpt>
      <trkpt lat="47.84576" lon="6.95963">
        <ele>1075.3</ele>
        <time>2026-08-27T09:07:48.244Z</time>
      </trkpt>
      <trkpt lat="47.84575" lon="6.95966">
        <ele>1075.1</ele>
        <time>2026-08-27T09:07:50.247Z</time>
      </trkpt>
      <trkpt lat="47.84574" lon="6.95968">
        <ele>1073.6</ele>
        <time>2026-08-27T09:07:52.179Z</time>
      </trkpt>
      <trkpt lat="47.84572" lon="6.95972">
        <ele>1073.2</ele>
        <time>2026-08-27T09:07:54.195Z</time>
      </trkpt>
      <trkpt lat="47.84572" lon="6.95974">
        <ele>1073.2</ele>
        <time>2026-08-27T09:07:55.203Z</time>
      </trkpt>
      <trkpt lat="47.84571" lon="6.95976">
        <ele>1073.1</ele>
        <time>2026-08-27T09:07:56.211Z</time>
      </trkpt>
      <trkpt lat="47.84571" lon="6.9598">
        <ele>1073</ele>
        <time>2026-08-27T09:07:58.227Z</time>
      </trkpt>
      <trkpt lat="47.84571" lon="6.95981">
        <ele>1072.7</ele>
        <time>2026-08-27T09:07:59.235Z</time>
      </trkpt>
      <trkpt lat="47.84572" lon="6.95983">
        <ele>1072.7</ele>
        <time>2026-08-27T09:08:00.243Z</time>
      </trkpt>
      <trkpt lat="47.84574" lon="6.95983">
        <ele>1072</ele>
        <time>2026-08-27T09:08:02.259Z</time>
      </trkpt>
      <trkpt lat="47.84578" lon="6.95985">
        <ele>1071.8</ele>
        <time>2026-08-27T09:08:04.166Z</time>
      </trkpt>
      <trkpt lat="47.84579" lon="6.95986">
        <ele>1071.2</ele>
        <time>2026-08-27T09:08:05.183Z</time>
      </trkpt>
      <trkpt lat="47.8458" lon="6.95986">
        <ele>1071.2</ele>
        <time>2026-08-27T09:08:06.183Z</time>
      </trkpt>
      <trkpt lat="47.84581" lon="6.95987">
        <ele>1071</ele>
        <time>2026-08-27T09:08:07.200Z</time>
      </trkpt>
      <trkpt lat="47.84582" lon="6.95986">
        <ele>1071.1</ele>
        <time>2026-08-27T09:08:08.207Z</time>
      </trkpt>
      <trkpt lat="47.84584" lon="6.95985">
        <ele>1070.9</ele>
        <time>2026-08-27T09:08:09.215Z</time>
      </trkpt>
      <trkpt lat="47.84586" lon="6.95984">
        <ele>1070.9</ele>
        <time>2026-08-27T09:08:10.223Z</time>
      </trkpt>
      <trkpt lat="47.84587" lon="6.95983">
        <ele>1070.7</ele>
        <time>2026-08-27T09:08:11.232Z</time>
      </trkpt>
      <trkpt lat="47.84588" lon="6.95983">
        <ele>1070.7</ele>
        <time>2026-08-27T09:08:12.264Z</time>
      </trkpt>
      <trkpt lat="47.84588" lon="6.95984">
        <ele>1070.3</ele>
        <time>2026-08-27T09:08:13.265Z</time>
      </trkpt>
      <trkpt lat="47.84587" lon="6.95984">
        <ele>1070.4</ele>
        <time>2026-08-27T09:08:14.365Z</time>
      </trkpt>
      <trkpt lat="47.84587" lon="6.95984">
        <ele>1070.1</ele>
        <time>2026-08-27T09:08:15.709Z</time>
      </trkpt>
      <trkpt lat="47.84587" lon="6.95984">
        <ele>1069.8</ele>
        <time>2026-08-27T09:08:16.827Z</time>
      </trkpt>
      <trkpt lat="47.84586" lon="6.95984">
        <ele>1069.9</ele>
        <time>2026-08-27T09:08:18.044Z</time>
      </trkpt>
      <trkpt lat="47.84586" lon="6.95985">
        <ele>1069.3</ele>
        <time>2026-08-27T09:08:19.169Z</time>
      </trkpt>
      <trkpt lat="47.84585" lon="6.95986">
        <ele>1068.8</ele>
        <time>2026-08-27T09:08:20.203Z</time>
      </trkpt>
      <trkpt lat="47.84584" lon="6.95989">
        <ele>1068.3</ele>
        <time>2026-08-27T09:08:22.244Z</time>
      </trkpt>
      <trkpt lat="47.84582" lon="6.95993">
        <ele>1067.8</ele>
        <time>2026-08-27T09:08:24.235Z</time>
      </trkpt>
      <trkpt lat="47.8458" lon="6.95996">
        <ele>1067.7</ele>
        <time>2026-08-27T09:08:26.244Z</time>
      </trkpt>
      <trkpt lat="47.84579" lon="6.95998">
        <ele>1067.3</ele>
        <time>2026-08-27T09:08:28.166Z</time>
      </trkpt>
      <trkpt lat="47.84579" lon="6.95999">
        <ele>1067.1</ele>
        <time>2026-08-27T09:08:29.276Z</time>
      </trkpt>
      <trkpt lat="47.84578" lon="6.96">
        <ele>1066.7</ele>
        <time>2026-08-27T09:08:31.190Z</time>
      </trkpt>
      <trkpt lat="47.84577" lon="6.96001">
        <ele>1067.1</ele>
        <time>2026-08-27T09:08:32.199Z</time>
      </trkpt>
      <trkpt lat="47.84576" lon="6.96002">
        <ele>1066.8</ele>
        <time>2026-08-27T09:08:34.216Z</time>
      </trkpt>
      <trkpt lat="47.84576" lon="6.96003">
        <ele>1066.2</ele>
        <time>2026-08-27T09:08:35.223Z</time>
      </trkpt>
      <trkpt lat="47.84576" lon="6.96004">
        <ele>1065.9</ele>
        <time>2026-08-27T09:08:36.232Z</time>
      </trkpt>
      <trkpt lat="47.84575" lon="6.96005">
        <ele>1065.8</ele>
        <time>2026-08-27T09:08:37.240Z</time>
      </trkpt>
      <trkpt lat="47.84575" lon="6.96006">
        <ele>1065.8</ele>
        <time>2026-08-27T09:08:38.248Z</time>
      </trkpt>
      <trkpt lat="47.84576" lon="6.96008">
        <ele>1065.9</ele>
        <time>2026-08-27T09:08:40.162Z</time>
      </trkpt>
      <trkpt lat="47.84577" lon="6.96008">
        <ele>1065.7</ele>
        <time>2026-08-27T09:08:41.171Z</time>
      </trkpt>
      <trkpt lat="47.84578" lon="6.96009">
        <ele>1065.6</ele>
        <time>2026-08-27T09:08:42.279Z</time>
      </trkpt>
      <trkpt lat="47.8458" lon="6.9601">
        <ele>1065.4</ele>
        <time>2026-08-27T09:08:44.102Z</time>
      </trkpt>
      <trkpt lat="47.84581" lon="6.96011">
        <ele>1065</ele>
        <time>2026-08-27T09:08:45.202Z</time>
      </trkpt>
      <trkpt lat="47.84582" lon="6.96011">
        <ele>1065</ele>
        <time>2026-08-27T09:08:46.210Z</time>
      </trkpt>
      <trkpt lat="47.84583" lon="6.96011">
        <ele>1064.8</ele>
        <time>2026-08-27T09:08:47.218Z</time>
      </trkpt>
      <trkpt lat="47.84586" lon="6.96011">
        <ele>1064.4</ele>
        <time>2026-08-27T09:08:49.235Z</time>
      </trkpt>
      <trkpt lat="47.84588" lon="6.96011">
        <ele>1064.1</ele>
        <time>2026-08-27T09:08:50.243Z</time>
      </trkpt>
      <trkpt lat="47.84589" lon="6.9601">
        <ele>1063.9</ele>
        <time>2026-08-27T09:08:51.251Z</time>
      </trkpt>
      <trkpt lat="47.84592" lon="6.9601">
        <ele>1063.4</ele>
        <time>2026-08-27T09:08:53.268Z</time>
      </trkpt>
      <trkpt lat="47.84594" lon="6.96011">
        <ele>1063</ele>
        <time>2026-08-27T09:08:55.182Z</time>
      </trkpt>
      <trkpt lat="47.84594" lon="6.96011">
        <ele>1063.2</ele>
        <time>2026-08-27T09:08:56.191Z</time>
      </trkpt>
      <trkpt lat="47.84595" lon="6.9601">
        <ele>1062.9</ele>
        <time>2026-08-27T09:08:57.199Z</time>
      </trkpt>
      <trkpt lat="47.84595" lon="6.9601">
        <ele>1062.9</ele>
        <time>2026-08-27T09:08:58.248Z</time>
      </trkpt>
      <trkpt lat="47.84596" lon="6.96009">
        <ele>1062</ele>
        <time>2026-08-27T09:09:00.222Z</time>
      </trkpt>
      <trkpt lat="47.84597" lon="6.96008">
        <ele>1061.4</ele>
        <time>2026-08-27T09:09:02.238Z</time>
      </trkpt>
      <trkpt lat="47.84598" lon="6.96006">
        <ele>1060.9</ele>
        <time>2026-08-27T09:09:04.255Z</time>
      </trkpt>
      <trkpt lat="47.84599" lon="6.96004">
        <ele>1060.6</ele>
        <time>2026-08-27T09:09:06.170Z</time>
      </trkpt>
      <trkpt lat="47.846" lon="6.96003">
        <ele>1060.5</ele>
        <time>2026-08-27T09:09:07.262Z</time>
      </trkpt>
      <trkpt lat="47.84602" lon="6.96002">
        <ele>1060.5</ele>
        <time>2026-08-27T09:09:09.195Z</time>
      </trkpt>
      <trkpt lat="47.84603" lon="6.96002">
        <ele>1060.4</ele>
        <time>2026-08-27T09:09:10.203Z</time>
      </trkpt>
      <trkpt lat="47.84604" lon="6.96002">
        <ele>1060.1</ele>
        <time>2026-08-27T09:09:11.210Z</time>
      </trkpt>
      <trkpt lat="47.84605" lon="6.96002">
        <ele>1059.9</ele>
        <time>2026-08-27T09:09:12.218Z</time>
      </trkpt>
      <trkpt lat="47.84606" lon="6.96002">
        <ele>1059.9</ele>
        <time>2026-08-27T09:09:13.243Z</time>
      </trkpt>
      <trkpt lat="47.84608" lon="6.96003">
        <ele>1059.8</ele>
        <time>2026-08-27T09:09:15.225Z</time>
      </trkpt>
      <trkpt lat="47.8461" lon="6.96003">
        <ele>1059.1</ele>
        <time>2026-08-27T09:09:17.158Z</time>
      </trkpt>
      <trkpt lat="47.8461" lon="6.96002">
        <ele>1059</ele>
        <time>2026-08-27T09:09:18.166Z</time>
      </trkpt>
      <trkpt lat="47.84612" lon="6.96">
        <ele>1058.7</ele>
        <time>2026-08-27T09:09:20.284Z</time>
      </trkpt>
      <trkpt lat="47.84614" lon="6.95998">
        <ele>1057.9</ele>
        <time>2026-08-27T09:09:22.265Z</time>
      </trkpt>
      <trkpt lat="47.84616" lon="6.95997">
        <ele>1057.9</ele>
        <time>2026-08-27T09:09:24.214Z</time>
      </trkpt>
      <trkpt lat="47.84617" lon="6.95996">
        <ele>1057.6</ele>
        <time>2026-08-27T09:09:25.222Z</time>
      </trkpt>
      <trkpt lat="47.84618" lon="6.95995">
        <ele>1057.2</ele>
        <time>2026-08-27T09:09:26.230Z</time>
      </trkpt>
      <trkpt lat="47.84618" lon="6.95994">
        <ele>1057.3</ele>
        <time>2026-08-27T09:09:27.239Z</time>
      </trkpt>
      <trkpt lat="47.8462" lon="6.95993">
        <ele>1056.6</ele>
        <time>2026-08-27T09:09:29.154Z</time>
      </trkpt>
      <trkpt lat="47.84621" lon="6.95992">
        <ele>1056.7</ele>
        <time>2026-08-27T09:09:31.178Z</time>
      </trkpt>
      <trkpt lat="47.84621" lon="6.95992">
        <ele>1056.2</ele>
        <time>2026-08-27T09:09:32.187Z</time>
      </trkpt>
      <trkpt lat="47.84621" lon="6.95991">
        <ele>1055.7</ele>
        <time>2026-08-27T09:09:33.195Z</time>
      </trkpt>
      <trkpt lat="47.84622" lon="6.95991">
        <ele>1055.9</ele>
        <time>2026-08-27T09:09:34.202Z</time>
      </trkpt>
      <trkpt lat="47.84623" lon="6.95991">
        <ele>1056</ele>
        <time>2026-08-27T09:09:35.210Z</time>
      </trkpt>
      <trkpt lat="47.84623" lon="6.95992">
        <ele>1055.9</ele>
        <time>2026-08-27T09:09:36.218Z</time>
      </trkpt>
      <trkpt lat="47.84623" lon="6.95992">
        <ele>1055.7</ele>
        <time>2026-08-27T09:09:37.226Z</time>
      </trkpt>
      <trkpt lat="47.84623" lon="6.95992">
        <ele>1055.4</ele>
        <time>2026-08-27T09:09:39.108Z</time>
      </trkpt>
      <trkpt lat="47.84622" lon="6.95991">
        <ele>1055.5</ele>
        <time>2026-08-27T09:09:40.149Z</time>
      </trkpt>
      <trkpt lat="47.84622" lon="6.95991">
        <ele>1055.5</ele>
        <time>2026-08-27T09:09:41.209Z</time>
      </trkpt>
      <trkpt lat="47.84622" lon="6.95991">
        <ele>1055</ele>
        <time>2026-08-27T09:09:42.266Z</time>
      </trkpt>
      <trkpt lat="47.84621" lon="6.95991">
        <ele>1055</ele>
        <time>2026-08-27T09:09:43.274Z</time>
      </trkpt>
      <trkpt lat="47.8462" lon="6.95991">
        <ele>1054.8</ele>
        <time>2026-08-27T09:09:44.282Z</time>
      </trkpt>
      <trkpt lat="47.84617" lon="6.95992">
        <ele>1054.5</ele>
        <time>2026-08-27T09:09:46.198Z</time>
      </trkpt>
      <trkpt lat="47.84616" lon="6.95994">
        <ele>1054.2</ele>
        <time>2026-08-27T09:09:47.206Z</time>
      </trkpt>
      <trkpt lat="47.84614" lon="6.95998">
        <ele>1053.8</ele>
        <time>2026-08-27T09:09:49.223Z</time>
      </trkpt>
      <trkpt lat="47.84613" lon="6.95999">
        <ele>1053.6</ele>
        <time>2026-08-27T09:09:50.231Z</time>
      </trkpt>
      <trkpt lat="47.84612" lon="6.96">
        <ele>1053.2</ele>
        <time>2026-08-27T09:09:51.238Z</time>
      </trkpt>
      <trkpt lat="47.8461" lon="6.96003">
        <ele>1052.8</ele>
        <time>2026-08-27T09:09:53.254Z</time>
      </trkpt>
      <trkpt lat="47.84609" lon="6.96006">
        <ele>1052.3</ele>
        <time>2026-08-27T09:09:55.246Z</time>
      </trkpt>
      <trkpt lat="47.84608" lon="6.96007">
        <ele>1052.5</ele>
        <time>2026-08-27T09:09:56.278Z</time>
      </trkpt>
      <trkpt lat="47.84608" lon="6.96009">
        <ele>1052.6</ele>
        <time>2026-08-27T09:09:57.287Z</time>
      </trkpt>
      <trkpt lat="47.84607" lon="6.96012">
        <ele>1051.9</ele>
        <time>2026-08-27T09:09:59.127Z</time>
      </trkpt>
      <trkpt lat="47.84607" lon="6.96013">
        <ele>1052.2</ele>
        <time>2026-08-27T09:10:00.210Z</time>
      </trkpt>
      <trkpt lat="47.84607" lon="6.96014">
        <ele>1051.8</ele>
        <time>2026-08-27T09:10:01.218Z</time>
      </trkpt>
      <trkpt lat="47.84605" lon="6.96017">
        <ele>1051.1</ele>
        <time>2026-08-27T09:10:03.234Z</time>
      </trkpt>
      <trkpt lat="47.84605" lon="6.96017">
        <ele>1051.4</ele>
        <time>2026-08-27T09:10:04.242Z</time>
      </trkpt>
      <trkpt lat="47.84603" lon="6.96019">
        <ele>1051.2</ele>
        <time>2026-08-27T09:10:06.088Z</time>
      </trkpt>
      <trkpt lat="47.84602" lon="6.96021">
        <ele>1051.1</ele>
        <time>2026-08-27T09:10:07.274Z</time>
      </trkpt>
      <trkpt lat="47.84602" lon="6.96022">
        <ele>1050.8</ele>
        <time>2026-08-27T09:10:08.274Z</time>
      </trkpt>
      <trkpt lat="47.846" lon="6.96025">
        <ele>1050.5</ele>
        <time>2026-08-27T09:10:10.190Z</time>
      </trkpt>
      <trkpt lat="47.846" lon="6.96026">
        <ele>1050.6</ele>
        <time>2026-08-27T09:10:11.198Z</time>
      </trkpt>
      <trkpt lat="47.84599" lon="6.96027">
        <ele>1050.7</ele>
        <time>2026-08-27T09:10:12.205Z</time>
      </trkpt>
      <trkpt lat="47.84597" lon="6.9603">
        <ele>1050.5</ele>
        <time>2026-08-27T09:10:14.121Z</time>
      </trkpt>
      <trkpt lat="47.84596" lon="6.96032">
        <ele>1050.5</ele>
        <time>2026-08-27T09:10:15.229Z</time>
      </trkpt>
      <trkpt lat="47.84596" lon="6.96034">
        <ele>1050.4</ele>
        <time>2026-08-27T09:10:16.239Z</time>
      </trkpt>
      <trkpt lat="47.84594" lon="6.96035">
        <ele>1050.7</ele>
        <time>2026-08-27T09:10:17.246Z</time>
      </trkpt>
      <trkpt lat="47.84592" lon="6.96038">
        <ele>1050.4</ele>
        <time>2026-08-27T09:10:19.119Z</time>
      </trkpt>
      <trkpt lat="47.84591" lon="6.9604">
        <ele>1050.2</ele>
        <time>2026-08-27T09:10:20.169Z</time>
      </trkpt>
      <trkpt lat="47.84591" lon="6.96041">
        <ele>1050.2</ele>
        <time>2026-08-27T09:10:21.177Z</time>
      </trkpt>
      <trkpt lat="47.8459" lon="6.96042">
        <ele>1050.2</ele>
        <time>2026-08-27T09:10:22.185Z</time>
      </trkpt>
      <trkpt lat="47.84589" lon="6.96044">
        <ele>1050.1</ele>
        <time>2026-08-27T09:10:23.194Z</time>
      </trkpt>
      <trkpt lat="47.84588" lon="6.96045">
        <ele>1049.8</ele>
        <time>2026-08-27T09:10:24.202Z</time>
      </trkpt>
      <trkpt lat="47.84587" lon="6.96046">
        <ele>1050.3</ele>
        <time>2026-08-27T09:10:25.210Z</time>
      </trkpt>
      <trkpt lat="47.84587" lon="6.96047">
        <ele>1050.1</ele>
        <time>2026-08-27T09:10:26.218Z</time>
      </trkpt>
      <trkpt lat="47.84587" lon="6.96048">
        <ele>1050.1</ele>
        <time>2026-08-27T09:10:27.234Z</time>
      </trkpt>
      <trkpt lat="47.84586" lon="6.96049">
        <ele>1050.1</ele>
        <time>2026-08-27T09:10:28.234Z</time>
      </trkpt>
      <trkpt lat="47.84585" lon="6.9605">
        <ele>1049.7</ele>
        <time>2026-08-27T09:10:30.250Z</time>
      </trkpt>
      <trkpt lat="47.84585" lon="6.9605">
        <ele>1049.7</ele>
        <time>2026-08-27T09:10:31.258Z</time>
      </trkpt>
      <trkpt lat="47.84585" lon="6.96051">
        <ele>1049.7</ele>
        <time>2026-08-27T09:10:32.265Z</time>
      </trkpt>
      <trkpt lat="47.84584" lon="6.96052">
        <ele>1049.2</ele>
        <time>2026-08-27T09:10:34.182Z</time>
      </trkpt>
      <trkpt lat="47.84583" lon="6.96053">
        <ele>1049.4</ele>
        <time>2026-08-27T09:10:35.189Z</time>
      </trkpt>
      <trkpt lat="47.84582" lon="6.96053">
        <ele>1049.3</ele>
        <time>2026-08-27T09:10:36.197Z</time>
      </trkpt>
      <trkpt lat="47.8458" lon="6.96053">
        <ele>1049.2</ele>
        <time>2026-08-27T09:10:37.206Z</time>
      </trkpt>
      <trkpt lat="47.84579" lon="6.96053">
        <ele>1049</ele>
        <time>2026-08-27T09:10:38.214Z</time>
      </trkpt>
      <trkpt lat="47.84577" lon="6.96054">
        <ele>1048.6</ele>
        <time>2026-08-27T09:10:39.221Z</time>
      </trkpt>
      <trkpt lat="47.84575" lon="6.96054">
        <ele>1048.6</ele>
        <time>2026-08-27T09:10:40.238Z</time>
      </trkpt>
      <trkpt lat="47.84574" lon="6.96053">
        <ele>1048.7</ele>
        <time>2026-08-27T09:10:41.238Z</time>
      </trkpt>
      <trkpt lat="47.84571" lon="6.96054">
        <ele>1048.7</ele>
        <time>2026-08-27T09:10:43.295Z</time>
      </trkpt>
      <trkpt lat="47.84568" lon="6.96054">
        <ele>1048.5</ele>
        <time>2026-08-27T09:10:45.270Z</time>
      </trkpt>
      <trkpt lat="47.84566" lon="6.96056">
        <ele>1048.3</ele>
        <time>2026-08-27T09:10:47.184Z</time>
      </trkpt>
      <trkpt lat="47.84566" lon="6.96057">
        <ele>1048.1</ele>
        <time>2026-08-27T09:10:48.277Z</time>
      </trkpt>
      <trkpt lat="47.84564" lon="6.96059">
        <ele>1048</ele>
        <time>2026-08-27T09:10:50.209Z</time>
      </trkpt>
      <trkpt lat="47.84562" lon="6.96061">
        <ele>1047.7</ele>
        <time>2026-08-27T09:10:52.225Z</time>
      </trkpt>
      <trkpt lat="47.84562" lon="6.96061">
        <ele>1047.7</ele>
        <time>2026-08-27T09:10:53.258Z</time>
      </trkpt>
      <trkpt lat="47.8456" lon="6.96061">
        <ele>1047.7</ele>
        <time>2026-08-27T09:10:55.249Z</time>
      </trkpt>
      <trkpt lat="47.8456" lon="6.96061">
        <ele>1047.3</ele>
        <time>2026-08-27T09:10:56.257Z</time>
      </trkpt>
      <trkpt lat="47.84559" lon="6.96061">
        <ele>1047.7</ele>
        <time>2026-08-27T09:10:57.270Z</time>
      </trkpt>
      <trkpt lat="47.84558" lon="6.96061">
        <ele>1047.3</ele>
        <time>2026-08-27T09:10:59.189Z</time>
      </trkpt>
      <trkpt lat="47.84557" lon="6.96061">
        <ele>1047.3</ele>
        <time>2026-08-27T09:11:00.198Z</time>
      </trkpt>
      <trkpt lat="47.84555" lon="6.96062">
        <ele>1046.9</ele>
        <time>2026-08-27T09:11:02.213Z</time>
      </trkpt>
      <trkpt lat="47.84554" lon="6.96063">
        <ele>1046.8</ele>
        <time>2026-08-27T09:11:03.222Z</time>
      </trkpt>
      <trkpt lat="47.84553" lon="6.96064">
        <ele>1047</ele>
        <time>2026-08-27T09:11:04.229Z</time>
      </trkpt>
      <trkpt lat="47.84551" lon="6.96065">
        <ele>1046.7</ele>
        <time>2026-08-27T09:11:06.245Z</time>
      </trkpt>
      <trkpt lat="47.8455" lon="6.96066">
        <ele>1046.4</ele>
        <time>2026-08-27T09:11:07.253Z</time>
      </trkpt>
      <trkpt lat="47.84548" lon="6.96068">
        <ele>1046</ele>
        <time>2026-08-27T09:11:09.168Z</time>
      </trkpt>
      <trkpt lat="47.84547" lon="6.96069">
        <ele>1046</ele>
        <time>2026-08-27T09:11:10.269Z</time>
      </trkpt>
      <trkpt lat="47.84545" lon="6.96069">
        <ele>1046.1</ele>
        <time>2026-08-27T09:11:11.285Z</time>
      </trkpt>
      <trkpt lat="47.84543" lon="6.96069">
        <ele>1045.8</ele>
        <time>2026-08-27T09:11:13.200Z</time>
      </trkpt>
      <trkpt lat="47.84542" lon="6.9607">
        <ele>1045.8</ele>
        <time>2026-08-27T09:11:14.208Z</time>
      </trkpt>
      <trkpt lat="47.84541" lon="6.9607">
        <ele>1045.7</ele>
        <time>2026-08-27T09:11:15.216Z</time>
      </trkpt>
      <trkpt lat="47.84538" lon="6.96072">
        <ele>1044.9</ele>
        <time>2026-08-27T09:11:17.234Z</time>
      </trkpt>
      <trkpt lat="47.84537" lon="6.96073">
        <ele>1044.7</ele>
        <time>2026-08-27T09:11:18.241Z</time>
      </trkpt>
      <trkpt lat="47.84535" lon="6.96074">
        <ele>1044.7</ele>
        <time>2026-08-27T09:11:20.258Z</time>
      </trkpt>
      <trkpt lat="47.84533" lon="6.96075">
        <ele>1044.4</ele>
        <time>2026-08-27T09:11:21.265Z</time>
      </trkpt>
      <trkpt lat="47.84532" lon="6.96075">
        <ele>1044.1</ele>
        <time>2026-08-27T09:11:23.181Z</time>
      </trkpt>
      <trkpt lat="47.84531" lon="6.96076">
        <ele>1044</ele>
        <time>2026-08-27T09:11:24.188Z</time>
      </trkpt>
      <trkpt lat="47.8453" lon="6.96076">
        <ele>1043.9</ele>
        <time>2026-08-27T09:11:25.197Z</time>
      </trkpt>
      <trkpt lat="47.84528" lon="6.96078">
        <ele>1043.4</ele>
        <time>2026-08-27T09:11:27.288Z</time>
      </trkpt>
      <trkpt lat="47.84526" lon="6.96077">
        <ele>1042.9</ele>
        <time>2026-08-27T09:11:29.232Z</time>
      </trkpt>
      <trkpt lat="47.84525" lon="6.96077">
        <ele>1043.2</ele>
        <time>2026-08-27T09:11:30.295Z</time>
      </trkpt>
      <trkpt lat="47.84524" lon="6.96078">
        <ele>1042.6</ele>
        <time>2026-08-27T09:11:32.257Z</time>
      </trkpt>
      <trkpt lat="47.84523" lon="6.96078">
        <ele>1042.2</ele>
        <time>2026-08-27T09:11:34.172Z</time>
      </trkpt>
      <trkpt lat="47.84522" lon="6.96079">
        <ele>1042</ele>
        <time>2026-08-27T09:11:36.175Z</time>
      </trkpt>
      <trkpt lat="47.84521" lon="6.96081">
        <ele>1041.3</ele>
        <time>2026-08-27T09:11:37.196Z</time>
      </trkpt>
      <trkpt lat="47.8452" lon="6.96082">
        <ele>1041.2</ele>
        <time>2026-08-27T09:11:38.204Z</time>
      </trkpt>
      <trkpt lat="47.84519" lon="6.96083">
        <ele>1041.1</ele>
        <time>2026-08-27T09:11:39.212Z</time>
      </trkpt>
      <trkpt lat="47.84518" lon="6.96085">
        <ele>1041</ele>
        <time>2026-08-27T09:11:40.220Z</time>
      </trkpt>
      <trkpt lat="47.84516" lon="6.96086">
        <ele>1040.8</ele>
        <time>2026-08-27T09:11:41.228Z</time>
      </trkpt>
      <trkpt lat="47.84515" lon="6.96086">
        <ele>1040.7</ele>
        <time>2026-08-27T09:11:42.236Z</time>
      </trkpt>
      <trkpt lat="47.84513" lon="6.96085">
        <ele>1040.5</ele>
        <time>2026-08-27T09:11:44.151Z</time>
      </trkpt>
      <trkpt lat="47.84512" lon="6.96085">
        <ele>1040.1</ele>
        <time>2026-08-27T09:11:45.260Z</time>
      </trkpt>
      <trkpt lat="47.84511" lon="6.96085">
        <ele>1039.9</ele>
        <time>2026-08-27T09:11:46.268Z</time>
      </trkpt>
      <trkpt lat="47.84509" lon="6.96087">
        <ele>1039.9</ele>
        <time>2026-08-27T09:11:48.184Z</time>
      </trkpt>
      <trkpt lat="47.84507" lon="6.96087">
        <ele>1039.8</ele>
        <time>2026-08-27T09:11:50.255Z</time>
      </trkpt>
      <trkpt lat="47.84505" lon="6.96088">
        <ele>1039.2</ele>
        <time>2026-08-27T09:11:52.216Z</time>
      </trkpt>
      <trkpt lat="47.84504" lon="6.96089">
        <ele>1039.2</ele>
        <time>2026-08-27T09:11:53.225Z</time>
      </trkpt>
      <trkpt lat="47.84503" lon="6.9609">
        <ele>1039.1</ele>
        <time>2026-08-27T09:11:54.232Z</time>
      </trkpt>
      <trkpt lat="47.84501" lon="6.96091">
        <ele>1038.9</ele>
        <time>2026-08-27T09:11:56.249Z</time>
      </trkpt>
      <trkpt lat="47.845" lon="6.96092">
        <ele>1039.2</ele>
        <time>2026-08-27T09:11:57.256Z</time>
      </trkpt>
      <trkpt lat="47.845" lon="6.96093">
        <ele>1038.9</ele>
        <time>2026-08-27T09:11:58.273Z</time>
      </trkpt>
      <trkpt lat="47.84498" lon="6.96094">
        <ele>1038.8</ele>
        <time>2026-08-27T09:11:59.280Z</time>
      </trkpt>
      <trkpt lat="47.84497" lon="6.96095">
        <ele>1038.7</ele>
        <time>2026-08-27T09:12:01.133Z</time>
      </trkpt>
      <trkpt lat="47.84496" lon="6.96096">
        <ele>1038.5</ele>
        <time>2026-08-27T09:12:02.216Z</time>
      </trkpt>
      <trkpt lat="47.84495" lon="6.96096">
        <ele>1038.2</ele>
        <time>2026-08-27T09:12:03.224Z</time>
      </trkpt>
      <trkpt lat="47.84494" lon="6.96097">
        <ele>1038.2</ele>
        <time>2026-08-27T09:12:04.274Z</time>
      </trkpt>
      <trkpt lat="47.84491" lon="6.96099">
        <ele>1037.3</ele>
        <time>2026-08-27T09:12:06.248Z</time>
      </trkpt>
      <trkpt lat="47.84491" lon="6.961">
        <ele>1037.2</ele>
        <time>2026-08-27T09:12:07.256Z</time>
      </trkpt>
      <trkpt lat="47.8449" lon="6.96102">
        <ele>1037.1</ele>
        <time>2026-08-27T09:12:08.265Z</time>
      </trkpt>
      <trkpt lat="47.84488" lon="6.96104">
        <ele>1036.8</ele>
        <time>2026-08-27T09:12:10.282Z</time>
      </trkpt>
      <trkpt lat="47.84485" lon="6.96105">
        <ele>1036.7</ele>
        <time>2026-08-27T09:12:12.297Z</time>
      </trkpt>
      <trkpt lat="47.84483" lon="6.96107">
        <ele>1036.2</ele>
        <time>2026-08-27T09:12:14.212Z</time>
      </trkpt>
      <trkpt lat="47.84482" lon="6.96108">
        <ele>1035.9</ele>
        <time>2026-08-27T09:12:15.221Z</time>
      </trkpt>
      <trkpt lat="47.84482" lon="6.9611">
        <ele>1035.9</ele>
        <time>2026-08-27T09:12:16.295Z</time>
      </trkpt>
      <trkpt lat="47.84481" lon="6.96113">
        <ele>1035.9</ele>
        <time>2026-08-27T09:12:18.177Z</time>
      </trkpt>
      <trkpt lat="47.8448" lon="6.96114">
        <ele>1035.9</ele>
        <time>2026-08-27T09:12:19.252Z</time>
      </trkpt>
      <trkpt lat="47.84479" lon="6.96117">
        <ele>1035.3</ele>
        <time>2026-08-27T09:12:21.268Z</time>
      </trkpt>
      <trkpt lat="47.84477" lon="6.96121">
        <ele>1035.2</ele>
        <time>2026-08-27T09:12:23.183Z</time>
      </trkpt>
      <trkpt lat="47.84477" lon="6.96122">
        <ele>1034.9</ele>
        <time>2026-08-27T09:12:24.191Z</time>
      </trkpt>
      <trkpt lat="47.84476" lon="6.96127">
        <ele>1035.2</ele>
        <time>2026-08-27T09:12:26.207Z</time>
      </trkpt>
      <trkpt lat="47.84476" lon="6.96129">
        <ele>1035</ele>
        <time>2026-08-27T09:12:27.216Z</time>
      </trkpt>
      <trkpt lat="47.84476" lon="6.9613">
        <ele>1034.8</ele>
        <time>2026-08-27T09:12:28.224Z</time>
      </trkpt>
      <trkpt lat="47.84476" lon="6.96131">
        <ele>1034.7</ele>
        <time>2026-08-27T09:12:29.232Z</time>
      </trkpt>
      <trkpt lat="47.84476" lon="6.96133">
        <ele>1034.8</ele>
        <time>2026-08-27T09:12:30.241Z</time>
      </trkpt>
      <trkpt lat="47.84476" lon="6.96134">
        <ele>1034.8</ele>
        <time>2026-08-27T09:12:31.256Z</time>
      </trkpt>
      <trkpt lat="47.84476" lon="6.96135">
        <ele>1034.2</ele>
        <time>2026-08-27T09:12:32.256Z</time>
      </trkpt>
      <trkpt lat="47.84475" lon="6.96138">
        <ele>1033.8</ele>
        <time>2026-08-27T09:12:34.171Z</time>
      </trkpt>
      <trkpt lat="47.84475" lon="6.9614">
        <ele>1033.6</ele>
        <time>2026-08-27T09:12:35.179Z</time>
      </trkpt>
      <trkpt lat="47.84474" lon="6.96141">
        <ele>1033.4</ele>
        <time>2026-08-27T09:12:36.187Z</time>
      </trkpt>
      <trkpt lat="47.84473" lon="6.96145">
        <ele>1033.2</ele>
        <time>2026-08-27T09:12:38.253Z</time>
      </trkpt>
      <trkpt lat="47.84471" lon="6.96148">
        <ele>1032.8</ele>
        <time>2026-08-27T09:12:40.135Z</time>
      </trkpt>
      <trkpt lat="47.8447" lon="6.9615">
        <ele>1032.8</ele>
        <time>2026-08-27T09:12:41.294Z</time>
      </trkpt>
      <trkpt lat="47.84468" lon="6.96153">
        <ele>1032.7</ele>
        <time>2026-08-27T09:12:42.798Z</time>
      </trkpt>
      <trkpt lat="47.84466" lon="6.96154">
        <ele>1032.6</ele>
        <time>2026-08-27T09:12:43.957Z</time>
      </trkpt>
      <trkpt lat="47.84465" lon="6.96156">
        <ele>1032.4</ele>
        <time>2026-08-27T09:12:45.201Z</time>
      </trkpt>
      <trkpt lat="47.84464" lon="6.96158">
        <ele>1032.2</ele>
        <time>2026-08-27T09:12:46.234Z</time>
      </trkpt>
      <trkpt lat="47.84464" lon="6.96159">
        <ele>1032.2</ele>
        <time>2026-08-27T09:12:47.275Z</time>
      </trkpt>
      <trkpt lat="47.84463" lon="6.96161">
        <ele>1032.2</ele>
        <time>2026-08-27T09:12:49.291Z</time>
      </trkpt>
      <trkpt lat="47.84463" lon="6.96164">
        <ele>1031.9</ele>
        <time>2026-08-27T09:12:51.207Z</time>
      </trkpt>
      <trkpt lat="47.84462" lon="6.96165">
        <ele>1031.7</ele>
        <time>2026-08-27T09:12:52.215Z</time>
      </trkpt>
      <trkpt lat="47.84461" lon="6.96168">
        <ele>1031.5</ele>
        <time>2026-08-27T09:12:54.231Z</time>
      </trkpt>
      <trkpt lat="47.84461" lon="6.96169">
        <ele>1031.9</ele>
        <time>2026-08-27T09:12:55.239Z</time>
      </trkpt>
      <trkpt lat="47.8446" lon="6.9617">
        <ele>1031.7</ele>
        <time>2026-08-27T09:12:56.247Z</time>
      </trkpt>
      <trkpt lat="47.84458" lon="6.96173">
        <ele>1031.1</ele>
        <time>2026-08-27T09:12:58.162Z</time>
      </trkpt>
      <trkpt lat="47.84457" lon="6.96175">
        <ele>1031.3</ele>
        <time>2026-08-27T09:13:00.297Z</time>
      </trkpt>
      <trkpt lat="47.84456" lon="6.96177">
        <ele>1030.5</ele>
        <time>2026-08-27T09:13:02.195Z</time>
      </trkpt>
      <trkpt lat="47.84456" lon="6.96178">
        <ele>1030.4</ele>
        <time>2026-08-27T09:13:03.203Z</time>
      </trkpt>
      <trkpt lat="47.84455" lon="6.9618">
        <ele>1030.4</ele>
        <time>2026-08-27T09:13:04.211Z</time>
      </trkpt>
      <trkpt lat="47.84454" lon="6.9618">
        <ele>1029.9</ele>
        <time>2026-08-27T09:13:05.218Z</time>
      </trkpt>
      <trkpt lat="47.84453" lon="6.96181">
        <ele>1029.6</ele>
        <time>2026-08-27T09:13:06.226Z</time>
      </trkpt>
      <trkpt lat="47.84453" lon="6.96182">
        <ele>1029.5</ele>
        <time>2026-08-27T09:13:07.234Z</time>
      </trkpt>
      <trkpt lat="47.84452" lon="6.96184">
        <ele>1029.3</ele>
        <time>2026-08-27T09:13:08.234Z</time>
      </trkpt>
      <trkpt lat="47.84451" lon="6.96186">
        <ele>1029.3</ele>
        <time>2026-08-27T09:13:09.251Z</time>
      </trkpt>
      <trkpt lat="47.84449" lon="6.96188">
        <ele>1029.3</ele>
        <time>2026-08-27T09:13:11.166Z</time>
      </trkpt>
      <trkpt lat="47.84449" lon="6.96189">
        <ele>1029.2</ele>
        <time>2026-08-27T09:13:12.275Z</time>
      </trkpt>
      <trkpt lat="47.84449" lon="6.96191">
        <ele>1028.9</ele>
        <time>2026-08-27T09:13:13.282Z</time>
      </trkpt>
      <trkpt lat="47.84449" lon="6.96195">
        <ele>1028.8</ele>
        <time>2026-08-27T09:13:15.189Z</time>
      </trkpt>
      <trkpt lat="47.84449" lon="6.96197">
        <ele>1028.8</ele>
        <time>2026-08-27T09:13:16.206Z</time>
      </trkpt>
      <trkpt lat="47.84449" lon="6.96199">
        <ele>1028.6</ele>
        <time>2026-08-27T09:13:17.215Z</time>
      </trkpt>
      <trkpt lat="47.84449" lon="6.96201">
        <ele>1028.7</ele>
        <time>2026-08-27T09:13:18.222Z</time>
      </trkpt>
      <trkpt lat="47.84449" lon="6.96202">
        <ele>1028.4</ele>
        <time>2026-08-27T09:13:19.231Z</time>
      </trkpt>
      <trkpt lat="47.84448" lon="6.96203">
        <ele>1028.4</ele>
        <time>2026-08-27T09:13:20.238Z</time>
      </trkpt>
      <trkpt lat="47.84448" lon="6.96205">
        <ele>1028.4</ele>
        <time>2026-08-27T09:13:21.246Z</time>
      </trkpt>
      <trkpt lat="47.84446" lon="6.96207">
        <ele>1028.5</ele>
        <time>2026-08-27T09:13:23.263Z</time>
      </trkpt>
      <trkpt lat="47.84445" lon="6.96208">
        <ele>1028.4</ele>
        <time>2026-08-27T09:13:24.278Z</time>
      </trkpt>
      <trkpt lat="47.84444" lon="6.96209">
        <ele>1028</ele>
        <time>2026-08-27T09:13:25.287Z</time>
      </trkpt>
      <trkpt lat="47.84441" lon="6.96211">
        <ele>1027.9</ele>
        <time>2026-08-27T09:13:27.202Z</time>
      </trkpt>
      <trkpt lat="47.84439" lon="6.96213">
        <ele>1027.7</ele>
        <time>2026-08-27T09:13:28.210Z</time>
      </trkpt>
      <trkpt lat="47.84438" lon="6.96214">
        <ele>1027.5</ele>
        <time>2026-08-27T09:13:29.226Z</time>
      </trkpt>
      <trkpt lat="47.84437" lon="6.96215">
        <ele>1027</ele>
        <time>2026-08-27T09:13:30.227Z</time>
      </trkpt>
      <trkpt lat="47.84436" lon="6.96215">
        <ele>1026.8</ele>
        <time>2026-08-27T09:13:31.234Z</time>
      </trkpt>
      <trkpt lat="47.84436" lon="6.9622">
        <ele>1026.4</ele>
        <time>2026-08-27T09:13:33.251Z</time>
      </trkpt>
      <trkpt lat="47.84436" lon="6.96223">
        <ele>1026</ele>
        <time>2026-08-27T09:13:34.258Z</time>
      </trkpt>
      <trkpt lat="47.84435" lon="6.96225">
        <ele>1025.4</ele>
        <time>2026-08-27T09:13:35.267Z</time>
      </trkpt>
      <trkpt lat="47.84435" lon="6.96229">
        <ele>1025.1</ele>
        <time>2026-08-27T09:13:37.248Z</time>
      </trkpt>
      <trkpt lat="47.84435" lon="6.9623">
        <ele>1024.8</ele>
        <time>2026-08-27T09:13:38.290Z</time>
      </trkpt>
      <trkpt lat="47.84434" lon="6.96233">
        <ele>1024.7</ele>
        <time>2026-08-27T09:13:40.289Z</time>
      </trkpt>
      <trkpt lat="47.84434" lon="6.96236">
        <ele>1024.9</ele>
        <time>2026-08-27T09:13:42.221Z</time>
      </trkpt>
      <trkpt lat="47.84433" lon="6.96237">
        <ele>1024.6</ele>
        <time>2026-08-27T09:13:43.230Z</time>
      </trkpt>
      <trkpt lat="47.84431" lon="6.96239">
        <ele>1024.1</ele>
        <time>2026-08-27T09:13:45.246Z</time>
      </trkpt>
      <trkpt lat="47.8443" lon="6.9624">
        <ele>1024.1</ele>
        <time>2026-08-27T09:13:46.271Z</time>
      </trkpt>
      <trkpt lat="47.84429" lon="6.96241">
        <ele>1024</ele>
        <time>2026-08-27T09:13:47.279Z</time>
      </trkpt>
      <trkpt lat="47.84428" lon="6.96244">
        <ele>1023.7</ele>
        <time>2026-08-27T09:13:49.193Z</time>
      </trkpt>
      <trkpt lat="47.84427" lon="6.96245">
        <ele>1023.8</ele>
        <time>2026-08-27T09:13:50.201Z</time>
      </trkpt>
      <trkpt lat="47.84427" lon="6.96246">
        <ele>1023.5</ele>
        <time>2026-08-27T09:13:51.209Z</time>
      </trkpt>
      <trkpt lat="47.84426" lon="6.96248">
        <ele>1023.8</ele>
        <time>2026-08-27T09:13:52.218Z</time>
      </trkpt>
      <trkpt lat="47.84426" lon="6.9625">
        <ele>1023.5</ele>
        <time>2026-08-27T09:13:53.225Z</time>
      </trkpt>
      <trkpt lat="47.84425" lon="6.96251">
        <ele>1023.5</ele>
        <time>2026-08-27T09:13:54.242Z</time>
      </trkpt>
      <trkpt lat="47.84425" lon="6.96253">
        <ele>1023.4</ele>
        <time>2026-08-27T09:13:55.242Z</time>
      </trkpt>
      <trkpt lat="47.84424" lon="6.96254">
        <ele>1023.6</ele>
        <time>2026-08-27T09:13:56.250Z</time>
      </trkpt>
      <trkpt lat="47.84423" lon="6.96255">
        <ele>1023.2</ele>
        <time>2026-08-27T09:13:58.182Z</time>
      </trkpt>
      <trkpt lat="47.84422" lon="6.96257">
        <ele>1022.3</ele>
        <time>2026-08-27T09:14:00.182Z</time>
      </trkpt>
      <trkpt lat="47.84421" lon="6.96259">
        <ele>1022.3</ele>
        <time>2026-08-27T09:14:01.197Z</time>
      </trkpt>
      <trkpt lat="47.8442" lon="6.9626">
        <ele>1021.8</ele>
        <time>2026-08-27T09:14:02.198Z</time>
      </trkpt>
      <trkpt lat="47.84419" lon="6.96262">
        <ele>1021.5</ele>
        <time>2026-08-27T09:14:03.206Z</time>
      </trkpt>
      <trkpt lat="47.84418" lon="6.96264">
        <ele>1020.9</ele>
        <time>2026-08-27T09:14:04.214Z</time>
      </trkpt>
      <trkpt lat="47.84416" lon="6.96267">
        <ele>1020.8</ele>
        <time>2026-08-27T09:14:06.238Z</time>
      </trkpt>
      <trkpt lat="47.84415" lon="6.9627">
        <ele>1020.8</ele>
        <time>2026-08-27T09:14:08.245Z</time>
      </trkpt>
      <trkpt lat="47.84415" lon="6.96272">
        <ele>1020.7</ele>
        <time>2026-08-27T09:14:09.254Z</time>
      </trkpt>
      <trkpt lat="47.84415" lon="6.96274">
        <ele>1020.7</ele>
        <time>2026-08-27T09:14:10.261Z</time>
      </trkpt>
      <trkpt lat="47.84414" lon="6.96275">
        <ele>1020.6</ele>
        <time>2026-08-27T09:14:11.270Z</time>
      </trkpt>
      <trkpt lat="47.84414" lon="6.96277">
        <ele>1020</ele>
        <time>2026-08-27T09:14:13.184Z</time>
      </trkpt>
      <trkpt lat="47.84413" lon="6.96278">
        <ele>1020.1</ele>
        <time>2026-08-27T09:14:14.193Z</time>
      </trkpt>
      <trkpt lat="47.84413" lon="6.96279">
        <ele>1020.3</ele>
        <time>2026-08-27T09:14:15.201Z</time>
      </trkpt>
      <trkpt lat="47.84412" lon="6.96281">
        <ele>1020.2</ele>
        <time>2026-08-27T09:14:16.208Z</time>
      </trkpt>
      <trkpt lat="47.84412" lon="6.96282">
        <ele>1020.4</ele>
        <time>2026-08-27T09:14:17.217Z</time>
      </trkpt>
      <trkpt lat="47.84411" lon="6.96283">
        <ele>1020.1</ele>
        <time>2026-08-27T09:14:18.225Z</time>
      </trkpt>
      <trkpt lat="47.8441" lon="6.96284">
        <ele>1020.3</ele>
        <time>2026-08-27T09:14:19.234Z</time>
      </trkpt>
      <trkpt lat="47.84409" lon="6.96286">
        <ele>1020</ele>
        <time>2026-08-27T09:14:20.241Z</time>
      </trkpt>
      <trkpt lat="47.84409" lon="6.96287">
        <ele>1020.2</ele>
        <time>2026-08-27T09:14:21.249Z</time>
      </trkpt>
      <trkpt lat="47.84408" lon="6.96288">
        <ele>1020.2</ele>
        <time>2026-08-27T09:14:22.257Z</time>
      </trkpt>
      <trkpt lat="47.84408" lon="6.96289">
        <ele>1019.6</ele>
        <time>2026-08-27T09:14:23.265Z</time>
      </trkpt>
      <trkpt lat="47.84407" lon="6.9629">
        <ele>1020.1</ele>
        <time>2026-08-27T09:14:24.274Z</time>
      </trkpt>
      <trkpt lat="47.84407" lon="6.96293">
        <ele>1020.1</ele>
        <time>2026-08-27T09:14:26.155Z</time>
      </trkpt>
      <trkpt lat="47.84406" lon="6.96295">
        <ele>1019.5</ele>
        <time>2026-08-27T09:14:27.196Z</time>
      </trkpt>
      <trkpt lat="47.84405" lon="6.96296">
        <ele>1019.2</ele>
        <time>2026-08-27T09:14:28.204Z</time>
      </trkpt>
      <trkpt lat="47.84405" lon="6.96297">
        <ele>1019.2</ele>
        <time>2026-08-27T09:14:29.212Z</time>
      </trkpt>
      <trkpt lat="47.84404" lon="6.96298">
        <ele>1019.1</ele>
        <time>2026-08-27T09:14:30.220Z</time>
      </trkpt>
      <trkpt lat="47.84403" lon="6.96299">
        <ele>1018.7</ele>
        <time>2026-08-27T09:14:31.228Z</time>
      </trkpt>
      <trkpt lat="47.84402" lon="6.963">
        <ele>1018.4</ele>
        <time>2026-08-27T09:14:32.236Z</time>
      </trkpt>
      <trkpt lat="47.84401" lon="6.96302">
        <ele>1017.7</ele>
        <time>2026-08-27T09:14:34.253Z</time>
      </trkpt>
      <trkpt lat="47.844" lon="6.96304">
        <ele>1018</ele>
        <time>2026-08-27T09:14:35.260Z</time>
      </trkpt>
      <trkpt lat="47.844" lon="6.96305">
        <ele>1017.9</ele>
        <time>2026-08-27T09:14:36.268Z</time>
      </trkpt>
      <trkpt lat="47.84399" lon="6.96306">
        <ele>1017.9</ele>
        <time>2026-08-27T09:14:37.276Z</time>
      </trkpt>
      <trkpt lat="47.84399" lon="6.96307">
        <ele>1017.7</ele>
        <time>2026-08-27T09:14:38.285Z</time>
      </trkpt>
      <trkpt lat="47.84397" lon="6.96309">
        <ele>1017.7</ele>
        <time>2026-08-27T09:14:40.216Z</time>
      </trkpt>
      <trkpt lat="47.84396" lon="6.96311">
        <ele>1017</ele>
        <time>2026-08-27T09:14:42.216Z</time>
      </trkpt>
      <trkpt lat="47.84396" lon="6.96312">
        <ele>1017</ele>
        <time>2026-08-27T09:14:43.223Z</time>
      </trkpt>
      <trkpt lat="47.84395" lon="6.96313">
        <ele>1017.4</ele>
        <time>2026-08-27T09:14:44.232Z</time>
      </trkpt>
      <trkpt lat="47.84395" lon="6.96314">
        <ele>1017.1</ele>
        <time>2026-08-27T09:14:45.240Z</time>
      </trkpt>
      <trkpt lat="47.84395" lon="6.96316">
        <ele>1017.2</ele>
        <time>2026-08-27T09:14:46.248Z</time>
      </trkpt>
      <trkpt lat="47.84394" lon="6.9632">
        <ele>1017.4</ele>
        <time>2026-08-27T09:14:48.264Z</time>
      </trkpt>
      <trkpt lat="47.84392" lon="6.96323">
        <ele>1016.9</ele>
        <time>2026-08-27T09:14:50.280Z</time>
      </trkpt>
      <trkpt lat="47.84392" lon="6.96324">
        <ele>1016.6</ele>
        <time>2026-08-27T09:14:51.288Z</time>
      </trkpt>
      <trkpt lat="47.8439" lon="6.96326">
        <ele>1016.8</ele>
        <time>2026-08-27T09:14:53.203Z</time>
      </trkpt>
      <trkpt lat="47.84389" lon="6.96328">
        <ele>1016.8</ele>
        <time>2026-08-27T09:14:54.279Z</time>
      </trkpt>
      <trkpt lat="47.84387" lon="6.96331">
        <ele>1015.9</ele>
        <time>2026-08-27T09:14:56.227Z</time>
      </trkpt>
      <trkpt lat="47.84386" lon="6.96332">
        <ele>1015.9</ele>
        <time>2026-08-27T09:14:57.278Z</time>
      </trkpt>
      <trkpt lat="47.84385" lon="6.96336">
        <ele>1015.7</ele>
        <time>2026-08-27T09:14:59.251Z</time>
      </trkpt>
      <trkpt lat="47.84383" lon="6.96339">
        <ele>1015</ele>
        <time>2026-08-27T09:15:01.166Z</time>
      </trkpt>
      <trkpt lat="47.84383" lon="6.96342">
        <ele>1015.1</ele>
        <time>2026-08-27T09:15:02.267Z</time>
      </trkpt>
      <trkpt lat="47.84384" lon="6.96346">
        <ele>1014.5</ele>
        <time>2026-08-27T09:15:04.190Z</time>
      </trkpt>
      <trkpt lat="47.84384" lon="6.96348">
        <ele>1014.5</ele>
        <time>2026-08-27T09:15:05.266Z</time>
      </trkpt>
      <trkpt lat="47.84384" lon="6.9635">
        <ele>1014</ele>
        <time>2026-08-27T09:15:07.215Z</time>
      </trkpt>
      <trkpt lat="47.84384" lon="6.96351">
        <ele>1013.8</ele>
        <time>2026-08-27T09:15:08.223Z</time>
      </trkpt>
      <trkpt lat="47.84384" lon="6.96351">
        <ele>1013.6</ele>
        <time>2026-08-27T09:15:09.230Z</time>
      </trkpt>
      <trkpt lat="47.84384" lon="6.96356">
        <ele>1013</ele>
        <time>2026-08-27T09:15:11.246Z</time>
      </trkpt>
      <trkpt lat="47.84384" lon="6.96358">
        <ele>1012.9</ele>
        <time>2026-08-27T09:15:12.254Z</time>
      </trkpt>
      <trkpt lat="47.84383" lon="6.96363">
        <ele>1013.3</ele>
        <time>2026-08-27T09:15:14.170Z</time>
      </trkpt>
      <trkpt lat="47.84383" lon="6.96366">
        <ele>1013.2</ele>
        <time>2026-08-27T09:15:15.278Z</time>
      </trkpt>
      <trkpt lat="47.84382" lon="6.96369">
        <ele>1012.8</ele>
        <time>2026-08-27T09:15:16.690Z</time>
      </trkpt>
      <trkpt lat="47.84382" lon="6.96372">
        <ele>1013</ele>
        <time>2026-08-27T09:15:17.867Z</time>
      </trkpt>
      <trkpt lat="47.84381" lon="6.96373">
        <ele>1012.9</ele>
        <time>2026-08-27T09:15:18.907Z</time>
      </trkpt>
      <trkpt lat="47.84379" lon="6.96376">
        <ele>1012.6</ele>
        <time>2026-08-27T09:15:20.168Z</time>
      </trkpt>
      <trkpt lat="47.84378" lon="6.96378">
        <ele>1012.8</ele>
        <time>2026-08-27T09:15:21.226Z</time>
      </trkpt>
      <trkpt lat="47.84377" lon="6.96382">
        <ele>1012.7</ele>
        <time>2026-08-27T09:15:23.142Z</time>
      </trkpt>
      <trkpt lat="47.84378" lon="6.96384">
        <ele>1012.8</ele>
        <time>2026-08-27T09:15:24.149Z</time>
      </trkpt>
      <trkpt lat="47.84379" lon="6.96387">
        <ele>1012.8</ele>
        <time>2026-08-27T09:15:25.191Z</time>
      </trkpt>
      <trkpt lat="47.8438" lon="6.96391">
        <ele>1012.5</ele>
        <time>2026-08-27T09:15:27.173Z</time>
      </trkpt>
      <trkpt lat="47.84381" lon="6.96392">
        <ele>1012</ele>
        <time>2026-08-27T09:15:28.181Z</time>
      </trkpt>
      <trkpt lat="47.84382" lon="6.96392">
        <ele>1011.8</ele>
        <time>2026-08-27T09:15:29.189Z</time>
      </trkpt>
      <trkpt lat="47.84382" lon="6.96392">
        <ele>1011.4</ele>
        <time>2026-08-27T09:15:30.197Z</time>
      </trkpt>
      <trkpt lat="47.84382" lon="6.96392">
        <ele>1011.3</ele>
        <time>2026-08-27T09:15:31.205Z</time>
      </trkpt>
      <trkpt lat="47.84383" lon="6.96392">
        <ele>1011.1</ele>
        <time>2026-08-27T09:15:32.213Z</time>
      </trkpt>
      <trkpt lat="47.84383" lon="6.96392">
        <ele>1011.3</ele>
        <time>2026-08-27T09:15:34.129Z</time>
      </trkpt>
      <trkpt lat="47.84383" lon="6.96393">
        <ele>1010.8</ele>
        <time>2026-08-27T09:15:35.137Z</time>
      </trkpt>
      <trkpt lat="47.84383" lon="6.96393">
        <ele>1010.9</ele>
        <time>2026-08-27T09:15:36.145Z</time>
      </trkpt>
      <trkpt lat="47.84383" lon="6.96393">
        <ele>1010.9</ele>
        <time>2026-08-27T09:15:37.153Z</time>
      </trkpt>
      <trkpt lat="47.84384" lon="6.96393">
        <ele>1010.7</ele>
        <time>2026-08-27T09:15:38.161Z</time>
      </trkpt>
      <trkpt lat="47.84384" lon="6.96394">
        <ele>1010.4</ele>
        <time>2026-08-27T09:15:39.169Z</time>
      </trkpt>
      <trkpt lat="47.84384" lon="6.96394">
        <ele>1010.3</ele>
        <time>2026-08-27T09:15:40.178Z</time>
      </trkpt>
      <trkpt lat="47.84384" lon="6.96396">
        <ele>1010.6</ele>
        <time>2026-08-27T09:15:41.185Z</time>
      </trkpt>
      <trkpt lat="47.84384" lon="6.96397">
        <ele>1010.7</ele>
        <time>2026-08-27T09:15:42.194Z</time>
      </trkpt>
      <trkpt lat="47.84384" lon="6.96399">
        <ele>1010.4</ele>
        <time>2026-08-27T09:15:43.202Z</time>
      </trkpt>
      <trkpt lat="47.84384" lon="6.96401">
        <ele>1010.9</ele>
        <time>2026-08-27T09:15:44.209Z</time>
      </trkpt>
      <trkpt lat="47.84384" lon="6.96404">
        <ele>1010.4</ele>
        <time>2026-08-27T09:15:46.125Z</time>
      </trkpt>
      <trkpt lat="47.84385" lon="6.96407">
        <ele>1010.8</ele>
        <time>2026-08-27T09:15:48.191Z</time>
      </trkpt>
      <trkpt lat="47.84385" lon="6.96409">
        <ele>1010</ele>
        <time>2026-08-27T09:15:50.157Z</time>
      </trkpt>
      <trkpt lat="47.84385" lon="6.9641">
        <ele>1009.9</ele>
        <time>2026-08-27T09:15:51.165Z</time>
      </trkpt>
      <trkpt lat="47.84385" lon="6.96411">
        <ele>1009.9</ele>
        <time>2026-08-27T09:15:52.190Z</time>
      </trkpt>
      <trkpt lat="47.84384" lon="6.96414">
        <ele>1009.5</ele>
        <time>2026-08-27T09:15:54.190Z</time>
      </trkpt>
      <trkpt lat="47.84384" lon="6.96415">
        <ele>1009.3</ele>
        <time>2026-08-27T09:15:55.199Z</time>
      </trkpt>
      <trkpt lat="47.84384" lon="6.96419">
        <ele>1008.6</ele>
        <time>2026-08-27T09:15:57.214Z</time>
      </trkpt>
      <trkpt lat="47.84384" lon="6.96422">
        <ele>1008.4</ele>
        <time>2026-08-27T09:15:59.070Z</time>
      </trkpt>
      <trkpt lat="47.84384" lon="6.96423">
        <ele>1008</ele>
        <time>2026-08-27T09:16:00.188Z</time>
      </trkpt>
      <trkpt lat="47.84383" lon="6.96426">
        <ele>1007.9</ele>
        <time>2026-08-27T09:16:02.154Z</time>
      </trkpt>
      <trkpt lat="47.84383" lon="6.96428">
        <ele>1007.8</ele>
        <time>2026-08-27T09:16:03.162Z</time>
      </trkpt>
      <trkpt lat="47.84383" lon="6.9643">
        <ele>1007.3</ele>
        <time>2026-08-27T09:16:04.171Z</time>
      </trkpt>
      <trkpt lat="47.84383" lon="6.96433">
        <ele>1007.3</ele>
        <time>2026-08-27T09:16:06.186Z</time>
      </trkpt>
      <trkpt lat="47.84383" lon="6.96434">
        <ele>1007</ele>
        <time>2026-08-27T09:16:07.295Z</time>
      </trkpt>
      <trkpt lat="47.84382" lon="6.96436">
        <ele>1006.6</ele>
        <time>2026-08-27T09:16:09.211Z</time>
      </trkpt>
      <trkpt lat="47.84382" lon="6.96437">
        <ele>1006.6</ele>
        <time>2026-08-27T09:16:10.270Z</time>
      </trkpt>
      <trkpt lat="47.8438" lon="6.96442">
        <ele>1007.2</ele>
        <time>2026-08-27T09:16:12.226Z</time>
      </trkpt>
      <trkpt lat="47.84377" lon="6.96444">
        <ele>1007.4</ele>
        <time>2026-08-27T09:16:13.244Z</time>
      </trkpt>
      <trkpt lat="47.84376" lon="6.96446">
        <ele>1007.6</ele>
        <time>2026-08-27T09:16:14.251Z</time>
      </trkpt>
      <trkpt lat="47.84373" lon="6.9645">
        <ele>1007.4</ele>
        <time>2026-08-27T09:16:16.075Z</time>
      </trkpt>
      <trkpt lat="47.84371" lon="6.96452">
        <ele>1007.5</ele>
        <time>2026-08-27T09:16:17.233Z</time>
      </trkpt>
      <trkpt lat="47.8437" lon="6.96454">
        <ele>1007</ele>
        <time>2026-08-27T09:16:18.285Z</time>
      </trkpt>
      <trkpt lat="47.84365" lon="6.96458">
        <ele>1006.6</ele>
        <time>2026-08-27T09:16:20.275Z</time>
      </trkpt>
      <trkpt lat="47.84363" lon="6.96462">
        <ele>1006.4</ele>
        <time>2026-08-27T09:16:22.215Z</time>
      </trkpt>
      <trkpt lat="47.84362" lon="6.96467">
        <ele>1006.1</ele>
        <time>2026-08-27T09:16:24.232Z</time>
      </trkpt>
      <trkpt lat="47.84361" lon="6.96469">
        <ele>1005.3</ele>
        <time>2026-08-27T09:16:25.239Z</time>
      </trkpt>
      <trkpt lat="47.8436" lon="6.96473">
        <ele>1005</ele>
        <time>2026-08-27T09:16:27.257Z</time>
      </trkpt>
      <trkpt lat="47.84359" lon="6.96474">
        <ele>1004.7</ele>
        <time>2026-08-27T09:16:28.264Z</time>
      </trkpt>
      <trkpt lat="47.84359" lon="6.96477">
        <ele>1004.7</ele>
        <time>2026-08-27T09:16:30.187Z</time>
      </trkpt>
      <trkpt lat="47.84359" lon="6.96479">
        <ele>1004.4</ele>
        <time>2026-08-27T09:16:31.187Z</time>
      </trkpt>
      <trkpt lat="47.84358" lon="6.96481">
        <ele>1004.2</ele>
        <time>2026-08-27T09:16:32.196Z</time>
      </trkpt>
      <trkpt lat="47.84358" lon="6.96482">
        <ele>1003.6</ele>
        <time>2026-08-27T09:16:33.204Z</time>
      </trkpt>
      <trkpt lat="47.84358" lon="6.96484">
        <ele>1003.5</ele>
        <time>2026-08-27T09:16:34.211Z</time>
      </trkpt>
      <trkpt lat="47.84357" lon="6.96484">
        <ele>1003.4</ele>
        <time>2026-08-27T09:16:35.220Z</time>
      </trkpt>
      <trkpt lat="47.84356" lon="6.96485">
        <ele>1003.2</ele>
        <time>2026-08-27T09:16:36.228Z</time>
      </trkpt>
      <trkpt lat="47.84355" lon="6.96486">
        <ele>1003.1</ele>
        <time>2026-08-27T09:16:37.236Z</time>
      </trkpt>
      <trkpt lat="47.84354" lon="6.96487">
        <ele>1003.3</ele>
        <time>2026-08-27T09:16:38.244Z</time>
      </trkpt>
      <trkpt lat="47.84353" lon="6.9649">
        <ele>1003.1</ele>
        <time>2026-08-27T09:16:40.160Z</time>
      </trkpt>
      <trkpt lat="47.84353" lon="6.96493">
        <ele>1003.1</ele>
        <time>2026-08-27T09:16:41.168Z</time>
      </trkpt>
      <trkpt lat="47.84353" lon="6.96495">
        <ele>1003.2</ele>
        <time>2026-08-27T09:16:42.175Z</time>
      </trkpt>
      <trkpt lat="47.84353" lon="6.96497">
        <ele>1003.5</ele>
        <time>2026-08-27T09:16:43.183Z</time>
      </trkpt>
      <trkpt lat="47.84353" lon="6.96498">
        <ele>1003.1</ele>
        <time>2026-08-27T09:16:44.192Z</time>
      </trkpt>
      <trkpt lat="47.84353" lon="6.96499">
        <ele>1003.2</ele>
        <time>2026-08-27T09:16:45.267Z</time>
      </trkpt>
      <trkpt lat="47.84352" lon="6.965">
        <ele>1002.6</ele>
        <time>2026-08-27T09:16:47.216Z</time>
      </trkpt>
      <trkpt lat="47.84351" lon="6.965">
        <ele>1002.5</ele>
        <time>2026-08-27T09:16:48.224Z</time>
      </trkpt>
      <trkpt lat="47.84351" lon="6.96499">
        <ele>1002.4</ele>
        <time>2026-08-27T09:16:49.265Z</time>
      </trkpt>
      <trkpt lat="47.8435" lon="6.965">
        <ele>1002.2</ele>
        <time>2026-08-27T09:16:51.249Z</time>
      </trkpt>
      <trkpt lat="47.8435" lon="6.96502">
        <ele>1002</ele>
        <time>2026-08-27T09:16:52.256Z</time>
      </trkpt>
      <trkpt lat="47.84349" lon="6.96505">
        <ele>1001.6</ele>
        <time>2026-08-27T09:16:54.176Z</time>
      </trkpt>
      <trkpt lat="47.84348" lon="6.96506">
        <ele>1001.4</ele>
        <time>2026-08-27T09:16:55.183Z</time>
      </trkpt>
      <trkpt lat="47.84347" lon="6.96508">
        <ele>1001</ele>
        <time>2026-08-27T09:16:57.120Z</time>
      </trkpt>
      <trkpt lat="47.84346" lon="6.96509">
        <ele>1000.7</ele>
        <time>2026-08-27T09:16:58.208Z</time>
      </trkpt>
      <trkpt lat="47.84345" lon="6.96509">
        <ele>1000.5</ele>
        <time>2026-08-27T09:16:59.216Z</time>
      </trkpt>
      <trkpt lat="47.84345" lon="6.9651">
        <ele>1000.5</ele>
        <time>2026-08-27T09:17:00.245Z</time>
      </trkpt>
      <trkpt lat="47.84344" lon="6.9651">
        <ele>1000.2</ele>
        <time>2026-08-27T09:17:01.404Z</time>
      </trkpt>
      <trkpt lat="47.84343" lon="6.96511">
        <ele>999.9</ele>
        <time>2026-08-27T09:17:02.504Z</time>
      </trkpt>
      <trkpt lat="47.84342" lon="6.96512">
        <ele>999.9</ele>
        <time>2026-08-27T09:17:03.722Z</time>
      </trkpt>
      <trkpt lat="47.84342" lon="6.96513">
        <ele>1000.1</ele>
        <time>2026-08-27T09:17:04.823Z</time>
      </trkpt>
      <trkpt lat="47.84341" lon="6.96514">
        <ele>999.1</ele>
        <time>2026-08-27T09:17:05.865Z</time>
      </trkpt>
      <trkpt lat="47.8434" lon="6.96515">
        <ele>1000.1</ele>
        <time>2026-08-27T09:17:06.982Z</time>
      </trkpt>
      <trkpt lat="47.84339" lon="6.96516">
        <ele>1000.3</ele>
        <time>2026-08-27T09:17:08.243Z</time>
      </trkpt>
      <trkpt lat="47.84339" lon="6.96518">
        <ele>999.4</ele>
        <time>2026-08-27T09:17:10.204Z</time>
      </trkpt>
      <trkpt lat="47.84337" lon="6.96519">
        <ele>999.7</ele>
        <time>2026-08-27T09:17:12.224Z</time>
      </trkpt>
      <trkpt lat="47.84337" lon="6.96519">
        <ele>999.4</ele>
        <time>2026-08-27T09:17:13.228Z</time>
      </trkpt>
      <trkpt lat="47.84336" lon="6.96519">
        <ele>999.3</ele>
        <time>2026-08-27T09:17:14.236Z</time>
      </trkpt>
      <trkpt lat="47.84335" lon="6.96519">
        <ele>999.3</ele>
        <time>2026-08-27T09:17:15.245Z</time>
      </trkpt>
      <trkpt lat="47.84335" lon="6.96519">
        <ele>998.8</ele>
        <time>2026-08-27T09:17:16.253Z</time>
      </trkpt>
      <trkpt lat="47.84334" lon="6.96521">
        <ele>998.5</ele>
        <time>2026-08-27T09:17:18.062Z</time>
      </trkpt>
      <trkpt lat="47.84333" lon="6.96522">
        <ele>998.3</ele>
        <time>2026-08-27T09:17:19.146Z</time>
      </trkpt>
      <trkpt lat="47.84332" lon="6.96522">
        <ele>998.1</ele>
        <time>2026-08-27T09:17:20.183Z</time>
      </trkpt>
      <trkpt lat="47.84331" lon="6.96522">
        <ele>997.8</ele>
        <time>2026-08-27T09:17:21.192Z</time>
      </trkpt>
      <trkpt lat="47.84328" lon="6.96524">
        <ele>997</ele>
        <time>2026-08-27T09:17:23.207Z</time>
      </trkpt>
      <trkpt lat="47.84326" lon="6.96524">
        <ele>996.7</ele>
        <time>2026-08-27T09:17:24.215Z</time>
      </trkpt>
      <trkpt lat="47.84325" lon="6.96524">
        <ele>996.3</ele>
        <time>2026-08-27T09:17:25.223Z</time>
      </trkpt>
      <trkpt lat="47.84324" lon="6.96524">
        <ele>995.8</ele>
        <time>2026-08-27T09:17:26.231Z</time>
      </trkpt>
      <trkpt lat="47.84323" lon="6.96525">
        <ele>995.6</ele>
        <time>2026-08-27T09:17:27.239Z</time>
      </trkpt>
      <trkpt lat="47.84322" lon="6.96526">
        <ele>995.5</ele>
        <time>2026-08-27T09:17:28.248Z</time>
      </trkpt>
      <trkpt lat="47.84322" lon="6.96527">
        <ele>995.3</ele>
        <time>2026-08-27T09:17:29.255Z</time>
      </trkpt>
      <trkpt lat="47.8432" lon="6.96529">
        <ele>995.9</ele>
        <time>2026-08-27T09:17:31.271Z</time>
      </trkpt>
      <trkpt lat="47.8432" lon="6.9653">
        <ele>994.9</ele>
        <time>2026-08-27T09:17:32.284Z</time>
      </trkpt>
      <trkpt lat="47.84319" lon="6.96531">
        <ele>994.9</ele>
        <time>2026-08-27T09:17:33.292Z</time>
      </trkpt>
      <trkpt lat="47.84317" lon="6.96533">
        <ele>995.3</ele>
        <time>2026-08-27T09:17:35.207Z</time>
      </trkpt>
      <trkpt lat="47.84317" lon="6.96534">
        <ele>995.2</ele>
        <time>2026-08-27T09:17:36.216Z</time>
      </trkpt>
      <trkpt lat="47.84316" lon="6.96536">
        <ele>995.2</ele>
        <time>2026-08-27T09:17:37.231Z</time>
      </trkpt>
      <trkpt lat="47.84315" lon="6.96537">
        <ele>994.1</ele>
        <time>2026-08-27T09:17:38.231Z</time>
      </trkpt>
      <trkpt lat="47.84314" lon="6.96537">
        <ele>994.3</ele>
        <time>2026-08-27T09:17:39.239Z</time>
      </trkpt>
      <trkpt lat="47.84312" lon="6.96539">
        <ele>994.8</ele>
        <time>2026-08-27T09:17:41.154Z</time>
      </trkpt>
      <trkpt lat="47.84311" lon="6.9654">
        <ele>994.7</ele>
        <time>2026-08-27T09:17:42.263Z</time>
      </trkpt>
      <trkpt lat="47.8431" lon="6.9654">
        <ele>994.7</ele>
        <time>2026-08-27T09:17:43.271Z</time>
      </trkpt>
      <trkpt lat="47.84309" lon="6.96541">
        <ele>994.5</ele>
        <time>2026-08-27T09:17:44.284Z</time>
      </trkpt>
      <trkpt lat="47.84307" lon="6.96542">
        <ele>994.1</ele>
        <time>2026-08-27T09:17:46.203Z</time>
      </trkpt>
      <trkpt lat="47.84306" lon="6.96543">
        <ele>994</ele>
        <time>2026-08-27T09:17:47.211Z</time>
      </trkpt>
      <trkpt lat="47.84305" lon="6.96543">
        <ele>994.1</ele>
        <time>2026-08-27T09:17:48.219Z</time>
      </trkpt>
      <trkpt lat="47.84303" lon="6.96544">
        <ele>994</ele>
        <time>2026-08-27T09:17:49.228Z</time>
      </trkpt>
      <trkpt lat="47.84302" lon="6.96544">
        <ele>993.8</ele>
        <time>2026-08-27T09:17:50.235Z</time>
      </trkpt>
      <trkpt lat="47.84299" lon="6.96545">
        <ele>993.3</ele>
        <time>2026-08-27T09:17:52.251Z</time>
      </trkpt>
      <trkpt lat="47.84298" lon="6.96545">
        <ele>993.3</ele>
        <time>2026-08-27T09:17:53.260Z</time>
      </trkpt>
      <trkpt lat="47.84296" lon="6.96545">
        <ele>992.7</ele>
        <time>2026-08-27T09:17:55.275Z</time>
      </trkpt>
      <trkpt lat="47.84294" lon="6.96546">
        <ele>993</ele>
        <time>2026-08-27T09:17:57.191Z</time>
      </trkpt>
      <trkpt lat="47.84292" lon="6.96549">
        <ele>992.8</ele>
        <time>2026-08-27T09:17:59.257Z</time>
      </trkpt>
      <trkpt lat="47.8429" lon="6.9655">
        <ele>992.6</ele>
        <time>2026-08-27T09:18:01.223Z</time>
      </trkpt>
      <trkpt lat="47.84289" lon="6.96551">
        <ele>992.6</ele>
        <time>2026-08-27T09:18:02.231Z</time>
      </trkpt>
      <trkpt lat="47.84287" lon="6.96552">
        <ele>992.7</ele>
        <time>2026-08-27T09:18:03.256Z</time>
      </trkpt>
      <trkpt lat="47.84286" lon="6.96553">
        <ele>992.7</ele>
        <time>2026-08-27T09:18:04.289Z</time>
      </trkpt>
      <trkpt lat="47.84284" lon="6.96553">
        <ele>992.9</ele>
        <time>2026-08-27T09:18:06.200Z</time>
      </trkpt>
      <trkpt lat="47.84283" lon="6.96553">
        <ele>992.1</ele>
        <time>2026-08-27T09:18:07.208Z</time>
      </trkpt>
      <trkpt lat="47.84282" lon="6.96553">
        <ele>992.2</ele>
        <time>2026-08-27T09:18:08.216Z</time>
      </trkpt>
      <trkpt lat="47.84281" lon="6.96552">
        <ele>992.5</ele>
        <time>2026-08-27T09:18:09.225Z</time>
      </trkpt>
      <trkpt lat="47.8428" lon="6.96552">
        <ele>992.8</ele>
        <time>2026-08-27T09:18:10.232Z</time>
      </trkpt>
      <trkpt lat="47.84279" lon="6.96553">
        <ele>992.5</ele>
        <time>2026-08-27T09:18:11.240Z</time>
      </trkpt>
      <trkpt lat="47.84277" lon="6.96553">
        <ele>992.5</ele>
        <time>2026-08-27T09:18:12.285Z</time>
      </trkpt>
      <trkpt lat="47.84275" lon="6.96553">
        <ele>992.5</ele>
        <time>2026-08-27T09:18:14.202Z</time>
      </trkpt>
      <trkpt lat="47.84273" lon="6.96554">
        <ele>991.9</ele>
        <time>2026-08-27T09:18:15.277Z</time>
      </trkpt>
      <trkpt lat="47.84272" lon="6.96556">
        <ele>991.8</ele>
        <time>2026-08-27T09:18:17.192Z</time>
      </trkpt>
      <trkpt lat="47.8427" lon="6.96558">
        <ele>991.5</ele>
        <time>2026-08-27T09:18:19.209Z</time>
      </trkpt>
      <trkpt lat="47.84269" lon="6.96559">
        <ele>991.2</ele>
        <time>2026-08-27T09:18:20.217Z</time>
      </trkpt>
      <trkpt lat="47.84268" lon="6.9656">
        <ele>990.9</ele>
        <time>2026-08-27T09:18:21.225Z</time>
      </trkpt>
      <trkpt lat="47.84267" lon="6.96561">
        <ele>990.8</ele>
        <time>2026-08-27T09:18:22.233Z</time>
      </trkpt>
      <trkpt lat="47.84267" lon="6.96562">
        <ele>990.6</ele>
        <time>2026-08-27T09:18:23.241Z</time>
      </trkpt>
      <trkpt lat="47.84266" lon="6.96563">
        <ele>990.1</ele>
        <time>2026-08-27T09:18:24.248Z</time>
      </trkpt>
      <trkpt lat="47.84265" lon="6.96563">
        <ele>989.8</ele>
        <time>2026-08-27T09:18:25.256Z</time>
      </trkpt>
      <trkpt lat="47.84262" lon="6.96564">
        <ele>989.4</ele>
        <time>2026-08-27T09:18:27.272Z</time>
      </trkpt>
      <trkpt lat="47.8426" lon="6.96565">
        <ele>989.6</ele>
        <time>2026-08-27T09:18:28.280Z</time>
      </trkpt>
      <trkpt lat="47.84259" lon="6.96565">
        <ele>989.4</ele>
        <time>2026-08-27T09:18:29.292Z</time>
      </trkpt>
      <trkpt lat="47.84257" lon="6.96567">
        <ele>989.4</ele>
        <time>2026-08-27T09:18:31.207Z</time>
      </trkpt>
      <trkpt lat="47.84256" lon="6.96568">
        <ele>989.2</ele>
        <time>2026-08-27T09:18:32.215Z</time>
      </trkpt>
      <trkpt lat="47.84256" lon="6.96568">
        <ele>989.9</ele>
        <time>2026-08-27T09:18:33.224Z</time>
      </trkpt>
      <trkpt lat="47.84255" lon="6.96569">
        <ele>989.9</ele>
        <time>2026-08-27T09:18:34.244Z</time>
      </trkpt>
      <trkpt lat="47.84253" lon="6.96571">
        <ele>989.7</ele>
        <time>2026-08-27T09:18:36.143Z</time>
      </trkpt>
      <trkpt lat="47.84252" lon="6.96572">
        <ele>989.4</ele>
        <time>2026-08-27T09:18:37.256Z</time>
      </trkpt>
      <trkpt lat="47.8425" lon="6.96574">
        <ele>989.8</ele>
        <time>2026-08-27T09:18:39.171Z</time>
      </trkpt>
      <trkpt lat="47.84247" lon="6.96575">
        <ele>989.9</ele>
        <time>2026-08-27T09:18:41.242Z</time>
      </trkpt>
      <trkpt lat="47.84245" lon="6.96576">
        <ele>989.5</ele>
        <time>2026-08-27T09:18:43.204Z</time>
      </trkpt>
      <trkpt lat="47.84244" lon="6.96577">
        <ele>989.4</ele>
        <time>2026-08-27T09:18:44.211Z</time>
      </trkpt>
      <trkpt lat="47.84243" lon="6.96578">
        <ele>989.4</ele>
        <time>2026-08-27T09:18:45.219Z</time>
      </trkpt>
      <trkpt lat="47.84242" lon="6.96579">
        <ele>989.7</ele>
        <time>2026-08-27T09:18:46.228Z</time>
      </trkpt>
      <trkpt lat="47.84241" lon="6.96579">
        <ele>989.6</ele>
        <time>2026-08-27T09:18:47.236Z</time>
      </trkpt>
      <trkpt lat="47.8424" lon="6.9658">
        <ele>989.8</ele>
        <time>2026-08-27T09:18:48.244Z</time>
      </trkpt>
      <trkpt lat="47.84239" lon="6.96581">
        <ele>989.6</ele>
        <time>2026-08-27T09:18:49.252Z</time>
      </trkpt>
      <trkpt lat="47.84238" lon="6.96582">
        <ele>989.5</ele>
        <time>2026-08-27T09:18:50.259Z</time>
      </trkpt>
      <trkpt lat="47.84237" lon="6.96583">
        <ele>989.5</ele>
        <time>2026-08-27T09:18:51.267Z</time>
      </trkpt>
      <trkpt lat="47.84235" lon="6.96584">
        <ele>989.2</ele>
        <time>2026-08-27T09:18:53.283Z</time>
      </trkpt>
      <trkpt lat="47.84233" lon="6.96583">
        <ele>989.1</ele>
        <time>2026-08-27T09:18:55.203Z</time>
      </trkpt>
      <trkpt lat="47.84233" lon="6.96583">
        <ele>989.2</ele>
        <time>2026-08-27T09:18:56.208Z</time>
      </trkpt>
      <trkpt lat="47.84232" lon="6.96583">
        <ele>989.4</ele>
        <time>2026-08-27T09:18:57.215Z</time>
      </trkpt>
      <trkpt lat="47.84231" lon="6.96584">
        <ele>989.5</ele>
        <time>2026-08-27T09:18:58.223Z</time>
      </trkpt>
      <trkpt lat="47.8423" lon="6.96584">
        <ele>989.8</ele>
        <time>2026-08-27T09:19:00.240Z</time>
      </trkpt>
      <trkpt lat="47.84229" lon="6.96585">
        <ele>990.2</ele>
        <time>2026-08-27T09:19:01.248Z</time>
      </trkpt>
      <trkpt lat="47.84228" lon="6.96585">
        <ele>990.8</ele>
        <time>2026-08-27T09:19:02.256Z</time>
      </trkpt>
      <trkpt lat="47.84227" lon="6.96588">
        <ele>990.9</ele>
        <time>2026-08-27T09:19:04.171Z</time>
      </trkpt>
      <trkpt lat="47.84226" lon="6.96589">
        <ele>990.5</ele>
        <time>2026-08-27T09:19:05.178Z</time>
      </trkpt>
      <trkpt lat="47.84225" lon="6.96591">
        <ele>990.5</ele>
        <time>2026-08-27T09:19:06.287Z</time>
      </trkpt>
      <trkpt lat="47.84225" lon="6.96592">
        <ele>991.3</ele>
        <time>2026-08-27T09:19:08.202Z</time>
      </trkpt>
      <trkpt lat="47.84224" lon="6.96594">
        <ele>991.3</ele>
        <time>2026-08-27T09:19:10.218Z</time>
      </trkpt>
      <trkpt lat="47.84223" lon="6.96595">
        <ele>991.3</ele>
        <time>2026-08-27T09:19:11.226Z</time>
      </trkpt>
      <trkpt lat="47.84222" lon="6.96597">
        <ele>991.2</ele>
        <time>2026-08-27T09:19:13.242Z</time>
      </trkpt>
      <trkpt lat="47.8422" lon="6.96597">
        <ele>991.6</ele>
        <time>2026-08-27T09:19:15.157Z</time>
      </trkpt>
      <trkpt lat="47.84219" lon="6.96598">
        <ele>991.8</ele>
        <time>2026-08-27T09:19:16.166Z</time>
      </trkpt>
      <trkpt lat="47.84219" lon="6.96599">
        <ele>991.7</ele>
        <time>2026-08-27T09:19:17.175Z</time>
      </trkpt>
      <trkpt lat="47.84217" lon="6.966">
        <ele>991.6</ele>
        <time>2026-08-27T09:19:19.191Z</time>
      </trkpt>
      <trkpt lat="47.84216" lon="6.966">
        <ele>991.7</ele>
        <time>2026-08-27T09:19:20.198Z</time>
      </trkpt>
      <trkpt lat="47.84215" lon="6.96601">
        <ele>991.7</ele>
        <time>2026-08-27T09:19:21.207Z</time>
      </trkpt>
      <trkpt lat="47.84214" lon="6.96601">
        <ele>991.7</ele>
        <time>2026-08-27T09:19:22.214Z</time>
      </trkpt>
      <trkpt lat="47.84213" lon="6.96601">
        <ele>991.6</ele>
        <time>2026-08-27T09:19:23.222Z</time>
      </trkpt>
      <trkpt lat="47.84212" lon="6.96602">
        <ele>991.7</ele>
        <time>2026-08-27T09:19:24.230Z</time>
      </trkpt>
      <trkpt lat="47.8421" lon="6.96602">
        <ele>991.6</ele>
        <time>2026-08-27T09:19:25.239Z</time>
      </trkpt>
      <trkpt lat="47.84209" lon="6.96602">
        <ele>992.8</ele>
        <time>2026-08-27T09:19:27.255Z</time>
      </trkpt>
      <trkpt lat="47.84208" lon="6.96602">
        <ele>992.9</ele>
        <time>2026-08-27T09:19:28.283Z</time>
      </trkpt>
      <trkpt lat="47.84208" lon="6.96602">
        <ele>992.3</ele>
        <time>2026-08-27T09:19:29.543Z</time>
      </trkpt>
      <trkpt lat="47.84207" lon="6.96603">
        <ele>992.6</ele>
        <time>2026-08-27T09:19:31.140Z</time>
      </trkpt>
      <trkpt lat="47.84207" lon="6.96603">
        <ele>993.7</ele>
        <time>2026-08-27T09:19:32.193Z</time>
      </trkpt>
      <trkpt lat="47.84207" lon="6.96603">
        <ele>993.6</ele>
        <time>2026-08-27T09:19:33.201Z</time>
      </trkpt>
      <trkpt lat="47.84206" lon="6.96604">
        <ele>994.2</ele>
        <time>2026-08-27T09:19:34.209Z</time>
      </trkpt>
      <trkpt lat="47.84206" lon="6.96604">
        <ele>994.2</ele>
        <time>2026-08-27T09:19:35.217Z</time>
      </trkpt>
      <trkpt lat="47.84205" lon="6.96607">
        <ele>994.5</ele>
        <time>2026-08-27T09:19:37.234Z</time>
      </trkpt>
      <trkpt lat="47.84204" lon="6.96609">
        <ele>994.5</ele>
        <time>2026-08-27T09:19:38.241Z</time>
      </trkpt>
      <trkpt lat="47.84204" lon="6.96611">
        <ele>994.6</ele>
        <time>2026-08-27T09:19:39.249Z</time>
      </trkpt>
      <trkpt lat="47.84203" lon="6.96615">
        <ele>994.6</ele>
        <time>2026-08-27T09:19:41.164Z</time>
      </trkpt>
      <trkpt lat="47.84202" lon="6.96617">
        <ele>994.5</ele>
        <time>2026-08-27T09:19:42.273Z</time>
      </trkpt>
      <trkpt lat="47.84201" lon="6.9662">
        <ele>994.5</ele>
        <time>2026-08-27T09:19:44.101Z</time>
      </trkpt>
      <trkpt lat="47.84201" lon="6.96621">
        <ele>995</ele>
        <time>2026-08-27T09:19:45.198Z</time>
      </trkpt>
      <trkpt lat="47.84201" lon="6.96621">
        <ele>994.9</ele>
        <time>2026-08-27T09:19:46.205Z</time>
      </trkpt>
      <trkpt lat="47.842" lon="6.96622">
        <ele>994.7</ele>
        <time>2026-08-27T09:19:47.213Z</time>
      </trkpt>
      <trkpt lat="47.84199" lon="6.96623">
        <ele>995</ele>
        <time>2026-08-27T09:19:49.230Z</time>
      </trkpt>
      <trkpt lat="47.84198" lon="6.96624">
        <ele>995.1</ele>
        <time>2026-08-27T09:19:50.237Z</time>
      </trkpt>
      <trkpt lat="47.84197" lon="6.96626">
        <ele>995.1</ele>
        <time>2026-08-27T09:19:52.152Z</time>
      </trkpt>
      <trkpt lat="47.84197" lon="6.96627">
        <ele>995</ele>
        <time>2026-08-27T09:19:53.160Z</time>
      </trkpt>
      <trkpt lat="47.84196" lon="6.96628">
        <ele>995.5</ele>
        <time>2026-08-27T09:19:54.168Z</time>
      </trkpt>
      <trkpt lat="47.84195" lon="6.96629">
        <ele>996</ele>
        <time>2026-08-27T09:19:55.176Z</time>
      </trkpt>
      <trkpt lat="47.84194" lon="6.9663">
        <ele>996.2</ele>
        <time>2026-08-27T09:19:56.184Z</time>
      </trkpt>
      <trkpt lat="47.84193" lon="6.9663">
        <ele>996.4</ele>
        <time>2026-08-27T09:19:57.193Z</time>
      </trkpt>
      <trkpt lat="47.84192" lon="6.9663">
        <ele>996.5</ele>
        <time>2026-08-27T09:19:58.200Z</time>
      </trkpt>
      <trkpt lat="47.84191" lon="6.9663">
        <ele>996.6</ele>
        <time>2026-08-27T09:20:00.216Z</time>
      </trkpt>
      <trkpt lat="47.8419" lon="6.9663">
        <ele>996.6</ele>
        <time>2026-08-27T09:20:01.237Z</time>
      </trkpt>
      <trkpt lat="47.8419" lon="6.9663">
        <ele>997</ele>
        <time>2026-08-27T09:20:03.241Z</time>
      </trkpt>
      <trkpt lat="47.84189" lon="6.96631">
        <ele>997.2</ele>
        <time>2026-08-27T09:20:05.155Z</time>
      </trkpt>
      <trkpt lat="47.84189" lon="6.96631">
        <ele>997.3</ele>
        <time>2026-08-27T09:20:06.165Z</time>
      </trkpt>
      <trkpt lat="47.84189" lon="6.96632">
        <ele>997.3</ele>
        <time>2026-08-27T09:20:07.260Z</time>
      </trkpt>
      <trkpt lat="47.84188" lon="6.96631">
        <ele>998.2</ele>
        <time>2026-08-27T09:20:09.188Z</time>
      </trkpt>
      <trkpt lat="47.84187" lon="6.96631">
        <ele>998</ele>
        <time>2026-08-27T09:20:10.196Z</time>
      </trkpt>
      <trkpt lat="47.84185" lon="6.96631">
        <ele>998.1</ele>
        <time>2026-08-27T09:20:12.212Z</time>
      </trkpt>
      <trkpt lat="47.84185" lon="6.96631">
        <ele>998.2</ele>
        <time>2026-08-27T09:20:13.220Z</time>
      </trkpt>
      <trkpt lat="47.84184" lon="6.96631">
        <ele>998.5</ele>
        <time>2026-08-27T09:20:14.228Z</time>
      </trkpt>
      <trkpt lat="47.84183" lon="6.96633">
        <ele>998.3</ele>
        <time>2026-08-27T09:20:16.244Z</time>
      </trkpt>
      <trkpt lat="47.84182" lon="6.96635">
        <ele>998.2</ele>
        <time>2026-08-27T09:20:17.252Z</time>
      </trkpt>
      <trkpt lat="47.84182" lon="6.96636">
        <ele>998.5</ele>
        <time>2026-08-27T09:20:18.260Z</time>
      </trkpt>
      <trkpt lat="47.84181" lon="6.96639">
        <ele>998.9</ele>
        <time>2026-08-27T09:20:20.104Z</time>
      </trkpt>
      <trkpt lat="47.84181" lon="6.96641">
        <ele>999.1</ele>
        <time>2026-08-27T09:20:21.183Z</time>
      </trkpt>
      <trkpt lat="47.84181" lon="6.96643">
        <ele>999</ele>
        <time>2026-08-27T09:20:22.191Z</time>
      </trkpt>
      <trkpt lat="47.84181" lon="6.96646">
        <ele>999.5</ele>
        <time>2026-08-27T09:20:24.208Z</time>
      </trkpt>
      <trkpt lat="47.84181" lon="6.96647">
        <ele>1000</ele>
        <time>2026-08-27T09:20:25.215Z</time>
      </trkpt>
      <trkpt lat="47.84181" lon="6.96648">
        <ele>1000.2</ele>
        <time>2026-08-27T09:20:26.224Z</time>
      </trkpt>
      <trkpt lat="47.84181" lon="6.96649">
        <ele>1000.2</ele>
        <time>2026-08-27T09:20:28.239Z</time>
      </trkpt>
      <trkpt lat="47.84181" lon="6.9665">
        <ele>1000.6</ele>
        <time>2026-08-27T09:20:29.247Z</time>
      </trkpt>
      <trkpt lat="47.84181" lon="6.96652">
        <ele>1000.8</ele>
        <time>2026-08-27T09:20:31.162Z</time>
      </trkpt>
      <trkpt lat="47.84181" lon="6.96654">
        <ele>1000.7</ele>
        <time>2026-08-27T09:20:32.171Z</time>
      </trkpt>
      <trkpt lat="47.84181" lon="6.96655">
        <ele>1000.7</ele>
        <time>2026-08-27T09:20:33.243Z</time>
      </trkpt>
      <trkpt lat="47.84181" lon="6.96658">
        <ele>1000.8</ele>
        <time>2026-08-27T09:20:35.195Z</time>
      </trkpt>
      <trkpt lat="47.84181" lon="6.9666">
        <ele>1001.2</ele>
        <time>2026-08-27T09:20:37.211Z</time>
      </trkpt>
      <trkpt lat="47.84181" lon="6.96661">
        <ele>1001.5</ele>
        <time>2026-08-27T09:20:38.219Z</time>
      </trkpt>
      <trkpt lat="47.84181" lon="6.96662">
        <ele>1001.3</ele>
        <time>2026-08-27T09:20:39.227Z</time>
      </trkpt>
      <trkpt lat="47.84181" lon="6.96664">
        <ele>1001.1</ele>
        <time>2026-08-27T09:20:40.235Z</time>
      </trkpt>
      <trkpt lat="47.8418" lon="6.96667">
        <ele>1001.3</ele>
        <time>2026-08-27T09:20:42.297Z</time>
      </trkpt>
      <trkpt lat="47.8418" lon="6.9667">
        <ele>1001.2</ele>
        <time>2026-08-27T09:20:44.167Z</time>
      </trkpt>
      <trkpt lat="47.8418" lon="6.96672">
        <ele>1001</ele>
        <time>2026-08-27T09:20:45.174Z</time>
      </trkpt>
      <trkpt lat="47.84179" lon="6.96674">
        <ele>1001</ele>
        <time>2026-08-27T09:20:46.182Z</time>
      </trkpt>
      <trkpt lat="47.84179" lon="6.96676">
        <ele>1001</ele>
        <time>2026-08-27T09:20:47.219Z</time>
      </trkpt>
      <trkpt lat="47.84179" lon="6.96678">
        <ele>1001.3</ele>
        <time>2026-08-27T09:20:49.178Z</time>
      </trkpt>
      <trkpt lat="47.84179" lon="6.96679">
        <ele>1001.4</ele>
        <time>2026-08-27T09:20:50.215Z</time>
      </trkpt>
      <trkpt lat="47.84179" lon="6.96681">
        <ele>1001.2</ele>
        <time>2026-08-27T09:20:51.222Z</time>
      </trkpt>
      <trkpt lat="47.84178" lon="6.96683">
        <ele>1001.2</ele>
        <time>2026-08-27T09:20:52.230Z</time>
      </trkpt>
      <trkpt lat="47.84178" lon="6.96684">
        <ele>1001.7</ele>
        <time>2026-08-27T09:20:53.238Z</time>
      </trkpt>
      <trkpt lat="47.84177" lon="6.96685">
        <ele>1001.9</ele>
        <time>2026-08-27T09:20:54.246Z</time>
      </trkpt>
      <trkpt lat="47.84176" lon="6.96687">
        <ele>1001.3</ele>
        <time>2026-08-27T09:20:56.263Z</time>
      </trkpt>
      <trkpt lat="47.84175" lon="6.96688">
        <ele>1002.4</ele>
        <time>2026-08-27T09:20:58.178Z</time>
      </trkpt>
      <trkpt lat="47.84175" lon="6.96689">
        <ele>1002.3</ele>
        <time>2026-08-27T09:20:59.186Z</time>
      </trkpt>
      <trkpt lat="47.84176" lon="6.9669">
        <ele>1002.6</ele>
        <time>2026-08-27T09:21:00.194Z</time>
      </trkpt>
      <trkpt lat="47.84177" lon="6.9669">
        <ele>1002.6</ele>
        <time>2026-08-27T09:21:01.202Z</time>
      </trkpt>
      <trkpt lat="47.84177" lon="6.96691">
        <ele>1002.4</ele>
        <time>2026-08-27T09:21:02.210Z</time>
      </trkpt>
      <trkpt lat="47.84177" lon="6.96691">
        <ele>1002.5</ele>
        <time>2026-08-27T09:21:03.218Z</time>
      </trkpt>
      <trkpt lat="47.84178" lon="6.96691">
        <ele>1002.6</ele>
        <time>2026-08-27T09:21:05.133Z</time>
      </trkpt>
      <trkpt lat="47.84178" lon="6.96692">
        <ele>1002.7</ele>
        <time>2026-08-27T09:21:06.142Z</time>
      </trkpt>
      <trkpt lat="47.84178" lon="6.96692">
        <ele>1002.7</ele>
        <time>2026-08-27T09:21:07.153Z</time>
      </trkpt>
      <trkpt lat="47.84178" lon="6.96692">
        <ele>1002.6</ele>
        <time>2026-08-27T09:21:08.158Z</time>
      </trkpt>
      <trkpt lat="47.84178" lon="6.96692">
        <ele>1002.4</ele>
        <time>2026-08-27T09:21:09.165Z</time>
      </trkpt>
      <trkpt lat="47.84178" lon="6.96693">
        <ele>1002.5</ele>
        <time>2026-08-27T09:21:10.174Z</time>
      </trkpt>
      <trkpt lat="47.84178" lon="6.96693">
        <ele>1002.5</ele>
        <time>2026-08-27T09:21:11.182Z</time>
      </trkpt>
      <trkpt lat="47.84178" lon="6.96693">
        <ele>1002.6</ele>
        <time>2026-08-27T09:21:12.190Z</time>
      </trkpt>
      <trkpt lat="47.84178" lon="6.96693">
        <ele>1002.3</ele>
        <time>2026-08-27T09:21:13.197Z</time>
      </trkpt>
      <trkpt lat="47.84178" lon="6.96693">
        <ele>1002.2</ele>
        <time>2026-08-27T09:21:14.205Z</time>
      </trkpt>
      <trkpt lat="47.84178" lon="6.96693">
        <ele>1002.1</ele>
        <time>2026-08-27T09:21:15.214Z</time>
      </trkpt>
      <trkpt lat="47.84178" lon="6.96694">
        <ele>1002.2</ele>
        <time>2026-08-27T09:21:17.129Z</time>
      </trkpt>
      <trkpt lat="47.84178" lon="6.96695">
        <ele>1002.3</ele>
        <time>2026-08-27T09:21:18.137Z</time>
      </trkpt>
      <trkpt lat="47.84178" lon="6.96696">
        <ele>1002</ele>
        <time>2026-08-27T09:21:20.154Z</time>
      </trkpt>
      <trkpt lat="47.84178" lon="6.96696">
        <ele>1001.9</ele>
        <time>2026-08-27T09:21:21.263Z</time>
      </trkpt>
      <trkpt lat="47.84178" lon="6.96696">
        <ele>1002.3</ele>
        <time>2026-08-27T09:21:22.270Z</time>
      </trkpt>
      <trkpt lat="47.84177" lon="6.96697">
        <ele>1001.7</ele>
        <time>2026-08-27T09:21:24.286Z</time>
      </trkpt>
      <trkpt lat="47.84174" lon="6.96702">
        <ele>1001.7</ele>
        <time>2026-08-27T09:21:26.206Z</time>
      </trkpt>
      <trkpt lat="47.84173" lon="6.96703">
        <ele>1001.9</ele>
        <time>2026-08-27T09:21:27.214Z</time>
      </trkpt>
      <trkpt lat="47.84169" lon="6.96706">
        <ele>1001.5</ele>
        <time>2026-08-27T09:21:29.230Z</time>
      </trkpt>
      <trkpt lat="47.84167" lon="6.96707">
        <ele>1001.2</ele>
        <time>2026-08-27T09:21:30.239Z</time>
      </trkpt>
      <trkpt lat="47.84166" lon="6.96709">
        <ele>1000.9</ele>
        <time>2026-08-27T09:21:31.247Z</time>
      </trkpt>
      <trkpt lat="47.84165" lon="6.96713">
        <ele>1000.7</ele>
        <time>2026-08-27T09:21:33.263Z</time>
      </trkpt>
      <trkpt lat="47.84165" lon="6.96716">
        <ele>1000.9</ele>
        <time>2026-08-27T09:21:35.179Z</time>
      </trkpt>
      <trkpt lat="47.84164" lon="6.9672">
        <ele>1000.7</ele>
        <time>2026-08-27T09:21:37.161Z</time>
      </trkpt>
      <trkpt lat="47.84164" lon="6.96722">
        <ele>1000.4</ele>
        <time>2026-08-27T09:21:38.202Z</time>
      </trkpt>
      <trkpt lat="47.84163" lon="6.96724">
        <ele>1000.5</ele>
        <time>2026-08-27T09:21:39.210Z</time>
      </trkpt>
      <trkpt lat="47.84163" lon="6.96725">
        <ele>1000.4</ele>
        <time>2026-08-27T09:21:40.219Z</time>
      </trkpt>
      <trkpt lat="47.84162" lon="6.96728">
        <ele>1000.3</ele>
        <time>2026-08-27T09:21:42.235Z</time>
      </trkpt>
      <trkpt lat="47.84161" lon="6.9673">
        <ele>1000</ele>
        <time>2026-08-27T09:21:43.243Z</time>
      </trkpt>
      <trkpt lat="47.8416" lon="6.96733">
        <ele>1000</ele>
        <time>2026-08-27T09:21:45.159Z</time>
      </trkpt>
      <trkpt lat="47.8416" lon="6.96735">
        <ele>1000</ele>
        <time>2026-08-27T09:21:46.171Z</time>
      </trkpt>
      <trkpt lat="47.84159" lon="6.96737">
        <ele>1000.1</ele>
        <time>2026-08-27T09:21:47.179Z</time>
      </trkpt>
      <trkpt lat="47.84158" lon="6.96739">
        <ele>1000.1</ele>
        <time>2026-08-27T09:21:48.187Z</time>
      </trkpt>
      <trkpt lat="47.84157" lon="6.9674">
        <ele>999.7</ele>
        <time>2026-08-27T09:21:49.195Z</time>
      </trkpt>
      <trkpt lat="47.84157" lon="6.96742">
        <ele>999.7</ele>
        <time>2026-08-27T09:21:50.225Z</time>
      </trkpt>
      <trkpt lat="47.84156" lon="6.96745">
        <ele>1000</ele>
        <time>2026-08-27T09:21:52.224Z</time>
      </trkpt>
      <trkpt lat="47.84156" lon="6.96746">
        <ele>999.3</ele>
        <time>2026-08-27T09:21:53.231Z</time>
      </trkpt>
      <trkpt lat="47.84156" lon="6.96747">
        <ele>999</ele>
        <time>2026-08-27T09:21:54.239Z</time>
      </trkpt>
      <trkpt lat="47.84156" lon="6.96748">
        <ele>999.6</ele>
        <time>2026-08-27T09:21:55.247Z</time>
      </trkpt>
      <trkpt lat="47.84155" lon="6.96749">
        <ele>999.9</ele>
        <time>2026-08-27T09:21:56.255Z</time>
      </trkpt>
      <trkpt lat="47.84154" lon="6.96751">
        <ele>999.7</ele>
        <time>2026-08-27T09:21:58.271Z</time>
      </trkpt>
      <trkpt lat="47.84154" lon="6.96753">
        <ele>999.4</ele>
        <time>2026-08-27T09:21:59.280Z</time>
      </trkpt>
      <trkpt lat="47.84154" lon="6.96756">
        <ele>999.1</ele>
        <time>2026-08-27T09:22:01.195Z</time>
      </trkpt>
      <trkpt lat="47.84154" lon="6.96758">
        <ele>999</ele>
        <time>2026-08-27T09:22:02.204Z</time>
      </trkpt>
      <trkpt lat="47.84153" lon="6.9676">
        <ele>998.8</ele>
        <time>2026-08-27T09:22:03.229Z</time>
      </trkpt>
      <trkpt lat="47.84152" lon="6.96764">
        <ele>998.9</ele>
        <time>2026-08-27T09:22:05.262Z</time>
      </trkpt>
      <trkpt lat="47.84151" lon="6.96765">
        <ele>998.5</ele>
        <time>2026-08-27T09:22:06.319Z</time>
      </trkpt>
      <trkpt lat="47.8415" lon="6.96768">
        <ele>998.2</ele>
        <time>2026-08-27T09:22:07.647Z</time>
      </trkpt>
      <trkpt lat="47.84149" lon="6.9677">
        <ele>998.4</ele>
        <time>2026-08-27T09:22:08.748Z</time>
      </trkpt>
      <trkpt lat="47.84148" lon="6.96772">
        <ele>998.2</ele>
        <time>2026-08-27T09:22:10.243Z</time>
      </trkpt>
      <trkpt lat="47.84147" lon="6.96775">
        <ele>997.7</ele>
        <time>2026-08-27T09:22:12.212Z</time>
      </trkpt>
      <trkpt lat="47.84146" lon="6.96778">
        <ele>997.7</ele>
        <time>2026-08-27T09:22:14.228Z</time>
      </trkpt>
      <trkpt lat="47.84146" lon="6.9678">
        <ele>997.5</ele>
        <time>2026-08-27T09:22:16.253Z</time>
      </trkpt>
      <trkpt lat="47.84145" lon="6.96783">
        <ele>997.1</ele>
        <time>2026-08-27T09:22:18.153Z</time>
      </trkpt>
      <trkpt lat="47.84144" lon="6.96785">
        <ele>997.6</ele>
        <time>2026-08-27T09:22:19.189Z</time>
      </trkpt>
      <trkpt lat="47.84144" lon="6.96786">
        <ele>997.9</ele>
        <time>2026-08-27T09:22:20.201Z</time>
      </trkpt>
      <trkpt lat="47.84143" lon="6.96788">
        <ele>997.9</ele>
        <time>2026-08-27T09:22:21.205Z</time>
      </trkpt>
      <trkpt lat="47.84143" lon="6.9679">
        <ele>997.2</ele>
        <time>2026-08-27T09:22:22.221Z</time>
      </trkpt>
      <trkpt lat="47.84143" lon="6.96792">
        <ele>997.1</ele>
        <time>2026-08-27T09:22:23.229Z</time>
      </trkpt>
      <trkpt lat="47.84143" lon="6.96794">
        <ele>997.7</ele>
        <time>2026-08-27T09:22:24.237Z</time>
      </trkpt>
      <trkpt lat="47.84142" lon="6.96795">
        <ele>997.8</ele>
        <time>2026-08-27T09:22:25.245Z</time>
      </trkpt>
      <trkpt lat="47.84142" lon="6.96798">
        <ele>997.2</ele>
        <time>2026-08-27T09:22:27.162Z</time>
      </trkpt>
      <trkpt lat="47.84141" lon="6.968">
        <ele>997.2</ele>
        <time>2026-08-27T09:22:28.169Z</time>
      </trkpt>
      <trkpt lat="47.84141" lon="6.96802">
        <ele>997.4</ele>
        <time>2026-08-27T09:22:29.177Z</time>
      </trkpt>
      <trkpt lat="47.8414" lon="6.96803">
        <ele>997.4</ele>
        <time>2026-08-27T09:22:30.185Z</time>
      </trkpt>
      <trkpt lat="47.84139" lon="6.96804">
        <ele>997.2</ele>
        <time>2026-08-27T09:22:31.193Z</time>
      </trkpt>
      <trkpt lat="47.84139" lon="6.96806">
        <ele>996.9</ele>
        <time>2026-08-27T09:22:32.201Z</time>
      </trkpt>
      <trkpt lat="47.84138" lon="6.96807">
        <ele>996.9</ele>
        <time>2026-08-27T09:22:33.251Z</time>
      </trkpt>
      <trkpt lat="47.84138" lon="6.9681">
        <ele>996.8</ele>
        <time>2026-08-27T09:22:35.226Z</time>
      </trkpt>
      <trkpt lat="47.84138" lon="6.96813">
        <ele>996.8</ele>
        <time>2026-08-27T09:22:37.242Z</time>
      </trkpt>
      <trkpt lat="47.84137" lon="6.96815">
        <ele>996.6</ele>
        <time>2026-08-27T09:22:38.249Z</time>
      </trkpt>
      <trkpt lat="47.84136" lon="6.96818">
        <ele>996.4</ele>
        <time>2026-08-27T09:22:40.165Z</time>
      </trkpt>
      <trkpt lat="47.84135" lon="6.96821">
        <ele>996.1</ele>
        <time>2026-08-27T09:22:42.197Z</time>
      </trkpt>
      <trkpt lat="47.84135" lon="6.96822">
        <ele>996</ele>
        <time>2026-08-27T09:22:43.197Z</time>
      </trkpt>
      <trkpt lat="47.84134" lon="6.96824">
        <ele>995.8</ele>
        <time>2026-08-27T09:22:44.206Z</time>
      </trkpt>
      <trkpt lat="47.84133" lon="6.96827">
        <ele>995.5</ele>
        <time>2026-08-27T09:22:46.222Z</time>
      </trkpt>
      <trkpt lat="47.84132" lon="6.96829">
        <ele>995.3</ele>
        <time>2026-08-27T09:22:47.230Z</time>
      </trkpt>
      <trkpt lat="47.84132" lon="6.96831">
        <ele>995.6</ele>
        <time>2026-08-27T09:22:48.237Z</time>
      </trkpt>
      <trkpt lat="47.84131" lon="6.96832">
        <ele>995.9</ele>
        <time>2026-08-27T09:22:49.246Z</time>
      </trkpt>
      <trkpt lat="47.8413" lon="6.96836">
        <ele>995.2</ele>
        <time>2026-08-27T09:22:51.262Z</time>
      </trkpt>
      <trkpt lat="47.84129" lon="6.96839">
        <ele>995.7</ele>
        <time>2026-08-27T09:22:53.177Z</time>
      </trkpt>
      <trkpt lat="47.84129" lon="6.96842">
        <ele>995.6</ele>
        <time>2026-08-27T09:22:55.193Z</time>
      </trkpt>
      <trkpt lat="47.84129" lon="6.96844">
        <ele>995.2</ele>
        <time>2026-08-27T09:22:56.201Z</time>
      </trkpt>
      <trkpt lat="47.84129" lon="6.96845">
        <ele>994.9</ele>
        <time>2026-08-27T09:22:57.209Z</time>
      </trkpt>
      <trkpt lat="47.84129" lon="6.96846">
        <ele>995.3</ele>
        <time>2026-08-27T09:22:58.217Z</time>
      </trkpt>
      <trkpt lat="47.84129" lon="6.96848">
        <ele>995.2</ele>
        <time>2026-08-27T09:22:59.242Z</time>
      </trkpt>
      <trkpt lat="47.8413" lon="6.96851">
        <ele>995.1</ele>
        <time>2026-08-27T09:23:01.056Z</time>
      </trkpt>
      <trkpt lat="47.8413" lon="6.96852">
        <ele>995</ele>
        <time>2026-08-27T09:23:02.166Z</time>
      </trkpt>
      <trkpt lat="47.8413" lon="6.96854">
        <ele>994.9</ele>
        <time>2026-08-27T09:23:03.317Z</time>
      </trkpt>
      <trkpt lat="47.8413" lon="6.96855">
        <ele>994.4</ele>
        <time>2026-08-27T09:23:04.400Z</time>
      </trkpt>
      <trkpt lat="47.8413" lon="6.96857">
        <ele>994.2</ele>
        <time>2026-08-27T09:23:05.560Z</time>
      </trkpt>
      <trkpt lat="47.8413" lon="6.96859">
        <ele>994.3</ele>
        <time>2026-08-27T09:23:07.054Z</time>
      </trkpt>
      <trkpt lat="47.84129" lon="6.9686">
        <ele>994</ele>
        <time>2026-08-27T09:23:08.197Z</time>
      </trkpt>
      <trkpt lat="47.84129" lon="6.96861">
        <ele>993.5</ele>
        <time>2026-08-27T09:23:09.222Z</time>
      </trkpt>
      <trkpt lat="47.84129" lon="6.96862">
        <ele>993.2</ele>
        <time>2026-08-27T09:23:10.229Z</time>
      </trkpt>
      <trkpt lat="47.8413" lon="6.96864">
        <ele>992.9</ele>
        <time>2026-08-27T09:23:11.238Z</time>
      </trkpt>
      <trkpt lat="47.8413" lon="6.96866">
        <ele>992.9</ele>
        <time>2026-08-27T09:23:12.247Z</time>
      </trkpt>
      <trkpt lat="47.8413" lon="6.9687">
        <ele>992.6</ele>
        <time>2026-08-27T09:23:14.111Z</time>
      </trkpt>
      <trkpt lat="47.84129" lon="6.96872">
        <ele>992.3</ele>
        <time>2026-08-27T09:23:15.169Z</time>
      </trkpt>
      <trkpt lat="47.84129" lon="6.96873">
        <ele>992.6</ele>
        <time>2026-08-27T09:23:16.177Z</time>
      </trkpt>
      <trkpt lat="47.84128" lon="6.96874">
        <ele>992.5</ele>
        <time>2026-08-27T09:23:17.185Z</time>
      </trkpt>
      <trkpt lat="47.84128" lon="6.96875">
        <ele>992.5</ele>
        <time>2026-08-27T09:23:18.252Z</time>
      </trkpt>
      <trkpt lat="47.84127" lon="6.96874">
        <ele>992.1</ele>
        <time>2026-08-27T09:23:20.209Z</time>
      </trkpt>
      <trkpt lat="47.84127" lon="6.96873">
        <ele>992</ele>
        <time>2026-08-27T09:23:21.217Z</time>
      </trkpt>
      <trkpt lat="47.84127" lon="6.96872">
        <ele>992.5</ele>
        <time>2026-08-27T09:23:22.225Z</time>
      </trkpt>
      <trkpt lat="47.84127" lon="6.96872">
        <ele>992.5</ele>
        <time>2026-08-27T09:23:23.233Z</time>
      </trkpt>
      <trkpt lat="47.84127" lon="6.96872">
        <ele>992.3</ele>
        <time>2026-08-27T09:23:24.242Z</time>
      </trkpt>
      <trkpt lat="47.84128" lon="6.96871">
        <ele>991.9</ele>
        <time>2026-08-27T09:23:26.157Z</time>
      </trkpt>
      <trkpt lat="47.84128" lon="6.96871">
        <ele>992.5</ele>
        <time>2026-08-27T09:23:27.165Z</time>
      </trkpt>
      <trkpt lat="47.84128" lon="6.96871">
        <ele>992.4</ele>
        <time>2026-08-27T09:23:28.274Z</time>
      </trkpt>
      <trkpt lat="47.84128" lon="6.96871">
        <ele>992.4</ele>
        <time>2026-08-27T09:23:29.282Z</time>
      </trkpt>
      <trkpt lat="47.84128" lon="6.96871">
        <ele>992.6</ele>
        <time>2026-08-27T09:23:31.298Z</time>
      </trkpt>
      <trkpt lat="47.84128" lon="6.96871">
        <ele>992.2</ele>
        <time>2026-08-27T09:23:33.213Z</time>
      </trkpt>
      <trkpt lat="47.84128" lon="6.96871">
        <ele>992.1</ele>
        <time>2026-08-27T09:23:34.221Z</time>
      </trkpt>
      <trkpt lat="47.84129" lon="6.96871">
        <ele>992.3</ele>
        <time>2026-08-27T09:23:35.230Z</time>
      </trkpt>
      <trkpt lat="47.84129" lon="6.96871">
        <ele>992.3</ele>
        <time>2026-08-27T09:23:36.237Z</time>
      </trkpt>
      <trkpt lat="47.84129" lon="6.96871">
        <ele>992.3</ele>
        <time>2026-08-27T09:23:37.245Z</time>
      </trkpt>
      <trkpt lat="47.84129" lon="6.96871">
        <ele>992.1</ele>
        <time>2026-08-27T09:23:38.253Z</time>
      </trkpt>
      <trkpt lat="47.84129" lon="6.96871">
        <ele>991.9</ele>
        <time>2026-08-27T09:23:39.261Z</time>
      </trkpt>
      <trkpt lat="47.84129" lon="6.96871">
        <ele>991.9</ele>
        <time>2026-08-27T09:23:40.270Z</time>
      </trkpt>
      <trkpt lat="47.84129" lon="6.96871">
        <ele>991.8</ele>
        <time>2026-08-27T09:23:41.277Z</time>
      </trkpt>
      <trkpt lat="47.84129" lon="6.96871">
        <ele>991.8</ele>
        <time>2026-08-27T09:23:42.285Z</time>
      </trkpt>
      <trkpt lat="47.84129" lon="6.96871">
        <ele>991.8</ele>
        <time>2026-08-27T09:23:43.293Z</time>
      </trkpt>
      <trkpt lat="47.84129" lon="6.96871">
        <ele>992</ele>
        <time>2026-08-27T09:23:45.210Z</time>
      </trkpt>
      <trkpt lat="47.84129" lon="6.96871">
        <ele>992.2</ele>
        <time>2026-08-27T09:23:46.217Z</time>
      </trkpt>
      <trkpt lat="47.84129" lon="6.96871">
        <ele>992.4</ele>
        <time>2026-08-27T09:23:47.225Z</time>
      </trkpt>
      <trkpt lat="47.84129" lon="6.96871">
        <ele>992.5</ele>
        <time>2026-08-27T09:23:48.233Z</time>
      </trkpt>
      <trkpt lat="47.84129" lon="6.96871">
        <ele>991.8</ele>
        <time>2026-08-27T09:23:49.245Z</time>
      </trkpt>
      <trkpt lat="47.84129" lon="6.96871">
        <ele>991.8</ele>
        <time>2026-08-27T09:23:50.253Z</time>
      </trkpt>
      <trkpt lat="47.84129" lon="6.96872">
        <ele>992.4</ele>
        <time>2026-08-27T09:23:51.265Z</time>
      </trkpt>
      <trkpt lat="47.84129" lon="6.96873">
        <ele>992.4</ele>
        <time>2026-08-27T09:23:52.275Z</time>
      </trkpt>
      <trkpt lat="47.84129" lon="6.96879">
        <ele>991.6</ele>
        <time>2026-08-27T09:23:54.256Z</time>
      </trkpt>
      <trkpt lat="47.84128" lon="6.96884">
        <ele>991.7</ele>
        <time>2026-08-27T09:23:56.206Z</time>
      </trkpt>
      <trkpt lat="47.84128" lon="6.96886">
        <ele>991.5</ele>
        <time>2026-08-27T09:23:57.213Z</time>
      </trkpt>
      <trkpt lat="47.84128" lon="6.96888">
        <ele>991.3</ele>
        <time>2026-08-27T09:23:58.222Z</time>
      </trkpt>
      <trkpt lat="47.84127" lon="6.9689">
        <ele>991.4</ele>
        <time>2026-08-27T09:23:59.242Z</time>
      </trkpt>
      <trkpt lat="47.84126" lon="6.96892">
        <ele>991.3</ele>
        <time>2026-08-27T09:24:00.251Z</time>
      </trkpt>
      <trkpt lat="47.84126" lon="6.96896">
        <ele>990.6</ele>
        <time>2026-08-27T09:24:02.165Z</time>
      </trkpt>
      <trkpt lat="47.84125" lon="6.96899">
        <ele>990.3</ele>
        <time>2026-08-27T09:24:04.236Z</time>
      </trkpt>
      <trkpt lat="47.84124" lon="6.96903">
        <ele>990.2</ele>
        <time>2026-08-27T09:24:06.197Z</time>
      </trkpt>
      <trkpt lat="47.84123" lon="6.96906">
        <ele>989.5</ele>
        <time>2026-08-27T09:24:08.214Z</time>
      </trkpt>
      <trkpt lat="47.84122" lon="6.96908">
        <ele>989.4</ele>
        <time>2026-08-27T09:24:09.222Z</time>
      </trkpt>
      <trkpt lat="47.84122" lon="6.96909">
        <ele>989.1</ele>
        <time>2026-08-27T09:24:10.229Z</time>
      </trkpt>
      <trkpt lat="47.84121" lon="6.96911">
        <ele>989</ele>
        <time>2026-08-27T09:24:11.242Z</time>
      </trkpt>
      <trkpt lat="47.84121" lon="6.96914">
        <ele>988.4</ele>
        <time>2026-08-27T09:24:13.157Z</time>
      </trkpt>
      <trkpt lat="47.8412" lon="6.96917">
        <ele>988.9</ele>
        <time>2026-08-27T09:24:15.173Z</time>
      </trkpt>
      <trkpt lat="47.84119" lon="6.96918">
        <ele>989</ele>
        <time>2026-08-27T09:24:16.282Z</time>
      </trkpt>
      <trkpt lat="47.84119" lon="6.96919">
        <ele>989.1</ele>
        <time>2026-08-27T09:24:17.290Z</time>
      </trkpt>
      <trkpt lat="47.84118" lon="6.96923">
        <ele>988.2</ele>
        <time>2026-08-27T09:24:19.206Z</time>
      </trkpt>
      <trkpt lat="47.84118" lon="6.96925">
        <ele>988.4</ele>
        <time>2026-08-27T09:24:20.213Z</time>
      </trkpt>
      <trkpt lat="47.84117" lon="6.96927">
        <ele>988.7</ele>
        <time>2026-08-27T09:24:21.221Z</time>
      </trkpt>
      <trkpt lat="47.84117" lon="6.96929">
        <ele>988.4</ele>
        <time>2026-08-27T09:24:22.229Z</time>
      </trkpt>
      <trkpt lat="47.84117" lon="6.96932">
        <ele>988</ele>
        <time>2026-08-27T09:24:23.238Z</time>
      </trkpt>
      <trkpt lat="47.84117" lon="6.96933">
        <ele>987.8</ele>
        <time>2026-08-27T09:24:24.247Z</time>
      </trkpt>
      <trkpt lat="47.84116" lon="6.96935">
        <ele>988.3</ele>
        <time>2026-08-27T09:24:25.254Z</time>
      </trkpt>
      <trkpt lat="47.84116" lon="6.96938">
        <ele>987.9</ele>
        <time>2026-08-27T09:24:27.169Z</time>
      </trkpt>
      <trkpt lat="47.84116" lon="6.9694">
        <ele>988.1</ele>
        <time>2026-08-27T09:24:28.282Z</time>
      </trkpt>
      <trkpt lat="47.84118" lon="6.96944">
        <ele>988</ele>
        <time>2026-08-27T09:24:30.126Z</time>
      </trkpt>
      <trkpt lat="47.84118" lon="6.96946">
        <ele>987.3</ele>
        <time>2026-08-27T09:24:31.218Z</time>
      </trkpt>
      <trkpt lat="47.84118" lon="6.96948">
        <ele>987.1</ele>
        <time>2026-08-27T09:24:32.227Z</time>
      </trkpt>
      <trkpt lat="47.84118" lon="6.9695">
        <ele>987.4</ele>
        <time>2026-08-27T09:24:33.234Z</time>
      </trkpt>
      <trkpt lat="47.84117" lon="6.96951">
        <ele>987.1</ele>
        <time>2026-08-27T09:24:34.242Z</time>
      </trkpt>
      <trkpt lat="47.84117" lon="6.96953">
        <ele>987.1</ele>
        <time>2026-08-27T09:24:35.251Z</time>
      </trkpt>
      <trkpt lat="47.84117" lon="6.96957">
        <ele>986.6</ele>
        <time>2026-08-27T09:24:37.224Z</time>
      </trkpt>
      <trkpt lat="47.84117" lon="6.96962">
        <ele>986.4</ele>
        <time>2026-08-27T09:24:39.198Z</time>
      </trkpt>
      <trkpt lat="47.84117" lon="6.96964">
        <ele>986.2</ele>
        <time>2026-08-27T09:24:40.206Z</time>
      </trkpt>
      <trkpt lat="47.84117" lon="6.96966">
        <ele>986.1</ele>
        <time>2026-08-27T09:24:41.215Z</time>
      </trkpt>
      <trkpt lat="47.84117" lon="6.96968">
        <ele>985.8</ele>
        <time>2026-08-27T09:24:42.223Z</time>
      </trkpt>
      <trkpt lat="47.84117" lon="6.96969">
        <ele>986.1</ele>
        <time>2026-08-27T09:24:43.231Z</time>
      </trkpt>
      <trkpt lat="47.84116" lon="6.96971">
        <ele>986.4</ele>
        <time>2026-08-27T09:24:44.239Z</time>
      </trkpt>
      <trkpt lat="47.84116" lon="6.96973">
        <ele>986.3</ele>
        <time>2026-08-27T09:24:46.162Z</time>
      </trkpt>
      <trkpt lat="47.84115" lon="6.96975">
        <ele>986.3</ele>
        <time>2026-08-27T09:24:47.171Z</time>
      </trkpt>
      <trkpt lat="47.84115" lon="6.96977">
        <ele>985.4</ele>
        <time>2026-08-27T09:24:48.279Z</time>
      </trkpt>
      <trkpt lat="47.84114" lon="6.96978">
        <ele>985.9</ele>
        <time>2026-08-27T09:24:49.288Z</time>
      </trkpt>
      <trkpt lat="47.84112" lon="6.96979">
        <ele>985.2</ele>
        <time>2026-08-27T09:24:51.204Z</time>
      </trkpt>
      <trkpt lat="47.84112" lon="6.9698">
        <ele>985.2</ele>
        <time>2026-08-27T09:24:52.211Z</time>
      </trkpt>
      <trkpt lat="47.84112" lon="6.96982">
        <ele>985.1</ele>
        <time>2026-08-27T09:24:53.219Z</time>
      </trkpt>
      <trkpt lat="47.84112" lon="6.96984">
        <ele>985</ele>
        <time>2026-08-27T09:24:54.227Z</time>
      </trkpt>
      <trkpt lat="47.84112" lon="6.96986">
        <ele>985</ele>
        <time>2026-08-27T09:24:55.260Z</time>
      </trkpt>
      <trkpt lat="47.8411" lon="6.9699">
        <ele>984.6</ele>
        <time>2026-08-27T09:24:57.251Z</time>
      </trkpt>
      <trkpt lat="47.8411" lon="6.96992">
        <ele>984.5</ele>
        <time>2026-08-27T09:24:58.259Z</time>
      </trkpt>
      <trkpt lat="47.84109" lon="6.96995">
        <ele>984.4</ele>
        <time>2026-08-27T09:25:00.258Z</time>
      </trkpt>
      <trkpt lat="47.84109" lon="6.96998">
        <ele>983.6</ele>
        <time>2026-08-27T09:25:02.283Z</time>
      </trkpt>
      <trkpt lat="47.84109" lon="6.97001">
        <ele>983.5</ele>
        <time>2026-08-27T09:25:04.233Z</time>
      </trkpt>
      <trkpt lat="47.84109" lon="6.97002">
        <ele>983</ele>
        <time>2026-08-27T09:25:05.241Z</time>
      </trkpt>
      <trkpt lat="47.84109" lon="6.97003">
        <ele>982.9</ele>
        <time>2026-08-27T09:25:06.248Z</time>
      </trkpt>
      <trkpt lat="47.84109" lon="6.97004">
        <ele>982.8</ele>
        <time>2026-08-27T09:25:07.257Z</time>
      </trkpt>
      <trkpt lat="47.8411" lon="6.97005">
        <ele>982.6</ele>
        <time>2026-08-27T09:25:08.264Z</time>
      </trkpt>
      <trkpt lat="47.8411" lon="6.97008">
        <ele>982.3</ele>
        <time>2026-08-27T09:25:10.130Z</time>
      </trkpt>
      <trkpt lat="47.8411" lon="6.97009">
        <ele>982.2</ele>
        <time>2026-08-27T09:25:11.187Z</time>
      </trkpt>
      <trkpt lat="47.84109" lon="6.9701">
        <ele>982.1</ele>
        <time>2026-08-27T09:25:12.205Z</time>
      </trkpt>
      <trkpt lat="47.84109" lon="6.97013">
        <ele>982.2</ele>
        <time>2026-08-27T09:25:14.211Z</time>
      </trkpt>
      <trkpt lat="47.84108" lon="6.97014">
        <ele>982.2</ele>
        <time>2026-08-27T09:25:15.245Z</time>
      </trkpt>
      <trkpt lat="47.84109" lon="6.97017">
        <ele>981.3</ele>
        <time>2026-08-27T09:25:17.237Z</time>
      </trkpt>
      <trkpt lat="47.8411" lon="6.97019">
        <ele>981.9</ele>
        <time>2026-08-27T09:25:18.244Z</time>
      </trkpt>
      <trkpt lat="47.8411" lon="6.97021">
        <ele>981.7</ele>
        <time>2026-08-27T09:25:19.252Z</time>
      </trkpt>
      <trkpt lat="47.84109" lon="6.97022">
        <ele>981.3</ele>
        <time>2026-08-27T09:25:20.260Z</time>
      </trkpt>
      <trkpt lat="47.84109" lon="6.97024">
        <ele>981.3</ele>
        <time>2026-08-27T09:25:21.268Z</time>
      </trkpt>
      <trkpt lat="47.84109" lon="6.97026">
        <ele>981.3</ele>
        <time>2026-08-27T09:25:22.276Z</time>
      </trkpt>
      <trkpt lat="47.8411" lon="6.97027">
        <ele>981</ele>
        <time>2026-08-27T09:25:23.284Z</time>
      </trkpt>
      <trkpt lat="47.8411" lon="6.97031">
        <ele>981.1</ele>
        <time>2026-08-27T09:25:25.199Z</time>
      </trkpt>
      <trkpt lat="47.8411" lon="6.97032">
        <ele>981.1</ele>
        <time>2026-08-27T09:25:26.207Z</time>
      </trkpt>
      <trkpt lat="47.8411" lon="6.97034">
        <ele>980.9</ele>
        <time>2026-08-27T09:25:27.224Z</time>
      </trkpt>
      <trkpt lat="47.8411" lon="6.97036">
        <ele>980.9</ele>
        <time>2026-08-27T09:25:28.232Z</time>
      </trkpt>
      <trkpt lat="47.8411" lon="6.97038">
        <ele>980.4</ele>
        <time>2026-08-27T09:25:29.240Z</time>
      </trkpt>
      <trkpt lat="47.8411" lon="6.9704">
        <ele>980.1</ele>
        <time>2026-08-27T09:25:30.248Z</time>
      </trkpt>
      <trkpt lat="47.84111" lon="6.97043">
        <ele>980.3</ele>
        <time>2026-08-27T09:25:32.072Z</time>
      </trkpt>
      <trkpt lat="47.84112" lon="6.97045">
        <ele>980.3</ele>
        <time>2026-08-27T09:25:33.171Z</time>
      </trkpt>
      <trkpt lat="47.84112" lon="6.97046">
        <ele>979.7</ele>
        <time>2026-08-27T09:25:34.179Z</time>
      </trkpt>
      <trkpt lat="47.84113" lon="6.97048">
        <ele>979.5</ele>
        <time>2026-08-27T09:25:35.288Z</time>
      </trkpt>
      <trkpt lat="47.84113" lon="6.9705">
        <ele>979.3</ele>
        <time>2026-08-27T09:25:37.203Z</time>
      </trkpt>
      <trkpt lat="47.84114" lon="6.97053">
        <ele>979.4</ele>
        <time>2026-08-27T09:25:39.219Z</time>
      </trkpt>
      <trkpt lat="47.84114" lon="6.97054">
        <ele>979</ele>
        <time>2026-08-27T09:25:40.229Z</time>
      </trkpt>
      <trkpt lat="47.84115" lon="6.97054">
        <ele>979</ele>
        <time>2026-08-27T09:25:41.236Z</time>
      </trkpt>
      <trkpt lat="47.84115" lon="6.97053">
        <ele>979.3</ele>
        <time>2026-08-27T09:25:42.244Z</time>
      </trkpt>
      <trkpt lat="47.84116" lon="6.97052">
        <ele>979.4</ele>
        <time>2026-08-27T09:25:43.252Z</time>
      </trkpt>
      <trkpt lat="47.84116" lon="6.97052">
        <ele>979.5</ele>
        <time>2026-08-27T09:25:44.261Z</time>
      </trkpt>
      <trkpt lat="47.84117" lon="6.97053">
        <ele>979.2</ele>
        <time>2026-08-27T09:25:46.175Z</time>
      </trkpt>
      <trkpt lat="47.84117" lon="6.97053">
        <ele>979.4</ele>
        <time>2026-08-27T09:25:47.183Z</time>
      </trkpt>
      <trkpt lat="47.84117" lon="6.97053">
        <ele>979.4</ele>
        <time>2026-08-27T09:25:48.191Z</time>
      </trkpt>
      <trkpt lat="47.84117" lon="6.97053">
        <ele>979</ele>
        <time>2026-08-27T09:25:49.199Z</time>
      </trkpt>
      <trkpt lat="47.84117" lon="6.97052">
        <ele>979.2</ele>
        <time>2026-08-27T09:25:50.208Z</time>
      </trkpt>
      <trkpt lat="47.84117" lon="6.97052">
        <ele>979.3</ele>
        <time>2026-08-27T09:25:51.215Z</time>
      </trkpt>
      <trkpt lat="47.84117" lon="6.97052">
        <ele>979.2</ele>
        <time>2026-08-27T09:25:52.223Z</time>
      </trkpt>
      <trkpt lat="47.84117" lon="6.97052">
        <ele>979.4</ele>
        <time>2026-08-27T09:25:53.232Z</time>
      </trkpt>
      <trkpt lat="47.84117" lon="6.97052">
        <ele>979.5</ele>
        <time>2026-08-27T09:25:55.147Z</time>
      </trkpt>
      <trkpt lat="47.84117" lon="6.97052">
        <ele>979.5</ele>
        <time>2026-08-27T09:25:56.188Z</time>
      </trkpt>
      <trkpt lat="47.84117" lon="6.97054">
        <ele>979.6</ele>
        <time>2026-08-27T09:25:58.129Z</time>
      </trkpt>
      <trkpt lat="47.84117" lon="6.97055">
        <ele>979</ele>
        <time>2026-08-27T09:25:59.179Z</time>
      </trkpt>
      <trkpt lat="47.84118" lon="6.97057">
        <ele>979.3</ele>
        <time>2026-08-27T09:26:00.187Z</time>
      </trkpt>
      <trkpt lat="47.84118" lon="6.97058">
        <ele>979.3</ele>
        <time>2026-08-27T09:26:01.195Z</time>
      </trkpt>
      <trkpt lat="47.84118" lon="6.97062">
        <ele>978.6</ele>
        <time>2026-08-27T09:26:03.212Z</time>
      </trkpt>
      <trkpt lat="47.84118" lon="6.97064">
        <ele>978.5</ele>
        <time>2026-08-27T09:26:04.221Z</time>
      </trkpt>
      <trkpt lat="47.84118" lon="6.97069">
        <ele>978.2</ele>
        <time>2026-08-27T09:26:06.135Z</time>
      </trkpt>
      <trkpt lat="47.84118" lon="6.97073">
        <ele>978.2</ele>
        <time>2026-08-27T09:26:08.151Z</time>
      </trkpt>
      <trkpt lat="47.84118" lon="6.97075">
        <ele>977.8</ele>
        <time>2026-08-27T09:26:09.159Z</time>
      </trkpt>
      <trkpt lat="47.84117" lon="6.97077">
        <ele>977.6</ele>
        <time>2026-08-27T09:26:10.252Z</time>
      </trkpt>
      <trkpt lat="47.84118" lon="6.97079">
        <ele>977.9</ele>
        <time>2026-08-27T09:26:12.091Z</time>
      </trkpt>
      <trkpt lat="47.84118" lon="6.9708">
        <ele>977.9</ele>
        <time>2026-08-27T09:26:13.134Z</time>
      </trkpt>
      <trkpt lat="47.84118" lon="6.97082">
        <ele>977</ele>
        <time>2026-08-27T09:26:14.200Z</time>
      </trkpt>
      <trkpt lat="47.84117" lon="6.97083">
        <ele>977.6</ele>
        <time>2026-08-27T09:26:15.208Z</time>
      </trkpt>
      <trkpt lat="47.84116" lon="6.97085">
        <ele>977.6</ele>
        <time>2026-08-27T09:26:16.209Z</time>
      </trkpt>
      <trkpt lat="47.84114" lon="6.97086">
        <ele>977.4</ele>
        <time>2026-08-27T09:26:17.224Z</time>
      </trkpt>
      <trkpt lat="47.84113" lon="6.97088">
        <ele>977</ele>
        <time>2026-08-27T09:26:18.232Z</time>
      </trkpt>
      <trkpt lat="47.84112" lon="6.97089">
        <ele>977</ele>
        <time>2026-08-27T09:26:19.240Z</time>
      </trkpt>
      <trkpt lat="47.84112" lon="6.97091">
        <ele>977</ele>
        <time>2026-08-27T09:26:20.249Z</time>
      </trkpt>
      <trkpt lat="47.84111" lon="6.97093">
        <ele>976.9</ele>
        <time>2026-08-27T09:26:22.266Z</time>
      </trkpt>
      <trkpt lat="47.84111" lon="6.97096">
        <ele>977</ele>
        <time>2026-08-27T09:26:24.130Z</time>
      </trkpt>
      <trkpt lat="47.84111" lon="6.97098">
        <ele>977.2</ele>
        <time>2026-08-27T09:26:25.194Z</time>
      </trkpt>
      <trkpt lat="47.84111" lon="6.97101">
        <ele>977.1</ele>
        <time>2026-08-27T09:26:26.202Z</time>
      </trkpt>
      <trkpt lat="47.84111" lon="6.97103">
        <ele>976.7</ele>
        <time>2026-08-27T09:26:27.210Z</time>
      </trkpt>
      <trkpt lat="47.84112" lon="6.97105">
        <ele>976.4</ele>
        <time>2026-08-27T09:26:28.218Z</time>
      </trkpt>
      <trkpt lat="47.84112" lon="6.9711">
        <ele>976.7</ele>
        <time>2026-08-27T09:26:30.234Z</time>
      </trkpt>
      <trkpt lat="47.84113" lon="6.97113">
        <ele>976</ele>
        <time>2026-08-27T09:26:32.249Z</time>
      </trkpt>
      <trkpt lat="47.84112" lon="6.97117">
        <ele>975.8</ele>
        <time>2026-08-27T09:26:34.165Z</time>
      </trkpt>
      <trkpt lat="47.84112" lon="6.97118">
        <ele>975.7</ele>
        <time>2026-08-27T09:26:35.185Z</time>
      </trkpt>
      <trkpt lat="47.84111" lon="6.9712">
        <ele>975.9</ele>
        <time>2026-08-27T09:26:37.202Z</time>
      </trkpt>
      <trkpt lat="47.84111" lon="6.97122">
        <ele>975.6</ele>
        <time>2026-08-27T09:26:38.210Z</time>
      </trkpt>
      <trkpt lat="47.84111" lon="6.97123">
        <ele>975.6</ele>
        <time>2026-08-27T09:26:39.218Z</time>
      </trkpt>
      <trkpt lat="47.8411" lon="6.97126">
        <ele>975.9</ele>
        <time>2026-08-27T09:26:41.234Z</time>
      </trkpt>
      <trkpt lat="47.8411" lon="6.97127">
        <ele>976</ele>
        <time>2026-08-27T09:26:42.242Z</time>
      </trkpt>
      <trkpt lat="47.8411" lon="6.97129">
        <ele>975</ele>
        <time>2026-08-27T09:26:43.250Z</time>
      </trkpt>
      <trkpt lat="47.84111" lon="6.97131">
        <ele>975.6</ele>
        <time>2026-08-27T09:26:45.166Z</time>
      </trkpt>
      <trkpt lat="47.84112" lon="6.97132">
        <ele>975.3</ele>
        <time>2026-08-27T09:26:46.174Z</time>
      </trkpt>
      <trkpt lat="47.84113" lon="6.97132">
        <ele>974.9</ele>
        <time>2026-08-27T09:26:47.182Z</time>
      </trkpt>
      <trkpt lat="47.84113" lon="6.97132">
        <ele>975.1</ele>
        <time>2026-08-27T09:26:48.190Z</time>
      </trkpt>
      <trkpt lat="47.84112" lon="6.97132">
        <ele>975.3</ele>
        <time>2026-08-27T09:26:49.198Z</time>
      </trkpt>
      <trkpt lat="47.84112" lon="6.97132">
        <ele>975.1</ele>
        <time>2026-08-27T09:26:50.206Z</time>
      </trkpt>
      <trkpt lat="47.84112" lon="6.97132">
        <ele>975.3</ele>
        <time>2026-08-27T09:26:51.214Z</time>
      </trkpt>
      <trkpt lat="47.84112" lon="6.97132">
        <ele>975.4</ele>
        <time>2026-08-27T09:26:52.222Z</time>
      </trkpt>
      <trkpt lat="47.84112" lon="6.97132">
        <ele>975.6</ele>
        <time>2026-08-27T09:26:54.238Z</time>
      </trkpt>
      <trkpt lat="47.84111" lon="6.97134">
        <ele>975.3</ele>
        <time>2026-08-27T09:26:56.254Z</time>
      </trkpt>
      <trkpt lat="47.84109" lon="6.97139">
        <ele>975.4</ele>
        <time>2026-08-27T09:26:58.199Z</time>
      </trkpt>
      <trkpt lat="47.84108" lon="6.97141">
        <ele>975.5</ele>
        <time>2026-08-27T09:26:59.207Z</time>
      </trkpt>
      <trkpt lat="47.84108" lon="6.97142">
        <ele>975.2</ele>
        <time>2026-08-27T09:27:00.220Z</time>
      </trkpt>
      <trkpt lat="47.84108" lon="6.97146">
        <ele>975</ele>
        <time>2026-08-27T09:27:02.237Z</time>
      </trkpt>
      <trkpt lat="47.84108" lon="6.97147">
        <ele>974.9</ele>
        <time>2026-08-27T09:27:03.248Z</time>
      </trkpt>
      <trkpt lat="47.84108" lon="6.97151">
        <ele>974.6</ele>
        <time>2026-08-27T09:27:05.264Z</time>
      </trkpt>
      <trkpt lat="47.84107" lon="6.97155">
        <ele>974.6</ele>
        <time>2026-08-27T09:27:07.179Z</time>
      </trkpt>
      <trkpt lat="47.84107" lon="6.97157">
        <ele>974.6</ele>
        <time>2026-08-27T09:27:08.188Z</time>
      </trkpt>
      <trkpt lat="47.84108" lon="6.9716">
        <ele>974.9</ele>
        <time>2026-08-27T09:27:10.205Z</time>
      </trkpt>
      <trkpt lat="47.84108" lon="6.97161">
        <ele>974.8</ele>
        <time>2026-08-27T09:27:11.213Z</time>
      </trkpt>
      <trkpt lat="47.84108" lon="6.97163">
        <ele>973.8</ele>
        <time>2026-08-27T09:27:12.220Z</time>
      </trkpt>
      <trkpt lat="47.84108" lon="6.97165">
        <ele>974.3</ele>
        <time>2026-08-27T09:27:13.228Z</time>
      </trkpt>
      <trkpt lat="47.84108" lon="6.97167">
        <ele>974.2</ele>
        <time>2026-08-27T09:27:14.236Z</time>
      </trkpt>
      <trkpt lat="47.84108" lon="6.97169">
        <ele>974</ele>
        <time>2026-08-27T09:27:15.244Z</time>
      </trkpt>
      <trkpt lat="47.84109" lon="6.97173">
        <ele>973.8</ele>
        <time>2026-08-27T09:27:17.159Z</time>
      </trkpt>
      <trkpt lat="47.84109" lon="6.97177">
        <ele>973.4</ele>
        <time>2026-08-27T09:27:19.177Z</time>
      </trkpt>
      <trkpt lat="47.84109" lon="6.97178">
        <ele>973.4</ele>
        <time>2026-08-27T09:27:20.185Z</time>
      </trkpt>
      <trkpt lat="47.84108" lon="6.9718">
        <ele>973.4</ele>
        <time>2026-08-27T09:27:21.192Z</time>
      </trkpt>
      <trkpt lat="47.84109" lon="6.97182">
        <ele>973.3</ele>
        <time>2026-08-27T09:27:22.201Z</time>
      </trkpt>
      <trkpt lat="47.84109" lon="6.97183">
        <ele>973.4</ele>
        <time>2026-08-27T09:27:23.208Z</time>
      </trkpt>
      <trkpt lat="47.84109" lon="6.97185">
        <ele>972.9</ele>
        <time>2026-08-27T09:27:24.217Z</time>
      </trkpt>
      <trkpt lat="47.8411" lon="6.97187">
        <ele>972.6</ele>
        <time>2026-08-27T09:27:25.224Z</time>
      </trkpt>
      <trkpt lat="47.8411" lon="6.9719">
        <ele>972.5</ele>
        <time>2026-08-27T09:27:27.144Z</time>
      </trkpt>
      <trkpt lat="47.8411" lon="6.97192">
        <ele>972.5</ele>
        <time>2026-08-27T09:27:28.261Z</time>
      </trkpt>
      <trkpt lat="47.84109" lon="6.97196">
        <ele>972</ele>
        <time>2026-08-27T09:27:30.185Z</time>
      </trkpt>
      <trkpt lat="47.84108" lon="6.97198">
        <ele>971.9</ele>
        <time>2026-08-27T09:27:31.194Z</time>
      </trkpt>
      <trkpt lat="47.84108" lon="6.972">
        <ele>971.8</ele>
        <time>2026-08-27T09:27:32.201Z</time>
      </trkpt>
      <trkpt lat="47.84107" lon="6.97202">
        <ele>971.9</ele>
        <time>2026-08-27T09:27:33.209Z</time>
      </trkpt>
      <trkpt lat="47.84107" lon="6.97203">
        <ele>971.7</ele>
        <time>2026-08-27T09:27:34.218Z</time>
      </trkpt>
      <trkpt lat="47.84107" lon="6.97205">
        <ele>971.6</ele>
        <time>2026-08-27T09:27:35.225Z</time>
      </trkpt>
      <trkpt lat="47.84107" lon="6.97207">
        <ele>972</ele>
        <time>2026-08-27T09:27:36.233Z</time>
      </trkpt>
      <trkpt lat="47.84107" lon="6.97208">
        <ele>971.8</ele>
        <time>2026-08-27T09:27:37.241Z</time>
      </trkpt>
      <trkpt lat="47.84107" lon="6.9721">
        <ele>972.1</ele>
        <time>2026-08-27T09:27:38.249Z</time>
      </trkpt>
      <trkpt lat="47.84107" lon="6.97214">
        <ele>972.4</ele>
        <time>2026-08-27T09:27:40.165Z</time>
      </trkpt>
      <trkpt lat="47.84107" lon="6.97216">
        <ele>971.5</ele>
        <time>2026-08-27T09:27:41.194Z</time>
      </trkpt>
      <trkpt lat="47.84108" lon="6.97218">
        <ele>972.1</ele>
        <time>2026-08-27T09:27:42.203Z</time>
      </trkpt>
      <trkpt lat="47.84109" lon="6.9722">
        <ele>972.2</ele>
        <time>2026-08-27T09:27:43.211Z</time>
      </trkpt>
      <trkpt lat="47.84108" lon="6.97224">
        <ele>972.1</ele>
        <time>2026-08-27T09:27:45.231Z</time>
      </trkpt>
      <trkpt lat="47.8411" lon="6.97229">
        <ele>972.1</ele>
        <time>2026-08-27T09:27:47.141Z</time>
      </trkpt>
      <trkpt lat="47.8411" lon="6.9723">
        <ele>972.1</ele>
        <time>2026-08-27T09:27:48.171Z</time>
      </trkpt>
      <trkpt lat="47.84111" lon="6.97233">
        <ele>972.1</ele>
        <time>2026-08-27T09:27:50.165Z</time>
      </trkpt>
      <trkpt lat="47.84112" lon="6.97236">
        <ele>972.1</ele>
        <time>2026-08-27T09:27:52.170Z</time>
      </trkpt>
      <trkpt lat="47.84113" lon="6.97238">
        <ele>971.8</ele>
        <time>2026-08-27T09:27:53.190Z</time>
      </trkpt>
      <trkpt lat="47.84112" lon="6.9724">
        <ele>971.7</ele>
        <time>2026-08-27T09:27:54.198Z</time>
      </trkpt>
      <trkpt lat="47.84112" lon="6.97242">
        <ele>971.7</ele>
        <time>2026-08-27T09:27:55.206Z</time>
      </trkpt>
      <trkpt lat="47.84111" lon="6.97243">
        <ele>971.6</ele>
        <time>2026-08-27T09:27:56.215Z</time>
      </trkpt>
      <trkpt lat="47.84111" lon="6.97245">
        <ele>971.5</ele>
        <time>2026-08-27T09:27:57.223Z</time>
      </trkpt>
      <trkpt lat="47.8411" lon="6.97249">
        <ele>971</ele>
        <time>2026-08-27T09:27:59.137Z</time>
      </trkpt>
      <trkpt lat="47.8411" lon="6.97251">
        <ele>970.9</ele>
        <time>2026-08-27T09:28:00.147Z</time>
      </trkpt>
      <trkpt lat="47.8411" lon="6.97252">
        <ele>970.9</ele>
        <time>2026-08-27T09:28:01.155Z</time>
      </trkpt>
      <trkpt lat="47.8411" lon="6.97254">
        <ele>970.7</ele>
        <time>2026-08-27T09:28:02.163Z</time>
      </trkpt>
      <trkpt lat="47.84111" lon="6.97256">
        <ele>971.2</ele>
        <time>2026-08-27T09:28:04.178Z</time>
      </trkpt>
      <trkpt lat="47.84111" lon="6.97258">
        <ele>971</ele>
        <time>2026-08-27T09:28:05.187Z</time>
      </trkpt>
      <trkpt lat="47.8411" lon="6.9726">
        <ele>970.5</ele>
        <time>2026-08-27T09:28:06.194Z</time>
      </trkpt>
      <trkpt lat="47.84109" lon="6.97261">
        <ele>970.9</ele>
        <time>2026-08-27T09:28:07.202Z</time>
      </trkpt>
      <trkpt lat="47.84109" lon="6.97263">
        <ele>971.1</ele>
        <time>2026-08-27T09:28:08.215Z</time>
      </trkpt>
      <trkpt lat="47.84109" lon="6.97265">
        <ele>971.2</ele>
        <time>2026-08-27T09:28:09.223Z</time>
      </trkpt>
      <trkpt lat="47.84109" lon="6.97267">
        <ele>970.4</ele>
        <time>2026-08-27T09:28:10.231Z</time>
      </trkpt>
      <trkpt lat="47.84109" lon="6.97268">
        <ele>971</ele>
        <time>2026-08-27T09:28:11.240Z</time>
      </trkpt>
      <trkpt lat="47.84109" lon="6.97272">
        <ele>971.1</ele>
        <time>2026-08-27T09:28:13.139Z</time>
      </trkpt>
      <trkpt lat="47.84109" lon="6.97273">
        <ele>970.7</ele>
        <time>2026-08-27T09:28:14.184Z</time>
      </trkpt>
      <trkpt lat="47.84109" lon="6.97275">
        <ele>970.8</ele>
        <time>2026-08-27T09:28:15.193Z</time>
      </trkpt>
      <trkpt lat="47.84109" lon="6.97277">
        <ele>970.8</ele>
        <time>2026-08-27T09:28:16.201Z</time>
      </trkpt>
      <trkpt lat="47.84109" lon="6.97279">
        <ele>970.3</ele>
        <time>2026-08-27T09:28:17.208Z</time>
      </trkpt>
      <trkpt lat="47.8411" lon="6.9728">
        <ele>970.7</ele>
        <time>2026-08-27T09:28:18.217Z</time>
      </trkpt>
      <trkpt lat="47.8411" lon="6.97282">
        <ele>970.8</ele>
        <time>2026-08-27T09:28:19.224Z</time>
      </trkpt>
      <trkpt lat="47.8411" lon="6.97284">
        <ele>970.8</ele>
        <time>2026-08-27T09:28:20.232Z</time>
      </trkpt>
      <trkpt lat="47.84111" lon="6.97286">
        <ele>970.6</ele>
        <time>2026-08-27T09:28:21.241Z</time>
      </trkpt>
      <trkpt lat="47.84111" lon="6.97288">
        <ele>970.4</ele>
        <time>2026-08-27T09:28:22.249Z</time>
      </trkpt>
      <trkpt lat="47.84111" lon="6.97292">
        <ele>970.5</ele>
        <time>2026-08-27T09:28:24.164Z</time>
      </trkpt>
      <trkpt lat="47.84112" lon="6.97295">
        <ele>970.3</ele>
        <time>2026-08-27T09:28:26.260Z</time>
      </trkpt>
      <trkpt lat="47.84112" lon="6.97298">
        <ele>970.1</ele>
        <time>2026-08-27T09:28:28.201Z</time>
      </trkpt>
      <trkpt lat="47.84113" lon="6.973">
        <ele>969.9</ele>
        <time>2026-08-27T09:28:29.205Z</time>
      </trkpt>
      <trkpt lat="47.84113" lon="6.97302">
        <ele>969.9</ele>
        <time>2026-08-27T09:28:30.214Z</time>
      </trkpt>
      <trkpt lat="47.84113" lon="6.97304">
        <ele>969.7</ele>
        <time>2026-08-27T09:28:31.222Z</time>
      </trkpt>
      <trkpt lat="47.84113" lon="6.97305">
        <ele>969.4</ele>
        <time>2026-08-27T09:28:32.230Z</time>
      </trkpt>
      <trkpt lat="47.84113" lon="6.97308">
        <ele>969.2</ele>
        <time>2026-08-27T09:28:34.181Z</time>
      </trkpt>
      <trkpt lat="47.84113" lon="6.97311">
        <ele>969.6</ele>
        <time>2026-08-27T09:28:36.165Z</time>
      </trkpt>
      <trkpt lat="47.84113" lon="6.97313">
        <ele>969.6</ele>
        <time>2026-08-27T09:28:37.199Z</time>
      </trkpt>
      <trkpt lat="47.84114" lon="6.97315">
        <ele>969.7</ele>
        <time>2026-08-27T09:28:38.241Z</time>
      </trkpt>
      <trkpt lat="47.84114" lon="6.97318">
        <ele>969.3</ele>
        <time>2026-08-27T09:28:40.197Z</time>
      </trkpt>
      <trkpt lat="47.84114" lon="6.9732">
        <ele>969.4</ele>
        <time>2026-08-27T09:28:41.205Z</time>
      </trkpt>
      <trkpt lat="47.84114" lon="6.97321">
        <ele>969</ele>
        <time>2026-08-27T09:28:42.231Z</time>
      </trkpt>
      <trkpt lat="47.84115" lon="6.97324">
        <ele>968.8</ele>
        <time>2026-08-27T09:28:44.232Z</time>
      </trkpt>
      <trkpt lat="47.84115" lon="6.97329">
        <ele>968.4</ele>
        <time>2026-08-27T09:28:46.163Z</time>
      </trkpt>
      <trkpt lat="47.84117" lon="6.97333">
        <ele>968.4</ele>
        <time>2026-08-27T09:28:48.280Z</time>
      </trkpt>
      <trkpt lat="47.84118" lon="6.97336">
        <ele>968.3</ele>
        <time>2026-08-27T09:28:50.195Z</time>
      </trkpt>
      <trkpt lat="47.84118" lon="6.97338">
        <ele>967.9</ele>
        <time>2026-08-27T09:28:51.202Z</time>
      </trkpt>
      <trkpt lat="47.84118" lon="6.97339">
        <ele>967.6</ele>
        <time>2026-08-27T09:28:52.210Z</time>
      </trkpt>
      <trkpt lat="47.84117" lon="6.97343">
        <ele>967.3</ele>
        <time>2026-08-27T09:28:54.277Z</time>
      </trkpt>
      <trkpt lat="47.84118" lon="6.97347">
        <ele>966.6</ele>
        <time>2026-08-27T09:28:56.248Z</time>
      </trkpt>
      <trkpt lat="47.84118" lon="6.97349">
        <ele>966.6</ele>
        <time>2026-08-27T09:28:57.301Z</time>
      </trkpt>
      <trkpt lat="47.84118" lon="6.97351">
        <ele>966.2</ele>
        <time>2026-08-27T09:28:58.787Z</time>
      </trkpt>
      <trkpt lat="47.84118" lon="6.97353">
        <ele>966</ele>
        <time>2026-08-27T09:28:59.923Z</time>
      </trkpt>
      <trkpt lat="47.84119" lon="6.97355">
        <ele>965.8</ele>
        <time>2026-08-27T09:29:01.023Z</time>
      </trkpt>
      <trkpt lat="47.84119" lon="6.97357">
        <ele>965.7</ele>
        <time>2026-08-27T09:29:02.239Z</time>
      </trkpt>
      <trkpt lat="47.8412" lon="6.97359">
        <ele>965.4</ele>
        <time>2026-08-27T09:29:03.258Z</time>
      </trkpt>
      <trkpt lat="47.84122" lon="6.97362">
        <ele>966.2</ele>
        <time>2026-08-27T09:29:05.262Z</time>
      </trkpt>
      <trkpt lat="47.84123" lon="6.97364">
        <ele>965.5</ele>
        <time>2026-08-27T09:29:06.270Z</time>
      </trkpt>
      <trkpt lat="47.84125" lon="6.97366">
        <ele>965.3</ele>
        <time>2026-08-27T09:29:08.185Z</time>
      </trkpt>
      <trkpt lat="47.84126" lon="6.97368">
        <ele>965.9</ele>
        <time>2026-08-27T09:29:09.193Z</time>
      </trkpt>
      <trkpt lat="47.84126" lon="6.97371">
        <ele>966.1</ele>
        <time>2026-08-27T09:29:11.121Z</time>
      </trkpt>
      <trkpt lat="47.84126" lon="6.97373">
        <ele>965.8</ele>
        <time>2026-08-27T09:29:12.238Z</time>
      </trkpt>
      <trkpt lat="47.84127" lon="6.97377">
        <ele>965</ele>
        <time>2026-08-27T09:29:14.233Z</time>
      </trkpt>
      <trkpt lat="47.84127" lon="6.97379">
        <ele>965.5</ele>
        <time>2026-08-27T09:29:15.245Z</time>
      </trkpt>
      <trkpt lat="47.84127" lon="6.97381">
        <ele>965.4</ele>
        <time>2026-08-27T09:29:16.253Z</time>
      </trkpt>
      <trkpt lat="47.84128" lon="6.97385">
        <ele>965.3</ele>
        <time>2026-08-27T09:29:18.173Z</time>
      </trkpt>
      <trkpt lat="47.84128" lon="6.97386">
        <ele>965.7</ele>
        <time>2026-08-27T09:29:19.181Z</time>
      </trkpt>
      <trkpt lat="47.84129" lon="6.97388">
        <ele>965.6</ele>
        <time>2026-08-27T09:29:20.189Z</time>
      </trkpt>
      <trkpt lat="47.8413" lon="6.97389">
        <ele>965.2</ele>
        <time>2026-08-27T09:29:21.197Z</time>
      </trkpt>
      <trkpt lat="47.8413" lon="6.97393">
        <ele>965.7</ele>
        <time>2026-08-27T09:29:23.213Z</time>
      </trkpt>
      <trkpt lat="47.8413" lon="6.97395">
        <ele>965.5</ele>
        <time>2026-08-27T09:29:24.222Z</time>
      </trkpt>
      <trkpt lat="47.84131" lon="6.97398">
        <ele>965.4</ele>
        <time>2026-08-27T09:29:25.230Z</time>
      </trkpt>
      <trkpt lat="47.84132" lon="6.97401">
        <ele>965.2</ele>
        <time>2026-08-27T09:29:27.246Z</time>
      </trkpt>
      <trkpt lat="47.84133" lon="6.97402">
        <ele>965.1</ele>
        <time>2026-08-27T09:29:28.255Z</time>
      </trkpt>
      <trkpt lat="47.84134" lon="6.97404">
        <ele>964.6</ele>
        <time>2026-08-27T09:29:30.271Z</time>
      </trkpt>
      <trkpt lat="47.84134" lon="6.97408">
        <ele>964.4</ele>
        <time>2026-08-27T09:29:32.241Z</time>
      </trkpt>
      <trkpt lat="47.84135" lon="6.97412">
        <ele>965.5</ele>
        <time>2026-08-27T09:29:34.203Z</time>
      </trkpt>
      <trkpt lat="47.84135" lon="6.97414">
        <ele>965.5</ele>
        <time>2026-08-27T09:29:35.222Z</time>
      </trkpt>
      <trkpt lat="47.84135" lon="6.97417">
        <ele>964.5</ele>
        <time>2026-08-27T09:29:37.227Z</time>
      </trkpt>
      <trkpt lat="47.84135" lon="6.97419">
        <ele>964.9</ele>
        <time>2026-08-27T09:29:38.234Z</time>
      </trkpt>
      <trkpt lat="47.84136" lon="6.9742">
        <ele>965</ele>
        <time>2026-08-27T09:29:39.246Z</time>
      </trkpt>
      <trkpt lat="47.84137" lon="6.9742">
        <ele>964.5</ele>
        <time>2026-08-27T09:29:40.255Z</time>
      </trkpt>
      <trkpt lat="47.84138" lon="6.97421">
        <ele>964.5</ele>
        <time>2026-08-27T09:29:41.272Z</time>
      </trkpt>
      <trkpt lat="47.84139" lon="6.97423">
        <ele>963.7</ele>
        <time>2026-08-27T09:29:42.352Z</time>
      </trkpt>
      <trkpt lat="47.84141" lon="6.97427">
        <ele>963.4</ele>
        <time>2026-08-27T09:29:45.295Z</time>
      </trkpt>
      <trkpt lat="47.84142" lon="6.97427">
        <ele>963.2</ele>
        <time>2026-08-27T09:29:47.210Z</time>
      </trkpt>
      <trkpt lat="47.84142" lon="6.97427">
        <ele>963.5</ele>
        <time>2026-08-27T09:29:48.222Z</time>
      </trkpt>
      <trkpt lat="47.84142" lon="6.97426">
        <ele>963.4</ele>
        <time>2026-08-27T09:29:49.231Z</time>
      </trkpt>
      <trkpt lat="47.84142" lon="6.97426">
        <ele>963</ele>
        <time>2026-08-27T09:29:50.243Z</time>
      </trkpt>
      <trkpt lat="47.84142" lon="6.97427">
        <ele>962.5</ele>
        <time>2026-08-27T09:29:51.251Z</time>
      </trkpt>
      <trkpt lat="47.84142" lon="6.97427">
        <ele>963.3</ele>
        <time>2026-08-27T09:29:53.166Z</time>
      </trkpt>
      <trkpt lat="47.84142" lon="6.97429">
        <ele>963.1</ele>
        <time>2026-08-27T09:29:54.275Z</time>
      </trkpt>
      <trkpt lat="47.84143" lon="6.9743">
        <ele>963</ele>
        <time>2026-08-27T09:29:55.283Z</time>
      </trkpt>
      <trkpt lat="47.84143" lon="6.97433">
        <ele>962.9</ele>
        <time>2026-08-27T09:29:57.198Z</time>
      </trkpt>
      <trkpt lat="47.84144" lon="6.97436">
        <ele>962.6</ele>
        <time>2026-08-27T09:29:58.207Z</time>
      </trkpt>
      <trkpt lat="47.84145" lon="6.97438">
        <ele>962.5</ele>
        <time>2026-08-27T09:29:59.215Z</time>
      </trkpt>
      <trkpt lat="47.84146" lon="6.97441">
        <ele>962.4</ele>
        <time>2026-08-27T09:30:00.223Z</time>
      </trkpt>
      <trkpt lat="47.84147" lon="6.97444">
        <ele>962.5</ele>
        <time>2026-08-27T09:30:01.232Z</time>
      </trkpt>
      <trkpt lat="47.84148" lon="6.97448">
        <ele>963</ele>
        <time>2026-08-27T09:30:02.239Z</time>
      </trkpt>
      <trkpt lat="47.84148" lon="6.97452">
        <ele>963.4</ele>
        <time>2026-08-27T09:30:04.247Z</time>
      </trkpt>
      <trkpt lat="47.84149" lon="6.97454">
        <ele>962.5</ele>
        <time>2026-08-27T09:30:05.263Z</time>
      </trkpt>
      <trkpt lat="47.8415" lon="6.97456">
        <ele>962.5</ele>
        <time>2026-08-27T09:30:06.288Z</time>
      </trkpt>
      <trkpt lat="47.8415" lon="6.97458">
        <ele>962.7</ele>
        <time>2026-08-27T09:30:07.303Z</time>
      </trkpt>
      <trkpt lat="47.84152" lon="6.97462">
        <ele>961.9</ele>
        <time>2026-08-27T09:30:09.195Z</time>
      </trkpt>
      <trkpt lat="47.84152" lon="6.97463">
        <ele>961.8</ele>
        <time>2026-08-27T09:30:10.203Z</time>
      </trkpt>
      <trkpt lat="47.84152" lon="6.97465">
        <ele>961.4</ele>
        <time>2026-08-27T09:30:11.211Z</time>
      </trkpt>
      <trkpt lat="47.84152" lon="6.97466">
        <ele>961.1</ele>
        <time>2026-08-27T09:30:12.219Z</time>
      </trkpt>
      <trkpt lat="47.84152" lon="6.97466">
        <ele>961.3</ele>
        <time>2026-08-27T09:30:13.227Z</time>
      </trkpt>
      <trkpt lat="47.84152" lon="6.97465">
        <ele>961.2</ele>
        <time>2026-08-27T09:30:14.235Z</time>
      </trkpt>
      <trkpt lat="47.84152" lon="6.97465">
        <ele>961.2</ele>
        <time>2026-08-27T09:30:15.285Z</time>
      </trkpt>
      <trkpt lat="47.84152" lon="6.97465">
        <ele>961.2</ele>
        <time>2026-08-27T09:30:17.284Z</time>
      </trkpt>
      <trkpt lat="47.84152" lon="6.97467">
        <ele>961.5</ele>
        <time>2026-08-27T09:30:18.486Z</time>
      </trkpt>
      <trkpt lat="47.84153" lon="6.9747">
        <ele>961.1</ele>
        <time>2026-08-27T09:30:19.503Z</time>
      </trkpt>
      <trkpt lat="47.84153" lon="6.97471">
        <ele>960.6</ele>
        <time>2026-08-27T09:30:20.603Z</time>
      </trkpt>
      <trkpt lat="47.84154" lon="6.97473">
        <ele>960.9</ele>
        <time>2026-08-27T09:30:21.728Z</time>
      </trkpt>
      <trkpt lat="47.84154" lon="6.97475">
        <ele>961.2</ele>
        <time>2026-08-27T09:30:22.846Z</time>
      </trkpt>
      <trkpt lat="47.84154" lon="6.97476">
        <ele>960.7</ele>
        <time>2026-08-27T09:30:24.047Z</time>
      </trkpt>
      <trkpt lat="47.84154" lon="6.97476">
        <ele>960.5</ele>
        <time>2026-08-27T09:30:25.223Z</time>
      </trkpt>
      <trkpt lat="47.84154" lon="6.97476">
        <ele>960.2</ele>
        <time>2026-08-27T09:30:26.231Z</time>
      </trkpt>
      <trkpt lat="47.84154" lon="6.97475">
        <ele>960.1</ele>
        <time>2026-08-27T09:30:27.239Z</time>
      </trkpt>
      <trkpt lat="47.84154" lon="6.97473">
        <ele>959.6</ele>
        <time>2026-08-27T09:30:28.247Z</time>
      </trkpt>
      <trkpt lat="47.84155" lon="6.97472">
        <ele>959.7</ele>
        <time>2026-08-27T09:30:29.255Z</time>
      </trkpt>
      <trkpt lat="47.84155" lon="6.97472">
        <ele>959.8</ele>
        <time>2026-08-27T09:30:30.263Z</time>
      </trkpt>
      <trkpt lat="47.84155" lon="6.97471">
        <ele>960.3</ele>
        <time>2026-08-27T09:30:31.271Z</time>
      </trkpt>
      <trkpt lat="47.84155" lon="6.97471">
        <ele>959.9</ele>
        <time>2026-08-27T09:30:32.280Z</time>
      </trkpt>
      <trkpt lat="47.84155" lon="6.97471">
        <ele>959.9</ele>
        <time>2026-08-27T09:30:33.288Z</time>
      </trkpt>
      <trkpt lat="47.84155" lon="6.97471">
        <ele>960.1</ele>
        <time>2026-08-27T09:30:34.297Z</time>
      </trkpt>
      <trkpt lat="47.84155" lon="6.97471">
        <ele>959.8</ele>
        <time>2026-08-27T09:30:35.305Z</time>
      </trkpt>
      <trkpt lat="47.84155" lon="6.97472">
        <ele>959.8</ele>
        <time>2026-08-27T09:30:37.219Z</time>
      </trkpt>
      <trkpt lat="47.84155" lon="6.97472">
        <ele>960.4</ele>
        <time>2026-08-27T09:30:38.227Z</time>
      </trkpt>
      <trkpt lat="47.84155" lon="6.97472">
        <ele>959.8</ele>
        <time>2026-08-27T09:30:39.235Z</time>
      </trkpt>
      <trkpt lat="47.84155" lon="6.97473">
        <ele>959.4</ele>
        <time>2026-08-27T09:30:40.244Z</time>
      </trkpt>
      <trkpt lat="47.84155" lon="6.97474">
        <ele>959.7</ele>
        <time>2026-08-27T09:30:42.259Z</time>
      </trkpt>
      <trkpt lat="47.84156" lon="6.97476">
        <ele>959.8</ele>
        <time>2026-08-27T09:30:43.269Z</time>
      </trkpt>
      <trkpt lat="47.84157" lon="6.97481">
        <ele>959.8</ele>
        <time>2026-08-27T09:30:45.269Z</time>
      </trkpt>
      <trkpt lat="47.84158" lon="6.97486">
        <ele>959.4</ele>
        <time>2026-08-27T09:30:47.200Z</time>
      </trkpt>
      <trkpt lat="47.84159" lon="6.97488">
        <ele>959.2</ele>
        <time>2026-08-27T09:30:48.207Z</time>
      </trkpt>
      <trkpt lat="47.84159" lon="6.9749">
        <ele>958.9</ele>
        <time>2026-08-27T09:30:49.215Z</time>
      </trkpt>
      <trkpt lat="47.84159" lon="6.97493">
        <ele>958.9</ele>
        <time>2026-08-27T09:30:50.223Z</time>
      </trkpt>
      <trkpt lat="47.8416" lon="6.97495">
        <ele>958.9</ele>
        <time>2026-08-27T09:30:51.231Z</time>
      </trkpt>
      <trkpt lat="47.8416" lon="6.97497">
        <ele>958.9</ele>
        <time>2026-08-27T09:30:52.244Z</time>
      </trkpt>
      <trkpt lat="47.84161" lon="6.97501">
        <ele>959</ele>
        <time>2026-08-27T09:30:54.290Z</time>
      </trkpt>
      <trkpt lat="47.84162" lon="6.97504">
        <ele>958.6</ele>
        <time>2026-08-27T09:30:56.175Z</time>
      </trkpt>
      <trkpt lat="47.84162" lon="6.97506">
        <ele>958.6</ele>
        <time>2026-08-27T09:30:57.196Z</time>
      </trkpt>
      <trkpt lat="47.84164" lon="6.9751">
        <ele>958.3</ele>
        <time>2026-08-27T09:30:59.199Z</time>
      </trkpt>
      <trkpt lat="47.84164" lon="6.97512">
        <ele>958.4</ele>
        <time>2026-08-27T09:31:00.211Z</time>
      </trkpt>
      <trkpt lat="47.84165" lon="6.97514">
        <ele>958.2</ele>
        <time>2026-08-27T09:31:01.221Z</time>
      </trkpt>
      <trkpt lat="47.84165" lon="6.97516">
        <ele>958.3</ele>
        <time>2026-08-27T09:31:02.228Z</time>
      </trkpt>
      <trkpt lat="47.84166" lon="6.97518">
        <ele>958.4</ele>
        <time>2026-08-27T09:31:03.237Z</time>
      </trkpt>
      <trkpt lat="47.84167" lon="6.97522">
        <ele>957.9</ele>
        <time>2026-08-27T09:31:05.278Z</time>
      </trkpt>
      <trkpt lat="47.84168" lon="6.97525">
        <ele>957.6</ele>
        <time>2026-08-27T09:31:07.268Z</time>
      </trkpt>
      <trkpt lat="47.84169" lon="6.97527">
        <ele>957.1</ele>
        <time>2026-08-27T09:31:09.183Z</time>
      </trkpt>
      <trkpt lat="47.8417" lon="6.97528">
        <ele>957.1</ele>
        <time>2026-08-27T09:31:10.191Z</time>
      </trkpt>
      <trkpt lat="47.8417" lon="6.97529">
        <ele>957.3</ele>
        <time>2026-08-27T09:31:11.200Z</time>
      </trkpt>
      <trkpt lat="47.84172" lon="6.97531">
        <ele>957.3</ele>
        <time>2026-08-27T09:31:13.139Z</time>
      </trkpt>
      <trkpt lat="47.84173" lon="6.97533">
        <ele>957.1</ele>
        <time>2026-08-27T09:31:14.225Z</time>
      </trkpt>
      <trkpt lat="47.84174" lon="6.97535">
        <ele>957.2</ele>
        <time>2026-08-27T09:31:15.232Z</time>
      </trkpt>
      <trkpt lat="47.84174" lon="6.97537">
        <ele>957.2</ele>
        <time>2026-08-27T09:31:16.240Z</time>
      </trkpt>
      <trkpt lat="47.84175" lon="6.97539">
        <ele>957</ele>
        <time>2026-08-27T09:31:17.248Z</time>
      </trkpt>
      <trkpt lat="47.84176" lon="6.97541">
        <ele>957</ele>
        <time>2026-08-27T09:31:18.290Z</time>
      </trkpt>
      <trkpt lat="47.84177" lon="6.97544">
        <ele>957.1</ele>
        <time>2026-08-27T09:31:20.273Z</time>
      </trkpt>
      <trkpt lat="47.84178" lon="6.97547">
        <ele>957.4</ele>
        <time>2026-08-27T09:31:22.095Z</time>
      </trkpt>
      <trkpt lat="47.84178" lon="6.97548">
        <ele>957.3</ele>
        <time>2026-08-27T09:31:23.195Z</time>
      </trkpt>
      <trkpt lat="47.84179" lon="6.9755">
        <ele>957.3</ele>
        <time>2026-08-27T09:31:24.204Z</time>
      </trkpt>
      <trkpt lat="47.8418" lon="6.97552">
        <ele>957</ele>
        <time>2026-08-27T09:31:25.216Z</time>
      </trkpt>
      <trkpt lat="47.84181" lon="6.97555">
        <ele>956.8</ele>
        <time>2026-08-27T09:31:27.236Z</time>
      </trkpt>
      <trkpt lat="47.84183" lon="6.97558">
        <ele>957.1</ele>
        <time>2026-08-27T09:31:29.252Z</time>
      </trkpt>
      <trkpt lat="47.84183" lon="6.9756">
        <ele>956.9</ele>
        <time>2026-08-27T09:31:30.261Z</time>
      </trkpt>
      <trkpt lat="47.84184" lon="6.97564">
        <ele>956.7</ele>
        <time>2026-08-27T09:31:32.218Z</time>
      </trkpt>
      <trkpt lat="47.84184" lon="6.97567">
        <ele>956.6</ele>
        <time>2026-08-27T09:31:34.269Z</time>
      </trkpt>
      <trkpt lat="47.84186" lon="6.97571">
        <ele>956.1</ele>
        <time>2026-08-27T09:31:36.216Z</time>
      </trkpt>
      <trkpt lat="47.84186" lon="6.97575">
        <ele>956</ele>
        <time>2026-08-27T09:31:38.237Z</time>
      </trkpt>
      <trkpt lat="47.84186" lon="6.97577">
        <ele>956.1</ele>
        <time>2026-08-27T09:31:39.246Z</time>
      </trkpt>
      <trkpt lat="47.84186" lon="6.97579">
        <ele>956.3</ele>
        <time>2026-08-27T09:31:40.254Z</time>
      </trkpt>
      <trkpt lat="47.84186" lon="6.97581">
        <ele>955.9</ele>
        <time>2026-08-27T09:31:41.261Z</time>
      </trkpt>
      <trkpt lat="47.84187" lon="6.97584">
        <ele>955.7</ele>
        <time>2026-08-27T09:31:43.177Z</time>
      </trkpt>
      <trkpt lat="47.84189" lon="6.97587">
        <ele>955.8</ele>
        <time>2026-08-27T09:31:45.171Z</time>
      </trkpt>
      <trkpt lat="47.8419" lon="6.97589">
        <ele>955.6</ele>
        <time>2026-08-27T09:31:46.272Z</time>
      </trkpt>
      <trkpt lat="47.84191" lon="6.97592">
        <ele>955.4</ele>
        <time>2026-08-27T09:31:48.216Z</time>
      </trkpt>
      <trkpt lat="47.84192" lon="6.97593">
        <ele>955.5</ele>
        <time>2026-08-27T09:31:50.233Z</time>
      </trkpt>
      <trkpt lat="47.84192" lon="6.97594">
        <ele>955.6</ele>
        <time>2026-08-27T09:31:51.241Z</time>
      </trkpt>
      <trkpt lat="47.84193" lon="6.97595">
        <ele>955.2</ele>
        <time>2026-08-27T09:31:52.249Z</time>
      </trkpt>
      <trkpt lat="47.84193" lon="6.97597">
        <ele>955.4</ele>
        <time>2026-08-27T09:31:54.067Z</time>
      </trkpt>
      <trkpt lat="47.84194" lon="6.97599">
        <ele>955.2</ele>
        <time>2026-08-27T09:31:55.168Z</time>
      </trkpt>
      <trkpt lat="47.84194" lon="6.976">
        <ele>954.8</ele>
        <time>2026-08-27T09:31:56.180Z</time>
      </trkpt>
      <trkpt lat="47.84194" lon="6.97602">
        <ele>954.9</ele>
        <time>2026-08-27T09:31:57.189Z</time>
      </trkpt>
      <trkpt lat="47.84195" lon="6.97605">
        <ele>955</ele>
        <time>2026-08-27T09:31:59.192Z</time>
      </trkpt>
      <trkpt lat="47.84196" lon="6.97607">
        <ele>954.6</ele>
        <time>2026-08-27T09:32:00.217Z</time>
      </trkpt>
      <trkpt lat="47.84197" lon="6.97609">
        <ele>954.4</ele>
        <time>2026-08-27T09:32:01.225Z</time>
      </trkpt>
      <trkpt lat="47.84197" lon="6.97611">
        <ele>954.1</ele>
        <time>2026-08-27T09:32:02.237Z</time>
      </trkpt>
      <trkpt lat="47.84197" lon="6.97613">
        <ele>953.9</ele>
        <time>2026-08-27T09:32:03.245Z</time>
      </trkpt>
      <trkpt lat="47.84197" lon="6.97616">
        <ele>953.7</ele>
        <time>2026-08-27T09:32:05.282Z</time>
      </trkpt>
      <trkpt lat="47.84197" lon="6.97619">
        <ele>953.8</ele>
        <time>2026-08-27T09:32:07.202Z</time>
      </trkpt>
      <trkpt lat="47.84197" lon="6.9762">
        <ele>953.9</ele>
        <time>2026-08-27T09:32:08.210Z</time>
      </trkpt>
      <trkpt lat="47.84197" lon="6.97622">
        <ele>954.2</ele>
        <time>2026-08-27T09:32:09.219Z</time>
      </trkpt>
      <trkpt lat="47.84197" lon="6.97624">
        <ele>954.2</ele>
        <time>2026-08-27T09:32:10.265Z</time>
      </trkpt>
      <trkpt lat="47.84198" lon="6.97628">
        <ele>953.9</ele>
        <time>2026-08-27T09:32:11.819Z</time>
      </trkpt>
      <trkpt lat="47.84197" lon="6.9763">
        <ele>953.9</ele>
        <time>2026-08-27T09:32:12.919Z</time>
      </trkpt>
      <trkpt lat="47.84197" lon="6.97632">
        <ele>954</ele>
        <time>2026-08-27T09:32:13.919Z</time>
      </trkpt>
      <trkpt lat="47.84196" lon="6.97634">
        <ele>953.9</ele>
        <time>2026-08-27T09:32:15.077Z</time>
      </trkpt>
      <trkpt lat="47.84195" lon="6.97635">
        <ele>953.8</ele>
        <time>2026-08-27T09:32:16.179Z</time>
      </trkpt>
      <trkpt lat="47.84195" lon="6.97637">
        <ele>953.7</ele>
        <time>2026-08-27T09:32:17.263Z</time>
      </trkpt>
      <trkpt lat="47.84194" lon="6.97639">
        <ele>953.8</ele>
        <time>2026-08-27T09:32:18.307Z</time>
      </trkpt>
      <trkpt lat="47.84194" lon="6.97642">
        <ele>954</ele>
        <time>2026-08-27T09:32:20.228Z</time>
      </trkpt>
      <trkpt lat="47.84194" lon="6.97644">
        <ele>953.6</ele>
        <time>2026-08-27T09:32:21.236Z</time>
      </trkpt>
      <trkpt lat="47.84194" lon="6.97645">
        <ele>953.6</ele>
        <time>2026-08-27T09:32:22.244Z</time>
      </trkpt>
      <trkpt lat="47.84193" lon="6.97647">
        <ele>953.8</ele>
        <time>2026-08-27T09:32:23.255Z</time>
      </trkpt>
      <trkpt lat="47.84193" lon="6.97649">
        <ele>953.2</ele>
        <time>2026-08-27T09:32:24.264Z</time>
      </trkpt>
      <trkpt lat="47.84192" lon="6.97652">
        <ele>953.4</ele>
        <time>2026-08-27T09:32:26.184Z</time>
      </trkpt>
      <trkpt lat="47.84192" lon="6.97654">
        <ele>953.5</ele>
        <time>2026-08-27T09:32:27.211Z</time>
      </trkpt>
      <trkpt lat="47.84191" lon="6.97658">
        <ele>953.2</ele>
        <time>2026-08-27T09:32:29.204Z</time>
      </trkpt>
      <trkpt lat="47.84191" lon="6.97662">
        <ele>953.2</ele>
        <time>2026-08-27T09:32:31.324Z</time>
      </trkpt>
      <trkpt lat="47.84191" lon="6.97665">
        <ele>952.6</ele>
        <time>2026-08-27T09:32:33.236Z</time>
      </trkpt>
      <trkpt lat="47.84191" lon="6.97666">
        <ele>952</ele>
        <time>2026-08-27T09:32:34.243Z</time>
      </trkpt>
      <trkpt lat="47.84192" lon="6.97667">
        <ele>952.2</ele>
        <time>2026-08-27T09:32:35.252Z</time>
      </trkpt>
      <trkpt lat="47.84193" lon="6.9767">
        <ele>952.2</ele>
        <time>2026-08-27T09:32:37.187Z</time>
      </trkpt>
      <trkpt lat="47.84193" lon="6.97671">
        <ele>952.2</ele>
        <time>2026-08-27T09:32:38.276Z</time>
      </trkpt>
      <trkpt lat="47.84193" lon="6.97674">
        <ele>951.3</ele>
        <time>2026-08-27T09:32:40.304Z</time>
      </trkpt>
      <trkpt lat="47.84194" lon="6.97676">
        <ele>950.9</ele>
        <time>2026-08-27T09:32:42.212Z</time>
      </trkpt>
      <trkpt lat="47.84195" lon="6.97678">
        <ele>950.7</ele>
        <time>2026-08-27T09:32:43.220Z</time>
      </trkpt>
      <trkpt lat="47.84195" lon="6.97682">
        <ele>950.4</ele>
        <time>2026-08-27T09:32:45.253Z</time>
      </trkpt>
      <trkpt lat="47.84194" lon="6.97685">
        <ele>949.8</ele>
        <time>2026-08-27T09:32:47.251Z</time>
      </trkpt>
      <trkpt lat="47.84193" lon="6.97689">
        <ele>949.6</ele>
        <time>2026-08-27T09:32:49.267Z</time>
      </trkpt>
      <trkpt lat="47.84192" lon="6.97691">
        <ele>949.3</ele>
        <time>2026-08-27T09:32:51.183Z</time>
      </trkpt>
      <trkpt lat="47.84191" lon="6.97693">
        <ele>949</ele>
        <time>2026-08-27T09:32:52.191Z</time>
      </trkpt>
      <trkpt lat="47.84189" lon="6.97696">
        <ele>949</ele>
        <time>2026-08-27T09:32:54.207Z</time>
      </trkpt>
      <trkpt lat="47.84188" lon="6.97698">
        <ele>948.9</ele>
        <time>2026-08-27T09:32:55.216Z</time>
      </trkpt>
      <trkpt lat="47.84187" lon="6.977">
        <ele>949</ele>
        <time>2026-08-27T09:32:56.223Z</time>
      </trkpt>
      <trkpt lat="47.84185" lon="6.97701">
        <ele>948.9</ele>
        <time>2026-08-27T09:32:57.231Z</time>
      </trkpt>
      <trkpt lat="47.84185" lon="6.97703">
        <ele>948.8</ele>
        <time>2026-08-27T09:32:58.240Z</time>
      </trkpt>
      <trkpt lat="47.84184" lon="6.97704">
        <ele>948.8</ele>
        <time>2026-08-27T09:32:59.247Z</time>
      </trkpt>
      <trkpt lat="47.84183" lon="6.97708">
        <ele>948.3</ele>
        <time>2026-08-27T09:33:01.221Z</time>
      </trkpt>
      <trkpt lat="47.84182" lon="6.97711">
        <ele>948.1</ele>
        <time>2026-08-27T09:33:03.178Z</time>
      </trkpt>
      <trkpt lat="47.84181" lon="6.97712">
        <ele>948.1</ele>
        <time>2026-08-27T09:33:04.220Z</time>
      </trkpt>
      <trkpt lat="47.8418" lon="6.97716">
        <ele>948.3</ele>
        <time>2026-08-27T09:33:06.204Z</time>
      </trkpt>
      <trkpt lat="47.84179" lon="6.97718">
        <ele>948.2</ele>
        <time>2026-08-27T09:33:07.211Z</time>
      </trkpt>
      <trkpt lat="47.84179" lon="6.97719">
        <ele>947.9</ele>
        <time>2026-08-27T09:33:08.219Z</time>
      </trkpt>
      <trkpt lat="47.84178" lon="6.97721">
        <ele>947.9</ele>
        <time>2026-08-27T09:33:09.227Z</time>
      </trkpt>
      <trkpt lat="47.84177" lon="6.97724">
        <ele>947.8</ele>
        <time>2026-08-27T09:33:11.244Z</time>
      </trkpt>
      <trkpt lat="47.84177" lon="6.97725">
        <ele>947.6</ele>
        <time>2026-08-27T09:33:12.251Z</time>
      </trkpt>
      <trkpt lat="47.84177" lon="6.97729">
        <ele>947.5</ele>
        <time>2026-08-27T09:33:14.267Z</time>
      </trkpt>
      <trkpt lat="47.84176" lon="6.97733">
        <ele>947.4</ele>
        <time>2026-08-27T09:33:16.182Z</time>
      </trkpt>
      <trkpt lat="47.84176" lon="6.97735">
        <ele>947.3</ele>
        <time>2026-08-27T09:33:17.190Z</time>
      </trkpt>
      <trkpt lat="47.84176" lon="6.97736">
        <ele>947.3</ele>
        <time>2026-08-27T09:33:18.198Z</time>
      </trkpt>
      <trkpt lat="47.84176" lon="6.97738">
        <ele>947.3</ele>
        <time>2026-08-27T09:33:19.207Z</time>
      </trkpt>
      <trkpt lat="47.84175" lon="6.97739">
        <ele>947.2</ele>
        <time>2026-08-27T09:33:20.216Z</time>
      </trkpt>
      <trkpt lat="47.84175" lon="6.97741">
        <ele>947.3</ele>
        <time>2026-08-27T09:33:21.223Z</time>
      </trkpt>
      <trkpt lat="47.84175" lon="6.97743">
        <ele>946.8</ele>
        <time>2026-08-27T09:33:22.232Z</time>
      </trkpt>
      <trkpt lat="47.84176" lon="6.97744">
        <ele>947.1</ele>
        <time>2026-08-27T09:33:23.281Z</time>
      </trkpt>
      <trkpt lat="47.84177" lon="6.97745">
        <ele>947.4</ele>
        <time>2026-08-27T09:33:25.322Z</time>
      </trkpt>
      <trkpt lat="47.84178" lon="6.97746">
        <ele>947.2</ele>
        <time>2026-08-27T09:33:27.272Z</time>
      </trkpt>
      <trkpt lat="47.84178" lon="6.97746">
        <ele>947.3</ele>
        <time>2026-08-27T09:33:28.279Z</time>
      </trkpt>
      <trkpt lat="47.84178" lon="6.97746">
        <ele>946.8</ele>
        <time>2026-08-27T09:33:29.287Z</time>
      </trkpt>
      <trkpt lat="47.84178" lon="6.97747">
        <ele>947</ele>
        <time>2026-08-27T09:33:31.202Z</time>
      </trkpt>
      <trkpt lat="47.84178" lon="6.97747">
        <ele>946.8</ele>
        <time>2026-08-27T09:33:33.219Z</time>
      </trkpt>
      <trkpt lat="47.84178" lon="6.97747">
        <ele>946.6</ele>
        <time>2026-08-27T09:33:34.228Z</time>
      </trkpt>
      <trkpt lat="47.84178" lon="6.97748">
        <ele>947</ele>
        <time>2026-08-27T09:33:35.235Z</time>
      </trkpt>
      <trkpt lat="47.84177" lon="6.97752">
        <ele>946.8</ele>
        <time>2026-08-27T09:33:37.252Z</time>
      </trkpt>
      <trkpt lat="47.84177" lon="6.97757">
        <ele>946.8</ele>
        <time>2026-08-27T09:33:39.099Z</time>
      </trkpt>
      <trkpt lat="47.84177" lon="6.97761">
        <ele>946.4</ele>
        <time>2026-08-27T09:33:40.202Z</time>
      </trkpt>
      <trkpt lat="47.84176" lon="6.97766">
        <ele>946.5</ele>
        <time>2026-08-27T09:33:42.190Z</time>
      </trkpt>
      <trkpt lat="47.84175" lon="6.97769">
        <ele>946.3</ele>
        <time>2026-08-27T09:33:43.199Z</time>
      </trkpt>
      <trkpt lat="47.84175" lon="6.97771">
        <ele>946.3</ele>
        <time>2026-08-27T09:33:44.207Z</time>
      </trkpt>
      <trkpt lat="47.84175" lon="6.97773">
        <ele>946.4</ele>
        <time>2026-08-27T09:33:45.214Z</time>
      </trkpt>
      <trkpt lat="47.84176" lon="6.97775">
        <ele>946.4</ele>
        <time>2026-08-27T09:33:46.248Z</time>
      </trkpt>
      <trkpt lat="47.84177" lon="6.97779">
        <ele>946.5</ele>
        <time>2026-08-27T09:33:48.239Z</time>
      </trkpt>
      <trkpt lat="47.84177" lon="6.97781">
        <ele>946.6</ele>
        <time>2026-08-27T09:33:49.247Z</time>
      </trkpt>
      <trkpt lat="47.84178" lon="6.97783">
        <ele>946.6</ele>
        <time>2026-08-27T09:33:50.255Z</time>
      </trkpt>
      <trkpt lat="47.8418" lon="6.97786">
        <ele>946.4</ele>
        <time>2026-08-27T09:33:52.171Z</time>
      </trkpt>
      <trkpt lat="47.84181" lon="6.97788">
        <ele>946.7</ele>
        <time>2026-08-27T09:33:53.178Z</time>
      </trkpt>
      <trkpt lat="47.84181" lon="6.97791">
        <ele>946.4</ele>
        <time>2026-08-27T09:33:55.253Z</time>
      </trkpt>
      <trkpt lat="47.84182" lon="6.97794">
        <ele>946.3</ele>
        <time>2026-08-27T09:33:57.151Z</time>
      </trkpt>
      <trkpt lat="47.84183" lon="6.97796">
        <ele>945.8</ele>
        <time>2026-08-27T09:33:58.218Z</time>
      </trkpt>
      <trkpt lat="47.84183" lon="6.97799">
        <ele>945.5</ele>
        <time>2026-08-27T09:33:59.227Z</time>
      </trkpt>
      <trkpt lat="47.84184" lon="6.97801">
        <ele>945.9</ele>
        <time>2026-08-27T09:34:00.234Z</time>
      </trkpt>
      <trkpt lat="47.84184" lon="6.97803">
        <ele>945.6</ele>
        <time>2026-08-27T09:34:01.244Z</time>
      </trkpt>
      <trkpt lat="47.84184" lon="6.97804">
        <ele>945.7</ele>
        <time>2026-08-27T09:34:02.252Z</time>
      </trkpt>
      <trkpt lat="47.84185" lon="6.97807">
        <ele>945.5</ele>
        <time>2026-08-27T09:34:04.183Z</time>
      </trkpt>
      <trkpt lat="47.84185" lon="6.97809">
        <ele>945.9</ele>
        <time>2026-08-27T09:34:05.183Z</time>
      </trkpt>
      <trkpt lat="47.84184" lon="6.9781">
        <ele>945.8</ele>
        <time>2026-08-27T09:34:06.190Z</time>
      </trkpt>
      <trkpt lat="47.84183" lon="6.97813">
        <ele>945.8</ele>
        <time>2026-08-27T09:34:08.265Z</time>
      </trkpt>
      <trkpt lat="47.84182" lon="6.97814">
        <ele>946.2</ele>
        <time>2026-08-27T09:34:10.223Z</time>
      </trkpt>
      <trkpt lat="47.84182" lon="6.97815">
        <ele>946.5</ele>
        <time>2026-08-27T09:34:11.231Z</time>
      </trkpt>
      <trkpt lat="47.84182" lon="6.97815">
        <ele>946.3</ele>
        <time>2026-08-27T09:34:12.239Z</time>
      </trkpt>
      <trkpt lat="47.84182" lon="6.97815">
        <ele>946.5</ele>
        <time>2026-08-27T09:34:13.247Z</time>
      </trkpt>
      <trkpt lat="47.84182" lon="6.97814">
        <ele>946.3</ele>
        <time>2026-08-27T09:34:14.256Z</time>
      </trkpt>
      <trkpt lat="47.84182" lon="6.97813">
        <ele>946.4</ele>
        <time>2026-08-27T09:34:16.170Z</time>
      </trkpt>
      <trkpt lat="47.84182" lon="6.97813">
        <ele>946.6</ele>
        <time>2026-08-27T09:34:17.245Z</time>
      </trkpt>
      <trkpt lat="47.84182" lon="6.97813">
        <ele>946.6</ele>
        <time>2026-08-27T09:34:19.194Z</time>
      </trkpt>
      <trkpt lat="47.84181" lon="6.97813">
        <ele>946.7</ele>
        <time>2026-08-27T09:34:20.203Z</time>
      </trkpt>
      <trkpt lat="47.84181" lon="6.97813">
        <ele>947.1</ele>
        <time>2026-08-27T09:34:21.210Z</time>
      </trkpt>
      <trkpt lat="47.84181" lon="6.97814">
        <ele>947.3</ele>
        <time>2026-08-27T09:34:22.219Z</time>
      </trkpt>
      <trkpt lat="47.84182" lon="6.97814">
        <ele>947.8</ele>
        <time>2026-08-27T09:34:23.227Z</time>
      </trkpt>
      <trkpt lat="47.84182" lon="6.97815">
        <ele>947.6</ele>
        <time>2026-08-27T09:34:24.235Z</time>
      </trkpt>
      <trkpt lat="47.84181" lon="6.97815">
        <ele>947.6</ele>
        <time>2026-08-27T09:34:25.243Z</time>
      </trkpt>
      <trkpt lat="47.84181" lon="6.97815">
        <ele>947.7</ele>
        <time>2026-08-27T09:34:26.252Z</time>
      </trkpt>
      <trkpt lat="47.8418" lon="6.97816">
        <ele>947.3</ele>
        <time>2026-08-27T09:34:28.267Z</time>
      </trkpt>
      <trkpt lat="47.8418" lon="6.97816">
        <ele>947.4</ele>
        <time>2026-08-27T09:34:30.182Z</time>
      </trkpt>
      <trkpt lat="47.8418" lon="6.97816">
        <ele>947.5</ele>
        <time>2026-08-27T09:34:31.191Z</time>
      </trkpt>
      <trkpt lat="47.8418" lon="6.97816">
        <ele>947.5</ele>
        <time>2026-08-27T09:34:32.198Z</time>
      </trkpt>
      <trkpt lat="47.8418" lon="6.97816">
        <ele>947.6</ele>
        <time>2026-08-27T09:34:33.207Z</time>
      </trkpt>
      <trkpt lat="47.8418" lon="6.97816">
        <ele>947.7</ele>
        <time>2026-08-27T09:34:34.214Z</time>
      </trkpt>
      <trkpt lat="47.8418" lon="6.97817">
        <ele>947.5</ele>
        <time>2026-08-27T09:34:35.222Z</time>
      </trkpt>
      <trkpt lat="47.8418" lon="6.97817">
        <ele>947.8</ele>
        <time>2026-08-27T09:34:37.239Z</time>
      </trkpt>
      <trkpt lat="47.8418" lon="6.97817">
        <ele>947.7</ele>
        <time>2026-08-27T09:34:38.247Z</time>
      </trkpt>
      <trkpt lat="47.8418" lon="6.97818">
        <ele>948.1</ele>
        <time>2026-08-27T09:34:40.263Z</time>
      </trkpt>
      <trkpt lat="47.8418" lon="6.97822">
        <ele>948.1</ele>
        <time>2026-08-27T09:34:42.262Z</time>
      </trkpt>
      <trkpt lat="47.8418" lon="6.97825">
        <ele>948.3</ele>
        <time>2026-08-27T09:34:44.296Z</time>
      </trkpt>
      <trkpt lat="47.8418" lon="6.97829">
        <ele>948.7</ele>
        <time>2026-08-27T09:34:46.210Z</time>
      </trkpt>
      <trkpt lat="47.8418" lon="6.9783">
        <ele>948.6</ele>
        <time>2026-08-27T09:34:47.218Z</time>
      </trkpt>
      <trkpt lat="47.8418" lon="6.97833">
        <ele>948.7</ele>
        <time>2026-08-27T09:34:49.235Z</time>
      </trkpt>
      <trkpt lat="47.84179" lon="6.97833">
        <ele>948.9</ele>
        <time>2026-08-27T09:34:50.243Z</time>
      </trkpt>
      <trkpt lat="47.84179" lon="6.97834">
        <ele>948.9</ele>
        <time>2026-08-27T09:34:51.251Z</time>
      </trkpt>
      <trkpt lat="47.84179" lon="6.97834">
        <ele>949</ele>
        <time>2026-08-27T09:34:52.259Z</time>
      </trkpt>
      <trkpt lat="47.84179" lon="6.97833">
        <ele>948.3</ele>
        <time>2026-08-27T09:34:54.174Z</time>
      </trkpt>
      <trkpt lat="47.84179" lon="6.97834">
        <ele>948.2</ele>
        <time>2026-08-27T09:34:55.283Z</time>
      </trkpt>
      <trkpt lat="47.84179" lon="6.97834">
        <ele>948.2</ele>
        <time>2026-08-27T09:34:56.291Z</time>
      </trkpt>
      <trkpt lat="47.8418" lon="6.97835">
        <ele>948.2</ele>
        <time>2026-08-27T09:34:57.299Z</time>
      </trkpt>
      <trkpt lat="47.8418" lon="6.97837">
        <ele>948.1</ele>
        <time>2026-08-27T09:34:59.206Z</time>
      </trkpt>
      <trkpt lat="47.8418" lon="6.97838">
        <ele>948.3</ele>
        <time>2026-08-27T09:35:00.231Z</time>
      </trkpt>
      <trkpt lat="47.8418" lon="6.97839">
        <ele>948.3</ele>
        <time>2026-08-27T09:35:01.239Z</time>
      </trkpt>
      <trkpt lat="47.8418" lon="6.97839">
        <ele>948.2</ele>
        <time>2026-08-27T09:35:02.247Z</time>
      </trkpt>
      <trkpt lat="47.8418" lon="6.9784">
        <ele>948</ele>
        <time>2026-08-27T09:35:03.255Z</time>
      </trkpt>
      <trkpt lat="47.8418" lon="6.97841">
        <ele>948.2</ele>
        <time>2026-08-27T09:35:04.263Z</time>
      </trkpt>
      <trkpt lat="47.8418" lon="6.97843">
        <ele>948.3</ele>
        <time>2026-08-27T09:35:06.112Z</time>
      </trkpt>
      <trkpt lat="47.84179" lon="6.97845">
        <ele>948.5</ele>
        <time>2026-08-27T09:35:07.186Z</time>
      </trkpt>
      <trkpt lat="47.84178" lon="6.97848">
        <ele>949.1</ele>
        <time>2026-08-27T09:35:09.202Z</time>
      </trkpt>
      <trkpt lat="47.84177" lon="6.9785">
        <ele>948.9</ele>
        <time>2026-08-27T09:35:11.219Z</time>
      </trkpt>
      <trkpt lat="47.84176" lon="6.97853">
        <ele>949.4</ele>
        <time>2026-08-27T09:35:13.235Z</time>
      </trkpt>
      <trkpt lat="47.84175" lon="6.97854">
        <ele>949.4</ele>
        <time>2026-08-27T09:35:14.252Z</time>
      </trkpt>
      <trkpt lat="47.84174" lon="6.97857">
        <ele>949.7</ele>
        <time>2026-08-27T09:35:16.158Z</time>
      </trkpt>
      <trkpt lat="47.84174" lon="6.97858">
        <ele>949.7</ele>
        <time>2026-08-27T09:35:17.167Z</time>
      </trkpt>
      <trkpt lat="47.84173" lon="6.97859">
        <ele>949.8</ele>
        <time>2026-08-27T09:35:18.174Z</time>
      </trkpt>
      <trkpt lat="47.84173" lon="6.9786">
        <ele>949.9</ele>
        <time>2026-08-27T09:35:19.182Z</time>
      </trkpt>
      <trkpt lat="47.84172" lon="6.97862">
        <ele>950</ele>
        <time>2026-08-27T09:35:20.190Z</time>
      </trkpt>
      <trkpt lat="47.84172" lon="6.97863">
        <ele>950</ele>
        <time>2026-08-27T09:35:21.215Z</time>
      </trkpt>
      <trkpt lat="47.84172" lon="6.97864">
        <ele>949.7</ele>
        <time>2026-08-27T09:35:23.214Z</time>
      </trkpt>
      <trkpt lat="47.84172" lon="6.97865">
        <ele>949.6</ele>
        <time>2026-08-27T09:35:24.222Z</time>
      </trkpt>
      <trkpt lat="47.84172" lon="6.97866">
        <ele>949.8</ele>
        <time>2026-08-27T09:35:25.231Z</time>
      </trkpt>
      <trkpt lat="47.84172" lon="6.97867">
        <ele>949.9</ele>
        <time>2026-08-27T09:35:26.240Z</time>
      </trkpt>
      <trkpt lat="47.84172" lon="6.97868">
        <ele>950</ele>
        <time>2026-08-27T09:35:27.247Z</time>
      </trkpt>
      <trkpt lat="47.84172" lon="6.97869">
        <ele>950.3</ele>
        <time>2026-08-27T09:35:28.256Z</time>
      </trkpt>
      <trkpt lat="47.84172" lon="6.9787">
        <ele>950.6</ele>
        <time>2026-08-27T09:35:29.264Z</time>
      </trkpt>
      <trkpt lat="47.84171" lon="6.97872">
        <ele>950</ele>
        <time>2026-08-27T09:35:31.279Z</time>
      </trkpt>
      <trkpt lat="47.84171" lon="6.97874">
        <ele>951</ele>
        <time>2026-08-27T09:35:33.195Z</time>
      </trkpt>
      <trkpt lat="47.84171" lon="6.97875">
        <ele>951</ele>
        <time>2026-08-27T09:35:34.202Z</time>
      </trkpt>
      <trkpt lat="47.8417" lon="6.97877">
        <ele>951.3</ele>
        <time>2026-08-27T09:35:36.219Z</time>
      </trkpt>
      <trkpt lat="47.8417" lon="6.97878">
        <ele>951.6</ele>
        <time>2026-08-27T09:35:37.227Z</time>
      </trkpt>
      <trkpt lat="47.84169" lon="6.97878">
        <ele>951.9</ele>
        <time>2026-08-27T09:35:38.234Z</time>
      </trkpt>
      <trkpt lat="47.84169" lon="6.97879">
        <ele>951.8</ele>
        <time>2026-08-27T09:35:39.243Z</time>
      </trkpt>
      <trkpt lat="47.84169" lon="6.97881">
        <ele>951.5</ele>
        <time>2026-08-27T09:35:41.259Z</time>
      </trkpt>
      <trkpt lat="47.84168" lon="6.97881">
        <ele>951.9</ele>
        <time>2026-08-27T09:35:42.267Z</time>
      </trkpt>
      <trkpt lat="47.84168" lon="6.97882">
        <ele>951.9</ele>
        <time>2026-08-27T09:35:43.291Z</time>
      </trkpt>
      <trkpt lat="47.84168" lon="6.97885">
        <ele>951.8</ele>
        <time>2026-08-27T09:35:45.190Z</time>
      </trkpt>
      <trkpt lat="47.84168" lon="6.97887">
        <ele>951.8</ele>
        <time>2026-08-27T09:35:46.216Z</time>
      </trkpt>
      <trkpt lat="47.84167" lon="6.97889">
        <ele>952</ele>
        <time>2026-08-27T09:35:48.215Z</time>
      </trkpt>
      <trkpt lat="47.84167" lon="6.97891">
        <ele>952</ele>
        <time>2026-08-27T09:35:49.231Z</time>
      </trkpt>
      <trkpt lat="47.84166" lon="6.97893">
        <ele>952</ele>
        <time>2026-08-27T09:35:51.239Z</time>
      </trkpt>
      <trkpt lat="47.84166" lon="6.97894">
        <ele>951.6</ele>
        <time>2026-08-27T09:35:52.246Z</time>
      </trkpt>
      <trkpt lat="47.84165" lon="6.97895">
        <ele>951.7</ele>
        <time>2026-08-27T09:35:53.254Z</time>
      </trkpt>
      <trkpt lat="47.84165" lon="6.97896">
        <ele>951.8</ele>
        <time>2026-08-27T09:35:55.195Z</time>
      </trkpt>
      <trkpt lat="47.84165" lon="6.97897">
        <ele>952</ele>
        <time>2026-08-27T09:35:56.280Z</time>
      </trkpt>
      <trkpt lat="47.84165" lon="6.979">
        <ele>952.5</ele>
        <time>2026-08-27T09:35:58.194Z</time>
      </trkpt>
      <trkpt lat="47.84165" lon="6.97901">
        <ele>952.2</ele>
        <time>2026-08-27T09:35:59.304Z</time>
      </trkpt>
      <trkpt lat="47.84164" lon="6.97904">
        <ele>952.1</ele>
        <time>2026-08-27T09:36:01.218Z</time>
      </trkpt>
      <trkpt lat="47.84164" lon="6.97905">
        <ele>952.2</ele>
        <time>2026-08-27T09:36:02.226Z</time>
      </trkpt>
      <trkpt lat="47.84163" lon="6.97907">
        <ele>952.5</ele>
        <time>2026-08-27T09:36:04.242Z</time>
      </trkpt>
      <trkpt lat="47.84163" lon="6.97908">
        <ele>953.1</ele>
        <time>2026-08-27T09:36:06.258Z</time>
      </trkpt>
      <trkpt lat="47.84163" lon="6.97909">
        <ele>953.2</ele>
        <time>2026-08-27T09:36:07.266Z</time>
      </trkpt>
      <trkpt lat="47.84163" lon="6.9791">
        <ele>952.8</ele>
        <time>2026-08-27T09:36:09.182Z</time>
      </trkpt>
      <trkpt lat="47.84163" lon="6.97911">
        <ele>953</ele>
        <time>2026-08-27T09:36:10.191Z</time>
      </trkpt>
      <trkpt lat="47.84163" lon="6.97912">
        <ele>953.4</ele>
        <time>2026-08-27T09:36:11.199Z</time>
      </trkpt>
      <trkpt lat="47.84163" lon="6.97914">
        <ele>953.8</ele>
        <time>2026-08-27T09:36:13.215Z</time>
      </trkpt>
      <trkpt lat="47.84163" lon="6.97914">
        <ele>953.9</ele>
        <time>2026-08-27T09:36:14.223Z</time>
      </trkpt>
      <trkpt lat="47.84163" lon="6.97915">
        <ele>953.6</ele>
        <time>2026-08-27T09:36:15.230Z</time>
      </trkpt>
      <trkpt lat="47.84163" lon="6.97916">
        <ele>953.6</ele>
        <time>2026-08-27T09:36:16.255Z</time>
      </trkpt>
      <trkpt lat="47.84163" lon="6.97918">
        <ele>954.4</ele>
        <time>2026-08-27T09:36:18.153Z</time>
      </trkpt>
      <trkpt lat="47.84163" lon="6.97918">
        <ele>954.5</ele>
        <time>2026-08-27T09:36:19.262Z</time>
      </trkpt>
      <trkpt lat="47.84162" lon="6.97918">
        <ele>954.5</ele>
        <time>2026-08-27T09:36:20.271Z</time>
      </trkpt>
      <trkpt lat="47.84162" lon="6.97918">
        <ele>954.7</ele>
        <time>2026-08-27T09:36:22.186Z</time>
      </trkpt>
      <trkpt lat="47.84162" lon="6.97919">
        <ele>955.1</ele>
        <time>2026-08-27T09:36:24.202Z</time>
      </trkpt>
      <trkpt lat="47.84162" lon="6.97919">
        <ele>955.3</ele>
        <time>2026-08-27T09:36:25.210Z</time>
      </trkpt>
      <trkpt lat="47.84162" lon="6.97921">
        <ele>955.3</ele>
        <time>2026-08-27T09:36:26.251Z</time>
      </trkpt>
      <trkpt lat="47.84161" lon="6.97923">
        <ele>955.6</ele>
        <time>2026-08-27T09:36:28.235Z</time>
      </trkpt>
      <trkpt lat="47.84161" lon="6.97924">
        <ele>955.4</ele>
        <time>2026-08-27T09:36:29.243Z</time>
      </trkpt>
      <trkpt lat="47.84161" lon="6.97924">
        <ele>955.7</ele>
        <time>2026-08-27T09:36:30.250Z</time>
      </trkpt>
      <trkpt lat="47.84161" lon="6.97924">
        <ele>955.7</ele>
        <time>2026-08-27T09:36:31.259Z</time>
      </trkpt>
      <trkpt lat="47.84161" lon="6.97925">
        <ele>956.2</ele>
        <time>2026-08-27T09:36:32.266Z</time>
      </trkpt>
      <trkpt lat="47.84161" lon="6.97925">
        <ele>956.2</ele>
        <time>2026-08-27T09:36:33.274Z</time>
      </trkpt>
      <trkpt lat="47.8416" lon="6.97925">
        <ele>956.7</ele>
        <time>2026-08-27T09:36:35.189Z</time>
      </trkpt>
      <trkpt lat="47.8416" lon="6.97926">
        <ele>956.9</ele>
        <time>2026-08-27T09:36:36.199Z</time>
      </trkpt>
      <trkpt lat="47.8416" lon="6.97926">
        <ele>957</ele>
        <time>2026-08-27T09:36:37.206Z</time>
      </trkpt>
      <trkpt lat="47.84159" lon="6.97927">
        <ele>956.8</ele>
        <time>2026-08-27T09:36:38.215Z</time>
      </trkpt>
      <trkpt lat="47.84158" lon="6.97928">
        <ele>956.9</ele>
        <time>2026-08-27T09:36:39.222Z</time>
      </trkpt>
      <trkpt lat="47.84157" lon="6.97929">
        <ele>957.3</ele>
        <time>2026-08-27T09:36:40.231Z</time>
      </trkpt>
      <trkpt lat="47.84156" lon="6.97931">
        <ele>957.7</ele>
        <time>2026-08-27T09:36:42.247Z</time>
      </trkpt>
      <trkpt lat="47.84156" lon="6.97932">
        <ele>957.8</ele>
        <time>2026-08-27T09:36:43.255Z</time>
      </trkpt>
      <trkpt lat="47.84156" lon="6.97933">
        <ele>957.7</ele>
        <time>2026-08-27T09:36:44.262Z</time>
      </trkpt>
      <trkpt lat="47.84155" lon="6.97934">
        <ele>958.2</ele>
        <time>2026-08-27T09:36:46.278Z</time>
      </trkpt>
      <trkpt lat="47.84155" lon="6.97934">
        <ele>958.3</ele>
        <time>2026-08-27T09:36:47.287Z</time>
      </trkpt>
      <trkpt lat="47.84155" lon="6.97936">
        <ele>958.3</ele>
        <time>2026-08-27T09:36:49.270Z</time>
      </trkpt>
      <trkpt lat="47.84154" lon="6.97939">
        <ele>957.9</ele>
        <time>2026-08-27T09:36:51.219Z</time>
      </trkpt>
      <trkpt lat="47.84154" lon="6.9794">
        <ele>958</ele>
        <time>2026-08-27T09:36:52.226Z</time>
      </trkpt>
      <trkpt lat="47.84153" lon="6.97942">
        <ele>958</ele>
        <time>2026-08-27T09:36:53.235Z</time>
      </trkpt>
      <trkpt lat="47.84153" lon="6.97943">
        <ele>958</ele>
        <time>2026-08-27T09:36:54.242Z</time>
      </trkpt>
      <trkpt lat="47.84153" lon="6.97944">
        <ele>958.3</ele>
        <time>2026-08-27T09:36:55.250Z</time>
      </trkpt>
      <trkpt lat="47.84152" lon="6.97946">
        <ele>958</ele>
        <time>2026-08-27T09:36:57.165Z</time>
      </trkpt>
      <trkpt lat="47.84152" lon="6.97947">
        <ele>957.6</ele>
        <time>2026-08-27T09:36:58.275Z</time>
      </trkpt>
      <trkpt lat="47.84152" lon="6.97949">
        <ele>958.2</ele>
        <time>2026-08-27T09:37:00.189Z</time>
      </trkpt>
      <trkpt lat="47.84152" lon="6.97949">
        <ele>958.2</ele>
        <time>2026-08-27T09:37:01.231Z</time>
      </trkpt>
      <trkpt lat="47.84151" lon="6.97951">
        <ele>959.3</ele>
        <time>2026-08-27T09:37:03.214Z</time>
      </trkpt>
      <trkpt lat="47.84151" lon="6.97951">
        <ele>959.6</ele>
        <time>2026-08-27T09:37:04.221Z</time>
      </trkpt>
      <trkpt lat="47.8415" lon="6.97951">
        <ele>959.8</ele>
        <time>2026-08-27T09:37:05.229Z</time>
      </trkpt>
      <trkpt lat="47.8415" lon="6.97951">
        <ele>959.8</ele>
        <time>2026-08-27T09:37:06.237Z</time>
      </trkpt>
      <trkpt lat="47.8415" lon="6.97951">
        <ele>959.8</ele>
        <time>2026-08-27T09:37:07.254Z</time>
      </trkpt>
      <trkpt lat="47.8415" lon="6.97952">
        <ele>960.7</ele>
        <time>2026-08-27T09:37:09.262Z</time>
      </trkpt>
      <trkpt lat="47.8415" lon="6.97952">
        <ele>960.9</ele>
        <time>2026-08-27T09:37:10.271Z</time>
      </trkpt>
      <trkpt lat="47.8415" lon="6.97954">
        <ele>961.2</ele>
        <time>2026-08-27T09:37:12.109Z</time>
      </trkpt>
      <trkpt lat="47.84149" lon="6.97955">
        <ele>961.3</ele>
        <time>2026-08-27T09:37:13.194Z</time>
      </trkpt>
      <trkpt lat="47.84149" lon="6.97956">
        <ele>961.7</ele>
        <time>2026-08-27T09:37:14.201Z</time>
      </trkpt>
      <trkpt lat="47.84149" lon="6.97957">
        <ele>961.8</ele>
        <time>2026-08-27T09:37:15.209Z</time>
      </trkpt>
      <trkpt lat="47.84148" lon="6.97958">
        <ele>961.8</ele>
        <time>2026-08-27T09:37:16.234Z</time>
      </trkpt>
      <trkpt lat="47.84148" lon="6.9796">
        <ele>962</ele>
        <time>2026-08-27T09:37:18.234Z</time>
      </trkpt>
      <trkpt lat="47.84147" lon="6.9796">
        <ele>961.7</ele>
        <time>2026-08-27T09:37:19.241Z</time>
      </trkpt>
      <trkpt lat="47.84147" lon="6.97961">
        <ele>961.7</ele>
        <time>2026-08-27T09:37:20.249Z</time>
      </trkpt>
      <trkpt lat="47.84147" lon="6.97961">
        <ele>961.9</ele>
        <time>2026-08-27T09:37:21.257Z</time>
      </trkpt>
      <trkpt lat="47.84146" lon="6.97962">
        <ele>962</ele>
        <time>2026-08-27T09:37:22.266Z</time>
      </trkpt>
      <trkpt lat="47.84146" lon="6.97963">
        <ele>962.1</ele>
        <time>2026-08-27T09:37:23.274Z</time>
      </trkpt>
      <trkpt lat="47.84145" lon="6.97966">
        <ele>962.1</ele>
        <time>2026-08-27T09:37:25.290Z</time>
      </trkpt>
      <trkpt lat="47.84144" lon="6.97969">
        <ele>961.9</ele>
        <time>2026-08-27T09:37:27.205Z</time>
      </trkpt>
      <trkpt lat="47.84144" lon="6.9797">
        <ele>962.4</ele>
        <time>2026-08-27T09:37:28.213Z</time>
      </trkpt>
      <trkpt lat="47.84143" lon="6.97971">
        <ele>962.6</ele>
        <time>2026-08-27T09:37:29.221Z</time>
      </trkpt>
      <trkpt lat="47.84143" lon="6.97972">
        <ele>963</ele>
        <time>2026-08-27T09:37:30.229Z</time>
      </trkpt>
      <trkpt lat="47.84142" lon="6.97973">
        <ele>963</ele>
        <time>2026-08-27T09:37:31.237Z</time>
      </trkpt>
      <trkpt lat="47.84142" lon="6.97974">
        <ele>963.3</ele>
        <time>2026-08-27T09:37:32.245Z</time>
      </trkpt>
      <trkpt lat="47.84141" lon="6.97975">
        <ele>963.6</ele>
        <time>2026-08-27T09:37:33.254Z</time>
      </trkpt>
      <trkpt lat="47.8414" lon="6.97976">
        <ele>963.4</ele>
        <time>2026-08-27T09:37:34.261Z</time>
      </trkpt>
      <trkpt lat="47.84139" lon="6.97978">
        <ele>963.4</ele>
        <time>2026-08-27T09:37:36.277Z</time>
      </trkpt>
      <trkpt lat="47.84138" lon="6.9798">
        <ele>963.3</ele>
        <time>2026-08-27T09:37:38.176Z</time>
      </trkpt>
      <trkpt lat="47.84137" lon="6.9798">
        <ele>963.9</ele>
        <time>2026-08-27T09:37:39.201Z</time>
      </trkpt>
      <trkpt lat="47.84136" lon="6.97981">
        <ele>964</ele>
        <time>2026-08-27T09:37:40.209Z</time>
      </trkpt>
      <trkpt lat="47.84135" lon="6.97981">
        <ele>963.9</ele>
        <time>2026-08-27T09:37:42.225Z</time>
      </trkpt>
      <trkpt lat="47.84134" lon="6.97982">
        <ele>964</ele>
        <time>2026-08-27T09:37:43.233Z</time>
      </trkpt>
      <trkpt lat="47.84133" lon="6.97982">
        <ele>964</ele>
        <time>2026-08-27T09:37:44.249Z</time>
      </trkpt>
      <trkpt lat="47.84133" lon="6.97982">
        <ele>964.2</ele>
        <time>2026-08-27T09:37:45.250Z</time>
      </trkpt>
      <trkpt lat="47.84132" lon="6.97984">
        <ele>964.2</ele>
        <time>2026-08-27T09:37:47.266Z</time>
      </trkpt>
      <trkpt lat="47.84132" lon="6.97986">
        <ele>964.1</ele>
        <time>2026-08-27T09:37:49.180Z</time>
      </trkpt>
      <trkpt lat="47.84131" lon="6.97987">
        <ele>964.1</ele>
        <time>2026-08-27T09:37:50.188Z</time>
      </trkpt>
      <trkpt lat="47.84131" lon="6.97988">
        <ele>964.4</ele>
        <time>2026-08-27T09:37:51.197Z</time>
      </trkpt>
      <trkpt lat="47.84131" lon="6.97989">
        <ele>964.7</ele>
        <time>2026-08-27T09:37:53.213Z</time>
      </trkpt>
      <trkpt lat="47.84131" lon="6.97989">
        <ele>964.9</ele>
        <time>2026-08-27T09:37:54.222Z</time>
      </trkpt>
      <trkpt lat="47.84131" lon="6.9799">
        <ele>964.9</ele>
        <time>2026-08-27T09:37:55.255Z</time>
      </trkpt>
      <trkpt lat="47.8413" lon="6.97991">
        <ele>965</ele>
        <time>2026-08-27T09:37:57.245Z</time>
      </trkpt>
      <trkpt lat="47.8413" lon="6.97991">
        <ele>965.3</ele>
        <time>2026-08-27T09:37:58.253Z</time>
      </trkpt>
      <trkpt lat="47.84129" lon="6.97992">
        <ele>965.6</ele>
        <time>2026-08-27T09:37:59.261Z</time>
      </trkpt>
      <trkpt lat="47.84128" lon="6.97994">
        <ele>965.9</ele>
        <time>2026-08-27T09:38:01.176Z</time>
      </trkpt>
      <trkpt lat="47.84128" lon="6.97995">
        <ele>965.9</ele>
        <time>2026-08-27T09:38:02.252Z</time>
      </trkpt>
      <trkpt lat="47.84126" lon="6.97996">
        <ele>966.4</ele>
        <time>2026-08-27T09:38:04.200Z</time>
      </trkpt>
      <trkpt lat="47.84125" lon="6.97998">
        <ele>966.4</ele>
        <time>2026-08-27T09:38:05.208Z</time>
      </trkpt>
      <trkpt lat="47.84124" lon="6.97999">
        <ele>966.3</ele>
        <time>2026-08-27T09:38:06.217Z</time>
      </trkpt>
      <trkpt lat="47.84124" lon="6.98">
        <ele>966.6</ele>
        <time>2026-08-27T09:38:07.224Z</time>
      </trkpt>
      <trkpt lat="47.84123" lon="6.98001">
        <ele>966.9</ele>
        <time>2026-08-27T09:38:08.232Z</time>
      </trkpt>
      <trkpt lat="47.84122" lon="6.98002">
        <ele>966.9</ele>
        <time>2026-08-27T09:38:09.241Z</time>
      </trkpt>
      <trkpt lat="47.84122" lon="6.98003">
        <ele>967</ele>
        <time>2026-08-27T09:38:10.250Z</time>
      </trkpt>
      <trkpt lat="47.84121" lon="6.98004">
        <ele>966.9</ele>
        <time>2026-08-27T09:38:11.257Z</time>
      </trkpt>
      <trkpt lat="47.8412" lon="6.98005">
        <ele>966.9</ele>
        <time>2026-08-27T09:38:13.273Z</time>
      </trkpt>
      <trkpt lat="47.8412" lon="6.98006">
        <ele>967.1</ele>
        <time>2026-08-27T09:38:15.189Z</time>
      </trkpt>
      <trkpt lat="47.8412" lon="6.98006">
        <ele>967.1</ele>
        <time>2026-08-27T09:38:16.196Z</time>
      </trkpt>
      <trkpt lat="47.8412" lon="6.98005">
        <ele>966.8</ele>
        <time>2026-08-27T09:38:17.204Z</time>
      </trkpt>
      <trkpt lat="47.8412" lon="6.98005">
        <ele>966.9</ele>
        <time>2026-08-27T09:38:18.213Z</time>
      </trkpt>
      <trkpt lat="47.8412" lon="6.98005">
        <ele>966.8</ele>
        <time>2026-08-27T09:38:19.220Z</time>
      </trkpt>
      <trkpt lat="47.8412" lon="6.98006">
        <ele>966.8</ele>
        <time>2026-08-27T09:38:20.228Z</time>
      </trkpt>
      <trkpt lat="47.8412" lon="6.98006">
        <ele>966.6</ele>
        <time>2026-08-27T09:38:22.144Z</time>
      </trkpt>
      <trkpt lat="47.8412" lon="6.98007">
        <ele>967</ele>
        <time>2026-08-27T09:38:23.151Z</time>
      </trkpt>
      <trkpt lat="47.8412" lon="6.98007">
        <ele>967.3</ele>
        <time>2026-08-27T09:38:24.161Z</time>
      </trkpt>
      <trkpt lat="47.8412" lon="6.98007">
        <ele>966.9</ele>
        <time>2026-08-27T09:38:25.168Z</time>
      </trkpt>
      <trkpt lat="47.8412" lon="6.98007">
        <ele>967</ele>
        <time>2026-08-27T09:38:26.176Z</time>
      </trkpt>
      <trkpt lat="47.8412" lon="6.98008">
        <ele>967.2</ele>
        <time>2026-08-27T09:38:27.184Z</time>
      </trkpt>
      <trkpt lat="47.8412" lon="6.98008">
        <ele>967.5</ele>
        <time>2026-08-27T09:38:28.193Z</time>
      </trkpt>
      <trkpt lat="47.8412" lon="6.98008">
        <ele>967.4</ele>
        <time>2026-08-27T09:38:29.200Z</time>
      </trkpt>
      <trkpt lat="47.8412" lon="6.98009">
        <ele>967.5</ele>
        <time>2026-08-27T09:38:30.208Z</time>
      </trkpt>
      <trkpt lat="47.84121" lon="6.98009">
        <ele>967.8</ele>
        <time>2026-08-27T09:38:31.216Z</time>
      </trkpt>
      <trkpt lat="47.84121" lon="6.98009">
        <ele>967.7</ele>
        <time>2026-08-27T09:38:32.224Z</time>
      </trkpt>
      <trkpt lat="47.84121" lon="6.98009">
        <ele>967.7</ele>
        <time>2026-08-27T09:38:33.233Z</time>
      </trkpt>
      <trkpt lat="47.84121" lon="6.98009">
        <ele>967.5</ele>
        <time>2026-08-27T09:38:34.240Z</time>
      </trkpt>
      <trkpt lat="47.84121" lon="6.9801">
        <ele>967.5</ele>
        <time>2026-08-27T09:38:36.258Z</time>
      </trkpt>
      <trkpt lat="47.84121" lon="6.98011">
        <ele>967.9</ele>
        <time>2026-08-27T09:38:38.173Z</time>
      </trkpt>
      <trkpt lat="47.84121" lon="6.98012">
        <ele>967.9</ele>
        <time>2026-08-27T09:38:39.281Z</time>
      </trkpt>
      <trkpt lat="47.8412" lon="6.98015">
        <ele>967.5</ele>
        <time>2026-08-27T09:38:41.196Z</time>
      </trkpt>
      <trkpt lat="47.84119" lon="6.98017">
        <ele>967.3</ele>
        <time>2026-08-27T09:38:42.204Z</time>
      </trkpt>
      <trkpt lat="47.84118" lon="6.98018">
        <ele>967.5</ele>
        <time>2026-08-27T09:38:43.212Z</time>
      </trkpt>
      <trkpt lat="47.84117" lon="6.9802">
        <ele>967.4</ele>
        <time>2026-08-27T09:38:44.221Z</time>
      </trkpt>
      <trkpt lat="47.84116" lon="6.98021">
        <ele>967.4</ele>
        <time>2026-08-27T09:38:45.229Z</time>
      </trkpt>
      <trkpt lat="47.84115" lon="6.98022">
        <ele>967.2</ele>
        <time>2026-08-27T09:38:46.237Z</time>
      </trkpt>
      <trkpt lat="47.84113" lon="6.98024">
        <ele>966.9</ele>
        <time>2026-08-27T09:38:48.152Z</time>
      </trkpt>
      <trkpt lat="47.84111" lon="6.98026">
        <ele>967</ele>
        <time>2026-08-27T09:38:50.270Z</time>
      </trkpt>
      <trkpt lat="47.8411" lon="6.98029">
        <ele>967.3</ele>
        <time>2026-08-27T09:38:52.253Z</time>
      </trkpt>
      <trkpt lat="47.84109" lon="6.9803">
        <ele>967.2</ele>
        <time>2026-08-27T09:38:53.294Z</time>
      </trkpt>
      <trkpt lat="47.84108" lon="6.98032">
        <ele>967.7</ele>
        <time>2026-08-27T09:38:55.209Z</time>
      </trkpt>
      <trkpt lat="47.84108" lon="6.98032">
        <ele>968</ele>
        <time>2026-08-27T09:38:56.217Z</time>
      </trkpt>
      <trkpt lat="47.84107" lon="6.98033">
        <ele>968.2</ele>
        <time>2026-08-27T09:38:57.225Z</time>
      </trkpt>
      <trkpt lat="47.84106" lon="6.98033">
        <ele>968.2</ele>
        <time>2026-08-27T09:38:58.234Z</time>
      </trkpt>
      <trkpt lat="47.84106" lon="6.98034">
        <ele>968.4</ele>
        <time>2026-08-27T09:38:59.241Z</time>
      </trkpt>
      <trkpt lat="47.84105" lon="6.98034">
        <ele>968.4</ele>
        <time>2026-08-27T09:39:00.258Z</time>
      </trkpt>
      <trkpt lat="47.84104" lon="6.98037">
        <ele>968.9</ele>
        <time>2026-08-27T09:39:02.267Z</time>
      </trkpt>
      <trkpt lat="47.84104" lon="6.98038">
        <ele>968.9</ele>
        <time>2026-08-27T09:39:03.274Z</time>
      </trkpt>
      <trkpt lat="47.84103" lon="6.9804">
        <ele>969</ele>
        <time>2026-08-27T09:39:05.190Z</time>
      </trkpt>
      <trkpt lat="47.84103" lon="6.98042">
        <ele>969</ele>
        <time>2026-08-27T09:39:06.273Z</time>
      </trkpt>
      <trkpt lat="47.84102" lon="6.98044">
        <ele>969.5</ele>
        <time>2026-08-27T09:39:08.255Z</time>
      </trkpt>
      <trkpt lat="47.84101" lon="6.98046">
        <ele>969.7</ele>
        <time>2026-08-27T09:39:10.280Z</time>
      </trkpt>
      <trkpt lat="47.841" lon="6.98048">
        <ele>969.9</ele>
        <time>2026-08-27T09:39:12.247Z</time>
      </trkpt>
      <trkpt lat="47.841" lon="6.98051">
        <ele>969.6</ele>
        <time>2026-08-27T09:39:14.262Z</time>
      </trkpt>
      <trkpt lat="47.84099" lon="6.98052">
        <ele>969.5</ele>
        <time>2026-08-27T09:39:15.270Z</time>
      </trkpt>
      <trkpt lat="47.84099" lon="6.98053">
        <ele>969.7</ele>
        <time>2026-08-27T09:39:16.279Z</time>
      </trkpt>
      <trkpt lat="47.84098" lon="6.98055">
        <ele>969.5</ele>
        <time>2026-08-27T09:39:18.294Z</time>
      </trkpt>
      <trkpt lat="47.84098" lon="6.98058">
        <ele>969.9</ele>
        <time>2026-08-27T09:39:20.209Z</time>
      </trkpt>
      <trkpt lat="47.84097" lon="6.98059">
        <ele>969.9</ele>
        <time>2026-08-27T09:39:21.259Z</time>
      </trkpt>
      <trkpt lat="47.84096" lon="6.9806">
        <ele>970.7</ele>
        <time>2026-08-27T09:39:23.234Z</time>
      </trkpt>
      <trkpt lat="47.84096" lon="6.98061">
        <ele>970.9</ele>
        <time>2026-08-27T09:39:24.242Z</time>
      </trkpt>
      <trkpt lat="47.84095" lon="6.98062">
        <ele>971</ele>
        <time>2026-08-27T09:39:25.250Z</time>
      </trkpt>
      <trkpt lat="47.84095" lon="6.98063">
        <ele>971.6</ele>
        <time>2026-08-27T09:39:26.258Z</time>
      </trkpt>
      <trkpt lat="47.84094" lon="6.98063">
        <ele>971.7</ele>
        <time>2026-08-27T09:39:27.266Z</time>
      </trkpt>
      <trkpt lat="47.84094" lon="6.98065">
        <ele>971.5</ele>
        <time>2026-08-27T09:39:29.182Z</time>
      </trkpt>
      <trkpt lat="47.84093" lon="6.98066">
        <ele>971.9</ele>
        <time>2026-08-27T09:39:30.190Z</time>
      </trkpt>
      <trkpt lat="47.84093" lon="6.98068">
        <ele>972.4</ele>
        <time>2026-08-27T09:39:31.198Z</time>
      </trkpt>
      <trkpt lat="47.84093" lon="6.98069">
        <ele>972.5</ele>
        <time>2026-08-27T09:39:32.205Z</time>
      </trkpt>
      <trkpt lat="47.84092" lon="6.9807">
        <ele>972.3</ele>
        <time>2026-08-27T09:39:33.213Z</time>
      </trkpt>
      <trkpt lat="47.84092" lon="6.98072">
        <ele>972.6</ele>
        <time>2026-08-27T09:39:35.231Z</time>
      </trkpt>
      <trkpt lat="47.84091" lon="6.98073">
        <ele>972.5</ele>
        <time>2026-08-27T09:39:36.238Z</time>
      </trkpt>
      <trkpt lat="47.84091" lon="6.98074">
        <ele>972.9</ele>
        <time>2026-08-27T09:39:37.247Z</time>
      </trkpt>
      <trkpt lat="47.84091" lon="6.98075">
        <ele>973</ele>
        <time>2026-08-27T09:39:38.254Z</time>
      </trkpt>
      <trkpt lat="47.8409" lon="6.98077">
        <ele>972.7</ele>
        <time>2026-08-27T09:39:40.271Z</time>
      </trkpt>
      <trkpt lat="47.8409" lon="6.98077">
        <ele>972.7</ele>
        <time>2026-08-27T09:39:41.278Z</time>
      </trkpt>
      <trkpt lat="47.8409" lon="6.98078">
        <ele>973</ele>
        <time>2026-08-27T09:39:43.319Z</time>
      </trkpt>
      <trkpt lat="47.8409" lon="6.9808">
        <ele>973</ele>
        <time>2026-08-27T09:39:44.697Z</time>
      </trkpt>
      <trkpt lat="47.84089" lon="6.98082">
        <ele>973</ele>
        <time>2026-08-27T09:39:46.033Z</time>
      </trkpt>
      <trkpt lat="47.84089" lon="6.98083">
        <ele>972.9</ele>
        <time>2026-08-27T09:39:47.226Z</time>
      </trkpt>
      <trkpt lat="47.84089" lon="6.98085">
        <ele>972.9</ele>
        <time>2026-08-27T09:39:48.234Z</time>
      </trkpt>
      <trkpt lat="47.84088" lon="6.98086">
        <ele>973</ele>
        <time>2026-08-27T09:39:49.243Z</time>
      </trkpt>
      <trkpt lat="47.84087" lon="6.98089">
        <ele>973.1</ele>
        <time>2026-08-27T09:39:51.258Z</time>
      </trkpt>
      <trkpt lat="47.84087" lon="6.9809">
        <ele>973.1</ele>
        <time>2026-08-27T09:39:52.299Z</time>
      </trkpt>
      <trkpt lat="47.84087" lon="6.98091">
        <ele>973.5</ele>
        <time>2026-08-27T09:39:53.677Z</time>
      </trkpt>
      <trkpt lat="47.84086" lon="6.98093">
        <ele>973.6</ele>
        <time>2026-08-27T09:39:55.198Z</time>
      </trkpt>
      <trkpt lat="47.84085" lon="6.98095">
        <ele>973.6</ele>
        <time>2026-08-27T09:39:57.205Z</time>
      </trkpt>
      <trkpt lat="47.84085" lon="6.98096">
        <ele>973.6</ele>
        <time>2026-08-27T09:39:58.213Z</time>
      </trkpt>
      <trkpt lat="47.84085" lon="6.98098">
        <ele>974</ele>
        <time>2026-08-27T09:39:59.221Z</time>
      </trkpt>
      <trkpt lat="47.84085" lon="6.98099">
        <ele>974.5</ele>
        <time>2026-08-27T09:40:00.230Z</time>
      </trkpt>
      <trkpt lat="47.84085" lon="6.98102">
        <ele>974.3</ele>
        <time>2026-08-27T09:40:02.246Z</time>
      </trkpt>
      <trkpt lat="47.84085" lon="6.98103">
        <ele>974.6</ele>
        <time>2026-08-27T09:40:03.254Z</time>
      </trkpt>
      <trkpt lat="47.84085" lon="6.98104">
        <ele>974.6</ele>
        <time>2026-08-27T09:40:04.262Z</time>
      </trkpt>
      <trkpt lat="47.84085" lon="6.98105">
        <ele>974.7</ele>
        <time>2026-08-27T09:40:05.271Z</time>
      </trkpt>
      <trkpt lat="47.84085" lon="6.98106">
        <ele>975.1</ele>
        <time>2026-08-27T09:40:06.278Z</time>
      </trkpt>
      <trkpt lat="47.84085" lon="6.98107">
        <ele>975.1</ele>
        <time>2026-08-27T09:40:07.286Z</time>
      </trkpt>
      <trkpt lat="47.84084" lon="6.98109">
        <ele>974.9</ele>
        <time>2026-08-27T09:40:08.295Z</time>
      </trkpt>
      <trkpt lat="47.84085" lon="6.98111">
        <ele>975.1</ele>
        <time>2026-08-27T09:40:10.209Z</time>
      </trkpt>
      <trkpt lat="47.84084" lon="6.98113">
        <ele>975</ele>
        <time>2026-08-27T09:40:11.217Z</time>
      </trkpt>
      <trkpt lat="47.84084" lon="6.98114">
        <ele>975.2</ele>
        <time>2026-08-27T09:40:12.225Z</time>
      </trkpt>
      <trkpt lat="47.84084" lon="6.98115">
        <ele>975.2</ele>
        <time>2026-08-27T09:40:13.276Z</time>
      </trkpt>
      <trkpt lat="47.84084" lon="6.98117">
        <ele>975.1</ele>
        <time>2026-08-27T09:40:15.275Z</time>
      </trkpt>
      <trkpt lat="47.84083" lon="6.98119">
        <ele>975.3</ele>
        <time>2026-08-27T09:40:17.266Z</time>
      </trkpt>
      <trkpt lat="47.84083" lon="6.9812">
        <ele>975.5</ele>
        <time>2026-08-27T09:40:18.275Z</time>
      </trkpt>
      <trkpt lat="47.84083" lon="6.9812">
        <ele>975.6</ele>
        <time>2026-08-27T09:40:19.282Z</time>
      </trkpt>
      <trkpt lat="47.84083" lon="6.98121">
        <ele>975.7</ele>
        <time>2026-08-27T09:40:20.290Z</time>
      </trkpt>
      <trkpt lat="47.84082" lon="6.98122">
        <ele>976.4</ele>
        <time>2026-08-27T09:40:22.205Z</time>
      </trkpt>
      <trkpt lat="47.84082" lon="6.98123">
        <ele>976.4</ele>
        <time>2026-08-27T09:40:23.255Z</time>
      </trkpt>
      <trkpt lat="47.84082" lon="6.98126">
        <ele>976.8</ele>
        <time>2026-08-27T09:40:25.179Z</time>
      </trkpt>
      <trkpt lat="47.84082" lon="6.98127">
        <ele>976.7</ele>
        <time>2026-08-27T09:40:26.238Z</time>
      </trkpt>
      <trkpt lat="47.84082" lon="6.98128">
        <ele>976.7</ele>
        <time>2026-08-27T09:40:27.247Z</time>
      </trkpt>
      <trkpt lat="47.84082" lon="6.9813">
        <ele>976.9</ele>
        <time>2026-08-27T09:40:28.254Z</time>
      </trkpt>
      <trkpt lat="47.84083" lon="6.98132">
        <ele>977</ele>
        <time>2026-08-27T09:40:29.262Z</time>
      </trkpt>
      <trkpt lat="47.84083" lon="6.98135">
        <ele>977</ele>
        <time>2026-08-27T09:40:30.296Z</time>
      </trkpt>
      <trkpt lat="47.84084" lon="6.98139">
        <ele>977.3</ele>
        <time>2026-08-27T09:40:32.194Z</time>
      </trkpt>
      <trkpt lat="47.84084" lon="6.98142">
        <ele>977.7</ele>
        <time>2026-08-27T09:40:34.278Z</time>
      </trkpt>
      <trkpt lat="47.84085" lon="6.98144">
        <ele>978.1</ele>
        <time>2026-08-27T09:40:36.217Z</time>
      </trkpt>
      <trkpt lat="47.84085" lon="6.98146">
        <ele>978.1</ele>
        <time>2026-08-27T09:40:38.233Z</time>
      </trkpt>
      <trkpt lat="47.84085" lon="6.98149">
        <ele>978</ele>
        <time>2026-08-27T09:40:40.249Z</time>
      </trkpt>
      <trkpt lat="47.84084" lon="6.9815">
        <ele>978.1</ele>
        <time>2026-08-27T09:40:41.259Z</time>
      </trkpt>
      <trkpt lat="47.84084" lon="6.98151">
        <ele>978.1</ele>
        <time>2026-08-27T09:40:43.174Z</time>
      </trkpt>
      <trkpt lat="47.84084" lon="6.98152">
        <ele>978.1</ele>
        <time>2026-08-27T09:40:44.282Z</time>
      </trkpt>
      <trkpt lat="47.84085" lon="6.98153">
        <ele>978</ele>
        <time>2026-08-27T09:40:45.290Z</time>
      </trkpt>
      <trkpt lat="47.84085" lon="6.98156">
        <ele>978.1</ele>
        <time>2026-08-27T09:40:47.306Z</time>
      </trkpt>
      <trkpt lat="47.84085" lon="6.98159">
        <ele>978.2</ele>
        <time>2026-08-27T09:40:49.180Z</time>
      </trkpt>
      <trkpt lat="47.84085" lon="6.9816">
        <ele>978.6</ele>
        <time>2026-08-27T09:40:50.229Z</time>
      </trkpt>
      <trkpt lat="47.84085" lon="6.98161">
        <ele>978.4</ele>
        <time>2026-08-27T09:40:51.237Z</time>
      </trkpt>
      <trkpt lat="47.84085" lon="6.98162">
        <ele>978.5</ele>
        <time>2026-08-27T09:40:52.245Z</time>
      </trkpt>
      <trkpt lat="47.84086" lon="6.98162">
        <ele>978.8</ele>
        <time>2026-08-27T09:40:53.253Z</time>
      </trkpt>
      <trkpt lat="47.84086" lon="6.98163">
        <ele>978.9</ele>
        <time>2026-08-27T09:40:54.261Z</time>
      </trkpt>
      <trkpt lat="47.84087" lon="6.98165">
        <ele>978.8</ele>
        <time>2026-08-27T09:40:55.269Z</time>
      </trkpt>
      <trkpt lat="47.84089" lon="6.98167">
        <ele>979</ele>
        <time>2026-08-27T09:40:57.287Z</time>
      </trkpt>
      <trkpt lat="47.8409" lon="6.98168">
        <ele>979.1</ele>
        <time>2026-08-27T09:40:58.295Z</time>
      </trkpt>
      <trkpt lat="47.8409" lon="6.9817">
        <ele>979.5</ele>
        <time>2026-08-27T09:40:59.303Z</time>
      </trkpt>
      <trkpt lat="47.84092" lon="6.98172">
        <ele>979.6</ele>
        <time>2026-08-27T09:41:01.318Z</time>
      </trkpt>
      <trkpt lat="47.84093" lon="6.98176">
        <ele>979.9</ele>
        <time>2026-08-27T09:41:03.233Z</time>
      </trkpt>
      <trkpt lat="47.84093" lon="6.98177">
        <ele>980.2</ele>
        <time>2026-08-27T09:41:04.242Z</time>
      </trkpt>
      <trkpt lat="47.84094" lon="6.98179">
        <ele>980.4</ele>
        <time>2026-08-27T09:41:06.258Z</time>
      </trkpt>
      <trkpt lat="47.84094" lon="6.9818">
        <ele>980.4</ele>
        <time>2026-08-27T09:41:07.258Z</time>
      </trkpt>
      <trkpt lat="47.84094" lon="6.98181">
        <ele>980.5</ele>
        <time>2026-08-27T09:41:08.273Z</time>
      </trkpt>
      <trkpt lat="47.84095" lon="6.98182">
        <ele>980.3</ele>
        <time>2026-08-27T09:41:09.282Z</time>
      </trkpt>
      <trkpt lat="47.84096" lon="6.98185">
        <ele>980.4</ele>
        <time>2026-08-27T09:41:11.314Z</time>
      </trkpt>
      <trkpt lat="47.84097" lon="6.98187">
        <ele>980.2</ele>
        <time>2026-08-27T09:41:12.776Z</time>
      </trkpt>
      <trkpt lat="47.84098" lon="6.98188">
        <ele>980</ele>
        <time>2026-08-27T09:41:14.053Z</time>
      </trkpt>
      <trkpt lat="47.84099" lon="6.98189">
        <ele>980</ele>
        <time>2026-08-27T09:41:15.230Z</time>
      </trkpt>
      <trkpt lat="47.84099" lon="6.98189">
        <ele>980</ele>
        <time>2026-08-27T09:41:16.238Z</time>
      </trkpt>
      <trkpt lat="47.841" lon="6.9819">
        <ele>980</ele>
        <time>2026-08-27T09:41:17.245Z</time>
      </trkpt>
      <trkpt lat="47.841" lon="6.9819">
        <ele>980.1</ele>
        <time>2026-08-27T09:41:18.254Z</time>
      </trkpt>
      <trkpt lat="47.84101" lon="6.98191">
        <ele>980.5</ele>
        <time>2026-08-27T09:41:19.261Z</time>
      </trkpt>
      <trkpt lat="47.84101" lon="6.98192">
        <ele>980.7</ele>
        <time>2026-08-27T09:41:20.270Z</time>
      </trkpt>
      <trkpt lat="47.841" lon="6.98195">
        <ele>980.9</ele>
        <time>2026-08-27T09:41:22.285Z</time>
      </trkpt>
      <trkpt lat="47.84101" lon="6.98196">
        <ele>981.1</ele>
        <time>2026-08-27T09:41:23.294Z</time>
      </trkpt>
      <trkpt lat="47.84101" lon="6.98198">
        <ele>980.7</ele>
        <time>2026-08-27T09:41:24.301Z</time>
      </trkpt>
      <trkpt lat="47.84102" lon="6.982">
        <ele>980.8</ele>
        <time>2026-08-27T09:41:26.218Z</time>
      </trkpt>
      <trkpt lat="47.84103" lon="6.98202">
        <ele>981.1</ele>
        <time>2026-08-27T09:41:28.234Z</time>
      </trkpt>
      <trkpt lat="47.84103" lon="6.98204">
        <ele>980.9</ele>
        <time>2026-08-27T09:41:29.242Z</time>
      </trkpt>
      <trkpt lat="47.84103" lon="6.98205">
        <ele>980.9</ele>
        <time>2026-08-27T09:41:30.249Z</time>
      </trkpt>
      <trkpt lat="47.84103" lon="6.98208">
        <ele>981.1</ele>
        <time>2026-08-27T09:41:32.315Z</time>
      </trkpt>
      <trkpt lat="47.84103" lon="6.98209">
        <ele>981.3</ele>
        <time>2026-08-27T09:41:34.180Z</time>
      </trkpt>
      <trkpt lat="47.84103" lon="6.98209">
        <ele>981</ele>
        <time>2026-08-27T09:41:35.289Z</time>
      </trkpt>
      <trkpt lat="47.84103" lon="6.98209">
        <ele>981.1</ele>
        <time>2026-08-27T09:41:37.205Z</time>
      </trkpt>
      <trkpt lat="47.84103" lon="6.98209">
        <ele>980.6</ele>
        <time>2026-08-27T09:41:38.213Z</time>
      </trkpt>
      <trkpt lat="47.84103" lon="6.98209">
        <ele>980.6</ele>
        <time>2026-08-27T09:41:39.221Z</time>
      </trkpt>
      <trkpt lat="47.84103" lon="6.98208">
        <ele>980.4</ele>
        <time>2026-08-27T09:41:41.237Z</time>
      </trkpt>
      <trkpt lat="47.84103" lon="6.98208">
        <ele>980.2</ele>
        <time>2026-08-27T09:41:42.246Z</time>
      </trkpt>
      <trkpt lat="47.84103" lon="6.98208">
        <ele>980.1</ele>
        <time>2026-08-27T09:41:43.253Z</time>
      </trkpt>
      <trkpt lat="47.84104" lon="6.98208">
        <ele>980.2</ele>
        <time>2026-08-27T09:41:44.262Z</time>
      </trkpt>
      <trkpt lat="47.84104" lon="6.98209">
        <ele>980.2</ele>
        <time>2026-08-27T09:41:46.177Z</time>
      </trkpt>
      <trkpt lat="47.84104" lon="6.98209">
        <ele>980.1</ele>
        <time>2026-08-27T09:41:47.285Z</time>
      </trkpt>
      <trkpt lat="47.84104" lon="6.98209">
        <ele>980.2</ele>
        <time>2026-08-27T09:41:48.294Z</time>
      </trkpt>
      <trkpt lat="47.84104" lon="6.98209">
        <ele>980.5</ele>
        <time>2026-08-27T09:41:49.301Z</time>
      </trkpt>
      <trkpt lat="47.84105" lon="6.98211">
        <ele>980.6</ele>
        <time>2026-08-27T09:41:51.218Z</time>
      </trkpt>
      <trkpt lat="47.84105" lon="6.98213">
        <ele>980.6</ele>
        <time>2026-08-27T09:41:52.225Z</time>
      </trkpt>
      <trkpt lat="47.84106" lon="6.98216">
        <ele>980.4</ele>
        <time>2026-08-27T09:41:53.233Z</time>
      </trkpt>
      <trkpt lat="47.84106" lon="6.98218">
        <ele>980.3</ele>
        <time>2026-08-27T09:41:54.241Z</time>
      </trkpt>
      <trkpt lat="47.84107" lon="6.98222">
        <ele>980.3</ele>
        <time>2026-08-27T09:41:55.257Z</time>
      </trkpt>
      <trkpt lat="47.84108" lon="6.98226">
        <ele>980.5</ele>
        <time>2026-08-27T09:41:57.097Z</time>
      </trkpt>
      <trkpt lat="47.84108" lon="6.98228">
        <ele>980.6</ele>
        <time>2026-08-27T09:41:58.173Z</time>
      </trkpt>
      <trkpt lat="47.84108" lon="6.9823">
        <ele>980.6</ele>
        <time>2026-08-27T09:41:59.215Z</time>
      </trkpt>
      <trkpt lat="47.84108" lon="6.98235">
        <ele>980.6</ele>
        <time>2026-08-27T09:42:01.206Z</time>
      </trkpt>
      <trkpt lat="47.84107" lon="6.98237">
        <ele>980.5</ele>
        <time>2026-08-27T09:42:02.213Z</time>
      </trkpt>
      <trkpt lat="47.84107" lon="6.98238">
        <ele>980.8</ele>
        <time>2026-08-27T09:42:03.222Z</time>
      </trkpt>
      <trkpt lat="47.84106" lon="6.98239">
        <ele>980.6</ele>
        <time>2026-08-27T09:42:04.230Z</time>
      </trkpt>
      <trkpt lat="47.84107" lon="6.98241">
        <ele>980.3</ele>
        <time>2026-08-27T09:42:06.245Z</time>
      </trkpt>
      <trkpt lat="47.84107" lon="6.98242">
        <ele>980.2</ele>
        <time>2026-08-27T09:42:07.253Z</time>
      </trkpt>
      <trkpt lat="47.84108" lon="6.98246">
        <ele>980.1</ele>
        <time>2026-08-27T09:42:09.269Z</time>
      </trkpt>
      <trkpt lat="47.84108" lon="6.9825">
        <ele>979.8</ele>
        <time>2026-08-27T09:42:11.269Z</time>
      </trkpt>
      <trkpt lat="47.84108" lon="6.98251">
        <ele>979.2</ele>
        <time>2026-08-27T09:42:12.285Z</time>
      </trkpt>
      <trkpt lat="47.84108" lon="6.98253">
        <ele>979.2</ele>
        <time>2026-08-27T09:42:14.209Z</time>
      </trkpt>
      <trkpt lat="47.84108" lon="6.98254">
        <ele>979.2</ele>
        <time>2026-08-27T09:42:15.243Z</time>
      </trkpt>
      <trkpt lat="47.84107" lon="6.98256">
        <ele>979.2</ele>
        <time>2026-08-27T09:42:17.234Z</time>
      </trkpt>
      <trkpt lat="47.84107" lon="6.98257">
        <ele>979.2</ele>
        <time>2026-08-27T09:42:18.242Z</time>
      </trkpt>
      <trkpt lat="47.84106" lon="6.98258">
        <ele>979.1</ele>
        <time>2026-08-27T09:42:19.249Z</time>
      </trkpt>
      <trkpt lat="47.84106" lon="6.98261">
        <ele>978.8</ele>
        <time>2026-08-27T09:42:21.266Z</time>
      </trkpt>
      <trkpt lat="47.84106" lon="6.98264">
        <ele>978.7</ele>
        <time>2026-08-27T09:42:23.180Z</time>
      </trkpt>
      <trkpt lat="47.84106" lon="6.98265">
        <ele>978.8</ele>
        <time>2026-08-27T09:42:24.189Z</time>
      </trkpt>
      <trkpt lat="47.84106" lon="6.98267">
        <ele>978.7</ele>
        <time>2026-08-27T09:42:25.196Z</time>
      </trkpt>
      <trkpt lat="47.84106" lon="6.98268">
        <ele>978.6</ele>
        <time>2026-08-27T09:42:26.204Z</time>
      </trkpt>
      <trkpt lat="47.84106" lon="6.98269">
        <ele>978.7</ele>
        <time>2026-08-27T09:42:27.214Z</time>
      </trkpt>
      <trkpt lat="47.84106" lon="6.98272">
        <ele>978.5</ele>
        <time>2026-08-27T09:42:29.229Z</time>
      </trkpt>
      <trkpt lat="47.84106" lon="6.98273">
        <ele>978.6</ele>
        <time>2026-08-27T09:42:30.237Z</time>
      </trkpt>
      <trkpt lat="47.84106" lon="6.98275">
        <ele>978.3</ele>
        <time>2026-08-27T09:42:31.246Z</time>
      </trkpt>
      <trkpt lat="47.84106" lon="6.98277">
        <ele>977.7</ele>
        <time>2026-08-27T09:42:32.253Z</time>
      </trkpt>
      <trkpt lat="47.84106" lon="6.98278">
        <ele>977.8</ele>
        <time>2026-08-27T09:42:33.261Z</time>
      </trkpt>
      <trkpt lat="47.84106" lon="6.9828">
        <ele>978.1</ele>
        <time>2026-08-27T09:42:34.269Z</time>
      </trkpt>
      <trkpt lat="47.84106" lon="6.98283">
        <ele>977.3</ele>
        <time>2026-08-27T09:42:36.184Z</time>
      </trkpt>
      <trkpt lat="47.84107" lon="6.98284">
        <ele>977.6</ele>
        <time>2026-08-27T09:42:37.192Z</time>
      </trkpt>
      <trkpt lat="47.84107" lon="6.98286">
        <ele>977.5</ele>
        <time>2026-08-27T09:42:38.200Z</time>
      </trkpt>
      <trkpt lat="47.84107" lon="6.98287">
        <ele>977.3</ele>
        <time>2026-08-27T09:42:39.209Z</time>
      </trkpt>
      <trkpt lat="47.84107" lon="6.98289">
        <ele>977.1</ele>
        <time>2026-08-27T09:42:40.216Z</time>
      </trkpt>
      <trkpt lat="47.84107" lon="6.98292">
        <ele>977.1</ele>
        <time>2026-08-27T09:42:42.233Z</time>
      </trkpt>
      <trkpt lat="47.84107" lon="6.98293">
        <ele>977.1</ele>
        <time>2026-08-27T09:42:43.242Z</time>
      </trkpt>
      <trkpt lat="47.84106" lon="6.98295">
        <ele>977.1</ele>
        <time>2026-08-27T09:42:44.249Z</time>
      </trkpt>
      <trkpt lat="47.84106" lon="6.98297">
        <ele>977</ele>
        <time>2026-08-27T09:42:45.257Z</time>
      </trkpt>
      <trkpt lat="47.84105" lon="6.98298">
        <ele>977.1</ele>
        <time>2026-08-27T09:42:46.265Z</time>
      </trkpt>
      <trkpt lat="47.84105" lon="6.983">
        <ele>977.3</ele>
        <time>2026-08-27T09:42:48.180Z</time>
      </trkpt>
      <trkpt lat="47.84105" lon="6.98301">
        <ele>977.5</ele>
        <time>2026-08-27T09:42:49.289Z</time>
      </trkpt>
      <trkpt lat="47.84106" lon="6.98303">
        <ele>977.5</ele>
        <time>2026-08-27T09:42:51.204Z</time>
      </trkpt>
      <trkpt lat="47.84106" lon="6.98304">
        <ele>977.5</ele>
        <time>2026-08-27T09:42:52.213Z</time>
      </trkpt>
      <trkpt lat="47.84106" lon="6.98307">
        <ele>977.8</ele>
        <time>2026-08-27T09:42:54.229Z</time>
      </trkpt>
      <trkpt lat="47.84105" lon="6.98311">
        <ele>978</ele>
        <time>2026-08-27T09:42:56.246Z</time>
      </trkpt>
      <trkpt lat="47.84105" lon="6.98312">
        <ele>977.9</ele>
        <time>2026-08-27T09:42:57.253Z</time>
      </trkpt>
      <trkpt lat="47.84105" lon="6.98314">
        <ele>977.7</ele>
        <time>2026-08-27T09:42:58.261Z</time>
      </trkpt>
      <trkpt lat="47.84105" lon="6.98315">
        <ele>977.6</ele>
        <time>2026-08-27T09:42:59.269Z</time>
      </trkpt>
      <trkpt lat="47.84105" lon="6.98319">
        <ele>977.3</ele>
        <time>2026-08-27T09:43:01.285Z</time>
      </trkpt>
      <trkpt lat="47.84106" lon="6.98322">
        <ele>977.9</ele>
        <time>2026-08-27T09:43:03.201Z</time>
      </trkpt>
      <trkpt lat="47.84106" lon="6.98323">
        <ele>977.6</ele>
        <time>2026-08-27T09:43:04.208Z</time>
      </trkpt>
      <trkpt lat="47.84106" lon="6.98325">
        <ele>977.5</ele>
        <time>2026-08-27T09:43:05.217Z</time>
      </trkpt>
      <trkpt lat="47.84107" lon="6.98328">
        <ele>978.1</ele>
        <time>2026-08-27T09:43:07.233Z</time>
      </trkpt>
      <trkpt lat="47.84107" lon="6.98332">
        <ele>977.9</ele>
        <time>2026-08-27T09:43:09.250Z</time>
      </trkpt>
      <trkpt lat="47.84107" lon="6.98334">
        <ele>978.1</ele>
        <time>2026-08-27T09:43:10.257Z</time>
      </trkpt>
      <trkpt lat="47.84107" lon="6.98336">
        <ele>978.3</ele>
        <time>2026-08-27T09:43:11.266Z</time>
      </trkpt>
      <trkpt lat="47.84108" lon="6.98339">
        <ele>978.5</ele>
        <time>2026-08-27T09:43:13.281Z</time>
      </trkpt>
      <trkpt lat="47.84108" lon="6.9834">
        <ele>978.5</ele>
        <time>2026-08-27T09:43:14.289Z</time>
      </trkpt>
      <trkpt lat="47.84109" lon="6.98342">
        <ele>979</ele>
        <time>2026-08-27T09:43:16.204Z</time>
      </trkpt>
      <trkpt lat="47.84109" lon="6.98343">
        <ele>979.2</ele>
        <time>2026-08-27T09:43:17.212Z</time>
      </trkpt>
      <trkpt lat="47.84109" lon="6.98344">
        <ele>979.4</ele>
        <time>2026-08-27T09:43:18.221Z</time>
      </trkpt>
      <trkpt lat="47.84109" lon="6.98345">
        <ele>979.3</ele>
        <time>2026-08-27T09:43:19.229Z</time>
      </trkpt>
      <trkpt lat="47.84109" lon="6.98346">
        <ele>979.1</ele>
        <time>2026-08-27T09:43:20.237Z</time>
      </trkpt>
      <trkpt lat="47.84109" lon="6.98347">
        <ele>979.4</ele>
        <time>2026-08-27T09:43:21.245Z</time>
      </trkpt>
      <trkpt lat="47.84109" lon="6.98351">
        <ele>979.6</ele>
        <time>2026-08-27T09:43:23.261Z</time>
      </trkpt>
      <trkpt lat="47.84109" lon="6.98352">
        <ele>979.6</ele>
        <time>2026-08-27T09:43:24.269Z</time>
      </trkpt>
      <trkpt lat="47.8411" lon="6.98355">
        <ele>979.7</ele>
        <time>2026-08-27T09:43:26.210Z</time>
      </trkpt>
      <trkpt lat="47.8411" lon="6.98358">
        <ele>979.3</ele>
        <time>2026-08-27T09:43:28.201Z</time>
      </trkpt>
      <trkpt lat="47.8411" lon="6.98359">
        <ele>979.2</ele>
        <time>2026-08-27T09:43:29.208Z</time>
      </trkpt>
      <trkpt lat="47.8411" lon="6.9836">
        <ele>979</ele>
        <time>2026-08-27T09:43:30.217Z</time>
      </trkpt>
      <trkpt lat="47.8411" lon="6.98362">
        <ele>979</ele>
        <time>2026-08-27T09:43:31.226Z</time>
      </trkpt>
      <trkpt lat="47.8411" lon="6.98363">
        <ele>979.6</ele>
        <time>2026-08-27T09:43:32.233Z</time>
      </trkpt>
      <trkpt lat="47.8411" lon="6.98364">
        <ele>978.9</ele>
        <time>2026-08-27T09:43:33.241Z</time>
      </trkpt>
      <trkpt lat="47.8411" lon="6.98366">
        <ele>979</ele>
        <time>2026-08-27T09:43:34.249Z</time>
      </trkpt>
      <trkpt lat="47.8411" lon="6.98367">
        <ele>979.2</ele>
        <time>2026-08-27T09:43:35.257Z</time>
      </trkpt>
      <trkpt lat="47.84111" lon="6.98369">
        <ele>979.5</ele>
        <time>2026-08-27T09:43:36.266Z</time>
      </trkpt>
      <trkpt lat="47.84111" lon="6.98373">
        <ele>979.2</ele>
        <time>2026-08-27T09:43:38.180Z</time>
      </trkpt>
      <trkpt lat="47.84111" lon="6.98374">
        <ele>979.5</ele>
        <time>2026-08-27T09:43:39.188Z</time>
      </trkpt>
      <trkpt lat="47.84112" lon="6.98375">
        <ele>979.5</ele>
        <time>2026-08-27T09:43:40.196Z</time>
      </trkpt>
      <trkpt lat="47.84112" lon="6.98376">
        <ele>979.8</ele>
        <time>2026-08-27T09:43:41.206Z</time>
      </trkpt>
      <trkpt lat="47.84112" lon="6.98379">
        <ele>980.3</ele>
        <time>2026-08-27T09:43:43.222Z</time>
      </trkpt>
      <trkpt lat="47.84113" lon="6.9838">
        <ele>980.4</ele>
        <time>2026-08-27T09:43:44.230Z</time>
      </trkpt>
      <trkpt lat="47.84113" lon="6.98382">
        <ele>980.7</ele>
        <time>2026-08-27T09:43:45.238Z</time>
      </trkpt>
      <trkpt lat="47.84113" lon="6.98383">
        <ele>980.9</ele>
        <time>2026-08-27T09:43:46.246Z</time>
      </trkpt>
      <trkpt lat="47.84113" lon="6.98386">
        <ele>981</ele>
        <time>2026-08-27T09:43:48.161Z</time>
      </trkpt>
      <trkpt lat="47.84113" lon="6.98387">
        <ele>980.9</ele>
        <time>2026-08-27T09:43:49.269Z</time>
      </trkpt>
      <trkpt lat="47.84113" lon="6.9839">
        <ele>981.4</ele>
        <time>2026-08-27T09:43:51.184Z</time>
      </trkpt>
      <trkpt lat="47.84114" lon="6.98393">
        <ele>981.5</ele>
        <time>2026-08-27T09:43:53.202Z</time>
      </trkpt>
      <trkpt lat="47.84115" lon="6.98395">
        <ele>981.7</ele>
        <time>2026-08-27T09:43:55.218Z</time>
      </trkpt>
      <trkpt lat="47.84116" lon="6.98396">
        <ele>981.5</ele>
        <time>2026-08-27T09:43:57.233Z</time>
      </trkpt>
      <trkpt lat="47.84116" lon="6.98397">
        <ele>981.4</ele>
        <time>2026-08-27T09:43:58.242Z</time>
      </trkpt>
      <trkpt lat="47.84116" lon="6.98398">
        <ele>981.6</ele>
        <time>2026-08-27T09:43:59.250Z</time>
      </trkpt>
      <trkpt lat="47.84116" lon="6.98399">
        <ele>981.4</ele>
        <time>2026-08-27T09:44:00.258Z</time>
      </trkpt>
      <trkpt lat="47.84116" lon="6.98398">
        <ele>981.5</ele>
        <time>2026-08-27T09:44:01.266Z</time>
      </trkpt>
      <trkpt lat="47.84116" lon="6.98396">
        <ele>981.5</ele>
        <time>2026-08-27T09:44:03.181Z</time>
      </trkpt>
      <trkpt lat="47.84116" lon="6.98395">
        <ele>981.7</ele>
        <time>2026-08-27T09:44:04.189Z</time>
      </trkpt>
      <trkpt lat="47.84116" lon="6.98395">
        <ele>981.8</ele>
        <time>2026-08-27T09:44:05.197Z</time>
      </trkpt>
      <trkpt lat="47.84116" lon="6.98395">
        <ele>981.9</ele>
        <time>2026-08-27T09:44:06.205Z</time>
      </trkpt>
      <trkpt lat="47.84116" lon="6.98394">
        <ele>981.7</ele>
        <time>2026-08-27T09:44:07.213Z</time>
      </trkpt>
      <trkpt lat="47.84116" lon="6.98394">
        <ele>981.9</ele>
        <time>2026-08-27T09:44:08.222Z</time>
      </trkpt>
      <trkpt lat="47.84116" lon="6.98394">
        <ele>981.8</ele>
        <time>2026-08-27T09:44:09.229Z</time>
      </trkpt>
      <trkpt lat="47.84116" lon="6.98394">
        <ele>982</ele>
        <time>2026-08-27T09:44:10.237Z</time>
      </trkpt>
      <trkpt lat="47.84116" lon="6.98394">
        <ele>982</ele>
        <time>2026-08-27T09:44:11.245Z</time>
      </trkpt>
      <trkpt lat="47.84116" lon="6.98394">
        <ele>982</ele>
        <time>2026-08-27T09:44:12.254Z</time>
      </trkpt>
      <trkpt lat="47.84116" lon="6.98394">
        <ele>982.1</ele>
        <time>2026-08-27T09:44:13.262Z</time>
      </trkpt>
      <trkpt lat="47.84116" lon="6.98394">
        <ele>982.3</ele>
        <time>2026-08-27T09:44:14.270Z</time>
      </trkpt>
      <trkpt lat="47.84116" lon="6.98394">
        <ele>982.4</ele>
        <time>2026-08-27T09:44:15.278Z</time>
      </trkpt>
      <trkpt lat="47.84116" lon="6.98394">
        <ele>982.6</ele>
        <time>2026-08-27T09:44:17.193Z</time>
      </trkpt>
      <trkpt lat="47.84116" lon="6.98394">
        <ele>982.4</ele>
        <time>2026-08-27T09:44:18.201Z</time>
      </trkpt>
      <trkpt lat="47.84116" lon="6.98394">
        <ele>982.1</ele>
        <time>2026-08-27T09:44:19.210Z</time>
      </trkpt>
      <trkpt lat="47.84116" lon="6.98394">
        <ele>982.7</ele>
        <time>2026-08-27T09:44:20.218Z</time>
      </trkpt>
      <trkpt lat="47.84116" lon="6.98394">
        <ele>982.7</ele>
        <time>2026-08-27T09:44:21.225Z</time>
      </trkpt>
      <trkpt lat="47.84115" lon="6.98394">
        <ele>982.5</ele>
        <time>2026-08-27T09:44:22.233Z</time>
      </trkpt>
      <trkpt lat="47.84115" lon="6.98394">
        <ele>982.7</ele>
        <time>2026-08-27T09:44:23.242Z</time>
      </trkpt>
      <trkpt lat="47.84115" lon="6.98394">
        <ele>982.6</ele>
        <time>2026-08-27T09:44:24.250Z</time>
      </trkpt>
      <trkpt lat="47.84115" lon="6.98394">
        <ele>982.5</ele>
        <time>2026-08-27T09:44:25.257Z</time>
      </trkpt>
      <trkpt lat="47.84115" lon="6.98394">
        <ele>982.6</ele>
        <time>2026-08-27T09:44:26.266Z</time>
      </trkpt>
      <trkpt lat="47.84115" lon="6.98395">
        <ele>982.3</ele>
        <time>2026-08-27T09:44:28.181Z</time>
      </trkpt>
      <trkpt lat="47.84115" lon="6.98395">
        <ele>981.9</ele>
        <time>2026-08-27T09:44:29.190Z</time>
      </trkpt>
      <trkpt lat="47.84115" lon="6.98395">
        <ele>981.9</ele>
        <time>2026-08-27T09:44:30.198Z</time>
      </trkpt>
      <trkpt lat="47.84115" lon="6.98395">
        <ele>981.8</ele>
        <time>2026-08-27T09:44:31.205Z</time>
      </trkpt>
      <trkpt lat="47.84115" lon="6.98395">
        <ele>982</ele>
        <time>2026-08-27T09:44:32.214Z</time>
      </trkpt>
      <trkpt lat="47.84115" lon="6.98395">
        <ele>981.9</ele>
        <time>2026-08-27T09:44:33.221Z</time>
      </trkpt>
      <trkpt lat="47.84115" lon="6.98395">
        <ele>982.1</ele>
        <time>2026-08-27T09:44:34.229Z</time>
      </trkpt>
      <trkpt lat="47.84115" lon="6.98395">
        <ele>982</ele>
        <time>2026-08-27T09:44:35.237Z</time>
      </trkpt>
      <trkpt lat="47.84115" lon="6.98395">
        <ele>981.9</ele>
        <time>2026-08-27T09:44:36.246Z</time>
      </trkpt>
      <trkpt lat="47.84115" lon="6.98395">
        <ele>981.8</ele>
        <time>2026-08-27T09:44:38.262Z</time>
      </trkpt>
      <trkpt lat="47.84116" lon="6.98395">
        <ele>981.9</ele>
        <time>2026-08-27T09:44:40.177Z</time>
      </trkpt>
      <trkpt lat="47.84116" lon="6.98395">
        <ele>981.9</ele>
        <time>2026-08-27T09:44:41.185Z</time>
      </trkpt>
      <trkpt lat="47.84116" lon="6.98395">
        <ele>982.1</ele>
        <time>2026-08-27T09:44:43.302Z</time>
      </trkpt>
      <trkpt lat="47.84116" lon="6.98395">
        <ele>982</ele>
        <time>2026-08-27T09:44:45.217Z</time>
      </trkpt>
      <trkpt lat="47.84116" lon="6.98395">
        <ele>981.7</ele>
        <time>2026-08-27T09:44:46.225Z</time>
      </trkpt>
      <trkpt lat="47.84116" lon="6.98395">
        <ele>982</ele>
        <time>2026-08-27T09:44:47.235Z</time>
      </trkpt>
      <trkpt lat="47.84116" lon="6.98395">
        <ele>981.8</ele>
        <time>2026-08-27T09:44:48.243Z</time>
      </trkpt>
      <trkpt lat="47.84116" lon="6.98395">
        <ele>981.7</ele>
        <time>2026-08-27T09:44:49.250Z</time>
      </trkpt>
      <trkpt lat="47.84116" lon="6.98395">
        <ele>982.5</ele>
        <time>2026-08-27T09:44:50.259Z</time>
      </trkpt>
      <trkpt lat="47.84116" lon="6.98395">
        <ele>982.4</ele>
        <time>2026-08-27T09:44:51.267Z</time>
      </trkpt>
      <trkpt lat="47.84116" lon="6.98395">
        <ele>982.2</ele>
        <time>2026-08-27T09:44:52.275Z</time>
      </trkpt>
      <trkpt lat="47.84116" lon="6.98396">
        <ele>982.3</ele>
        <time>2026-08-27T09:44:54.189Z</time>
      </trkpt>
      <trkpt lat="47.84116" lon="6.98397">
        <ele>981.8</ele>
        <time>2026-08-27T09:44:55.198Z</time>
      </trkpt>
      <trkpt lat="47.84116" lon="6.98399">
        <ele>981.3</ele>
        <time>2026-08-27T09:44:57.214Z</time>
      </trkpt>
      <trkpt lat="47.84117" lon="6.98401">
        <ele>981</ele>
        <time>2026-08-27T09:44:58.223Z</time>
      </trkpt>
      <trkpt lat="47.84117" lon="6.98403">
        <ele>980.7</ele>
        <time>2026-08-27T09:44:59.230Z</time>
      </trkpt>
      <trkpt lat="47.84117" lon="6.98404">
        <ele>980.5</ele>
        <time>2026-08-27T09:45:00.238Z</time>
      </trkpt>
      <trkpt lat="47.84117" lon="6.98405">
        <ele>980.6</ele>
        <time>2026-08-27T09:45:01.246Z</time>
      </trkpt>
      <trkpt lat="47.84118" lon="6.98406">
        <ele>980.5</ele>
        <time>2026-08-27T09:45:02.254Z</time>
      </trkpt>
      <trkpt lat="47.84119" lon="6.98407">
        <ele>980.4</ele>
        <time>2026-08-27T09:45:03.263Z</time>
      </trkpt>
      <trkpt lat="47.84118" lon="6.98409">
        <ele>980.6</ele>
        <time>2026-08-27T09:45:05.161Z</time>
      </trkpt>
      <trkpt lat="47.84118" lon="6.98408">
        <ele>980.6</ele>
        <time>2026-08-27T09:45:06.191Z</time>
      </trkpt>
      <trkpt lat="47.84118" lon="6.98408">
        <ele>980.5</ele>
        <time>2026-08-27T09:45:07.198Z</time>
      </trkpt>
      <trkpt lat="47.84119" lon="6.98408">
        <ele>980.5</ele>
        <time>2026-08-27T09:45:08.206Z</time>
      </trkpt>
      <trkpt lat="47.84119" lon="6.98407">
        <ele>980.4</ele>
        <time>2026-08-27T09:45:09.215Z</time>
      </trkpt>
      <trkpt lat="47.84119" lon="6.98407">
        <ele>980.4</ele>
        <time>2026-08-27T09:45:10.222Z</time>
      </trkpt>
      <trkpt lat="47.84119" lon="6.98407">
        <ele>980.4</ele>
        <time>2026-08-27T09:45:11.230Z</time>
      </trkpt>
      <trkpt lat="47.84119" lon="6.98407">
        <ele>980.3</ele>
        <time>2026-08-27T09:45:12.239Z</time>
      </trkpt>
      <trkpt lat="47.84119" lon="6.98407">
        <ele>980.4</ele>
        <time>2026-08-27T09:45:13.246Z</time>
      </trkpt>
      <trkpt lat="47.84119" lon="6.98407">
        <ele>980.4</ele>
        <time>2026-08-27T09:45:14.255Z</time>
      </trkpt>
      <trkpt lat="47.8412" lon="6.98407">
        <ele>980.6</ele>
        <time>2026-08-27T09:45:16.170Z</time>
      </trkpt>
      <trkpt lat="47.84121" lon="6.98407">
        <ele>980.2</ele>
        <time>2026-08-27T09:45:17.280Z</time>
      </trkpt>
      <trkpt lat="47.84123" lon="6.9841">
        <ele>979.7</ele>
        <time>2026-08-27T09:45:19.194Z</time>
      </trkpt>
      <trkpt lat="47.84125" lon="6.98411">
        <ele>980</ele>
        <time>2026-08-27T09:45:20.203Z</time>
      </trkpt>
      <trkpt lat="47.84126" lon="6.98412">
        <ele>979.6</ele>
        <time>2026-08-27T09:45:21.211Z</time>
      </trkpt>
      <trkpt lat="47.84127" lon="6.98414">
        <ele>979.6</ele>
        <time>2026-08-27T09:45:22.231Z</time>
      </trkpt>
      <trkpt lat="47.84127" lon="6.98419">
        <ele>978.6</ele>
        <time>2026-08-27T09:45:24.172Z</time>
      </trkpt>
      <trkpt lat="47.84128" lon="6.9842">
        <ele>978.7</ele>
        <time>2026-08-27T09:45:25.243Z</time>
      </trkpt>
      <trkpt lat="47.84129" lon="6.98421">
        <ele>978.5</ele>
        <time>2026-08-27T09:45:26.251Z</time>
      </trkpt>
      <trkpt lat="47.84129" lon="6.98422">
        <ele>978.3</ele>
        <time>2026-08-27T09:45:27.260Z</time>
      </trkpt>
      <trkpt lat="47.84131" lon="6.98424">
        <ele>978.2</ele>
        <time>2026-08-27T09:45:29.179Z</time>
      </trkpt>
      <trkpt lat="47.84132" lon="6.98425">
        <ele>978.4</ele>
        <time>2026-08-27T09:45:30.187Z</time>
      </trkpt>
      <trkpt lat="47.84133" lon="6.98426">
        <ele>978.4</ele>
        <time>2026-08-27T09:45:31.204Z</time>
      </trkpt>
      <trkpt lat="47.84134" lon="6.98427">
        <ele>978.5</ele>
        <time>2026-08-27T09:45:32.246Z</time>
      </trkpt>
      <trkpt lat="47.84135" lon="6.98429">
        <ele>978.2</ele>
        <time>2026-08-27T09:45:34.220Z</time>
      </trkpt>
      <trkpt lat="47.84135" lon="6.9843">
        <ele>978.3</ele>
        <time>2026-08-27T09:45:35.228Z</time>
      </trkpt>
      <trkpt lat="47.84136" lon="6.98431">
        <ele>977.9</ele>
        <time>2026-08-27T09:45:36.236Z</time>
      </trkpt>
      <trkpt lat="47.84137" lon="6.98432">
        <ele>977.7</ele>
        <time>2026-08-27T09:45:37.244Z</time>
      </trkpt>
      <trkpt lat="47.84137" lon="6.98434">
        <ele>977.7</ele>
        <time>2026-08-27T09:45:38.247Z</time>
      </trkpt>
      <trkpt lat="47.84138" lon="6.98435">
        <ele>977.3</ele>
        <time>2026-08-27T09:45:39.261Z</time>
      </trkpt>
      <trkpt lat="47.84139" lon="6.98436">
        <ele>977.3</ele>
        <time>2026-08-27T09:45:40.269Z</time>
      </trkpt>
      <trkpt lat="47.84141" lon="6.98439">
        <ele>977</ele>
        <time>2026-08-27T09:45:42.184Z</time>
      </trkpt>
      <trkpt lat="47.84142" lon="6.9844">
        <ele>976.9</ele>
        <time>2026-08-27T09:45:43.192Z</time>
      </trkpt>
      <trkpt lat="47.84143" lon="6.98441">
        <ele>976.5</ele>
        <time>2026-08-27T09:45:44.200Z</time>
      </trkpt>
      <trkpt lat="47.84144" lon="6.98441">
        <ele>976.4</ele>
        <time>2026-08-27T09:45:45.208Z</time>
      </trkpt>
      <trkpt lat="47.84145" lon="6.98442">
        <ele>976.4</ele>
        <time>2026-08-27T09:45:46.217Z</time>
      </trkpt>
      <trkpt lat="47.84145" lon="6.98443">
        <ele>976.1</ele>
        <time>2026-08-27T09:45:47.225Z</time>
      </trkpt>
      <trkpt lat="47.84146" lon="6.98444">
        <ele>976</ele>
        <time>2026-08-27T09:45:48.233Z</time>
      </trkpt>
      <trkpt lat="47.84147" lon="6.98445">
        <ele>976.4</ele>
        <time>2026-08-27T09:45:49.242Z</time>
      </trkpt>
      <trkpt lat="47.84147" lon="6.98446">
        <ele>975.7</ele>
        <time>2026-08-27T09:45:50.250Z</time>
      </trkpt>
      <trkpt lat="47.84146" lon="6.98446">
        <ele>976.2</ele>
        <time>2026-08-27T09:45:51.257Z</time>
      </trkpt>
      <trkpt lat="47.84146" lon="6.98445">
        <ele>975.2</ele>
        <time>2026-08-27T09:45:53.174Z</time>
      </trkpt>
      <trkpt lat="47.84146" lon="6.98444">
        <ele>975.3</ele>
        <time>2026-08-27T09:45:54.181Z</time>
      </trkpt>
      <trkpt lat="47.84146" lon="6.98443">
        <ele>975.3</ele>
        <time>2026-08-27T09:45:55.190Z</time>
      </trkpt>
      <trkpt lat="47.84145" lon="6.98442">
        <ele>975.2</ele>
        <time>2026-08-27T09:45:56.197Z</time>
      </trkpt>
      <trkpt lat="47.84145" lon="6.98442">
        <ele>975</ele>
        <time>2026-08-27T09:45:57.206Z</time>
      </trkpt>
      <trkpt lat="47.84145" lon="6.98442">
        <ele>975</ele>
        <time>2026-08-27T09:45:58.214Z</time>
      </trkpt>
      <trkpt lat="47.84145" lon="6.98442">
        <ele>975.2</ele>
        <time>2026-08-27T09:45:59.221Z</time>
      </trkpt>
      <trkpt lat="47.84145" lon="6.98442">
        <ele>975.3</ele>
        <time>2026-08-27T09:46:00.230Z</time>
      </trkpt>
      <trkpt lat="47.84145" lon="6.98443">
        <ele>975.3</ele>
        <time>2026-08-27T09:46:01.239Z</time>
      </trkpt>
      <trkpt lat="47.84145" lon="6.98443">
        <ele>975.5</ele>
        <time>2026-08-27T09:46:02.246Z</time>
      </trkpt>
      <trkpt lat="47.84145" lon="6.98443">
        <ele>975.5</ele>
        <time>2026-08-27T09:46:03.254Z</time>
      </trkpt>
      <trkpt lat="47.84145" lon="6.98444">
        <ele>975.5</ele>
        <time>2026-08-27T09:46:04.262Z</time>
      </trkpt>
      <trkpt lat="47.84145" lon="6.98444">
        <ele>975.4</ele>
        <time>2026-08-27T09:46:06.279Z</time>
      </trkpt>
      <trkpt lat="47.84145" lon="6.98443">
        <ele>975.1</ele>
        <time>2026-08-27T09:46:08.194Z</time>
      </trkpt>
      <trkpt lat="47.84145" lon="6.98443">
        <ele>975.2</ele>
        <time>2026-08-27T09:46:09.202Z</time>
      </trkpt>
      <trkpt lat="47.84145" lon="6.98443">
        <ele>975.3</ele>
        <time>2026-08-27T09:46:10.210Z</time>
      </trkpt>
      <trkpt lat="47.84145" lon="6.98443">
        <ele>974.9</ele>
        <time>2026-08-27T09:46:11.218Z</time>
      </trkpt>
      <trkpt lat="47.84145" lon="6.98443">
        <ele>974.8</ele>
        <time>2026-08-27T09:46:12.226Z</time>
      </trkpt>
      <trkpt lat="47.84145" lon="6.98443">
        <ele>974.9</ele>
        <time>2026-08-27T09:46:13.234Z</time>
      </trkpt>
      <trkpt lat="47.84145" lon="6.98442">
        <ele>974.9</ele>
        <time>2026-08-27T09:46:14.243Z</time>
      </trkpt>
      <trkpt lat="47.84145" lon="6.98442">
        <ele>975</ele>
        <time>2026-08-27T09:46:15.251Z</time>
      </trkpt>
      <trkpt lat="47.84145" lon="6.98442">
        <ele>974.9</ele>
        <time>2026-08-27T09:46:16.259Z</time>
      </trkpt>
      <trkpt lat="47.84145" lon="6.98442">
        <ele>974.8</ele>
        <time>2026-08-27T09:46:17.267Z</time>
      </trkpt>
      <trkpt lat="47.84145" lon="6.98442">
        <ele>975.4</ele>
        <time>2026-08-27T09:46:18.275Z</time>
      </trkpt>
      <trkpt lat="47.84145" lon="6.98442">
        <ele>975.4</ele>
        <time>2026-08-27T09:46:20.190Z</time>
      </trkpt>
      <trkpt lat="47.84145" lon="6.98442">
        <ele>975</ele>
        <time>2026-08-27T09:46:21.198Z</time>
      </trkpt>
      <trkpt lat="47.84145" lon="6.98443">
        <ele>974.7</ele>
        <time>2026-08-27T09:46:22.207Z</time>
      </trkpt>
      <trkpt lat="47.84145" lon="6.98443">
        <ele>974.9</ele>
        <time>2026-08-27T09:46:23.216Z</time>
      </trkpt>
      <trkpt lat="47.84145" lon="6.98444">
        <ele>974.9</ele>
        <time>2026-08-27T09:46:24.223Z</time>
      </trkpt>
      <trkpt lat="47.84146" lon="6.98446">
        <ele>974.8</ele>
        <time>2026-08-27T09:46:25.232Z</time>
      </trkpt>
      <trkpt lat="47.84147" lon="6.98449">
        <ele>974.6</ele>
        <time>2026-08-27T09:46:26.239Z</time>
      </trkpt>
      <trkpt lat="47.84148" lon="6.98452">
        <ele>974.6</ele>
        <time>2026-08-27T09:46:27.248Z</time>
      </trkpt>
      <trkpt lat="47.84149" lon="6.98456">
        <ele>974.7</ele>
        <time>2026-08-27T09:46:29.221Z</time>
      </trkpt>
      <trkpt lat="47.84149" lon="6.98457">
        <ele>974.7</ele>
        <time>2026-08-27T09:46:30.272Z</time>
      </trkpt>
      <trkpt lat="47.8415" lon="6.98461">
        <ele>974.7</ele>
        <time>2026-08-27T09:46:32.279Z</time>
      </trkpt>
      <trkpt lat="47.84151" lon="6.98465">
        <ele>974.1</ele>
        <time>2026-08-27T09:46:34.203Z</time>
      </trkpt>
      <trkpt lat="47.84151" lon="6.98466">
        <ele>974</ele>
        <time>2026-08-27T09:46:35.211Z</time>
      </trkpt>
      <trkpt lat="47.84151" lon="6.98468">
        <ele>974</ele>
        <time>2026-08-27T09:46:37.169Z</time>
      </trkpt>
      <trkpt lat="47.84151" lon="6.98469">
        <ele>973.5</ele>
        <time>2026-08-27T09:46:38.236Z</time>
      </trkpt>
      <trkpt lat="47.8415" lon="6.9847">
        <ele>973.6</ele>
        <time>2026-08-27T09:46:39.244Z</time>
      </trkpt>
      <trkpt lat="47.8415" lon="6.9847">
        <ele>973.1</ele>
        <time>2026-08-27T09:46:40.252Z</time>
      </trkpt>
      <trkpt lat="47.8415" lon="6.98469">
        <ele>972.9</ele>
        <time>2026-08-27T09:46:41.261Z</time>
      </trkpt>
      <trkpt lat="47.84151" lon="6.98469">
        <ele>973</ele>
        <time>2026-08-27T09:46:42.268Z</time>
      </trkpt>
      <trkpt lat="47.84151" lon="6.98469">
        <ele>973.4</ele>
        <time>2026-08-27T09:46:44.125Z</time>
      </trkpt>
      <trkpt lat="47.84151" lon="6.98471">
        <ele>973.4</ele>
        <time>2026-08-27T09:46:45.192Z</time>
      </trkpt>
      <trkpt lat="47.84151" lon="6.98473">
        <ele>973.4</ele>
        <time>2026-08-27T09:46:46.201Z</time>
      </trkpt>
      <trkpt lat="47.84151" lon="6.98475">
        <ele>973.2</ele>
        <time>2026-08-27T09:46:47.209Z</time>
      </trkpt>
      <trkpt lat="47.84151" lon="6.98477">
        <ele>972.9</ele>
        <time>2026-08-27T09:46:48.216Z</time>
      </trkpt>
      <trkpt lat="47.84151" lon="6.98479">
        <ele>973.1</ele>
        <time>2026-08-27T09:46:49.224Z</time>
      </trkpt>
      <trkpt lat="47.84151" lon="6.98481">
        <ele>972.5</ele>
        <time>2026-08-27T09:46:50.233Z</time>
      </trkpt>
      <trkpt lat="47.84151" lon="6.98484">
        <ele>972.5</ele>
        <time>2026-08-27T09:46:52.249Z</time>
      </trkpt>
      <trkpt lat="47.84151" lon="6.98488">
        <ele>972.5</ele>
        <time>2026-08-27T09:46:54.265Z</time>
      </trkpt>
      <trkpt lat="47.84151" lon="6.98491">
        <ele>972.5</ele>
        <time>2026-08-27T09:46:56.180Z</time>
      </trkpt>
      <trkpt lat="47.84151" lon="6.98495">
        <ele>972.8</ele>
        <time>2026-08-27T09:46:58.298Z</time>
      </trkpt>
      <trkpt lat="47.84152" lon="6.98498">
        <ele>973.1</ele>
        <time>2026-08-27T09:47:00.214Z</time>
      </trkpt>
      <trkpt lat="47.84152" lon="6.985">
        <ele>973.1</ele>
        <time>2026-08-27T09:47:01.221Z</time>
      </trkpt>
      <trkpt lat="47.84152" lon="6.98501">
        <ele>973.3</ele>
        <time>2026-08-27T09:47:02.229Z</time>
      </trkpt>
      <trkpt lat="47.84153" lon="6.98502">
        <ele>973.3</ele>
        <time>2026-08-27T09:47:03.229Z</time>
      </trkpt>
      <trkpt lat="47.84153" lon="6.98503">
        <ele>973.4</ele>
        <time>2026-08-27T09:47:04.246Z</time>
      </trkpt>
      <trkpt lat="47.84154" lon="6.98504">
        <ele>973.4</ele>
        <time>2026-08-27T09:47:05.253Z</time>
      </trkpt>
      <trkpt lat="47.84154" lon="6.98506">
        <ele>973.2</ele>
        <time>2026-08-27T09:47:06.262Z</time>
      </trkpt>
      <trkpt lat="47.84154" lon="6.98508">
        <ele>973.5</ele>
        <time>2026-08-27T09:47:07.270Z</time>
      </trkpt>
      <trkpt lat="47.84154" lon="6.98511">
        <ele>973.4</ele>
        <time>2026-08-27T09:47:09.105Z</time>
      </trkpt>
      <trkpt lat="47.84154" lon="6.98513">
        <ele>973.5</ele>
        <time>2026-08-27T09:47:10.193Z</time>
      </trkpt>
      <trkpt lat="47.84155" lon="6.98514">
        <ele>973.7</ele>
        <time>2026-08-27T09:47:11.201Z</time>
      </trkpt>
      <trkpt lat="47.84155" lon="6.98516">
        <ele>974</ele>
        <time>2026-08-27T09:47:12.210Z</time>
      </trkpt>
      <trkpt lat="47.84155" lon="6.98517">
        <ele>974.1</ele>
        <time>2026-08-27T09:47:13.219Z</time>
      </trkpt>
      <trkpt lat="47.84154" lon="6.98519">
        <ele>974.3</ele>
        <time>2026-08-27T09:47:14.227Z</time>
      </trkpt>
      <trkpt lat="47.84155" lon="6.98522">
        <ele>974.3</ele>
        <time>2026-08-27T09:47:16.242Z</time>
      </trkpt>
      <trkpt lat="47.84155" lon="6.98524">
        <ele>973.8</ele>
        <time>2026-08-27T09:47:17.251Z</time>
      </trkpt>
      <trkpt lat="47.84155" lon="6.98525">
        <ele>974</ele>
        <time>2026-08-27T09:47:18.258Z</time>
      </trkpt>
      <trkpt lat="47.84156" lon="6.98527">
        <ele>973.9</ele>
        <time>2026-08-27T09:47:19.266Z</time>
      </trkpt>
      <trkpt lat="47.84156" lon="6.98529">
        <ele>973.8</ele>
        <time>2026-08-27T09:47:20.275Z</time>
      </trkpt>
      <trkpt lat="47.84156" lon="6.98533">
        <ele>974.4</ele>
        <time>2026-08-27T09:47:22.190Z</time>
      </trkpt>
      <trkpt lat="47.84156" lon="6.98534">
        <ele>974.1</ele>
        <time>2026-08-27T09:47:23.199Z</time>
      </trkpt>
      <trkpt lat="47.84156" lon="6.98536">
        <ele>973.8</ele>
        <time>2026-08-27T09:47:24.206Z</time>
      </trkpt>
      <trkpt lat="47.84156" lon="6.98538">
        <ele>974.1</ele>
        <time>2026-08-27T09:47:25.215Z</time>
      </trkpt>
      <trkpt lat="47.84156" lon="6.9854">
        <ele>974.2</ele>
        <time>2026-08-27T09:47:26.223Z</time>
      </trkpt>
      <trkpt lat="47.84156" lon="6.98541">
        <ele>974.5</ele>
        <time>2026-08-27T09:47:27.232Z</time>
      </trkpt>
      <trkpt lat="47.84157" lon="6.98544">
        <ele>974.8</ele>
        <time>2026-08-27T09:47:29.247Z</time>
      </trkpt>
      <trkpt lat="47.84157" lon="6.98545">
        <ele>974.7</ele>
        <time>2026-08-27T09:47:30.255Z</time>
      </trkpt>
      <trkpt lat="47.84157" lon="6.98546">
        <ele>975</ele>
        <time>2026-08-27T09:47:31.264Z</time>
      </trkpt>
      <trkpt lat="47.84157" lon="6.98549">
        <ele>975.3</ele>
        <time>2026-08-27T09:47:33.280Z</time>
      </trkpt>
      <trkpt lat="47.84156" lon="6.98552">
        <ele>975.1</ele>
        <time>2026-08-27T09:47:35.195Z</time>
      </trkpt>
      <trkpt lat="47.84156" lon="6.98553">
        <ele>975.5</ele>
        <time>2026-08-27T09:47:36.203Z</time>
      </trkpt>
      <trkpt lat="47.84155" lon="6.98555">
        <ele>975.4</ele>
        <time>2026-08-27T09:47:37.212Z</time>
      </trkpt>
      <trkpt lat="47.84155" lon="6.98556">
        <ele>975.4</ele>
        <time>2026-08-27T09:47:38.237Z</time>
      </trkpt>
      <trkpt lat="47.84155" lon="6.98559">
        <ele>975.4</ele>
        <time>2026-08-27T09:47:40.236Z</time>
      </trkpt>
      <trkpt lat="47.84154" lon="6.98561">
        <ele>975.6</ele>
        <time>2026-08-27T09:47:41.245Z</time>
      </trkpt>
      <trkpt lat="47.84154" lon="6.98563">
        <ele>975.9</ele>
        <time>2026-08-27T09:47:42.252Z</time>
      </trkpt>
      <trkpt lat="47.84154" lon="6.98564">
        <ele>975.6</ele>
        <time>2026-08-27T09:47:43.260Z</time>
      </trkpt>
      <trkpt lat="47.84153" lon="6.98566">
        <ele>975.7</ele>
        <time>2026-08-27T09:47:44.268Z</time>
      </trkpt>
      <trkpt lat="47.84153" lon="6.98567">
        <ele>975.6</ele>
        <time>2026-08-27T09:47:45.277Z</time>
      </trkpt>
      <trkpt lat="47.84153" lon="6.98569">
        <ele>976</ele>
        <time>2026-08-27T09:47:47.192Z</time>
      </trkpt>
      <trkpt lat="47.84153" lon="6.9857">
        <ele>975.7</ele>
        <time>2026-08-27T09:47:48.201Z</time>
      </trkpt>
      <trkpt lat="47.84152" lon="6.98571">
        <ele>975.7</ele>
        <time>2026-08-27T09:47:49.233Z</time>
      </trkpt>
      <trkpt lat="47.84152" lon="6.98573">
        <ele>976.4</ele>
        <time>2026-08-27T09:47:51.224Z</time>
      </trkpt>
      <trkpt lat="47.84151" lon="6.98574">
        <ele>975.9</ele>
        <time>2026-08-27T09:47:52.238Z</time>
      </trkpt>
      <trkpt lat="47.84151" lon="6.98575">
        <ele>976</ele>
        <time>2026-08-27T09:47:53.245Z</time>
      </trkpt>
      <trkpt lat="47.8415" lon="6.98578">
        <ele>976.3</ele>
        <time>2026-08-27T09:47:55.262Z</time>
      </trkpt>
      <trkpt lat="47.84149" lon="6.9858">
        <ele>976.5</ele>
        <time>2026-08-27T09:47:57.290Z</time>
      </trkpt>
      <trkpt lat="47.84148" lon="6.98581">
        <ele>977</ele>
        <time>2026-08-27T09:47:58.550Z</time>
      </trkpt>
      <trkpt lat="47.84147" lon="6.98584">
        <ele>977.2</ele>
        <time>2026-08-27T09:48:00.206Z</time>
      </trkpt>
      <trkpt lat="47.84146" lon="6.98585">
        <ele>977.2</ele>
        <time>2026-08-27T09:48:01.213Z</time>
      </trkpt>
      <trkpt lat="47.84146" lon="6.98586">
        <ele>977.2</ele>
        <time>2026-08-27T09:48:02.255Z</time>
      </trkpt>
      <trkpt lat="47.84144" lon="6.98589">
        <ele>977.6</ele>
        <time>2026-08-27T09:48:04.154Z</time>
      </trkpt>
      <trkpt lat="47.84143" lon="6.98589">
        <ele>977.7</ele>
        <time>2026-08-27T09:48:05.246Z</time>
      </trkpt>
      <trkpt lat="47.84143" lon="6.9859">
        <ele>977.7</ele>
        <time>2026-08-27T09:48:06.271Z</time>
      </trkpt>
      <trkpt lat="47.84141" lon="6.98591">
        <ele>977.4</ele>
        <time>2026-08-27T09:48:08.270Z</time>
      </trkpt>
      <trkpt lat="47.8414" lon="6.98591">
        <ele>977.6</ele>
        <time>2026-08-27T09:48:09.278Z</time>
      </trkpt>
      <trkpt lat="47.84138" lon="6.98592">
        <ele>977.7</ele>
        <time>2026-08-27T09:48:11.194Z</time>
      </trkpt>
      <trkpt lat="47.84136" lon="6.98594">
        <ele>977.5</ele>
        <time>2026-08-27T09:48:13.211Z</time>
      </trkpt>
      <trkpt lat="47.84135" lon="6.98596">
        <ele>977.3</ele>
        <time>2026-08-27T09:48:15.252Z</time>
      </trkpt>
      <trkpt lat="47.84133" lon="6.98598">
        <ele>977.1</ele>
        <time>2026-08-27T09:48:17.243Z</time>
      </trkpt>
      <trkpt lat="47.84132" lon="6.98599">
        <ele>977</ele>
        <time>2026-08-27T09:48:18.251Z</time>
      </trkpt>
      <trkpt lat="47.84132" lon="6.98599">
        <ele>977.2</ele>
        <time>2026-08-27T09:48:19.259Z</time>
      </trkpt>
      <trkpt lat="47.84131" lon="6.986">
        <ele>977.1</ele>
        <time>2026-08-27T09:48:20.267Z</time>
      </trkpt>
      <trkpt lat="47.84129" lon="6.98601">
        <ele>976.8</ele>
        <time>2026-08-27T09:48:22.183Z</time>
      </trkpt>
      <trkpt lat="47.84129" lon="6.98603">
        <ele>976.9</ele>
        <time>2026-08-27T09:48:23.191Z</time>
      </trkpt>
      <trkpt lat="47.84128" lon="6.98604">
        <ele>977.2</ele>
        <time>2026-08-27T09:48:24.199Z</time>
      </trkpt>
      <trkpt lat="47.84127" lon="6.98605">
        <ele>977.3</ele>
        <time>2026-08-27T09:48:25.207Z</time>
      </trkpt>
      <trkpt lat="47.84125" lon="6.98607">
        <ele>977.8</ele>
        <time>2026-08-27T09:48:27.224Z</time>
      </trkpt>
      <trkpt lat="47.84124" lon="6.98607">
        <ele>977.7</ele>
        <time>2026-08-27T09:48:28.232Z</time>
      </trkpt>
      <trkpt lat="47.84124" lon="6.98608">
        <ele>977.9</ele>
        <time>2026-08-27T09:48:29.239Z</time>
      </trkpt>
      <trkpt lat="47.84123" lon="6.98609">
        <ele>977.9</ele>
        <time>2026-08-27T09:48:30.249Z</time>
      </trkpt>
      <trkpt lat="47.84121" lon="6.98611">
        <ele>978.1</ele>
        <time>2026-08-27T09:48:32.264Z</time>
      </trkpt>
      <trkpt lat="47.8412" lon="6.98614">
        <ele>978</ele>
        <time>2026-08-27T09:48:34.280Z</time>
      </trkpt>
      <trkpt lat="47.84119" lon="6.98615">
        <ele>978</ele>
        <time>2026-08-27T09:48:35.288Z</time>
      </trkpt>
      <trkpt lat="47.84118" lon="6.98619">
        <ele>977.6</ele>
        <time>2026-08-27T09:48:37.205Z</time>
      </trkpt>
      <trkpt lat="47.84118" lon="6.9862">
        <ele>977.8</ele>
        <time>2026-08-27T09:48:38.212Z</time>
      </trkpt>
      <trkpt lat="47.84117" lon="6.98622">
        <ele>977.8</ele>
        <time>2026-08-27T09:48:39.245Z</time>
      </trkpt>
      <trkpt lat="47.84118" lon="6.98626">
        <ele>977.7</ele>
        <time>2026-08-27T09:48:41.236Z</time>
      </trkpt>
      <trkpt lat="47.84117" lon="6.98627">
        <ele>977.6</ele>
        <time>2026-08-27T09:48:42.245Z</time>
      </trkpt>
      <trkpt lat="47.84117" lon="6.98629">
        <ele>977.5</ele>
        <time>2026-08-27T09:48:43.253Z</time>
      </trkpt>
      <trkpt lat="47.84117" lon="6.9863">
        <ele>977.5</ele>
        <time>2026-08-27T09:48:44.262Z</time>
      </trkpt>
      <trkpt lat="47.84116" lon="6.98633">
        <ele>977.4</ele>
        <time>2026-08-27T09:48:46.193Z</time>
      </trkpt>
      <trkpt lat="47.84115" lon="6.98634">
        <ele>977.4</ele>
        <time>2026-08-27T09:48:47.201Z</time>
      </trkpt>
      <trkpt lat="47.84114" lon="6.98635">
        <ele>977.5</ele>
        <time>2026-08-27T09:48:48.209Z</time>
      </trkpt>
      <trkpt lat="47.84113" lon="6.98636">
        <ele>977.5</ele>
        <time>2026-08-27T09:48:49.218Z</time>
      </trkpt>
      <trkpt lat="47.84112" lon="6.98637">
        <ele>977.3</ele>
        <time>2026-08-27T09:48:50.226Z</time>
      </trkpt>
      <trkpt lat="47.84111" lon="6.98638">
        <ele>977.3</ele>
        <time>2026-08-27T09:48:51.234Z</time>
      </trkpt>
      <trkpt lat="47.84109" lon="6.9864">
        <ele>977.4</ele>
        <time>2026-08-27T09:48:53.258Z</time>
      </trkpt>
      <trkpt lat="47.84108" lon="6.98643">
        <ele>977.7</ele>
        <time>2026-08-27T09:48:55.225Z</time>
      </trkpt>
      <trkpt lat="47.84108" lon="6.98645">
        <ele>978</ele>
        <time>2026-08-27T09:48:56.275Z</time>
      </trkpt>
      <trkpt lat="47.84106" lon="6.98648">
        <ele>977.9</ele>
        <time>2026-08-27T09:48:58.191Z</time>
      </trkpt>
      <trkpt lat="47.84106" lon="6.9865">
        <ele>977.6</ele>
        <time>2026-08-27T09:48:59.198Z</time>
      </trkpt>
      <trkpt lat="47.84106" lon="6.98652">
        <ele>977.6</ele>
        <time>2026-08-27T09:49:00.199Z</time>
      </trkpt>
      <trkpt lat="47.84105" lon="6.98653">
        <ele>977.7</ele>
        <time>2026-08-27T09:49:01.215Z</time>
      </trkpt>
      <trkpt lat="47.84104" lon="6.98654">
        <ele>977.2</ele>
        <time>2026-08-27T09:49:02.222Z</time>
      </trkpt>
      <trkpt lat="47.84104" lon="6.98656">
        <ele>977.4</ele>
        <time>2026-08-27T09:49:03.231Z</time>
      </trkpt>
      <trkpt lat="47.84103" lon="6.98658">
        <ele>977.3</ele>
        <time>2026-08-27T09:49:04.240Z</time>
      </trkpt>
      <trkpt lat="47.84102" lon="6.98659">
        <ele>976.8</ele>
        <time>2026-08-27T09:49:05.248Z</time>
      </trkpt>
      <trkpt lat="47.84101" lon="6.9866">
        <ele>976.8</ele>
        <time>2026-08-27T09:49:06.255Z</time>
      </trkpt>
      <trkpt lat="47.841" lon="6.98661">
        <ele>976.9</ele>
        <time>2026-08-27T09:49:07.263Z</time>
      </trkpt>
      <trkpt lat="47.84099" lon="6.98663">
        <ele>977</ele>
        <time>2026-08-27T09:49:09.279Z</time>
      </trkpt>
      <trkpt lat="47.84098" lon="6.98666">
        <ele>976.5</ele>
        <time>2026-08-27T09:49:11.195Z</time>
      </trkpt>
      <trkpt lat="47.84098" lon="6.98668">
        <ele>976.5</ele>
        <time>2026-08-27T09:49:12.208Z</time>
      </trkpt>
      <trkpt lat="47.84097" lon="6.98669">
        <ele>976.6</ele>
        <time>2026-08-27T09:49:13.215Z</time>
      </trkpt>
      <trkpt lat="47.84097" lon="6.98671">
        <ele>976.3</ele>
        <time>2026-08-27T09:49:14.228Z</time>
      </trkpt>
      <trkpt lat="47.84096" lon="6.98672">
        <ele>976.3</ele>
        <time>2026-08-27T09:49:15.236Z</time>
      </trkpt>
      <trkpt lat="47.84096" lon="6.98673">
        <ele>976.4</ele>
        <time>2026-08-27T09:49:16.244Z</time>
      </trkpt>
      <trkpt lat="47.84096" lon="6.98675">
        <ele>976.5</ele>
        <time>2026-08-27T09:49:17.252Z</time>
      </trkpt>
      <trkpt lat="47.84096" lon="6.98676">
        <ele>976.5</ele>
        <time>2026-08-27T09:49:18.260Z</time>
      </trkpt>
      <trkpt lat="47.84095" lon="6.98678">
        <ele>976.3</ele>
        <time>2026-08-27T09:49:19.269Z</time>
      </trkpt>
      <trkpt lat="47.84095" lon="6.98682">
        <ele>976.3</ele>
        <time>2026-08-27T09:49:21.209Z</time>
      </trkpt>
      <trkpt lat="47.84095" lon="6.98685">
        <ele>976.8</ele>
        <time>2026-08-27T09:49:23.204Z</time>
      </trkpt>
      <trkpt lat="47.84095" lon="6.98686">
        <ele>977.1</ele>
        <time>2026-08-27T09:49:24.214Z</time>
      </trkpt>
      <trkpt lat="47.84094" lon="6.98688">
        <ele>977</ele>
        <time>2026-08-27T09:49:25.221Z</time>
      </trkpt>
      <trkpt lat="47.84094" lon="6.9869">
        <ele>977</ele>
        <time>2026-08-27T09:49:26.229Z</time>
      </trkpt>
      <trkpt lat="47.84094" lon="6.98691">
        <ele>977.2</ele>
        <time>2026-08-27T09:49:27.237Z</time>
      </trkpt>
      <trkpt lat="47.84093" lon="6.98693">
        <ele>977.1</ele>
        <time>2026-08-27T09:49:28.245Z</time>
      </trkpt>
      <trkpt lat="47.84093" lon="6.98693">
        <ele>977.2</ele>
        <time>2026-08-27T09:49:29.253Z</time>
      </trkpt>
      <trkpt lat="47.84093" lon="6.98695">
        <ele>977.3</ele>
        <time>2026-08-27T09:49:30.261Z</time>
      </trkpt>
      <trkpt lat="47.84092" lon="6.98696">
        <ele>976.9</ele>
        <time>2026-08-27T09:49:31.270Z</time>
      </trkpt>
      <trkpt lat="47.84092" lon="6.98697">
        <ele>977.2</ele>
        <time>2026-08-27T09:49:32.278Z</time>
      </trkpt>
      <trkpt lat="47.84092" lon="6.987">
        <ele>976.9</ele>
        <time>2026-08-27T09:49:34.193Z</time>
      </trkpt>
      <trkpt lat="47.84092" lon="6.98702">
        <ele>976.9</ele>
        <time>2026-08-27T09:49:35.201Z</time>
      </trkpt>
      <trkpt lat="47.84092" lon="6.98703">
        <ele>977.1</ele>
        <time>2026-08-27T09:49:36.272Z</time>
      </trkpt>
      <trkpt lat="47.84091" lon="6.98706">
        <ele>977.4</ele>
        <time>2026-08-27T09:49:38.226Z</time>
      </trkpt>
      <trkpt lat="47.84091" lon="6.98707">
        <ele>977.3</ele>
        <time>2026-08-27T09:49:39.235Z</time>
      </trkpt>
      <trkpt lat="47.84091" lon="6.98708">
        <ele>977.2</ele>
        <time>2026-08-27T09:49:40.242Z</time>
      </trkpt>
      <trkpt lat="47.84091" lon="6.9871">
        <ele>977.2</ele>
        <time>2026-08-27T09:49:41.251Z</time>
      </trkpt>
      <trkpt lat="47.8409" lon="6.98712">
        <ele>977.2</ele>
        <time>2026-08-27T09:49:43.266Z</time>
      </trkpt>
      <trkpt lat="47.8409" lon="6.98714">
        <ele>977.5</ele>
        <time>2026-08-27T09:49:44.276Z</time>
      </trkpt>
      <trkpt lat="47.8409" lon="6.98718">
        <ele>977.5</ele>
        <time>2026-08-27T09:49:46.270Z</time>
      </trkpt>
      <trkpt lat="47.84091" lon="6.9872">
        <ele>977.6</ele>
        <time>2026-08-27T09:49:48.206Z</time>
      </trkpt>
      <trkpt lat="47.84091" lon="6.98722">
        <ele>977.5</ele>
        <time>2026-08-27T09:49:49.216Z</time>
      </trkpt>
      <trkpt lat="47.84091" lon="6.98723">
        <ele>977.5</ele>
        <time>2026-08-27T09:49:50.269Z</time>
      </trkpt>
      <trkpt lat="47.84091" lon="6.98726">
        <ele>978.1</ele>
        <time>2026-08-27T09:49:52.240Z</time>
      </trkpt>
      <trkpt lat="47.84091" lon="6.98728">
        <ele>978.5</ele>
        <time>2026-08-27T09:49:53.248Z</time>
      </trkpt>
      <trkpt lat="47.84091" lon="6.98729">
        <ele>978.6</ele>
        <time>2026-08-27T09:49:54.255Z</time>
      </trkpt>
      <trkpt lat="47.84091" lon="6.9873">
        <ele>978.7</ele>
        <time>2026-08-27T09:49:55.263Z</time>
      </trkpt>
      <trkpt lat="47.8409" lon="6.9873">
        <ele>979</ele>
        <time>2026-08-27T09:49:56.272Z</time>
      </trkpt>
      <trkpt lat="47.8409" lon="6.98729">
        <ele>979.3</ele>
        <time>2026-08-27T09:49:58.187Z</time>
      </trkpt>
      <trkpt lat="47.8409" lon="6.98729">
        <ele>979.1</ele>
        <time>2026-08-27T09:49:59.195Z</time>
      </trkpt>
      <trkpt lat="47.8409" lon="6.98728">
        <ele>979.1</ele>
        <time>2026-08-27T09:50:00.225Z</time>
      </trkpt>
      <trkpt lat="47.8409" lon="6.98728">
        <ele>979.3</ele>
        <time>2026-08-27T09:50:02.221Z</time>
      </trkpt>
      <trkpt lat="47.8409" lon="6.98728">
        <ele>979.1</ele>
        <time>2026-08-27T09:50:03.228Z</time>
      </trkpt>
      <trkpt lat="47.8409" lon="6.98727">
        <ele>979.3</ele>
        <time>2026-08-27T09:50:04.236Z</time>
      </trkpt>
      <trkpt lat="47.8409" lon="6.98728">
        <ele>979.6</ele>
        <time>2026-08-27T09:50:05.244Z</time>
      </trkpt>
      <trkpt lat="47.8409" lon="6.98728">
        <ele>979.5</ele>
        <time>2026-08-27T09:50:06.253Z</time>
      </trkpt>
      <trkpt lat="47.8409" lon="6.98729">
        <ele>979.7</ele>
        <time>2026-08-27T09:50:08.168Z</time>
      </trkpt>
      <trkpt lat="47.8409" lon="6.98729">
        <ele>979.5</ele>
        <time>2026-08-27T09:50:09.176Z</time>
      </trkpt>
      <trkpt lat="47.8409" lon="6.98729">
        <ele>979.5</ele>
        <time>2026-08-27T09:50:10.185Z</time>
      </trkpt>
      <trkpt lat="47.8409" lon="6.98729">
        <ele>979.6</ele>
        <time>2026-08-27T09:50:11.192Z</time>
      </trkpt>
      <trkpt lat="47.8409" lon="6.98729">
        <ele>979.4</ele>
        <time>2026-08-27T09:50:12.200Z</time>
      </trkpt>
      <trkpt lat="47.8409" lon="6.98729">
        <ele>979.7</ele>
        <time>2026-08-27T09:50:13.210Z</time>
      </trkpt>
      <trkpt lat="47.84091" lon="6.98729">
        <ele>979.6</ele>
        <time>2026-08-27T09:50:14.217Z</time>
      </trkpt>
      <trkpt lat="47.84091" lon="6.98729">
        <ele>979.9</ele>
        <time>2026-08-27T09:50:15.225Z</time>
      </trkpt>
      <trkpt lat="47.84091" lon="6.98729">
        <ele>979.7</ele>
        <time>2026-08-27T09:50:16.234Z</time>
      </trkpt>
      <trkpt lat="47.8409" lon="6.9873">
        <ele>979.4</ele>
        <time>2026-08-27T09:50:18.179Z</time>
      </trkpt>
      <trkpt lat="47.8409" lon="6.98733">
        <ele>979.9</ele>
        <time>2026-08-27T09:50:20.166Z</time>
      </trkpt>
      <trkpt lat="47.8409" lon="6.98736">
        <ele>979.9</ele>
        <time>2026-08-27T09:50:21.173Z</time>
      </trkpt>
      <trkpt lat="47.8409" lon="6.98738">
        <ele>980.1</ele>
        <time>2026-08-27T09:50:22.182Z</time>
      </trkpt>
      <trkpt lat="47.8409" lon="6.98739">
        <ele>980.1</ele>
        <time>2026-08-27T09:50:23.236Z</time>
      </trkpt>
      <trkpt lat="47.8409" lon="6.98742">
        <ele>980</ele>
        <time>2026-08-27T09:50:25.207Z</time>
      </trkpt>
      <trkpt lat="47.8409" lon="6.98744">
        <ele>979.8</ele>
        <time>2026-08-27T09:50:26.214Z</time>
      </trkpt>
      <trkpt lat="47.84089" lon="6.98746">
        <ele>979.9</ele>
        <time>2026-08-27T09:50:27.224Z</time>
      </trkpt>
      <trkpt lat="47.84089" lon="6.98747">
        <ele>979.6</ele>
        <time>2026-08-27T09:50:28.232Z</time>
      </trkpt>
      <trkpt lat="47.84088" lon="6.98749">
        <ele>979.4</ele>
        <time>2026-08-27T09:50:29.240Z</time>
      </trkpt>
      <trkpt lat="47.84088" lon="6.98751">
        <ele>979.6</ele>
        <time>2026-08-27T09:50:30.248Z</time>
      </trkpt>
      <trkpt lat="47.84087" lon="6.98752">
        <ele>979.6</ele>
        <time>2026-08-27T09:50:31.255Z</time>
      </trkpt>
      <trkpt lat="47.84087" lon="6.98756">
        <ele>979.6</ele>
        <time>2026-08-27T09:50:33.273Z</time>
      </trkpt>
      <trkpt lat="47.84087" lon="6.98757">
        <ele>979.9</ele>
        <time>2026-08-27T09:50:34.280Z</time>
      </trkpt>
      <trkpt lat="47.84086" lon="6.98761">
        <ele>980.1</ele>
        <time>2026-08-27T09:50:36.196Z</time>
      </trkpt>
      <trkpt lat="47.84086" lon="6.98762">
        <ele>980</ele>
        <time>2026-08-27T09:50:37.204Z</time>
      </trkpt>
      <trkpt lat="47.84086" lon="6.98763">
        <ele>980</ele>
        <time>2026-08-27T09:50:38.216Z</time>
      </trkpt>
      <trkpt lat="47.84085" lon="6.98765">
        <ele>980.1</ele>
        <time>2026-08-27T09:50:39.220Z</time>
      </trkpt>
      <trkpt lat="47.84085" lon="6.98766">
        <ele>980.2</ele>
        <time>2026-08-27T09:50:40.229Z</time>
      </trkpt>
      <trkpt lat="47.84085" lon="6.98767">
        <ele>980</ele>
        <time>2026-08-27T09:50:41.237Z</time>
      </trkpt>
      <trkpt lat="47.84085" lon="6.98769">
        <ele>980.1</ele>
        <time>2026-08-27T09:50:42.245Z</time>
      </trkpt>
      <trkpt lat="47.84085" lon="6.9877">
        <ele>980.1</ele>
        <time>2026-08-27T09:50:43.254Z</time>
      </trkpt>
      <trkpt lat="47.84085" lon="6.98773">
        <ele>980.3</ele>
        <time>2026-08-27T09:50:45.270Z</time>
      </trkpt>
      <trkpt lat="47.84085" lon="6.98777">
        <ele>980</ele>
        <time>2026-08-27T09:50:47.186Z</time>
      </trkpt>
      <trkpt lat="47.84085" lon="6.98779">
        <ele>980.2</ele>
        <time>2026-08-27T09:50:48.193Z</time>
      </trkpt>
      <trkpt lat="47.84085" lon="6.98781">
        <ele>980.2</ele>
        <time>2026-08-27T09:50:49.215Z</time>
      </trkpt>
      <trkpt lat="47.84085" lon="6.98785">
        <ele>980.7</ele>
        <time>2026-08-27T09:50:51.218Z</time>
      </trkpt>
      <trkpt lat="47.84084" lon="6.98786">
        <ele>980.6</ele>
        <time>2026-08-27T09:50:52.227Z</time>
      </trkpt>
      <trkpt lat="47.84084" lon="6.98788">
        <ele>980.4</ele>
        <time>2026-08-27T09:50:53.234Z</time>
      </trkpt>
      <trkpt lat="47.84084" lon="6.98789">
        <ele>980.7</ele>
        <time>2026-08-27T09:50:54.242Z</time>
      </trkpt>
      <trkpt lat="47.84084" lon="6.98791">
        <ele>980.7</ele>
        <time>2026-08-27T09:50:55.255Z</time>
      </trkpt>
      <trkpt lat="47.84084" lon="6.98792">
        <ele>980.7</ele>
        <time>2026-08-27T09:50:56.259Z</time>
      </trkpt>
      <trkpt lat="47.84084" lon="6.98794">
        <ele>980.6</ele>
        <time>2026-08-27T09:50:57.267Z</time>
      </trkpt>
      <trkpt lat="47.84084" lon="6.98795">
        <ele>980.5</ele>
        <time>2026-08-27T09:50:58.275Z</time>
      </trkpt>
      <trkpt lat="47.84083" lon="6.98798">
        <ele>980.9</ele>
        <time>2026-08-27T09:51:00.178Z</time>
      </trkpt>
      <trkpt lat="47.84083" lon="6.98799">
        <ele>980.9</ele>
        <time>2026-08-27T09:51:01.200Z</time>
      </trkpt>
      <trkpt lat="47.84082" lon="6.988">
        <ele>981</ele>
        <time>2026-08-27T09:51:02.207Z</time>
      </trkpt>
      <trkpt lat="47.84082" lon="6.98802">
        <ele>981.4</ele>
        <time>2026-08-27T09:51:03.215Z</time>
      </trkpt>
      <trkpt lat="47.84081" lon="6.98803">
        <ele>981.3</ele>
        <time>2026-08-27T09:51:04.223Z</time>
      </trkpt>
      <trkpt lat="47.84081" lon="6.98804">
        <ele>981.6</ele>
        <time>2026-08-27T09:51:05.233Z</time>
      </trkpt>
      <trkpt lat="47.84081" lon="6.98806">
        <ele>981.3</ele>
        <time>2026-08-27T09:51:06.240Z</time>
      </trkpt>
      <trkpt lat="47.8408" lon="6.98808">
        <ele>981.2</ele>
        <time>2026-08-27T09:51:08.256Z</time>
      </trkpt>
      <trkpt lat="47.84079" lon="6.9881">
        <ele>981.3</ele>
        <time>2026-08-27T09:51:09.264Z</time>
      </trkpt>
      <trkpt lat="47.84079" lon="6.98811">
        <ele>981.3</ele>
        <time>2026-08-27T09:51:10.277Z</time>
      </trkpt>
      <trkpt lat="47.84078" lon="6.98812">
        <ele>981.4</ele>
        <time>2026-08-27T09:51:11.281Z</time>
      </trkpt>
      <trkpt lat="47.84077" lon="6.98813">
        <ele>981.9</ele>
        <time>2026-08-27T09:51:13.196Z</time>
      </trkpt>
      <trkpt lat="47.84076" lon="6.98815">
        <ele>981.8</ele>
        <time>2026-08-27T09:51:15.214Z</time>
      </trkpt>
      <trkpt lat="47.84076" lon="6.98816">
        <ele>981.8</ele>
        <time>2026-08-27T09:51:16.221Z</time>
      </trkpt>
      <trkpt lat="47.84075" lon="6.98818">
        <ele>982.1</ele>
        <time>2026-08-27T09:51:17.229Z</time>
      </trkpt>
      <trkpt lat="47.84074" lon="6.98819">
        <ele>982.4</ele>
        <time>2026-08-27T09:51:18.237Z</time>
      </trkpt>
      <trkpt lat="47.84073" lon="6.98821">
        <ele>982.4</ele>
        <time>2026-08-27T09:51:19.258Z</time>
      </trkpt>
      <trkpt lat="47.84072" lon="6.98824">
        <ele>982.7</ele>
        <time>2026-08-27T09:51:21.262Z</time>
      </trkpt>
      <trkpt lat="47.84071" lon="6.98827">
        <ele>982.9</ele>
        <time>2026-08-27T09:51:23.177Z</time>
      </trkpt>
      <trkpt lat="47.8407" lon="6.9883">
        <ele>983</ele>
        <time>2026-08-27T09:51:25.193Z</time>
      </trkpt>
      <trkpt lat="47.84069" lon="6.98831">
        <ele>982.7</ele>
        <time>2026-08-27T09:51:26.202Z</time>
      </trkpt>
      <trkpt lat="47.84069" lon="6.98832">
        <ele>982.7</ele>
        <time>2026-08-27T09:51:27.211Z</time>
      </trkpt>
      <trkpt lat="47.84068" lon="6.98833">
        <ele>983</ele>
        <time>2026-08-27T09:51:28.218Z</time>
      </trkpt>
      <trkpt lat="47.84067" lon="6.98834">
        <ele>983</ele>
        <time>2026-08-27T09:51:29.226Z</time>
      </trkpt>
      <trkpt lat="47.84067" lon="6.98835">
        <ele>982.8</ele>
        <time>2026-08-27T09:51:30.234Z</time>
      </trkpt>
      <trkpt lat="47.84066" lon="6.98837">
        <ele>983</ele>
        <time>2026-08-27T09:51:31.243Z</time>
      </trkpt>
      <trkpt lat="47.84065" lon="6.98838">
        <ele>983.4</ele>
        <time>2026-08-27T09:51:32.252Z</time>
      </trkpt>
      <trkpt lat="47.84064" lon="6.98838">
        <ele>983.3</ele>
        <time>2026-08-27T09:51:33.259Z</time>
      </trkpt>
      <trkpt lat="47.84063" lon="6.98838">
        <ele>983.5</ele>
        <time>2026-08-27T09:51:34.267Z</time>
      </trkpt>
      <trkpt lat="47.8406" lon="6.98838">
        <ele>983.2</ele>
        <time>2026-08-27T09:51:36.183Z</time>
      </trkpt>
      <trkpt lat="47.84059" lon="6.98837">
        <ele>983.2</ele>
        <time>2026-08-27T09:51:37.191Z</time>
      </trkpt>
      <trkpt lat="47.84058" lon="6.98838">
        <ele>983.3</ele>
        <time>2026-08-27T09:51:38.200Z</time>
      </trkpt>
      <trkpt lat="47.84057" lon="6.98838">
        <ele>983.1</ele>
        <time>2026-08-27T09:51:39.207Z</time>
      </trkpt>
      <trkpt lat="47.84056" lon="6.98839">
        <ele>983.1</ele>
        <time>2026-08-27T09:51:40.278Z</time>
      </trkpt>
      <trkpt lat="47.84054" lon="6.98841">
        <ele>983.5</ele>
        <time>2026-08-27T09:51:42.231Z</time>
      </trkpt>
      <trkpt lat="47.84053" lon="6.98842">
        <ele>983.5</ele>
        <time>2026-08-27T09:51:43.236Z</time>
      </trkpt>
      <trkpt lat="47.84052" lon="6.98843">
        <ele>983.3</ele>
        <time>2026-08-27T09:51:44.248Z</time>
      </trkpt>
      <trkpt lat="47.84051" lon="6.98844">
        <ele>983.3</ele>
        <time>2026-08-27T09:51:45.256Z</time>
      </trkpt>
      <trkpt lat="47.84051" lon="6.98845">
        <ele>983.7</ele>
        <time>2026-08-27T09:51:46.265Z</time>
      </trkpt>
      <trkpt lat="47.8405" lon="6.98846">
        <ele>983.9</ele>
        <time>2026-08-27T09:51:47.272Z</time>
      </trkpt>
      <trkpt lat="47.84049" lon="6.98847">
        <ele>984.2</ele>
        <time>2026-08-27T09:51:48.281Z</time>
      </trkpt>
      <trkpt lat="47.84048" lon="6.98849">
        <ele>984.5</ele>
        <time>2026-08-27T09:51:50.196Z</time>
      </trkpt>
      <trkpt lat="47.84047" lon="6.9885">
        <ele>984.4</ele>
        <time>2026-08-27T09:51:51.205Z</time>
      </trkpt>
      <trkpt lat="47.84046" lon="6.98851">
        <ele>984.6</ele>
        <time>2026-08-27T09:51:52.212Z</time>
      </trkpt>
      <trkpt lat="47.84045" lon="6.98852">
        <ele>984.5</ele>
        <time>2026-08-27T09:51:53.221Z</time>
      </trkpt>
      <trkpt lat="47.84044" lon="6.98852">
        <ele>984.6</ele>
        <time>2026-08-27T09:51:54.230Z</time>
      </trkpt>
      <trkpt lat="47.84043" lon="6.98853">
        <ele>984.7</ele>
        <time>2026-08-27T09:51:55.237Z</time>
      </trkpt>
      <trkpt lat="47.84042" lon="6.98853">
        <ele>984.6</ele>
        <time>2026-08-27T09:51:56.245Z</time>
      </trkpt>
      <trkpt lat="47.84042" lon="6.98855">
        <ele>984.7</ele>
        <time>2026-08-27T09:51:57.253Z</time>
      </trkpt>
      <trkpt lat="47.84041" lon="6.98856">
        <ele>984.7</ele>
        <time>2026-08-27T09:51:58.261Z</time>
      </trkpt>
      <trkpt lat="47.84041" lon="6.98857">
        <ele>984.8</ele>
        <time>2026-08-27T09:51:59.269Z</time>
      </trkpt>
      <trkpt lat="47.8404" lon="6.98859">
        <ele>984.9</ele>
        <time>2026-08-27T09:52:00.278Z</time>
      </trkpt>
      <trkpt lat="47.84039" lon="6.9886">
        <ele>985.3</ele>
        <time>2026-08-27T09:52:02.193Z</time>
      </trkpt>
      <trkpt lat="47.84037" lon="6.98862">
        <ele>985.5</ele>
        <time>2026-08-27T09:52:04.209Z</time>
      </trkpt>
      <trkpt lat="47.84037" lon="6.98862">
        <ele>985.4</ele>
        <time>2026-08-27T09:52:05.217Z</time>
      </trkpt>
      <trkpt lat="47.84036" lon="6.98863">
        <ele>985.4</ele>
        <time>2026-08-27T09:52:06.273Z</time>
      </trkpt>
      <trkpt lat="47.84034" lon="6.98865">
        <ele>985.3</ele>
        <time>2026-08-27T09:52:08.213Z</time>
      </trkpt>
      <trkpt lat="47.84033" lon="6.98865">
        <ele>985.8</ele>
        <time>2026-08-27T09:52:09.251Z</time>
      </trkpt>
      <trkpt lat="47.84032" lon="6.98866">
        <ele>985.9</ele>
        <time>2026-08-27T09:52:10.258Z</time>
      </trkpt>
      <trkpt lat="47.84031" lon="6.98867">
        <ele>986.2</ele>
        <time>2026-08-27T09:52:11.267Z</time>
      </trkpt>
      <trkpt lat="47.8403" lon="6.98868">
        <ele>986.2</ele>
        <time>2026-08-27T09:52:12.276Z</time>
      </trkpt>
      <trkpt lat="47.8403" lon="6.98869">
        <ele>986</ele>
        <time>2026-08-27T09:52:13.284Z</time>
      </trkpt>
      <trkpt lat="47.84029" lon="6.98872">
        <ele>986.3</ele>
        <time>2026-08-27T09:52:15.199Z</time>
      </trkpt>
      <trkpt lat="47.84029" lon="6.98873">
        <ele>986.3</ele>
        <time>2026-08-27T09:52:16.207Z</time>
      </trkpt>
      <trkpt lat="47.84029" lon="6.98872">
        <ele>986.5</ele>
        <time>2026-08-27T09:52:17.215Z</time>
      </trkpt>
      <trkpt lat="47.84029" lon="6.98872">
        <ele>986.6</ele>
        <time>2026-08-27T09:52:18.224Z</time>
      </trkpt>
      <trkpt lat="47.8403" lon="6.98871">
        <ele>986.6</ele>
        <time>2026-08-27T09:52:19.231Z</time>
      </trkpt>
      <trkpt lat="47.8403" lon="6.98871">
        <ele>986.6</ele>
        <time>2026-08-27T09:52:20.240Z</time>
      </trkpt>
      <trkpt lat="47.84031" lon="6.98871">
        <ele>986.6</ele>
        <time>2026-08-27T09:52:22.234Z</time>
      </trkpt>
      <trkpt lat="47.84031" lon="6.98871">
        <ele>986.5</ele>
        <time>2026-08-27T09:52:23.263Z</time>
      </trkpt>
      <trkpt lat="47.84031" lon="6.98872">
        <ele>986.6</ele>
        <time>2026-08-27T09:52:24.272Z</time>
      </trkpt>
      <trkpt lat="47.84031" lon="6.98872">
        <ele>986.7</ele>
        <time>2026-08-27T09:52:26.289Z</time>
      </trkpt>
      <trkpt lat="47.84031" lon="6.98873">
        <ele>986.4</ele>
        <time>2026-08-27T09:52:28.203Z</time>
      </trkpt>
      <trkpt lat="47.84031" lon="6.98873">
        <ele>986.6</ele>
        <time>2026-08-27T09:52:29.212Z</time>
      </trkpt>
      <trkpt lat="47.84031" lon="6.98874">
        <ele>986.7</ele>
        <time>2026-08-27T09:52:30.220Z</time>
      </trkpt>
      <trkpt lat="47.8403" lon="6.98876">
        <ele>986.7</ele>
        <time>2026-08-27T09:52:31.229Z</time>
      </trkpt>
      <trkpt lat="47.8403" lon="6.98879">
        <ele>986.4</ele>
        <time>2026-08-27T09:52:32.236Z</time>
      </trkpt>
      <trkpt lat="47.8403" lon="6.98882">
        <ele>986.4</ele>
        <time>2026-08-27T09:52:33.244Z</time>
      </trkpt>
      <trkpt lat="47.8403" lon="6.98886">
        <ele>986.2</ele>
        <time>2026-08-27T09:52:35.250Z</time>
      </trkpt>
      <trkpt lat="47.8403" lon="6.98888">
        <ele>985.5</ele>
        <time>2026-08-27T09:52:36.269Z</time>
      </trkpt>
      <trkpt lat="47.8403" lon="6.98892">
        <ele>985.7</ele>
        <time>2026-08-27T09:52:38.298Z</time>
      </trkpt>
      <trkpt lat="47.8403" lon="6.98895">
        <ele>985.9</ele>
        <time>2026-08-27T09:52:40.221Z</time>
      </trkpt>
      <trkpt lat="47.84029" lon="6.98897">
        <ele>985.8</ele>
        <time>2026-08-27T09:52:41.230Z</time>
      </trkpt>
      <trkpt lat="47.84029" lon="6.98899">
        <ele>985.4</ele>
        <time>2026-08-27T09:52:42.239Z</time>
      </trkpt>
      <trkpt lat="47.84028" lon="6.98901">
        <ele>985.4</ele>
        <time>2026-08-27T09:52:43.246Z</time>
      </trkpt>
      <trkpt lat="47.84028" lon="6.98904">
        <ele>985.7</ele>
        <time>2026-08-27T09:52:45.256Z</time>
      </trkpt>
      <trkpt lat="47.84027" lon="6.98908">
        <ele>985.7</ele>
        <time>2026-08-27T09:52:47.182Z</time>
      </trkpt>
      <trkpt lat="47.84027" lon="6.9891">
        <ele>985.7</ele>
        <time>2026-08-27T09:52:48.253Z</time>
      </trkpt>
      <trkpt lat="47.84026" lon="6.98914">
        <ele>985.5</ele>
        <time>2026-08-27T09:52:50.206Z</time>
      </trkpt>
      <trkpt lat="47.84025" lon="6.98915">
        <ele>985.3</ele>
        <time>2026-08-27T09:52:51.214Z</time>
      </trkpt>
      <trkpt lat="47.84025" lon="6.98916">
        <ele>985.4</ele>
        <time>2026-08-27T09:52:52.224Z</time>
      </trkpt>
      <trkpt lat="47.84024" lon="6.98916">
        <ele>985.4</ele>
        <time>2026-08-27T09:52:53.231Z</time>
      </trkpt>
      <trkpt lat="47.84024" lon="6.98917">
        <ele>985.4</ele>
        <time>2026-08-27T09:52:54.239Z</time>
      </trkpt>
      <trkpt lat="47.84023" lon="6.98917">
        <ele>985.3</ele>
        <time>2026-08-27T09:52:55.247Z</time>
      </trkpt>
      <trkpt lat="47.84022" lon="6.98916">
        <ele>985.2</ele>
        <time>2026-08-27T09:52:56.255Z</time>
      </trkpt>
      <trkpt lat="47.84022" lon="6.98916">
        <ele>985.5</ele>
        <time>2026-08-27T09:52:57.263Z</time>
      </trkpt>
      <trkpt lat="47.84022" lon="6.98915">
        <ele>985.6</ele>
        <time>2026-08-27T09:52:58.271Z</time>
      </trkpt>
      <trkpt lat="47.84023" lon="6.98916">
        <ele>985.9</ele>
        <time>2026-08-27T09:53:00.187Z</time>
      </trkpt>
      <trkpt lat="47.84023" lon="6.98916">
        <ele>985.7</ele>
        <time>2026-08-27T09:53:01.196Z</time>
      </trkpt>
      <trkpt lat="47.84023" lon="6.98916">
        <ele>985.4</ele>
        <time>2026-08-27T09:53:02.203Z</time>
      </trkpt>
      <trkpt lat="47.84023" lon="6.98916">
        <ele>985.3</ele>
        <time>2026-08-27T09:53:03.211Z</time>
      </trkpt>
      <trkpt lat="47.84024" lon="6.98916">
        <ele>985.2</ele>
        <time>2026-08-27T09:53:04.220Z</time>
      </trkpt>
      <trkpt lat="47.84024" lon="6.98916">
        <ele>984.9</ele>
        <time>2026-08-27T09:53:05.228Z</time>
      </trkpt>
      <trkpt lat="47.84024" lon="6.98917">
        <ele>985</ele>
        <time>2026-08-27T09:53:06.236Z</time>
      </trkpt>
      <trkpt lat="47.84023" lon="6.98919">
        <ele>985.2</ele>
        <time>2026-08-27T09:53:08.253Z</time>
      </trkpt>
      <trkpt lat="47.84023" lon="6.98922">
        <ele>985.4</ele>
        <time>2026-08-27T09:53:09.260Z</time>
      </trkpt>
      <trkpt lat="47.84023" lon="6.98925">
        <ele>985.4</ele>
        <time>2026-08-27T09:53:10.273Z</time>
      </trkpt>
      <trkpt lat="47.84022" lon="6.98927">
        <ele>985</ele>
        <time>2026-08-27T09:53:11.278Z</time>
      </trkpt>
      <trkpt lat="47.84021" lon="6.98932">
        <ele>985.2</ele>
        <time>2026-08-27T09:53:13.193Z</time>
      </trkpt>
      <trkpt lat="47.8402" lon="6.98933">
        <ele>985.2</ele>
        <time>2026-08-27T09:53:14.200Z</time>
      </trkpt>
      <trkpt lat="47.84019" lon="6.98935">
        <ele>984.8</ele>
        <time>2026-08-27T09:53:16.272Z</time>
      </trkpt>
      <trkpt lat="47.84017" lon="6.98937">
        <ele>984.8</ele>
        <time>2026-08-27T09:53:18.233Z</time>
      </trkpt>
      <trkpt lat="47.84016" lon="6.98939">
        <ele>984.6</ele>
        <time>2026-08-27T09:53:19.241Z</time>
      </trkpt>
      <trkpt lat="47.84014" lon="6.9894">
        <ele>984.5</ele>
        <time>2026-08-27T09:53:20.249Z</time>
      </trkpt>
      <trkpt lat="47.84013" lon="6.98941">
        <ele>984.1</ele>
        <time>2026-08-27T09:53:21.258Z</time>
      </trkpt>
      <trkpt lat="47.84012" lon="6.98943">
        <ele>984.3</ele>
        <time>2026-08-27T09:53:23.275Z</time>
      </trkpt>
      <trkpt lat="47.8401" lon="6.98946">
        <ele>984.2</ele>
        <time>2026-08-27T09:53:25.260Z</time>
      </trkpt>
      <trkpt lat="47.84008" lon="6.98948">
        <ele>984.2</ele>
        <time>2026-08-27T09:53:27.159Z</time>
      </trkpt>
      <trkpt lat="47.84007" lon="6.98949">
        <ele>984.3</ele>
        <time>2026-08-27T09:53:28.215Z</time>
      </trkpt>
      <trkpt lat="47.84006" lon="6.9895">
        <ele>984.3</ele>
        <time>2026-08-27T09:53:29.223Z</time>
      </trkpt>
      <trkpt lat="47.84005" lon="6.98951">
        <ele>984.3</ele>
        <time>2026-08-27T09:53:30.231Z</time>
      </trkpt>
      <trkpt lat="47.84004" lon="6.98952">
        <ele>984</ele>
        <time>2026-08-27T09:53:31.238Z</time>
      </trkpt>
      <trkpt lat="47.84002" lon="6.98953">
        <ele>983.6</ele>
        <time>2026-08-27T09:53:33.254Z</time>
      </trkpt>
      <trkpt lat="47.84002" lon="6.98955">
        <ele>983.4</ele>
        <time>2026-08-27T09:53:34.263Z</time>
      </trkpt>
      <trkpt lat="47.84001" lon="6.98956">
        <ele>983.4</ele>
        <time>2026-08-27T09:53:35.271Z</time>
      </trkpt>
      <trkpt lat="47.84" lon="6.98957">
        <ele>983.8</ele>
        <time>2026-08-27T09:53:36.279Z</time>
      </trkpt>
      <trkpt lat="47.83998" lon="6.98959">
        <ele>983.3</ele>
        <time>2026-08-27T09:53:38.195Z</time>
      </trkpt>
      <trkpt lat="47.83997" lon="6.98959">
        <ele>983.3</ele>
        <time>2026-08-27T09:53:39.216Z</time>
      </trkpt>
      <trkpt lat="47.83995" lon="6.98961">
        <ele>983.2</ele>
        <time>2026-08-27T09:53:41.231Z</time>
      </trkpt>
      <trkpt lat="47.83994" lon="6.98962">
        <ele>983</ele>
        <time>2026-08-27T09:53:42.292Z</time>
      </trkpt>
      <trkpt lat="47.83992" lon="6.98964">
        <ele>983.2</ele>
        <time>2026-08-27T09:53:44.247Z</time>
      </trkpt>
      <trkpt lat="47.83991" lon="6.98965">
        <ele>983.3</ele>
        <time>2026-08-27T09:53:45.260Z</time>
      </trkpt>
      <trkpt lat="47.8399" lon="6.98966">
        <ele>983.4</ele>
        <time>2026-08-27T09:53:46.268Z</time>
      </trkpt>
      <trkpt lat="47.83988" lon="6.98967">
        <ele>983.5</ele>
        <time>2026-08-27T09:53:48.200Z</time>
      </trkpt>
      <trkpt lat="47.83987" lon="6.98968">
        <ele>983.4</ele>
        <time>2026-08-27T09:53:49.208Z</time>
      </trkpt>
      <trkpt lat="47.83984" lon="6.9897">
        <ele>983</ele>
        <time>2026-08-27T09:53:51.226Z</time>
      </trkpt>
      <trkpt lat="47.83983" lon="6.98971">
        <ele>983.1</ele>
        <time>2026-08-27T09:53:52.233Z</time>
      </trkpt>
      <trkpt lat="47.83982" lon="6.98972">
        <ele>983.1</ele>
        <time>2026-08-27T09:53:53.242Z</time>
      </trkpt>
      <trkpt lat="47.8398" lon="6.98972">
        <ele>983.2</ele>
        <time>2026-08-27T09:53:54.249Z</time>
      </trkpt>
      <trkpt lat="47.83979" lon="6.98974">
        <ele>983.2</ele>
        <time>2026-08-27T09:53:56.265Z</time>
      </trkpt>
      <trkpt lat="47.83977" lon="6.98976">
        <ele>983.3</ele>
        <time>2026-08-27T09:53:58.286Z</time>
      </trkpt>
      <trkpt lat="47.83975" lon="6.98979">
        <ele>983.1</ele>
        <time>2026-08-27T09:54:00.201Z</time>
      </trkpt>
      <trkpt lat="47.83974" lon="6.9898">
        <ele>982.9</ele>
        <time>2026-08-27T09:54:01.211Z</time>
      </trkpt>
      <trkpt lat="47.83973" lon="6.98981">
        <ele>982.7</ele>
        <time>2026-08-27T09:54:02.218Z</time>
      </trkpt>
      <trkpt lat="47.83972" lon="6.98981">
        <ele>982.6</ele>
        <time>2026-08-27T09:54:03.226Z</time>
      </trkpt>
      <trkpt lat="47.83971" lon="6.98982">
        <ele>982.5</ele>
        <time>2026-08-27T09:54:04.234Z</time>
      </trkpt>
      <trkpt lat="47.8397" lon="6.98983">
        <ele>983</ele>
        <time>2026-08-27T09:54:05.242Z</time>
      </trkpt>
      <trkpt lat="47.83969" lon="6.98984">
        <ele>983</ele>
        <time>2026-08-27T09:54:06.250Z</time>
      </trkpt>
      <trkpt lat="47.83968" lon="6.98985">
        <ele>982.6</ele>
        <time>2026-08-27T09:54:07.258Z</time>
      </trkpt>
      <trkpt lat="47.83967" lon="6.98985">
        <ele>982.8</ele>
        <time>2026-08-27T09:54:08.267Z</time>
      </trkpt>
      <trkpt lat="47.83965" lon="6.98987">
        <ele>982.7</ele>
        <time>2026-08-27T09:54:10.203Z</time>
      </trkpt>
      <trkpt lat="47.83964" lon="6.98988">
        <ele>982.8</ele>
        <time>2026-08-27T09:54:11.211Z</time>
      </trkpt>
      <trkpt lat="47.83963" lon="6.98989">
        <ele>982.5</ele>
        <time>2026-08-27T09:54:12.219Z</time>
      </trkpt>
      <trkpt lat="47.83962" lon="6.9899">
        <ele>982.7</ele>
        <time>2026-08-27T09:54:13.228Z</time>
      </trkpt>
      <trkpt lat="47.83961" lon="6.98991">
        <ele>982.7</ele>
        <time>2026-08-27T09:54:14.237Z</time>
      </trkpt>
      <trkpt lat="47.8396" lon="6.98991">
        <ele>982.8</ele>
        <time>2026-08-27T09:54:15.244Z</time>
      </trkpt>
      <trkpt lat="47.83959" lon="6.98992">
        <ele>982.9</ele>
        <time>2026-08-27T09:54:16.252Z</time>
      </trkpt>
      <trkpt lat="47.83957" lon="6.98992">
        <ele>982.9</ele>
        <time>2026-08-27T09:54:18.268Z</time>
      </trkpt>
      <trkpt lat="47.83956" lon="6.98993">
        <ele>982.5</ele>
        <time>2026-08-27T09:54:19.276Z</time>
      </trkpt>
      <trkpt lat="47.83953" lon="6.98992">
        <ele>982.6</ele>
        <time>2026-08-27T09:54:21.192Z</time>
      </trkpt>
      <trkpt lat="47.83952" lon="6.98992">
        <ele>982.6</ele>
        <time>2026-08-27T09:54:22.200Z</time>
      </trkpt>
      <trkpt lat="47.8395" lon="6.98992">
        <ele>982.7</ele>
        <time>2026-08-27T09:54:23.209Z</time>
      </trkpt>
      <trkpt lat="47.83949" lon="6.98993">
        <ele>982.8</ele>
        <time>2026-08-27T09:54:24.216Z</time>
      </trkpt>
      <trkpt lat="47.83948" lon="6.98994">
        <ele>982.8</ele>
        <time>2026-08-27T09:54:25.272Z</time>
      </trkpt>
      <trkpt lat="47.83946" lon="6.98996">
        <ele>982.9</ele>
        <time>2026-08-27T09:54:27.241Z</time>
      </trkpt>
      <trkpt lat="47.83945" lon="6.98997">
        <ele>982.7</ele>
        <time>2026-08-27T09:54:28.250Z</time>
      </trkpt>
      <trkpt lat="47.83944" lon="6.98998">
        <ele>982.6</ele>
        <time>2026-08-27T09:54:29.257Z</time>
      </trkpt>
      <trkpt lat="47.83943" lon="6.98999">
        <ele>982.5</ele>
        <time>2026-08-27T09:54:30.265Z</time>
      </trkpt>
      <trkpt lat="47.83942" lon="6.99">
        <ele>982.4</ele>
        <time>2026-08-27T09:54:31.275Z</time>
      </trkpt>
      <trkpt lat="47.8394" lon="6.99001">
        <ele>982.2</ele>
        <time>2026-08-27T09:54:33.190Z</time>
      </trkpt>
      <trkpt lat="47.83939" lon="6.99002">
        <ele>982.6</ele>
        <time>2026-08-27T09:54:34.197Z</time>
      </trkpt>
      <trkpt lat="47.83938" lon="6.99003">
        <ele>982.5</ele>
        <time>2026-08-27T09:54:35.205Z</time>
      </trkpt>
      <trkpt lat="47.83937" lon="6.99004">
        <ele>982</ele>
        <time>2026-08-27T09:54:36.213Z</time>
      </trkpt>
      <trkpt lat="47.83936" lon="6.99004">
        <ele>982.2</ele>
        <time>2026-08-27T09:54:37.222Z</time>
      </trkpt>
      <trkpt lat="47.83934" lon="6.99004">
        <ele>982.1</ele>
        <time>2026-08-27T09:54:38.230Z</time>
      </trkpt>
      <trkpt lat="47.83933" lon="6.99004">
        <ele>982.1</ele>
        <time>2026-08-27T09:54:39.234Z</time>
      </trkpt>
      <trkpt lat="47.83932" lon="6.99004">
        <ele>982.1</ele>
        <time>2026-08-27T09:54:40.247Z</time>
      </trkpt>
      <trkpt lat="47.83932" lon="6.99005">
        <ele>982.1</ele>
        <time>2026-08-27T09:54:41.255Z</time>
      </trkpt>
      <trkpt lat="47.8393" lon="6.99005">
        <ele>982.2</ele>
        <time>2026-08-27T09:54:42.262Z</time>
      </trkpt>
      <trkpt lat="47.83929" lon="6.99006">
        <ele>982</ele>
        <time>2026-08-27T09:54:43.272Z</time>
      </trkpt>
      <trkpt lat="47.83927" lon="6.99007">
        <ele>981.8</ele>
        <time>2026-08-27T09:54:45.132Z</time>
      </trkpt>
      <trkpt lat="47.83926" lon="6.99008">
        <ele>982.4</ele>
        <time>2026-08-27T09:54:46.194Z</time>
      </trkpt>
      <trkpt lat="47.83925" lon="6.99008">
        <ele>982.4</ele>
        <time>2026-08-27T09:54:47.202Z</time>
      </trkpt>
      <trkpt lat="47.83922" lon="6.9901">
        <ele>982.2</ele>
        <time>2026-08-27T09:54:49.219Z</time>
      </trkpt>
      <trkpt lat="47.83921" lon="6.99011">
        <ele>982.3</ele>
        <time>2026-08-27T09:54:50.227Z</time>
      </trkpt>
      <trkpt lat="47.8392" lon="6.99012">
        <ele>982.5</ele>
        <time>2026-08-27T09:54:51.236Z</time>
      </trkpt>
      <trkpt lat="47.83919" lon="6.99013">
        <ele>982.5</ele>
        <time>2026-08-27T09:54:52.248Z</time>
      </trkpt>
      <trkpt lat="47.83918" lon="6.99013">
        <ele>982.7</ele>
        <time>2026-08-27T09:54:53.251Z</time>
      </trkpt>
      <trkpt lat="47.83917" lon="6.99013">
        <ele>983</ele>
        <time>2026-08-27T09:54:54.259Z</time>
      </trkpt>
      <trkpt lat="47.83915" lon="6.99014">
        <ele>982.9</ele>
        <time>2026-08-27T09:54:55.269Z</time>
      </trkpt>
      <trkpt lat="47.83914" lon="6.99015">
        <ele>983</ele>
        <time>2026-08-27T09:54:56.276Z</time>
      </trkpt>
      <trkpt lat="47.83912" lon="6.99016">
        <ele>983.1</ele>
        <time>2026-08-27T09:54:58.247Z</time>
      </trkpt>
      <trkpt lat="47.8391" lon="6.99017">
        <ele>982.5</ele>
        <time>2026-08-27T09:55:00.208Z</time>
      </trkpt>
      <trkpt lat="47.83909" lon="6.99017">
        <ele>982.4</ele>
        <time>2026-08-27T09:55:01.216Z</time>
      </trkpt>
      <trkpt lat="47.83908" lon="6.99018">
        <ele>982.5</ele>
        <time>2026-08-27T09:55:02.224Z</time>
      </trkpt>
      <trkpt lat="47.83907" lon="6.99019">
        <ele>982.8</ele>
        <time>2026-08-27T09:55:03.233Z</time>
      </trkpt>
      <trkpt lat="47.83905" lon="6.99021">
        <ele>982.3</ele>
        <time>2026-08-27T09:55:05.248Z</time>
      </trkpt>
      <trkpt lat="47.83904" lon="6.99021">
        <ele>982.4</ele>
        <time>2026-08-27T09:55:06.261Z</time>
      </trkpt>
      <trkpt lat="47.83903" lon="6.99023">
        <ele>982.3</ele>
        <time>2026-08-27T09:55:07.269Z</time>
      </trkpt>
      <trkpt lat="47.83902" lon="6.99024">
        <ele>982</ele>
        <time>2026-08-27T09:55:08.277Z</time>
      </trkpt>
      <trkpt lat="47.839" lon="6.99025">
        <ele>982.2</ele>
        <time>2026-08-27T09:55:10.185Z</time>
      </trkpt>
      <trkpt lat="47.83899" lon="6.99026">
        <ele>981.8</ele>
        <time>2026-08-27T09:55:11.201Z</time>
      </trkpt>
      <trkpt lat="47.83898" lon="6.99026">
        <ele>982.1</ele>
        <time>2026-08-27T09:55:12.209Z</time>
      </trkpt>
      <trkpt lat="47.83897" lon="6.99027">
        <ele>981.9</ele>
        <time>2026-08-27T09:55:13.218Z</time>
      </trkpt>
      <trkpt lat="47.83896" lon="6.99027">
        <ele>982.2</ele>
        <time>2026-08-27T09:55:14.225Z</time>
      </trkpt>
      <trkpt lat="47.83895" lon="6.99028">
        <ele>982.3</ele>
        <time>2026-08-27T09:55:15.233Z</time>
      </trkpt>
      <trkpt lat="47.83894" lon="6.99028">
        <ele>982.3</ele>
        <time>2026-08-27T09:55:16.241Z</time>
      </trkpt>
      <trkpt lat="47.83892" lon="6.99029">
        <ele>982.3</ele>
        <time>2026-08-27T09:55:18.259Z</time>
      </trkpt>
      <trkpt lat="47.83891" lon="6.99029">
        <ele>981.8</ele>
        <time>2026-08-27T09:55:19.266Z</time>
      </trkpt>
      <trkpt lat="47.8389" lon="6.9903">
        <ele>982</ele>
        <time>2026-08-27T09:55:20.274Z</time>
      </trkpt>
      <trkpt lat="47.83888" lon="6.9903">
        <ele>982</ele>
        <time>2026-08-27T09:55:21.283Z</time>
      </trkpt>
      <trkpt lat="47.83886" lon="6.9903">
        <ele>982.3</ele>
        <time>2026-08-27T09:55:23.181Z</time>
      </trkpt>
      <trkpt lat="47.83885" lon="6.99031">
        <ele>982.5</ele>
        <time>2026-08-27T09:55:24.206Z</time>
      </trkpt>
      <trkpt lat="47.83884" lon="6.99032">
        <ele>982.3</ele>
        <time>2026-08-27T09:55:25.214Z</time>
      </trkpt>
      <trkpt lat="47.83883" lon="6.99033">
        <ele>982.3</ele>
        <time>2026-08-27T09:55:26.222Z</time>
      </trkpt>
      <trkpt lat="47.83882" lon="6.99033">
        <ele>982</ele>
        <time>2026-08-27T09:55:27.230Z</time>
      </trkpt>
      <trkpt lat="47.83881" lon="6.99034">
        <ele>982</ele>
        <time>2026-08-27T09:55:28.239Z</time>
      </trkpt>
      <trkpt lat="47.83879" lon="6.99035">
        <ele>981.8</ele>
        <time>2026-08-27T09:55:30.255Z</time>
      </trkpt>
      <trkpt lat="47.83878" lon="6.99036">
        <ele>981.6</ele>
        <time>2026-08-27T09:55:31.263Z</time>
      </trkpt>
      <trkpt lat="47.83877" lon="6.99036">
        <ele>982.1</ele>
        <time>2026-08-27T09:55:32.271Z</time>
      </trkpt>
      <trkpt lat="47.83876" lon="6.99037">
        <ele>981.8</ele>
        <time>2026-08-27T09:55:33.280Z</time>
      </trkpt>
      <trkpt lat="47.83875" lon="6.99038">
        <ele>981.6</ele>
        <time>2026-08-27T09:55:34.287Z</time>
      </trkpt>
      <trkpt lat="47.83873" lon="6.99039">
        <ele>982</ele>
        <time>2026-08-27T09:55:36.245Z</time>
      </trkpt>
      <trkpt lat="47.83872" lon="6.99041">
        <ele>981.5</ele>
        <time>2026-08-27T09:55:38.219Z</time>
      </trkpt>
      <trkpt lat="47.83871" lon="6.99042">
        <ele>981.5</ele>
        <time>2026-08-27T09:55:39.227Z</time>
      </trkpt>
      <trkpt lat="47.8387" lon="6.99042">
        <ele>981.9</ele>
        <time>2026-08-27T09:55:40.235Z</time>
      </trkpt>
      <trkpt lat="47.83869" lon="6.99043">
        <ele>981.5</ele>
        <time>2026-08-27T09:55:41.243Z</time>
      </trkpt>
      <trkpt lat="47.83868" lon="6.99044">
        <ele>982</ele>
        <time>2026-08-27T09:55:42.252Z</time>
      </trkpt>
      <trkpt lat="47.83865" lon="6.99045">
        <ele>982.3</ele>
        <time>2026-08-27T09:55:44.268Z</time>
      </trkpt>
      <trkpt lat="47.83865" lon="6.99046">
        <ele>982.3</ele>
        <time>2026-08-27T09:55:45.276Z</time>
      </trkpt>
      <trkpt lat="47.83863" lon="6.99047">
        <ele>982.3</ele>
        <time>2026-08-27T09:55:46.284Z</time>
      </trkpt>
      <trkpt lat="47.83862" lon="6.99049">
        <ele>981.8</ele>
        <time>2026-08-27T09:55:48.200Z</time>
      </trkpt>
      <trkpt lat="47.83861" lon="6.99049">
        <ele>981.7</ele>
        <time>2026-08-27T09:55:49.208Z</time>
      </trkpt>
      <trkpt lat="47.8386" lon="6.9905">
        <ele>981.7</ele>
        <time>2026-08-27T09:55:50.241Z</time>
      </trkpt>
      <trkpt lat="47.83858" lon="6.99052">
        <ele>982.2</ele>
        <time>2026-08-27T09:55:52.199Z</time>
      </trkpt>
      <trkpt lat="47.83857" lon="6.99053">
        <ele>982.3</ele>
        <time>2026-08-27T09:55:53.241Z</time>
      </trkpt>
      <trkpt lat="47.83856" lon="6.99055">
        <ele>982.1</ele>
        <time>2026-08-27T09:55:54.249Z</time>
      </trkpt>
      <trkpt lat="47.83855" lon="6.99056">
        <ele>982.1</ele>
        <time>2026-08-27T09:55:55.258Z</time>
      </trkpt>
      <trkpt lat="47.83854" lon="6.99057">
        <ele>982.3</ele>
        <time>2026-08-27T09:55:57.273Z</time>
      </trkpt>
      <trkpt lat="47.83853" lon="6.99058">
        <ele>982.3</ele>
        <time>2026-08-27T09:55:59.138Z</time>
      </trkpt>
      <trkpt lat="47.83853" lon="6.99058">
        <ele>982.1</ele>
        <time>2026-08-27T09:56:00.197Z</time>
      </trkpt>
      <trkpt lat="47.83854" lon="6.99057">
        <ele>982.1</ele>
        <time>2026-08-27T09:56:01.239Z</time>
      </trkpt>
      <trkpt lat="47.83856" lon="6.99057">
        <ele>982.5</ele>
        <time>2026-08-27T09:56:03.221Z</time>
      </trkpt>
      <trkpt lat="47.83856" lon="6.99057">
        <ele>982.5</ele>
        <time>2026-08-27T09:56:04.230Z</time>
      </trkpt>
      <trkpt lat="47.83856" lon="6.99057">
        <ele>982.7</ele>
        <time>2026-08-27T09:56:05.237Z</time>
      </trkpt>
      <trkpt lat="47.83856" lon="6.99057">
        <ele>982.4</ele>
        <time>2026-08-27T09:56:06.247Z</time>
      </trkpt>
      <trkpt lat="47.83856" lon="6.99057">
        <ele>982.1</ele>
        <time>2026-08-27T09:56:07.254Z</time>
      </trkpt>
      <trkpt lat="47.83856" lon="6.99057">
        <ele>981.9</ele>
        <time>2026-08-27T09:56:08.263Z</time>
      </trkpt>
      <trkpt lat="47.83856" lon="6.99057">
        <ele>981.7</ele>
        <time>2026-08-27T09:56:09.270Z</time>
      </trkpt>
      <trkpt lat="47.83855" lon="6.99057">
        <ele>981.7</ele>
        <time>2026-08-27T09:56:10.278Z</time>
      </trkpt>
      <trkpt lat="47.83855" lon="6.99057">
        <ele>981.8</ele>
        <time>2026-08-27T09:56:11.286Z</time>
      </trkpt>
      <trkpt lat="47.83853" lon="6.99058">
        <ele>982.5</ele>
        <time>2026-08-27T09:56:13.203Z</time>
      </trkpt>
      <trkpt lat="47.83851" lon="6.99059">
        <ele>982.3</ele>
        <time>2026-08-27T09:56:14.210Z</time>
      </trkpt>
      <trkpt lat="47.83849" lon="6.99059">
        <ele>982.4</ele>
        <time>2026-08-27T09:56:15.218Z</time>
      </trkpt>
      <trkpt lat="47.83847" lon="6.9906">
        <ele>982.3</ele>
        <time>2026-08-27T09:56:16.231Z</time>
      </trkpt>
      <trkpt lat="47.83846" lon="6.9906">
        <ele>981.9</ele>
        <time>2026-08-27T09:56:17.239Z</time>
      </trkpt>
      <trkpt lat="47.83843" lon="6.99062">
        <ele>982.2</ele>
        <time>2026-08-27T09:56:19.259Z</time>
      </trkpt>
      <trkpt lat="47.83842" lon="6.99063">
        <ele>981.5</ele>
        <time>2026-08-27T09:56:20.267Z</time>
      </trkpt>
      <trkpt lat="47.83841" lon="6.99065">
        <ele>981.3</ele>
        <time>2026-08-27T09:56:21.275Z</time>
      </trkpt>
      <trkpt lat="47.83839" lon="6.99067">
        <ele>981.5</ele>
        <time>2026-08-27T09:56:23.192Z</time>
      </trkpt>
      <trkpt lat="47.83838" lon="6.9907">
        <ele>981.6</ele>
        <time>2026-08-27T09:56:25.211Z</time>
      </trkpt>
      <trkpt lat="47.83837" lon="6.99071">
        <ele>981.2</ele>
        <time>2026-08-27T09:56:26.219Z</time>
      </trkpt>
      <trkpt lat="47.83836" lon="6.99071">
        <ele>981.1</ele>
        <time>2026-08-27T09:56:27.228Z</time>
      </trkpt>
      <trkpt lat="47.83835" lon="6.99072">
        <ele>981.1</ele>
        <time>2026-08-27T09:56:28.236Z</time>
      </trkpt>
      <trkpt lat="47.83834" lon="6.99073">
        <ele>981</ele>
        <time>2026-08-27T09:56:29.244Z</time>
      </trkpt>
      <trkpt lat="47.83833" lon="6.99074">
        <ele>981</ele>
        <time>2026-08-27T09:56:30.252Z</time>
      </trkpt>
      <trkpt lat="47.83831" lon="6.99075">
        <ele>981.4</ele>
        <time>2026-08-27T09:56:32.268Z</time>
      </trkpt>
      <trkpt lat="47.8383" lon="6.99076">
        <ele>981.3</ele>
        <time>2026-08-27T09:56:33.278Z</time>
      </trkpt>
      <trkpt lat="47.83828" lon="6.99078">
        <ele>981.4</ele>
        <time>2026-08-27T09:56:35.192Z</time>
      </trkpt>
      <trkpt lat="47.83827" lon="6.99078">
        <ele>981.1</ele>
        <time>2026-08-27T09:56:36.200Z</time>
      </trkpt>
      <trkpt lat="47.83826" lon="6.99078">
        <ele>981</ele>
        <time>2026-08-27T09:56:37.209Z</time>
      </trkpt>
      <trkpt lat="47.83826" lon="6.99077">
        <ele>981.1</ele>
        <time>2026-08-27T09:56:38.216Z</time>
      </trkpt>
      <trkpt lat="47.83826" lon="6.99075">
        <ele>981.1</ele>
        <time>2026-08-27T09:56:39.226Z</time>
      </trkpt>
      <trkpt lat="47.83826" lon="6.99075">
        <ele>981</ele>
        <time>2026-08-27T09:56:40.233Z</time>
      </trkpt>
      <trkpt lat="47.83827" lon="6.99075">
        <ele>981.1</ele>
        <time>2026-08-27T09:56:41.242Z</time>
      </trkpt>
      <trkpt lat="47.83828" lon="6.99075">
        <ele>981.1</ele>
        <time>2026-08-27T09:56:42.249Z</time>
      </trkpt>
      <trkpt lat="47.83828" lon="6.99076">
        <ele>981.7</ele>
        <time>2026-08-27T09:56:43.257Z</time>
      </trkpt>
      <trkpt lat="47.83828" lon="6.99076">
        <ele>981.9</ele>
        <time>2026-08-27T09:56:44.265Z</time>
      </trkpt>
      <trkpt lat="47.83829" lon="6.99077">
        <ele>981.7</ele>
        <time>2026-08-27T09:56:45.273Z</time>
      </trkpt>
      <trkpt lat="47.83829" lon="6.99077">
        <ele>981.6</ele>
        <time>2026-08-27T09:56:46.283Z</time>
      </trkpt>
      <trkpt lat="47.83829" lon="6.99078">
        <ele>981.6</ele>
        <time>2026-08-27T09:56:48.197Z</time>
      </trkpt>
      <trkpt lat="47.83829" lon="6.99078">
        <ele>981.6</ele>
        <time>2026-08-27T09:56:49.205Z</time>
      </trkpt>
      <trkpt lat="47.83829" lon="6.99078">
        <ele>981.6</ele>
        <time>2026-08-27T09:56:50.214Z</time>
      </trkpt>
      <trkpt lat="47.83829" lon="6.99078">
        <ele>981.7</ele>
        <time>2026-08-27T09:56:51.222Z</time>
      </trkpt>
      <trkpt lat="47.83829" lon="6.99078">
        <ele>982.3</ele>
        <time>2026-08-27T09:56:52.231Z</time>
      </trkpt>
      <trkpt lat="47.83829" lon="6.99078">
        <ele>982.1</ele>
        <time>2026-08-27T09:56:53.238Z</time>
      </trkpt>
      <trkpt lat="47.83829" lon="6.99078">
        <ele>982.1</ele>
        <time>2026-08-27T09:56:54.247Z</time>
      </trkpt>
      <trkpt lat="47.83829" lon="6.99078">
        <ele>982.2</ele>
        <time>2026-08-27T09:56:55.254Z</time>
      </trkpt>
      <trkpt lat="47.83829" lon="6.99078">
        <ele>982.2</ele>
        <time>2026-08-27T09:56:57.270Z</time>
      </trkpt>
      <trkpt lat="47.83829" lon="6.99078">
        <ele>981.9</ele>
        <time>2026-08-27T09:56:58.278Z</time>
      </trkpt>
      <trkpt lat="47.83829" lon="6.99078">
        <ele>981.6</ele>
        <time>2026-08-27T09:56:59.287Z</time>
      </trkpt>
      <trkpt lat="47.83829" lon="6.99077">
        <ele>981.8</ele>
        <time>2026-08-27T09:57:01.105Z</time>
      </trkpt>
      <trkpt lat="47.83829" lon="6.99077">
        <ele>981.8</ele>
        <time>2026-08-27T09:57:02.211Z</time>
      </trkpt>
      <trkpt lat="47.83828" lon="6.99077">
        <ele>981.9</ele>
        <time>2026-08-27T09:57:03.218Z</time>
      </trkpt>
      <trkpt lat="47.83827" lon="6.99077">
        <ele>981.6</ele>
        <time>2026-08-27T09:57:04.226Z</time>
      </trkpt>
      <trkpt lat="47.83825" lon="6.99077">
        <ele>981.5</ele>
        <time>2026-08-27T09:57:05.235Z</time>
      </trkpt>
      <trkpt lat="47.83824" lon="6.99078">
        <ele>981.4</ele>
        <time>2026-08-27T09:57:06.324Z</time>
      </trkpt>
      <trkpt lat="47.83821" lon="6.99079">
        <ele>981.1</ele>
        <time>2026-08-27T09:57:08.259Z</time>
      </trkpt>
      <trkpt lat="47.8382" lon="6.99079">
        <ele>981</ele>
        <time>2026-08-27T09:57:09.268Z</time>
      </trkpt>
      <trkpt lat="47.83819" lon="6.99079">
        <ele>980.7</ele>
        <time>2026-08-27T09:57:10.276Z</time>
      </trkpt>
      <trkpt lat="47.83817" lon="6.9908">
        <ele>981.2</ele>
        <time>2026-08-27T09:57:12.191Z</time>
      </trkpt>
      <trkpt lat="47.83816" lon="6.99081">
        <ele>981.3</ele>
        <time>2026-08-27T09:57:13.199Z</time>
      </trkpt>
      <trkpt lat="47.83815" lon="6.99082">
        <ele>981.3</ele>
        <time>2026-08-27T09:57:14.263Z</time>
      </trkpt>
      <trkpt lat="47.83813" lon="6.99082">
        <ele>980.8</ele>
        <time>2026-08-27T09:57:16.224Z</time>
      </trkpt>
      <trkpt lat="47.83812" lon="6.99082">
        <ele>980.9</ele>
        <time>2026-08-27T09:57:17.232Z</time>
      </trkpt>
      <trkpt lat="47.83812" lon="6.99081">
        <ele>980.9</ele>
        <time>2026-08-27T09:57:19.248Z</time>
      </trkpt>
      <trkpt lat="47.83813" lon="6.99081">
        <ele>980.8</ele>
        <time>2026-08-27T09:57:20.256Z</time>
      </trkpt>
      <trkpt lat="47.83813" lon="6.99081">
        <ele>981</ele>
        <time>2026-08-27T09:57:21.265Z</time>
      </trkpt>
      <trkpt lat="47.83814" lon="6.99081">
        <ele>981.2</ele>
        <time>2026-08-27T09:57:22.272Z</time>
      </trkpt>
      <trkpt lat="47.83814" lon="6.99081">
        <ele>981.1</ele>
        <time>2026-08-27T09:57:23.281Z</time>
      </trkpt>
      <trkpt lat="47.83814" lon="6.99081">
        <ele>981.1</ele>
        <time>2026-08-27T09:57:24.289Z</time>
      </trkpt>
      <trkpt lat="47.83815" lon="6.99081">
        <ele>981.1</ele>
        <time>2026-08-27T09:57:25.297Z</time>
      </trkpt>
      <trkpt lat="47.83816" lon="6.99081">
        <ele>980.9</ele>
        <time>2026-08-27T09:57:27.313Z</time>
      </trkpt>
      <trkpt lat="47.83817" lon="6.99081">
        <ele>981</ele>
        <time>2026-08-27T09:57:28.321Z</time>
      </trkpt>
      <trkpt lat="47.83817" lon="6.99082">
        <ele>981.3</ele>
        <time>2026-08-27T09:57:29.330Z</time>
      </trkpt>
      <trkpt lat="47.83817" lon="6.99082">
        <ele>981.9</ele>
        <time>2026-08-27T09:57:31.644Z</time>
      </trkpt>
      <trkpt lat="47.83817" lon="6.99082">
        <ele>982.1</ele>
        <time>2026-08-27T09:57:33.047Z</time>
      </trkpt>
      <trkpt lat="47.83817" lon="6.99082">
        <ele>982.2</ele>
        <time>2026-08-27T09:57:34.269Z</time>
      </trkpt>
      <trkpt lat="47.83818" lon="6.99082">
        <ele>981.7</ele>
        <time>2026-08-27T09:57:36.285Z</time>
      </trkpt>
      <trkpt lat="47.83819" lon="6.99082">
        <ele>982</ele>
        <time>2026-08-27T09:57:37.293Z</time>
      </trkpt>
      <trkpt lat="47.83819" lon="6.99082">
        <ele>981.9</ele>
        <time>2026-08-27T09:57:38.303Z</time>
      </trkpt>
      <trkpt lat="47.8382" lon="6.99081">
        <ele>981.6</ele>
        <time>2026-08-27T09:57:40.318Z</time>
      </trkpt>
      <trkpt lat="47.8382" lon="6.9908">
        <ele>982.3</ele>
        <time>2026-08-27T09:57:42.334Z</time>
      </trkpt>
      <trkpt lat="47.8382" lon="6.99078">
        <ele>982.2</ele>
        <time>2026-08-27T09:57:45.380Z</time>
      </trkpt>
      <trkpt lat="47.8382" lon="6.99078">
        <ele>982</ele>
        <time>2026-08-27T09:57:47.162Z</time>
      </trkpt>
      <trkpt lat="47.83818" lon="6.99085">
        <ele>981.8</ele>
        <time>2026-08-27T09:58:38.155Z</time>
      </trkpt>
      <trkpt lat="47.83819" lon="6.99086">
        <ele>981.7</ele>
        <time>2026-08-27T09:58:39.156Z</time>
      </trkpt>
      <trkpt lat="47.8382" lon="6.99088">
        <ele>981.4</ele>
        <time>2026-08-27T09:58:40.156Z</time>
      </trkpt>
      <trkpt lat="47.83821" lon="6.99088">
        <ele>981.6</ele>
        <time>2026-08-27T09:58:41.156Z</time>
      </trkpt>
      <trkpt lat="47.83821" lon="6.99088">
        <ele>981.8</ele>
        <time>2026-08-27T09:58:42.217Z</time>
      </trkpt>
      <trkpt lat="47.83821" lon="6.99088">
        <ele>981.6</ele>
        <time>2026-08-27T09:58:43.281Z</time>
      </trkpt>
      <trkpt lat="47.83822" lon="6.99088">
        <ele>981.6</ele>
        <time>2026-08-27T09:58:45.241Z</time>
      </trkpt>
      <trkpt lat="47.83823" lon="6.9909">
        <ele>982.1</ele>
        <time>2026-08-27T09:58:47.258Z</time>
      </trkpt>
      <trkpt lat="47.83824" lon="6.99091">
        <ele>982.1</ele>
        <time>2026-08-27T09:58:48.262Z</time>
      </trkpt>
      <trkpt lat="47.83824" lon="6.99092">
        <ele>981.3</ele>
        <time>2026-08-27T09:58:49.274Z</time>
      </trkpt>
      <trkpt lat="47.83823" lon="6.99092">
        <ele>981.4</ele>
        <time>2026-08-27T09:58:50.282Z</time>
      </trkpt>
      <trkpt lat="47.83823" lon="6.99091">
        <ele>981.6</ele>
        <time>2026-08-27T09:58:51.290Z</time>
      </trkpt>
      <trkpt lat="47.83822" lon="6.99091">
        <ele>981.4</ele>
        <time>2026-08-27T09:58:52.299Z</time>
      </trkpt>
      <trkpt lat="47.83822" lon="6.9909">
        <ele>981.2</ele>
        <time>2026-08-27T09:58:53.306Z</time>
      </trkpt>
      <trkpt lat="47.83822" lon="6.99089">
        <ele>981.1</ele>
        <time>2026-08-27T09:58:55.222Z</time>
      </trkpt>
      <trkpt lat="47.83822" lon="6.99089">
        <ele>980.9</ele>
        <time>2026-08-27T09:58:56.230Z</time>
      </trkpt>
      <trkpt lat="47.83822" lon="6.99089">
        <ele>980.8</ele>
        <time>2026-08-27T09:58:57.239Z</time>
      </trkpt>
      <trkpt lat="47.83822" lon="6.99088">
        <ele>980.9</ele>
        <time>2026-08-27T09:58:58.246Z</time>
      </trkpt>
      <trkpt lat="47.83822" lon="6.99088">
        <ele>980.8</ele>
        <time>2026-08-27T09:58:59.254Z</time>
      </trkpt>
      <trkpt lat="47.83822" lon="6.99087">
        <ele>980.6</ele>
        <time>2026-08-27T09:59:00.262Z</time>
      </trkpt>
      <trkpt lat="47.83822" lon="6.99087">
        <ele>980.8</ele>
        <time>2026-08-27T09:59:01.271Z</time>
      </trkpt>
      <trkpt lat="47.83822" lon="6.99086">
        <ele>980.8</ele>
        <time>2026-08-27T09:59:02.278Z</time>
      </trkpt>
      <trkpt lat="47.83822" lon="6.99085">
        <ele>980.6</ele>
        <time>2026-08-27T09:59:04.194Z</time>
      </trkpt>
      <trkpt lat="47.83822" lon="6.99085">
        <ele>980.7</ele>
        <time>2026-08-27T09:59:05.202Z</time>
      </trkpt>
      <trkpt lat="47.83822" lon="6.99085">
        <ele>980.8</ele>
        <time>2026-08-27T09:59:06.210Z</time>
      </trkpt>
      <trkpt lat="47.83822" lon="6.99084">
        <ele>980.7</ele>
        <time>2026-08-27T09:59:07.219Z</time>
      </trkpt>
      <trkpt lat="47.83822" lon="6.99084">
        <ele>980.8</ele>
        <time>2026-08-27T09:59:08.226Z</time>
      </trkpt>
      <trkpt lat="47.83822" lon="6.99084">
        <ele>980.6</ele>
        <time>2026-08-27T09:59:09.235Z</time>
      </trkpt>
      <trkpt lat="47.83822" lon="6.99083">
        <ele>981.1</ele>
        <time>2026-08-27T09:59:10.243Z</time>
      </trkpt>
      <trkpt lat="47.83822" lon="6.99083">
        <ele>981.2</ele>
        <time>2026-08-27T09:59:11.251Z</time>
      </trkpt>
      <trkpt lat="47.83822" lon="6.99083">
        <ele>981.2</ele>
        <time>2026-08-27T09:59:12.260Z</time>
      </trkpt>
      <trkpt lat="47.83822" lon="6.99083">
        <ele>981.1</ele>
        <time>2026-08-27T09:59:13.267Z</time>
      </trkpt>
      <trkpt lat="47.83822" lon="6.99083">
        <ele>981</ele>
        <time>2026-08-27T09:59:14.276Z</time>
      </trkpt>
      <trkpt lat="47.83822" lon="6.99084">
        <ele>981.1</ele>
        <time>2026-08-27T09:59:16.003Z</time>
      </trkpt>
      <trkpt lat="47.83822" lon="6.99084">
        <ele>981.2</ele>
        <time>2026-08-27T09:59:17.299Z</time>
      </trkpt>
      <trkpt lat="47.83822" lon="6.99084">
        <ele>981.4</ele>
        <time>2026-08-27T09:59:18.308Z</time>
      </trkpt>
      <trkpt lat="47.83822" lon="6.99084">
        <ele>981.3</ele>
        <time>2026-08-27T09:59:19.317Z</time>
      </trkpt>
      <trkpt lat="47.83822" lon="6.99084">
        <ele>981.3</ele>
        <time>2026-08-27T09:59:20.321Z</time>
      </trkpt>
      <trkpt lat="47.83822" lon="6.99084">
        <ele>981.2</ele>
        <time>2026-08-27T09:59:21.333Z</time>
      </trkpt>
      <trkpt lat="47.83822" lon="6.99084">
        <ele>981.4</ele>
        <time>2026-08-27T09:59:23.248Z</time>
      </trkpt>
      <trkpt lat="47.83822" lon="6.99084">
        <ele>981.2</ele>
        <time>2026-08-27T09:59:24.256Z</time>
      </trkpt>
      <trkpt lat="47.83822" lon="6.99084">
        <ele>981.1</ele>
        <time>2026-08-27T09:59:25.264Z</time>
      </trkpt>
      <trkpt lat="47.83823" lon="6.99085">
        <ele>981.1</ele>
        <time>2026-08-27T09:59:27.280Z</time>
      </trkpt>
      <trkpt lat="47.83823" lon="6.99085">
        <ele>981</ele>
        <time>2026-08-27T09:59:28.288Z</time>
      </trkpt>
      <trkpt lat="47.83822" lon="6.99085">
        <ele>981.1</ele>
        <time>2026-08-27T09:59:29.297Z</time>
      </trkpt>
      <trkpt lat="47.83822" lon="6.99085">
        <ele>981</ele>
        <time>2026-08-27T09:59:30.304Z</time>
      </trkpt>
      <trkpt lat="47.83823" lon="6.99085">
        <ele>981</ele>
        <time>2026-08-27T09:59:32.220Z</time>
      </trkpt>
      <trkpt lat="47.83817" lon="6.99098">
        <ele>978.8</ele>
        <time>2026-08-27T10:10:26.965Z</time>
      </trkpt>
      <trkpt lat="47.8382" lon="6.99091">
        <ele>981.4</ele>
        <time>2026-08-27T10:27:07.444Z</time>
      </trkpt>
      <trkpt lat="47.8382" lon="6.99091">
        <ele>981.7</ele>
        <time>2026-08-27T10:27:08.473Z</time>
      </trkpt>
      <trkpt lat="47.83819" lon="6.99092">
        <ele>981.6</ele>
        <time>2026-08-27T10:27:09.478Z</time>
      </trkpt>
      <trkpt lat="47.83819" lon="6.99092">
        <ele>981.6</ele>
        <time>2026-08-27T10:27:10.548Z</time>
      </trkpt>
      <trkpt lat="47.83819" lon="6.99092">
        <ele>979.8</ele>
        <time>2026-08-27T10:27:12.263Z</time>
      </trkpt>
      <trkpt lat="47.83818" lon="6.99092">
        <ele>979.8</ele>
        <time>2026-08-27T10:27:13.270Z</time>
      </trkpt>
      <trkpt lat="47.83819" lon="6.99092">
        <ele>981.5</ele>
        <time>2026-08-27T10:27:14.280Z</time>
      </trkpt>
      <trkpt lat="47.83819" lon="6.99093">
        <ele>979.8</ele>
        <time>2026-08-27T10:27:15.287Z</time>
      </trkpt>
      <trkpt lat="47.83819" lon="6.99092">
        <ele>979.8</ele>
        <time>2026-08-27T10:27:16.296Z</time>
      </trkpt>
      <trkpt lat="47.83819" lon="6.99092">
        <ele>979.8</ele>
        <time>2026-08-27T10:27:17.304Z</time>
      </trkpt>
      <trkpt lat="47.8382" lon="6.99092">
        <ele>979.8</ele>
        <time>2026-08-27T10:27:18.313Z</time>
      </trkpt>
      <trkpt lat="47.8382" lon="6.99092">
        <ele>979.8</ele>
        <time>2026-08-27T10:27:19.321Z</time>
      </trkpt>
      <trkpt lat="47.8382" lon="6.99092">
        <ele>979.8</ele>
        <time>2026-08-27T10:27:20.330Z</time>
      </trkpt>
      <trkpt lat="47.8382" lon="6.99091">
        <ele>979.8</ele>
        <time>2026-08-27T10:27:21.338Z</time>
      </trkpt>
      <trkpt lat="47.8382" lon="6.99091">
        <ele>979.8</ele>
        <time>2026-08-27T10:27:22.347Z</time>
      </trkpt>
      <trkpt lat="47.83821" lon="6.99091">
        <ele>979.8</ele>
        <time>2026-08-27T10:27:24.264Z</time>
      </trkpt>
      <trkpt lat="47.83821" lon="6.99091">
        <ele>979.8</ele>
        <time>2026-08-27T10:27:25.271Z</time>
      </trkpt>
      <trkpt lat="47.83821" lon="6.99091">
        <ele>979.8</ele>
        <time>2026-08-27T10:27:26.281Z</time>
      </trkpt>
      <trkpt lat="47.83821" lon="6.9909">
        <ele>979.8</ele>
        <time>2026-08-27T10:27:27.289Z</time>
      </trkpt>
      <trkpt lat="47.83821" lon="6.9909">
        <ele>979.8</ele>
        <time>2026-08-27T10:27:28.298Z</time>
      </trkpt>
      <trkpt lat="47.83821" lon="6.9909">
        <ele>979.8</ele>
        <time>2026-08-27T10:27:29.305Z</time>
      </trkpt>
      <trkpt lat="47.83821" lon="6.9909">
        <ele>979.8</ele>
        <time>2026-08-27T10:27:30.315Z</time>
      </trkpt>
      <trkpt lat="47.83821" lon="6.9909">
        <ele>979.8</ele>
        <time>2026-08-27T10:27:31.323Z</time>
      </trkpt>
      <trkpt lat="47.83821" lon="6.9909">
        <ele>979.8</ele>
        <time>2026-08-27T10:27:32.330Z</time>
      </trkpt>
      <trkpt lat="47.83821" lon="6.9909">
        <ele>979.8</ele>
        <time>2026-08-27T10:27:33.339Z</time>
      </trkpt>
      <trkpt lat="47.83821" lon="6.99089">
        <ele>979.8</ele>
        <time>2026-08-27T10:27:34.348Z</time>
      </trkpt>
      <trkpt lat="47.83821" lon="6.99089">
        <ele>979.8</ele>
        <time>2026-08-27T10:27:36.264Z</time>
      </trkpt>
      <trkpt lat="47.83821" lon="6.99089">
        <ele>979.8</ele>
        <time>2026-08-27T10:27:37.272Z</time>
      </trkpt>
      <trkpt lat="47.83821" lon="6.99089">
        <ele>979.8</ele>
        <time>2026-08-27T10:27:38.280Z</time>
      </trkpt>
      <trkpt lat="47.83821" lon="6.99089">
        <ele>979.8</ele>
        <time>2026-08-27T10:27:39.289Z</time>
      </trkpt>
      <trkpt lat="47.83821" lon="6.99089">
        <ele>979.8</ele>
        <time>2026-08-27T10:27:40.297Z</time>
      </trkpt>
      <trkpt lat="47.83821" lon="6.99089">
        <ele>979.8</ele>
        <time>2026-08-27T10:27:41.306Z</time>
      </trkpt>
      <trkpt lat="47.83821" lon="6.99089">
        <ele>979.8</ele>
        <time>2026-08-27T10:27:42.314Z</time>
      </trkpt>
      <trkpt lat="47.83821" lon="6.99089">
        <ele>979.8</ele>
        <time>2026-08-27T10:27:43.323Z</time>
      </trkpt>
      <trkpt lat="47.83821" lon="6.99089">
        <ele>979.8</ele>
        <time>2026-08-27T10:27:45.239Z</time>
      </trkpt>
      <trkpt lat="47.83821" lon="6.99088">
        <ele>979.8</ele>
        <time>2026-08-27T10:27:46.248Z</time>
      </trkpt>
      <trkpt lat="47.83821" lon="6.99088">
        <ele>979.8</ele>
        <time>2026-08-27T10:27:47.255Z</time>
      </trkpt>
      <trkpt lat="47.83821" lon="6.99088">
        <ele>979.8</ele>
        <time>2026-08-27T10:27:48.265Z</time>
      </trkpt>
      <trkpt lat="47.83821" lon="6.99088">
        <ele>979.8</ele>
        <time>2026-08-27T10:27:49.273Z</time>
      </trkpt>
      <trkpt lat="47.83821" lon="6.99088">
        <ele>979.8</ele>
        <time>2026-08-27T10:27:50.280Z</time>
      </trkpt>
      <trkpt lat="47.83821" lon="6.99088">
        <ele>979.8</ele>
        <time>2026-08-27T10:27:52.298Z</time>
      </trkpt>
      <trkpt lat="47.83821" lon="6.99088">
        <ele>979.8</ele>
        <time>2026-08-27T10:27:54.213Z</time>
      </trkpt>
      <trkpt lat="47.83821" lon="6.99088">
        <ele>979.8</ele>
        <time>2026-08-27T10:27:55.223Z</time>
      </trkpt>
      <trkpt lat="47.83821" lon="6.99088">
        <ele>979.8</ele>
        <time>2026-08-27T10:27:56.230Z</time>
      </trkpt>
      <trkpt lat="47.83821" lon="6.99088">
        <ele>979.8</ele>
        <time>2026-08-27T10:27:57.238Z</time>
      </trkpt>
      <trkpt lat="47.83821" lon="6.99088">
        <ele>979.8</ele>
        <time>2026-08-27T10:27:58.247Z</time>
      </trkpt>
      <trkpt lat="47.83821" lon="6.99088">
        <ele>979.8</ele>
        <time>2026-08-27T10:27:59.255Z</time>
      </trkpt>
      <trkpt lat="47.83821" lon="6.99088">
        <ele>979.8</ele>
        <time>2026-08-27T10:28:00.264Z</time>
      </trkpt>
      <trkpt lat="47.83821" lon="6.99088">
        <ele>979.8</ele>
        <time>2026-08-27T10:28:01.272Z</time>
      </trkpt>
      <trkpt lat="47.83821" lon="6.99088">
        <ele>979.8</ele>
        <time>2026-08-27T10:28:02.280Z</time>
      </trkpt>
      <trkpt lat="47.83821" lon="6.99088">
        <ele>979.8</ele>
        <time>2026-08-27T10:28:04.298Z</time>
      </trkpt>
      <trkpt lat="47.83821" lon="6.99088">
        <ele>979.8</ele>
        <time>2026-08-27T10:28:06.214Z</time>
      </trkpt>
      <trkpt lat="47.83821" lon="6.99088">
        <ele>979.8</ele>
        <time>2026-08-27T10:28:07.221Z</time>
      </trkpt>
      <trkpt lat="47.83821" lon="6.99088">
        <ele>979.8</ele>
        <time>2026-08-27T10:28:08.230Z</time>
      </trkpt>
      <trkpt lat="47.83821" lon="6.99088">
        <ele>979.8</ele>
        <time>2026-08-27T10:28:09.239Z</time>
      </trkpt>
      <trkpt lat="47.83821" lon="6.99088">
        <ele>979.8</ele>
        <time>2026-08-27T10:28:10.248Z</time>
      </trkpt>
      <trkpt lat="47.83821" lon="6.99088">
        <ele>979.8</ele>
        <time>2026-08-27T10:28:11.255Z</time>
      </trkpt>
      <trkpt lat="47.83821" lon="6.99088">
        <ele>979.8</ele>
        <time>2026-08-27T10:28:12.264Z</time>
      </trkpt>
      <trkpt lat="47.83821" lon="6.99088">
        <ele>979.8</ele>
        <time>2026-08-27T10:28:13.273Z</time>
      </trkpt>
      <trkpt lat="47.83821" lon="6.99088">
        <ele>979.8</ele>
        <time>2026-08-27T10:28:14.280Z</time>
      </trkpt>
      <trkpt lat="47.83821" lon="6.99088">
        <ele>979.8</ele>
        <time>2026-08-27T10:28:16.297Z</time>
      </trkpt>
      <trkpt lat="47.83821" lon="6.99088">
        <ele>979.8</ele>
        <time>2026-08-27T10:28:18.214Z</time>
      </trkpt>
      <trkpt lat="47.83821" lon="6.99089">
        <ele>979.8</ele>
        <time>2026-08-27T10:28:19.221Z</time>
      </trkpt>
      <trkpt lat="47.83821" lon="6.99089">
        <ele>980.2</ele>
        <time>2026-08-27T10:28:20.230Z</time>
      </trkpt>
      <trkpt lat="47.83821" lon="6.99089">
        <ele>980.1</ele>
        <time>2026-08-27T10:28:21.238Z</time>
      </trkpt>
      <trkpt lat="47.83821" lon="6.99089">
        <ele>980.1</ele>
        <time>2026-08-27T10:28:22.246Z</time>
      </trkpt>
      <trkpt lat="47.83821" lon="6.99089">
        <ele>980.7</ele>
        <time>2026-08-27T10:28:23.255Z</time>
      </trkpt>
      <trkpt lat="47.83821" lon="6.99089">
        <ele>980.7</ele>
        <time>2026-08-27T10:28:24.264Z</time>
      </trkpt>
      <trkpt lat="47.83821" lon="6.99089">
        <ele>980.6</ele>
        <time>2026-08-27T10:28:25.271Z</time>
      </trkpt>
      <trkpt lat="47.83821" lon="6.99089">
        <ele>980.6</ele>
        <time>2026-08-27T10:28:26.280Z</time>
      </trkpt>
      <trkpt lat="47.83821" lon="6.99089">
        <ele>980.9</ele>
        <time>2026-08-27T10:28:28.196Z</time>
      </trkpt>
      <trkpt lat="47.83821" lon="6.99089">
        <ele>980.6</ele>
        <time>2026-08-27T10:28:29.204Z</time>
      </trkpt>
      <trkpt lat="47.83821" lon="6.99089">
        <ele>980.3</ele>
        <time>2026-08-27T10:28:30.212Z</time>
      </trkpt>
      <trkpt lat="47.83821" lon="6.99089">
        <ele>980.9</ele>
        <time>2026-08-27T10:28:31.221Z</time>
      </trkpt>
      <trkpt lat="47.83821" lon="6.99089">
        <ele>980.9</ele>
        <time>2026-08-27T10:28:32.229Z</time>
      </trkpt>
      <trkpt lat="47.83821" lon="6.99089">
        <ele>981.5</ele>
        <time>2026-08-27T10:28:33.238Z</time>
      </trkpt>
      <trkpt lat="47.83821" lon="6.99089">
        <ele>981.5</ele>
        <time>2026-08-27T10:28:34.246Z</time>
      </trkpt>
      <trkpt lat="47.83821" lon="6.99089">
        <ele>983</ele>
        <time>2026-08-27T10:28:35.254Z</time>
      </trkpt>
      <trkpt lat="47.83821" lon="6.99089">
        <ele>982.8</ele>
        <time>2026-08-27T10:28:36.262Z</time>
      </trkpt>
      <trkpt lat="47.83821" lon="6.99089">
        <ele>982.8</ele>
        <time>2026-08-27T10:28:37.272Z</time>
      </trkpt>
      <trkpt lat="47.83821" lon="6.99089">
        <ele>982.8</ele>
        <time>2026-08-27T10:28:38.279Z</time>
      </trkpt>
      <trkpt lat="47.83821" lon="6.99089">
        <ele>983.7</ele>
        <time>2026-08-27T10:28:40.296Z</time>
      </trkpt>
      <trkpt lat="47.83821" lon="6.99089">
        <ele>983</ele>
        <time>2026-08-27T10:28:42.212Z</time>
      </trkpt>
      <trkpt lat="47.83821" lon="6.99089">
        <ele>983.6</ele>
        <time>2026-08-27T10:28:43.220Z</time>
      </trkpt>
      <trkpt lat="47.83821" lon="6.99089">
        <ele>983.2</ele>
        <time>2026-08-27T10:28:44.229Z</time>
      </trkpt>
      <trkpt lat="47.83821" lon="6.99089">
        <ele>983.2</ele>
        <time>2026-08-27T10:28:45.238Z</time>
      </trkpt>
      <trkpt lat="47.83821" lon="6.99089">
        <ele>983.7</ele>
        <time>2026-08-27T10:28:46.245Z</time>
      </trkpt>
      <trkpt lat="47.83821" lon="6.99089">
        <ele>983.8</ele>
        <time>2026-08-27T10:28:47.254Z</time>
      </trkpt>
      <trkpt lat="47.83821" lon="6.99089">
        <ele>983.9</ele>
        <time>2026-08-27T10:28:48.262Z</time>
      </trkpt>
      <trkpt lat="47.83821" lon="6.99089">
        <ele>983.9</ele>
        <time>2026-08-27T10:28:49.271Z</time>
      </trkpt>
      <trkpt lat="47.83821" lon="6.99089">
        <ele>983.9</ele>
        <time>2026-08-27T10:28:50.279Z</time>
      </trkpt>
      <trkpt lat="47.83821" lon="6.99089">
        <ele>983.9</ele>
        <time>2026-08-27T10:28:52.295Z</time>
      </trkpt>
      <trkpt lat="47.83821" lon="6.99089">
        <ele>983.9</ele>
        <time>2026-08-27T10:28:54.211Z</time>
      </trkpt>
      <trkpt lat="47.83821" lon="6.99089">
        <ele>983.8</ele>
        <time>2026-08-27T10:28:55.220Z</time>
      </trkpt>
      <trkpt lat="47.83821" lon="6.99089">
        <ele>983.9</ele>
        <time>2026-08-27T10:28:56.228Z</time>
      </trkpt>
      <trkpt lat="47.83821" lon="6.99089">
        <ele>983.9</ele>
        <time>2026-08-27T10:28:57.237Z</time>
      </trkpt>
      <trkpt lat="47.83821" lon="6.99089">
        <ele>983.8</ele>
        <time>2026-08-27T10:28:58.244Z</time>
      </trkpt>
      <trkpt lat="47.83821" lon="6.99089">
        <ele>983.9</ele>
        <time>2026-08-27T10:28:59.253Z</time>
      </trkpt>
      <trkpt lat="47.83821" lon="6.99089">
        <ele>983.9</ele>
        <time>2026-08-27T10:29:00.261Z</time>
      </trkpt>
      <trkpt lat="47.83821" lon="6.99089">
        <ele>983.9</ele>
        <time>2026-08-27T10:29:01.270Z</time>
      </trkpt>
      <trkpt lat="47.83821" lon="6.99089">
        <ele>983.9</ele>
        <time>2026-08-27T10:29:02.278Z</time>
      </trkpt>
      <trkpt lat="47.83821" lon="6.99089">
        <ele>983.9</ele>
        <time>2026-08-27T10:29:04.294Z</time>
      </trkpt>
      <trkpt lat="47.83821" lon="6.99089">
        <ele>983.9</ele>
        <time>2026-08-27T10:29:06.210Z</time>
      </trkpt>
      <trkpt lat="47.83821" lon="6.99089">
        <ele>983.8</ele>
        <time>2026-08-27T10:29:07.219Z</time>
      </trkpt>
      <trkpt lat="47.83821" lon="6.99089">
        <ele>983.8</ele>
        <time>2026-08-27T10:29:08.228Z</time>
      </trkpt>
      <trkpt lat="47.83821" lon="6.99089">
        <ele>983.8</ele>
        <time>2026-08-27T10:29:09.235Z</time>
      </trkpt>
      <trkpt lat="47.83821" lon="6.99089">
        <ele>983.8</ele>
        <time>2026-08-27T10:29:10.244Z</time>
      </trkpt>
      <trkpt lat="47.83821" lon="6.99088">
        <ele>983.7</ele>
        <time>2026-08-27T10:29:11.252Z</time>
      </trkpt>
      <trkpt lat="47.83822" lon="6.99088">
        <ele>983.7</ele>
        <time>2026-08-27T10:29:12.261Z</time>
      </trkpt>
      <trkpt lat="47.83822" lon="6.99088">
        <ele>983.6</ele>
        <time>2026-08-27T10:29:13.270Z</time>
      </trkpt>
      <trkpt lat="47.83822" lon="6.99088">
        <ele>983.7</ele>
        <time>2026-08-27T10:29:14.278Z</time>
      </trkpt>
      <trkpt lat="47.83822" lon="6.99088">
        <ele>983.6</ele>
        <time>2026-08-27T10:29:16.294Z</time>
      </trkpt>
      <trkpt lat="47.83822" lon="6.99088">
        <ele>983.6</ele>
        <time>2026-08-27T10:29:18.210Z</time>
      </trkpt>
      <trkpt lat="47.83822" lon="6.99088">
        <ele>983.8</ele>
        <time>2026-08-27T10:29:19.218Z</time>
      </trkpt>
      <trkpt lat="47.83822" lon="6.99088">
        <ele>983.9</ele>
        <time>2026-08-27T10:29:20.226Z</time>
      </trkpt>
      <trkpt lat="47.83822" lon="6.99088">
        <ele>983.8</ele>
        <time>2026-08-27T10:29:21.234Z</time>
      </trkpt>
      <trkpt lat="47.83822" lon="6.99088">
        <ele>983.7</ele>
        <time>2026-08-27T10:29:22.244Z</time>
      </trkpt>
      <trkpt lat="47.83822" lon="6.99088">
        <ele>983.7</ele>
        <time>2026-08-27T10:29:23.251Z</time>
      </trkpt>
      <trkpt lat="47.83822" lon="6.99088">
        <ele>983.7</ele>
        <time>2026-08-27T10:29:24.259Z</time>
      </trkpt>
      <trkpt lat="47.83822" lon="6.99088">
        <ele>983.7</ele>
        <time>2026-08-27T10:29:25.268Z</time>
      </trkpt>
      <trkpt lat="47.83822" lon="6.99088">
        <ele>983.7</ele>
        <time>2026-08-27T10:29:26.276Z</time>
      </trkpt>
      <trkpt lat="47.83822" lon="6.99088">
        <ele>983.6</ele>
        <time>2026-08-27T10:29:27.285Z</time>
      </trkpt>
      <trkpt lat="47.83822" lon="6.99088">
        <ele>983.3</ele>
        <time>2026-08-27T10:29:28.293Z</time>
      </trkpt>
      <trkpt lat="47.83822" lon="6.99088">
        <ele>983.1</ele>
        <time>2026-08-27T10:29:30.309Z</time>
      </trkpt>
      <trkpt lat="47.83822" lon="6.99088">
        <ele>983.3</ele>
        <time>2026-08-27T10:29:32.225Z</time>
      </trkpt>
      <trkpt lat="47.83822" lon="6.99088">
        <ele>983.2</ele>
        <time>2026-08-27T10:29:33.234Z</time>
      </trkpt>
      <trkpt lat="47.83822" lon="6.99088">
        <ele>983</ele>
        <time>2026-08-27T10:29:34.242Z</time>
      </trkpt>
      <trkpt lat="47.83822" lon="6.99088">
        <ele>983</ele>
        <time>2026-08-27T10:29:35.251Z</time>
      </trkpt>
      <trkpt lat="47.83822" lon="6.99088">
        <ele>983.3</ele>
        <time>2026-08-27T10:29:36.260Z</time>
      </trkpt>
      <trkpt lat="47.83822" lon="6.99088">
        <ele>983.3</ele>
        <time>2026-08-27T10:29:37.267Z</time>
      </trkpt>
      <trkpt lat="47.83822" lon="6.99088">
        <ele>983.2</ele>
        <time>2026-08-27T10:29:38.276Z</time>
      </trkpt>
      <trkpt lat="47.83822" lon="6.99088">
        <ele>983.1</ele>
        <time>2026-08-27T10:29:39.284Z</time>
      </trkpt>
      <trkpt lat="47.83822" lon="6.99088">
        <ele>982.9</ele>
        <time>2026-08-27T10:29:40.292Z</time>
      </trkpt>
      <trkpt lat="47.83822" lon="6.99088">
        <ele>983</ele>
        <time>2026-08-27T10:29:42.208Z</time>
      </trkpt>
      <trkpt lat="47.83822" lon="6.99088">
        <ele>983.1</ele>
        <time>2026-08-27T10:29:43.216Z</time>
      </trkpt>
      <trkpt lat="47.83822" lon="6.99088">
        <ele>983.1</ele>
        <time>2026-08-27T10:29:44.225Z</time>
      </trkpt>
      <trkpt lat="47.83822" lon="6.99088">
        <ele>983</ele>
        <time>2026-08-27T10:29:45.234Z</time>
      </trkpt>
      <trkpt lat="47.83822" lon="6.99088">
        <ele>982.8</ele>
        <time>2026-08-27T10:29:46.241Z</time>
      </trkpt>
      <trkpt lat="47.83822" lon="6.99088">
        <ele>982.9</ele>
        <time>2026-08-27T10:29:47.249Z</time>
      </trkpt>
      <trkpt lat="47.83822" lon="6.99088">
        <ele>982.9</ele>
        <time>2026-08-27T10:29:48.258Z</time>
      </trkpt>
      <trkpt lat="47.83822" lon="6.99088">
        <ele>982.9</ele>
        <time>2026-08-27T10:29:49.267Z</time>
      </trkpt>
      <trkpt lat="47.83822" lon="6.99088">
        <ele>982.9</ele>
        <time>2026-08-27T10:29:50.275Z</time>
      </trkpt>
      <trkpt lat="47.83822" lon="6.99088">
        <ele>982.8</ele>
        <time>2026-08-27T10:29:51.283Z</time>
      </trkpt>
      <trkpt lat="47.83822" lon="6.99088">
        <ele>982.6</ele>
        <time>2026-08-27T10:29:52.291Z</time>
      </trkpt>
      <trkpt lat="47.83822" lon="6.99088">
        <ele>982.5</ele>
        <time>2026-08-27T10:29:54.208Z</time>
      </trkpt>
      <trkpt lat="47.83822" lon="6.99088">
        <ele>982.6</ele>
        <time>2026-08-27T10:29:55.215Z</time>
      </trkpt>
      <trkpt lat="47.83822" lon="6.99088">
        <ele>982.7</ele>
        <time>2026-08-27T10:29:56.224Z</time>
      </trkpt>
      <trkpt lat="47.83822" lon="6.99088">
        <ele>982.8</ele>
        <time>2026-08-27T10:29:57.232Z</time>
      </trkpt>
      <trkpt lat="47.83822" lon="6.99088">
        <ele>982.6</ele>
        <time>2026-08-27T10:29:58.241Z</time>
      </trkpt>
      <trkpt lat="47.83822" lon="6.99088">
        <ele>982.6</ele>
        <time>2026-08-27T10:29:59.250Z</time>
      </trkpt>
      <trkpt lat="47.83822" lon="6.99088">
        <ele>982.5</ele>
        <time>2026-08-27T10:30:00.257Z</time>
      </trkpt>
      <trkpt lat="47.83822" lon="6.99088">
        <ele>982.6</ele>
        <time>2026-08-27T10:30:01.265Z</time>
      </trkpt>
      <trkpt lat="47.83822" lon="6.99088">
        <ele>982.7</ele>
        <time>2026-08-27T10:30:02.274Z</time>
      </trkpt>
      <trkpt lat="47.83822" lon="6.99088">
        <ele>982.8</ele>
        <time>2026-08-27T10:30:03.283Z</time>
      </trkpt>
      <trkpt lat="47.83822" lon="6.99088">
        <ele>982.7</ele>
        <time>2026-08-27T10:30:04.291Z</time>
      </trkpt>
      <trkpt lat="47.83822" lon="6.99088">
        <ele>982.7</ele>
        <time>2026-08-27T10:30:06.206Z</time>
      </trkpt>
      <trkpt lat="47.83822" lon="6.99088">
        <ele>982.6</ele>
        <time>2026-08-27T10:30:07.215Z</time>
      </trkpt>
      <trkpt lat="47.83822" lon="6.99088">
        <ele>982.7</ele>
        <time>2026-08-27T10:30:08.223Z</time>
      </trkpt>
      <trkpt lat="47.83822" lon="6.99088">
        <ele>982.8</ele>
        <time>2026-08-27T10:30:09.231Z</time>
      </trkpt>
      <trkpt lat="47.83822" lon="6.99088">
        <ele>982.6</ele>
        <time>2026-08-27T10:30:10.240Z</time>
      </trkpt>
      <trkpt lat="47.83822" lon="6.99088">
        <ele>982.6</ele>
        <time>2026-08-27T10:30:11.248Z</time>
      </trkpt>
      <trkpt lat="47.83822" lon="6.99088">
        <ele>982.5</ele>
        <time>2026-08-27T10:30:12.257Z</time>
      </trkpt>
      <trkpt lat="47.83822" lon="6.99088">
        <ele>982.5</ele>
        <time>2026-08-27T10:30:13.264Z</time>
      </trkpt>
      <trkpt lat="47.83822" lon="6.99088">
        <ele>982.6</ele>
        <time>2026-08-27T10:30:14.274Z</time>
      </trkpt>
      <trkpt lat="47.83822" lon="6.99088">
        <ele>982.6</ele>
        <time>2026-08-27T10:30:15.282Z</time>
      </trkpt>
      <trkpt lat="47.83822" lon="6.99088">
        <ele>982.6</ele>
        <time>2026-08-27T10:30:16.289Z</time>
      </trkpt>
      <trkpt lat="47.83822" lon="6.99088">
        <ele>982.5</ele>
        <time>2026-08-27T10:30:18.205Z</time>
      </trkpt>
      <trkpt lat="47.83822" lon="6.99088">
        <ele>982.5</ele>
        <time>2026-08-27T10:30:19.214Z</time>
      </trkpt>
      <trkpt lat="47.83822" lon="6.99088">
        <ele>982.5</ele>
        <time>2026-08-27T10:30:20.222Z</time>
      </trkpt>
      <trkpt lat="47.83822" lon="6.99088">
        <ele>982.5</ele>
        <time>2026-08-27T10:30:21.230Z</time>
      </trkpt>
      <trkpt lat="47.83822" lon="6.99088">
        <ele>982.6</ele>
        <time>2026-08-27T10:30:22.238Z</time>
      </trkpt>
      <trkpt lat="47.83822" lon="6.99088">
        <ele>982.6</ele>
        <time>2026-08-27T10:30:23.247Z</time>
      </trkpt>
      <trkpt lat="47.83822" lon="6.99088">
        <ele>982.5</ele>
        <time>2026-08-27T10:30:24.255Z</time>
      </trkpt>
      <trkpt lat="47.83822" lon="6.99088">
        <ele>982.6</ele>
        <time>2026-08-27T10:30:25.263Z</time>
      </trkpt>
      <trkpt lat="47.83822" lon="6.99088">
        <ele>982.6</ele>
        <time>2026-08-27T10:30:26.272Z</time>
      </trkpt>
      <trkpt lat="47.83822" lon="6.99088">
        <ele>982.4</ele>
        <time>2026-08-27T10:30:27.281Z</time>
      </trkpt>
      <trkpt lat="47.83822" lon="6.99088">
        <ele>982.4</ele>
        <time>2026-08-27T10:30:28.288Z</time>
      </trkpt>
      <trkpt lat="47.83822" lon="6.99088">
        <ele>982.5</ele>
        <time>2026-08-27T10:30:30.205Z</time>
      </trkpt>
      <trkpt lat="47.83822" lon="6.99088">
        <ele>982.5</ele>
        <time>2026-08-27T10:30:31.212Z</time>
      </trkpt>
      <trkpt lat="47.83822" lon="6.99088">
        <ele>982.5</ele>
        <time>2026-08-27T10:30:32.221Z</time>
      </trkpt>
      <trkpt lat="47.83822" lon="6.99088">
        <ele>982.6</ele>
        <time>2026-08-27T10:30:33.229Z</time>
      </trkpt>
      <trkpt lat="47.83823" lon="6.99088">
        <ele>982.5</ele>
        <time>2026-08-27T10:30:34.237Z</time>
      </trkpt>
      <trkpt lat="47.83823" lon="6.99088">
        <ele>982.6</ele>
        <time>2026-08-27T10:30:35.246Z</time>
      </trkpt>
      <trkpt lat="47.83823" lon="6.99088">
        <ele>982.5</ele>
        <time>2026-08-27T10:30:36.255Z</time>
      </trkpt>
      <trkpt lat="47.83823" lon="6.99088">
        <ele>982.6</ele>
        <time>2026-08-27T10:30:37.262Z</time>
      </trkpt>
      <trkpt lat="47.83823" lon="6.99088">
        <ele>982.7</ele>
        <time>2026-08-27T10:30:38.270Z</time>
      </trkpt>
      <trkpt lat="47.83823" lon="6.99088">
        <ele>982.7</ele>
        <time>2026-08-27T10:30:39.280Z</time>
      </trkpt>
      <trkpt lat="47.83823" lon="6.99088">
        <ele>982.6</ele>
        <time>2026-08-27T10:30:40.287Z</time>
      </trkpt>
      <trkpt lat="47.83823" lon="6.99088">
        <ele>982.5</ele>
        <time>2026-08-27T10:30:42.203Z</time>
      </trkpt>
      <trkpt lat="47.83823" lon="6.99088">
        <ele>982.6</ele>
        <time>2026-08-27T10:30:43.212Z</time>
      </trkpt>
      <trkpt lat="47.83823" lon="6.99088">
        <ele>982.6</ele>
        <time>2026-08-27T10:30:44.220Z</time>
      </trkpt>
      <trkpt lat="47.83823" lon="6.99088">
        <ele>982.8</ele>
        <time>2026-08-27T10:30:45.228Z</time>
      </trkpt>
      <trkpt lat="47.83823" lon="6.99088">
        <ele>982.7</ele>
        <time>2026-08-27T10:30:46.236Z</time>
      </trkpt>
      <trkpt lat="47.83823" lon="6.99088">
        <ele>982.5</ele>
        <time>2026-08-27T10:30:47.245Z</time>
      </trkpt>
      <trkpt lat="47.83823" lon="6.99088">
        <ele>982.5</ele>
        <time>2026-08-27T10:30:48.254Z</time>
      </trkpt>
      <trkpt lat="47.83823" lon="6.99088">
        <ele>982.5</ele>
        <time>2026-08-27T10:30:49.261Z</time>
      </trkpt>
      <trkpt lat="47.83823" lon="6.99088">
        <ele>982.5</ele>
        <time>2026-08-27T10:30:50.269Z</time>
      </trkpt>
      <trkpt lat="47.83823" lon="6.99088">
        <ele>982.6</ele>
        <time>2026-08-27T10:30:51.278Z</time>
      </trkpt>
      <trkpt lat="47.83823" lon="6.99088">
        <ele>982.5</ele>
        <time>2026-08-27T10:30:52.287Z</time>
      </trkpt>
      <trkpt lat="47.83823" lon="6.99088">
        <ele>982.5</ele>
        <time>2026-08-27T10:30:54.304Z</time>
      </trkpt>
      <trkpt lat="47.83823" lon="6.99088">
        <ele>982.4</ele>
        <time>2026-08-27T10:30:56.218Z</time>
      </trkpt>
      <trkpt lat="47.83823" lon="6.99088">
        <ele>982.5</ele>
        <time>2026-08-27T10:30:57.228Z</time>
      </trkpt>
      <trkpt lat="47.83823" lon="6.99088">
        <ele>982.5</ele>
        <time>2026-08-27T10:30:58.236Z</time>
      </trkpt>
      <trkpt lat="47.83823" lon="6.99088">
        <ele>982.5</ele>
        <time>2026-08-27T10:30:59.243Z</time>
      </trkpt>
      <trkpt lat="47.83823" lon="6.99088">
        <ele>982.5</ele>
        <time>2026-08-27T10:31:00.252Z</time>
      </trkpt>
      <trkpt lat="47.83823" lon="6.99088">
        <ele>982.5</ele>
        <time>2026-08-27T10:31:01.261Z</time>
      </trkpt>
      <trkpt lat="47.83823" lon="6.99088">
        <ele>982.5</ele>
        <time>2026-08-27T10:31:02.268Z</time>
      </trkpt>
      <trkpt lat="47.83823" lon="6.99088">
        <ele>982.6</ele>
        <time>2026-08-27T10:31:03.277Z</time>
      </trkpt>
      <trkpt lat="47.83823" lon="6.99088">
        <ele>982.5</ele>
        <time>2026-08-27T10:31:04.285Z</time>
      </trkpt>
      <trkpt lat="47.83823" lon="6.99088">
        <ele>982.5</ele>
        <time>2026-08-27T10:31:06.202Z</time>
      </trkpt>
      <trkpt lat="47.83823" lon="6.99088">
        <ele>982.4</ele>
        <time>2026-08-27T10:31:07.210Z</time>
      </trkpt>
      <trkpt lat="47.83823" lon="6.99088">
        <ele>982.5</ele>
        <time>2026-08-27T10:31:08.217Z</time>
      </trkpt>
      <trkpt lat="47.83823" lon="6.99088">
        <ele>982.5</ele>
        <time>2026-08-27T10:31:09.226Z</time>
      </trkpt>
      <trkpt lat="47.83823" lon="6.99088">
        <ele>982.6</ele>
        <time>2026-08-27T10:31:10.234Z</time>
      </trkpt>
      <trkpt lat="47.83822" lon="6.99088">
        <ele>982.6</ele>
        <time>2026-08-27T10:31:11.242Z</time>
      </trkpt>
      <trkpt lat="47.83822" lon="6.99088">
        <ele>982.6</ele>
        <time>2026-08-27T10:31:12.251Z</time>
      </trkpt>
      <trkpt lat="47.83822" lon="6.99088">
        <ele>982.6</ele>
        <time>2026-08-27T10:31:13.260Z</time>
      </trkpt>
      <trkpt lat="47.83822" lon="6.99088">
        <ele>982.6</ele>
        <time>2026-08-27T10:31:14.267Z</time>
      </trkpt>
      <trkpt lat="47.83822" lon="6.99088">
        <ele>982.5</ele>
        <time>2026-08-27T10:31:15.275Z</time>
      </trkpt>
      <trkpt lat="47.83822" lon="6.99088">
        <ele>982.5</ele>
        <time>2026-08-27T10:31:16.284Z</time>
      </trkpt>
      <trkpt lat="47.83822" lon="6.99088">
        <ele>982.5</ele>
        <time>2026-08-27T10:31:18.301Z</time>
      </trkpt>
      <trkpt lat="47.83822" lon="6.99088">
        <ele>982.7</ele>
        <time>2026-08-27T10:31:20.216Z</time>
      </trkpt>
      <trkpt lat="47.83822" lon="6.99088">
        <ele>982.6</ele>
        <time>2026-08-27T10:31:21.225Z</time>
      </trkpt>
      <trkpt lat="47.83822" lon="6.99088">
        <ele>982.6</ele>
        <time>2026-08-27T10:31:22.233Z</time>
      </trkpt>
      <trkpt lat="47.83822" lon="6.99088">
        <ele>982.6</ele>
        <time>2026-08-27T10:31:23.242Z</time>
      </trkpt>
      <trkpt lat="47.83822" lon="6.99088">
        <ele>982.6</ele>
        <time>2026-08-27T10:31:24.250Z</time>
      </trkpt>
      <trkpt lat="47.83822" lon="6.99088">
        <ele>982.6</ele>
        <time>2026-08-27T10:31:25.258Z</time>
      </trkpt>
      <trkpt lat="47.83822" lon="6.99088">
        <ele>982.6</ele>
        <time>2026-08-27T10:31:26.266Z</time>
      </trkpt>
      <trkpt lat="47.83822" lon="6.99088">
        <ele>982.6</ele>
        <time>2026-08-27T10:31:27.274Z</time>
      </trkpt>
      <trkpt lat="47.83822" lon="6.99088">
        <ele>982.7</ele>
        <time>2026-08-27T10:31:28.283Z</time>
      </trkpt>
      <trkpt lat="47.83822" lon="6.99088">
        <ele>982.9</ele>
        <time>2026-08-27T10:31:30.299Z</time>
      </trkpt>
      <trkpt lat="47.83822" lon="6.99088">
        <ele>982.8</ele>
        <time>2026-08-27T10:31:32.215Z</time>
      </trkpt>
      <trkpt lat="47.83822" lon="6.99088">
        <ele>982.8</ele>
        <time>2026-08-27T10:31:33.224Z</time>
      </trkpt>
      <trkpt lat="47.83822" lon="6.99088">
        <ele>982.7</ele>
        <time>2026-08-27T10:31:34.232Z</time>
      </trkpt>
      <trkpt lat="47.83822" lon="6.99088">
        <ele>982.7</ele>
        <time>2026-08-27T10:31:35.241Z</time>
      </trkpt>
      <trkpt lat="47.83822" lon="6.99088">
        <ele>982.7</ele>
        <time>2026-08-27T10:31:36.248Z</time>
      </trkpt>
      <trkpt lat="47.83822" lon="6.99088">
        <ele>982.7</ele>
        <time>2026-08-27T10:31:37.256Z</time>
      </trkpt>
      <trkpt lat="47.83822" lon="6.99088">
        <ele>982.8</ele>
        <time>2026-08-27T10:31:38.265Z</time>
      </trkpt>
      <trkpt lat="47.83822" lon="6.99088">
        <ele>982.8</ele>
        <time>2026-08-27T10:31:39.273Z</time>
      </trkpt>
      <trkpt lat="47.83822" lon="6.99088">
        <ele>982.8</ele>
        <time>2026-08-27T10:31:40.281Z</time>
      </trkpt>
      <trkpt lat="47.83822" lon="6.99088">
        <ele>982.8</ele>
        <time>2026-08-27T10:31:42.197Z</time>
      </trkpt>
      <trkpt lat="47.83822" lon="6.99088">
        <ele>982.7</ele>
        <time>2026-08-27T10:31:43.205Z</time>
      </trkpt>
      <trkpt lat="47.83822" lon="6.99088">
        <ele>982.7</ele>
        <time>2026-08-27T10:31:44.214Z</time>
      </trkpt>
      <trkpt lat="47.83822" lon="6.99088">
        <ele>982.7</ele>
        <time>2026-08-27T10:31:45.223Z</time>
      </trkpt>
      <trkpt lat="47.83822" lon="6.99088">
        <ele>982.8</ele>
        <time>2026-08-27T10:31:46.230Z</time>
      </trkpt>
      <trkpt lat="47.83822" lon="6.99088">
        <ele>982.9</ele>
        <time>2026-08-27T10:31:47.239Z</time>
      </trkpt>
      <trkpt lat="47.83822" lon="6.99089">
        <ele>982.9</ele>
        <time>2026-08-27T10:31:48.248Z</time>
      </trkpt>
      <trkpt lat="47.83822" lon="6.99089">
        <ele>983</ele>
        <time>2026-08-27T10:31:49.255Z</time>
      </trkpt>
      <trkpt lat="47.83822" lon="6.99089">
        <ele>983</ele>
        <time>2026-08-27T10:31:50.263Z</time>
      </trkpt>
      <trkpt lat="47.83822" lon="6.99089">
        <ele>983</ele>
        <time>2026-08-27T10:31:51.272Z</time>
      </trkpt>
      <trkpt lat="47.83822" lon="6.99089">
        <ele>983.1</ele>
        <time>2026-08-27T10:31:52.281Z</time>
      </trkpt>
      <trkpt lat="47.83822" lon="6.99089">
        <ele>983</ele>
        <time>2026-08-27T10:31:54.298Z</time>
      </trkpt>
      <trkpt lat="47.83822" lon="6.99088">
        <ele>983</ele>
        <time>2026-08-27T10:31:56.212Z</time>
      </trkpt>
      <trkpt lat="47.83822" lon="6.99088">
        <ele>983.1</ele>
        <time>2026-08-27T10:31:57.222Z</time>
      </trkpt>
      <trkpt lat="47.83822" lon="6.99088">
        <ele>983.2</ele>
        <time>2026-08-27T10:31:58.230Z</time>
      </trkpt>
      <trkpt lat="47.83822" lon="6.99088">
        <ele>983.3</ele>
        <time>2026-08-27T10:31:59.237Z</time>
      </trkpt>
      <trkpt lat="47.83822" lon="6.99088">
        <ele>983.3</ele>
        <time>2026-08-27T10:32:00.245Z</time>
      </trkpt>
      <trkpt lat="47.83822" lon="6.99088">
        <ele>983.1</ele>
        <time>2026-08-27T10:32:01.254Z</time>
      </trkpt>
      <trkpt lat="47.83821" lon="6.99088">
        <ele>983.1</ele>
        <time>2026-08-27T10:32:02.263Z</time>
      </trkpt>
      <trkpt lat="47.83821" lon="6.99088">
        <ele>983.3</ele>
        <time>2026-08-27T10:32:03.270Z</time>
      </trkpt>
      <trkpt lat="47.83821" lon="6.99088">
        <ele>983.3</ele>
        <time>2026-08-27T10:32:04.279Z</time>
      </trkpt>
      <trkpt lat="47.83821" lon="6.99088">
        <ele>983.3</ele>
        <time>2026-08-27T10:32:06.296Z</time>
      </trkpt>
      <trkpt lat="47.83821" lon="6.99088">
        <ele>983</ele>
        <time>2026-08-27T10:32:08.211Z</time>
      </trkpt>
      <trkpt lat="47.83821" lon="6.99088">
        <ele>983</ele>
        <time>2026-08-27T10:32:09.219Z</time>
      </trkpt>
      <trkpt lat="47.83821" lon="6.99088">
        <ele>983.1</ele>
        <time>2026-08-27T10:32:10.229Z</time>
      </trkpt>
      <trkpt lat="47.83821" lon="6.99088">
        <ele>983.2</ele>
        <time>2026-08-27T10:32:11.236Z</time>
      </trkpt>
      <trkpt lat="47.83821" lon="6.99088">
        <ele>983.1</ele>
        <time>2026-08-27T10:32:12.244Z</time>
      </trkpt>
      <trkpt lat="47.83821" lon="6.99088">
        <ele>983.3</ele>
        <time>2026-08-27T10:32:13.253Z</time>
      </trkpt>
      <trkpt lat="47.83821" lon="6.99088">
        <ele>983.2</ele>
        <time>2026-08-27T10:32:14.261Z</time>
      </trkpt>
      <trkpt lat="47.83821" lon="6.99088">
        <ele>983.2</ele>
        <time>2026-08-27T10:32:15.269Z</time>
      </trkpt>
      <trkpt lat="47.83821" lon="6.99088">
        <ele>983.1</ele>
        <time>2026-08-27T10:32:16.277Z</time>
      </trkpt>
      <trkpt lat="47.83821" lon="6.99088">
        <ele>983.2</ele>
        <time>2026-08-27T10:32:17.286Z</time>
      </trkpt>
      <trkpt lat="47.83821" lon="6.99088">
        <ele>983.2</ele>
        <time>2026-08-27T10:32:18.295Z</time>
      </trkpt>
      <trkpt lat="47.83821" lon="6.99088">
        <ele>983.1</ele>
        <time>2026-08-27T10:32:20.210Z</time>
      </trkpt>
      <trkpt lat="47.83821" lon="6.99088">
        <ele>983</ele>
        <time>2026-08-27T10:32:21.219Z</time>
      </trkpt>
      <trkpt lat="47.83821" lon="6.99088">
        <ele>982.7</ele>
        <time>2026-08-27T10:32:22.227Z</time>
      </trkpt>
      <trkpt lat="47.83821" lon="6.99088">
        <ele>982.6</ele>
        <time>2026-08-27T10:32:23.235Z</time>
      </trkpt>
      <trkpt lat="47.83821" lon="6.99088">
        <ele>982.6</ele>
        <time>2026-08-27T10:32:24.243Z</time>
      </trkpt>
      <trkpt lat="47.83821" lon="6.99088">
        <ele>982.7</ele>
        <time>2026-08-27T10:32:25.251Z</time>
      </trkpt>
      <trkpt lat="47.83821" lon="6.99088">
        <ele>982.7</ele>
        <time>2026-08-27T10:32:26.260Z</time>
      </trkpt>
      <trkpt lat="47.83821" lon="6.99088">
        <ele>982.8</ele>
        <time>2026-08-27T10:32:27.268Z</time>
      </trkpt>
      <trkpt lat="47.83821" lon="6.99088">
        <ele>982.8</ele>
        <time>2026-08-27T10:32:28.277Z</time>
      </trkpt>
      <trkpt lat="47.83821" lon="6.99088">
        <ele>982.9</ele>
        <time>2026-08-27T10:32:30.294Z</time>
      </trkpt>
      <trkpt lat="47.83821" lon="6.99088">
        <ele>982.8</ele>
        <time>2026-08-27T10:32:32.309Z</time>
      </trkpt>
      <trkpt lat="47.83821" lon="6.99088">
        <ele>982.6</ele>
        <time>2026-08-27T10:32:34.225Z</time>
      </trkpt>
      <trkpt lat="47.83821" lon="6.99088">
        <ele>982.5</ele>
        <time>2026-08-27T10:32:35.233Z</time>
      </trkpt>
      <trkpt lat="47.83821" lon="6.99088">
        <ele>982.5</ele>
        <time>2026-08-27T10:32:36.243Z</time>
      </trkpt>
      <trkpt lat="47.83821" lon="6.99088">
        <ele>982.4</ele>
        <time>2026-08-27T10:32:37.251Z</time>
      </trkpt>
      <trkpt lat="47.83821" lon="6.99088">
        <ele>982.4</ele>
        <time>2026-08-27T10:32:38.258Z</time>
      </trkpt>
      <trkpt lat="47.83821" lon="6.99088">
        <ele>982.5</ele>
        <time>2026-08-27T10:32:39.266Z</time>
      </trkpt>
      <trkpt lat="47.83821" lon="6.99088">
        <ele>982.6</ele>
        <time>2026-08-27T10:32:40.275Z</time>
      </trkpt>
      <trkpt lat="47.83821" lon="6.99088">
        <ele>982.7</ele>
        <time>2026-08-27T10:32:41.283Z</time>
      </trkpt>
      <trkpt lat="47.83821" lon="6.99089">
        <ele>982.6</ele>
        <time>2026-08-27T10:32:42.291Z</time>
      </trkpt>
      <trkpt lat="47.83821" lon="6.99089">
        <ele>982.5</ele>
        <time>2026-08-27T10:32:44.309Z</time>
      </trkpt>
      <trkpt lat="47.83821" lon="6.99089">
        <ele>982.2</ele>
        <time>2026-08-27T10:32:46.224Z</time>
      </trkpt>
      <trkpt lat="47.83821" lon="6.99089">
        <ele>982.2</ele>
        <time>2026-08-27T10:32:47.233Z</time>
      </trkpt>
      <trkpt lat="47.83821" lon="6.99089">
        <ele>982.3</ele>
        <time>2026-08-27T10:32:48.240Z</time>
      </trkpt>
      <trkpt lat="47.83821" lon="6.99089">
        <ele>982.4</ele>
        <time>2026-08-27T10:32:49.249Z</time>
      </trkpt>
      <trkpt lat="47.83821" lon="6.99089">
        <ele>982.4</ele>
        <time>2026-08-27T10:32:50.257Z</time>
      </trkpt>
      <trkpt lat="47.83821" lon="6.99089">
        <ele>982.5</ele>
        <time>2026-08-27T10:32:51.265Z</time>
      </trkpt>
      <trkpt lat="47.83821" lon="6.99089">
        <ele>982.5</ele>
        <time>2026-08-27T10:32:52.273Z</time>
      </trkpt>
      <trkpt lat="47.83821" lon="6.99089">
        <ele>982.5</ele>
        <time>2026-08-27T10:32:53.282Z</time>
      </trkpt>
      <trkpt lat="47.83821" lon="6.99089">
        <ele>982.5</ele>
        <time>2026-08-27T10:32:54.290Z</time>
      </trkpt>
      <trkpt lat="47.83821" lon="6.99089">
        <ele>982.6</ele>
        <time>2026-08-27T10:32:56.307Z</time>
      </trkpt>
      <trkpt lat="47.83821" lon="6.99089">
        <ele>982.2</ele>
        <time>2026-08-27T10:32:58.222Z</time>
      </trkpt>
      <trkpt lat="47.83821" lon="6.99089">
        <ele>982.3</ele>
        <time>2026-08-27T10:32:59.231Z</time>
      </trkpt>
      <trkpt lat="47.83821" lon="6.99089">
        <ele>982.4</ele>
        <time>2026-08-27T10:33:00.239Z</time>
      </trkpt>
      <trkpt lat="47.83821" lon="6.99089">
        <ele>982.5</ele>
        <time>2026-08-27T10:33:01.247Z</time>
      </trkpt>
      <trkpt lat="47.83821" lon="6.99089">
        <ele>982.7</ele>
        <time>2026-08-27T10:33:02.255Z</time>
      </trkpt>
      <trkpt lat="47.83821" lon="6.99089">
        <ele>982.6</ele>
        <time>2026-08-27T10:33:03.265Z</time>
      </trkpt>
      <trkpt lat="47.83821" lon="6.99089">
        <ele>982.7</ele>
        <time>2026-08-27T10:33:04.272Z</time>
      </trkpt>
      <trkpt lat="47.83821" lon="6.99089">
        <ele>982.6</ele>
        <time>2026-08-27T10:33:05.280Z</time>
      </trkpt>
      <trkpt lat="47.83821" lon="6.99089">
        <ele>982.7</ele>
        <time>2026-08-27T10:33:06.289Z</time>
      </trkpt>
      <trkpt lat="47.83821" lon="6.99089">
        <ele>983</ele>
        <time>2026-08-27T10:33:08.205Z</time>
      </trkpt>
      <trkpt lat="47.83821" lon="6.99089">
        <ele>983</ele>
        <time>2026-08-27T10:33:09.234Z</time>
      </trkpt>
      <trkpt lat="47.83821" lon="6.99089">
        <ele>983</ele>
        <time>2026-08-27T10:33:11.229Z</time>
      </trkpt>
      <trkpt lat="47.83821" lon="6.99089">
        <ele>983</ele>
        <time>2026-08-27T10:33:12.250Z</time>
      </trkpt>
      <trkpt lat="47.83821" lon="6.99089">
        <ele>983.2</ele>
        <time>2026-08-27T10:33:13.259Z</time>
      </trkpt>
      <trkpt lat="47.83821" lon="6.99089">
        <ele>983.4</ele>
        <time>2026-08-27T10:33:14.268Z</time>
      </trkpt>
      <trkpt lat="47.83821" lon="6.99089">
        <ele>983.7</ele>
        <time>2026-08-27T10:33:15.275Z</time>
      </trkpt>
      <trkpt lat="47.83821" lon="6.99089">
        <ele>983.8</ele>
        <time>2026-08-27T10:33:16.284Z</time>
      </trkpt>
      <trkpt lat="47.83821" lon="6.99089">
        <ele>983.5</ele>
        <time>2026-08-27T10:33:18.212Z</time>
      </trkpt>
      <trkpt lat="47.83821" lon="6.99089">
        <ele>983.5</ele>
        <time>2026-08-27T10:33:19.221Z</time>
      </trkpt>
      <trkpt lat="47.83822" lon="6.99089">
        <ele>983.5</ele>
        <time>2026-08-27T10:33:20.229Z</time>
      </trkpt>
      <trkpt lat="47.83822" lon="6.99089">
        <ele>983.7</ele>
        <time>2026-08-27T10:33:21.237Z</time>
      </trkpt>
      <trkpt lat="47.83822" lon="6.99089">
        <ele>983.7</ele>
        <time>2026-08-27T10:33:22.245Z</time>
      </trkpt>
      <trkpt lat="47.83822" lon="6.99089">
        <ele>983.8</ele>
        <time>2026-08-27T10:33:23.254Z</time>
      </trkpt>
      <trkpt lat="47.83822" lon="6.99089">
        <ele>983.9</ele>
        <time>2026-08-27T10:33:24.261Z</time>
      </trkpt>
      <trkpt lat="47.83822" lon="6.99089">
        <ele>983.9</ele>
        <time>2026-08-27T10:33:25.270Z</time>
      </trkpt>
      <trkpt lat="47.83822" lon="6.99089">
        <ele>984.2</ele>
        <time>2026-08-27T10:33:27.286Z</time>
      </trkpt>
      <trkpt lat="47.83822" lon="6.99089">
        <ele>984.4</ele>
        <time>2026-08-27T10:33:29.202Z</time>
      </trkpt>
      <trkpt lat="47.83822" lon="6.99089">
        <ele>984.1</ele>
        <time>2026-08-27T10:33:30.211Z</time>
      </trkpt>
      <trkpt lat="47.83822" lon="6.99089">
        <ele>984.1</ele>
        <time>2026-08-27T10:33:31.219Z</time>
      </trkpt>
      <trkpt lat="47.83822" lon="6.99089">
        <ele>984.3</ele>
        <time>2026-08-27T10:33:32.227Z</time>
      </trkpt>
      <trkpt lat="47.83822" lon="6.99089">
        <ele>983.9</ele>
        <time>2026-08-27T10:33:33.236Z</time>
      </trkpt>
      <trkpt lat="47.83822" lon="6.99089">
        <ele>983.9</ele>
        <time>2026-08-27T10:33:34.244Z</time>
      </trkpt>
      <trkpt lat="47.83822" lon="6.99089">
        <ele>984</ele>
        <time>2026-08-27T10:33:35.253Z</time>
      </trkpt>
      <trkpt lat="47.83822" lon="6.99089">
        <ele>984.1</ele>
        <time>2026-08-27T10:33:36.261Z</time>
      </trkpt>
      <trkpt lat="47.83822" lon="6.99089">
        <ele>984.1</ele>
        <time>2026-08-27T10:33:37.269Z</time>
      </trkpt>
      <trkpt lat="47.83822" lon="6.99089">
        <ele>984</ele>
        <time>2026-08-27T10:33:38.277Z</time>
      </trkpt>
      <trkpt lat="47.83822" lon="6.99089">
        <ele>983.5</ele>
        <time>2026-08-27T10:33:39.286Z</time>
      </trkpt>
      <trkpt lat="47.83822" lon="6.9909">
        <ele>983.6</ele>
        <time>2026-08-27T10:33:41.202Z</time>
      </trkpt>
      <trkpt lat="47.83822" lon="6.9909">
        <ele>983.5</ele>
        <time>2026-08-27T10:33:42.211Z</time>
      </trkpt>
      <trkpt lat="47.83822" lon="6.9909">
        <ele>983.2</ele>
        <time>2026-08-27T10:33:43.219Z</time>
      </trkpt>
      <trkpt lat="47.83822" lon="6.9909">
        <ele>983.3</ele>
        <time>2026-08-27T10:33:44.227Z</time>
      </trkpt>
      <trkpt lat="47.83822" lon="6.9909">
        <ele>983.3</ele>
        <time>2026-08-27T10:33:45.236Z</time>
      </trkpt>
      <trkpt lat="47.83822" lon="6.9909">
        <ele>983.5</ele>
        <time>2026-08-27T10:33:46.243Z</time>
      </trkpt>
      <trkpt lat="47.83822" lon="6.9909">
        <ele>983.5</ele>
        <time>2026-08-27T10:33:47.253Z</time>
      </trkpt>
      <trkpt lat="47.83822" lon="6.9909">
        <ele>983.6</ele>
        <time>2026-08-27T10:33:48.260Z</time>
      </trkpt>
      <trkpt lat="47.83822" lon="6.9909">
        <ele>983.5</ele>
        <time>2026-08-27T10:33:49.269Z</time>
      </trkpt>
      <trkpt lat="47.83822" lon="6.9909">
        <ele>983.5</ele>
        <time>2026-08-27T10:33:50.277Z</time>
      </trkpt>
      <trkpt lat="47.83822" lon="6.9909">
        <ele>983.4</ele>
        <time>2026-08-27T10:33:51.285Z</time>
      </trkpt>
      <trkpt lat="47.83822" lon="6.9909">
        <ele>983.3</ele>
        <time>2026-08-27T10:33:53.201Z</time>
      </trkpt>
      <trkpt lat="47.83822" lon="6.9909">
        <ele>983.3</ele>
        <time>2026-08-27T10:33:54.211Z</time>
      </trkpt>
      <trkpt lat="47.83822" lon="6.9909">
        <ele>983.2</ele>
        <time>2026-08-27T10:33:55.219Z</time>
      </trkpt>
      <trkpt lat="47.83822" lon="6.9909">
        <ele>983.3</ele>
        <time>2026-08-27T10:33:56.226Z</time>
      </trkpt>
      <trkpt lat="47.83822" lon="6.9909">
        <ele>983.2</ele>
        <time>2026-08-27T10:33:57.235Z</time>
      </trkpt>
      <trkpt lat="47.83822" lon="6.9909">
        <ele>983.3</ele>
        <time>2026-08-27T10:33:58.243Z</time>
      </trkpt>
      <trkpt lat="47.83822" lon="6.9909">
        <ele>983.4</ele>
        <time>2026-08-27T10:33:59.252Z</time>
      </trkpt>
      <trkpt lat="47.83822" lon="6.9909">
        <ele>983.4</ele>
        <time>2026-08-27T10:34:00.261Z</time>
      </trkpt>
      <trkpt lat="47.83822" lon="6.9909">
        <ele>983.4</ele>
        <time>2026-08-27T10:34:01.268Z</time>
      </trkpt>
      <trkpt lat="47.83821" lon="6.9909">
        <ele>983.5</ele>
        <time>2026-08-27T10:34:02.277Z</time>
      </trkpt>
      <trkpt lat="47.83821" lon="6.9909">
        <ele>983.3</ele>
        <time>2026-08-27T10:34:03.285Z</time>
      </trkpt>
      <trkpt lat="47.83821" lon="6.9909">
        <ele>983.6</ele>
        <time>2026-08-27T10:34:04.295Z</time>
      </trkpt>
      <trkpt lat="47.83821" lon="6.9909">
        <ele>983.5</ele>
        <time>2026-08-27T10:34:06.211Z</time>
      </trkpt>
      <trkpt lat="47.83821" lon="6.9909">
        <ele>983.4</ele>
        <time>2026-08-27T10:34:07.219Z</time>
      </trkpt>
      <trkpt lat="47.83821" lon="6.9909">
        <ele>983.4</ele>
        <time>2026-08-27T10:34:08.226Z</time>
      </trkpt>
      <trkpt lat="47.83821" lon="6.9909">
        <ele>983.2</ele>
        <time>2026-08-27T10:34:09.236Z</time>
      </trkpt>
      <trkpt lat="47.83821" lon="6.9909">
        <ele>983.2</ele>
        <time>2026-08-27T10:34:10.243Z</time>
      </trkpt>
      <trkpt lat="47.83821" lon="6.9909">
        <ele>982.7</ele>
        <time>2026-08-27T10:34:11.252Z</time>
      </trkpt>
      <trkpt lat="47.83821" lon="6.9909">
        <ele>982.9</ele>
        <time>2026-08-27T10:34:12.260Z</time>
      </trkpt>
      <trkpt lat="47.83821" lon="6.9909">
        <ele>982.7</ele>
        <time>2026-08-27T10:34:13.268Z</time>
      </trkpt>
      <trkpt lat="47.83821" lon="6.9909">
        <ele>982.8</ele>
        <time>2026-08-27T10:34:14.278Z</time>
      </trkpt>
      <trkpt lat="47.83821" lon="6.9909">
        <ele>983</ele>
        <time>2026-08-27T10:34:15.286Z</time>
      </trkpt>
      <trkpt lat="47.83822" lon="6.9909">
        <ele>982.9</ele>
        <time>2026-08-27T10:34:16.293Z</time>
      </trkpt>
      <trkpt lat="47.83822" lon="6.9909">
        <ele>982.9</ele>
        <time>2026-08-27T10:34:18.209Z</time>
      </trkpt>
      <trkpt lat="47.83822" lon="6.9909">
        <ele>982.9</ele>
        <time>2026-08-27T10:34:19.218Z</time>
      </trkpt>
      <trkpt lat="47.83822" lon="6.9909">
        <ele>983.1</ele>
        <time>2026-08-27T10:34:20.226Z</time>
      </trkpt>
      <trkpt lat="47.83822" lon="6.99089">
        <ele>983</ele>
        <time>2026-08-27T10:34:21.234Z</time>
      </trkpt>
      <trkpt lat="47.83822" lon="6.99089">
        <ele>982.9</ele>
        <time>2026-08-27T10:34:22.243Z</time>
      </trkpt>
      <trkpt lat="47.83822" lon="6.99089">
        <ele>983.2</ele>
        <time>2026-08-27T10:34:23.252Z</time>
      </trkpt>
      <trkpt lat="47.83822" lon="6.99089">
        <ele>983.2</ele>
        <time>2026-08-27T10:34:24.261Z</time>
      </trkpt>
      <trkpt lat="47.83822" lon="6.99089">
        <ele>983.3</ele>
        <time>2026-08-27T10:34:25.268Z</time>
      </trkpt>
      <trkpt lat="47.83822" lon="6.99089">
        <ele>983.2</ele>
        <time>2026-08-27T10:34:26.276Z</time>
      </trkpt>
      <trkpt lat="47.83822" lon="6.99089">
        <ele>983.3</ele>
        <time>2026-08-27T10:34:28.192Z</time>
      </trkpt>
      <trkpt lat="47.83822" lon="6.99089">
        <ele>983.2</ele>
        <time>2026-08-27T10:34:29.201Z</time>
      </trkpt>
      <trkpt lat="47.83822" lon="6.99089">
        <ele>983.1</ele>
        <time>2026-08-27T10:34:30.209Z</time>
      </trkpt>
      <trkpt lat="47.83822" lon="6.99089">
        <ele>982.9</ele>
        <time>2026-08-27T10:34:31.217Z</time>
      </trkpt>
      <trkpt lat="47.83822" lon="6.99089">
        <ele>982.8</ele>
        <time>2026-08-27T10:34:32.226Z</time>
      </trkpt>
      <trkpt lat="47.83822" lon="6.99089">
        <ele>982.9</ele>
        <time>2026-08-27T10:34:33.235Z</time>
      </trkpt>
      <trkpt lat="47.83822" lon="6.99089">
        <ele>983</ele>
        <time>2026-08-27T10:34:34.243Z</time>
      </trkpt>
      <trkpt lat="47.83822" lon="6.99089">
        <ele>983</ele>
        <time>2026-08-27T10:34:35.252Z</time>
      </trkpt>
      <trkpt lat="47.83822" lon="6.99089">
        <ele>983</ele>
        <time>2026-08-27T10:34:36.259Z</time>
      </trkpt>
      <trkpt lat="47.83822" lon="6.99089">
        <ele>983.3</ele>
        <time>2026-08-27T10:34:37.268Z</time>
      </trkpt>
      <trkpt lat="47.83822" lon="6.99089">
        <ele>983.2</ele>
        <time>2026-08-27T10:34:38.276Z</time>
      </trkpt>
      <trkpt lat="47.83822" lon="6.99089">
        <ele>983.3</ele>
        <time>2026-08-27T10:34:39.286Z</time>
      </trkpt>
      <trkpt lat="47.83822" lon="6.99089">
        <ele>983.2</ele>
        <time>2026-08-27T10:34:41.200Z</time>
      </trkpt>
      <trkpt lat="47.83822" lon="6.99089">
        <ele>983.2</ele>
        <time>2026-08-27T10:34:42.209Z</time>
      </trkpt>
      <trkpt lat="47.83822" lon="6.99089">
        <ele>983.3</ele>
        <time>2026-08-27T10:34:43.218Z</time>
      </trkpt>
      <trkpt lat="47.83822" lon="6.99089">
        <ele>983.3</ele>
        <time>2026-08-27T10:34:44.227Z</time>
      </trkpt>
      <trkpt lat="47.83822" lon="6.99089">
        <ele>983.2</ele>
        <time>2026-08-27T10:34:45.234Z</time>
      </trkpt>
      <trkpt lat="47.83822" lon="6.99089">
        <ele>983.2</ele>
        <time>2026-08-27T10:34:46.243Z</time>
      </trkpt>
      <trkpt lat="47.83822" lon="6.99089">
        <ele>983.1</ele>
        <time>2026-08-27T10:34:47.251Z</time>
      </trkpt>
      <trkpt lat="47.83822" lon="6.99089">
        <ele>983.1</ele>
        <time>2026-08-27T10:34:48.259Z</time>
      </trkpt>
      <trkpt lat="47.83822" lon="6.99089">
        <ele>983.2</ele>
        <time>2026-08-27T10:34:49.268Z</time>
      </trkpt>
      <trkpt lat="47.83822" lon="6.99089">
        <ele>983.2</ele>
        <time>2026-08-27T10:34:50.276Z</time>
      </trkpt>
      <trkpt lat="47.83822" lon="6.99089">
        <ele>983.2</ele>
        <time>2026-08-27T10:34:51.284Z</time>
      </trkpt>
      <trkpt lat="47.83822" lon="6.99089">
        <ele>983.2</ele>
        <time>2026-08-27T10:34:52.293Z</time>
      </trkpt>
      <trkpt lat="47.83822" lon="6.99089">
        <ele>983.2</ele>
        <time>2026-08-27T10:34:53.302Z</time>
      </trkpt>
      <trkpt lat="47.83822" lon="6.99089">
        <ele>982.9</ele>
        <time>2026-08-27T10:34:55.218Z</time>
      </trkpt>
      <trkpt lat="47.83822" lon="6.99089">
        <ele>983</ele>
        <time>2026-08-27T10:34:56.225Z</time>
      </trkpt>
      <trkpt lat="47.83822" lon="6.99089">
        <ele>982.9</ele>
        <time>2026-08-27T10:34:57.234Z</time>
      </trkpt>
      <trkpt lat="47.83822" lon="6.99089">
        <ele>983</ele>
        <time>2026-08-27T10:34:58.242Z</time>
      </trkpt>
      <trkpt lat="47.83822" lon="6.99089">
        <ele>983.1</ele>
        <time>2026-08-27T10:34:59.251Z</time>
      </trkpt>
      <trkpt lat="47.83822" lon="6.99089">
        <ele>983.3</ele>
        <time>2026-08-27T10:35:00.259Z</time>
      </trkpt>
      <trkpt lat="47.83822" lon="6.99089">
        <ele>983.4</ele>
        <time>2026-08-27T10:35:01.267Z</time>
      </trkpt>
      <trkpt lat="47.83822" lon="6.99089">
        <ele>983.4</ele>
        <time>2026-08-27T10:35:02.277Z</time>
      </trkpt>
      <trkpt lat="47.83822" lon="6.99089">
        <ele>983.4</ele>
        <time>2026-08-27T10:35:04.193Z</time>
      </trkpt>
      <trkpt lat="47.83822" lon="6.99089">
        <ele>983.4</ele>
        <time>2026-08-27T10:35:05.200Z</time>
      </trkpt>
      <trkpt lat="47.83822" lon="6.99089">
        <ele>983.4</ele>
        <time>2026-08-27T10:35:06.208Z</time>
      </trkpt>
      <trkpt lat="47.83822" lon="6.99089">
        <ele>983.4</ele>
        <time>2026-08-27T10:35:07.217Z</time>
      </trkpt>
      <trkpt lat="47.83822" lon="6.99089">
        <ele>983.3</ele>
        <time>2026-08-27T10:35:08.225Z</time>
      </trkpt>
      <trkpt lat="47.83822" lon="6.99089">
        <ele>983.3</ele>
        <time>2026-08-27T10:35:09.234Z</time>
      </trkpt>
      <trkpt lat="47.83822" lon="6.99089">
        <ele>983.2</ele>
        <time>2026-08-27T10:35:10.242Z</time>
      </trkpt>
      <trkpt lat="47.83822" lon="6.99089">
        <ele>983.2</ele>
        <time>2026-08-27T10:35:11.250Z</time>
      </trkpt>
      <trkpt lat="47.83822" lon="6.99089">
        <ele>983.2</ele>
        <time>2026-08-27T10:35:12.260Z</time>
      </trkpt>
      <trkpt lat="47.83822" lon="6.99089">
        <ele>983.1</ele>
        <time>2026-08-27T10:35:13.267Z</time>
      </trkpt>
      <trkpt lat="47.83822" lon="6.99089">
        <ele>983.1</ele>
        <time>2026-08-27T10:35:14.276Z</time>
      </trkpt>
      <trkpt lat="47.83822" lon="6.99089">
        <ele>983</ele>
        <time>2026-08-27T10:35:15.284Z</time>
      </trkpt>
      <trkpt lat="47.83822" lon="6.99089">
        <ele>983.2</ele>
        <time>2026-08-27T10:35:16.292Z</time>
      </trkpt>
      <trkpt lat="47.83822" lon="6.99089">
        <ele>983.3</ele>
        <time>2026-08-27T10:35:18.208Z</time>
      </trkpt>
      <trkpt lat="47.83822" lon="6.99089">
        <ele>983.3</ele>
        <time>2026-08-27T10:35:19.217Z</time>
      </trkpt>
      <trkpt lat="47.83822" lon="6.99089">
        <ele>983.3</ele>
        <time>2026-08-27T10:35:20.225Z</time>
      </trkpt>
      <trkpt lat="47.83822" lon="6.99089">
        <ele>983.3</ele>
        <time>2026-08-27T10:35:21.235Z</time>
      </trkpt>
      <trkpt lat="47.83822" lon="6.99089">
        <ele>983.2</ele>
        <time>2026-08-27T10:35:22.242Z</time>
      </trkpt>
      <trkpt lat="47.83822" lon="6.99089">
        <ele>983.2</ele>
        <time>2026-08-27T10:35:23.250Z</time>
      </trkpt>
      <trkpt lat="47.83822" lon="6.99089">
        <ele>983.2</ele>
        <time>2026-08-27T10:35:24.259Z</time>
      </trkpt>
      <trkpt lat="47.83822" lon="6.99089">
        <ele>983.1</ele>
        <time>2026-08-27T10:35:25.268Z</time>
      </trkpt>
      <trkpt lat="47.83822" lon="6.99089">
        <ele>983.2</ele>
        <time>2026-08-27T10:35:26.275Z</time>
      </trkpt>
      <trkpt lat="47.83822" lon="6.99089">
        <ele>983.1</ele>
        <time>2026-08-27T10:35:27.284Z</time>
      </trkpt>
      <trkpt lat="47.83822" lon="6.99089">
        <ele>983.3</ele>
        <time>2026-08-27T10:35:28.292Z</time>
      </trkpt>
      <trkpt lat="47.83822" lon="6.99089">
        <ele>983.2</ele>
        <time>2026-08-27T10:35:30.208Z</time>
      </trkpt>
      <trkpt lat="47.83822" lon="6.99089">
        <ele>983.5</ele>
        <time>2026-08-27T10:35:31.218Z</time>
      </trkpt>
      <trkpt lat="47.83822" lon="6.99089">
        <ele>983.4</ele>
        <time>2026-08-27T10:35:32.225Z</time>
      </trkpt>
      <trkpt lat="47.83822" lon="6.99088">
        <ele>983.4</ele>
        <time>2026-08-27T10:35:33.234Z</time>
      </trkpt>
      <trkpt lat="47.83822" lon="6.99088">
        <ele>983.3</ele>
        <time>2026-08-27T10:35:34.242Z</time>
      </trkpt>
      <trkpt lat="47.83822" lon="6.99088">
        <ele>983.4</ele>
        <time>2026-08-27T10:35:35.251Z</time>
      </trkpt>
      <trkpt lat="47.83822" lon="6.99088">
        <ele>983.3</ele>
        <time>2026-08-27T10:35:36.259Z</time>
      </trkpt>
      <trkpt lat="47.83822" lon="6.99088">
        <ele>983.3</ele>
        <time>2026-08-27T10:35:37.267Z</time>
      </trkpt>
      <trkpt lat="47.83822" lon="6.99088">
        <ele>983.2</ele>
        <time>2026-08-27T10:35:38.276Z</time>
      </trkpt>
      <trkpt lat="47.83821" lon="6.99088">
        <ele>983.2</ele>
        <time>2026-08-27T10:35:39.285Z</time>
      </trkpt>
      <trkpt lat="47.83821" lon="6.99088">
        <ele>983.2</ele>
        <time>2026-08-27T10:35:40.293Z</time>
      </trkpt>
      <trkpt lat="47.83821" lon="6.99088">
        <ele>983</ele>
        <time>2026-08-27T10:35:42.209Z</time>
      </trkpt>
      <trkpt lat="47.83821" lon="6.99088">
        <ele>982.9</ele>
        <time>2026-08-27T10:35:43.217Z</time>
      </trkpt>
      <trkpt lat="47.83821" lon="6.99088">
        <ele>983</ele>
        <time>2026-08-27T10:35:44.225Z</time>
      </trkpt>
      <trkpt lat="47.83821" lon="6.99088">
        <ele>983</ele>
        <time>2026-08-27T10:35:45.233Z</time>
      </trkpt>
      <trkpt lat="47.83821" lon="6.99088">
        <ele>982.9</ele>
        <time>2026-08-27T10:35:46.242Z</time>
      </trkpt>
      <trkpt lat="47.83821" lon="6.99088">
        <ele>982.8</ele>
        <time>2026-08-27T10:35:47.251Z</time>
      </trkpt>
      <trkpt lat="47.83821" lon="6.99088">
        <ele>983</ele>
        <time>2026-08-27T10:35:48.258Z</time>
      </trkpt>
      <trkpt lat="47.83821" lon="6.99088">
        <ele>983</ele>
        <time>2026-08-27T10:35:49.268Z</time>
      </trkpt>
      <trkpt lat="47.83821" lon="6.99088">
        <ele>983</ele>
        <time>2026-08-27T10:35:50.275Z</time>
      </trkpt>
      <trkpt lat="47.83821" lon="6.99088">
        <ele>983</ele>
        <time>2026-08-27T10:35:51.284Z</time>
      </trkpt>
      <trkpt lat="47.83821" lon="6.99088">
        <ele>983</ele>
        <time>2026-08-27T10:35:52.292Z</time>
      </trkpt>
      <trkpt lat="47.83821" lon="6.99088">
        <ele>983</ele>
        <time>2026-08-27T10:35:53.300Z</time>
      </trkpt>
      <trkpt lat="47.83821" lon="6.99088">
        <ele>982.9</ele>
        <time>2026-08-27T10:35:55.216Z</time>
      </trkpt>
      <trkpt lat="47.83821" lon="6.99088">
        <ele>982.8</ele>
        <time>2026-08-27T10:35:56.226Z</time>
      </trkpt>
      <trkpt lat="47.83821" lon="6.99088">
        <ele>982.9</ele>
        <time>2026-08-27T10:35:57.234Z</time>
      </trkpt>
      <trkpt lat="47.83821" lon="6.99088">
        <ele>982.9</ele>
        <time>2026-08-27T10:35:58.242Z</time>
      </trkpt>
      <trkpt lat="47.83821" lon="6.99088">
        <ele>982.9</ele>
        <time>2026-08-27T10:35:59.250Z</time>
      </trkpt>
      <trkpt lat="47.83821" lon="6.99088">
        <ele>983</ele>
        <time>2026-08-27T10:36:00.258Z</time>
      </trkpt>
      <trkpt lat="47.83821" lon="6.99088">
        <ele>983</ele>
        <time>2026-08-27T10:36:01.268Z</time>
      </trkpt>
      <trkpt lat="47.83821" lon="6.99088">
        <ele>983</ele>
        <time>2026-08-27T10:36:02.275Z</time>
      </trkpt>
      <trkpt lat="47.83821" lon="6.99088">
        <ele>983.1</ele>
        <time>2026-08-27T10:36:04.204Z</time>
      </trkpt>
      <trkpt lat="47.83821" lon="6.99088">
        <ele>983.1</ele>
        <time>2026-08-27T10:36:05.212Z</time>
      </trkpt>
      <trkpt lat="47.83821" lon="6.99088">
        <ele>983</ele>
        <time>2026-08-27T10:36:06.222Z</time>
      </trkpt>
      <trkpt lat="47.83821" lon="6.99088">
        <ele>983</ele>
        <time>2026-08-27T10:36:07.230Z</time>
      </trkpt>
      <trkpt lat="47.83821" lon="6.99088">
        <ele>983</ele>
        <time>2026-08-27T10:36:08.237Z</time>
      </trkpt>
      <trkpt lat="47.83821" lon="6.99088">
        <ele>983.2</ele>
        <time>2026-08-27T10:36:09.247Z</time>
      </trkpt>
      <trkpt lat="47.83821" lon="6.99088">
        <ele>983</ele>
        <time>2026-08-27T10:36:10.255Z</time>
      </trkpt>
      <trkpt lat="47.83821" lon="6.99088">
        <ele>982.8</ele>
        <time>2026-08-27T10:36:11.263Z</time>
      </trkpt>
      <trkpt lat="47.83821" lon="6.99088">
        <ele>982.9</ele>
        <time>2026-08-27T10:36:12.271Z</time>
      </trkpt>
      <trkpt lat="47.83821" lon="6.99088">
        <ele>982.7</ele>
        <time>2026-08-27T10:36:13.279Z</time>
      </trkpt>
      <trkpt lat="47.83821" lon="6.99088">
        <ele>982.8</ele>
        <time>2026-08-27T10:36:14.289Z</time>
      </trkpt>
      <trkpt lat="47.83821" lon="6.99088">
        <ele>982.8</ele>
        <time>2026-08-27T10:36:15.297Z</time>
      </trkpt>
      <trkpt lat="47.83821" lon="6.99088">
        <ele>982.9</ele>
        <time>2026-08-27T10:36:17.313Z</time>
      </trkpt>
      <trkpt lat="47.83821" lon="6.99088">
        <ele>982.6</ele>
        <time>2026-08-27T10:36:19.229Z</time>
      </trkpt>
      <trkpt lat="47.83821" lon="6.99088">
        <ele>982.6</ele>
        <time>2026-08-27T10:36:20.238Z</time>
      </trkpt>
      <trkpt lat="47.83821" lon="6.99088">
        <ele>982.8</ele>
        <time>2026-08-27T10:36:21.245Z</time>
      </trkpt>
      <trkpt lat="47.83821" lon="6.99088">
        <ele>982.7</ele>
        <time>2026-08-27T10:36:22.254Z</time>
      </trkpt>
      <trkpt lat="47.83821" lon="6.99088">
        <ele>982.9</ele>
        <time>2026-08-27T10:36:23.263Z</time>
      </trkpt>
      <trkpt lat="47.83821" lon="6.99088">
        <ele>982.9</ele>
        <time>2026-08-27T10:36:24.271Z</time>
      </trkpt>
      <trkpt lat="47.83821" lon="6.99088">
        <ele>983.1</ele>
        <time>2026-08-27T10:36:25.279Z</time>
      </trkpt>
      <trkpt lat="47.83821" lon="6.99088">
        <ele>983.2</ele>
        <time>2026-08-27T10:36:26.288Z</time>
      </trkpt>
      <trkpt lat="47.83822" lon="6.99088">
        <ele>983.2</ele>
        <time>2026-08-27T10:36:27.297Z</time>
      </trkpt>
      <trkpt lat="47.83822" lon="6.99088">
        <ele>983.1</ele>
        <time>2026-08-27T10:36:28.305Z</time>
      </trkpt>
      <trkpt lat="47.83822" lon="6.99088">
        <ele>983.1</ele>
        <time>2026-08-27T10:36:29.312Z</time>
      </trkpt>
      <trkpt lat="47.83822" lon="6.99088">
        <ele>982.9</ele>
        <time>2026-08-27T10:36:31.229Z</time>
      </trkpt>
      <trkpt lat="47.83822" lon="6.99088">
        <ele>982.7</ele>
        <time>2026-08-27T10:36:32.237Z</time>
      </trkpt>
      <trkpt lat="47.83822" lon="6.99088">
        <ele>982.6</ele>
        <time>2026-08-27T10:36:33.245Z</time>
      </trkpt>
      <trkpt lat="47.83822" lon="6.99088">
        <ele>982.6</ele>
        <time>2026-08-27T10:36:34.254Z</time>
      </trkpt>
      <trkpt lat="47.83821" lon="6.99088">
        <ele>982.6</ele>
        <time>2026-08-27T10:36:35.263Z</time>
      </trkpt>
      <trkpt lat="47.83822" lon="6.99088">
        <ele>982.8</ele>
        <time>2026-08-27T10:36:36.270Z</time>
      </trkpt>
      <trkpt lat="47.83821" lon="6.99088">
        <ele>982.7</ele>
        <time>2026-08-27T10:36:37.278Z</time>
      </trkpt>
      <trkpt lat="47.83822" lon="6.99088">
        <ele>982.7</ele>
        <time>2026-08-27T10:36:38.286Z</time>
      </trkpt>
      <trkpt lat="47.83822" lon="6.99088">
        <ele>982.6</ele>
        <time>2026-08-27T10:36:39.295Z</time>
      </trkpt>
      <trkpt lat="47.83822" lon="6.99088">
        <ele>982.9</ele>
        <time>2026-08-27T10:36:40.304Z</time>
      </trkpt>
      <trkpt lat="47.83822" lon="6.99088">
        <ele>982.9</ele>
        <time>2026-08-27T10:36:41.312Z</time>
      </trkpt>
      <trkpt lat="47.83822" lon="6.99088">
        <ele>983.1</ele>
        <time>2026-08-27T10:36:42.320Z</time>
      </trkpt>
      <trkpt lat="47.83822" lon="6.99088">
        <ele>983.2</ele>
        <time>2026-08-27T10:36:44.237Z</time>
      </trkpt>
      <trkpt lat="47.83822" lon="6.99088">
        <ele>982.9</ele>
        <time>2026-08-27T10:36:45.245Z</time>
      </trkpt>
      <trkpt lat="47.83822" lon="6.99088">
        <ele>982.9</ele>
        <time>2026-08-27T10:36:46.252Z</time>
      </trkpt>
      <trkpt lat="47.83822" lon="6.99088">
        <ele>982.9</ele>
        <time>2026-08-27T10:36:47.261Z</time>
      </trkpt>
      <trkpt lat="47.83822" lon="6.99088">
        <ele>982.8</ele>
        <time>2026-08-27T10:36:48.269Z</time>
      </trkpt>
      <trkpt lat="47.83822" lon="6.99088">
        <ele>982.8</ele>
        <time>2026-08-27T10:36:49.277Z</time>
      </trkpt>
      <trkpt lat="47.83822" lon="6.99088">
        <ele>982.8</ele>
        <time>2026-08-27T10:36:50.285Z</time>
      </trkpt>
      <trkpt lat="47.83822" lon="6.99088">
        <ele>982.8</ele>
        <time>2026-08-27T10:36:51.294Z</time>
      </trkpt>
      <trkpt lat="47.83822" lon="6.99088">
        <ele>982.9</ele>
        <time>2026-08-27T10:36:52.302Z</time>
      </trkpt>
      <trkpt lat="47.83822" lon="6.99087">
        <ele>982.9</ele>
        <time>2026-08-27T10:36:54.219Z</time>
      </trkpt>
      <trkpt lat="47.83822" lon="6.99087">
        <ele>982.8</ele>
        <time>2026-08-27T10:36:55.226Z</time>
      </trkpt>
      <trkpt lat="47.83822" lon="6.99087">
        <ele>982.8</ele>
        <time>2026-08-27T10:36:56.234Z</time>
      </trkpt>
      <trkpt lat="47.83822" lon="6.99087">
        <ele>982.9</ele>
        <time>2026-08-27T10:36:57.243Z</time>
      </trkpt>
      <trkpt lat="47.83822" lon="6.99087">
        <ele>982.8</ele>
        <time>2026-08-27T10:36:58.251Z</time>
      </trkpt>
      <trkpt lat="47.83822" lon="6.99087">
        <ele>983</ele>
        <time>2026-08-27T10:36:59.259Z</time>
      </trkpt>
      <trkpt lat="47.83822" lon="6.99087">
        <ele>982.8</ele>
        <time>2026-08-27T10:37:00.267Z</time>
      </trkpt>
      <trkpt lat="47.83822" lon="6.99087">
        <ele>983.1</ele>
        <time>2026-08-27T10:37:01.276Z</time>
      </trkpt>
      <trkpt lat="47.83822" lon="6.99087">
        <ele>983.1</ele>
        <time>2026-08-27T10:37:02.284Z</time>
      </trkpt>
      <trkpt lat="47.83822" lon="6.99087">
        <ele>983</ele>
        <time>2026-08-27T10:37:03.293Z</time>
      </trkpt>
      <trkpt lat="47.83822" lon="6.99087">
        <ele>983.1</ele>
        <time>2026-08-27T10:37:04.301Z</time>
      </trkpt>
      <trkpt lat="47.83822" lon="6.99087">
        <ele>983.1</ele>
        <time>2026-08-27T10:37:05.309Z</time>
      </trkpt>
      <trkpt lat="47.83822" lon="6.99087">
        <ele>983.1</ele>
        <time>2026-08-27T10:37:06.318Z</time>
      </trkpt>
      <trkpt lat="47.83822" lon="6.99087">
        <ele>983.1</ele>
        <time>2026-08-27T10:37:08.233Z</time>
      </trkpt>
      <trkpt lat="47.83822" lon="6.99087">
        <ele>983.1</ele>
        <time>2026-08-27T10:37:09.241Z</time>
      </trkpt>
      <trkpt lat="47.83822" lon="6.99087">
        <ele>982.8</ele>
        <time>2026-08-27T10:37:10.249Z</time>
      </trkpt>
      <trkpt lat="47.83822" lon="6.99087">
        <ele>982.9</ele>
        <time>2026-08-27T10:37:11.259Z</time>
      </trkpt>
      <trkpt lat="47.83822" lon="6.99087">
        <ele>982.9</ele>
        <time>2026-08-27T10:37:12.267Z</time>
      </trkpt>
      <trkpt lat="47.83822" lon="6.99087">
        <ele>982.9</ele>
        <time>2026-08-27T10:37:13.274Z</time>
      </trkpt>
      <trkpt lat="47.83822" lon="6.99087">
        <ele>982.9</ele>
        <time>2026-08-27T10:37:14.283Z</time>
      </trkpt>
      <trkpt lat="47.83822" lon="6.99087">
        <ele>982.6</ele>
        <time>2026-08-27T10:37:15.291Z</time>
      </trkpt>
      <trkpt lat="47.83822" lon="6.99087">
        <ele>982.8</ele>
        <time>2026-08-27T10:37:16.299Z</time>
      </trkpt>
      <trkpt lat="47.83822" lon="6.99087">
        <ele>982.9</ele>
        <time>2026-08-27T10:37:17.307Z</time>
      </trkpt>
      <trkpt lat="47.83822" lon="6.99087">
        <ele>983.1</ele>
        <time>2026-08-27T10:37:19.224Z</time>
      </trkpt>
      <trkpt lat="47.83822" lon="6.99087">
        <ele>983</ele>
        <time>2026-08-27T10:37:20.232Z</time>
      </trkpt>
      <trkpt lat="47.83822" lon="6.99087">
        <ele>983.1</ele>
        <time>2026-08-27T10:37:21.240Z</time>
      </trkpt>
      <trkpt lat="47.83822" lon="6.99087">
        <ele>983.1</ele>
        <time>2026-08-27T10:37:22.249Z</time>
      </trkpt>
      <trkpt lat="47.83822" lon="6.99087">
        <ele>983.1</ele>
        <time>2026-08-27T10:37:23.256Z</time>
      </trkpt>
      <trkpt lat="47.83822" lon="6.99087">
        <ele>983.3</ele>
        <time>2026-08-27T10:37:24.265Z</time>
      </trkpt>
      <trkpt lat="47.83822" lon="6.99087">
        <ele>983.3</ele>
        <time>2026-08-27T10:37:25.273Z</time>
      </trkpt>
      <trkpt lat="47.83822" lon="6.99087">
        <ele>983.3</ele>
        <time>2026-08-27T10:37:27.282Z</time>
      </trkpt>
      <trkpt lat="47.83822" lon="6.99087">
        <ele>982.9</ele>
        <time>2026-08-27T10:37:29.122Z</time>
      </trkpt>
      <trkpt lat="47.83822" lon="6.99088">
        <ele>982.9</ele>
        <time>2026-08-27T10:37:30.230Z</time>
      </trkpt>
      <trkpt lat="47.83822" lon="6.99088">
        <ele>982.9</ele>
        <time>2026-08-27T10:37:31.238Z</time>
      </trkpt>
      <trkpt lat="47.83822" lon="6.99088">
        <ele>982.9</ele>
        <time>2026-08-27T10:37:32.246Z</time>
      </trkpt>
      <trkpt lat="47.83822" lon="6.99088">
        <ele>983</ele>
        <time>2026-08-27T10:37:33.255Z</time>
      </trkpt>
      <trkpt lat="47.83821" lon="6.99088">
        <ele>982.8</ele>
        <time>2026-08-27T10:37:35.271Z</time>
      </trkpt>
      <trkpt lat="47.83821" lon="6.99088">
        <ele>982.8</ele>
        <time>2026-08-27T10:37:36.279Z</time>
      </trkpt>
      <trkpt lat="47.83821" lon="6.99088">
        <ele>982.8</ele>
        <time>2026-08-27T10:37:37.288Z</time>
      </trkpt>
      <trkpt lat="47.83821" lon="6.99088">
        <ele>982.6</ele>
        <time>2026-08-27T10:37:39.305Z</time>
      </trkpt>
      <trkpt lat="47.83821" lon="6.99088">
        <ele>982.7</ele>
        <time>2026-08-27T10:37:40.313Z</time>
      </trkpt>
      <trkpt lat="47.83821" lon="6.99089">
        <ele>983.1</ele>
        <time>2026-08-27T10:37:42.228Z</time>
      </trkpt>
      <trkpt lat="47.83821" lon="6.99089">
        <ele>983.1</ele>
        <time>2026-08-27T10:37:43.238Z</time>
      </trkpt>
      <trkpt lat="47.83821" lon="6.99089">
        <ele>983.1</ele>
        <time>2026-08-27T10:37:44.245Z</time>
      </trkpt>
      <trkpt lat="47.83821" lon="6.99089">
        <ele>983.2</ele>
        <time>2026-08-27T10:37:45.253Z</time>
      </trkpt>
      <trkpt lat="47.83821" lon="6.99089">
        <ele>983.1</ele>
        <time>2026-08-27T10:37:46.261Z</time>
      </trkpt>
      <trkpt lat="47.83821" lon="6.99089">
        <ele>983</ele>
        <time>2026-08-27T10:37:47.270Z</time>
      </trkpt>
      <trkpt lat="47.83821" lon="6.99089">
        <ele>983</ele>
        <time>2026-08-27T10:37:48.278Z</time>
      </trkpt>
      <trkpt lat="47.83821" lon="6.99089">
        <ele>983.2</ele>
        <time>2026-08-27T10:37:49.286Z</time>
      </trkpt>
      <trkpt lat="47.83821" lon="6.99089">
        <ele>983.2</ele>
        <time>2026-08-27T10:37:50.295Z</time>
      </trkpt>
      <trkpt lat="47.83821" lon="6.99089">
        <ele>983.3</ele>
        <time>2026-08-27T10:37:51.304Z</time>
      </trkpt>
      <trkpt lat="47.83821" lon="6.99089">
        <ele>983.1</ele>
        <time>2026-08-27T10:37:53.320Z</time>
      </trkpt>
      <trkpt lat="47.83821" lon="6.99089">
        <ele>982.9</ele>
        <time>2026-08-27T10:37:55.235Z</time>
      </trkpt>
      <trkpt lat="47.83821" lon="6.99089">
        <ele>982.9</ele>
        <time>2026-08-27T10:37:56.244Z</time>
      </trkpt>
      <trkpt lat="47.83821" lon="6.99089">
        <ele>982.9</ele>
        <time>2026-08-27T10:37:57.251Z</time>
      </trkpt>
      <trkpt lat="47.8382" lon="6.99089">
        <ele>983.1</ele>
        <time>2026-08-27T10:37:58.260Z</time>
      </trkpt>
      <trkpt lat="47.8382" lon="6.99089">
        <ele>983</ele>
        <time>2026-08-27T10:37:59.268Z</time>
      </trkpt>
      <trkpt lat="47.8382" lon="6.99089">
        <ele>982.9</ele>
        <time>2026-08-27T10:38:00.276Z</time>
      </trkpt>
      <trkpt lat="47.8382" lon="6.99089">
        <ele>982.9</ele>
        <time>2026-08-27T10:38:01.285Z</time>
      </trkpt>
      <trkpt lat="47.8382" lon="6.99089">
        <ele>982.9</ele>
        <time>2026-08-27T10:38:02.293Z</time>
      </trkpt>
      <trkpt lat="47.8382" lon="6.99089">
        <ele>982.9</ele>
        <time>2026-08-27T10:38:03.301Z</time>
      </trkpt>
      <trkpt lat="47.8382" lon="6.99089">
        <ele>982.8</ele>
        <time>2026-08-27T10:38:04.310Z</time>
      </trkpt>
      <trkpt lat="47.8382" lon="6.99089">
        <ele>983</ele>
        <time>2026-08-27T10:38:05.318Z</time>
      </trkpt>
      <trkpt lat="47.8382" lon="6.9909">
        <ele>983.1</ele>
        <time>2026-08-27T10:38:07.233Z</time>
      </trkpt>
      <trkpt lat="47.8382" lon="6.9909">
        <ele>983</ele>
        <time>2026-08-27T10:38:08.241Z</time>
      </trkpt>
      <trkpt lat="47.8382" lon="6.9909">
        <ele>982.9</ele>
        <time>2026-08-27T10:38:09.250Z</time>
      </trkpt>
      <trkpt lat="47.8382" lon="6.9909">
        <ele>982.9</ele>
        <time>2026-08-27T10:38:10.259Z</time>
      </trkpt>
      <trkpt lat="47.8382" lon="6.9909">
        <ele>983</ele>
        <time>2026-08-27T10:38:11.266Z</time>
      </trkpt>
      <trkpt lat="47.8382" lon="6.9909">
        <ele>982.8</ele>
        <time>2026-08-27T10:38:12.275Z</time>
      </trkpt>
      <trkpt lat="47.8382" lon="6.9909">
        <ele>982.8</ele>
        <time>2026-08-27T10:38:13.283Z</time>
      </trkpt>
      <trkpt lat="47.8382" lon="6.9909">
        <ele>982.8</ele>
        <time>2026-08-27T10:38:14.291Z</time>
      </trkpt>
      <trkpt lat="47.83821" lon="6.9909">
        <ele>982.8</ele>
        <time>2026-08-27T10:38:15.299Z</time>
      </trkpt>
      <trkpt lat="47.83821" lon="6.9909">
        <ele>982.9</ele>
        <time>2026-08-27T10:38:16.307Z</time>
      </trkpt>
      <trkpt lat="47.83821" lon="6.9909">
        <ele>982.7</ele>
        <time>2026-08-27T10:38:17.316Z</time>
      </trkpt>
      <trkpt lat="47.83821" lon="6.9909">
        <ele>982.7</ele>
        <time>2026-08-27T10:38:19.232Z</time>
      </trkpt>
      <trkpt lat="47.83821" lon="6.9909">
        <ele>982.7</ele>
        <time>2026-08-27T10:38:20.240Z</time>
      </trkpt>
      <trkpt lat="47.83821" lon="6.9909">
        <ele>982.7</ele>
        <time>2026-08-27T10:38:21.248Z</time>
      </trkpt>
      <trkpt lat="47.83821" lon="6.9909">
        <ele>982.8</ele>
        <time>2026-08-27T10:38:22.256Z</time>
      </trkpt>
      <trkpt lat="47.83821" lon="6.9909">
        <ele>982.6</ele>
        <time>2026-08-27T10:38:23.264Z</time>
      </trkpt>
      <trkpt lat="47.83821" lon="6.9909">
        <ele>982.7</ele>
        <time>2026-08-27T10:38:24.273Z</time>
      </trkpt>
      <trkpt lat="47.83821" lon="6.9909">
        <ele>982.7</ele>
        <time>2026-08-27T10:38:25.281Z</time>
      </trkpt>
      <trkpt lat="47.83821" lon="6.9909">
        <ele>982.7</ele>
        <time>2026-08-27T10:38:26.289Z</time>
      </trkpt>
      <trkpt lat="47.83821" lon="6.9909">
        <ele>982.7</ele>
        <time>2026-08-27T10:38:27.297Z</time>
      </trkpt>
      <trkpt lat="47.83821" lon="6.9909">
        <ele>982.6</ele>
        <time>2026-08-27T10:38:28.305Z</time>
      </trkpt>
      <trkpt lat="47.83821" lon="6.9909">
        <ele>982.6</ele>
        <time>2026-08-27T10:38:29.314Z</time>
      </trkpt>
      <trkpt lat="47.83821" lon="6.9909">
        <ele>982.5</ele>
        <time>2026-08-27T10:38:31.229Z</time>
      </trkpt>
      <trkpt lat="47.83821" lon="6.9909">
        <ele>982.5</ele>
        <time>2026-08-27T10:38:32.238Z</time>
      </trkpt>
      <trkpt lat="47.83821" lon="6.9909">
        <ele>982.5</ele>
        <time>2026-08-27T10:38:33.246Z</time>
      </trkpt>
      <trkpt lat="47.83821" lon="6.9909">
        <ele>982.6</ele>
        <time>2026-08-27T10:38:34.254Z</time>
      </trkpt>
      <trkpt lat="47.83821" lon="6.9909">
        <ele>982.6</ele>
        <time>2026-08-27T10:38:35.262Z</time>
      </trkpt>
      <trkpt lat="47.83821" lon="6.9909">
        <ele>982.6</ele>
        <time>2026-08-27T10:38:36.270Z</time>
      </trkpt>
      <trkpt lat="47.83821" lon="6.9909">
        <ele>982.6</ele>
        <time>2026-08-27T10:38:37.279Z</time>
      </trkpt>
      <trkpt lat="47.83821" lon="6.9909">
        <ele>982.6</ele>
        <time>2026-08-27T10:38:38.287Z</time>
      </trkpt>
      <trkpt lat="47.83821" lon="6.9909">
        <ele>982.6</ele>
        <time>2026-08-27T10:38:39.295Z</time>
      </trkpt>
      <trkpt lat="47.83821" lon="6.9909">
        <ele>982.4</ele>
        <time>2026-08-27T10:38:40.303Z</time>
      </trkpt>
      <trkpt lat="47.83821" lon="6.9909">
        <ele>982.4</ele>
        <time>2026-08-27T10:38:41.313Z</time>
      </trkpt>
      <trkpt lat="47.83821" lon="6.9909">
        <ele>982.4</ele>
        <time>2026-08-27T10:38:42.321Z</time>
      </trkpt>
      <trkpt lat="47.83821" lon="6.9909">
        <ele>982.5</ele>
        <time>2026-08-27T10:38:44.235Z</time>
      </trkpt>
      <trkpt lat="47.83821" lon="6.9909">
        <ele>982.6</ele>
        <time>2026-08-27T10:38:45.244Z</time>
      </trkpt>
      <trkpt lat="47.83821" lon="6.9909">
        <ele>982.6</ele>
        <time>2026-08-27T10:38:46.253Z</time>
      </trkpt>
      <trkpt lat="47.83821" lon="6.9909">
        <ele>982.5</ele>
        <time>2026-08-27T10:38:47.261Z</time>
      </trkpt>
      <trkpt lat="47.83821" lon="6.9909">
        <ele>982.7</ele>
        <time>2026-08-27T10:38:48.268Z</time>
      </trkpt>
      <trkpt lat="47.83821" lon="6.9909">
        <ele>982.7</ele>
        <time>2026-08-27T10:38:49.277Z</time>
      </trkpt>
      <trkpt lat="47.83821" lon="6.9909">
        <ele>982.7</ele>
        <time>2026-08-27T10:38:50.285Z</time>
      </trkpt>
      <trkpt lat="47.83821" lon="6.9909">
        <ele>982.6</ele>
        <time>2026-08-27T10:38:51.293Z</time>
      </trkpt>
      <trkpt lat="47.83821" lon="6.9909">
        <ele>982.6</ele>
        <time>2026-08-27T10:38:52.302Z</time>
      </trkpt>
      <trkpt lat="47.83821" lon="6.9909">
        <ele>982.6</ele>
        <time>2026-08-27T10:38:53.310Z</time>
      </trkpt>
      <trkpt lat="47.83821" lon="6.9909">
        <ele>982.5</ele>
        <time>2026-08-27T10:38:54.318Z</time>
      </trkpt>
      <trkpt lat="47.83821" lon="6.9909">
        <ele>982.6</ele>
        <time>2026-08-27T10:38:56.233Z</time>
      </trkpt>
      <trkpt lat="47.83821" lon="6.9909">
        <ele>982.2</ele>
        <time>2026-08-27T10:38:57.242Z</time>
      </trkpt>
      <trkpt lat="47.83821" lon="6.9909">
        <ele>982.4</ele>
        <time>2026-08-27T10:38:58.251Z</time>
      </trkpt>
      <trkpt lat="47.83821" lon="6.9909">
        <ele>982.4</ele>
        <time>2026-08-27T10:38:59.258Z</time>
      </trkpt>
      <trkpt lat="47.83821" lon="6.9909">
        <ele>982.6</ele>
        <time>2026-08-27T10:39:00.267Z</time>
      </trkpt>
      <trkpt lat="47.83821" lon="6.9909">
        <ele>982.7</ele>
        <time>2026-08-27T10:39:01.275Z</time>
      </trkpt>
      <trkpt lat="47.83821" lon="6.9909">
        <ele>982.6</ele>
        <time>2026-08-27T10:39:02.284Z</time>
      </trkpt>
      <trkpt lat="47.83821" lon="6.9909">
        <ele>982.6</ele>
        <time>2026-08-27T10:39:03.291Z</time>
      </trkpt>
      <trkpt lat="47.83821" lon="6.9909">
        <ele>982.6</ele>
        <time>2026-08-27T10:39:04.300Z</time>
      </trkpt>
      <trkpt lat="47.83821" lon="6.9909">
        <ele>982.7</ele>
        <time>2026-08-27T10:39:05.307Z</time>
      </trkpt>
      <trkpt lat="47.83821" lon="6.9909">
        <ele>982.7</ele>
        <time>2026-08-27T10:39:06.315Z</time>
      </trkpt>
      <trkpt lat="47.83821" lon="6.9909">
        <ele>982.7</ele>
        <time>2026-08-27T10:39:08.231Z</time>
      </trkpt>
      <trkpt lat="47.83821" lon="6.9909">
        <ele>982.7</ele>
        <time>2026-08-27T10:39:09.239Z</time>
      </trkpt>
      <trkpt lat="47.83821" lon="6.9909">
        <ele>982.8</ele>
        <time>2026-08-27T10:39:10.248Z</time>
      </trkpt>
      <trkpt lat="47.83821" lon="6.9909">
        <ele>982.9</ele>
        <time>2026-08-27T10:39:11.256Z</time>
      </trkpt>
      <trkpt lat="47.83821" lon="6.9909">
        <ele>982.8</ele>
        <time>2026-08-27T10:39:12.264Z</time>
      </trkpt>
      <trkpt lat="47.83821" lon="6.9909">
        <ele>982.8</ele>
        <time>2026-08-27T10:39:13.272Z</time>
      </trkpt>
      <trkpt lat="47.83821" lon="6.9909">
        <ele>982.9</ele>
        <time>2026-08-27T10:39:14.280Z</time>
      </trkpt>
      <trkpt lat="47.83821" lon="6.9909">
        <ele>982.9</ele>
        <time>2026-08-27T10:39:15.289Z</time>
      </trkpt>
      <trkpt lat="47.83821" lon="6.9909">
        <ele>982.8</ele>
        <time>2026-08-27T10:39:16.297Z</time>
      </trkpt>
      <trkpt lat="47.83821" lon="6.9909">
        <ele>982.5</ele>
        <time>2026-08-27T10:39:17.305Z</time>
      </trkpt>
      <trkpt lat="47.83821" lon="6.9909">
        <ele>982.6</ele>
        <time>2026-08-27T10:39:18.313Z</time>
      </trkpt>
      <trkpt lat="47.83822" lon="6.9909">
        <ele>982.6</ele>
        <time>2026-08-27T10:39:20.230Z</time>
      </trkpt>
      <trkpt lat="47.83822" lon="6.9909">
        <ele>982.5</ele>
        <time>2026-08-27T10:39:21.237Z</time>
      </trkpt>
      <trkpt lat="47.83822" lon="6.9909">
        <ele>982.5</ele>
        <time>2026-08-27T10:39:22.245Z</time>
      </trkpt>
      <trkpt lat="47.83822" lon="6.9909">
        <ele>982.5</ele>
        <time>2026-08-27T10:39:23.253Z</time>
      </trkpt>
      <trkpt lat="47.83822" lon="6.9909">
        <ele>982.5</ele>
        <time>2026-08-27T10:39:24.263Z</time>
      </trkpt>
      <trkpt lat="47.83822" lon="6.9909">
        <ele>982.6</ele>
        <time>2026-08-27T10:39:25.271Z</time>
      </trkpt>
      <trkpt lat="47.83822" lon="6.9909">
        <ele>982.5</ele>
        <time>2026-08-27T10:39:26.278Z</time>
      </trkpt>
      <trkpt lat="47.83822" lon="6.9909">
        <ele>982.5</ele>
        <time>2026-08-27T10:39:27.286Z</time>
      </trkpt>
      <trkpt lat="47.83822" lon="6.9909">
        <ele>982.7</ele>
        <time>2026-08-27T10:39:28.294Z</time>
      </trkpt>
      <trkpt lat="47.83822" lon="6.9909">
        <ele>982.6</ele>
        <time>2026-08-27T10:39:29.303Z</time>
      </trkpt>
      <trkpt lat="47.83822" lon="6.9909">
        <ele>982.7</ele>
        <time>2026-08-27T10:39:31.218Z</time>
      </trkpt>
      <trkpt lat="47.83822" lon="6.9909">
        <ele>982.7</ele>
        <time>2026-08-27T10:39:32.226Z</time>
      </trkpt>
      <trkpt lat="47.83822" lon="6.9909">
        <ele>982.7</ele>
        <time>2026-08-27T10:39:33.236Z</time>
      </trkpt>
      <trkpt lat="47.83822" lon="6.9909">
        <ele>982.7</ele>
        <time>2026-08-27T10:39:34.243Z</time>
      </trkpt>
      <trkpt lat="47.83822" lon="6.9909">
        <ele>982.6</ele>
        <time>2026-08-27T10:39:35.252Z</time>
      </trkpt>
      <trkpt lat="47.83822" lon="6.9909">
        <ele>982.5</ele>
        <time>2026-08-27T10:39:36.259Z</time>
      </trkpt>
      <trkpt lat="47.83822" lon="6.9909">
        <ele>982.5</ele>
        <time>2026-08-27T10:39:37.267Z</time>
      </trkpt>
      <trkpt lat="47.83822" lon="6.9909">
        <ele>982.5</ele>
        <time>2026-08-27T10:39:38.277Z</time>
      </trkpt>
      <trkpt lat="47.83822" lon="6.9909">
        <ele>982.6</ele>
        <time>2026-08-27T10:39:39.284Z</time>
      </trkpt>
      <trkpt lat="47.83822" lon="6.9909">
        <ele>982.5</ele>
        <time>2026-08-27T10:39:40.292Z</time>
      </trkpt>
      <trkpt lat="47.83822" lon="6.9909">
        <ele>982.7</ele>
        <time>2026-08-27T10:39:41.300Z</time>
      </trkpt>
      <trkpt lat="47.83822" lon="6.9909">
        <ele>982.8</ele>
        <time>2026-08-27T10:39:42.308Z</time>
      </trkpt>
      <trkpt lat="47.83822" lon="6.9909">
        <ele>982.8</ele>
        <time>2026-08-27T10:39:43.317Z</time>
      </trkpt>
      <trkpt lat="47.83822" lon="6.9909">
        <ele>982.6</ele>
        <time>2026-08-27T10:39:45.232Z</time>
      </trkpt>
      <trkpt lat="47.83822" lon="6.9909">
        <ele>982.6</ele>
        <time>2026-08-27T10:39:46.241Z</time>
      </trkpt>
      <trkpt lat="47.83822" lon="6.9909">
        <ele>982.6</ele>
        <time>2026-08-27T10:39:47.249Z</time>
      </trkpt>
      <trkpt lat="47.83822" lon="6.9909">
        <ele>982.6</ele>
        <time>2026-08-27T10:39:48.258Z</time>
      </trkpt>
      <trkpt lat="47.83822" lon="6.9909">
        <ele>982.7</ele>
        <time>2026-08-27T10:39:49.266Z</time>
      </trkpt>
      <trkpt lat="47.83822" lon="6.9909">
        <ele>982.6</ele>
        <time>2026-08-27T10:39:50.273Z</time>
      </trkpt>
      <trkpt lat="47.83822" lon="6.9909">
        <ele>982.7</ele>
        <time>2026-08-27T10:39:51.282Z</time>
      </trkpt>
      <trkpt lat="47.83822" lon="6.9909">
        <ele>982.7</ele>
        <time>2026-08-27T10:39:53.298Z</time>
      </trkpt>
      <trkpt lat="47.83822" lon="6.9909">
        <ele>982.7</ele>
        <time>2026-08-27T10:39:54.306Z</time>
      </trkpt>
      <trkpt lat="47.83822" lon="6.9909">
        <ele>982.7</ele>
        <time>2026-08-27T10:39:55.315Z</time>
      </trkpt>
      <trkpt lat="47.83822" lon="6.9909">
        <ele>982.6</ele>
        <time>2026-08-27T10:39:57.231Z</time>
      </trkpt>
      <trkpt lat="47.83822" lon="6.9909">
        <ele>982.7</ele>
        <time>2026-08-27T10:39:58.238Z</time>
      </trkpt>
      <trkpt lat="47.83822" lon="6.9909">
        <ele>982.8</ele>
        <time>2026-08-27T10:39:59.246Z</time>
      </trkpt>
      <trkpt lat="47.83822" lon="6.9909">
        <ele>982.8</ele>
        <time>2026-08-27T10:40:00.255Z</time>
      </trkpt>
      <trkpt lat="47.83822" lon="6.9909">
        <ele>982.8</ele>
        <time>2026-08-27T10:40:01.264Z</time>
      </trkpt>
      <trkpt lat="47.83822" lon="6.9909">
        <ele>982.7</ele>
        <time>2026-08-27T10:40:02.271Z</time>
      </trkpt>
      <trkpt lat="47.83822" lon="6.9909">
        <ele>982.7</ele>
        <time>2026-08-27T10:40:03.279Z</time>
      </trkpt>
      <trkpt lat="47.83822" lon="6.9909">
        <ele>982.7</ele>
        <time>2026-08-27T10:40:04.287Z</time>
      </trkpt>
      <trkpt lat="47.83822" lon="6.9909">
        <ele>982.7</ele>
        <time>2026-08-27T10:40:05.295Z</time>
      </trkpt>
      <trkpt lat="47.83822" lon="6.9909">
        <ele>982.6</ele>
        <time>2026-08-27T10:40:06.303Z</time>
      </trkpt>
      <trkpt lat="47.83822" lon="6.9909">
        <ele>982.6</ele>
        <time>2026-08-27T10:40:07.312Z</time>
      </trkpt>
      <trkpt lat="47.83822" lon="6.9909">
        <ele>982.6</ele>
        <time>2026-08-27T10:40:08.321Z</time>
      </trkpt>
      <trkpt lat="47.83822" lon="6.9909">
        <ele>982.6</ele>
        <time>2026-08-27T10:40:10.235Z</time>
      </trkpt>
      <trkpt lat="47.83822" lon="6.9909">
        <ele>982.7</ele>
        <time>2026-08-27T10:40:11.244Z</time>
      </trkpt>
      <trkpt lat="47.83822" lon="6.9909">
        <ele>982.7</ele>
        <time>2026-08-27T10:40:12.252Z</time>
      </trkpt>
      <trkpt lat="47.83822" lon="6.9909">
        <ele>982.7</ele>
        <time>2026-08-27T10:40:13.260Z</time>
      </trkpt>
      <trkpt lat="47.83822" lon="6.9909">
        <ele>982.7</ele>
        <time>2026-08-27T10:40:14.268Z</time>
      </trkpt>
      <trkpt lat="47.83822" lon="6.9909">
        <ele>982.7</ele>
        <time>2026-08-27T10:40:15.276Z</time>
      </trkpt>
      <trkpt lat="47.83822" lon="6.9909">
        <ele>982.8</ele>
        <time>2026-08-27T10:40:16.285Z</time>
      </trkpt>
      <trkpt lat="47.83822" lon="6.99089">
        <ele>982.8</ele>
        <time>2026-08-27T10:40:17.294Z</time>
      </trkpt>
      <trkpt lat="47.83822" lon="6.99089">
        <ele>982.9</ele>
        <time>2026-08-27T10:40:18.301Z</time>
      </trkpt>
      <trkpt lat="47.83822" lon="6.99089">
        <ele>982.8</ele>
        <time>2026-08-27T10:40:19.310Z</time>
      </trkpt>
      <trkpt lat="47.83822" lon="6.99089">
        <ele>982.7</ele>
        <time>2026-08-27T10:40:20.317Z</time>
      </trkpt>
      <trkpt lat="47.83822" lon="6.99089">
        <ele>982.9</ele>
        <time>2026-08-27T10:40:22.233Z</time>
      </trkpt>
      <trkpt lat="47.83822" lon="6.99089">
        <ele>982.9</ele>
        <time>2026-08-27T10:40:23.241Z</time>
      </trkpt>
      <trkpt lat="47.83822" lon="6.99089">
        <ele>983</ele>
        <time>2026-08-27T10:40:24.250Z</time>
      </trkpt>
      <trkpt lat="47.83822" lon="6.99089">
        <ele>983</ele>
        <time>2026-08-27T10:40:25.257Z</time>
      </trkpt>
      <trkpt lat="47.83822" lon="6.99089">
        <ele>982.8</ele>
        <time>2026-08-27T10:40:26.266Z</time>
      </trkpt>
      <trkpt lat="47.83822" lon="6.99089">
        <ele>982.8</ele>
        <time>2026-08-27T10:40:27.274Z</time>
      </trkpt>
      <trkpt lat="47.83822" lon="6.99089">
        <ele>982.9</ele>
        <time>2026-08-27T10:40:28.282Z</time>
      </trkpt>
      <trkpt lat="47.83822" lon="6.99089">
        <ele>982.8</ele>
        <time>2026-08-27T10:40:29.291Z</time>
      </trkpt>
      <trkpt lat="47.83822" lon="6.99089">
        <ele>982.8</ele>
        <time>2026-08-27T10:40:30.298Z</time>
      </trkpt>
      <trkpt lat="47.83822" lon="6.99089">
        <ele>982.7</ele>
        <time>2026-08-27T10:40:31.307Z</time>
      </trkpt>
      <trkpt lat="47.83822" lon="6.99089">
        <ele>982.7</ele>
        <time>2026-08-27T10:40:32.315Z</time>
      </trkpt>
      <trkpt lat="47.83822" lon="6.99089">
        <ele>982.7</ele>
        <time>2026-08-27T10:40:33.323Z</time>
      </trkpt>
      <trkpt lat="47.83822" lon="6.99089">
        <ele>982.7</ele>
        <time>2026-08-27T10:40:35.238Z</time>
      </trkpt>
      <trkpt lat="47.83822" lon="6.99089">
        <ele>982.7</ele>
        <time>2026-08-27T10:40:36.248Z</time>
      </trkpt>
      <trkpt lat="47.83822" lon="6.99089">
        <ele>982.7</ele>
        <time>2026-08-27T10:40:37.256Z</time>
      </trkpt>
      <trkpt lat="47.83822" lon="6.99089">
        <ele>982.5</ele>
        <time>2026-08-27T10:40:39.271Z</time>
      </trkpt>
      <trkpt lat="47.83822" lon="6.99089">
        <ele>982.6</ele>
        <time>2026-08-27T10:40:40.279Z</time>
      </trkpt>
      <trkpt lat="47.83822" lon="6.99089">
        <ele>982.8</ele>
        <time>2026-08-27T10:40:42.296Z</time>
      </trkpt>
      <trkpt lat="47.83822" lon="6.99089">
        <ele>982.7</ele>
        <time>2026-08-27T10:40:44.313Z</time>
      </trkpt>
      <trkpt lat="47.83822" lon="6.99089">
        <ele>982.8</ele>
        <time>2026-08-27T10:40:45.320Z</time>
      </trkpt>
      <trkpt lat="47.83822" lon="6.99089">
        <ele>982.9</ele>
        <time>2026-08-27T10:40:47.237Z</time>
      </trkpt>
      <trkpt lat="47.83822" lon="6.99089">
        <ele>982.9</ele>
        <time>2026-08-27T10:40:48.245Z</time>
      </trkpt>
      <trkpt lat="47.83822" lon="6.99089">
        <ele>982.9</ele>
        <time>2026-08-27T10:40:49.253Z</time>
      </trkpt>
      <trkpt lat="47.83822" lon="6.99089">
        <ele>982.9</ele>
        <time>2026-08-27T10:40:50.261Z</time>
      </trkpt>
      <trkpt lat="47.83822" lon="6.99089">
        <ele>982.9</ele>
        <time>2026-08-27T10:40:51.269Z</time>
      </trkpt>
      <trkpt lat="47.83822" lon="6.99088">
        <ele>982.7</ele>
        <time>2026-08-27T10:40:52.277Z</time>
      </trkpt>
      <trkpt lat="47.83822" lon="6.99088">
        <ele>982.6</ele>
        <time>2026-08-27T10:40:53.285Z</time>
      </trkpt>
      <trkpt lat="47.83822" lon="6.99088">
        <ele>982.7</ele>
        <time>2026-08-27T10:40:54.294Z</time>
      </trkpt>
      <trkpt lat="47.83822" lon="6.99088">
        <ele>982.6</ele>
        <time>2026-08-27T10:40:55.301Z</time>
      </trkpt>
      <trkpt lat="47.83822" lon="6.99088">
        <ele>982.7</ele>
        <time>2026-08-27T10:40:56.311Z</time>
      </trkpt>
      <trkpt lat="47.83822" lon="6.99088">
        <ele>982.7</ele>
        <time>2026-08-27T10:40:57.318Z</time>
      </trkpt>
      <trkpt lat="47.83822" lon="6.99088">
        <ele>982.6</ele>
        <time>2026-08-27T10:40:59.233Z</time>
      </trkpt>
      <trkpt lat="47.83822" lon="6.99088">
        <ele>982.5</ele>
        <time>2026-08-27T10:41:00.241Z</time>
      </trkpt>
      <trkpt lat="47.83822" lon="6.99088">
        <ele>982.4</ele>
        <time>2026-08-27T10:41:01.250Z</time>
      </trkpt>
      <trkpt lat="47.83822" lon="6.99088">
        <ele>982.4</ele>
        <time>2026-08-27T10:41:02.259Z</time>
      </trkpt>
      <trkpt lat="47.83823" lon="6.99088">
        <ele>982.3</ele>
        <time>2026-08-27T10:41:03.267Z</time>
      </trkpt>
      <trkpt lat="47.83823" lon="6.99088">
        <ele>982.3</ele>
        <time>2026-08-27T10:41:04.275Z</time>
      </trkpt>
      <trkpt lat="47.83823" lon="6.99088">
        <ele>982.3</ele>
        <time>2026-08-27T10:41:05.282Z</time>
      </trkpt>
      <trkpt lat="47.83823" lon="6.99088">
        <ele>982.4</ele>
        <time>2026-08-27T10:41:06.290Z</time>
      </trkpt>
      <trkpt lat="47.83823" lon="6.99088">
        <ele>982.4</ele>
        <time>2026-08-27T10:41:07.300Z</time>
      </trkpt>
      <trkpt lat="47.83823" lon="6.99088">
        <ele>982.4</ele>
        <time>2026-08-27T10:41:08.308Z</time>
      </trkpt>
      <trkpt lat="47.83823" lon="6.99088">
        <ele>982.4</ele>
        <time>2026-08-27T10:41:09.316Z</time>
      </trkpt>
      <trkpt lat="47.83823" lon="6.99088">
        <ele>982.6</ele>
        <time>2026-08-27T10:41:11.232Z</time>
      </trkpt>
      <trkpt lat="47.83823" lon="6.99088">
        <ele>982.6</ele>
        <time>2026-08-27T10:41:12.240Z</time>
      </trkpt>
      <trkpt lat="47.83823" lon="6.99088">
        <ele>982.6</ele>
        <time>2026-08-27T10:41:13.248Z</time>
      </trkpt>
      <trkpt lat="47.83823" lon="6.99088">
        <ele>982.6</ele>
        <time>2026-08-27T10:41:14.255Z</time>
      </trkpt>
      <trkpt lat="47.83823" lon="6.99088">
        <ele>982.6</ele>
        <time>2026-08-27T10:41:15.263Z</time>
      </trkpt>
      <trkpt lat="47.83823" lon="6.99088">
        <ele>982.6</ele>
        <time>2026-08-27T10:41:16.271Z</time>
      </trkpt>
      <trkpt lat="47.83823" lon="6.99088">
        <ele>982.6</ele>
        <time>2026-08-27T10:41:17.280Z</time>
      </trkpt>
      <trkpt lat="47.83823" lon="6.99088">
        <ele>982.6</ele>
        <time>2026-08-27T10:41:18.288Z</time>
      </trkpt>
      <trkpt lat="47.83823" lon="6.99088">
        <ele>982.6</ele>
        <time>2026-08-27T10:41:19.297Z</time>
      </trkpt>
      <trkpt lat="47.83823" lon="6.99088">
        <ele>982.5</ele>
        <time>2026-08-27T10:41:20.305Z</time>
      </trkpt>
      <trkpt lat="47.83823" lon="6.99088">
        <ele>982.6</ele>
        <time>2026-08-27T10:41:21.313Z</time>
      </trkpt>
      <trkpt lat="47.83823" lon="6.99088">
        <ele>982.6</ele>
        <time>2026-08-27T10:41:23.228Z</time>
      </trkpt>
      <trkpt lat="47.83823" lon="6.99088">
        <ele>982.6</ele>
        <time>2026-08-27T10:41:24.236Z</time>
      </trkpt>
      <trkpt lat="47.83823" lon="6.99088">
        <ele>982.6</ele>
        <time>2026-08-27T10:41:25.244Z</time>
      </trkpt>
      <trkpt lat="47.83823" lon="6.99088">
        <ele>982.6</ele>
        <time>2026-08-27T10:41:26.252Z</time>
      </trkpt>
      <trkpt lat="47.83823" lon="6.99088">
        <ele>982.4</ele>
        <time>2026-08-27T10:41:27.261Z</time>
      </trkpt>
      <trkpt lat="47.83823" lon="6.99088">
        <ele>982.3</ele>
        <time>2026-08-27T10:41:28.270Z</time>
      </trkpt>
      <trkpt lat="47.83823" lon="6.99088">
        <ele>982.3</ele>
        <time>2026-08-27T10:41:29.277Z</time>
      </trkpt>
      <trkpt lat="47.83823" lon="6.99088">
        <ele>982.4</ele>
        <time>2026-08-27T10:41:30.285Z</time>
      </trkpt>
      <trkpt lat="47.83823" lon="6.99088">
        <ele>982.4</ele>
        <time>2026-08-27T10:41:31.293Z</time>
      </trkpt>
      <trkpt lat="47.83823" lon="6.99087">
        <ele>982.4</ele>
        <time>2026-08-27T10:41:32.301Z</time>
      </trkpt>
      <trkpt lat="47.83823" lon="6.99087">
        <ele>982.4</ele>
        <time>2026-08-27T10:41:33.311Z</time>
      </trkpt>
      <trkpt lat="47.83823" lon="6.99088">
        <ele>982.4</ele>
        <time>2026-08-27T10:41:34.318Z</time>
      </trkpt>
      <trkpt lat="47.83823" lon="6.99088">
        <ele>982.5</ele>
        <time>2026-08-27T10:41:35.327Z</time>
      </trkpt>
      <trkpt lat="47.83823" lon="6.99088">
        <ele>982.5</ele>
        <time>2026-08-27T10:41:37.242Z</time>
      </trkpt>
      <trkpt lat="47.83823" lon="6.99088">
        <ele>982.4</ele>
        <time>2026-08-27T10:41:38.251Z</time>
      </trkpt>
      <trkpt lat="47.83823" lon="6.99088">
        <ele>982.4</ele>
        <time>2026-08-27T10:41:39.259Z</time>
      </trkpt>
      <trkpt lat="47.83823" lon="6.99088">
        <ele>982.3</ele>
        <time>2026-08-27T10:41:40.267Z</time>
      </trkpt>
      <trkpt lat="47.83823" lon="6.99088">
        <ele>982.5</ele>
        <time>2026-08-27T10:41:41.274Z</time>
      </trkpt>
      <trkpt lat="47.83823" lon="6.99088">
        <ele>982.5</ele>
        <time>2026-08-27T10:41:42.283Z</time>
      </trkpt>
      <trkpt lat="47.83823" lon="6.99088">
        <ele>982.6</ele>
        <time>2026-08-27T10:41:43.290Z</time>
      </trkpt>
      <trkpt lat="47.83823" lon="6.99088">
        <ele>982.6</ele>
        <time>2026-08-27T10:41:44.299Z</time>
      </trkpt>
      <trkpt lat="47.83823" lon="6.99088">
        <ele>982.7</ele>
        <time>2026-08-27T10:41:46.315Z</time>
      </trkpt>
      <trkpt lat="47.83823" lon="6.99088">
        <ele>982.7</ele>
        <time>2026-08-27T10:41:47.324Z</time>
      </trkpt>
      <trkpt lat="47.83823" lon="6.99088">
        <ele>982.6</ele>
        <time>2026-08-27T10:41:48.331Z</time>
      </trkpt>
      <trkpt lat="47.83823" lon="6.99088">
        <ele>982.4</ele>
        <time>2026-08-27T10:41:49.339Z</time>
      </trkpt>
      <trkpt lat="47.83823" lon="6.99088">
        <ele>982.4</ele>
        <time>2026-08-27T10:41:51.256Z</time>
      </trkpt>
      <trkpt lat="47.83823" lon="6.99088">
        <ele>982.4</ele>
        <time>2026-08-27T10:41:52.264Z</time>
      </trkpt>
      <trkpt lat="47.83823" lon="6.99088">
        <ele>982.7</ele>
        <time>2026-08-27T10:41:53.271Z</time>
      </trkpt>
      <trkpt lat="47.83823" lon="6.99088">
        <ele>982.6</ele>
        <time>2026-08-27T10:41:54.279Z</time>
      </trkpt>
      <trkpt lat="47.83823" lon="6.99088">
        <ele>982.6</ele>
        <time>2026-08-27T10:41:55.288Z</time>
      </trkpt>
      <trkpt lat="47.83823" lon="6.99088">
        <ele>982.8</ele>
        <time>2026-08-27T10:41:56.297Z</time>
      </trkpt>
      <trkpt lat="47.83823" lon="6.99088">
        <ele>982.6</ele>
        <time>2026-08-27T10:41:57.305Z</time>
      </trkpt>
      <trkpt lat="47.83823" lon="6.99088">
        <ele>982.6</ele>
        <time>2026-08-27T10:41:58.313Z</time>
      </trkpt>
      <trkpt lat="47.83823" lon="6.99088">
        <ele>982.7</ele>
        <time>2026-08-27T10:41:59.320Z</time>
      </trkpt>
      <trkpt lat="47.83823" lon="6.99088">
        <ele>982.6</ele>
        <time>2026-08-27T10:42:01.237Z</time>
      </trkpt>
      <trkpt lat="47.83823" lon="6.99088">
        <ele>982.5</ele>
        <time>2026-08-27T10:42:02.245Z</time>
      </trkpt>
      <trkpt lat="47.83823" lon="6.99088">
        <ele>982.5</ele>
        <time>2026-08-27T10:42:03.252Z</time>
      </trkpt>
      <trkpt lat="47.83823" lon="6.99088">
        <ele>982.4</ele>
        <time>2026-08-27T10:42:04.260Z</time>
      </trkpt>
      <trkpt lat="47.83823" lon="6.99088">
        <ele>982.4</ele>
        <time>2026-08-27T10:42:05.270Z</time>
      </trkpt>
      <trkpt lat="47.83823" lon="6.99088">
        <ele>982.4</ele>
        <time>2026-08-27T10:42:06.278Z</time>
      </trkpt>
      <trkpt lat="47.83823" lon="6.99088">
        <ele>982.3</ele>
        <time>2026-08-27T10:42:07.285Z</time>
      </trkpt>
      <trkpt lat="47.83823" lon="6.99088">
        <ele>982.4</ele>
        <time>2026-08-27T10:42:08.293Z</time>
      </trkpt>
      <trkpt lat="47.83823" lon="6.99088">
        <ele>982.4</ele>
        <time>2026-08-27T10:42:09.302Z</time>
      </trkpt>
      <trkpt lat="47.83823" lon="6.99088">
        <ele>982.4</ele>
        <time>2026-08-27T10:42:10.309Z</time>
      </trkpt>
      <trkpt lat="47.83823" lon="6.99088">
        <ele>982.5</ele>
        <time>2026-08-27T10:42:12.225Z</time>
      </trkpt>
      <trkpt lat="47.83823" lon="6.99088">
        <ele>982.5</ele>
        <time>2026-08-27T10:42:13.233Z</time>
      </trkpt>
      <trkpt lat="47.83823" lon="6.99088">
        <ele>982.6</ele>
        <time>2026-08-27T10:42:14.241Z</time>
      </trkpt>
      <trkpt lat="47.83823" lon="6.99088">
        <ele>982.7</ele>
        <time>2026-08-27T10:42:15.249Z</time>
      </trkpt>
      <trkpt lat="47.83823" lon="6.99088">
        <ele>982.7</ele>
        <time>2026-08-27T10:42:16.259Z</time>
      </trkpt>
      <trkpt lat="47.83823" lon="6.99088">
        <ele>982.3</ele>
        <time>2026-08-27T10:42:17.266Z</time>
      </trkpt>
      <trkpt lat="47.83823" lon="6.99088">
        <ele>982.3</ele>
        <time>2026-08-27T10:42:18.274Z</time>
      </trkpt>
      <trkpt lat="47.83823" lon="6.99088">
        <ele>982.5</ele>
        <time>2026-08-27T10:42:19.283Z</time>
      </trkpt>
      <trkpt lat="47.83823" lon="6.99088">
        <ele>982.5</ele>
        <time>2026-08-27T10:42:20.291Z</time>
      </trkpt>
      <trkpt lat="47.83823" lon="6.99088">
        <ele>982.3</ele>
        <time>2026-08-27T10:42:21.298Z</time>
      </trkpt>
      <trkpt lat="47.83823" lon="6.99088">
        <ele>982.6</ele>
        <time>2026-08-27T10:42:22.307Z</time>
      </trkpt>
      <trkpt lat="47.83823" lon="6.99088">
        <ele>982.3</ele>
        <time>2026-08-27T10:42:23.315Z</time>
      </trkpt>
      <trkpt lat="47.83823" lon="6.99088">
        <ele>982.3</ele>
        <time>2026-08-27T10:42:25.332Z</time>
      </trkpt>
      <trkpt lat="47.83823" lon="6.99088">
        <ele>982.3</ele>
        <time>2026-08-27T10:42:27.247Z</time>
      </trkpt>
      <trkpt lat="47.83824" lon="6.99088">
        <ele>982.4</ele>
        <time>2026-08-27T10:42:28.255Z</time>
      </trkpt>
      <trkpt lat="47.83824" lon="6.99088">
        <ele>982.5</ele>
        <time>2026-08-27T10:42:29.263Z</time>
      </trkpt>
      <trkpt lat="47.83824" lon="6.99088">
        <ele>982.4</ele>
        <time>2026-08-27T10:42:30.271Z</time>
      </trkpt>
      <trkpt lat="47.83824" lon="6.99088">
        <ele>982.5</ele>
        <time>2026-08-27T10:42:31.279Z</time>
      </trkpt>
      <trkpt lat="47.83823" lon="6.99088">
        <ele>982.6</ele>
        <time>2026-08-27T10:42:32.287Z</time>
      </trkpt>
      <trkpt lat="47.83823" lon="6.99088">
        <ele>982.6</ele>
        <time>2026-08-27T10:42:33.296Z</time>
      </trkpt>
      <trkpt lat="47.83824" lon="6.99088">
        <ele>982.6</ele>
        <time>2026-08-27T10:42:34.304Z</time>
      </trkpt>
      <trkpt lat="47.83824" lon="6.99088">
        <ele>982.6</ele>
        <time>2026-08-27T10:42:35.313Z</time>
      </trkpt>
      <trkpt lat="47.83824" lon="6.99088">
        <ele>982.7</ele>
        <time>2026-08-27T10:42:37.227Z</time>
      </trkpt>
      <trkpt lat="47.83824" lon="6.99088">
        <ele>982.8</ele>
        <time>2026-08-27T10:42:38.337Z</time>
      </trkpt>
      <trkpt lat="47.83824" lon="6.99088">
        <ele>982.5</ele>
        <time>2026-08-27T10:42:40.252Z</time>
      </trkpt>
      <trkpt lat="47.83824" lon="6.99088">
        <ele>982.7</ele>
        <time>2026-08-27T10:42:41.261Z</time>
      </trkpt>
      <trkpt lat="47.83824" lon="6.99088">
        <ele>982.7</ele>
        <time>2026-08-27T10:42:42.268Z</time>
      </trkpt>
      <trkpt lat="47.83824" lon="6.99088">
        <ele>982.6</ele>
        <time>2026-08-27T10:42:43.276Z</time>
      </trkpt>
      <trkpt lat="47.83824" lon="6.99088">
        <ele>982.5</ele>
        <time>2026-08-27T10:42:44.284Z</time>
      </trkpt>
      <trkpt lat="47.83824" lon="6.99088">
        <ele>982.5</ele>
        <time>2026-08-27T10:42:45.293Z</time>
      </trkpt>
      <trkpt lat="47.83824" lon="6.99088">
        <ele>982.4</ele>
        <time>2026-08-27T10:42:46.301Z</time>
      </trkpt>
      <trkpt lat="47.83823" lon="6.99088">
        <ele>982.4</ele>
        <time>2026-08-27T10:42:47.309Z</time>
      </trkpt>
      <trkpt lat="47.83823" lon="6.99088">
        <ele>982.4</ele>
        <time>2026-08-27T10:42:48.318Z</time>
      </trkpt>
      <trkpt lat="47.83823" lon="6.99088">
        <ele>982.4</ele>
        <time>2026-08-27T10:42:49.325Z</time>
      </trkpt>
      <trkpt lat="47.83823" lon="6.99088">
        <ele>982.6</ele>
        <time>2026-08-27T10:42:51.241Z</time>
      </trkpt>
      <trkpt lat="47.83823" lon="6.99088">
        <ele>982.8</ele>
        <time>2026-08-27T10:42:52.249Z</time>
      </trkpt>
      <trkpt lat="47.83823" lon="6.99088">
        <ele>982.7</ele>
        <time>2026-08-27T10:42:53.257Z</time>
      </trkpt>
      <trkpt lat="47.83823" lon="6.99088">
        <ele>982.7</ele>
        <time>2026-08-27T10:42:54.265Z</time>
      </trkpt>
      <trkpt lat="47.83823" lon="6.99088">
        <ele>982.7</ele>
        <time>2026-08-27T10:42:55.273Z</time>
      </trkpt>
      <trkpt lat="47.83823" lon="6.99088">
        <ele>982.7</ele>
        <time>2026-08-27T10:42:56.282Z</time>
      </trkpt>
      <trkpt lat="47.83823" lon="6.99088">
        <ele>982.7</ele>
        <time>2026-08-27T10:42:57.290Z</time>
      </trkpt>
      <trkpt lat="47.83823" lon="6.99088">
        <ele>982.6</ele>
        <time>2026-08-27T10:42:58.298Z</time>
      </trkpt>
      <trkpt lat="47.83823" lon="6.99088">
        <ele>982.6</ele>
        <time>2026-08-27T10:42:59.306Z</time>
      </trkpt>
      <trkpt lat="47.83824" lon="6.99088">
        <ele>982.7</ele>
        <time>2026-08-27T10:43:00.315Z</time>
      </trkpt>
      <trkpt lat="47.83823" lon="6.99088">
        <ele>982.5</ele>
        <time>2026-08-27T10:43:01.323Z</time>
      </trkpt>
      <trkpt lat="47.83823" lon="6.99088">
        <ele>982.5</ele>
        <time>2026-08-27T10:43:03.238Z</time>
      </trkpt>
      <trkpt lat="47.83823" lon="6.99088">
        <ele>982.5</ele>
        <time>2026-08-27T10:43:04.247Z</time>
      </trkpt>
      <trkpt lat="47.83823" lon="6.99088">
        <ele>982.5</ele>
        <time>2026-08-27T10:43:05.255Z</time>
      </trkpt>
      <trkpt lat="47.83823" lon="6.99088">
        <ele>982.5</ele>
        <time>2026-08-27T10:43:06.262Z</time>
      </trkpt>
      <trkpt lat="47.83823" lon="6.99088">
        <ele>982.5</ele>
        <time>2026-08-27T10:43:07.271Z</time>
      </trkpt>
      <trkpt lat="47.83823" lon="6.99088">
        <ele>982.5</ele>
        <time>2026-08-27T10:43:08.279Z</time>
      </trkpt>
      <trkpt lat="47.83823" lon="6.99088">
        <ele>982.5</ele>
        <time>2026-08-27T10:43:09.287Z</time>
      </trkpt>
      <trkpt lat="47.83823" lon="6.99088">
        <ele>982.4</ele>
        <time>2026-08-27T10:43:10.295Z</time>
      </trkpt>
      <trkpt lat="47.83823" lon="6.99088">
        <ele>982.6</ele>
        <time>2026-08-27T10:43:12.311Z</time>
      </trkpt>
      <trkpt lat="47.83823" lon="6.99088">
        <ele>982.6</ele>
        <time>2026-08-27T10:43:13.319Z</time>
      </trkpt>
      <trkpt lat="47.83823" lon="6.99088">
        <ele>982.6</ele>
        <time>2026-08-27T10:43:14.329Z</time>
      </trkpt>
      <trkpt lat="47.83823" lon="6.99088">
        <ele>982.6</ele>
        <time>2026-08-27T10:43:16.243Z</time>
      </trkpt>
      <trkpt lat="47.83823" lon="6.99088">
        <ele>982.5</ele>
        <time>2026-08-27T10:43:17.251Z</time>
      </trkpt>
      <trkpt lat="47.83823" lon="6.99088">
        <ele>982.5</ele>
        <time>2026-08-27T10:43:18.260Z</time>
      </trkpt>
      <trkpt lat="47.83823" lon="6.99088">
        <ele>982.6</ele>
        <time>2026-08-27T10:43:19.269Z</time>
      </trkpt>
      <trkpt lat="47.83823" lon="6.99088">
        <ele>982.6</ele>
        <time>2026-08-27T10:43:20.276Z</time>
      </trkpt>
      <trkpt lat="47.83823" lon="6.99088">
        <ele>982.8</ele>
        <time>2026-08-27T10:43:21.284Z</time>
      </trkpt>
      <trkpt lat="47.83823" lon="6.99088">
        <ele>982.8</ele>
        <time>2026-08-27T10:43:22.292Z</time>
      </trkpt>
      <trkpt lat="47.83822" lon="6.99088">
        <ele>982.8</ele>
        <time>2026-08-27T10:43:23.300Z</time>
      </trkpt>
      <trkpt lat="47.83822" lon="6.99088">
        <ele>982.8</ele>
        <time>2026-08-27T10:43:24.309Z</time>
      </trkpt>
      <trkpt lat="47.83822" lon="6.99089">
        <ele>982.8</ele>
        <time>2026-08-27T10:43:25.317Z</time>
      </trkpt>
      <trkpt lat="47.83822" lon="6.99089">
        <ele>982.6</ele>
        <time>2026-08-27T10:43:27.233Z</time>
      </trkpt>
      <trkpt lat="47.83822" lon="6.99089">
        <ele>982.6</ele>
        <time>2026-08-27T10:43:28.240Z</time>
      </trkpt>
      <trkpt lat="47.83822" lon="6.99089">
        <ele>982.5</ele>
        <time>2026-08-27T10:43:29.248Z</time>
      </trkpt>
      <trkpt lat="47.83822" lon="6.99089">
        <ele>982.5</ele>
        <time>2026-08-27T10:43:30.256Z</time>
      </trkpt>
      <trkpt lat="47.83822" lon="6.99089">
        <ele>982.7</ele>
        <time>2026-08-27T10:43:32.273Z</time>
      </trkpt>
      <trkpt lat="47.83822" lon="6.99089">
        <ele>982.6</ele>
        <time>2026-08-27T10:43:33.281Z</time>
      </trkpt>
      <trkpt lat="47.83822" lon="6.99089">
        <ele>982.6</ele>
        <time>2026-08-27T10:43:34.289Z</time>
      </trkpt>
      <trkpt lat="47.83822" lon="6.99089">
        <ele>982.8</ele>
        <time>2026-08-27T10:43:35.298Z</time>
      </trkpt>
      <trkpt lat="47.83822" lon="6.99089">
        <ele>982.7</ele>
        <time>2026-08-27T10:43:36.305Z</time>
      </trkpt>
      <trkpt lat="47.83822" lon="6.99089">
        <ele>982.7</ele>
        <time>2026-08-27T10:43:37.315Z</time>
      </trkpt>
      <trkpt lat="47.83822" lon="6.99089">
        <ele>982.7</ele>
        <time>2026-08-27T10:43:39.229Z</time>
      </trkpt>
      <trkpt lat="47.83822" lon="6.99089">
        <ele>982.7</ele>
        <time>2026-08-27T10:43:40.238Z</time>
      </trkpt>
      <trkpt lat="47.83822" lon="6.99089">
        <ele>982.7</ele>
        <time>2026-08-27T10:43:41.245Z</time>
      </trkpt>
      <trkpt lat="47.83822" lon="6.99089">
        <ele>982.8</ele>
        <time>2026-08-27T10:43:42.254Z</time>
      </trkpt>
      <trkpt lat="47.83822" lon="6.99089">
        <ele>982.8</ele>
        <time>2026-08-27T10:43:43.262Z</time>
      </trkpt>
      <trkpt lat="47.83822" lon="6.9909">
        <ele>982.8</ele>
        <time>2026-08-27T10:43:44.270Z</time>
      </trkpt>
      <trkpt lat="47.83821" lon="6.9909">
        <ele>982.8</ele>
        <time>2026-08-27T10:43:45.278Z</time>
      </trkpt>
      <trkpt lat="47.83821" lon="6.9909">
        <ele>982.8</ele>
        <time>2026-08-27T10:43:46.286Z</time>
      </trkpt>
      <trkpt lat="47.83821" lon="6.9909">
        <ele>982.9</ele>
        <time>2026-08-27T10:43:47.295Z</time>
      </trkpt>
      <trkpt lat="47.83821" lon="6.9909">
        <ele>982.8</ele>
        <time>2026-08-27T10:43:48.302Z</time>
      </trkpt>
      <trkpt lat="47.83821" lon="6.9909">
        <ele>982.8</ele>
        <time>2026-08-27T10:43:49.311Z</time>
      </trkpt>
      <trkpt lat="47.83821" lon="6.9909">
        <ele>982.8</ele>
        <time>2026-08-27T10:43:50.319Z</time>
      </trkpt>
      <trkpt lat="47.83821" lon="6.9909">
        <ele>982.9</ele>
        <time>2026-08-27T10:43:51.327Z</time>
      </trkpt>
      <trkpt lat="47.83821" lon="6.9909">
        <ele>982.9</ele>
        <time>2026-08-27T10:43:53.243Z</time>
      </trkpt>
      <trkpt lat="47.83821" lon="6.9909">
        <ele>982.9</ele>
        <time>2026-08-27T10:43:54.251Z</time>
      </trkpt>
      <trkpt lat="47.83821" lon="6.9909">
        <ele>982.9</ele>
        <time>2026-08-27T10:43:55.259Z</time>
      </trkpt>
      <trkpt lat="47.83821" lon="6.9909">
        <ele>982.9</ele>
        <time>2026-08-27T10:43:56.267Z</time>
      </trkpt>
      <trkpt lat="47.83821" lon="6.9909">
        <ele>982.9</ele>
        <time>2026-08-27T10:43:57.275Z</time>
      </trkpt>
      <trkpt lat="47.83821" lon="6.9909">
        <ele>982.9</ele>
        <time>2026-08-27T10:43:58.283Z</time>
      </trkpt>
      <trkpt lat="47.83821" lon="6.9909">
        <ele>983</ele>
        <time>2026-08-27T10:43:59.291Z</time>
      </trkpt>
      <trkpt lat="47.83821" lon="6.9909">
        <ele>983</ele>
        <time>2026-08-27T10:44:00.300Z</time>
      </trkpt>
      <trkpt lat="47.83821" lon="6.9909">
        <ele>983</ele>
        <time>2026-08-27T10:44:01.308Z</time>
      </trkpt>
      <trkpt lat="47.83821" lon="6.9909">
        <ele>982.9</ele>
        <time>2026-08-27T10:44:02.316Z</time>
      </trkpt>
      <trkpt lat="47.83821" lon="6.9909">
        <ele>982.9</ele>
        <time>2026-08-27T10:44:03.324Z</time>
      </trkpt>
      <trkpt lat="47.83821" lon="6.9909">
        <ele>982.9</ele>
        <time>2026-08-27T10:44:05.239Z</time>
      </trkpt>
      <trkpt lat="47.83821" lon="6.9909">
        <ele>983</ele>
        <time>2026-08-27T10:44:06.348Z</time>
      </trkpt>
      <trkpt lat="47.83821" lon="6.9909">
        <ele>983</ele>
        <time>2026-08-27T10:44:08.264Z</time>
      </trkpt>
      <trkpt lat="47.83821" lon="6.99091">
        <ele>982.9</ele>
        <time>2026-08-27T10:44:09.273Z</time>
      </trkpt>
      <trkpt lat="47.83821" lon="6.99091">
        <ele>982.8</ele>
        <time>2026-08-27T10:44:10.280Z</time>
      </trkpt>
      <trkpt lat="47.83821" lon="6.99091">
        <ele>983</ele>
        <time>2026-08-27T10:44:11.289Z</time>
      </trkpt>
      <trkpt lat="47.83821" lon="6.99091">
        <ele>982.9</ele>
        <time>2026-08-27T10:44:12.296Z</time>
      </trkpt>
      <trkpt lat="47.83821" lon="6.99091">
        <ele>982.9</ele>
        <time>2026-08-27T10:44:13.305Z</time>
      </trkpt>
      <trkpt lat="47.83821" lon="6.99091">
        <ele>982.9</ele>
        <time>2026-08-27T10:44:14.313Z</time>
      </trkpt>
      <trkpt lat="47.83821" lon="6.99091">
        <ele>982.9</ele>
        <time>2026-08-27T10:44:15.321Z</time>
      </trkpt>
      <trkpt lat="47.83821" lon="6.99091">
        <ele>982.9</ele>
        <time>2026-08-27T10:44:17.236Z</time>
      </trkpt>
      <trkpt lat="47.83821" lon="6.99091">
        <ele>982.8</ele>
        <time>2026-08-27T10:44:18.245Z</time>
      </trkpt>
      <trkpt lat="47.83821" lon="6.99091">
        <ele>982.8</ele>
        <time>2026-08-27T10:44:19.254Z</time>
      </trkpt>
      <trkpt lat="47.83821" lon="6.99091">
        <ele>982.8</ele>
        <time>2026-08-27T10:44:20.262Z</time>
      </trkpt>
      <trkpt lat="47.83821" lon="6.99091">
        <ele>982.9</ele>
        <time>2026-08-27T10:44:21.270Z</time>
      </trkpt>
      <trkpt lat="47.83821" lon="6.99091">
        <ele>982.9</ele>
        <time>2026-08-27T10:44:22.278Z</time>
      </trkpt>
      <trkpt lat="47.83821" lon="6.99091">
        <ele>983</ele>
        <time>2026-08-27T10:44:23.285Z</time>
      </trkpt>
      <trkpt lat="47.83821" lon="6.99091">
        <ele>983</ele>
        <time>2026-08-27T10:44:24.294Z</time>
      </trkpt>
      <trkpt lat="47.83821" lon="6.99091">
        <ele>983</ele>
        <time>2026-08-27T10:44:25.301Z</time>
      </trkpt>
      <trkpt lat="47.83821" lon="6.99091">
        <ele>983</ele>
        <time>2026-08-27T10:44:26.310Z</time>
      </trkpt>
      <trkpt lat="47.83821" lon="6.99091">
        <ele>982.9</ele>
        <time>2026-08-27T10:44:27.318Z</time>
      </trkpt>
      <trkpt lat="47.83821" lon="6.99091">
        <ele>982.9</ele>
        <time>2026-08-27T10:44:29.234Z</time>
      </trkpt>
      <trkpt lat="47.83821" lon="6.99091">
        <ele>982.8</ele>
        <time>2026-08-27T10:44:30.241Z</time>
      </trkpt>
      <trkpt lat="47.83821" lon="6.99091">
        <ele>982.9</ele>
        <time>2026-08-27T10:44:31.250Z</time>
      </trkpt>
      <trkpt lat="47.83821" lon="6.99091">
        <ele>982.8</ele>
        <time>2026-08-27T10:44:32.259Z</time>
      </trkpt>
      <trkpt lat="47.83821" lon="6.99091">
        <ele>982.7</ele>
        <time>2026-08-27T10:44:33.266Z</time>
      </trkpt>
      <trkpt lat="47.83821" lon="6.99091">
        <ele>982.7</ele>
        <time>2026-08-27T10:44:34.275Z</time>
      </trkpt>
      <trkpt lat="47.83821" lon="6.99091">
        <ele>982.7</ele>
        <time>2026-08-27T10:44:35.282Z</time>
      </trkpt>
      <trkpt lat="47.83821" lon="6.99091">
        <ele>982.7</ele>
        <time>2026-08-27T10:44:36.290Z</time>
      </trkpt>
      <trkpt lat="47.83821" lon="6.99091">
        <ele>982.7</ele>
        <time>2026-08-27T10:44:37.298Z</time>
      </trkpt>
      <trkpt lat="47.83821" lon="6.99091">
        <ele>982.7</ele>
        <time>2026-08-27T10:44:38.306Z</time>
      </trkpt>
      <trkpt lat="47.83821" lon="6.99091">
        <ele>982.7</ele>
        <time>2026-08-27T10:44:39.316Z</time>
      </trkpt>
      <trkpt lat="47.83821" lon="6.99091">
        <ele>982.7</ele>
        <time>2026-08-27T10:44:40.323Z</time>
      </trkpt>
      <trkpt lat="47.83821" lon="6.99091">
        <ele>982.7</ele>
        <time>2026-08-27T10:44:42.238Z</time>
      </trkpt>
      <trkpt lat="47.83821" lon="6.99091">
        <ele>982.7</ele>
        <time>2026-08-27T10:44:43.247Z</time>
      </trkpt>
      <trkpt lat="47.83821" lon="6.99091">
        <ele>982.7</ele>
        <time>2026-08-27T10:44:45.264Z</time>
      </trkpt>
      <trkpt lat="47.83821" lon="6.99091">
        <ele>982.7</ele>
        <time>2026-08-27T10:44:46.272Z</time>
      </trkpt>
      <trkpt lat="47.83821" lon="6.99091">
        <ele>982.7</ele>
        <time>2026-08-27T10:44:47.279Z</time>
      </trkpt>
      <trkpt lat="47.83821" lon="6.99091">
        <ele>982.7</ele>
        <time>2026-08-27T10:44:48.287Z</time>
      </trkpt>
      <trkpt lat="47.83821" lon="6.99091">
        <ele>982.7</ele>
        <time>2026-08-27T10:44:49.295Z</time>
      </trkpt>
      <trkpt lat="47.83822" lon="6.99091">
        <ele>982.7</ele>
        <time>2026-08-27T10:44:51.312Z</time>
      </trkpt>
      <trkpt lat="47.83822" lon="6.99091">
        <ele>982.7</ele>
        <time>2026-08-27T10:44:52.320Z</time>
      </trkpt>
      <trkpt lat="47.83822" lon="6.99091">
        <ele>982.6</ele>
        <time>2026-08-27T10:44:54.235Z</time>
      </trkpt>
      <trkpt lat="47.83822" lon="6.99091">
        <ele>982.7</ele>
        <time>2026-08-27T10:44:55.243Z</time>
      </trkpt>
      <trkpt lat="47.83822" lon="6.99091">
        <ele>982.7</ele>
        <time>2026-08-27T10:44:56.251Z</time>
      </trkpt>
      <trkpt lat="47.83822" lon="6.99091">
        <ele>982.7</ele>
        <time>2026-08-27T10:44:57.261Z</time>
      </trkpt>
      <trkpt lat="47.83822" lon="6.99091">
        <ele>982.7</ele>
        <time>2026-08-27T10:44:58.268Z</time>
      </trkpt>
      <trkpt lat="47.83822" lon="6.99091">
        <ele>982.8</ele>
        <time>2026-08-27T10:44:59.276Z</time>
      </trkpt>
      <trkpt lat="47.83822" lon="6.99091">
        <ele>982.9</ele>
        <time>2026-08-27T10:45:00.284Z</time>
      </trkpt>
      <trkpt lat="47.83822" lon="6.9909">
        <ele>982.9</ele>
        <time>2026-08-27T10:45:01.293Z</time>
      </trkpt>
      <trkpt lat="47.83822" lon="6.9909">
        <ele>982.9</ele>
        <time>2026-08-27T10:45:02.301Z</time>
      </trkpt>
      <trkpt lat="47.83822" lon="6.9909">
        <ele>982.9</ele>
        <time>2026-08-27T10:45:03.308Z</time>
      </trkpt>
      <trkpt lat="47.83822" lon="6.9909">
        <ele>982.9</ele>
        <time>2026-08-27T10:45:04.318Z</time>
      </trkpt>
      <trkpt lat="47.83822" lon="6.9909">
        <ele>982.7</ele>
        <time>2026-08-27T10:45:05.326Z</time>
      </trkpt>
      <trkpt lat="47.83822" lon="6.9909">
        <ele>982.9</ele>
        <time>2026-08-27T10:45:06.334Z</time>
      </trkpt>
      <trkpt lat="47.83822" lon="6.9909">
        <ele>982.9</ele>
        <time>2026-08-27T10:45:08.248Z</time>
      </trkpt>
      <trkpt lat="47.83822" lon="6.9909">
        <ele>982.8</ele>
        <time>2026-08-27T10:45:09.256Z</time>
      </trkpt>
      <trkpt lat="47.83822" lon="6.9909">
        <ele>982.8</ele>
        <time>2026-08-27T10:45:10.265Z</time>
      </trkpt>
      <trkpt lat="47.83822" lon="6.9909">
        <ele>982.8</ele>
        <time>2026-08-27T10:45:11.274Z</time>
      </trkpt>
      <trkpt lat="47.83822" lon="6.9909">
        <ele>982.8</ele>
        <time>2026-08-27T10:45:12.281Z</time>
      </trkpt>
      <trkpt lat="47.83822" lon="6.9909">
        <ele>982.8</ele>
        <time>2026-08-27T10:45:13.290Z</time>
      </trkpt>
      <trkpt lat="47.83822" lon="6.9909">
        <ele>982.8</ele>
        <time>2026-08-27T10:45:14.297Z</time>
      </trkpt>
      <trkpt lat="47.83822" lon="6.9909">
        <ele>982.7</ele>
        <time>2026-08-27T10:45:15.305Z</time>
      </trkpt>
      <trkpt lat="47.83822" lon="6.9909">
        <ele>982.7</ele>
        <time>2026-08-27T10:45:16.314Z</time>
      </trkpt>
      <trkpt lat="47.83822" lon="6.9909">
        <ele>982.7</ele>
        <time>2026-08-27T10:45:18.330Z</time>
      </trkpt>
      <trkpt lat="47.83822" lon="6.9909">
        <ele>982.7</ele>
        <time>2026-08-27T10:45:20.245Z</time>
      </trkpt>
      <trkpt lat="47.83822" lon="6.9909">
        <ele>982.7</ele>
        <time>2026-08-27T10:45:21.254Z</time>
      </trkpt>
      <trkpt lat="47.83822" lon="6.9909">
        <ele>982.8</ele>
        <time>2026-08-27T10:45:22.261Z</time>
      </trkpt>
      <trkpt lat="47.83822" lon="6.9909">
        <ele>982.8</ele>
        <time>2026-08-27T10:45:23.270Z</time>
      </trkpt>
      <trkpt lat="47.83822" lon="6.9909">
        <ele>982.8</ele>
        <time>2026-08-27T10:45:24.278Z</time>
      </trkpt>
      <trkpt lat="47.83822" lon="6.9909">
        <ele>982.8</ele>
        <time>2026-08-27T10:45:25.286Z</time>
      </trkpt>
      <trkpt lat="47.83822" lon="6.9909">
        <ele>982.8</ele>
        <time>2026-08-27T10:45:26.295Z</time>
      </trkpt>
      <trkpt lat="47.83822" lon="6.9909">
        <ele>982.7</ele>
        <time>2026-08-27T10:45:27.303Z</time>
      </trkpt>
      <trkpt lat="47.83822" lon="6.9909">
        <ele>982.7</ele>
        <time>2026-08-27T10:45:28.310Z</time>
      </trkpt>
      <trkpt lat="47.83822" lon="6.9909">
        <ele>982.8</ele>
        <time>2026-08-27T10:45:30.327Z</time>
      </trkpt>
      <trkpt lat="47.83822" lon="6.9909">
        <ele>982.9</ele>
        <time>2026-08-27T10:45:31.335Z</time>
      </trkpt>
      <trkpt lat="47.83822" lon="6.99089">
        <ele>982.9</ele>
        <time>2026-08-27T10:45:33.251Z</time>
      </trkpt>
      <trkpt lat="47.83822" lon="6.99089">
        <ele>982.9</ele>
        <time>2026-08-27T10:45:34.259Z</time>
      </trkpt>
      <trkpt lat="47.83822" lon="6.99089">
        <ele>982.9</ele>
        <time>2026-08-27T10:45:35.266Z</time>
      </trkpt>
      <trkpt lat="47.83822" lon="6.99089">
        <ele>983.1</ele>
        <time>2026-08-27T10:45:36.275Z</time>
      </trkpt>
      <trkpt lat="47.83822" lon="6.99089">
        <ele>983.2</ele>
        <time>2026-08-27T10:45:37.283Z</time>
      </trkpt>
      <trkpt lat="47.83822" lon="6.99089">
        <ele>983.2</ele>
        <time>2026-08-27T10:45:38.291Z</time>
      </trkpt>
      <trkpt lat="47.83822" lon="6.99089">
        <ele>983.1</ele>
        <time>2026-08-27T10:45:39.299Z</time>
      </trkpt>
      <trkpt lat="47.83822" lon="6.99089">
        <ele>982.8</ele>
        <time>2026-08-27T10:45:40.308Z</time>
      </trkpt>
      <trkpt lat="47.83822" lon="6.99089">
        <ele>982.9</ele>
        <time>2026-08-27T10:45:41.315Z</time>
      </trkpt>
      <trkpt lat="47.83822" lon="6.99089">
        <ele>982.8</ele>
        <time>2026-08-27T10:45:43.232Z</time>
      </trkpt>
      <trkpt lat="47.83822" lon="6.99089">
        <ele>982.9</ele>
        <time>2026-08-27T10:45:44.240Z</time>
      </trkpt>
      <trkpt lat="47.83822" lon="6.99089">
        <ele>982.8</ele>
        <time>2026-08-27T10:45:45.247Z</time>
      </trkpt>
      <trkpt lat="47.83822" lon="6.99089">
        <ele>982.8</ele>
        <time>2026-08-27T10:45:46.255Z</time>
      </trkpt>
      <trkpt lat="47.83822" lon="6.99089">
        <ele>982.8</ele>
        <time>2026-08-27T10:45:47.263Z</time>
      </trkpt>
      <trkpt lat="47.83822" lon="6.99089">
        <ele>982.9</ele>
        <time>2026-08-27T10:45:48.272Z</time>
      </trkpt>
      <trkpt lat="47.83822" lon="6.99089">
        <ele>982.9</ele>
        <time>2026-08-27T10:45:49.280Z</time>
      </trkpt>
      <trkpt lat="47.83822" lon="6.99089">
        <ele>982.9</ele>
        <time>2026-08-27T10:45:50.288Z</time>
      </trkpt>
      <trkpt lat="47.83822" lon="6.99089">
        <ele>983.1</ele>
        <time>2026-08-27T10:45:51.296Z</time>
      </trkpt>
      <trkpt lat="47.83822" lon="6.99089">
        <ele>982.9</ele>
        <time>2026-08-27T10:45:52.304Z</time>
      </trkpt>
      <trkpt lat="47.83822" lon="6.99089">
        <ele>982.9</ele>
        <time>2026-08-27T10:45:53.312Z</time>
      </trkpt>
      <trkpt lat="47.83822" lon="6.99089">
        <ele>982.9</ele>
        <time>2026-08-27T10:45:54.320Z</time>
      </trkpt>
      <trkpt lat="47.83822" lon="6.99089">
        <ele>982.9</ele>
        <time>2026-08-27T10:45:55.329Z</time>
      </trkpt>
      <trkpt lat="47.83822" lon="6.99089">
        <ele>982.9</ele>
        <time>2026-08-27T10:45:57.244Z</time>
      </trkpt>
      <trkpt lat="47.83822" lon="6.99089">
        <ele>982.8</ele>
        <time>2026-08-27T10:45:58.252Z</time>
      </trkpt>
      <trkpt lat="47.83822" lon="6.99089">
        <ele>982.8</ele>
        <time>2026-08-27T10:45:59.261Z</time>
      </trkpt>
      <trkpt lat="47.83822" lon="6.99089">
        <ele>982.8</ele>
        <time>2026-08-27T10:46:00.269Z</time>
      </trkpt>
      <trkpt lat="47.83822" lon="6.99089">
        <ele>982.8</ele>
        <time>2026-08-27T10:46:01.276Z</time>
      </trkpt>
      <trkpt lat="47.83822" lon="6.99089">
        <ele>982.8</ele>
        <time>2026-08-27T10:46:02.285Z</time>
      </trkpt>
      <trkpt lat="47.83822" lon="6.99089">
        <ele>982.7</ele>
        <time>2026-08-27T10:46:03.293Z</time>
      </trkpt>
      <trkpt lat="47.83822" lon="6.99089">
        <ele>982.7</ele>
        <time>2026-08-27T10:46:04.301Z</time>
      </trkpt>
      <trkpt lat="47.83822" lon="6.99088">
        <ele>982.6</ele>
        <time>2026-08-27T10:46:05.309Z</time>
      </trkpt>
      <trkpt lat="47.83822" lon="6.99088">
        <ele>982.7</ele>
        <time>2026-08-27T10:46:06.317Z</time>
      </trkpt>
      <trkpt lat="47.83822" lon="6.99088">
        <ele>982.8</ele>
        <time>2026-08-27T10:46:07.326Z</time>
      </trkpt>
      <trkpt lat="47.83822" lon="6.99088">
        <ele>982.7</ele>
        <time>2026-08-27T10:46:09.241Z</time>
      </trkpt>
      <trkpt lat="47.83822" lon="6.99088">
        <ele>982.7</ele>
        <time>2026-08-27T10:46:10.249Z</time>
      </trkpt>
      <trkpt lat="47.83822" lon="6.99088">
        <ele>982.8</ele>
        <time>2026-08-27T10:46:11.257Z</time>
      </trkpt>
      <trkpt lat="47.83822" lon="6.99088">
        <ele>982.8</ele>
        <time>2026-08-27T10:46:12.265Z</time>
      </trkpt>
      <trkpt lat="47.83822" lon="6.99088">
        <ele>982.8</ele>
        <time>2026-08-27T10:46:13.274Z</time>
      </trkpt>
      <trkpt lat="47.83822" lon="6.99088">
        <ele>982.8</ele>
        <time>2026-08-27T10:46:14.282Z</time>
      </trkpt>
      <trkpt lat="47.83822" lon="6.99088">
        <ele>982.8</ele>
        <time>2026-08-27T10:46:15.289Z</time>
      </trkpt>
      <trkpt lat="47.83822" lon="6.99088">
        <ele>982.8</ele>
        <time>2026-08-27T10:46:16.299Z</time>
      </trkpt>
      <trkpt lat="47.83822" lon="6.99088">
        <ele>982.8</ele>
        <time>2026-08-27T10:46:17.306Z</time>
      </trkpt>
      <trkpt lat="47.83822" lon="6.99088">
        <ele>982.9</ele>
        <time>2026-08-27T10:46:18.314Z</time>
      </trkpt>
      <trkpt lat="47.83822" lon="6.99088">
        <ele>983</ele>
        <time>2026-08-27T10:46:19.322Z</time>
      </trkpt>
      <trkpt lat="47.83822" lon="6.99088">
        <ele>983</ele>
        <time>2026-08-27T10:46:20.330Z</time>
      </trkpt>
      <trkpt lat="47.83822" lon="6.99088">
        <ele>983.2</ele>
        <time>2026-08-27T10:46:21.338Z</time>
      </trkpt>
      <trkpt lat="47.83822" lon="6.99088">
        <ele>983.2</ele>
        <time>2026-08-27T10:46:23.254Z</time>
      </trkpt>
      <trkpt lat="47.83822" lon="6.99088">
        <ele>983.2</ele>
        <time>2026-08-27T10:46:24.262Z</time>
      </trkpt>
      <trkpt lat="47.83822" lon="6.99088">
        <ele>983.2</ele>
        <time>2026-08-27T10:46:25.271Z</time>
      </trkpt>
      <trkpt lat="47.83822" lon="6.99088">
        <ele>983.3</ele>
        <time>2026-08-27T10:46:26.278Z</time>
      </trkpt>
      <trkpt lat="47.83822" lon="6.99088">
        <ele>983.2</ele>
        <time>2026-08-27T10:46:27.286Z</time>
      </trkpt>
      <trkpt lat="47.83822" lon="6.99088">
        <ele>983.2</ele>
        <time>2026-08-27T10:46:28.294Z</time>
      </trkpt>
      <trkpt lat="47.83822" lon="6.99088">
        <ele>983.1</ele>
        <time>2026-08-27T10:46:29.303Z</time>
      </trkpt>
      <trkpt lat="47.83822" lon="6.99088">
        <ele>983.1</ele>
        <time>2026-08-27T10:46:30.311Z</time>
      </trkpt>
      <trkpt lat="47.83822" lon="6.99088">
        <ele>983.1</ele>
        <time>2026-08-27T10:46:31.319Z</time>
      </trkpt>
      <trkpt lat="47.83822" lon="6.99089">
        <ele>983.2</ele>
        <time>2026-08-27T10:46:32.327Z</time>
      </trkpt>
      <trkpt lat="47.83822" lon="6.99089">
        <ele>983</ele>
        <time>2026-08-27T10:46:34.242Z</time>
      </trkpt>
      <trkpt lat="47.83822" lon="6.99089">
        <ele>983</ele>
        <time>2026-08-27T10:46:35.250Z</time>
      </trkpt>
      <trkpt lat="47.83822" lon="6.99089">
        <ele>983</ele>
        <time>2026-08-27T10:46:36.259Z</time>
      </trkpt>
      <trkpt lat="47.83822" lon="6.99089">
        <ele>982.9</ele>
        <time>2026-08-27T10:46:37.267Z</time>
      </trkpt>
      <trkpt lat="47.83822" lon="6.99089">
        <ele>983.1</ele>
        <time>2026-08-27T10:46:38.275Z</time>
      </trkpt>
      <trkpt lat="47.83822" lon="6.99089">
        <ele>983.1</ele>
        <time>2026-08-27T10:46:39.284Z</time>
      </trkpt>
      <trkpt lat="47.83822" lon="6.99089">
        <ele>983</ele>
        <time>2026-08-27T10:46:40.291Z</time>
      </trkpt>
      <trkpt lat="47.83822" lon="6.99089">
        <ele>983.1</ele>
        <time>2026-08-27T10:46:41.299Z</time>
      </trkpt>
      <trkpt lat="47.83822" lon="6.99089">
        <ele>983</ele>
        <time>2026-08-27T10:46:42.307Z</time>
      </trkpt>
      <trkpt lat="47.83822" lon="6.99089">
        <ele>983</ele>
        <time>2026-08-27T10:46:43.315Z</time>
      </trkpt>
      <trkpt lat="47.83822" lon="6.99089">
        <ele>983</ele>
        <time>2026-08-27T10:46:44.325Z</time>
      </trkpt>
      <trkpt lat="47.83822" lon="6.99089">
        <ele>983</ele>
        <time>2026-08-27T10:46:46.240Z</time>
      </trkpt>
      <trkpt lat="47.83822" lon="6.99089">
        <ele>983</ele>
        <time>2026-08-27T10:46:47.248Z</time>
      </trkpt>
      <trkpt lat="47.83822" lon="6.99089">
        <ele>983</ele>
        <time>2026-08-27T10:46:48.255Z</time>
      </trkpt>
      <trkpt lat="47.83822" lon="6.99089">
        <ele>983.1</ele>
        <time>2026-08-27T10:46:49.263Z</time>
      </trkpt>
      <trkpt lat="47.83822" lon="6.99089">
        <ele>983.1</ele>
        <time>2026-08-27T10:46:51.281Z</time>
      </trkpt>
      <trkpt lat="47.83822" lon="6.99089">
        <ele>983.1</ele>
        <time>2026-08-27T10:46:52.288Z</time>
      </trkpt>
      <trkpt lat="47.83822" lon="6.99089">
        <ele>983.1</ele>
        <time>2026-08-27T10:46:53.297Z</time>
      </trkpt>
      <trkpt lat="47.83822" lon="6.99089">
        <ele>983</ele>
        <time>2026-08-27T10:46:54.304Z</time>
      </trkpt>
      <trkpt lat="47.83822" lon="6.99089">
        <ele>983</ele>
        <time>2026-08-27T10:46:55.312Z</time>
      </trkpt>
      <trkpt lat="47.83823" lon="6.99089">
        <ele>982.9</ele>
        <time>2026-08-27T10:46:57.328Z</time>
      </trkpt>
      <trkpt lat="47.83823" lon="6.99089">
        <ele>983</ele>
        <time>2026-08-27T10:46:59.244Z</time>
      </trkpt>
      <trkpt lat="47.83823" lon="6.99089">
        <ele>983</ele>
        <time>2026-08-27T10:47:00.252Z</time>
      </trkpt>
      <trkpt lat="47.83823" lon="6.99089">
        <ele>983</ele>
        <time>2026-08-27T10:47:01.260Z</time>
      </trkpt>
      <trkpt lat="47.83823" lon="6.99089">
        <ele>982.9</ele>
        <time>2026-08-27T10:47:02.268Z</time>
      </trkpt>
      <trkpt lat="47.83823" lon="6.99089">
        <ele>982.9</ele>
        <time>2026-08-27T10:47:03.277Z</time>
      </trkpt>
      <trkpt lat="47.83823" lon="6.99089">
        <ele>982.9</ele>
        <time>2026-08-27T10:47:04.285Z</time>
      </trkpt>
      <trkpt lat="47.83823" lon="6.99089">
        <ele>982.9</ele>
        <time>2026-08-27T10:47:05.293Z</time>
      </trkpt>
      <trkpt lat="47.83822" lon="6.99089">
        <ele>982.9</ele>
        <time>2026-08-27T10:47:06.301Z</time>
      </trkpt>
      <trkpt lat="47.83822" lon="6.99089">
        <ele>982.9</ele>
        <time>2026-08-27T10:47:07.309Z</time>
      </trkpt>
      <trkpt lat="47.83822" lon="6.99089">
        <ele>982.8</ele>
        <time>2026-08-27T10:47:08.317Z</time>
      </trkpt>
      <trkpt lat="47.83822" lon="6.99089">
        <ele>983</ele>
        <time>2026-08-27T10:47:10.232Z</time>
      </trkpt>
      <trkpt lat="47.83822" lon="6.99089">
        <ele>983</ele>
        <time>2026-08-27T10:47:11.241Z</time>
      </trkpt>
      <trkpt lat="47.83822" lon="6.99089">
        <ele>983</ele>
        <time>2026-08-27T10:47:12.250Z</time>
      </trkpt>
      <trkpt lat="47.83822" lon="6.99089">
        <ele>983</ele>
        <time>2026-08-27T10:47:13.258Z</time>
      </trkpt>
      <trkpt lat="47.83822" lon="6.99089">
        <ele>982.9</ele>
        <time>2026-08-27T10:47:14.266Z</time>
      </trkpt>
      <trkpt lat="47.83822" lon="6.9909">
        <ele>982.9</ele>
        <time>2026-08-27T10:47:15.274Z</time>
      </trkpt>
      <trkpt lat="47.83822" lon="6.9909">
        <ele>982.9</ele>
        <time>2026-08-27T10:47:16.282Z</time>
      </trkpt>
      <trkpt lat="47.83822" lon="6.9909">
        <ele>982.9</ele>
        <time>2026-08-27T10:47:17.289Z</time>
      </trkpt>
      <trkpt lat="47.83822" lon="6.9909">
        <ele>982.9</ele>
        <time>2026-08-27T10:47:18.297Z</time>
      </trkpt>
      <trkpt lat="47.83822" lon="6.9909">
        <ele>982.9</ele>
        <time>2026-08-27T10:47:19.306Z</time>
      </trkpt>
      <trkpt lat="47.83822" lon="6.9909">
        <ele>982.8</ele>
        <time>2026-08-27T10:47:20.314Z</time>
      </trkpt>
      <trkpt lat="47.83822" lon="6.9909">
        <ele>982.9</ele>
        <time>2026-08-27T10:47:21.322Z</time>
      </trkpt>
      <trkpt lat="47.83822" lon="6.9909">
        <ele>983</ele>
        <time>2026-08-27T10:47:23.237Z</time>
      </trkpt>
      <trkpt lat="47.83822" lon="6.9909">
        <ele>983</ele>
        <time>2026-08-27T10:47:24.246Z</time>
      </trkpt>
      <trkpt lat="47.83822" lon="6.9909">
        <ele>982.9</ele>
        <time>2026-08-27T10:47:25.253Z</time>
      </trkpt>
      <trkpt lat="47.83822" lon="6.9909">
        <ele>982.9</ele>
        <time>2026-08-27T10:47:26.261Z</time>
      </trkpt>
      <trkpt lat="47.83822" lon="6.9909">
        <ele>982.9</ele>
        <time>2026-08-27T10:47:27.271Z</time>
      </trkpt>
      <trkpt lat="47.83822" lon="6.99089">
        <ele>982.9</ele>
        <time>2026-08-27T10:47:28.279Z</time>
      </trkpt>
      <trkpt lat="47.83822" lon="6.99089">
        <ele>983</ele>
        <time>2026-08-27T10:47:29.286Z</time>
      </trkpt>
      <trkpt lat="47.83822" lon="6.99089">
        <ele>983</ele>
        <time>2026-08-27T10:47:30.294Z</time>
      </trkpt>
      <trkpt lat="47.83822" lon="6.99089">
        <ele>983</ele>
        <time>2026-08-27T10:47:31.303Z</time>
      </trkpt>
      <trkpt lat="47.83822" lon="6.99089">
        <ele>983</ele>
        <time>2026-08-27T10:47:32.311Z</time>
      </trkpt>
      <trkpt lat="47.83822" lon="6.99089">
        <ele>983</ele>
        <time>2026-08-27T10:47:33.319Z</time>
      </trkpt>
      <trkpt lat="47.83822" lon="6.99089">
        <ele>983.1</ele>
        <time>2026-08-27T10:47:34.327Z</time>
      </trkpt>
      <trkpt lat="47.83822" lon="6.99089">
        <ele>983</ele>
        <time>2026-08-27T10:47:36.242Z</time>
      </trkpt>
      <trkpt lat="47.83822" lon="6.99089">
        <ele>983</ele>
        <time>2026-08-27T10:47:37.250Z</time>
      </trkpt>
      <trkpt lat="47.83822" lon="6.99089">
        <ele>983</ele>
        <time>2026-08-27T10:47:38.259Z</time>
      </trkpt>
      <trkpt lat="47.83822" lon="6.99089">
        <ele>983</ele>
        <time>2026-08-27T10:47:39.266Z</time>
      </trkpt>
      <trkpt lat="47.83822" lon="6.99089">
        <ele>983</ele>
        <time>2026-08-27T10:47:40.274Z</time>
      </trkpt>
      <trkpt lat="47.83822" lon="6.99089">
        <ele>983</ele>
        <time>2026-08-27T10:47:41.282Z</time>
      </trkpt>
      <trkpt lat="47.83822" lon="6.99089">
        <ele>983.1</ele>
        <time>2026-08-27T10:47:42.291Z</time>
      </trkpt>
      <trkpt lat="47.83822" lon="6.99089">
        <ele>983.1</ele>
        <time>2026-08-27T10:47:43.300Z</time>
      </trkpt>
      <trkpt lat="47.83822" lon="6.99089">
        <ele>983.1</ele>
        <time>2026-08-27T10:47:44.307Z</time>
      </trkpt>
      <trkpt lat="47.83822" lon="6.99088">
        <ele>983.1</ele>
        <time>2026-08-27T10:47:45.315Z</time>
      </trkpt>
      <trkpt lat="47.83822" lon="6.99088">
        <ele>983</ele>
        <time>2026-08-27T10:47:46.323Z</time>
      </trkpt>
      <trkpt lat="47.83822" lon="6.99088">
        <ele>983</ele>
        <time>2026-08-27T10:47:47.332Z</time>
      </trkpt>
      <trkpt lat="47.83822" lon="6.99088">
        <ele>983</ele>
        <time>2026-08-27T10:47:49.247Z</time>
      </trkpt>
      <trkpt lat="47.83822" lon="6.99088">
        <ele>982.9</ele>
        <time>2026-08-27T10:47:50.256Z</time>
      </trkpt>
      <trkpt lat="47.83822" lon="6.99088">
        <ele>982.9</ele>
        <time>2026-08-27T10:47:51.263Z</time>
      </trkpt>
      <trkpt lat="47.83822" lon="6.99088">
        <ele>982.9</ele>
        <time>2026-08-27T10:47:52.271Z</time>
      </trkpt>
      <trkpt lat="47.83822" lon="6.99088">
        <ele>982.8</ele>
        <time>2026-08-27T10:47:53.279Z</time>
      </trkpt>
      <trkpt lat="47.83822" lon="6.99088">
        <ele>982.9</ele>
        <time>2026-08-27T10:47:54.287Z</time>
      </trkpt>
      <trkpt lat="47.83822" lon="6.99088">
        <ele>982.8</ele>
        <time>2026-08-27T10:47:55.296Z</time>
      </trkpt>
      <trkpt lat="47.83822" lon="6.99088">
        <ele>982.8</ele>
        <time>2026-08-27T10:47:56.304Z</time>
      </trkpt>
      <trkpt lat="47.83823" lon="6.99088">
        <ele>982.8</ele>
        <time>2026-08-27T10:47:58.321Z</time>
      </trkpt>
      <trkpt lat="47.83823" lon="6.99088">
        <ele>982.9</ele>
        <time>2026-08-27T10:47:59.328Z</time>
      </trkpt>
      <trkpt lat="47.83823" lon="6.99088">
        <ele>982.9</ele>
        <time>2026-08-27T10:48:01.243Z</time>
      </trkpt>
      <trkpt lat="47.83823" lon="6.99088">
        <ele>983.1</ele>
        <time>2026-08-27T10:48:02.251Z</time>
      </trkpt>
      <trkpt lat="47.83823" lon="6.99088">
        <ele>983</ele>
        <time>2026-08-27T10:48:03.259Z</time>
      </trkpt>
      <trkpt lat="47.83823" lon="6.99088">
        <ele>983</ele>
        <time>2026-08-27T10:48:04.268Z</time>
      </trkpt>
      <trkpt lat="47.83823" lon="6.99088">
        <ele>983.1</ele>
        <time>2026-08-27T10:48:05.277Z</time>
      </trkpt>
      <trkpt lat="47.83823" lon="6.99088">
        <ele>983</ele>
        <time>2026-08-27T10:48:06.285Z</time>
      </trkpt>
      <trkpt lat="47.83823" lon="6.99088">
        <ele>983</ele>
        <time>2026-08-27T10:48:07.293Z</time>
      </trkpt>
      <trkpt lat="47.83823" lon="6.99088">
        <ele>983</ele>
        <time>2026-08-27T10:48:08.301Z</time>
      </trkpt>
      <trkpt lat="47.83823" lon="6.99088">
        <ele>983</ele>
        <time>2026-08-27T10:48:09.309Z</time>
      </trkpt>
      <trkpt lat="47.83823" lon="6.99088">
        <ele>983</ele>
        <time>2026-08-27T10:48:10.316Z</time>
      </trkpt>
      <trkpt lat="47.83823" lon="6.99088">
        <ele>983</ele>
        <time>2026-08-27T10:48:11.324Z</time>
      </trkpt>
      <trkpt lat="47.83823" lon="6.99088">
        <ele>983.1</ele>
        <time>2026-08-27T10:48:13.241Z</time>
      </trkpt>
      <trkpt lat="47.83823" lon="6.99088">
        <ele>983</ele>
        <time>2026-08-27T10:48:14.248Z</time>
      </trkpt>
      <trkpt lat="47.83823" lon="6.99088">
        <ele>982.9</ele>
        <time>2026-08-27T10:48:15.256Z</time>
      </trkpt>
      <trkpt lat="47.83823" lon="6.99088">
        <ele>983.1</ele>
        <time>2026-08-27T10:48:16.264Z</time>
      </trkpt>
      <trkpt lat="47.83823" lon="6.99088">
        <ele>983.1</ele>
        <time>2026-08-27T10:48:17.272Z</time>
      </trkpt>
      <trkpt lat="47.83823" lon="6.99088">
        <ele>983.2</ele>
        <time>2026-08-27T10:48:18.280Z</time>
      </trkpt>
      <trkpt lat="47.83823" lon="6.99088">
        <ele>983.2</ele>
        <time>2026-08-27T10:48:19.288Z</time>
      </trkpt>
      <trkpt lat="47.83823" lon="6.99088">
        <ele>983.2</ele>
        <time>2026-08-27T10:48:20.298Z</time>
      </trkpt>
      <trkpt lat="47.83823" lon="6.99088">
        <ele>983.2</ele>
        <time>2026-08-27T10:48:21.305Z</time>
      </trkpt>
      <trkpt lat="47.83823" lon="6.99088">
        <ele>983.2</ele>
        <time>2026-08-27T10:48:22.313Z</time>
      </trkpt>
      <trkpt lat="47.83823" lon="6.99088">
        <ele>983.2</ele>
        <time>2026-08-27T10:48:24.329Z</time>
      </trkpt>
      <trkpt lat="47.83823" lon="6.99088">
        <ele>983.1</ele>
        <time>2026-08-27T10:48:26.244Z</time>
      </trkpt>
      <trkpt lat="47.83823" lon="6.99088">
        <ele>983.1</ele>
        <time>2026-08-27T10:48:27.254Z</time>
      </trkpt>
      <trkpt lat="47.83823" lon="6.99088">
        <ele>983</ele>
        <time>2026-08-27T10:48:28.261Z</time>
      </trkpt>
      <trkpt lat="47.83823" lon="6.99088">
        <ele>983</ele>
        <time>2026-08-27T10:48:29.269Z</time>
      </trkpt>
      <trkpt lat="47.83824" lon="6.99088">
        <ele>983.1</ele>
        <time>2026-08-27T10:48:30.277Z</time>
      </trkpt>
      <trkpt lat="47.83824" lon="6.99088">
        <ele>983.1</ele>
        <time>2026-08-27T10:48:31.286Z</time>
      </trkpt>
      <trkpt lat="47.83824" lon="6.99088">
        <ele>983.1</ele>
        <time>2026-08-27T10:48:32.293Z</time>
      </trkpt>
      <trkpt lat="47.83824" lon="6.99088">
        <ele>983.1</ele>
        <time>2026-08-27T10:48:33.301Z</time>
      </trkpt>
      <trkpt lat="47.83824" lon="6.99088">
        <ele>983.1</ele>
        <time>2026-08-27T10:48:34.310Z</time>
      </trkpt>
      <trkpt lat="47.83824" lon="6.99088">
        <ele>983.1</ele>
        <time>2026-08-27T10:48:35.317Z</time>
      </trkpt>
      <trkpt lat="47.83824" lon="6.99088">
        <ele>983.1</ele>
        <time>2026-08-27T10:48:36.326Z</time>
      </trkpt>
      <trkpt lat="47.83824" lon="6.99088">
        <ele>983.1</ele>
        <time>2026-08-27T10:48:37.335Z</time>
      </trkpt>
      <trkpt lat="47.83824" lon="6.99088">
        <ele>983.2</ele>
        <time>2026-08-27T10:48:39.250Z</time>
      </trkpt>
      <trkpt lat="47.83824" lon="6.99088">
        <ele>983.3</ele>
        <time>2026-08-27T10:48:40.257Z</time>
      </trkpt>
      <trkpt lat="47.83824" lon="6.99088">
        <ele>983.2</ele>
        <time>2026-08-27T10:48:41.266Z</time>
      </trkpt>
      <trkpt lat="47.83824" lon="6.99088">
        <ele>983.2</ele>
        <time>2026-08-27T10:48:42.273Z</time>
      </trkpt>
      <trkpt lat="47.83824" lon="6.99088">
        <ele>983.2</ele>
        <time>2026-08-27T10:48:43.282Z</time>
      </trkpt>
      <trkpt lat="47.83824" lon="6.99088">
        <ele>983.2</ele>
        <time>2026-08-27T10:48:44.290Z</time>
      </trkpt>
      <trkpt lat="47.83824" lon="6.99088">
        <ele>983.2</ele>
        <time>2026-08-27T10:48:45.299Z</time>
      </trkpt>
      <trkpt lat="47.83824" lon="6.99088">
        <ele>983.2</ele>
        <time>2026-08-27T10:48:46.306Z</time>
      </trkpt>
      <trkpt lat="47.83824" lon="6.99088">
        <ele>983.2</ele>
        <time>2026-08-27T10:48:47.315Z</time>
      </trkpt>
      <trkpt lat="47.83824" lon="6.99088">
        <ele>983.2</ele>
        <time>2026-08-27T10:48:48.323Z</time>
      </trkpt>
      <trkpt lat="47.83824" lon="6.99088">
        <ele>983.2</ele>
        <time>2026-08-27T10:48:49.330Z</time>
      </trkpt>
      <trkpt lat="47.83824" lon="6.99088">
        <ele>983.3</ele>
        <time>2026-08-27T10:48:51.246Z</time>
      </trkpt>
      <trkpt lat="47.83824" lon="6.99088">
        <ele>983.3</ele>
        <time>2026-08-27T10:48:52.254Z</time>
      </trkpt>
      <trkpt lat="47.83824" lon="6.99088">
        <ele>983.4</ele>
        <time>2026-08-27T10:48:53.262Z</time>
      </trkpt>
      <trkpt lat="47.83824" lon="6.99088">
        <ele>983.4</ele>
        <time>2026-08-27T10:48:54.270Z</time>
      </trkpt>
      <trkpt lat="47.83824" lon="6.99088">
        <ele>983.5</ele>
        <time>2026-08-27T10:48:55.279Z</time>
      </trkpt>
      <trkpt lat="47.83824" lon="6.99088">
        <ele>983.5</ele>
        <time>2026-08-27T10:48:56.286Z</time>
      </trkpt>
      <trkpt lat="47.83824" lon="6.99088">
        <ele>983.3</ele>
        <time>2026-08-27T10:48:57.295Z</time>
      </trkpt>
      <trkpt lat="47.83824" lon="6.99088">
        <ele>983.3</ele>
        <time>2026-08-27T10:48:58.302Z</time>
      </trkpt>
      <trkpt lat="47.83824" lon="6.99088">
        <ele>983.3</ele>
        <time>2026-08-27T10:48:59.310Z</time>
      </trkpt>
      <trkpt lat="47.83824" lon="6.99088">
        <ele>983.3</ele>
        <time>2026-08-27T10:49:00.319Z</time>
      </trkpt>
      <trkpt lat="47.83824" lon="6.99088">
        <ele>983.2</ele>
        <time>2026-08-27T10:49:01.327Z</time>
      </trkpt>
      <trkpt lat="47.83824" lon="6.99088">
        <ele>983.2</ele>
        <time>2026-08-27T10:49:03.243Z</time>
      </trkpt>
      <trkpt lat="47.83824" lon="6.99088">
        <ele>983.1</ele>
        <time>2026-08-27T10:49:04.250Z</time>
      </trkpt>
      <trkpt lat="47.83824" lon="6.99088">
        <ele>983.2</ele>
        <time>2026-08-27T10:49:05.259Z</time>
      </trkpt>
      <trkpt lat="47.83824" lon="6.99088">
        <ele>983.1</ele>
        <time>2026-08-27T10:49:06.267Z</time>
      </trkpt>
      <trkpt lat="47.83824" lon="6.99088">
        <ele>982.8</ele>
        <time>2026-08-27T10:49:07.274Z</time>
      </trkpt>
      <trkpt lat="47.83824" lon="6.99088">
        <ele>982.8</ele>
        <time>2026-08-27T10:49:08.283Z</time>
      </trkpt>
      <trkpt lat="47.83824" lon="6.99088">
        <ele>983.1</ele>
        <time>2026-08-27T10:49:09.291Z</time>
      </trkpt>
      <trkpt lat="47.83824" lon="6.99088">
        <ele>983.1</ele>
        <time>2026-08-27T10:49:10.299Z</time>
      </trkpt>
      <trkpt lat="47.83824" lon="6.99088">
        <ele>983.2</ele>
        <time>2026-08-27T10:49:11.308Z</time>
      </trkpt>
      <trkpt lat="47.83824" lon="6.99088">
        <ele>983.1</ele>
        <time>2026-08-27T10:49:12.315Z</time>
      </trkpt>
      <trkpt lat="47.83824" lon="6.99088">
        <ele>983.1</ele>
        <time>2026-08-27T10:49:13.323Z</time>
      </trkpt>
      <trkpt lat="47.83824" lon="6.99088">
        <ele>983.2</ele>
        <time>2026-08-27T10:49:15.239Z</time>
      </trkpt>
      <trkpt lat="47.83824" lon="6.99088">
        <ele>983.2</ele>
        <time>2026-08-27T10:49:16.247Z</time>
      </trkpt>
      <trkpt lat="47.83824" lon="6.99088">
        <ele>983.2</ele>
        <time>2026-08-27T10:49:17.256Z</time>
      </trkpt>
      <trkpt lat="47.83824" lon="6.99088">
        <ele>983.3</ele>
        <time>2026-08-27T10:49:18.263Z</time>
      </trkpt>
      <trkpt lat="47.83823" lon="6.99088">
        <ele>983</ele>
        <time>2026-08-27T10:49:19.272Z</time>
      </trkpt>
      <trkpt lat="47.83823" lon="6.99088">
        <ele>983.1</ele>
        <time>2026-08-27T10:49:20.279Z</time>
      </trkpt>
      <trkpt lat="47.83824" lon="6.99088">
        <ele>983.1</ele>
        <time>2026-08-27T10:49:21.287Z</time>
      </trkpt>
      <trkpt lat="47.83824" lon="6.99088">
        <ele>983.1</ele>
        <time>2026-08-27T10:49:22.296Z</time>
      </trkpt>
      <trkpt lat="47.83824" lon="6.99088">
        <ele>982.9</ele>
        <time>2026-08-27T10:49:23.304Z</time>
      </trkpt>
      <trkpt lat="47.83824" lon="6.99088">
        <ele>982.9</ele>
        <time>2026-08-27T10:49:24.312Z</time>
      </trkpt>
      <trkpt lat="47.83824" lon="6.99088">
        <ele>982.9</ele>
        <time>2026-08-27T10:49:25.321Z</time>
      </trkpt>
      <trkpt lat="47.83823" lon="6.99088">
        <ele>982.8</ele>
        <time>2026-08-27T10:49:26.329Z</time>
      </trkpt>
      <trkpt lat="47.83823" lon="6.99088">
        <ele>982.9</ele>
        <time>2026-08-27T10:49:28.244Z</time>
      </trkpt>
      <trkpt lat="47.83823" lon="6.99088">
        <ele>982.8</ele>
        <time>2026-08-27T10:49:29.251Z</time>
      </trkpt>
      <trkpt lat="47.83823" lon="6.99088">
        <ele>982.9</ele>
        <time>2026-08-27T10:49:30.259Z</time>
      </trkpt>
      <trkpt lat="47.83823" lon="6.99088">
        <ele>982.9</ele>
        <time>2026-08-27T10:49:31.268Z</time>
      </trkpt>
      <trkpt lat="47.83823" lon="6.99088">
        <ele>982.9</ele>
        <time>2026-08-27T10:49:32.276Z</time>
      </trkpt>
      <trkpt lat="47.83823" lon="6.99088">
        <ele>982.8</ele>
        <time>2026-08-27T10:49:33.284Z</time>
      </trkpt>
      <trkpt lat="47.83823" lon="6.99088">
        <ele>982.9</ele>
        <time>2026-08-27T10:49:34.292Z</time>
      </trkpt>
      <trkpt lat="47.83823" lon="6.99088">
        <ele>982.8</ele>
        <time>2026-08-27T10:49:35.301Z</time>
      </trkpt>
      <trkpt lat="47.83823" lon="6.99088">
        <ele>982.7</ele>
        <time>2026-08-27T10:49:36.308Z</time>
      </trkpt>
      <trkpt lat="47.83823" lon="6.99088">
        <ele>982.7</ele>
        <time>2026-08-27T10:49:37.316Z</time>
      </trkpt>
      <trkpt lat="47.83823" lon="6.99088">
        <ele>982.6</ele>
        <time>2026-08-27T10:49:38.325Z</time>
      </trkpt>
      <trkpt lat="47.83823" lon="6.99088">
        <ele>982.6</ele>
        <time>2026-08-27T10:49:40.241Z</time>
      </trkpt>
      <trkpt lat="47.83823" lon="6.99088">
        <ele>982.6</ele>
        <time>2026-08-27T10:49:41.248Z</time>
      </trkpt>
      <trkpt lat="47.83823" lon="6.99088">
        <ele>982.7</ele>
        <time>2026-08-27T10:49:42.256Z</time>
      </trkpt>
      <trkpt lat="47.83823" lon="6.99088">
        <ele>982.7</ele>
        <time>2026-08-27T10:49:43.264Z</time>
      </trkpt>
      <trkpt lat="47.83823" lon="6.99088">
        <ele>982.8</ele>
        <time>2026-08-27T10:49:44.272Z</time>
      </trkpt>
      <trkpt lat="47.83823" lon="6.99088">
        <ele>982.8</ele>
        <time>2026-08-27T10:49:45.281Z</time>
      </trkpt>
      <trkpt lat="47.83823" lon="6.99088">
        <ele>982.9</ele>
        <time>2026-08-27T10:49:46.288Z</time>
      </trkpt>
      <trkpt lat="47.83823" lon="6.99088">
        <ele>982.9</ele>
        <time>2026-08-27T10:49:47.296Z</time>
      </trkpt>
      <trkpt lat="47.83823" lon="6.99088">
        <ele>982.8</ele>
        <time>2026-08-27T10:49:48.304Z</time>
      </trkpt>
      <trkpt lat="47.83823" lon="6.99088">
        <ele>983</ele>
        <time>2026-08-27T10:49:49.314Z</time>
      </trkpt>
      <trkpt lat="47.83823" lon="6.99088">
        <ele>983</ele>
        <time>2026-08-27T10:49:50.321Z</time>
      </trkpt>
      <trkpt lat="47.83823" lon="6.99088">
        <ele>983</ele>
        <time>2026-08-27T10:49:51.329Z</time>
      </trkpt>
      <trkpt lat="47.83823" lon="6.99088">
        <ele>983.1</ele>
        <time>2026-08-27T10:49:53.244Z</time>
      </trkpt>
      <trkpt lat="47.83823" lon="6.99088">
        <ele>983.1</ele>
        <time>2026-08-27T10:49:54.252Z</time>
      </trkpt>
      <trkpt lat="47.83823" lon="6.99088">
        <ele>983</ele>
        <time>2026-08-27T10:49:55.260Z</time>
      </trkpt>
      <trkpt lat="47.83823" lon="6.99088">
        <ele>983</ele>
        <time>2026-08-27T10:49:56.269Z</time>
      </trkpt>
      <trkpt lat="47.83823" lon="6.99088">
        <ele>982.9</ele>
        <time>2026-08-27T10:49:57.277Z</time>
      </trkpt>
      <trkpt lat="47.83823" lon="6.99088">
        <ele>982.9</ele>
        <time>2026-08-27T10:49:58.285Z</time>
      </trkpt>
      <trkpt lat="47.83824" lon="6.99088">
        <ele>983</ele>
        <time>2026-08-27T10:49:59.294Z</time>
      </trkpt>
      <trkpt lat="47.83824" lon="6.99088">
        <ele>982.9</ele>
        <time>2026-08-27T10:50:01.309Z</time>
      </trkpt>
      <trkpt lat="47.83824" lon="6.99088">
        <ele>983</ele>
        <time>2026-08-27T10:50:02.317Z</time>
      </trkpt>
      <trkpt lat="47.83824" lon="6.99088">
        <ele>983</ele>
        <time>2026-08-27T10:50:03.325Z</time>
      </trkpt>
      <trkpt lat="47.83824" lon="6.99088">
        <ele>982.9</ele>
        <time>2026-08-27T10:50:05.241Z</time>
      </trkpt>
      <trkpt lat="47.83824" lon="6.99088">
        <ele>983</ele>
        <time>2026-08-27T10:50:06.250Z</time>
      </trkpt>
      <trkpt lat="47.83824" lon="6.99088">
        <ele>983</ele>
        <time>2026-08-27T10:50:07.257Z</time>
      </trkpt>
      <trkpt lat="47.83824" lon="6.99088">
        <ele>982.9</ele>
        <time>2026-08-27T10:50:08.266Z</time>
      </trkpt>
      <trkpt lat="47.83824" lon="6.99088">
        <ele>982.9</ele>
        <time>2026-08-27T10:50:09.273Z</time>
      </trkpt>
      <trkpt lat="47.83824" lon="6.99088">
        <ele>982.9</ele>
        <time>2026-08-27T10:50:10.281Z</time>
      </trkpt>
      <trkpt lat="47.83824" lon="6.99088">
        <ele>983</ele>
        <time>2026-08-27T10:50:11.290Z</time>
      </trkpt>
      <trkpt lat="47.83824" lon="6.99088">
        <ele>982.9</ele>
        <time>2026-08-27T10:50:12.297Z</time>
      </trkpt>
      <trkpt lat="47.83824" lon="6.99088">
        <ele>982.9</ele>
        <time>2026-08-27T10:50:13.306Z</time>
      </trkpt>
      <trkpt lat="47.83824" lon="6.99088">
        <ele>982.9</ele>
        <time>2026-08-27T10:50:14.313Z</time>
      </trkpt>
      <trkpt lat="47.83824" lon="6.99088">
        <ele>983</ele>
        <time>2026-08-27T10:50:15.322Z</time>
      </trkpt>
      <trkpt lat="47.83824" lon="6.99088">
        <ele>983</ele>
        <time>2026-08-27T10:50:16.331Z</time>
      </trkpt>
      <trkpt lat="47.83824" lon="6.99088">
        <ele>982.9</ele>
        <time>2026-08-27T10:50:18.246Z</time>
      </trkpt>
      <trkpt lat="47.83824" lon="6.99088">
        <ele>983</ele>
        <time>2026-08-27T10:50:19.253Z</time>
      </trkpt>
      <trkpt lat="47.83824" lon="6.99088">
        <ele>983.1</ele>
        <time>2026-08-27T10:50:20.261Z</time>
      </trkpt>
      <trkpt lat="47.83824" lon="6.99088">
        <ele>983</ele>
        <time>2026-08-27T10:50:21.270Z</time>
      </trkpt>
      <trkpt lat="47.83824" lon="6.99088">
        <ele>983.1</ele>
        <time>2026-08-27T10:50:22.277Z</time>
      </trkpt>
      <trkpt lat="47.83824" lon="6.99088">
        <ele>983.1</ele>
        <time>2026-08-27T10:50:23.286Z</time>
      </trkpt>
      <trkpt lat="47.83824" lon="6.99088">
        <ele>983</ele>
        <time>2026-08-27T10:50:24.294Z</time>
      </trkpt>
      <trkpt lat="47.83824" lon="6.99088">
        <ele>982.8</ele>
        <time>2026-08-27T10:50:25.303Z</time>
      </trkpt>
      <trkpt lat="47.83824" lon="6.99088">
        <ele>982.9</ele>
        <time>2026-08-27T10:50:26.310Z</time>
      </trkpt>
      <trkpt lat="47.83824" lon="6.99088">
        <ele>982.9</ele>
        <time>2026-08-27T10:50:27.318Z</time>
      </trkpt>
      <trkpt lat="47.83824" lon="6.99088">
        <ele>982.9</ele>
        <time>2026-08-27T10:50:28.326Z</time>
      </trkpt>
      <trkpt lat="47.83824" lon="6.99088">
        <ele>982.9</ele>
        <time>2026-08-27T10:50:30.242Z</time>
      </trkpt>
      <trkpt lat="47.83824" lon="6.99088">
        <ele>982.8</ele>
        <time>2026-08-27T10:50:31.250Z</time>
      </trkpt>
      <trkpt lat="47.83824" lon="6.99087">
        <ele>982.8</ele>
        <time>2026-08-27T10:50:32.259Z</time>
      </trkpt>
      <trkpt lat="47.83824" lon="6.99087">
        <ele>982.9</ele>
        <time>2026-08-27T10:50:33.266Z</time>
      </trkpt>
      <trkpt lat="47.83824" lon="6.99087">
        <ele>982.8</ele>
        <time>2026-08-27T10:50:34.275Z</time>
      </trkpt>
      <trkpt lat="47.83824" lon="6.99087">
        <ele>982.9</ele>
        <time>2026-08-27T10:50:35.283Z</time>
      </trkpt>
      <trkpt lat="47.83824" lon="6.99087">
        <ele>982.8</ele>
        <time>2026-08-27T10:50:36.290Z</time>
      </trkpt>
      <trkpt lat="47.83824" lon="6.99087">
        <ele>982.8</ele>
        <time>2026-08-27T10:50:37.299Z</time>
      </trkpt>
      <trkpt lat="47.83824" lon="6.99087">
        <ele>982.8</ele>
        <time>2026-08-27T10:50:38.306Z</time>
      </trkpt>
      <trkpt lat="47.83824" lon="6.99087">
        <ele>982.8</ele>
        <time>2026-08-27T10:50:39.314Z</time>
      </trkpt>
      <trkpt lat="47.83824" lon="6.99087">
        <ele>982.8</ele>
        <time>2026-08-27T10:50:40.324Z</time>
      </trkpt>
      <trkpt lat="47.83824" lon="6.99087">
        <ele>982.6</ele>
        <time>2026-08-27T10:50:42.239Z</time>
      </trkpt>
      <trkpt lat="47.83824" lon="6.99087">
        <ele>982.7</ele>
        <time>2026-08-27T10:50:43.246Z</time>
      </trkpt>
      <trkpt lat="47.83824" lon="6.99087">
        <ele>982.8</ele>
        <time>2026-08-27T10:50:44.255Z</time>
      </trkpt>
      <trkpt lat="47.83824" lon="6.99087">
        <ele>983</ele>
        <time>2026-08-27T10:50:45.262Z</time>
      </trkpt>
      <trkpt lat="47.83824" lon="6.99087">
        <ele>982.9</ele>
        <time>2026-08-27T10:50:46.270Z</time>
      </trkpt>
      <trkpt lat="47.83824" lon="6.99087">
        <ele>982.9</ele>
        <time>2026-08-27T10:50:47.278Z</time>
      </trkpt>
      <trkpt lat="47.83824" lon="6.99087">
        <ele>982.9</ele>
        <time>2026-08-27T10:50:48.287Z</time>
      </trkpt>
      <trkpt lat="47.83824" lon="6.99087">
        <ele>983.1</ele>
        <time>2026-08-27T10:50:49.296Z</time>
      </trkpt>
      <trkpt lat="47.83824" lon="6.99087">
        <ele>983.1</ele>
        <time>2026-08-27T10:50:50.303Z</time>
      </trkpt>
      <trkpt lat="47.83824" lon="6.99087">
        <ele>983.2</ele>
        <time>2026-08-27T10:50:51.311Z</time>
      </trkpt>
      <trkpt lat="47.83824" lon="6.99087">
        <ele>983.2</ele>
        <time>2026-08-27T10:50:52.319Z</time>
      </trkpt>
      <trkpt lat="47.83824" lon="6.99087">
        <ele>983.2</ele>
        <time>2026-08-27T10:50:53.327Z</time>
      </trkpt>
      <trkpt lat="47.83824" lon="6.99087">
        <ele>983</ele>
        <time>2026-08-27T10:50:55.242Z</time>
      </trkpt>
      <trkpt lat="47.83824" lon="6.99087">
        <ele>983</ele>
        <time>2026-08-27T10:50:56.251Z</time>
      </trkpt>
      <trkpt lat="47.83824" lon="6.99087">
        <ele>983</ele>
        <time>2026-08-27T10:50:57.259Z</time>
      </trkpt>
      <trkpt lat="47.83824" lon="6.99087">
        <ele>982.8</ele>
        <time>2026-08-27T10:50:58.268Z</time>
      </trkpt>
      <trkpt lat="47.83824" lon="6.99087">
        <ele>982.8</ele>
        <time>2026-08-27T10:50:59.276Z</time>
      </trkpt>
      <trkpt lat="47.83824" lon="6.99087">
        <ele>982.9</ele>
        <time>2026-08-27T10:51:00.284Z</time>
      </trkpt>
      <trkpt lat="47.83824" lon="6.99087">
        <ele>983.1</ele>
        <time>2026-08-27T10:51:01.292Z</time>
      </trkpt>
      <trkpt lat="47.83824" lon="6.99087">
        <ele>983</ele>
        <time>2026-08-27T10:51:02.299Z</time>
      </trkpt>
      <trkpt lat="47.83824" lon="6.99087">
        <ele>983.1</ele>
        <time>2026-08-27T10:51:03.308Z</time>
      </trkpt>
      <trkpt lat="47.83824" lon="6.99087">
        <ele>983</ele>
        <time>2026-08-27T10:51:04.315Z</time>
      </trkpt>
      <trkpt lat="47.83824" lon="6.99087">
        <ele>983</ele>
        <time>2026-08-27T10:51:05.323Z</time>
      </trkpt>
      <trkpt lat="47.83824" lon="6.99087">
        <ele>983</ele>
        <time>2026-08-27T10:51:06.333Z</time>
      </trkpt>
      <trkpt lat="47.83824" lon="6.99087">
        <ele>982.8</ele>
        <time>2026-08-27T10:51:08.247Z</time>
      </trkpt>
      <trkpt lat="47.83824" lon="6.99087">
        <ele>982.8</ele>
        <time>2026-08-27T10:51:09.255Z</time>
      </trkpt>
      <trkpt lat="47.83824" lon="6.99087">
        <ele>982.7</ele>
        <time>2026-08-27T10:51:10.264Z</time>
      </trkpt>
      <trkpt lat="47.83824" lon="6.99087">
        <ele>982.6</ele>
        <time>2026-08-27T10:51:11.271Z</time>
      </trkpt>
      <trkpt lat="47.83824" lon="6.99087">
        <ele>982.6</ele>
        <time>2026-08-27T10:51:12.280Z</time>
      </trkpt>
      <trkpt lat="47.83824" lon="6.99087">
        <ele>982.9</ele>
        <time>2026-08-27T10:51:13.287Z</time>
      </trkpt>
      <trkpt lat="47.83824" lon="6.99087">
        <ele>983.1</ele>
        <time>2026-08-27T10:51:14.296Z</time>
      </trkpt>
      <trkpt lat="47.83824" lon="6.99087">
        <ele>983</ele>
        <time>2026-08-27T10:51:15.304Z</time>
      </trkpt>
      <trkpt lat="47.83824" lon="6.99087">
        <ele>982.9</ele>
        <time>2026-08-27T10:51:16.313Z</time>
      </trkpt>
      <trkpt lat="47.83824" lon="6.99087">
        <ele>982.9</ele>
        <time>2026-08-27T10:51:17.320Z</time>
      </trkpt>
      <trkpt lat="47.83824" lon="6.99087">
        <ele>983.1</ele>
        <time>2026-08-27T10:51:19.336Z</time>
      </trkpt>
      <trkpt lat="47.83824" lon="6.99087">
        <ele>983.1</ele>
        <time>2026-08-27T10:51:21.252Z</time>
      </trkpt>
      <trkpt lat="47.83824" lon="6.99087">
        <ele>983</ele>
        <time>2026-08-27T10:51:22.260Z</time>
      </trkpt>
      <trkpt lat="47.83824" lon="6.99087">
        <ele>983.1</ele>
        <time>2026-08-27T10:51:23.268Z</time>
      </trkpt>
      <trkpt lat="47.83824" lon="6.99087">
        <ele>983</ele>
        <time>2026-08-27T10:51:24.277Z</time>
      </trkpt>
      <trkpt lat="47.83824" lon="6.99087">
        <ele>982.9</ele>
        <time>2026-08-27T10:51:25.285Z</time>
      </trkpt>
      <trkpt lat="47.83824" lon="6.99087">
        <ele>982.8</ele>
        <time>2026-08-27T10:51:26.293Z</time>
      </trkpt>
      <trkpt lat="47.83823" lon="6.99087">
        <ele>982.7</ele>
        <time>2026-08-27T10:51:27.300Z</time>
      </trkpt>
      <trkpt lat="47.83823" lon="6.99087">
        <ele>982.7</ele>
        <time>2026-08-27T10:51:28.308Z</time>
      </trkpt>
      <trkpt lat="47.83823" lon="6.99087">
        <ele>982.9</ele>
        <time>2026-08-27T10:51:29.316Z</time>
      </trkpt>
      <trkpt lat="47.83823" lon="6.99087">
        <ele>983.1</ele>
        <time>2026-08-27T10:51:30.324Z</time>
      </trkpt>
      <trkpt lat="47.83823" lon="6.99087">
        <ele>983</ele>
        <time>2026-08-27T10:51:31.332Z</time>
      </trkpt>
      <trkpt lat="47.83823" lon="6.99087">
        <ele>983.2</ele>
        <time>2026-08-27T10:51:33.248Z</time>
      </trkpt>
      <trkpt lat="47.83823" lon="6.99087">
        <ele>983.1</ele>
        <time>2026-08-27T10:51:34.256Z</time>
      </trkpt>
      <trkpt lat="47.83823" lon="6.99087">
        <ele>983.1</ele>
        <time>2026-08-27T10:51:35.265Z</time>
      </trkpt>
      <trkpt lat="47.83823" lon="6.99087">
        <ele>983.1</ele>
        <time>2026-08-27T10:51:36.272Z</time>
      </trkpt>
      <trkpt lat="47.83823" lon="6.99087">
        <ele>983.1</ele>
        <time>2026-08-27T10:51:37.280Z</time>
      </trkpt>
      <trkpt lat="47.83823" lon="6.99087">
        <ele>983</ele>
        <time>2026-08-27T10:51:38.288Z</time>
      </trkpt>
      <trkpt lat="47.83823" lon="6.99088">
        <ele>983</ele>
        <time>2026-08-27T10:51:39.296Z</time>
      </trkpt>
      <trkpt lat="47.83823" lon="6.99088">
        <ele>983</ele>
        <time>2026-08-27T10:51:40.305Z</time>
      </trkpt>
      <trkpt lat="47.83823" lon="6.99088">
        <ele>982.8</ele>
        <time>2026-08-27T10:51:41.313Z</time>
      </trkpt>
      <trkpt lat="47.83823" lon="6.99088">
        <ele>983</ele>
        <time>2026-08-27T10:51:42.322Z</time>
      </trkpt>
      <trkpt lat="47.83823" lon="6.99088">
        <ele>983.2</ele>
        <time>2026-08-27T10:51:43.330Z</time>
      </trkpt>
      <trkpt lat="47.83823" lon="6.99088">
        <ele>982.9</ele>
        <time>2026-08-27T10:51:45.244Z</time>
      </trkpt>
      <trkpt lat="47.83823" lon="6.99088">
        <ele>983</ele>
        <time>2026-08-27T10:51:46.252Z</time>
      </trkpt>
      <trkpt lat="47.83823" lon="6.99088">
        <ele>983</ele>
        <time>2026-08-27T10:51:47.261Z</time>
      </trkpt>
      <trkpt lat="47.83823" lon="6.99088">
        <ele>983.2</ele>
        <time>2026-08-27T10:51:48.268Z</time>
      </trkpt>
      <trkpt lat="47.83823" lon="6.99088">
        <ele>983.1</ele>
        <time>2026-08-27T10:51:49.277Z</time>
      </trkpt>
      <trkpt lat="47.83823" lon="6.99088">
        <ele>983.2</ele>
        <time>2026-08-27T10:51:50.285Z</time>
      </trkpt>
      <trkpt lat="47.83823" lon="6.99088">
        <ele>983.2</ele>
        <time>2026-08-27T10:51:51.293Z</time>
      </trkpt>
      <trkpt lat="47.83823" lon="6.99088">
        <ele>983.1</ele>
        <time>2026-08-27T10:51:52.301Z</time>
      </trkpt>
      <trkpt lat="47.83823" lon="6.99088">
        <ele>983.1</ele>
        <time>2026-08-27T10:51:53.310Z</time>
      </trkpt>
      <trkpt lat="47.83822" lon="6.99088">
        <ele>983.1</ele>
        <time>2026-08-27T10:51:54.318Z</time>
      </trkpt>
      <trkpt lat="47.83822" lon="6.99088">
        <ele>982.9</ele>
        <time>2026-08-27T10:51:55.325Z</time>
      </trkpt>
      <trkpt lat="47.83822" lon="6.99088">
        <ele>982.8</ele>
        <time>2026-08-27T10:51:56.333Z</time>
      </trkpt>
      <trkpt lat="47.83822" lon="6.99088">
        <ele>982.6</ele>
        <time>2026-08-27T10:51:58.250Z</time>
      </trkpt>
      <trkpt lat="47.83822" lon="6.99088">
        <ele>982.8</ele>
        <time>2026-08-27T10:51:59.257Z</time>
      </trkpt>
      <trkpt lat="47.83822" lon="6.99087">
        <ele>982.9</ele>
        <time>2026-08-27T10:52:00.265Z</time>
      </trkpt>
      <trkpt lat="47.83822" lon="6.99087">
        <ele>983</ele>
        <time>2026-08-27T10:52:01.273Z</time>
      </trkpt>
      <trkpt lat="47.83822" lon="6.99087">
        <ele>983</ele>
        <time>2026-08-27T10:52:02.281Z</time>
      </trkpt>
      <trkpt lat="47.83822" lon="6.99087">
        <ele>982.9</ele>
        <time>2026-08-27T10:52:03.289Z</time>
      </trkpt>
      <trkpt lat="47.83822" lon="6.99087">
        <ele>982.9</ele>
        <time>2026-08-27T10:52:04.297Z</time>
      </trkpt>
      <trkpt lat="47.83822" lon="6.99087">
        <ele>982.8</ele>
        <time>2026-08-27T10:52:05.305Z</time>
      </trkpt>
      <trkpt lat="47.83822" lon="6.99087">
        <ele>982.8</ele>
        <time>2026-08-27T10:52:06.314Z</time>
      </trkpt>
      <trkpt lat="47.83822" lon="6.99087">
        <ele>982.7</ele>
        <time>2026-08-27T10:52:07.322Z</time>
      </trkpt>
      <trkpt lat="47.83822" lon="6.99088">
        <ele>982.5</ele>
        <time>2026-08-27T10:52:09.137Z</time>
      </trkpt>
      <trkpt lat="47.83822" lon="6.99088">
        <ele>982.8</ele>
        <time>2026-08-27T10:52:10.245Z</time>
      </trkpt>
      <trkpt lat="47.83822" lon="6.99088">
        <ele>982.7</ele>
        <time>2026-08-27T10:52:11.254Z</time>
      </trkpt>
      <trkpt lat="47.83822" lon="6.99088">
        <ele>982.7</ele>
        <time>2026-08-27T10:52:12.262Z</time>
      </trkpt>
      <trkpt lat="47.83822" lon="6.99088">
        <ele>982.8</ele>
        <time>2026-08-27T10:52:13.269Z</time>
      </trkpt>
      <trkpt lat="47.83822" lon="6.99088">
        <ele>982.6</ele>
        <time>2026-08-27T10:52:14.277Z</time>
      </trkpt>
      <trkpt lat="47.83822" lon="6.99088">
        <ele>982.7</ele>
        <time>2026-08-27T10:52:15.287Z</time>
      </trkpt>
      <trkpt lat="47.83822" lon="6.99088">
        <ele>982.7</ele>
        <time>2026-08-27T10:52:16.295Z</time>
      </trkpt>
      <trkpt lat="47.83822" lon="6.99088">
        <ele>982.9</ele>
        <time>2026-08-27T10:52:17.302Z</time>
      </trkpt>
      <trkpt lat="47.83822" lon="6.99088">
        <ele>982.9</ele>
        <time>2026-08-27T10:52:18.311Z</time>
      </trkpt>
      <trkpt lat="47.83822" lon="6.99088">
        <ele>983</ele>
        <time>2026-08-27T10:52:19.319Z</time>
      </trkpt>
      <trkpt lat="47.83822" lon="6.99088">
        <ele>982.9</ele>
        <time>2026-08-27T10:52:20.327Z</time>
      </trkpt>
      <trkpt lat="47.83822" lon="6.99088">
        <ele>982.9</ele>
        <time>2026-08-27T10:52:22.241Z</time>
      </trkpt>
      <trkpt lat="47.83822" lon="6.99088">
        <ele>982.9</ele>
        <time>2026-08-27T10:52:23.251Z</time>
      </trkpt>
      <trkpt lat="47.83822" lon="6.99088">
        <ele>982.8</ele>
        <time>2026-08-27T10:52:24.259Z</time>
      </trkpt>
      <trkpt lat="47.83822" lon="6.99088">
        <ele>982.7</ele>
        <time>2026-08-27T10:52:25.267Z</time>
      </trkpt>
      <trkpt lat="47.83822" lon="6.99088">
        <ele>982.5</ele>
        <time>2026-08-27T10:52:26.275Z</time>
      </trkpt>
      <trkpt lat="47.83822" lon="6.99088">
        <ele>982.5</ele>
        <time>2026-08-27T10:52:27.282Z</time>
      </trkpt>
      <trkpt lat="47.83822" lon="6.99088">
        <ele>982.5</ele>
        <time>2026-08-27T10:52:28.291Z</time>
      </trkpt>
      <trkpt lat="47.83823" lon="6.99088">
        <ele>982.7</ele>
        <time>2026-08-27T10:52:29.298Z</time>
      </trkpt>
      <trkpt lat="47.83823" lon="6.99088">
        <ele>983</ele>
        <time>2026-08-27T10:52:30.306Z</time>
      </trkpt>
      <trkpt lat="47.83823" lon="6.99088">
        <ele>983</ele>
        <time>2026-08-27T10:52:31.314Z</time>
      </trkpt>
      <trkpt lat="47.83823" lon="6.99088">
        <ele>982.9</ele>
        <time>2026-08-27T10:52:32.322Z</time>
      </trkpt>
      <trkpt lat="47.83823" lon="6.99088">
        <ele>982.8</ele>
        <time>2026-08-27T10:52:33.332Z</time>
      </trkpt>
      <trkpt lat="47.83823" lon="6.99088">
        <ele>982.9</ele>
        <time>2026-08-27T10:52:35.246Z</time>
      </trkpt>
      <trkpt lat="47.83823" lon="6.99088">
        <ele>982.7</ele>
        <time>2026-08-27T10:52:36.254Z</time>
      </trkpt>
      <trkpt lat="47.83823" lon="6.99088">
        <ele>982.7</ele>
        <time>2026-08-27T10:52:37.263Z</time>
      </trkpt>
      <trkpt lat="47.83823" lon="6.99088">
        <ele>982.5</ele>
        <time>2026-08-27T10:52:38.271Z</time>
      </trkpt>
      <trkpt lat="47.83823" lon="6.99088">
        <ele>982.7</ele>
        <time>2026-08-27T10:52:39.278Z</time>
      </trkpt>
      <trkpt lat="47.83823" lon="6.99088">
        <ele>982.9</ele>
        <time>2026-08-27T10:52:40.287Z</time>
      </trkpt>
      <trkpt lat="47.83823" lon="6.99088">
        <ele>982.9</ele>
        <time>2026-08-27T10:52:41.295Z</time>
      </trkpt>
      <trkpt lat="47.83823" lon="6.99088">
        <ele>983</ele>
        <time>2026-08-27T10:52:42.303Z</time>
      </trkpt>
      <trkpt lat="47.83823" lon="6.99088">
        <ele>982.9</ele>
        <time>2026-08-27T10:52:43.311Z</time>
      </trkpt>
      <trkpt lat="47.83823" lon="6.99088">
        <ele>982.9</ele>
        <time>2026-08-27T10:52:44.320Z</time>
      </trkpt>
      <trkpt lat="47.83823" lon="6.99088">
        <ele>983.1</ele>
        <time>2026-08-27T10:52:45.328Z</time>
      </trkpt>
      <trkpt lat="47.83823" lon="6.99088">
        <ele>983.3</ele>
        <time>2026-08-27T10:52:47.242Z</time>
      </trkpt>
      <trkpt lat="47.83823" lon="6.99088">
        <ele>983.3</ele>
        <time>2026-08-27T10:52:48.250Z</time>
      </trkpt>
      <trkpt lat="47.83823" lon="6.99088">
        <ele>983.3</ele>
        <time>2026-08-27T10:52:49.258Z</time>
      </trkpt>
      <trkpt lat="47.83823" lon="6.99088">
        <ele>983.3</ele>
        <time>2026-08-27T10:52:50.268Z</time>
      </trkpt>
      <trkpt lat="47.83823" lon="6.99088">
        <ele>983.4</ele>
        <time>2026-08-27T10:52:51.275Z</time>
      </trkpt>
      <trkpt lat="47.83823" lon="6.99088">
        <ele>983.3</ele>
        <time>2026-08-27T10:52:52.283Z</time>
      </trkpt>
      <trkpt lat="47.83823" lon="6.99088">
        <ele>983</ele>
        <time>2026-08-27T10:52:53.291Z</time>
      </trkpt>
      <trkpt lat="47.83823" lon="6.99088">
        <ele>983</ele>
        <time>2026-08-27T10:52:54.300Z</time>
      </trkpt>
      <trkpt lat="47.83823" lon="6.99088">
        <ele>982.8</ele>
        <time>2026-08-27T10:52:55.307Z</time>
      </trkpt>
      <trkpt lat="47.83823" lon="6.99088">
        <ele>983.1</ele>
        <time>2026-08-27T10:52:57.323Z</time>
      </trkpt>
      <trkpt lat="47.83823" lon="6.99088">
        <ele>983.2</ele>
        <time>2026-08-27T10:52:59.239Z</time>
      </trkpt>
      <trkpt lat="47.83823" lon="6.99088">
        <ele>983.3</ele>
        <time>2026-08-27T10:53:00.247Z</time>
      </trkpt>
      <trkpt lat="47.83823" lon="6.99088">
        <ele>983.2</ele>
        <time>2026-08-27T10:53:01.255Z</time>
      </trkpt>
      <trkpt lat="47.83823" lon="6.99088">
        <ele>983.1</ele>
        <time>2026-08-27T10:53:02.263Z</time>
      </trkpt>
      <trkpt lat="47.83823" lon="6.99088">
        <ele>983</ele>
        <time>2026-08-27T10:53:03.272Z</time>
      </trkpt>
      <trkpt lat="47.83823" lon="6.99088">
        <ele>983</ele>
        <time>2026-08-27T10:53:04.280Z</time>
      </trkpt>
      <trkpt lat="47.83823" lon="6.99088">
        <ele>982.9</ele>
        <time>2026-08-27T10:53:05.288Z</time>
      </trkpt>
      <trkpt lat="47.83823" lon="6.99088">
        <ele>982.8</ele>
        <time>2026-08-27T10:53:06.295Z</time>
      </trkpt>
      <trkpt lat="47.83823" lon="6.99088">
        <ele>982.6</ele>
        <time>2026-08-27T10:53:07.303Z</time>
      </trkpt>
      <trkpt lat="47.83823" lon="6.99088">
        <ele>982.6</ele>
        <time>2026-08-27T10:53:08.311Z</time>
      </trkpt>
      <trkpt lat="47.83823" lon="6.99088">
        <ele>983</ele>
        <time>2026-08-27T10:53:09.321Z</time>
      </trkpt>
      <trkpt lat="47.83823" lon="6.99088">
        <ele>983</ele>
        <time>2026-08-27T10:53:10.328Z</time>
      </trkpt>
      <trkpt lat="47.83823" lon="6.99088">
        <ele>983</ele>
        <time>2026-08-27T10:53:11.337Z</time>
      </trkpt>
      <trkpt lat="47.83823" lon="6.99088">
        <ele>982.9</ele>
        <time>2026-08-27T10:53:13.251Z</time>
      </trkpt>
      <trkpt lat="47.83823" lon="6.99088">
        <ele>983</ele>
        <time>2026-08-27T10:53:14.259Z</time>
      </trkpt>
      <trkpt lat="47.83823" lon="6.99088">
        <ele>983.2</ele>
        <time>2026-08-27T10:53:15.267Z</time>
      </trkpt>
      <trkpt lat="47.83823" lon="6.99088">
        <ele>983.3</ele>
        <time>2026-08-27T10:53:16.275Z</time>
      </trkpt>
      <trkpt lat="47.83823" lon="6.99088">
        <ele>983.3</ele>
        <time>2026-08-27T10:53:17.284Z</time>
      </trkpt>
      <trkpt lat="47.83823" lon="6.99088">
        <ele>983.3</ele>
        <time>2026-08-27T10:53:18.293Z</time>
      </trkpt>
      <trkpt lat="47.83823" lon="6.99088">
        <ele>983.3</ele>
        <time>2026-08-27T10:53:19.300Z</time>
      </trkpt>
      <trkpt lat="47.83823" lon="6.99088">
        <ele>983.3</ele>
        <time>2026-08-27T10:53:20.309Z</time>
      </trkpt>
      <trkpt lat="47.83822" lon="6.99088">
        <ele>983.3</ele>
        <time>2026-08-27T10:53:21.316Z</time>
      </trkpt>
      <trkpt lat="47.83822" lon="6.99088">
        <ele>982.9</ele>
        <time>2026-08-27T10:53:22.324Z</time>
      </trkpt>
      <trkpt lat="47.83822" lon="6.99088">
        <ele>982.9</ele>
        <time>2026-08-27T10:53:23.332Z</time>
      </trkpt>
      <trkpt lat="47.83822" lon="6.99088">
        <ele>982.7</ele>
        <time>2026-08-27T10:53:25.247Z</time>
      </trkpt>
      <trkpt lat="47.83822" lon="6.99088">
        <ele>982.7</ele>
        <time>2026-08-27T10:53:26.256Z</time>
      </trkpt>
      <trkpt lat="47.83822" lon="6.99088">
        <ele>983.1</ele>
        <time>2026-08-27T10:53:27.265Z</time>
      </trkpt>
      <trkpt lat="47.83822" lon="6.99088">
        <ele>983</ele>
        <time>2026-08-27T10:53:28.272Z</time>
      </trkpt>
      <trkpt lat="47.83822" lon="6.99088">
        <ele>983.2</ele>
        <time>2026-08-27T10:53:29.281Z</time>
      </trkpt>
      <trkpt lat="47.83822" lon="6.99088">
        <ele>983.2</ele>
        <time>2026-08-27T10:53:30.289Z</time>
      </trkpt>
      <trkpt lat="47.83822" lon="6.99088">
        <ele>983.1</ele>
        <time>2026-08-27T10:53:31.297Z</time>
      </trkpt>
      <trkpt lat="47.83822" lon="6.99088">
        <ele>983</ele>
        <time>2026-08-27T10:53:32.304Z</time>
      </trkpt>
      <trkpt lat="47.83822" lon="6.99088">
        <ele>983</ele>
        <time>2026-08-27T10:53:33.312Z</time>
      </trkpt>
      <trkpt lat="47.83822" lon="6.99088">
        <ele>983</ele>
        <time>2026-08-27T10:53:34.320Z</time>
      </trkpt>
      <trkpt lat="47.83822" lon="6.99088">
        <ele>982.9</ele>
        <time>2026-08-27T10:53:35.328Z</time>
      </trkpt>
      <trkpt lat="47.83822" lon="6.99088">
        <ele>982.8</ele>
        <time>2026-08-27T10:53:36.338Z</time>
      </trkpt>
      <trkpt lat="47.83822" lon="6.99088">
        <ele>983</ele>
        <time>2026-08-27T10:53:38.252Z</time>
      </trkpt>
      <trkpt lat="47.83822" lon="6.99088">
        <ele>983.1</ele>
        <time>2026-08-27T10:53:39.260Z</time>
      </trkpt>
      <trkpt lat="47.83822" lon="6.99088">
        <ele>983.1</ele>
        <time>2026-08-27T10:53:40.269Z</time>
      </trkpt>
      <trkpt lat="47.83822" lon="6.99088">
        <ele>983</ele>
        <time>2026-08-27T10:53:41.276Z</time>
      </trkpt>
      <trkpt lat="47.83822" lon="6.99088">
        <ele>983</ele>
        <time>2026-08-27T10:53:42.285Z</time>
      </trkpt>
      <trkpt lat="47.83822" lon="6.99088">
        <ele>983.1</ele>
        <time>2026-08-27T10:53:43.292Z</time>
      </trkpt>
      <trkpt lat="47.83822" lon="6.99088">
        <ele>983.1</ele>
        <time>2026-08-27T10:53:44.301Z</time>
      </trkpt>
      <trkpt lat="47.83822" lon="6.99088">
        <ele>983.4</ele>
        <time>2026-08-27T10:53:45.309Z</time>
      </trkpt>
      <trkpt lat="47.83822" lon="6.99088">
        <ele>983.4</ele>
        <time>2026-08-27T10:53:46.317Z</time>
      </trkpt>
      <trkpt lat="47.83822" lon="6.99088">
        <ele>983.4</ele>
        <time>2026-08-27T10:53:47.325Z</time>
      </trkpt>
      <trkpt lat="47.83822" lon="6.99088">
        <ele>983.4</ele>
        <time>2026-08-27T10:53:48.334Z</time>
      </trkpt>
      <trkpt lat="47.83822" lon="6.99088">
        <ele>983.5</ele>
        <time>2026-08-27T10:53:50.248Z</time>
      </trkpt>
      <trkpt lat="47.83822" lon="6.99088">
        <ele>983.6</ele>
        <time>2026-08-27T10:53:51.256Z</time>
      </trkpt>
      <trkpt lat="47.83822" lon="6.99088">
        <ele>983.2</ele>
        <time>2026-08-27T10:53:52.266Z</time>
      </trkpt>
      <trkpt lat="47.83822" lon="6.99088">
        <ele>983.2</ele>
        <time>2026-08-27T10:53:53.273Z</time>
      </trkpt>
      <trkpt lat="47.83822" lon="6.99088">
        <ele>983</ele>
        <time>2026-08-27T10:53:54.281Z</time>
      </trkpt>
      <trkpt lat="47.83822" lon="6.99088">
        <ele>982.8</ele>
        <time>2026-08-27T10:53:55.289Z</time>
      </trkpt>
      <trkpt lat="47.83822" lon="6.99088">
        <ele>983</ele>
        <time>2026-08-27T10:53:56.298Z</time>
      </trkpt>
      <trkpt lat="47.83822" lon="6.99088">
        <ele>983.2</ele>
        <time>2026-08-27T10:53:57.306Z</time>
      </trkpt>
      <trkpt lat="47.83822" lon="6.99089">
        <ele>983.4</ele>
        <time>2026-08-27T10:53:58.313Z</time>
      </trkpt>
      <trkpt lat="47.83822" lon="6.99089">
        <ele>983.5</ele>
        <time>2026-08-27T10:53:59.322Z</time>
      </trkpt>
      <trkpt lat="47.83822" lon="6.99089">
        <ele>983.4</ele>
        <time>2026-08-27T10:54:00.329Z</time>
      </trkpt>
      <trkpt lat="47.83822" lon="6.99089">
        <ele>983.2</ele>
        <time>2026-08-27T10:54:02.245Z</time>
      </trkpt>
      <trkpt lat="47.83822" lon="6.99089">
        <ele>983.3</ele>
        <time>2026-08-27T10:54:03.254Z</time>
      </trkpt>
      <trkpt lat="47.83822" lon="6.99089">
        <ele>983.2</ele>
        <time>2026-08-27T10:54:04.261Z</time>
      </trkpt>
      <trkpt lat="47.83822" lon="6.99089">
        <ele>983.1</ele>
        <time>2026-08-27T10:54:05.269Z</time>
      </trkpt>
      <trkpt lat="47.83822" lon="6.99089">
        <ele>983</ele>
        <time>2026-08-27T10:54:06.277Z</time>
      </trkpt>
      <trkpt lat="47.83822" lon="6.99089">
        <ele>983.1</ele>
        <time>2026-08-27T10:54:07.285Z</time>
      </trkpt>
      <trkpt lat="47.83822" lon="6.99088">
        <ele>983.4</ele>
        <time>2026-08-27T10:54:08.293Z</time>
      </trkpt>
      <trkpt lat="47.83822" lon="6.99088">
        <ele>983.4</ele>
        <time>2026-08-27T10:54:09.302Z</time>
      </trkpt>
      <trkpt lat="47.83822" lon="6.99088">
        <ele>983.2</ele>
        <time>2026-08-27T10:54:10.309Z</time>
      </trkpt>
      <trkpt lat="47.83822" lon="6.99088">
        <ele>983.2</ele>
        <time>2026-08-27T10:54:11.318Z</time>
      </trkpt>
      <trkpt lat="47.83822" lon="6.99088">
        <ele>983.3</ele>
        <time>2026-08-27T10:54:12.327Z</time>
      </trkpt>
      <trkpt lat="47.83822" lon="6.99088">
        <ele>983.5</ele>
        <time>2026-08-27T10:54:13.334Z</time>
      </trkpt>
      <trkpt lat="47.83822" lon="6.99088">
        <ele>983.5</ele>
        <time>2026-08-27T10:54:15.249Z</time>
      </trkpt>
      <trkpt lat="47.83822" lon="6.99088">
        <ele>983.5</ele>
        <time>2026-08-27T10:54:16.257Z</time>
      </trkpt>
      <trkpt lat="47.83822" lon="6.99088">
        <ele>983.6</ele>
        <time>2026-08-27T10:54:17.265Z</time>
      </trkpt>
      <trkpt lat="47.83822" lon="6.99088">
        <ele>983.5</ele>
        <time>2026-08-27T10:54:18.273Z</time>
      </trkpt>
      <trkpt lat="47.83822" lon="6.99088">
        <ele>983.6</ele>
        <time>2026-08-27T10:54:19.282Z</time>
      </trkpt>
      <trkpt lat="47.83822" lon="6.99088">
        <ele>983.6</ele>
        <time>2026-08-27T10:54:20.290Z</time>
      </trkpt>
      <trkpt lat="47.83822" lon="6.99088">
        <ele>983.2</ele>
        <time>2026-08-27T10:54:21.299Z</time>
      </trkpt>
      <trkpt lat="47.83822" lon="6.99088">
        <ele>983.1</ele>
        <time>2026-08-27T10:54:22.306Z</time>
      </trkpt>
      <trkpt lat="47.83822" lon="6.99088">
        <ele>983.2</ele>
        <time>2026-08-27T10:54:23.314Z</time>
      </trkpt>
      <trkpt lat="47.83822" lon="6.99088">
        <ele>983</ele>
        <time>2026-08-27T10:54:24.323Z</time>
      </trkpt>
      <trkpt lat="47.83822" lon="6.99088">
        <ele>983</ele>
        <time>2026-08-27T10:54:26.338Z</time>
      </trkpt>
      <trkpt lat="47.83822" lon="6.99088">
        <ele>983.4</ele>
        <time>2026-08-27T10:54:28.254Z</time>
      </trkpt>
      <trkpt lat="47.83822" lon="6.99088">
        <ele>983.4</ele>
        <time>2026-08-27T10:54:29.263Z</time>
      </trkpt>
      <trkpt lat="47.83822" lon="6.99088">
        <ele>983.3</ele>
        <time>2026-08-27T10:54:30.271Z</time>
      </trkpt>
      <trkpt lat="47.83822" lon="6.99089">
        <ele>983.2</ele>
        <time>2026-08-27T10:54:31.279Z</time>
      </trkpt>
      <trkpt lat="47.83822" lon="6.99089">
        <ele>983.2</ele>
        <time>2026-08-27T10:54:32.286Z</time>
      </trkpt>
      <trkpt lat="47.83822" lon="6.99089">
        <ele>983.2</ele>
        <time>2026-08-27T10:54:33.295Z</time>
      </trkpt>
      <trkpt lat="47.83822" lon="6.99089">
        <ele>983.1</ele>
        <time>2026-08-27T10:54:34.303Z</time>
      </trkpt>
      <trkpt lat="47.83822" lon="6.99089">
        <ele>983</ele>
        <time>2026-08-27T10:54:35.310Z</time>
      </trkpt>
      <trkpt lat="47.83822" lon="6.99089">
        <ele>982.9</ele>
        <time>2026-08-27T10:54:36.318Z</time>
      </trkpt>
      <trkpt lat="47.83822" lon="6.99089">
        <ele>983</ele>
        <time>2026-08-27T10:54:37.326Z</time>
      </trkpt>
      <trkpt lat="47.83822" lon="6.99089">
        <ele>983.2</ele>
        <time>2026-08-27T10:54:39.343Z</time>
      </trkpt>
      <trkpt lat="47.83822" lon="6.99089">
        <ele>983.1</ele>
        <time>2026-08-27T10:54:41.259Z</time>
      </trkpt>
      <trkpt lat="47.83822" lon="6.99089">
        <ele>983.2</ele>
        <time>2026-08-27T10:54:42.266Z</time>
      </trkpt>
      <trkpt lat="47.83822" lon="6.99089">
        <ele>983.3</ele>
        <time>2026-08-27T10:54:43.274Z</time>
      </trkpt>
      <trkpt lat="47.83821" lon="6.99089">
        <ele>983.1</ele>
        <time>2026-08-27T10:54:44.282Z</time>
      </trkpt>
      <trkpt lat="47.83821" lon="6.99089">
        <ele>983.3</ele>
        <time>2026-08-27T10:54:45.290Z</time>
      </trkpt>
      <trkpt lat="47.83821" lon="6.99089">
        <ele>983.3</ele>
        <time>2026-08-27T10:54:46.298Z</time>
      </trkpt>
      <trkpt lat="47.83821" lon="6.99089">
        <ele>983.3</ele>
        <time>2026-08-27T10:54:47.307Z</time>
      </trkpt>
      <trkpt lat="47.83821" lon="6.99089">
        <ele>983.3</ele>
        <time>2026-08-27T10:54:48.315Z</time>
      </trkpt>
      <trkpt lat="47.83821" lon="6.99089">
        <ele>983.3</ele>
        <time>2026-08-27T10:54:49.323Z</time>
      </trkpt>
      <trkpt lat="47.83821" lon="6.99089">
        <ele>983.3</ele>
        <time>2026-08-27T10:54:50.331Z</time>
      </trkpt>
      <trkpt lat="47.83821" lon="6.99089">
        <ele>982.9</ele>
        <time>2026-08-27T10:54:52.246Z</time>
      </trkpt>
      <trkpt lat="47.83821" lon="6.99089">
        <ele>982.8</ele>
        <time>2026-08-27T10:54:53.254Z</time>
      </trkpt>
      <trkpt lat="47.83821" lon="6.99089">
        <ele>983.1</ele>
        <time>2026-08-27T10:54:54.262Z</time>
      </trkpt>
      <trkpt lat="47.83821" lon="6.99089">
        <ele>983.1</ele>
        <time>2026-08-27T10:54:55.271Z</time>
      </trkpt>
      <trkpt lat="47.83821" lon="6.99089">
        <ele>983</ele>
        <time>2026-08-27T10:54:56.280Z</time>
      </trkpt>
      <trkpt lat="47.83821" lon="6.99089">
        <ele>983.1</ele>
        <time>2026-08-27T10:54:57.287Z</time>
      </trkpt>
      <trkpt lat="47.83821" lon="6.99089">
        <ele>983.2</ele>
        <time>2026-08-27T10:54:58.295Z</time>
      </trkpt>
      <trkpt lat="47.83821" lon="6.99089">
        <ele>983.1</ele>
        <time>2026-08-27T10:54:59.303Z</time>
      </trkpt>
      <trkpt lat="47.83821" lon="6.99089">
        <ele>983</ele>
        <time>2026-08-27T10:55:00.312Z</time>
      </trkpt>
      <trkpt lat="47.83821" lon="6.99089">
        <ele>983</ele>
        <time>2026-08-27T10:55:01.319Z</time>
      </trkpt>
      <trkpt lat="47.83821" lon="6.99089">
        <ele>983.1</ele>
        <time>2026-08-27T10:55:02.327Z</time>
      </trkpt>
      <trkpt lat="47.83821" lon="6.99089">
        <ele>983</ele>
        <time>2026-08-27T10:55:03.335Z</time>
      </trkpt>
      <trkpt lat="47.83821" lon="6.9909">
        <ele>982.9</ele>
        <time>2026-08-27T10:55:05.252Z</time>
      </trkpt>
      <trkpt lat="47.83821" lon="6.9909">
        <ele>983</ele>
        <time>2026-08-27T10:55:06.260Z</time>
      </trkpt>
      <trkpt lat="47.83821" lon="6.9909">
        <ele>983.1</ele>
        <time>2026-08-27T10:55:07.267Z</time>
      </trkpt>
      <trkpt lat="47.83821" lon="6.9909">
        <ele>983.1</ele>
        <time>2026-08-27T10:55:08.276Z</time>
      </trkpt>
      <trkpt lat="47.83821" lon="6.9909">
        <ele>983.1</ele>
        <time>2026-08-27T10:55:09.283Z</time>
      </trkpt>
      <trkpt lat="47.83821" lon="6.9909">
        <ele>983</ele>
        <time>2026-08-27T10:55:10.291Z</time>
      </trkpt>
      <trkpt lat="47.83821" lon="6.9909">
        <ele>983</ele>
        <time>2026-08-27T10:55:11.299Z</time>
      </trkpt>
      <trkpt lat="47.83821" lon="6.9909">
        <ele>983.2</ele>
        <time>2026-08-27T10:55:12.307Z</time>
      </trkpt>
      <trkpt lat="47.83821" lon="6.9909">
        <ele>983</ele>
        <time>2026-08-27T10:55:13.315Z</time>
      </trkpt>
      <trkpt lat="47.83821" lon="6.9909">
        <ele>983.3</ele>
        <time>2026-08-27T10:55:14.325Z</time>
      </trkpt>
      <trkpt lat="47.83821" lon="6.9909">
        <ele>983.3</ele>
        <time>2026-08-27T10:55:16.240Z</time>
      </trkpt>
      <trkpt lat="47.83821" lon="6.9909">
        <ele>983.3</ele>
        <time>2026-08-27T10:55:17.247Z</time>
      </trkpt>
      <trkpt lat="47.83821" lon="6.9909">
        <ele>983.3</ele>
        <time>2026-08-27T10:55:18.255Z</time>
      </trkpt>
      <trkpt lat="47.83821" lon="6.9909">
        <ele>983.3</ele>
        <time>2026-08-27T10:55:19.264Z</time>
      </trkpt>
      <trkpt lat="47.83821" lon="6.9909">
        <ele>983.2</ele>
        <time>2026-08-27T10:55:20.271Z</time>
      </trkpt>
      <trkpt lat="47.83821" lon="6.9909">
        <ele>983</ele>
        <time>2026-08-27T10:55:21.280Z</time>
      </trkpt>
      <trkpt lat="47.83821" lon="6.9909">
        <ele>983</ele>
        <time>2026-08-27T10:55:22.288Z</time>
      </trkpt>
      <trkpt lat="47.83821" lon="6.9909">
        <ele>982.9</ele>
        <time>2026-08-27T10:55:23.296Z</time>
      </trkpt>
      <trkpt lat="47.83821" lon="6.9909">
        <ele>983.2</ele>
        <time>2026-08-27T10:55:24.304Z</time>
      </trkpt>
      <trkpt lat="47.83821" lon="6.9909">
        <ele>983.1</ele>
        <time>2026-08-27T10:55:25.313Z</time>
      </trkpt>
      <trkpt lat="47.83821" lon="6.9909">
        <ele>983.1</ele>
        <time>2026-08-27T10:55:26.320Z</time>
      </trkpt>
      <trkpt lat="47.83821" lon="6.9909">
        <ele>983.3</ele>
        <time>2026-08-27T10:55:27.329Z</time>
      </trkpt>
      <trkpt lat="47.83821" lon="6.9909">
        <ele>983.2</ele>
        <time>2026-08-27T10:55:29.244Z</time>
      </trkpt>
      <trkpt lat="47.83821" lon="6.9909">
        <ele>983.1</ele>
        <time>2026-08-27T10:55:30.251Z</time>
      </trkpt>
      <trkpt lat="47.83821" lon="6.9909">
        <ele>983.1</ele>
        <time>2026-08-27T10:55:31.260Z</time>
      </trkpt>
      <trkpt lat="47.83821" lon="6.9909">
        <ele>983.1</ele>
        <time>2026-08-27T10:55:32.268Z</time>
      </trkpt>
      <trkpt lat="47.83821" lon="6.9909">
        <ele>983</ele>
        <time>2026-08-27T10:55:33.277Z</time>
      </trkpt>
      <trkpt lat="47.83821" lon="6.9909">
        <ele>982.9</ele>
        <time>2026-08-27T10:55:34.284Z</time>
      </trkpt>
      <trkpt lat="47.83821" lon="6.9909">
        <ele>983</ele>
        <time>2026-08-27T10:55:35.292Z</time>
      </trkpt>
      <trkpt lat="47.83821" lon="6.9909">
        <ele>983.1</ele>
        <time>2026-08-27T10:55:36.300Z</time>
      </trkpt>
      <trkpt lat="47.83821" lon="6.9909">
        <ele>983.1</ele>
        <time>2026-08-27T10:55:37.309Z</time>
      </trkpt>
      <trkpt lat="47.83821" lon="6.9909">
        <ele>983.1</ele>
        <time>2026-08-27T10:55:38.317Z</time>
      </trkpt>
      <trkpt lat="47.83821" lon="6.9909">
        <ele>983</ele>
        <time>2026-08-27T10:55:39.324Z</time>
      </trkpt>
      <trkpt lat="47.83821" lon="6.9909">
        <ele>983.1</ele>
        <time>2026-08-27T10:55:41.340Z</time>
      </trkpt>
      <trkpt lat="47.83821" lon="6.9909">
        <ele>983.3</ele>
        <time>2026-08-27T10:55:43.256Z</time>
      </trkpt>
      <trkpt lat="47.83821" lon="6.9909">
        <ele>983.2</ele>
        <time>2026-08-27T10:55:44.265Z</time>
      </trkpt>
      <trkpt lat="47.83821" lon="6.9909">
        <ele>983.3</ele>
        <time>2026-08-27T10:55:45.273Z</time>
      </trkpt>
      <trkpt lat="47.83821" lon="6.9909">
        <ele>983.3</ele>
        <time>2026-08-27T10:55:46.281Z</time>
      </trkpt>
      <trkpt lat="47.83821" lon="6.9909">
        <ele>983.3</ele>
        <time>2026-08-27T10:55:47.288Z</time>
      </trkpt>
      <trkpt lat="47.83821" lon="6.9909">
        <ele>983.3</ele>
        <time>2026-08-27T10:55:48.296Z</time>
      </trkpt>
      <trkpt lat="47.83821" lon="6.9909">
        <ele>983.3</ele>
        <time>2026-08-27T10:55:49.304Z</time>
      </trkpt>
      <trkpt lat="47.83821" lon="6.9909">
        <ele>983.2</ele>
        <time>2026-08-27T10:55:50.314Z</time>
      </trkpt>
      <trkpt lat="47.83821" lon="6.9909">
        <ele>982.9</ele>
        <time>2026-08-27T10:55:51.322Z</time>
      </trkpt>
      <trkpt lat="47.83821" lon="6.9909">
        <ele>982.9</ele>
        <time>2026-08-27T10:55:52.330Z</time>
      </trkpt>
      <trkpt lat="47.83821" lon="6.9909">
        <ele>983.1</ele>
        <time>2026-08-27T10:55:54.245Z</time>
      </trkpt>
      <trkpt lat="47.83821" lon="6.9909">
        <ele>983.1</ele>
        <time>2026-08-27T10:55:55.253Z</time>
      </trkpt>
      <trkpt lat="47.83821" lon="6.9909">
        <ele>983.2</ele>
        <time>2026-08-27T10:55:56.260Z</time>
      </trkpt>
      <trkpt lat="47.83821" lon="6.9909">
        <ele>983.2</ele>
        <time>2026-08-27T10:55:57.269Z</time>
      </trkpt>
      <trkpt lat="47.83821" lon="6.9909">
        <ele>983.3</ele>
        <time>2026-08-27T10:55:58.277Z</time>
      </trkpt>
      <trkpt lat="47.83821" lon="6.9909">
        <ele>983.2</ele>
        <time>2026-08-27T10:55:59.285Z</time>
      </trkpt>
      <trkpt lat="47.83821" lon="6.9909">
        <ele>983.1</ele>
        <time>2026-08-27T10:56:00.294Z</time>
      </trkpt>
      <trkpt lat="47.83821" lon="6.9909">
        <ele>983.1</ele>
        <time>2026-08-27T10:56:01.301Z</time>
      </trkpt>
      <trkpt lat="47.83821" lon="6.99089">
        <ele>983.1</ele>
        <time>2026-08-27T10:56:02.309Z</time>
      </trkpt>
      <trkpt lat="47.83821" lon="6.99089">
        <ele>982.9</ele>
        <time>2026-08-27T10:56:03.318Z</time>
      </trkpt>
      <trkpt lat="47.83821" lon="6.99089">
        <ele>983</ele>
        <time>2026-08-27T10:56:04.325Z</time>
      </trkpt>
      <trkpt lat="47.83821" lon="6.99089">
        <ele>983.2</ele>
        <time>2026-08-27T10:56:06.241Z</time>
      </trkpt>
      <trkpt lat="47.83821" lon="6.99089">
        <ele>983.2</ele>
        <time>2026-08-27T10:56:07.248Z</time>
      </trkpt>
      <trkpt lat="47.83821" lon="6.99089">
        <ele>983.1</ele>
        <time>2026-08-27T10:56:08.257Z</time>
      </trkpt>
      <trkpt lat="47.83821" lon="6.99089">
        <ele>983.1</ele>
        <time>2026-08-27T10:56:09.266Z</time>
      </trkpt>
      <trkpt lat="47.83821" lon="6.99089">
        <ele>983.2</ele>
        <time>2026-08-27T10:56:10.273Z</time>
      </trkpt>
      <trkpt lat="47.83821" lon="6.99089">
        <ele>983.3</ele>
        <time>2026-08-27T10:56:11.281Z</time>
      </trkpt>
      <trkpt lat="47.83821" lon="6.99089">
        <ele>983.4</ele>
        <time>2026-08-27T10:56:12.289Z</time>
      </trkpt>
      <trkpt lat="47.83821" lon="6.99089">
        <ele>983.3</ele>
        <time>2026-08-27T10:56:13.297Z</time>
      </trkpt>
      <trkpt lat="47.83821" lon="6.99089">
        <ele>983.4</ele>
        <time>2026-08-27T10:56:14.305Z</time>
      </trkpt>
      <trkpt lat="47.83821" lon="6.99089">
        <ele>983.5</ele>
        <time>2026-08-27T10:56:15.313Z</time>
      </trkpt>
      <trkpt lat="47.83821" lon="6.99089">
        <ele>983.4</ele>
        <time>2026-08-27T10:56:16.321Z</time>
      </trkpt>
      <trkpt lat="47.83821" lon="6.99089">
        <ele>983.5</ele>
        <time>2026-08-27T10:56:17.329Z</time>
      </trkpt>
      <trkpt lat="47.83821" lon="6.99089">
        <ele>983.4</ele>
        <time>2026-08-27T10:56:19.245Z</time>
      </trkpt>
      <trkpt lat="47.83821" lon="6.99089">
        <ele>983.2</ele>
        <time>2026-08-27T10:56:20.253Z</time>
      </trkpt>
      <trkpt lat="47.83821" lon="6.99089">
        <ele>983.1</ele>
        <time>2026-08-27T10:56:21.261Z</time>
      </trkpt>
      <trkpt lat="47.83821" lon="6.99089">
        <ele>983.3</ele>
        <time>2026-08-27T10:56:22.269Z</time>
      </trkpt>
      <trkpt lat="47.83821" lon="6.99089">
        <ele>983.3</ele>
        <time>2026-08-27T10:56:23.277Z</time>
      </trkpt>
      <trkpt lat="47.83821" lon="6.99089">
        <ele>983.3</ele>
        <time>2026-08-27T10:56:24.286Z</time>
      </trkpt>
      <trkpt lat="47.83821" lon="6.99089">
        <ele>983.3</ele>
        <time>2026-08-27T10:56:25.294Z</time>
      </trkpt>
      <trkpt lat="47.83821" lon="6.99089">
        <ele>983.3</ele>
        <time>2026-08-27T10:56:26.301Z</time>
      </trkpt>
      <trkpt lat="47.83821" lon="6.99089">
        <ele>983.3</ele>
        <time>2026-08-27T10:56:28.229Z</time>
      </trkpt>
      <trkpt lat="47.83821" lon="6.99089">
        <ele>983.2</ele>
        <time>2026-08-27T10:56:29.250Z</time>
      </trkpt>
      <trkpt lat="47.83822" lon="6.99087">
        <ele>982.8</ele>
        <time>2026-08-27T10:58:48.308Z</time>
      </trkpt>
      <trkpt lat="47.83823" lon="6.99087">
        <ele>982.9</ele>
        <time>2026-08-27T10:58:49.316Z</time>
      </trkpt>
      <trkpt lat="47.83823" lon="6.99087">
        <ele>982.9</ele>
        <time>2026-08-27T10:58:50.325Z</time>
      </trkpt>
      <trkpt lat="47.83823" lon="6.99087">
        <ele>982.6</ele>
        <time>2026-08-27T10:58:51.332Z</time>
      </trkpt>
      <trkpt lat="47.83823" lon="6.99087">
        <ele>982.6</ele>
        <time>2026-08-27T10:58:52.340Z</time>
      </trkpt>
      <trkpt lat="47.83823" lon="6.99087">
        <ele>982.7</ele>
        <time>2026-08-27T10:58:53.348Z</time>
      </trkpt>
      <trkpt lat="47.83823" lon="6.99087">
        <ele>982.5</ele>
        <time>2026-08-27T10:58:55.365Z</time>
      </trkpt>
      <trkpt lat="47.83823" lon="6.99088">
        <ele>982.3</ele>
        <time>2026-08-27T10:58:57.280Z</time>
      </trkpt>
      <trkpt lat="47.83823" lon="6.99088">
        <ele>982.3</ele>
        <time>2026-08-27T10:58:58.289Z</time>
      </trkpt>
      <trkpt lat="47.83823" lon="6.99088">
        <ele>982.7</ele>
        <time>2026-08-27T10:58:59.297Z</time>
      </trkpt>
      <trkpt lat="47.83823" lon="6.99088">
        <ele>982.5</ele>
        <time>2026-08-27T10:59:00.306Z</time>
      </trkpt>
      <trkpt lat="47.83823" lon="6.99088">
        <ele>982.5</ele>
        <time>2026-08-27T10:59:01.314Z</time>
      </trkpt>
      <trkpt lat="47.83823" lon="6.99088">
        <ele>982.8</ele>
        <time>2026-08-27T10:59:02.322Z</time>
      </trkpt>
      <trkpt lat="47.83823" lon="6.99088">
        <ele>982.9</ele>
        <time>2026-08-27T10:59:03.330Z</time>
      </trkpt>
      <trkpt lat="47.83823" lon="6.99089">
        <ele>982.8</ele>
        <time>2026-08-27T10:59:04.338Z</time>
      </trkpt>
      <trkpt lat="47.83823" lon="6.99089">
        <ele>982.8</ele>
        <time>2026-08-27T10:59:05.347Z</time>
      </trkpt>
      <trkpt lat="47.83823" lon="6.99089">
        <ele>982.5</ele>
        <time>2026-08-27T10:59:06.354Z</time>
      </trkpt>
      <trkpt lat="47.83823" lon="6.99089">
        <ele>982.5</ele>
        <time>2026-08-27T10:59:07.362Z</time>
      </trkpt>
      <trkpt lat="47.83823" lon="6.99089">
        <ele>982.3</ele>
        <time>2026-08-27T10:59:09.278Z</time>
      </trkpt>
      <trkpt lat="47.83823" lon="6.99089">
        <ele>982.4</ele>
        <time>2026-08-27T10:59:10.287Z</time>
      </trkpt>
      <trkpt lat="47.83823" lon="6.99089">
        <ele>982.8</ele>
        <time>2026-08-27T10:59:16.293Z</time>
      </trkpt>
      <trkpt lat="47.83823" lon="6.99089">
        <ele>982.8</ele>
        <time>2026-08-27T10:59:17.303Z</time>
      </trkpt>
      <trkpt lat="47.83823" lon="6.99089">
        <ele>983</ele>
        <time>2026-08-27T10:59:18.310Z</time>
      </trkpt>
      <trkpt lat="47.83823" lon="6.99089">
        <ele>982.6</ele>
        <time>2026-08-27T10:59:19.319Z</time>
      </trkpt>
      <trkpt lat="47.83823" lon="6.99089">
        <ele>982.7</ele>
        <time>2026-08-27T10:59:20.326Z</time>
      </trkpt>
      <trkpt lat="47.83823" lon="6.99089">
        <ele>982.7</ele>
        <time>2026-08-27T10:59:21.335Z</time>
      </trkpt>
      <trkpt lat="47.83823" lon="6.9909">
        <ele>981.1</ele>
        <time>2026-08-27T11:23:02.276Z</time>
      </trkpt>
      <trkpt lat="47.83823" lon="6.9909">
        <ele>981.2</ele>
        <time>2026-08-27T11:23:03.285Z</time>
      </trkpt>
      <trkpt lat="47.83823" lon="6.9909">
        <ele>981.2</ele>
        <time>2026-08-27T11:23:04.293Z</time>
      </trkpt>
      <trkpt lat="47.83823" lon="6.9909">
        <ele>981.2</ele>
        <time>2026-08-27T11:23:05.301Z</time>
      </trkpt>
      <trkpt lat="47.83822" lon="6.9909">
        <ele>981.2</ele>
        <time>2026-08-27T11:23:06.310Z</time>
      </trkpt>
      <trkpt lat="47.83822" lon="6.9909">
        <ele>981.2</ele>
        <time>2026-08-27T11:23:07.317Z</time>
      </trkpt>
      <trkpt lat="47.83822" lon="6.9909">
        <ele>981.2</ele>
        <time>2026-08-27T11:23:08.326Z</time>
      </trkpt>
      <trkpt lat="47.83822" lon="6.99089">
        <ele>981</ele>
        <time>2026-08-27T11:23:09.334Z</time>
      </trkpt>
      <trkpt lat="47.83822" lon="6.99089">
        <ele>981</ele>
        <time>2026-08-27T11:23:10.342Z</time>
      </trkpt>
      <trkpt lat="47.83822" lon="6.99089">
        <ele>981</ele>
        <time>2026-08-27T11:23:11.351Z</time>
      </trkpt>
      <trkpt lat="47.83822" lon="6.99089">
        <ele>980.9</ele>
        <time>2026-08-27T11:23:14.375Z</time>
      </trkpt>
      <trkpt lat="47.83822" lon="6.99089">
        <ele>980.9</ele>
        <time>2026-08-27T11:23:15.385Z</time>
      </trkpt>
      <trkpt lat="47.83822" lon="6.99088">
        <ele>980.9</ele>
        <time>2026-08-27T11:23:17.400Z</time>
      </trkpt>
      <trkpt lat="47.83821" lon="6.99086">
        <ele>979.8</ele>
        <time>2026-08-27T11:23:19.316Z</time>
      </trkpt>
      <trkpt lat="47.8382" lon="6.99085">
        <ele>979.8</ele>
        <time>2026-08-27T11:23:20.325Z</time>
      </trkpt>
      <trkpt lat="47.83819" lon="6.99085">
        <ele>979.8</ele>
        <time>2026-08-27T11:23:21.332Z</time>
      </trkpt>
      <trkpt lat="47.83818" lon="6.99087">
        <ele>979.8</ele>
        <time>2026-08-27T11:23:23.350Z</time>
      </trkpt>
      <trkpt lat="47.83818" lon="6.99087">
        <ele>979.8</ele>
        <time>2026-08-27T11:23:24.357Z</time>
      </trkpt>
      <trkpt lat="47.83817" lon="6.99087">
        <ele>979.8</ele>
        <time>2026-08-27T11:23:25.403Z</time>
      </trkpt>
      <trkpt lat="47.83816" lon="6.99086">
        <ele>980.5</ele>
        <time>2026-08-27T11:23:27.382Z</time>
      </trkpt>
      <trkpt lat="47.83814" lon="6.99086">
        <ele>980.5</ele>
        <time>2026-08-27T11:23:29.398Z</time>
      </trkpt>
      <trkpt lat="47.83812" lon="6.99086">
        <ele>980.5</ele>
        <time>2026-08-27T11:23:30.419Z</time>
      </trkpt>
      <trkpt lat="47.83811" lon="6.99087">
        <ele>979.8</ele>
        <time>2026-08-27T11:23:31.780Z</time>
      </trkpt>
      <trkpt lat="47.8381" lon="6.99087">
        <ele>979.8</ele>
        <time>2026-08-27T11:23:32.998Z</time>
      </trkpt>
      <trkpt lat="47.83808" lon="6.99088">
        <ele>979.8</ele>
        <time>2026-08-27T11:23:34.419Z</time>
      </trkpt>
      <trkpt lat="47.83807" lon="6.99089">
        <ele>979.8</ele>
        <time>2026-08-27T11:23:36.355Z</time>
      </trkpt>
      <trkpt lat="47.83806" lon="6.99089">
        <ele>979.8</ele>
        <time>2026-08-27T11:23:37.360Z</time>
      </trkpt>
      <trkpt lat="47.83805" lon="6.9909">
        <ele>979.8</ele>
        <time>2026-08-27T11:23:38.371Z</time>
      </trkpt>
      <trkpt lat="47.83804" lon="6.99091">
        <ele>980.1</ele>
        <time>2026-08-27T11:23:39.380Z</time>
      </trkpt>
      <trkpt lat="47.83803" lon="6.99091">
        <ele>980</ele>
        <time>2026-08-27T11:23:40.388Z</time>
      </trkpt>
      <trkpt lat="47.83802" lon="6.99092">
        <ele>980</ele>
        <time>2026-08-27T11:23:41.396Z</time>
      </trkpt>
      <trkpt lat="47.838" lon="6.99094">
        <ele>979.8</ele>
        <time>2026-08-27T11:23:43.358Z</time>
      </trkpt>
      <trkpt lat="47.83798" lon="6.99094">
        <ele>979.8</ele>
        <time>2026-08-27T11:23:45.328Z</time>
      </trkpt>
      <trkpt lat="47.83797" lon="6.99095">
        <ele>979.8</ele>
        <time>2026-08-27T11:23:46.337Z</time>
      </trkpt>
      <trkpt lat="47.83796" lon="6.99095">
        <ele>979.8</ele>
        <time>2026-08-27T11:23:47.344Z</time>
      </trkpt>
      <trkpt lat="47.83795" lon="6.99095">
        <ele>979.8</ele>
        <time>2026-08-27T11:23:48.353Z</time>
      </trkpt>
      <trkpt lat="47.83794" lon="6.99095">
        <ele>979.8</ele>
        <time>2026-08-27T11:23:49.362Z</time>
      </trkpt>
      <trkpt lat="47.83792" lon="6.99096">
        <ele>979.8</ele>
        <time>2026-08-27T11:23:51.377Z</time>
      </trkpt>
      <trkpt lat="47.83791" lon="6.99097">
        <ele>979.8</ele>
        <time>2026-08-27T11:23:52.385Z</time>
      </trkpt>
      <trkpt lat="47.8379" lon="6.99097">
        <ele>980.4</ele>
        <time>2026-08-27T11:23:53.395Z</time>
      </trkpt>
      <trkpt lat="47.83789" lon="6.99097">
        <ele>980.4</ele>
        <time>2026-08-27T11:23:54.402Z</time>
      </trkpt>
      <trkpt lat="47.83788" lon="6.99097">
        <ele>980.5</ele>
        <time>2026-08-27T11:23:55.410Z</time>
      </trkpt>
      <trkpt lat="47.83786" lon="6.99096">
        <ele>980.5</ele>
        <time>2026-08-27T11:23:57.326Z</time>
      </trkpt>
      <trkpt lat="47.83785" lon="6.99095">
        <ele>980.5</ele>
        <time>2026-08-27T11:23:58.334Z</time>
      </trkpt>
      <trkpt lat="47.83784" lon="6.99094">
        <ele>980.5</ele>
        <time>2026-08-27T11:23:59.342Z</time>
      </trkpt>
      <trkpt lat="47.83783" lon="6.99093">
        <ele>980.5</ele>
        <time>2026-08-27T11:24:00.351Z</time>
      </trkpt>
      <trkpt lat="47.83782" lon="6.99093">
        <ele>980.5</ele>
        <time>2026-08-27T11:24:01.359Z</time>
      </trkpt>
      <trkpt lat="47.8378" lon="6.99092">
        <ele>980.3</ele>
        <time>2026-08-27T11:24:03.275Z</time>
      </trkpt>
      <trkpt lat="47.83779" lon="6.99091">
        <ele>980.3</ele>
        <time>2026-08-27T11:24:04.320Z</time>
      </trkpt>
      <trkpt lat="47.83777" lon="6.99091">
        <ele>980.2</ele>
        <time>2026-08-27T11:24:06.299Z</time>
      </trkpt>
      <trkpt lat="47.83776" lon="6.9909">
        <ele>980.1</ele>
        <time>2026-08-27T11:24:07.307Z</time>
      </trkpt>
      <trkpt lat="47.83776" lon="6.9909">
        <ele>980.1</ele>
        <time>2026-08-27T11:24:08.315Z</time>
      </trkpt>
      <trkpt lat="47.83775" lon="6.99089">
        <ele>980.1</ele>
        <time>2026-08-27T11:24:09.323Z</time>
      </trkpt>
      <trkpt lat="47.83774" lon="6.99089">
        <ele>980.1</ele>
        <time>2026-08-27T11:24:10.332Z</time>
      </trkpt>
      <trkpt lat="47.83774" lon="6.99088">
        <ele>980.1</ele>
        <time>2026-08-27T11:24:11.340Z</time>
      </trkpt>
      <trkpt lat="47.83773" lon="6.99088">
        <ele>980.1</ele>
        <time>2026-08-27T11:24:12.360Z</time>
      </trkpt>
      <trkpt lat="47.83772" lon="6.99087">
        <ele>980.1</ele>
        <time>2026-08-27T11:24:13.680Z</time>
      </trkpt>
      <trkpt lat="47.83771" lon="6.99087">
        <ele>980.2</ele>
        <time>2026-08-27T11:24:14.924Z</time>
      </trkpt>
      <trkpt lat="47.8377" lon="6.99086">
        <ele>980.2</ele>
        <time>2026-08-27T11:24:16.359Z</time>
      </trkpt>
      <trkpt lat="47.83768" lon="6.99085">
        <ele>980.2</ele>
        <time>2026-08-27T11:24:18.297Z</time>
      </trkpt>
      <trkpt lat="47.83767" lon="6.99084">
        <ele>980.2</ele>
        <time>2026-08-27T11:24:19.305Z</time>
      </trkpt>
      <trkpt lat="47.83766" lon="6.99084">
        <ele>980.2</ele>
        <time>2026-08-27T11:24:20.312Z</time>
      </trkpt>
      <trkpt lat="47.83765" lon="6.99083">
        <ele>980.3</ele>
        <time>2026-08-27T11:24:21.322Z</time>
      </trkpt>
      <trkpt lat="47.83764" lon="6.99082">
        <ele>980.3</ele>
        <time>2026-08-27T11:24:22.329Z</time>
      </trkpt>
      <trkpt lat="47.83762" lon="6.99081">
        <ele>980.5</ele>
        <time>2026-08-27T11:24:24.345Z</time>
      </trkpt>
      <trkpt lat="47.83762" lon="6.99081">
        <ele>980.6</ele>
        <time>2026-08-27T11:24:25.353Z</time>
      </trkpt>
      <trkpt lat="47.83761" lon="6.99081">
        <ele>980.7</ele>
        <time>2026-08-27T11:24:27.164Z</time>
      </trkpt>
      <trkpt lat="47.8376" lon="6.99081">
        <ele>980.8</ele>
        <time>2026-08-27T11:24:28.277Z</time>
      </trkpt>
      <trkpt lat="47.83758" lon="6.9908">
        <ele>981</ele>
        <time>2026-08-27T11:24:30.293Z</time>
      </trkpt>
      <trkpt lat="47.83757" lon="6.9908">
        <ele>981</ele>
        <time>2026-08-27T11:24:31.297Z</time>
      </trkpt>
      <trkpt lat="47.83757" lon="6.99079">
        <ele>981.2</ele>
        <time>2026-08-27T11:24:32.310Z</time>
      </trkpt>
      <trkpt lat="47.83756" lon="6.99079">
        <ele>981.5</ele>
        <time>2026-08-27T11:24:33.318Z</time>
      </trkpt>
      <trkpt lat="47.83755" lon="6.99079">
        <ele>981.6</ele>
        <time>2026-08-27T11:24:34.326Z</time>
      </trkpt>
      <trkpt lat="47.83754" lon="6.99079">
        <ele>981.8</ele>
        <time>2026-08-27T11:24:35.335Z</time>
      </trkpt>
      <trkpt lat="47.83754" lon="6.99078">
        <ele>981.9</ele>
        <time>2026-08-27T11:24:36.343Z</time>
      </trkpt>
      <trkpt lat="47.83752" lon="6.99077">
        <ele>981.8</ele>
        <time>2026-08-27T11:24:38.259Z</time>
      </trkpt>
      <trkpt lat="47.83751" lon="6.99077">
        <ele>982</ele>
        <time>2026-08-27T11:24:39.266Z</time>
      </trkpt>
      <trkpt lat="47.8375" lon="6.99076">
        <ele>982.1</ele>
        <time>2026-08-27T11:24:40.274Z</time>
      </trkpt>
      <trkpt lat="47.83749" lon="6.99076">
        <ele>982.5</ele>
        <time>2026-08-27T11:24:41.283Z</time>
      </trkpt>
      <trkpt lat="47.83749" lon="6.99076">
        <ele>982.9</ele>
        <time>2026-08-27T11:24:42.291Z</time>
      </trkpt>
      <trkpt lat="47.83749" lon="6.99076">
        <ele>982.9</ele>
        <time>2026-08-27T11:24:43.299Z</time>
      </trkpt>
      <trkpt lat="47.83749" lon="6.99077">
        <ele>982.9</ele>
        <time>2026-08-27T11:24:44.308Z</time>
      </trkpt>
      <trkpt lat="47.83749" lon="6.99077">
        <ele>982.9</ele>
        <time>2026-08-27T11:24:45.316Z</time>
      </trkpt>
      <trkpt lat="47.83749" lon="6.99077">
        <ele>982.9</ele>
        <time>2026-08-27T11:24:46.325Z</time>
      </trkpt>
      <trkpt lat="47.83749" lon="6.99078">
        <ele>982.9</ele>
        <time>2026-08-27T11:24:47.332Z</time>
      </trkpt>
      <trkpt lat="47.83748" lon="6.99079">
        <ele>983</ele>
        <time>2026-08-27T11:24:48.340Z</time>
      </trkpt>
      <trkpt lat="47.83748" lon="6.99081">
        <ele>982.9</ele>
        <time>2026-08-27T11:24:50.255Z</time>
      </trkpt>
      <trkpt lat="47.83747" lon="6.99082">
        <ele>982.9</ele>
        <time>2026-08-27T11:24:51.265Z</time>
      </trkpt>
      <trkpt lat="47.83746" lon="6.99083">
        <ele>982.9</ele>
        <time>2026-08-27T11:24:52.273Z</time>
      </trkpt>
      <trkpt lat="47.83744" lon="6.99083">
        <ele>983</ele>
        <time>2026-08-27T11:24:54.289Z</time>
      </trkpt>
      <trkpt lat="47.83743" lon="6.99084">
        <ele>983</ele>
        <time>2026-08-27T11:24:55.359Z</time>
      </trkpt>
      <trkpt lat="47.83742" lon="6.99085">
        <ele>983.1</ele>
        <time>2026-08-27T11:24:57.313Z</time>
      </trkpt>
      <trkpt lat="47.8374" lon="6.99086">
        <ele>983.4</ele>
        <time>2026-08-27T11:24:59.329Z</time>
      </trkpt>
      <trkpt lat="47.83738" lon="6.99087">
        <ele>983.4</ele>
        <time>2026-08-27T11:25:01.346Z</time>
      </trkpt>
      <trkpt lat="47.83736" lon="6.99088">
        <ele>983.6</ele>
        <time>2026-08-27T11:25:03.262Z</time>
      </trkpt>
      <trkpt lat="47.83735" lon="6.9909">
        <ele>983.6</ele>
        <time>2026-08-27T11:25:05.277Z</time>
      </trkpt>
      <trkpt lat="47.83734" lon="6.9909">
        <ele>983.6</ele>
        <time>2026-08-27T11:25:06.323Z</time>
      </trkpt>
      <trkpt lat="47.83733" lon="6.99091">
        <ele>983.7</ele>
        <time>2026-08-27T11:25:08.256Z</time>
      </trkpt>
      <trkpt lat="47.83732" lon="6.99091">
        <ele>983.9</ele>
        <time>2026-08-27T11:25:09.310Z</time>
      </trkpt>
      <trkpt lat="47.83731" lon="6.99092">
        <ele>983.9</ele>
        <time>2026-08-27T11:25:10.318Z</time>
      </trkpt>
      <trkpt lat="47.83731" lon="6.99092">
        <ele>984</ele>
        <time>2026-08-27T11:25:11.326Z</time>
      </trkpt>
      <trkpt lat="47.8373" lon="6.99093">
        <ele>984.1</ele>
        <time>2026-08-27T11:25:12.364Z</time>
      </trkpt>
      <trkpt lat="47.83728" lon="6.99094">
        <ele>984.2</ele>
        <time>2026-08-27T11:25:14.352Z</time>
      </trkpt>
      <trkpt lat="47.83726" lon="6.99095">
        <ele>984.4</ele>
        <time>2026-08-27T11:25:16.267Z</time>
      </trkpt>
      <trkpt lat="47.83725" lon="6.99095">
        <ele>984.4</ele>
        <time>2026-08-27T11:25:17.280Z</time>
      </trkpt>
      <trkpt lat="47.83724" lon="6.99095">
        <ele>984.6</ele>
        <time>2026-08-27T11:25:18.283Z</time>
      </trkpt>
      <trkpt lat="47.83724" lon="6.99096">
        <ele>984.6</ele>
        <time>2026-08-27T11:25:19.338Z</time>
      </trkpt>
      <trkpt lat="47.83722" lon="6.99096">
        <ele>984.8</ele>
        <time>2026-08-27T11:25:21.307Z</time>
      </trkpt>
      <trkpt lat="47.83721" lon="6.99096">
        <ele>985</ele>
        <time>2026-08-27T11:25:22.316Z</time>
      </trkpt>
      <trkpt lat="47.83721" lon="6.99097">
        <ele>985</ele>
        <time>2026-08-27T11:25:23.325Z</time>
      </trkpt>
      <trkpt lat="47.8372" lon="6.99097">
        <ele>985</ele>
        <time>2026-08-27T11:25:24.378Z</time>
      </trkpt>
      <trkpt lat="47.83719" lon="6.99098">
        <ele>985.4</ele>
        <time>2026-08-27T11:25:26.349Z</time>
      </trkpt>
      <trkpt lat="47.83718" lon="6.99098">
        <ele>985.5</ele>
        <time>2026-08-27T11:25:27.358Z</time>
      </trkpt>
      <trkpt lat="47.83717" lon="6.991">
        <ele>985.7</ele>
        <time>2026-08-27T11:25:29.272Z</time>
      </trkpt>
      <trkpt lat="47.83715" lon="6.99101">
        <ele>985.6</ele>
        <time>2026-08-27T11:25:31.288Z</time>
      </trkpt>
      <trkpt lat="47.83714" lon="6.99101">
        <ele>985.7</ele>
        <time>2026-08-27T11:25:32.297Z</time>
      </trkpt>
      <trkpt lat="47.83713" lon="6.99102">
        <ele>985.7</ele>
        <time>2026-08-27T11:25:33.306Z</time>
      </trkpt>
      <trkpt lat="47.83712" lon="6.99102">
        <ele>985.9</ele>
        <time>2026-08-27T11:25:34.313Z</time>
      </trkpt>
      <trkpt lat="47.83712" lon="6.99102">
        <ele>986</ele>
        <time>2026-08-27T11:25:35.321Z</time>
      </trkpt>
      <trkpt lat="47.83712" lon="6.99102">
        <ele>986</ele>
        <time>2026-08-27T11:25:36.360Z</time>
      </trkpt>
      <trkpt lat="47.83711" lon="6.99104">
        <ele>986.5</ele>
        <time>2026-08-27T11:25:38.347Z</time>
      </trkpt>
      <trkpt lat="47.8371" lon="6.99104">
        <ele>986.6</ele>
        <time>2026-08-27T11:25:39.355Z</time>
      </trkpt>
      <trkpt lat="47.8371" lon="6.99105">
        <ele>987.1</ele>
        <time>2026-08-27T11:25:40.363Z</time>
      </trkpt>
      <trkpt lat="47.83709" lon="6.99106">
        <ele>987.2</ele>
        <time>2026-08-27T11:25:42.279Z</time>
      </trkpt>
      <trkpt lat="47.83708" lon="6.99106">
        <ele>987.4</ele>
        <time>2026-08-27T11:25:43.287Z</time>
      </trkpt>
      <trkpt lat="47.83707" lon="6.99107">
        <ele>987.4</ele>
        <time>2026-08-27T11:25:44.295Z</time>
      </trkpt>
      <trkpt lat="47.83707" lon="6.99107">
        <ele>987.3</ele>
        <time>2026-08-27T11:25:45.302Z</time>
      </trkpt>
      <trkpt lat="47.83706" lon="6.99108">
        <ele>987.5</ele>
        <time>2026-08-27T11:25:46.310Z</time>
      </trkpt>
      <trkpt lat="47.83706" lon="6.99109">
        <ele>987.7</ele>
        <time>2026-08-27T11:25:47.319Z</time>
      </trkpt>
      <trkpt lat="47.83705" lon="6.9911">
        <ele>987.8</ele>
        <time>2026-08-27T11:25:49.335Z</time>
      </trkpt>
      <trkpt lat="47.83704" lon="6.99111">
        <ele>987.9</ele>
        <time>2026-08-27T11:25:51.339Z</time>
      </trkpt>
      <trkpt lat="47.83702" lon="6.99112">
        <ele>988.2</ele>
        <time>2026-08-27T11:25:53.267Z</time>
      </trkpt>
      <trkpt lat="47.83702" lon="6.99113">
        <ele>988.3</ele>
        <time>2026-08-27T11:25:54.276Z</time>
      </trkpt>
      <trkpt lat="47.83701" lon="6.99113">
        <ele>988.4</ele>
        <time>2026-08-27T11:25:55.284Z</time>
      </trkpt>
      <trkpt lat="47.83701" lon="6.99114">
        <ele>988.4</ele>
        <time>2026-08-27T11:25:56.291Z</time>
      </trkpt>
      <trkpt lat="47.837" lon="6.99115">
        <ele>988.5</ele>
        <time>2026-08-27T11:25:57.299Z</time>
      </trkpt>
      <trkpt lat="47.837" lon="6.99115">
        <ele>988.6</ele>
        <time>2026-08-27T11:25:58.309Z</time>
      </trkpt>
      <trkpt lat="47.837" lon="6.99116">
        <ele>988.8</ele>
        <time>2026-08-27T11:25:59.316Z</time>
      </trkpt>
      <trkpt lat="47.83699" lon="6.99116">
        <ele>988.8</ele>
        <time>2026-08-27T11:26:00.324Z</time>
      </trkpt>
      <trkpt lat="47.83698" lon="6.99116">
        <ele>989</ele>
        <time>2026-08-27T11:26:01.332Z</time>
      </trkpt>
      <trkpt lat="47.83697" lon="6.99117">
        <ele>989.1</ele>
        <time>2026-08-27T11:26:02.341Z</time>
      </trkpt>
      <trkpt lat="47.83696" lon="6.99117">
        <ele>989.1</ele>
        <time>2026-08-27T11:26:03.349Z</time>
      </trkpt>
      <trkpt lat="47.83695" lon="6.99119">
        <ele>989.3</ele>
        <time>2026-08-27T11:26:05.264Z</time>
      </trkpt>
      <trkpt lat="47.83695" lon="6.99119">
        <ele>989.5</ele>
        <time>2026-08-27T11:26:06.273Z</time>
      </trkpt>
      <trkpt lat="47.83694" lon="6.99121">
        <ele>989.5</ele>
        <time>2026-08-27T11:26:08.289Z</time>
      </trkpt>
      <trkpt lat="47.83693" lon="6.99121">
        <ele>989.6</ele>
        <time>2026-08-27T11:26:09.298Z</time>
      </trkpt>
      <trkpt lat="47.83693" lon="6.99121">
        <ele>989.6</ele>
        <time>2026-08-27T11:26:10.305Z</time>
      </trkpt>
      <trkpt lat="47.83691" lon="6.99122">
        <ele>989.8</ele>
        <time>2026-08-27T11:26:12.321Z</time>
      </trkpt>
      <trkpt lat="47.83691" lon="6.99123">
        <ele>990</ele>
        <time>2026-08-27T11:26:13.329Z</time>
      </trkpt>
      <trkpt lat="47.8369" lon="6.99123">
        <ele>990</ele>
        <time>2026-08-27T11:26:14.343Z</time>
      </trkpt>
      <trkpt lat="47.83689" lon="6.99124">
        <ele>990.2</ele>
        <time>2026-08-27T11:26:15.346Z</time>
      </trkpt>
      <trkpt lat="47.83688" lon="6.99125">
        <ele>990.3</ele>
        <time>2026-08-27T11:26:17.262Z</time>
      </trkpt>
      <trkpt lat="47.83688" lon="6.99126">
        <ele>990.5</ele>
        <time>2026-08-27T11:26:18.270Z</time>
      </trkpt>
      <trkpt lat="47.83687" lon="6.99126">
        <ele>990.5</ele>
        <time>2026-08-27T11:26:19.299Z</time>
      </trkpt>
      <trkpt lat="47.83686" lon="6.99127">
        <ele>990.8</ele>
        <time>2026-08-27T11:26:21.294Z</time>
      </trkpt>
      <trkpt lat="47.83685" lon="6.99128">
        <ele>990.8</ele>
        <time>2026-08-27T11:26:22.302Z</time>
      </trkpt>
      <trkpt lat="47.83685" lon="6.99128">
        <ele>990.7</ele>
        <time>2026-08-27T11:26:23.311Z</time>
      </trkpt>
      <trkpt lat="47.83684" lon="6.99129">
        <ele>990.9</ele>
        <time>2026-08-27T11:26:24.319Z</time>
      </trkpt>
      <trkpt lat="47.83684" lon="6.99129">
        <ele>990.9</ele>
        <time>2026-08-27T11:26:25.328Z</time>
      </trkpt>
      <trkpt lat="47.83683" lon="6.99131">
        <ele>990.9</ele>
        <time>2026-08-27T11:26:27.242Z</time>
      </trkpt>
      <trkpt lat="47.83682" lon="6.99131">
        <ele>991</ele>
        <time>2026-08-27T11:26:28.352Z</time>
      </trkpt>
      <trkpt lat="47.83681" lon="6.99132">
        <ele>991.3</ele>
        <time>2026-08-27T11:26:30.338Z</time>
      </trkpt>
      <trkpt lat="47.8368" lon="6.99133">
        <ele>991.7</ele>
        <time>2026-08-27T11:26:32.283Z</time>
      </trkpt>
      <trkpt lat="47.83679" lon="6.99133">
        <ele>991.9</ele>
        <time>2026-08-27T11:26:33.291Z</time>
      </trkpt>
      <trkpt lat="47.83678" lon="6.99132">
        <ele>992.1</ele>
        <time>2026-08-27T11:26:34.300Z</time>
      </trkpt>
      <trkpt lat="47.83677" lon="6.99133">
        <ele>992.1</ele>
        <time>2026-08-27T11:26:35.304Z</time>
      </trkpt>
      <trkpt lat="47.83677" lon="6.99133">
        <ele>992.2</ele>
        <time>2026-08-27T11:26:36.316Z</time>
      </trkpt>
      <trkpt lat="47.83676" lon="6.99133">
        <ele>992.2</ele>
        <time>2026-08-27T11:26:37.324Z</time>
      </trkpt>
      <trkpt lat="47.83675" lon="6.99133">
        <ele>992.4</ele>
        <time>2026-08-27T11:26:38.332Z</time>
      </trkpt>
      <trkpt lat="47.83675" lon="6.99134">
        <ele>992.5</ele>
        <time>2026-08-27T11:26:39.342Z</time>
      </trkpt>
      <trkpt lat="47.83674" lon="6.99134">
        <ele>992.9</ele>
        <time>2026-08-27T11:26:41.257Z</time>
      </trkpt>
      <trkpt lat="47.83674" lon="6.99135">
        <ele>993</ele>
        <time>2026-08-27T11:26:42.264Z</time>
      </trkpt>
      <trkpt lat="47.83673" lon="6.99135">
        <ele>993.1</ele>
        <time>2026-08-27T11:26:43.273Z</time>
      </trkpt>
      <trkpt lat="47.83673" lon="6.99136">
        <ele>993.2</ele>
        <time>2026-08-27T11:26:44.281Z</time>
      </trkpt>
      <trkpt lat="47.83672" lon="6.99137">
        <ele>993.4</ele>
        <time>2026-08-27T11:26:45.289Z</time>
      </trkpt>
      <trkpt lat="47.83671" lon="6.99137">
        <ele>993.6</ele>
        <time>2026-08-27T11:26:47.306Z</time>
      </trkpt>
      <trkpt lat="47.83671" lon="6.99138">
        <ele>993.7</ele>
        <time>2026-08-27T11:26:48.313Z</time>
      </trkpt>
      <trkpt lat="47.8367" lon="6.99138">
        <ele>993.9</ele>
        <time>2026-08-27T11:26:49.323Z</time>
      </trkpt>
      <trkpt lat="47.83669" lon="6.99138">
        <ele>994</ele>
        <time>2026-08-27T11:26:50.331Z</time>
      </trkpt>
      <trkpt lat="47.83669" lon="6.99138">
        <ele>994.1</ele>
        <time>2026-08-27T11:26:51.338Z</time>
      </trkpt>
      <trkpt lat="47.83668" lon="6.99139">
        <ele>994.4</ele>
        <time>2026-08-27T11:26:53.355Z</time>
      </trkpt>
      <trkpt lat="47.83667" lon="6.9914">
        <ele>994.6</ele>
        <time>2026-08-27T11:26:55.270Z</time>
      </trkpt>
      <trkpt lat="47.83667" lon="6.9914">
        <ele>994.7</ele>
        <time>2026-08-27T11:26:56.278Z</time>
      </trkpt>
      <trkpt lat="47.83666" lon="6.99141">
        <ele>994.9</ele>
        <time>2026-08-27T11:26:57.287Z</time>
      </trkpt>
      <trkpt lat="47.83665" lon="6.99141">
        <ele>995</ele>
        <time>2026-08-27T11:26:59.302Z</time>
      </trkpt>
      <trkpt lat="47.83664" lon="6.99141">
        <ele>995.3</ele>
        <time>2026-08-27T11:27:00.312Z</time>
      </trkpt>
      <trkpt lat="47.83664" lon="6.99141">
        <ele>995.4</ele>
        <time>2026-08-27T11:27:01.319Z</time>
      </trkpt>
      <trkpt lat="47.83663" lon="6.99141">
        <ele>995.5</ele>
        <time>2026-08-27T11:27:02.327Z</time>
      </trkpt>
      <trkpt lat="47.83662" lon="6.99141">
        <ele>995.5</ele>
        <time>2026-08-27T11:27:03.335Z</time>
      </trkpt>
      <trkpt lat="47.83662" lon="6.99142">
        <ele>995.7</ele>
        <time>2026-08-27T11:27:04.344Z</time>
      </trkpt>
      <trkpt lat="47.83661" lon="6.99142">
        <ele>996</ele>
        <time>2026-08-27T11:27:06.360Z</time>
      </trkpt>
      <trkpt lat="47.8366" lon="6.99143">
        <ele>996.4</ele>
        <time>2026-08-27T11:27:08.276Z</time>
      </trkpt>
      <trkpt lat="47.83659" lon="6.99143">
        <ele>996.4</ele>
        <time>2026-08-27T11:27:09.283Z</time>
      </trkpt>
      <trkpt lat="47.83659" lon="6.99143">
        <ele>996.6</ele>
        <time>2026-08-27T11:27:10.292Z</time>
      </trkpt>
      <trkpt lat="47.83658" lon="6.99143">
        <ele>996.7</ele>
        <time>2026-08-27T11:27:11.300Z</time>
      </trkpt>
      <trkpt lat="47.83658" lon="6.99143">
        <ele>996.8</ele>
        <time>2026-08-27T11:27:12.308Z</time>
      </trkpt>
      <trkpt lat="47.83657" lon="6.99143">
        <ele>997.2</ele>
        <time>2026-08-27T11:27:14.325Z</time>
      </trkpt>
      <trkpt lat="47.83656" lon="6.99143">
        <ele>997.2</ele>
        <time>2026-08-27T11:27:15.333Z</time>
      </trkpt>
      <trkpt lat="47.83655" lon="6.99144">
        <ele>997.3</ele>
        <time>2026-08-27T11:27:16.341Z</time>
      </trkpt>
      <trkpt lat="47.83655" lon="6.99144">
        <ele>997.5</ele>
        <time>2026-08-27T11:27:17.350Z</time>
      </trkpt>
      <trkpt lat="47.83654" lon="6.99144">
        <ele>997.7</ele>
        <time>2026-08-27T11:27:19.265Z</time>
      </trkpt>
      <trkpt lat="47.83653" lon="6.99145">
        <ele>997.8</ele>
        <time>2026-08-27T11:27:20.273Z</time>
      </trkpt>
      <trkpt lat="47.83653" lon="6.99146">
        <ele>997.9</ele>
        <time>2026-08-27T11:27:21.281Z</time>
      </trkpt>
      <trkpt lat="47.83652" lon="6.99146">
        <ele>998</ele>
        <time>2026-08-27T11:27:22.290Z</time>
      </trkpt>
      <trkpt lat="47.83652" lon="6.99147">
        <ele>998.3</ele>
        <time>2026-08-27T11:27:24.305Z</time>
      </trkpt>
      <trkpt lat="47.83651" lon="6.99148">
        <ele>998.3</ele>
        <time>2026-08-27T11:27:25.314Z</time>
      </trkpt>
      <trkpt lat="47.83651" lon="6.99148">
        <ele>998.4</ele>
        <time>2026-08-27T11:27:26.322Z</time>
      </trkpt>
      <trkpt lat="47.8365" lon="6.99148">
        <ele>998.6</ele>
        <time>2026-08-27T11:27:27.330Z</time>
      </trkpt>
      <trkpt lat="47.8365" lon="6.99148">
        <ele>998.6</ele>
        <time>2026-08-27T11:27:28.338Z</time>
      </trkpt>
      <trkpt lat="47.83649" lon="6.99148">
        <ele>998.8</ele>
        <time>2026-08-27T11:27:29.346Z</time>
      </trkpt>
      <trkpt lat="47.83648" lon="6.99148">
        <ele>999</ele>
        <time>2026-08-27T11:27:30.354Z</time>
      </trkpt>
      <trkpt lat="47.83647" lon="6.99147">
        <ele>999.1</ele>
        <time>2026-08-27T11:27:31.364Z</time>
      </trkpt>
      <trkpt lat="47.83646" lon="6.99148">
        <ele>999.2</ele>
        <time>2026-08-27T11:27:33.199Z</time>
      </trkpt>
      <trkpt lat="47.83646" lon="6.99148">
        <ele>999.4</ele>
        <time>2026-08-27T11:27:34.287Z</time>
      </trkpt>
      <trkpt lat="47.83646" lon="6.99148">
        <ele>999.5</ele>
        <time>2026-08-27T11:27:35.295Z</time>
      </trkpt>
      <trkpt lat="47.83645" lon="6.99148">
        <ele>999.8</ele>
        <time>2026-08-27T11:27:36.303Z</time>
      </trkpt>
      <trkpt lat="47.83644" lon="6.99149">
        <ele>999.9</ele>
        <time>2026-08-27T11:27:37.311Z</time>
      </trkpt>
      <trkpt lat="47.83644" lon="6.99149">
        <ele>999.9</ele>
        <time>2026-08-27T11:27:38.340Z</time>
      </trkpt>
      <trkpt lat="47.83643" lon="6.99148">
        <ele>1000.5</ele>
        <time>2026-08-27T11:27:40.335Z</time>
      </trkpt>
      <trkpt lat="47.83642" lon="6.99147">
        <ele>1000.6</ele>
        <time>2026-08-27T11:27:41.344Z</time>
      </trkpt>
      <trkpt lat="47.83642" lon="6.99147">
        <ele>1000.7</ele>
        <time>2026-08-27T11:27:42.352Z</time>
      </trkpt>
      <trkpt lat="47.83641" lon="6.99148">
        <ele>1001.1</ele>
        <time>2026-08-27T11:27:44.368Z</time>
      </trkpt>
      <trkpt lat="47.8364" lon="6.99149">
        <ele>1001.6</ele>
        <time>2026-08-27T11:27:46.285Z</time>
      </trkpt>
      <trkpt lat="47.83639" lon="6.9915">
        <ele>1001.7</ele>
        <time>2026-08-27T11:27:47.292Z</time>
      </trkpt>
      <trkpt lat="47.83639" lon="6.9915">
        <ele>1001.9</ele>
        <time>2026-08-27T11:27:48.300Z</time>
      </trkpt>
      <trkpt lat="47.83638" lon="6.9915">
        <ele>1002</ele>
        <time>2026-08-27T11:27:49.309Z</time>
      </trkpt>
      <trkpt lat="47.83638" lon="6.99151">
        <ele>1002.1</ele>
        <time>2026-08-27T11:27:50.316Z</time>
      </trkpt>
      <trkpt lat="47.83637" lon="6.99151">
        <ele>1002.1</ele>
        <time>2026-08-27T11:27:51.326Z</time>
      </trkpt>
      <trkpt lat="47.83636" lon="6.99151">
        <ele>1002.2</ele>
        <time>2026-08-27T11:27:52.333Z</time>
      </trkpt>
      <trkpt lat="47.83636" lon="6.9915">
        <ele>1002.3</ele>
        <time>2026-08-27T11:27:53.341Z</time>
      </trkpt>
      <trkpt lat="47.83635" lon="6.9915">
        <ele>1002.4</ele>
        <time>2026-08-27T11:27:54.349Z</time>
      </trkpt>
      <trkpt lat="47.83635" lon="6.9915">
        <ele>1002.5</ele>
        <time>2026-08-27T11:27:55.357Z</time>
      </trkpt>
      <trkpt lat="47.83634" lon="6.9915">
        <ele>1002.9</ele>
        <time>2026-08-27T11:27:57.273Z</time>
      </trkpt>
      <trkpt lat="47.83635" lon="6.99149">
        <ele>1003</ele>
        <time>2026-08-27T11:27:58.281Z</time>
      </trkpt>
      <trkpt lat="47.83635" lon="6.99149">
        <ele>1003</ele>
        <time>2026-08-27T11:27:59.290Z</time>
      </trkpt>
      <trkpt lat="47.83635" lon="6.9915">
        <ele>1003</ele>
        <time>2026-08-27T11:28:00.298Z</time>
      </trkpt>
      <trkpt lat="47.83635" lon="6.9915">
        <ele>1003.1</ele>
        <time>2026-08-27T11:28:01.307Z</time>
      </trkpt>
      <trkpt lat="47.83635" lon="6.9915">
        <ele>1003.1</ele>
        <time>2026-08-27T11:28:02.314Z</time>
      </trkpt>
      <trkpt lat="47.83635" lon="6.9915">
        <ele>1003.1</ele>
        <time>2026-08-27T11:28:03.323Z</time>
      </trkpt>
      <trkpt lat="47.83635" lon="6.9915">
        <ele>1003.1</ele>
        <time>2026-08-27T11:28:04.344Z</time>
      </trkpt>
      <trkpt lat="47.83634" lon="6.99152">
        <ele>1003.1</ele>
        <time>2026-08-27T11:28:05.982Z</time>
      </trkpt>
      <trkpt lat="47.83632" lon="6.99152">
        <ele>1003.2</ele>
        <time>2026-08-27T11:28:07.254Z</time>
      </trkpt>
      <trkpt lat="47.83631" lon="6.99153">
        <ele>1003.2</ele>
        <time>2026-08-27T11:28:08.258Z</time>
      </trkpt>
      <trkpt lat="47.83631" lon="6.99153">
        <ele>1003.4</ele>
        <time>2026-08-27T11:28:09.271Z</time>
      </trkpt>
      <trkpt lat="47.8363" lon="6.99153">
        <ele>1003.5</ele>
        <time>2026-08-27T11:28:10.280Z</time>
      </trkpt>
      <trkpt lat="47.83629" lon="6.99153">
        <ele>1003.6</ele>
        <time>2026-08-27T11:28:11.287Z</time>
      </trkpt>
      <trkpt lat="47.83627" lon="6.99153">
        <ele>1004</ele>
        <time>2026-08-27T11:28:13.303Z</time>
      </trkpt>
      <trkpt lat="47.83627" lon="6.99153">
        <ele>1004</ele>
        <time>2026-08-27T11:28:14.312Z</time>
      </trkpt>
      <trkpt lat="47.83626" lon="6.99154">
        <ele>1004.2</ele>
        <time>2026-08-27T11:28:16.328Z</time>
      </trkpt>
      <trkpt lat="47.83625" lon="6.99154">
        <ele>1004.3</ele>
        <time>2026-08-27T11:28:17.337Z</time>
      </trkpt>
      <trkpt lat="47.83624" lon="6.99155">
        <ele>1004.4</ele>
        <time>2026-08-27T11:28:18.344Z</time>
      </trkpt>
      <trkpt lat="47.83624" lon="6.99155">
        <ele>1004.4</ele>
        <time>2026-08-27T11:28:19.353Z</time>
      </trkpt>
      <trkpt lat="47.83622" lon="6.99156">
        <ele>1004.6</ele>
        <time>2026-08-27T11:28:21.268Z</time>
      </trkpt>
      <trkpt lat="47.83622" lon="6.99156">
        <ele>1004.8</ele>
        <time>2026-08-27T11:28:22.277Z</time>
      </trkpt>
      <trkpt lat="47.83621" lon="6.99157">
        <ele>1004.8</ele>
        <time>2026-08-27T11:28:24.292Z</time>
      </trkpt>
      <trkpt lat="47.8362" lon="6.99157">
        <ele>1005</ele>
        <time>2026-08-27T11:28:25.301Z</time>
      </trkpt>
      <trkpt lat="47.83619" lon="6.99157">
        <ele>1005.2</ele>
        <time>2026-08-27T11:28:27.317Z</time>
      </trkpt>
      <trkpt lat="47.83618" lon="6.99158">
        <ele>1005.4</ele>
        <time>2026-08-27T11:28:28.325Z</time>
      </trkpt>
      <trkpt lat="47.83618" lon="6.99158">
        <ele>1005.6</ele>
        <time>2026-08-27T11:28:29.333Z</time>
      </trkpt>
      <trkpt lat="47.83617" lon="6.99159">
        <ele>1005.7</ele>
        <time>2026-08-27T11:28:30.341Z</time>
      </trkpt>
      <trkpt lat="47.83617" lon="6.99159">
        <ele>1005.8</ele>
        <time>2026-08-27T11:28:31.350Z</time>
      </trkpt>
      <trkpt lat="47.83616" lon="6.9916">
        <ele>1006.1</ele>
        <time>2026-08-27T11:28:33.266Z</time>
      </trkpt>
      <trkpt lat="47.83614" lon="6.99161">
        <ele>1006.3</ele>
        <time>2026-08-27T11:28:35.282Z</time>
      </trkpt>
      <trkpt lat="47.83614" lon="6.99161">
        <ele>1006.6</ele>
        <time>2026-08-27T11:28:36.290Z</time>
      </trkpt>
      <trkpt lat="47.83613" lon="6.99161">
        <ele>1006.7</ele>
        <time>2026-08-27T11:28:37.379Z</time>
      </trkpt>
      <trkpt lat="47.83611" lon="6.9916">
        <ele>1007</ele>
        <time>2026-08-27T11:28:39.315Z</time>
      </trkpt>
      <trkpt lat="47.8361" lon="6.9916">
        <ele>1007.1</ele>
        <time>2026-08-27T11:28:40.322Z</time>
      </trkpt>
      <trkpt lat="47.8361" lon="6.9916">
        <ele>1007.1</ele>
        <time>2026-08-27T11:28:41.332Z</time>
      </trkpt>
      <trkpt lat="47.83609" lon="6.9916">
        <ele>1007</ele>
        <time>2026-08-27T11:28:42.339Z</time>
      </trkpt>
      <trkpt lat="47.83608" lon="6.9916">
        <ele>1007.2</ele>
        <time>2026-08-27T11:28:44.284Z</time>
      </trkpt>
      <trkpt lat="47.83607" lon="6.99161">
        <ele>1007.4</ele>
        <time>2026-08-27T11:28:46.271Z</time>
      </trkpt>
      <trkpt lat="47.83607" lon="6.99162">
        <ele>1007.5</ele>
        <time>2026-08-27T11:28:47.279Z</time>
      </trkpt>
      <trkpt lat="47.83606" lon="6.99162">
        <ele>1007.5</ele>
        <time>2026-08-27T11:28:48.301Z</time>
      </trkpt>
      <trkpt lat="47.83605" lon="6.99163">
        <ele>1007.9</ele>
        <time>2026-08-27T11:28:50.304Z</time>
      </trkpt>
      <trkpt lat="47.83604" lon="6.99164">
        <ele>1007.9</ele>
        <time>2026-08-27T11:28:51.313Z</time>
      </trkpt>
      <trkpt lat="47.83603" lon="6.99164">
        <ele>1008</ele>
        <time>2026-08-27T11:28:52.320Z</time>
      </trkpt>
      <trkpt lat="47.83603" lon="6.99164">
        <ele>1008.1</ele>
        <time>2026-08-27T11:28:53.328Z</time>
      </trkpt>
      <trkpt lat="47.83602" lon="6.99164">
        <ele>1008.2</ele>
        <time>2026-08-27T11:28:54.337Z</time>
      </trkpt>
      <trkpt lat="47.83602" lon="6.99164">
        <ele>1008.3</ele>
        <time>2026-08-27T11:28:55.345Z</time>
      </trkpt>
      <trkpt lat="47.83601" lon="6.99164">
        <ele>1008.4</ele>
        <time>2026-08-27T11:28:56.354Z</time>
      </trkpt>
      <trkpt lat="47.836" lon="6.99164">
        <ele>1008.6</ele>
        <time>2026-08-27T11:28:58.269Z</time>
      </trkpt>
      <trkpt lat="47.83599" lon="6.99165">
        <ele>1008.7</ele>
        <time>2026-08-27T11:28:59.276Z</time>
      </trkpt>
      <trkpt lat="47.83598" lon="6.99165">
        <ele>1008.7</ele>
        <time>2026-08-27T11:29:00.285Z</time>
      </trkpt>
      <trkpt lat="47.83597" lon="6.99167">
        <ele>1009</ele>
        <time>2026-08-27T11:29:02.302Z</time>
      </trkpt>
      <trkpt lat="47.83597" lon="6.99167">
        <ele>1009.1</ele>
        <time>2026-08-27T11:29:03.309Z</time>
      </trkpt>
      <trkpt lat="47.83595" lon="6.99167">
        <ele>1009.4</ele>
        <time>2026-08-27T11:29:05.326Z</time>
      </trkpt>
      <trkpt lat="47.83594" lon="6.99167">
        <ele>1009.6</ele>
        <time>2026-08-27T11:29:06.335Z</time>
      </trkpt>
      <trkpt lat="47.83594" lon="6.99167">
        <ele>1009.6</ele>
        <time>2026-08-27T11:29:07.342Z</time>
      </trkpt>
      <trkpt lat="47.83592" lon="6.99167">
        <ele>1009.8</ele>
        <time>2026-08-27T11:29:09.359Z</time>
      </trkpt>
      <trkpt lat="47.83592" lon="6.99167">
        <ele>1010</ele>
        <time>2026-08-27T11:29:10.367Z</time>
      </trkpt>
      <trkpt lat="47.8359" lon="6.99168">
        <ele>1010.2</ele>
        <time>2026-08-27T11:29:12.177Z</time>
      </trkpt>
      <trkpt lat="47.8359" lon="6.99169">
        <ele>1010.3</ele>
        <time>2026-08-27T11:29:13.291Z</time>
      </trkpt>
      <trkpt lat="47.83589" lon="6.9917">
        <ele>1010.5</ele>
        <time>2026-08-27T11:29:14.299Z</time>
      </trkpt>
      <trkpt lat="47.83589" lon="6.99171">
        <ele>1010.6</ele>
        <time>2026-08-27T11:29:15.307Z</time>
      </trkpt>
      <trkpt lat="47.8359" lon="6.99172">
        <ele>1010.9</ele>
        <time>2026-08-27T11:29:16.315Z</time>
      </trkpt>
      <trkpt lat="47.8359" lon="6.99173">
        <ele>1011</ele>
        <time>2026-08-27T11:29:17.323Z</time>
      </trkpt>
      <trkpt lat="47.8359" lon="6.99173">
        <ele>1011</ele>
        <time>2026-08-27T11:29:18.331Z</time>
      </trkpt>
      <trkpt lat="47.8359" lon="6.99172">
        <ele>1011.1</ele>
        <time>2026-08-27T11:29:19.340Z</time>
      </trkpt>
      <trkpt lat="47.83589" lon="6.99172">
        <ele>1011.1</ele>
        <time>2026-08-27T11:29:20.349Z</time>
      </trkpt>
      <trkpt lat="47.83589" lon="6.99171">
        <ele>1011.1</ele>
        <time>2026-08-27T11:29:22.365Z</time>
      </trkpt>
      <trkpt lat="47.83589" lon="6.99171">
        <ele>1011</ele>
        <time>2026-08-27T11:29:24.280Z</time>
      </trkpt>
      <trkpt lat="47.83589" lon="6.99171">
        <ele>1011</ele>
        <time>2026-08-27T11:29:25.288Z</time>
      </trkpt>
      <trkpt lat="47.83589" lon="6.99171">
        <ele>1010.9</ele>
        <time>2026-08-27T11:29:26.296Z</time>
      </trkpt>
      <trkpt lat="47.83589" lon="6.99171">
        <ele>1010.9</ele>
        <time>2026-08-27T11:29:27.304Z</time>
      </trkpt>
      <trkpt lat="47.83589" lon="6.99171">
        <ele>1010.8</ele>
        <time>2026-08-27T11:29:28.312Z</time>
      </trkpt>
      <trkpt lat="47.83589" lon="6.99171">
        <ele>1010.8</ele>
        <time>2026-08-27T11:29:29.322Z</time>
      </trkpt>
      <trkpt lat="47.83589" lon="6.99171">
        <ele>1010.8</ele>
        <time>2026-08-27T11:29:30.330Z</time>
      </trkpt>
      <trkpt lat="47.8359" lon="6.99171">
        <ele>1010.8</ele>
        <time>2026-08-27T11:29:31.337Z</time>
      </trkpt>
      <trkpt lat="47.8359" lon="6.99171">
        <ele>1010.8</ele>
        <time>2026-08-27T11:29:32.345Z</time>
      </trkpt>
      <trkpt lat="47.83589" lon="6.99171">
        <ele>1010.6</ele>
        <time>2026-08-27T11:29:34.362Z</time>
      </trkpt>
      <trkpt lat="47.83589" lon="6.99171">
        <ele>1010.8</ele>
        <time>2026-08-27T11:29:36.278Z</time>
      </trkpt>
      <trkpt lat="47.83588" lon="6.99172">
        <ele>1011</ele>
        <time>2026-08-27T11:29:37.285Z</time>
      </trkpt>
      <trkpt lat="47.83587" lon="6.99172">
        <ele>1010.7</ele>
        <time>2026-08-27T11:29:38.294Z</time>
      </trkpt>
      <trkpt lat="47.83586" lon="6.99173">
        <ele>1011</ele>
        <time>2026-08-27T11:29:39.303Z</time>
      </trkpt>
      <trkpt lat="47.83584" lon="6.99174">
        <ele>1011.1</ele>
        <time>2026-08-27T11:29:40.357Z</time>
      </trkpt>
      <trkpt lat="47.83583" lon="6.99175">
        <ele>1011.4</ele>
        <time>2026-08-27T11:29:42.326Z</time>
      </trkpt>
      <trkpt lat="47.83582" lon="6.99175">
        <ele>1011.6</ele>
        <time>2026-08-27T11:29:43.335Z</time>
      </trkpt>
      <trkpt lat="47.83581" lon="6.99175">
        <ele>1011.9</ele>
        <time>2026-08-27T11:29:44.343Z</time>
      </trkpt>
      <trkpt lat="47.8358" lon="6.99176">
        <ele>1012.1</ele>
        <time>2026-08-27T11:29:45.351Z</time>
      </trkpt>
      <trkpt lat="47.83578" lon="6.99177">
        <ele>1012.2</ele>
        <time>2026-08-27T11:29:47.266Z</time>
      </trkpt>
      <trkpt lat="47.83577" lon="6.99178">
        <ele>1012.3</ele>
        <time>2026-08-27T11:29:48.275Z</time>
      </trkpt>
      <trkpt lat="47.83577" lon="6.99179">
        <ele>1012.3</ele>
        <time>2026-08-27T11:29:49.284Z</time>
      </trkpt>
      <trkpt lat="47.83575" lon="6.9918">
        <ele>1012.8</ele>
        <time>2026-08-27T11:29:51.300Z</time>
      </trkpt>
      <trkpt lat="47.83575" lon="6.99181">
        <ele>1012.6</ele>
        <time>2026-08-27T11:29:52.307Z</time>
      </trkpt>
      <trkpt lat="47.83574" lon="6.99182">
        <ele>1012.5</ele>
        <time>2026-08-27T11:29:54.325Z</time>
      </trkpt>
      <trkpt lat="47.83573" lon="6.99183">
        <ele>1012.7</ele>
        <time>2026-08-27T11:29:55.333Z</time>
      </trkpt>
      <trkpt lat="47.83573" lon="6.99183">
        <ele>1012.7</ele>
        <time>2026-08-27T11:29:56.341Z</time>
      </trkpt>
      <trkpt lat="47.83572" lon="6.99185">
        <ele>1012.7</ele>
        <time>2026-08-27T11:29:58.256Z</time>
      </trkpt>
      <trkpt lat="47.83571" lon="6.99185">
        <ele>1012.8</ele>
        <time>2026-08-27T11:29:59.265Z</time>
      </trkpt>
      <trkpt lat="47.8357" lon="6.99187">
        <ele>1013</ele>
        <time>2026-08-27T11:30:01.280Z</time>
      </trkpt>
      <trkpt lat="47.83569" lon="6.99188">
        <ele>1013.1</ele>
        <time>2026-08-27T11:30:02.288Z</time>
      </trkpt>
      <trkpt lat="47.83569" lon="6.99189">
        <ele>1013.2</ele>
        <time>2026-08-27T11:30:03.297Z</time>
      </trkpt>
      <trkpt lat="47.83569" lon="6.9919">
        <ele>1013.2</ele>
        <time>2026-08-27T11:30:04.305Z</time>
      </trkpt>
      <trkpt lat="47.83568" lon="6.99191">
        <ele>1013.3</ele>
        <time>2026-08-27T11:30:05.314Z</time>
      </trkpt>
      <trkpt lat="47.83568" lon="6.99192">
        <ele>1013.4</ele>
        <time>2026-08-27T11:30:06.321Z</time>
      </trkpt>
      <trkpt lat="47.83567" lon="6.99192">
        <ele>1013.6</ele>
        <time>2026-08-27T11:30:07.329Z</time>
      </trkpt>
      <trkpt lat="47.83567" lon="6.99193">
        <ele>1013.6</ele>
        <time>2026-08-27T11:30:08.338Z</time>
      </trkpt>
      <trkpt lat="47.83566" lon="6.99194">
        <ele>1013.7</ele>
        <time>2026-08-27T11:30:09.346Z</time>
      </trkpt>
      <trkpt lat="47.83565" lon="6.99196">
        <ele>1013.7</ele>
        <time>2026-08-27T11:30:11.225Z</time>
      </trkpt>
      <trkpt lat="47.83565" lon="6.99196">
        <ele>1013.9</ele>
        <time>2026-08-27T11:30:12.270Z</time>
      </trkpt>
      <trkpt lat="47.83564" lon="6.99197">
        <ele>1014</ele>
        <time>2026-08-27T11:30:13.279Z</time>
      </trkpt>
      <trkpt lat="47.83564" lon="6.99198">
        <ele>1014.1</ele>
        <time>2026-08-27T11:30:14.287Z</time>
      </trkpt>
      <trkpt lat="47.83563" lon="6.99199">
        <ele>1014.1</ele>
        <time>2026-08-27T11:30:15.294Z</time>
      </trkpt>
      <trkpt lat="47.83563" lon="6.99199">
        <ele>1014.2</ele>
        <time>2026-08-27T11:30:16.302Z</time>
      </trkpt>
      <trkpt lat="47.83562" lon="6.992">
        <ele>1014.3</ele>
        <time>2026-08-27T11:30:17.311Z</time>
      </trkpt>
      <trkpt lat="47.83562" lon="6.99201">
        <ele>1014.8</ele>
        <time>2026-08-27T11:30:18.319Z</time>
      </trkpt>
      <trkpt lat="47.83561" lon="6.99201">
        <ele>1014.9</ele>
        <time>2026-08-27T11:30:19.327Z</time>
      </trkpt>
      <trkpt lat="47.8356" lon="6.99202">
        <ele>1015</ele>
        <time>2026-08-27T11:30:20.336Z</time>
      </trkpt>
      <trkpt lat="47.8356" lon="6.99202">
        <ele>1014.8</ele>
        <time>2026-08-27T11:30:21.343Z</time>
      </trkpt>
      <trkpt lat="47.8356" lon="6.99203">
        <ele>1015.1</ele>
        <time>2026-08-27T11:30:22.353Z</time>
      </trkpt>
      <trkpt lat="47.83559" lon="6.99206">
        <ele>1015.3</ele>
        <time>2026-08-27T11:30:24.268Z</time>
      </trkpt>
      <trkpt lat="47.83559" lon="6.99207">
        <ele>1015.3</ele>
        <time>2026-08-27T11:30:25.339Z</time>
      </trkpt>
      <trkpt lat="47.83558" lon="6.99209">
        <ele>1015.7</ele>
        <time>2026-08-27T11:30:27.292Z</time>
      </trkpt>
      <trkpt lat="47.83558" lon="6.9921">
        <ele>1015.8</ele>
        <time>2026-08-27T11:30:28.301Z</time>
      </trkpt>
      <trkpt lat="47.83558" lon="6.99211">
        <ele>1015.8</ele>
        <time>2026-08-27T11:30:29.363Z</time>
      </trkpt>
      <trkpt lat="47.83557" lon="6.99213">
        <ele>1016.2</ele>
        <time>2026-08-27T11:30:31.324Z</time>
      </trkpt>
      <trkpt lat="47.83556" lon="6.99214">
        <ele>1016.3</ele>
        <time>2026-08-27T11:30:32.334Z</time>
      </trkpt>
      <trkpt lat="47.83556" lon="6.99216">
        <ele>1016.4</ele>
        <time>2026-08-27T11:30:34.350Z</time>
      </trkpt>
      <trkpt lat="47.83555" lon="6.99217">
        <ele>1016.5</ele>
        <time>2026-08-27T11:30:35.358Z</time>
      </trkpt>
      <trkpt lat="47.83554" lon="6.99218">
        <ele>1016.7</ele>
        <time>2026-08-27T11:30:37.273Z</time>
      </trkpt>
      <trkpt lat="47.83554" lon="6.9922">
        <ele>1016.9</ele>
        <time>2026-08-27T11:30:39.289Z</time>
      </trkpt>
      <trkpt lat="47.83553" lon="6.9922">
        <ele>1017</ele>
        <time>2026-08-27T11:30:40.298Z</time>
      </trkpt>
      <trkpt lat="47.83553" lon="6.99221">
        <ele>1017</ele>
        <time>2026-08-27T11:30:41.306Z</time>
      </trkpt>
      <trkpt lat="47.83552" lon="6.99222">
        <ele>1017.1</ele>
        <time>2026-08-27T11:30:42.314Z</time>
      </trkpt>
      <trkpt lat="47.83552" lon="6.99223">
        <ele>1017.2</ele>
        <time>2026-08-27T11:30:43.323Z</time>
      </trkpt>
      <trkpt lat="47.83552" lon="6.99224">
        <ele>1017.3</ele>
        <time>2026-08-27T11:30:44.331Z</time>
      </trkpt>
      <trkpt lat="47.83551" lon="6.99224">
        <ele>1017.4</ele>
        <time>2026-08-27T11:30:45.338Z</time>
      </trkpt>
      <trkpt lat="47.83551" lon="6.99225">
        <ele>1017.5</ele>
        <time>2026-08-27T11:30:46.347Z</time>
      </trkpt>
      <trkpt lat="47.83551" lon="6.99225">
        <ele>1017.5</ele>
        <time>2026-08-27T11:30:47.355Z</time>
      </trkpt>
      <trkpt lat="47.8355" lon="6.99226">
        <ele>1017.6</ele>
        <time>2026-08-27T11:30:48.363Z</time>
      </trkpt>
      <trkpt lat="47.83549" lon="6.99227">
        <ele>1017.8</ele>
        <time>2026-08-27T11:30:50.279Z</time>
      </trkpt>
      <trkpt lat="47.83549" lon="6.99228">
        <ele>1017.8</ele>
        <time>2026-08-27T11:30:51.341Z</time>
      </trkpt>
      <trkpt lat="47.83549" lon="6.9923">
        <ele>1018.3</ele>
        <time>2026-08-27T11:30:53.304Z</time>
      </trkpt>
      <trkpt lat="47.83548" lon="6.9923">
        <ele>1018.3</ele>
        <time>2026-08-27T11:30:54.311Z</time>
      </trkpt>
      <trkpt lat="47.83548" lon="6.99231">
        <ele>1018.6</ele>
        <time>2026-08-27T11:30:55.321Z</time>
      </trkpt>
      <trkpt lat="47.83548" lon="6.99231">
        <ele>1018.7</ele>
        <time>2026-08-27T11:30:56.328Z</time>
      </trkpt>
      <trkpt lat="47.83547" lon="6.99233">
        <ele>1018.8</ele>
        <time>2026-08-27T11:30:58.243Z</time>
      </trkpt>
      <trkpt lat="47.83547" lon="6.99234">
        <ele>1018.9</ele>
        <time>2026-08-27T11:30:59.353Z</time>
      </trkpt>
      <trkpt lat="47.83547" lon="6.99236">
        <ele>1019.2</ele>
        <time>2026-08-27T11:31:01.269Z</time>
      </trkpt>
      <trkpt lat="47.83547" lon="6.99237">
        <ele>1019.5</ele>
        <time>2026-08-27T11:31:02.276Z</time>
      </trkpt>
      <trkpt lat="47.83546" lon="6.99238">
        <ele>1019.4</ele>
        <time>2026-08-27T11:31:03.284Z</time>
      </trkpt>
      <trkpt lat="47.83546" lon="6.99239">
        <ele>1019.7</ele>
        <time>2026-08-27T11:31:04.292Z</time>
      </trkpt>
      <trkpt lat="47.83546" lon="6.9924">
        <ele>1019.6</ele>
        <time>2026-08-27T11:31:05.301Z</time>
      </trkpt>
      <trkpt lat="47.83546" lon="6.99241">
        <ele>1019.6</ele>
        <time>2026-08-27T11:31:06.380Z</time>
      </trkpt>
      <trkpt lat="47.83545" lon="6.99242">
        <ele>1019.9</ele>
        <time>2026-08-27T11:31:08.325Z</time>
      </trkpt>
      <trkpt lat="47.83545" lon="6.99243">
        <ele>1019.7</ele>
        <time>2026-08-27T11:31:09.333Z</time>
      </trkpt>
      <trkpt lat="47.83545" lon="6.99244">
        <ele>1019.8</ele>
        <time>2026-08-27T11:31:10.342Z</time>
      </trkpt>
      <trkpt lat="47.83544" lon="6.99245">
        <ele>1020</ele>
        <time>2026-08-27T11:31:11.351Z</time>
      </trkpt>
      <trkpt lat="47.83544" lon="6.99245">
        <ele>1020.1</ele>
        <time>2026-08-27T11:31:12.358Z</time>
      </trkpt>
      <trkpt lat="47.83543" lon="6.99247">
        <ele>1020.4</ele>
        <time>2026-08-27T11:31:14.274Z</time>
      </trkpt>
      <trkpt lat="47.83543" lon="6.99248">
        <ele>1020.4</ele>
        <time>2026-08-27T11:31:15.282Z</time>
      </trkpt>
      <trkpt lat="47.83542" lon="6.9925">
        <ele>1020.6</ele>
        <time>2026-08-27T11:31:17.298Z</time>
      </trkpt>
      <trkpt lat="47.83542" lon="6.99251">
        <ele>1020.7</ele>
        <time>2026-08-27T11:31:18.306Z</time>
      </trkpt>
      <trkpt lat="47.83542" lon="6.99252">
        <ele>1020.8</ele>
        <time>2026-08-27T11:31:19.315Z</time>
      </trkpt>
      <trkpt lat="47.83541" lon="6.99253">
        <ele>1020.8</ele>
        <time>2026-08-27T11:31:20.323Z</time>
      </trkpt>
      <trkpt lat="47.83541" lon="6.99253">
        <ele>1020.9</ele>
        <time>2026-08-27T11:31:21.331Z</time>
      </trkpt>
      <trkpt lat="47.8354" lon="6.99254">
        <ele>1021</ele>
        <time>2026-08-27T11:31:22.340Z</time>
      </trkpt>
      <trkpt lat="47.83539" lon="6.99256">
        <ele>1021.2</ele>
        <time>2026-08-27T11:31:24.256Z</time>
      </trkpt>
      <trkpt lat="47.83539" lon="6.99257">
        <ele>1021.3</ele>
        <time>2026-08-27T11:31:25.364Z</time>
      </trkpt>
      <trkpt lat="47.83538" lon="6.99259">
        <ele>1021.4</ele>
        <time>2026-08-27T11:31:27.216Z</time>
      </trkpt>
      <trkpt lat="47.83538" lon="6.9926">
        <ele>1021.5</ele>
        <time>2026-08-27T11:31:28.289Z</time>
      </trkpt>
      <trkpt lat="47.83537" lon="6.99261">
        <ele>1021.6</ele>
        <time>2026-08-27T11:31:29.296Z</time>
      </trkpt>
      <trkpt lat="47.83537" lon="6.99261">
        <ele>1021.6</ele>
        <time>2026-08-27T11:31:30.359Z</time>
      </trkpt>
      <trkpt lat="47.83536" lon="6.99262">
        <ele>1021.9</ele>
        <time>2026-08-27T11:31:32.320Z</time>
      </trkpt>
      <trkpt lat="47.83536" lon="6.99263">
        <ele>1022</ele>
        <time>2026-08-27T11:31:33.330Z</time>
      </trkpt>
      <trkpt lat="47.83535" lon="6.99263">
        <ele>1022</ele>
        <time>2026-08-27T11:31:34.337Z</time>
      </trkpt>
      <trkpt lat="47.83534" lon="6.99264">
        <ele>1022</ele>
        <time>2026-08-27T11:31:35.359Z</time>
      </trkpt>
      <trkpt lat="47.83533" lon="6.99265">
        <ele>1022.3</ele>
        <time>2026-08-27T11:31:37.261Z</time>
      </trkpt>
      <trkpt lat="47.83533" lon="6.99266">
        <ele>1022.5</ele>
        <time>2026-08-27T11:31:38.269Z</time>
      </trkpt>
      <trkpt lat="47.83532" lon="6.99266">
        <ele>1022.6</ele>
        <time>2026-08-27T11:31:39.277Z</time>
      </trkpt>
      <trkpt lat="47.83531" lon="6.99268">
        <ele>1022.9</ele>
        <time>2026-08-27T11:31:41.293Z</time>
      </trkpt>
      <trkpt lat="47.83531" lon="6.99269">
        <ele>1023.1</ele>
        <time>2026-08-27T11:31:42.303Z</time>
      </trkpt>
      <trkpt lat="47.8353" lon="6.9927">
        <ele>1023.3</ele>
        <time>2026-08-27T11:31:44.318Z</time>
      </trkpt>
      <trkpt lat="47.83529" lon="6.99271">
        <ele>1023.6</ele>
        <time>2026-08-27T11:31:45.326Z</time>
      </trkpt>
      <trkpt lat="47.83528" lon="6.99271">
        <ele>1023.6</ele>
        <time>2026-08-27T11:31:46.334Z</time>
      </trkpt>
      <trkpt lat="47.83528" lon="6.99272">
        <ele>1023.9</ele>
        <time>2026-08-27T11:31:47.381Z</time>
      </trkpt>
      <trkpt lat="47.83527" lon="6.99273">
        <ele>1024.2</ele>
        <time>2026-08-27T11:31:49.258Z</time>
      </trkpt>
      <trkpt lat="47.83526" lon="6.99274">
        <ele>1024.4</ele>
        <time>2026-08-27T11:31:50.266Z</time>
      </trkpt>
      <trkpt lat="47.83526" lon="6.99275">
        <ele>1024.7</ele>
        <time>2026-08-27T11:31:51.275Z</time>
      </trkpt>
      <trkpt lat="47.83525" lon="6.99275">
        <ele>1024.7</ele>
        <time>2026-08-27T11:31:52.283Z</time>
      </trkpt>
      <trkpt lat="47.83525" lon="6.99276">
        <ele>1024.8</ele>
        <time>2026-08-27T11:31:53.291Z</time>
      </trkpt>
      <trkpt lat="47.83525" lon="6.99277">
        <ele>1024.9</ele>
        <time>2026-08-27T11:31:54.300Z</time>
      </trkpt>
      <trkpt lat="47.83524" lon="6.99278">
        <ele>1024.9</ele>
        <time>2026-08-27T11:31:55.320Z</time>
      </trkpt>
      <trkpt lat="47.83524" lon="6.9928">
        <ele>1025.1</ele>
        <time>2026-08-27T11:31:57.325Z</time>
      </trkpt>
      <trkpt lat="47.83523" lon="6.99281">
        <ele>1025.2</ele>
        <time>2026-08-27T11:31:58.332Z</time>
      </trkpt>
      <trkpt lat="47.83523" lon="6.99282">
        <ele>1025.3</ele>
        <time>2026-08-27T11:31:59.341Z</time>
      </trkpt>
      <trkpt lat="47.83523" lon="6.99283">
        <ele>1025.4</ele>
        <time>2026-08-27T11:32:00.349Z</time>
      </trkpt>
      <trkpt lat="47.83523" lon="6.99284">
        <ele>1025.6</ele>
        <time>2026-08-27T11:32:01.357Z</time>
      </trkpt>
      <trkpt lat="47.83524" lon="6.99285">
        <ele>1025.7</ele>
        <time>2026-08-27T11:32:03.272Z</time>
      </trkpt>
      <trkpt lat="47.83524" lon="6.99284">
        <ele>1025.7</ele>
        <time>2026-08-27T11:32:04.280Z</time>
      </trkpt>
      <trkpt lat="47.83523" lon="6.99284">
        <ele>1025.7</ele>
        <time>2026-08-27T11:32:05.290Z</time>
      </trkpt>
      <trkpt lat="47.83523" lon="6.99284">
        <ele>1025.7</ele>
        <time>2026-08-27T11:32:06.298Z</time>
      </trkpt>
      <trkpt lat="47.83523" lon="6.99285">
        <ele>1025.7</ele>
        <time>2026-08-27T11:32:07.305Z</time>
      </trkpt>
      <trkpt lat="47.83523" lon="6.99284">
        <ele>1025.6</ele>
        <time>2026-08-27T11:32:08.313Z</time>
      </trkpt>
      <trkpt lat="47.83523" lon="6.99284">
        <ele>1025.6</ele>
        <time>2026-08-27T11:32:09.321Z</time>
      </trkpt>
      <trkpt lat="47.83523" lon="6.99284">
        <ele>1025.6</ele>
        <time>2026-08-27T11:32:10.330Z</time>
      </trkpt>
      <trkpt lat="47.83523" lon="6.99284">
        <ele>1025.5</ele>
        <time>2026-08-27T11:32:11.339Z</time>
      </trkpt>
      <trkpt lat="47.83523" lon="6.99284">
        <ele>1025.4</ele>
        <time>2026-08-27T11:32:12.346Z</time>
      </trkpt>
      <trkpt lat="47.83523" lon="6.99284">
        <ele>1025.4</ele>
        <time>2026-08-27T11:32:13.354Z</time>
      </trkpt>
      <trkpt lat="47.83523" lon="6.99284">
        <ele>1025.5</ele>
        <time>2026-08-27T11:32:14.362Z</time>
      </trkpt>
      <trkpt lat="47.83523" lon="6.99284">
        <ele>1025.3</ele>
        <time>2026-08-27T11:32:16.279Z</time>
      </trkpt>
      <trkpt lat="47.83523" lon="6.99284">
        <ele>1025.4</ele>
        <time>2026-08-27T11:32:18.294Z</time>
      </trkpt>
      <trkpt lat="47.83522" lon="6.99284">
        <ele>1025.4</ele>
        <time>2026-08-27T11:32:20.312Z</time>
      </trkpt>
      <trkpt lat="47.83522" lon="6.99285">
        <ele>1025.4</ele>
        <time>2026-08-27T11:32:21.319Z</time>
      </trkpt>
      <trkpt lat="47.83521" lon="6.99287">
        <ele>1025.4</ele>
        <time>2026-08-27T11:32:22.327Z</time>
      </trkpt>
      <trkpt lat="47.8352" lon="6.99289">
        <ele>1025.5</ele>
        <time>2026-08-27T11:32:23.336Z</time>
      </trkpt>
      <trkpt lat="47.83519" lon="6.9929">
        <ele>1025.4</ele>
        <time>2026-08-27T11:32:24.345Z</time>
      </trkpt>
      <trkpt lat="47.83518" lon="6.99291">
        <ele>1025.6</ele>
        <time>2026-08-27T11:32:25.353Z</time>
      </trkpt>
      <trkpt lat="47.83517" lon="6.99293">
        <ele>1025.8</ele>
        <time>2026-08-27T11:32:27.339Z</time>
      </trkpt>
      <trkpt lat="47.83515" lon="6.99295">
        <ele>1025.9</ele>
        <time>2026-08-27T11:32:29.284Z</time>
      </trkpt>
      <trkpt lat="47.83515" lon="6.99296">
        <ele>1025.9</ele>
        <time>2026-08-27T11:32:30.292Z</time>
      </trkpt>
      <trkpt lat="47.83514" lon="6.99297">
        <ele>1026</ele>
        <time>2026-08-27T11:32:31.301Z</time>
      </trkpt>
      <trkpt lat="47.83513" lon="6.99299">
        <ele>1026.1</ele>
        <time>2026-08-27T11:32:33.317Z</time>
      </trkpt>
      <trkpt lat="47.83513" lon="6.993">
        <ele>1026.2</ele>
        <time>2026-08-27T11:32:34.326Z</time>
      </trkpt>
      <trkpt lat="47.83512" lon="6.99301">
        <ele>1026.2</ele>
        <time>2026-08-27T11:32:35.333Z</time>
      </trkpt>
      <trkpt lat="47.83512" lon="6.99303">
        <ele>1026.2</ele>
        <time>2026-08-27T11:32:36.341Z</time>
      </trkpt>
      <trkpt lat="47.83511" lon="6.99305">
        <ele>1026.3</ele>
        <time>2026-08-27T11:32:38.257Z</time>
      </trkpt>
      <trkpt lat="47.83511" lon="6.99306">
        <ele>1026.3</ele>
        <time>2026-08-27T11:32:39.366Z</time>
      </trkpt>
      <trkpt lat="47.8351" lon="6.99308">
        <ele>1026.6</ele>
        <time>2026-08-27T11:32:41.281Z</time>
      </trkpt>
      <trkpt lat="47.83509" lon="6.99309">
        <ele>1026.6</ele>
        <time>2026-08-27T11:32:42.290Z</time>
      </trkpt>
      <trkpt lat="47.83508" lon="6.9931">
        <ele>1026.7</ele>
        <time>2026-08-27T11:32:44.307Z</time>
      </trkpt>
      <trkpt lat="47.83507" lon="6.99311">
        <ele>1027</ele>
        <time>2026-08-27T11:32:45.314Z</time>
      </trkpt>
      <trkpt lat="47.83507" lon="6.99312">
        <ele>1027</ele>
        <time>2026-08-27T11:32:46.323Z</time>
      </trkpt>
      <trkpt lat="47.83506" lon="6.99313">
        <ele>1027.1</ele>
        <time>2026-08-27T11:32:47.331Z</time>
      </trkpt>
      <trkpt lat="47.83506" lon="6.99314">
        <ele>1027.1</ele>
        <time>2026-08-27T11:32:48.343Z</time>
      </trkpt>
      <trkpt lat="47.83505" lon="6.99315">
        <ele>1027.1</ele>
        <time>2026-08-27T11:32:49.347Z</time>
      </trkpt>
      <trkpt lat="47.83504" lon="6.99318">
        <ele>1027.2</ele>
        <time>2026-08-27T11:32:51.317Z</time>
      </trkpt>
      <trkpt lat="47.83504" lon="6.99319">
        <ele>1027.3</ele>
        <time>2026-08-27T11:32:52.372Z</time>
      </trkpt>
      <trkpt lat="47.83503" lon="6.9932">
        <ele>1027.4</ele>
        <time>2026-08-27T11:32:54.342Z</time>
      </trkpt>
      <trkpt lat="47.83501" lon="6.99321">
        <ele>1027.6</ele>
        <time>2026-08-27T11:32:56.304Z</time>
      </trkpt>
      <trkpt lat="47.83501" lon="6.99322">
        <ele>1027.7</ele>
        <time>2026-08-27T11:32:57.313Z</time>
      </trkpt>
      <trkpt lat="47.835" lon="6.99323">
        <ele>1027.8</ele>
        <time>2026-08-27T11:32:58.321Z</time>
      </trkpt>
      <trkpt lat="47.835" lon="6.99323">
        <ele>1027.9</ele>
        <time>2026-08-27T11:32:59.329Z</time>
      </trkpt>
      <trkpt lat="47.83499" lon="6.99324">
        <ele>1027.8</ele>
        <time>2026-08-27T11:33:00.336Z</time>
      </trkpt>
      <trkpt lat="47.83498" lon="6.99326">
        <ele>1028.1</ele>
        <time>2026-08-27T11:33:02.353Z</time>
      </trkpt>
      <trkpt lat="47.83498" lon="6.99327">
        <ele>1028.3</ele>
        <time>2026-08-27T11:33:03.361Z</time>
      </trkpt>
      <trkpt lat="47.83497" lon="6.99329">
        <ele>1028.5</ele>
        <time>2026-08-27T11:33:05.277Z</time>
      </trkpt>
      <trkpt lat="47.83497" lon="6.99329">
        <ele>1028.6</ele>
        <time>2026-08-27T11:33:06.285Z</time>
      </trkpt>
      <trkpt lat="47.83496" lon="6.9933">
        <ele>1028.7</ele>
        <time>2026-08-27T11:33:07.293Z</time>
      </trkpt>
      <trkpt lat="47.83496" lon="6.99331">
        <ele>1028.7</ele>
        <time>2026-08-27T11:33:08.339Z</time>
      </trkpt>
      <trkpt lat="47.83495" lon="6.99332">
        <ele>1029.1</ele>
        <time>2026-08-27T11:33:10.318Z</time>
      </trkpt>
      <trkpt lat="47.83494" lon="6.99332">
        <ele>1029.1</ele>
        <time>2026-08-27T11:33:11.365Z</time>
      </trkpt>
      <trkpt lat="47.83493" lon="6.99334">
        <ele>1029.2</ele>
        <time>2026-08-27T11:33:13.342Z</time>
      </trkpt>
      <trkpt lat="47.83492" lon="6.99335">
        <ele>1029.4</ele>
        <time>2026-08-27T11:33:14.352Z</time>
      </trkpt>
      <trkpt lat="47.83491" lon="6.99336">
        <ele>1029.8</ele>
        <time>2026-08-27T11:33:16.266Z</time>
      </trkpt>
      <trkpt lat="47.8349" lon="6.99337">
        <ele>1029.6</ele>
        <time>2026-08-27T11:33:17.275Z</time>
      </trkpt>
      <trkpt lat="47.83489" lon="6.99338">
        <ele>1030</ele>
        <time>2026-08-27T11:33:19.291Z</time>
      </trkpt>
      <trkpt lat="47.83489" lon="6.99338">
        <ele>1030</ele>
        <time>2026-08-27T11:33:20.299Z</time>
      </trkpt>
      <trkpt lat="47.83488" lon="6.99339">
        <ele>1030.1</ele>
        <time>2026-08-27T11:33:21.307Z</time>
      </trkpt>
      <trkpt lat="47.83488" lon="6.99339">
        <ele>1030.2</ele>
        <time>2026-08-27T11:33:22.315Z</time>
      </trkpt>
      <trkpt lat="47.83487" lon="6.9934">
        <ele>1030.3</ele>
        <time>2026-08-27T11:33:23.324Z</time>
      </trkpt>
      <trkpt lat="47.83487" lon="6.99341">
        <ele>1030.3</ele>
        <time>2026-08-27T11:33:24.333Z</time>
      </trkpt>
      <trkpt lat="47.83486" lon="6.99343">
        <ele>1030.4</ele>
        <time>2026-08-27T11:33:26.247Z</time>
      </trkpt>
      <trkpt lat="47.83485" lon="6.99344">
        <ele>1030.6</ele>
        <time>2026-08-27T11:33:27.356Z</time>
      </trkpt>
      <trkpt lat="47.83485" lon="6.99345">
        <ele>1030.8</ele>
        <time>2026-08-27T11:33:28.365Z</time>
      </trkpt>
      <trkpt lat="47.83483" lon="6.99346">
        <ele>1030.8</ele>
        <time>2026-08-27T11:33:30.343Z</time>
      </trkpt>
      <trkpt lat="47.83482" lon="6.99348">
        <ele>1031.1</ele>
        <time>2026-08-27T11:33:32.298Z</time>
      </trkpt>
      <trkpt lat="47.83482" lon="6.99349">
        <ele>1031.1</ele>
        <time>2026-08-27T11:33:33.306Z</time>
      </trkpt>
      <trkpt lat="47.83482" lon="6.99349">
        <ele>1031.3</ele>
        <time>2026-08-27T11:33:34.314Z</time>
      </trkpt>
      <trkpt lat="47.83481" lon="6.9935">
        <ele>1031.4</ele>
        <time>2026-08-27T11:33:35.321Z</time>
      </trkpt>
      <trkpt lat="47.83481" lon="6.99351">
        <ele>1031.6</ele>
        <time>2026-08-27T11:33:36.330Z</time>
      </trkpt>
      <trkpt lat="47.8348" lon="6.99352">
        <ele>1031.7</ele>
        <time>2026-08-27T11:33:38.347Z</time>
      </trkpt>
      <trkpt lat="47.8348" lon="6.99353">
        <ele>1031.8</ele>
        <time>2026-08-27T11:33:39.355Z</time>
      </trkpt>
      <trkpt lat="47.83479" lon="6.99354">
        <ele>1031.8</ele>
        <time>2026-08-27T11:33:40.358Z</time>
      </trkpt>
      <trkpt lat="47.83478" lon="6.99355">
        <ele>1032.2</ele>
        <time>2026-08-27T11:33:42.278Z</time>
      </trkpt>
      <trkpt lat="47.83478" lon="6.99356">
        <ele>1032.5</ele>
        <time>2026-08-27T11:33:43.286Z</time>
      </trkpt>
      <trkpt lat="47.83478" lon="6.99357">
        <ele>1032.6</ele>
        <time>2026-08-27T11:33:44.294Z</time>
      </trkpt>
      <trkpt lat="47.83477" lon="6.99358">
        <ele>1032.7</ele>
        <time>2026-08-27T11:33:45.304Z</time>
      </trkpt>
      <trkpt lat="47.83477" lon="6.99359">
        <ele>1032.9</ele>
        <time>2026-08-27T11:33:46.311Z</time>
      </trkpt>
      <trkpt lat="47.83476" lon="6.9936">
        <ele>1032.9</ele>
        <time>2026-08-27T11:33:47.357Z</time>
      </trkpt>
      <trkpt lat="47.83475" lon="6.99361">
        <ele>1033.3</ele>
        <time>2026-08-27T11:33:49.335Z</time>
      </trkpt>
      <trkpt lat="47.83475" lon="6.99363">
        <ele>1033.6</ele>
        <time>2026-08-27T11:33:50.339Z</time>
      </trkpt>
      <trkpt lat="47.83474" lon="6.99364">
        <ele>1033.6</ele>
        <time>2026-08-27T11:33:51.352Z</time>
      </trkpt>
      <trkpt lat="47.83474" lon="6.99365">
        <ele>1033.8</ele>
        <time>2026-08-27T11:33:52.360Z</time>
      </trkpt>
      <trkpt lat="47.83473" lon="6.99366">
        <ele>1033.8</ele>
        <time>2026-08-27T11:33:54.277Z</time>
      </trkpt>
      <trkpt lat="47.83473" lon="6.99367">
        <ele>1033.8</ele>
        <time>2026-08-27T11:33:55.284Z</time>
      </trkpt>
      <trkpt lat="47.83472" lon="6.99368">
        <ele>1033.8</ele>
        <time>2026-08-27T11:33:56.364Z</time>
      </trkpt>
      <trkpt lat="47.83471" lon="6.9937">
        <ele>1034.3</ele>
        <time>2026-08-27T11:33:58.308Z</time>
      </trkpt>
      <trkpt lat="47.8347" lon="6.99371">
        <ele>1034.5</ele>
        <time>2026-08-27T11:33:59.317Z</time>
      </trkpt>
      <trkpt lat="47.8347" lon="6.99371">
        <ele>1034.6</ele>
        <time>2026-08-27T11:34:00.325Z</time>
      </trkpt>
      <trkpt lat="47.8347" lon="6.99372">
        <ele>1034.8</ele>
        <time>2026-08-27T11:34:01.333Z</time>
      </trkpt>
      <trkpt lat="47.83469" lon="6.99374">
        <ele>1035</ele>
        <time>2026-08-27T11:34:03.351Z</time>
      </trkpt>
      <trkpt lat="47.83468" lon="6.99377">
        <ele>1035.7</ele>
        <time>2026-08-27T11:34:05.366Z</time>
      </trkpt>
      <trkpt lat="47.8347" lon="6.99378">
        <ele>1035.9</ele>
        <time>2026-08-27T11:34:07.282Z</time>
      </trkpt>
      <trkpt lat="47.8347" lon="6.99378">
        <ele>1036</ele>
        <time>2026-08-27T11:34:08.291Z</time>
      </trkpt>
      <trkpt lat="47.8347" lon="6.99378">
        <ele>1036.1</ele>
        <time>2026-08-27T11:34:09.298Z</time>
      </trkpt>
      <trkpt lat="47.8347" lon="6.99378">
        <ele>1036.1</ele>
        <time>2026-08-27T11:34:10.306Z</time>
      </trkpt>
      <trkpt lat="47.83469" lon="6.99378">
        <ele>1036.3</ele>
        <time>2026-08-27T11:34:11.315Z</time>
      </trkpt>
      <trkpt lat="47.83469" lon="6.99378">
        <ele>1036.3</ele>
        <time>2026-08-27T11:34:12.324Z</time>
      </trkpt>
      <trkpt lat="47.83469" lon="6.99378">
        <ele>1036.1</ele>
        <time>2026-08-27T11:34:13.331Z</time>
      </trkpt>
      <trkpt lat="47.83469" lon="6.99378">
        <ele>1036.3</ele>
        <time>2026-08-27T11:34:14.339Z</time>
      </trkpt>
      <trkpt lat="47.83469" lon="6.99378">
        <ele>1036.1</ele>
        <time>2026-08-27T11:34:15.347Z</time>
      </trkpt>
      <trkpt lat="47.83469" lon="6.99378">
        <ele>1036.2</ele>
        <time>2026-08-27T11:34:16.355Z</time>
      </trkpt>
      <trkpt lat="47.83469" lon="6.99378">
        <ele>1035.8</ele>
        <time>2026-08-27T11:34:18.271Z</time>
      </trkpt>
      <trkpt lat="47.83469" lon="6.99378">
        <ele>1035.7</ele>
        <time>2026-08-27T11:34:19.279Z</time>
      </trkpt>
      <trkpt lat="47.83469" lon="6.99378">
        <ele>1035.6</ele>
        <time>2026-08-27T11:34:20.287Z</time>
      </trkpt>
      <trkpt lat="47.83469" lon="6.99378">
        <ele>1035.8</ele>
        <time>2026-08-27T11:34:21.296Z</time>
      </trkpt>
      <trkpt lat="47.83468" lon="6.99379">
        <ele>1035.8</ele>
        <time>2026-08-27T11:34:22.304Z</time>
      </trkpt>
      <trkpt lat="47.83468" lon="6.9938">
        <ele>1035.9</ele>
        <time>2026-08-27T11:34:23.312Z</time>
      </trkpt>
      <trkpt lat="47.83467" lon="6.99381">
        <ele>1035.9</ele>
        <time>2026-08-27T11:34:24.320Z</time>
      </trkpt>
      <trkpt lat="47.83467" lon="6.99382">
        <ele>1035.8</ele>
        <time>2026-08-27T11:34:25.330Z</time>
      </trkpt>
      <trkpt lat="47.83465" lon="6.99385">
        <ele>1035.8</ele>
        <time>2026-08-27T11:34:27.244Z</time>
      </trkpt>
      <trkpt lat="47.83465" lon="6.99386">
        <ele>1035.9</ele>
        <time>2026-08-27T11:34:28.253Z</time>
      </trkpt>
      <trkpt lat="47.83464" lon="6.99389">
        <ele>1036.2</ele>
        <time>2026-08-27T11:34:29.261Z</time>
      </trkpt>
      <trkpt lat="47.83464" lon="6.99392">
        <ele>1036.6</ele>
        <time>2026-08-27T11:34:31.277Z</time>
      </trkpt>
      <trkpt lat="47.83464" lon="6.99393">
        <ele>1036.5</ele>
        <time>2026-08-27T11:34:32.285Z</time>
      </trkpt>
      <trkpt lat="47.83463" lon="6.99394">
        <ele>1036.7</ele>
        <time>2026-08-27T11:34:33.293Z</time>
      </trkpt>
      <trkpt lat="47.83462" lon="6.99396">
        <ele>1036.8</ele>
        <time>2026-08-27T11:34:35.310Z</time>
      </trkpt>
      <trkpt lat="47.83462" lon="6.99397">
        <ele>1036.7</ele>
        <time>2026-08-27T11:34:36.319Z</time>
      </trkpt>
      <trkpt lat="47.83462" lon="6.99398">
        <ele>1036.9</ele>
        <time>2026-08-27T11:34:37.326Z</time>
      </trkpt>
      <trkpt lat="47.83461" lon="6.994">
        <ele>1037.4</ele>
        <time>2026-08-27T11:34:39.243Z</time>
      </trkpt>
      <trkpt lat="47.83461" lon="6.99401">
        <ele>1037.5</ele>
        <time>2026-08-27T11:34:40.250Z</time>
      </trkpt>
      <trkpt lat="47.83461" lon="6.99402">
        <ele>1037.3</ele>
        <time>2026-08-27T11:34:41.259Z</time>
      </trkpt>
      <trkpt lat="47.8346" lon="6.99403">
        <ele>1037.6</ele>
        <time>2026-08-27T11:34:43.276Z</time>
      </trkpt>
      <trkpt lat="47.83459" lon="6.99404">
        <ele>1037.4</ele>
        <time>2026-08-27T11:34:44.284Z</time>
      </trkpt>
      <trkpt lat="47.83458" lon="6.99405">
        <ele>1037.6</ele>
        <time>2026-08-27T11:34:45.292Z</time>
      </trkpt>
      <trkpt lat="47.83458" lon="6.99405">
        <ele>1037.7</ele>
        <time>2026-08-27T11:34:46.300Z</time>
      </trkpt>
      <trkpt lat="47.83456" lon="6.99405">
        <ele>1037.9</ele>
        <time>2026-08-27T11:34:48.318Z</time>
      </trkpt>
      <trkpt lat="47.83455" lon="6.99405">
        <ele>1037.9</ele>
        <time>2026-08-27T11:34:49.354Z</time>
      </trkpt>
      <trkpt lat="47.83453" lon="6.99407">
        <ele>1037.9</ele>
        <time>2026-08-27T11:34:51.341Z</time>
      </trkpt>
      <trkpt lat="47.83451" lon="6.99408">
        <ele>1037.8</ele>
        <time>2026-08-27T11:34:53.359Z</time>
      </trkpt>
      <trkpt lat="47.83449" lon="6.99408">
        <ele>1037.8</ele>
        <time>2026-08-27T11:34:55.274Z</time>
      </trkpt>
      <trkpt lat="47.83448" lon="6.99408">
        <ele>1037.8</ele>
        <time>2026-08-27T11:34:56.282Z</time>
      </trkpt>
      <trkpt lat="47.83447" lon="6.99407">
        <ele>1038</ele>
        <time>2026-08-27T11:34:58.298Z</time>
      </trkpt>
      <trkpt lat="47.83446" lon="6.99407">
        <ele>1038</ele>
        <time>2026-08-27T11:34:59.308Z</time>
      </trkpt>
      <trkpt lat="47.83445" lon="6.99407">
        <ele>1038</ele>
        <time>2026-08-27T11:35:00.316Z</time>
      </trkpt>
      <trkpt lat="47.83444" lon="6.99407">
        <ele>1038</ele>
        <time>2026-08-27T11:35:01.327Z</time>
      </trkpt>
      <trkpt lat="47.83443" lon="6.99407">
        <ele>1038.4</ele>
        <time>2026-08-27T11:35:02.332Z</time>
      </trkpt>
      <trkpt lat="47.83443" lon="6.99407">
        <ele>1038.4</ele>
        <time>2026-08-27T11:35:03.340Z</time>
      </trkpt>
      <trkpt lat="47.83442" lon="6.99406">
        <ele>1038.3</ele>
        <time>2026-08-27T11:35:04.348Z</time>
      </trkpt>
      <trkpt lat="47.83441" lon="6.99406">
        <ele>1038.3</ele>
        <time>2026-08-27T11:35:05.353Z</time>
      </trkpt>
      <trkpt lat="47.8344" lon="6.99406">
        <ele>1038.2</ele>
        <time>2026-08-27T11:35:07.327Z</time>
      </trkpt>
      <trkpt lat="47.83438" lon="6.99407">
        <ele>1038.4</ele>
        <time>2026-08-27T11:35:09.289Z</time>
      </trkpt>
      <trkpt lat="47.83437" lon="6.99408">
        <ele>1038.5</ele>
        <time>2026-08-27T11:35:10.298Z</time>
      </trkpt>
      <trkpt lat="47.83437" lon="6.99408">
        <ele>1038.6</ele>
        <time>2026-08-27T11:35:11.306Z</time>
      </trkpt>
      <trkpt lat="47.83436" lon="6.99409">
        <ele>1038.7</ele>
        <time>2026-08-27T11:35:12.314Z</time>
      </trkpt>
      <trkpt lat="47.83436" lon="6.9941">
        <ele>1038.8</ele>
        <time>2026-08-27T11:35:13.321Z</time>
      </trkpt>
      <trkpt lat="47.83435" lon="6.9941">
        <ele>1038.8</ele>
        <time>2026-08-27T11:35:14.331Z</time>
      </trkpt>
      <trkpt lat="47.83434" lon="6.9941">
        <ele>1038.8</ele>
        <time>2026-08-27T11:35:15.339Z</time>
      </trkpt>
      <trkpt lat="47.83433" lon="6.99409">
        <ele>1039</ele>
        <time>2026-08-27T11:35:17.354Z</time>
      </trkpt>
      <trkpt lat="47.83432" lon="6.99409">
        <ele>1039</ele>
        <time>2026-08-27T11:35:18.392Z</time>
      </trkpt>
      <trkpt lat="47.8343" lon="6.99409">
        <ele>1039.1</ele>
        <time>2026-08-27T11:35:19.854Z</time>
      </trkpt>
      <trkpt lat="47.83429" lon="6.99409">
        <ele>1039.1</ele>
        <time>2026-08-27T11:35:21.350Z</time>
      </trkpt>
      <trkpt lat="47.83428" lon="6.99409">
        <ele>1039.3</ele>
        <time>2026-08-27T11:35:23.303Z</time>
      </trkpt>
      <trkpt lat="47.83427" lon="6.99409">
        <ele>1039.5</ele>
        <time>2026-08-27T11:35:24.311Z</time>
      </trkpt>
      <trkpt lat="47.83426" lon="6.9941">
        <ele>1039.7</ele>
        <time>2026-08-27T11:35:25.319Z</time>
      </trkpt>
      <trkpt lat="47.83425" lon="6.9941">
        <ele>1039.8</ele>
        <time>2026-08-27T11:35:26.329Z</time>
      </trkpt>
      <trkpt lat="47.83424" lon="6.9941">
        <ele>1040</ele>
        <time>2026-08-27T11:35:27.336Z</time>
      </trkpt>
      <trkpt lat="47.83424" lon="6.9941">
        <ele>1039.9</ele>
        <time>2026-08-27T11:35:28.344Z</time>
      </trkpt>
      <trkpt lat="47.83423" lon="6.9941">
        <ele>1039.9</ele>
        <time>2026-08-27T11:35:30.361Z</time>
      </trkpt>
      <trkpt lat="47.83422" lon="6.9941">
        <ele>1039.8</ele>
        <time>2026-08-27T11:35:31.369Z</time>
      </trkpt>
      <trkpt lat="47.83422" lon="6.9941">
        <ele>1040</ele>
        <time>2026-08-27T11:35:32.377Z</time>
      </trkpt>
      <trkpt lat="47.83421" lon="6.99411">
        <ele>1040.1</ele>
        <time>2026-08-27T11:35:34.273Z</time>
      </trkpt>
      <trkpt lat="47.8342" lon="6.99411">
        <ele>1040.3</ele>
        <time>2026-08-27T11:35:35.301Z</time>
      </trkpt>
      <trkpt lat="47.83419" lon="6.99412">
        <ele>1040.5</ele>
        <time>2026-08-27T11:35:36.310Z</time>
      </trkpt>
      <trkpt lat="47.83419" lon="6.99413">
        <ele>1040.5</ele>
        <time>2026-08-27T11:35:37.330Z</time>
      </trkpt>
      <trkpt lat="47.83416" lon="6.99414">
        <ele>1040.7</ele>
        <time>2026-08-27T11:35:39.334Z</time>
      </trkpt>
      <trkpt lat="47.83415" lon="6.99415">
        <ele>1040.6</ele>
        <time>2026-08-27T11:35:40.343Z</time>
      </trkpt>
      <trkpt lat="47.83414" lon="6.99416">
        <ele>1040.7</ele>
        <time>2026-08-27T11:35:41.350Z</time>
      </trkpt>
      <trkpt lat="47.83413" lon="6.99418">
        <ele>1040.8</ele>
        <time>2026-08-27T11:35:43.170Z</time>
      </trkpt>
      <trkpt lat="47.83412" lon="6.99419">
        <ele>1040.7</ele>
        <time>2026-08-27T11:35:44.274Z</time>
      </trkpt>
      <trkpt lat="47.83411" lon="6.99418">
        <ele>1040.7</ele>
        <time>2026-08-27T11:35:46.290Z</time>
      </trkpt>
      <trkpt lat="47.8341" lon="6.99416">
        <ele>1041</ele>
        <time>2026-08-27T11:35:48.308Z</time>
      </trkpt>
      <trkpt lat="47.8341" lon="6.99416">
        <ele>1040.6</ele>
        <time>2026-08-27T11:35:49.315Z</time>
      </trkpt>
      <trkpt lat="47.83409" lon="6.99415">
        <ele>1041</ele>
        <time>2026-08-27T11:35:50.324Z</time>
      </trkpt>
      <trkpt lat="47.83408" lon="6.99415">
        <ele>1041.2</ele>
        <time>2026-08-27T11:35:51.332Z</time>
      </trkpt>
      <trkpt lat="47.83407" lon="6.99415">
        <ele>1041.2</ele>
        <time>2026-08-27T11:35:52.369Z</time>
      </trkpt>
      <trkpt lat="47.83405" lon="6.99415">
        <ele>1041</ele>
        <time>2026-08-27T11:35:54.357Z</time>
      </trkpt>
      <trkpt lat="47.83403" lon="6.99417">
        <ele>1041.1</ele>
        <time>2026-08-27T11:35:56.273Z</time>
      </trkpt>
      <trkpt lat="47.83402" lon="6.99417">
        <ele>1041.1</ele>
        <time>2026-08-27T11:35:57.368Z</time>
      </trkpt>
      <trkpt lat="47.83401" lon="6.99418">
        <ele>1041.3</ele>
        <time>2026-08-27T11:35:59.297Z</time>
      </trkpt>
      <trkpt lat="47.83399" lon="6.99416">
        <ele>1041.7</ele>
        <time>2026-08-27T11:36:01.314Z</time>
      </trkpt>
      <trkpt lat="47.83398" lon="6.99415">
        <ele>1041.8</ele>
        <time>2026-08-27T11:36:02.321Z</time>
      </trkpt>
      <trkpt lat="47.83397" lon="6.99415">
        <ele>1041.8</ele>
        <time>2026-08-27T11:36:03.330Z</time>
      </trkpt>
      <trkpt lat="47.83396" lon="6.99414">
        <ele>1041.9</ele>
        <time>2026-08-27T11:36:04.338Z</time>
      </trkpt>
      <trkpt lat="47.83395" lon="6.99414">
        <ele>1041.9</ele>
        <time>2026-08-27T11:36:05.350Z</time>
      </trkpt>
      <trkpt lat="47.83394" lon="6.99414">
        <ele>1042.1</ele>
        <time>2026-08-27T11:36:06.354Z</time>
      </trkpt>
      <trkpt lat="47.83393" lon="6.99415">
        <ele>1042.2</ele>
        <time>2026-08-27T11:36:07.362Z</time>
      </trkpt>
      <trkpt lat="47.83392" lon="6.99415">
        <ele>1042.2</ele>
        <time>2026-08-27T11:36:09.278Z</time>
      </trkpt>
      <trkpt lat="47.83391" lon="6.99415">
        <ele>1042.2</ele>
        <time>2026-08-27T11:36:10.291Z</time>
      </trkpt>
      <trkpt lat="47.8339" lon="6.99416">
        <ele>1042.5</ele>
        <time>2026-08-27T11:36:11.395Z</time>
      </trkpt>
      <trkpt lat="47.83388" lon="6.99416">
        <ele>1042.5</ele>
        <time>2026-08-27T11:36:13.311Z</time>
      </trkpt>
      <trkpt lat="47.83386" lon="6.99417">
        <ele>1042.5</ele>
        <time>2026-08-27T11:36:14.390Z</time>
      </trkpt>
      <trkpt lat="47.83384" lon="6.99418">
        <ele>1042.7</ele>
        <time>2026-08-27T11:36:16.335Z</time>
      </trkpt>
      <trkpt lat="47.83383" lon="6.99418">
        <ele>1042.7</ele>
        <time>2026-08-27T11:36:17.344Z</time>
      </trkpt>
      <trkpt lat="47.83382" lon="6.99419">
        <ele>1042.4</ele>
        <time>2026-08-27T11:36:18.353Z</time>
      </trkpt>
      <trkpt lat="47.83381" lon="6.9942">
        <ele>1042.4</ele>
        <time>2026-08-27T11:36:20.268Z</time>
      </trkpt>
      <trkpt lat="47.8338" lon="6.99421">
        <ele>1042.3</ele>
        <time>2026-08-27T11:36:21.275Z</time>
      </trkpt>
      <trkpt lat="47.83379" lon="6.99423">
        <ele>1042.5</ele>
        <time>2026-08-27T11:36:23.293Z</time>
      </trkpt>
      <trkpt lat="47.83379" lon="6.99424">
        <ele>1042.6</ele>
        <time>2026-08-27T11:36:24.301Z</time>
      </trkpt>
      <trkpt lat="47.83377" lon="6.99425">
        <ele>1042.9</ele>
        <time>2026-08-27T11:36:26.316Z</time>
      </trkpt>
      <trkpt lat="47.83376" lon="6.99425">
        <ele>1042.9</ele>
        <time>2026-08-27T11:36:27.325Z</time>
      </trkpt>
      <trkpt lat="47.83375" lon="6.99425">
        <ele>1042.9</ele>
        <time>2026-08-27T11:36:28.334Z</time>
      </trkpt>
      <trkpt lat="47.83374" lon="6.99425">
        <ele>1043</ele>
        <time>2026-08-27T11:36:29.341Z</time>
      </trkpt>
      <trkpt lat="47.83373" lon="6.99426">
        <ele>1043</ele>
        <time>2026-08-27T11:36:30.370Z</time>
      </trkpt>
      <trkpt lat="47.83373" lon="6.99427">
        <ele>1043.2</ele>
        <time>2026-08-27T11:36:31.874Z</time>
      </trkpt>
      <trkpt lat="47.83371" lon="6.99428">
        <ele>1043.3</ele>
        <time>2026-08-27T11:36:33.273Z</time>
      </trkpt>
      <trkpt lat="47.8337" lon="6.9943">
        <ele>1043.7</ele>
        <time>2026-08-27T11:36:35.289Z</time>
      </trkpt>
      <trkpt lat="47.8337" lon="6.99431">
        <ele>1043.7</ele>
        <time>2026-08-27T11:36:36.299Z</time>
      </trkpt>
      <trkpt lat="47.83369" lon="6.99432">
        <ele>1043.8</ele>
        <time>2026-08-27T11:36:37.306Z</time>
      </trkpt>
      <trkpt lat="47.83368" lon="6.99433">
        <ele>1043.9</ele>
        <time>2026-08-27T11:36:38.315Z</time>
      </trkpt>
      <trkpt lat="47.83368" lon="6.99433">
        <ele>1043.8</ele>
        <time>2026-08-27T11:36:39.370Z</time>
      </trkpt>
      <trkpt lat="47.83367" lon="6.99435">
        <ele>1043.8</ele>
        <time>2026-08-27T11:36:41.339Z</time>
      </trkpt>
      <trkpt lat="47.83367" lon="6.99436">
        <ele>1043.9</ele>
        <time>2026-08-27T11:36:42.347Z</time>
      </trkpt>
      <trkpt lat="47.83366" lon="6.99437">
        <ele>1044.1</ele>
        <time>2026-08-27T11:36:43.355Z</time>
      </trkpt>
      <trkpt lat="47.83365" lon="6.99438">
        <ele>1044.3</ele>
        <time>2026-08-27T11:36:45.267Z</time>
      </trkpt>
      <trkpt lat="47.83364" lon="6.99438">
        <ele>1044.3</ele>
        <time>2026-08-27T11:36:46.279Z</time>
      </trkpt>
      <trkpt lat="47.83364" lon="6.99439">
        <ele>1044.5</ele>
        <time>2026-08-27T11:36:47.288Z</time>
      </trkpt>
      <trkpt lat="47.83362" lon="6.9944">
        <ele>1044.5</ele>
        <time>2026-08-27T11:36:49.304Z</time>
      </trkpt>
      <trkpt lat="47.83361" lon="6.99441">
        <ele>1044.3</ele>
        <time>2026-08-27T11:36:50.313Z</time>
      </trkpt>
      <trkpt lat="47.8336" lon="6.99442">
        <ele>1044.5</ele>
        <time>2026-08-27T11:36:52.329Z</time>
      </trkpt>
      <trkpt lat="47.83359" lon="6.99443">
        <ele>1044.6</ele>
        <time>2026-08-27T11:36:53.336Z</time>
      </trkpt>
      <trkpt lat="47.83358" lon="6.99443">
        <ele>1044.7</ele>
        <time>2026-08-27T11:36:54.345Z</time>
      </trkpt>
      <trkpt lat="47.83356" lon="6.99445">
        <ele>1044.7</ele>
        <time>2026-08-27T11:36:56.361Z</time>
      </trkpt>
      <trkpt lat="47.83354" lon="6.99447">
        <ele>1044.8</ele>
        <time>2026-08-27T11:36:58.278Z</time>
      </trkpt>
      <trkpt lat="47.83354" lon="6.99448">
        <ele>1044.8</ele>
        <time>2026-08-27T11:36:59.332Z</time>
      </trkpt>
      <trkpt lat="47.83353" lon="6.9945">
        <ele>1044.9</ele>
        <time>2026-08-27T11:37:01.301Z</time>
      </trkpt>
      <trkpt lat="47.83352" lon="6.99451">
        <ele>1044.9</ele>
        <time>2026-08-27T11:37:02.314Z</time>
      </trkpt>
      <trkpt lat="47.83351" lon="6.99451">
        <ele>1045.3</ele>
        <time>2026-08-27T11:37:03.318Z</time>
      </trkpt>
      <trkpt lat="47.83351" lon="6.99452">
        <ele>1045.1</ele>
        <time>2026-08-27T11:37:04.326Z</time>
      </trkpt>
      <trkpt lat="47.8335" lon="6.99452">
        <ele>1045.2</ele>
        <time>2026-08-27T11:37:05.334Z</time>
      </trkpt>
      <trkpt lat="47.83349" lon="6.99453">
        <ele>1045.5</ele>
        <time>2026-08-27T11:37:06.342Z</time>
      </trkpt>
      <trkpt lat="47.83348" lon="6.99455">
        <ele>1045.4</ele>
        <time>2026-08-27T11:37:08.360Z</time>
      </trkpt>
      <trkpt lat="47.83347" lon="6.99456">
        <ele>1045.4</ele>
        <time>2026-08-27T11:37:10.274Z</time>
      </trkpt>
      <trkpt lat="47.83346" lon="6.99456">
        <ele>1045.4</ele>
        <time>2026-08-27T11:37:11.287Z</time>
      </trkpt>
      <trkpt lat="47.83346" lon="6.99457">
        <ele>1045.7</ele>
        <time>2026-08-27T11:37:12.291Z</time>
      </trkpt>
      <trkpt lat="47.83345" lon="6.99457">
        <ele>1045.7</ele>
        <time>2026-08-27T11:37:13.299Z</time>
      </trkpt>
      <trkpt lat="47.83344" lon="6.99458">
        <ele>1045.8</ele>
        <time>2026-08-27T11:37:14.308Z</time>
      </trkpt>
      <trkpt lat="47.83344" lon="6.99459">
        <ele>1045.8</ele>
        <time>2026-08-27T11:37:15.316Z</time>
      </trkpt>
      <trkpt lat="47.83343" lon="6.9946">
        <ele>1045.8</ele>
        <time>2026-08-27T11:37:16.323Z</time>
      </trkpt>
      <trkpt lat="47.83342" lon="6.99461">
        <ele>1045.9</ele>
        <time>2026-08-27T11:37:17.332Z</time>
      </trkpt>
      <trkpt lat="47.83341" lon="6.99461">
        <ele>1045.8</ele>
        <time>2026-08-27T11:37:18.340Z</time>
      </trkpt>
      <trkpt lat="47.83341" lon="6.99462">
        <ele>1045.7</ele>
        <time>2026-08-27T11:37:19.348Z</time>
      </trkpt>
      <trkpt lat="47.8334" lon="6.99462">
        <ele>1045.7</ele>
        <time>2026-08-27T11:37:20.356Z</time>
      </trkpt>
      <trkpt lat="47.83339" lon="6.99463">
        <ele>1045.9</ele>
        <time>2026-08-27T11:37:21.364Z</time>
      </trkpt>
      <trkpt lat="47.83337" lon="6.99465">
        <ele>1045.9</ele>
        <time>2026-08-27T11:37:23.281Z</time>
      </trkpt>
      <trkpt lat="47.83337" lon="6.99466">
        <ele>1046.1</ele>
        <time>2026-08-27T11:37:24.288Z</time>
      </trkpt>
      <trkpt lat="47.83336" lon="6.99467">
        <ele>1046.2</ele>
        <time>2026-08-27T11:37:25.296Z</time>
      </trkpt>
      <trkpt lat="47.83335" lon="6.99468">
        <ele>1046.2</ele>
        <time>2026-08-27T11:37:26.334Z</time>
      </trkpt>
      <trkpt lat="47.83334" lon="6.99469">
        <ele>1046.6</ele>
        <time>2026-08-27T11:37:28.321Z</time>
      </trkpt>
      <trkpt lat="47.83332" lon="6.99471">
        <ele>1046.9</ele>
        <time>2026-08-27T11:37:30.337Z</time>
      </trkpt>
      <trkpt lat="47.83332" lon="6.99472">
        <ele>1046.9</ele>
        <time>2026-08-27T11:37:31.347Z</time>
      </trkpt>
      <trkpt lat="47.83331" lon="6.99473">
        <ele>1046.9</ele>
        <time>2026-08-27T11:37:32.354Z</time>
      </trkpt>
      <trkpt lat="47.8333" lon="6.99474">
        <ele>1047</ele>
        <time>2026-08-27T11:37:33.362Z</time>
      </trkpt>
      <trkpt lat="47.8333" lon="6.99475">
        <ele>1047</ele>
        <time>2026-08-27T11:37:34.375Z</time>
      </trkpt>
      <trkpt lat="47.83328" lon="6.99476">
        <ele>1047.1</ele>
        <time>2026-08-27T11:37:36.287Z</time>
      </trkpt>
      <trkpt lat="47.83327" lon="6.99477">
        <ele>1047.3</ele>
        <time>2026-08-27T11:37:38.302Z</time>
      </trkpt>
      <trkpt lat="47.83326" lon="6.99478">
        <ele>1047.1</ele>
        <time>2026-08-27T11:37:39.310Z</time>
      </trkpt>
      <trkpt lat="47.83325" lon="6.99479">
        <ele>1047.2</ele>
        <time>2026-08-27T11:37:41.328Z</time>
      </trkpt>
      <trkpt lat="47.83325" lon="6.99479">
        <ele>1047.2</ele>
        <time>2026-08-27T11:37:42.335Z</time>
      </trkpt>
      <trkpt lat="47.83324" lon="6.9948">
        <ele>1047.1</ele>
        <time>2026-08-27T11:37:43.343Z</time>
      </trkpt>
      <trkpt lat="47.83323" lon="6.9948">
        <ele>1047.2</ele>
        <time>2026-08-27T11:37:44.352Z</time>
      </trkpt>
      <trkpt lat="47.83322" lon="6.99481">
        <ele>1047.4</ele>
        <time>2026-08-27T11:37:46.330Z</time>
      </trkpt>
      <trkpt lat="47.8332" lon="6.99481">
        <ele>1047.5</ele>
        <time>2026-08-27T11:37:48.283Z</time>
      </trkpt>
      <trkpt lat="47.83319" lon="6.99481">
        <ele>1047.6</ele>
        <time>2026-08-27T11:37:49.292Z</time>
      </trkpt>
      <trkpt lat="47.83318" lon="6.99482">
        <ele>1047.7</ele>
        <time>2026-08-27T11:37:50.301Z</time>
      </trkpt>
      <trkpt lat="47.83317" lon="6.99482">
        <ele>1047.7</ele>
        <time>2026-08-27T11:37:51.308Z</time>
      </trkpt>
      <trkpt lat="47.83316" lon="6.99482">
        <ele>1048</ele>
        <time>2026-08-27T11:37:53.194Z</time>
      </trkpt>
      <trkpt lat="47.83315" lon="6.99483">
        <ele>1048</ele>
        <time>2026-08-27T11:37:54.332Z</time>
      </trkpt>
      <trkpt lat="47.83314" lon="6.99483">
        <ele>1048</ele>
        <time>2026-08-27T11:37:55.341Z</time>
      </trkpt>
      <trkpt lat="47.83313" lon="6.99483">
        <ele>1048.1</ele>
        <time>2026-08-27T11:37:56.349Z</time>
      </trkpt>
      <trkpt lat="47.83312" lon="6.99484">
        <ele>1048.1</ele>
        <time>2026-08-27T11:37:57.358Z</time>
      </trkpt>
      <trkpt lat="47.83311" lon="6.99484">
        <ele>1048.1</ele>
        <time>2026-08-27T11:37:58.365Z</time>
      </trkpt>
      <trkpt lat="47.83309" lon="6.99485">
        <ele>1048.3</ele>
        <time>2026-08-27T11:38:00.281Z</time>
      </trkpt>
      <trkpt lat="47.83308" lon="6.99485">
        <ele>1048.2</ele>
        <time>2026-08-27T11:38:01.289Z</time>
      </trkpt>
      <trkpt lat="47.83307" lon="6.99486">
        <ele>1048.3</ele>
        <time>2026-08-27T11:38:02.297Z</time>
      </trkpt>
      <trkpt lat="47.83306" lon="6.99486">
        <ele>1048.3</ele>
        <time>2026-08-27T11:38:03.305Z</time>
      </trkpt>
      <trkpt lat="47.83305" lon="6.99487">
        <ele>1048.4</ele>
        <time>2026-08-27T11:38:04.351Z</time>
      </trkpt>
      <trkpt lat="47.83304" lon="6.99488">
        <ele>1048.4</ele>
        <time>2026-08-27T11:38:06.250Z</time>
      </trkpt>
      <trkpt lat="47.83303" lon="6.99489">
        <ele>1048.4</ele>
        <time>2026-08-27T11:38:07.339Z</time>
      </trkpt>
      <trkpt lat="47.83302" lon="6.99489">
        <ele>1048.5</ele>
        <time>2026-08-27T11:38:08.368Z</time>
      </trkpt>
      <trkpt lat="47.83301" lon="6.9949">
        <ele>1048.8</ele>
        <time>2026-08-27T11:38:10.363Z</time>
      </trkpt>
      <trkpt lat="47.833" lon="6.99491">
        <ele>1048.8</ele>
        <time>2026-08-27T11:38:11.371Z</time>
      </trkpt>
      <trkpt lat="47.83299" lon="6.99491">
        <ele>1049.1</ele>
        <time>2026-08-27T11:38:13.208Z</time>
      </trkpt>
      <trkpt lat="47.83298" lon="6.99491">
        <ele>1049</ele>
        <time>2026-08-27T11:38:14.295Z</time>
      </trkpt>
      <trkpt lat="47.83297" lon="6.99491">
        <ele>1049</ele>
        <time>2026-08-27T11:38:15.303Z</time>
      </trkpt>
      <trkpt lat="47.83297" lon="6.99492">
        <ele>1048.9</ele>
        <time>2026-08-27T11:38:16.311Z</time>
      </trkpt>
      <trkpt lat="47.83296" lon="6.99492">
        <ele>1049.1</ele>
        <time>2026-08-27T11:38:17.319Z</time>
      </trkpt>
      <trkpt lat="47.83295" lon="6.99492">
        <ele>1049.2</ele>
        <time>2026-08-27T11:38:18.327Z</time>
      </trkpt>
      <trkpt lat="47.83294" lon="6.99492">
        <ele>1049.2</ele>
        <time>2026-08-27T11:38:19.336Z</time>
      </trkpt>
      <trkpt lat="47.83293" lon="6.99492">
        <ele>1049.2</ele>
        <time>2026-08-27T11:38:20.345Z</time>
      </trkpt>
      <trkpt lat="47.83292" lon="6.99493">
        <ele>1049.2</ele>
        <time>2026-08-27T11:38:21.352Z</time>
      </trkpt>
      <trkpt lat="47.83291" lon="6.99493">
        <ele>1049.3</ele>
        <time>2026-08-27T11:38:22.360Z</time>
      </trkpt>
      <trkpt lat="47.8329" lon="6.99494">
        <ele>1049.3</ele>
        <time>2026-08-27T11:38:24.276Z</time>
      </trkpt>
      <trkpt lat="47.83289" lon="6.99494">
        <ele>1049.4</ele>
        <time>2026-08-27T11:38:25.284Z</time>
      </trkpt>
      <trkpt lat="47.83288" lon="6.99495">
        <ele>1049.4</ele>
        <time>2026-08-27T11:38:27.301Z</time>
      </trkpt>
      <trkpt lat="47.83287" lon="6.99495">
        <ele>1049.4</ele>
        <time>2026-08-27T11:38:28.347Z</time>
      </trkpt>
      <trkpt lat="47.83286" lon="6.99495">
        <ele>1049.7</ele>
        <time>2026-08-27T11:38:30.325Z</time>
      </trkpt>
      <trkpt lat="47.83285" lon="6.99496">
        <ele>1049.7</ele>
        <time>2026-08-27T11:38:31.355Z</time>
      </trkpt>
      <trkpt lat="47.83284" lon="6.99497">
        <ele>1049.8</ele>
        <time>2026-08-27T11:38:33.329Z</time>
      </trkpt>
      <trkpt lat="47.83283" lon="6.99498">
        <ele>1049.9</ele>
        <time>2026-08-27T11:38:34.359Z</time>
      </trkpt>
      <trkpt lat="47.83282" lon="6.99499">
        <ele>1049.9</ele>
        <time>2026-08-27T11:38:35.366Z</time>
      </trkpt>
      <trkpt lat="47.83281" lon="6.995">
        <ele>1050.1</ele>
        <time>2026-08-27T11:38:37.282Z</time>
      </trkpt>
      <trkpt lat="47.8328" lon="6.995">
        <ele>1050</ele>
        <time>2026-08-27T11:38:38.392Z</time>
      </trkpt>
      <trkpt lat="47.83278" lon="6.99501">
        <ele>1050.3</ele>
        <time>2026-08-27T11:38:40.407Z</time>
      </trkpt>
      <trkpt lat="47.83276" lon="6.99503">
        <ele>1050.6</ele>
        <time>2026-08-27T11:38:42.234Z</time>
      </trkpt>
      <trkpt lat="47.83275" lon="6.99504">
        <ele>1050.7</ele>
        <time>2026-08-27T11:38:43.331Z</time>
      </trkpt>
      <trkpt lat="47.83273" lon="6.99507">
        <ele>1050.9</ele>
        <time>2026-08-27T11:38:45.347Z</time>
      </trkpt>
      <trkpt lat="47.83272" lon="6.99507">
        <ele>1050.9</ele>
        <time>2026-08-27T11:38:46.351Z</time>
      </trkpt>
      <trkpt lat="47.83272" lon="6.99508">
        <ele>1050.8</ele>
        <time>2026-08-27T11:38:47.363Z</time>
      </trkpt>
      <trkpt lat="47.8327" lon="6.9951">
        <ele>1050.9</ele>
        <time>2026-08-27T11:38:49.279Z</time>
      </trkpt>
      <trkpt lat="47.83269" lon="6.99511">
        <ele>1051</ele>
        <time>2026-08-27T11:38:50.287Z</time>
      </trkpt>
      <trkpt lat="47.83269" lon="6.99512">
        <ele>1051</ele>
        <time>2026-08-27T11:38:51.291Z</time>
      </trkpt>
      <trkpt lat="47.83268" lon="6.99513">
        <ele>1051</ele>
        <time>2026-08-27T11:38:52.305Z</time>
      </trkpt>
      <trkpt lat="47.83268" lon="6.99514">
        <ele>1051</ele>
        <time>2026-08-27T11:38:53.309Z</time>
      </trkpt>
      <trkpt lat="47.83267" lon="6.99515">
        <ele>1051.2</ele>
        <time>2026-08-27T11:38:54.320Z</time>
      </trkpt>
      <trkpt lat="47.83266" lon="6.99516">
        <ele>1051.2</ele>
        <time>2026-08-27T11:38:55.328Z</time>
      </trkpt>
      <trkpt lat="47.83265" lon="6.99516">
        <ele>1051.2</ele>
        <time>2026-08-27T11:38:56.336Z</time>
      </trkpt>
      <trkpt lat="47.83265" lon="6.99517">
        <ele>1051.4</ele>
        <time>2026-08-27T11:38:57.345Z</time>
      </trkpt>
      <trkpt lat="47.83264" lon="6.99518">
        <ele>1051.5</ele>
        <time>2026-08-27T11:38:59.261Z</time>
      </trkpt>
      <trkpt lat="47.83263" lon="6.99519">
        <ele>1051.6</ele>
        <time>2026-08-27T11:39:00.268Z</time>
      </trkpt>
      <trkpt lat="47.83263" lon="6.99519">
        <ele>1051.7</ele>
        <time>2026-08-27T11:39:01.277Z</time>
      </trkpt>
      <trkpt lat="47.83262" lon="6.9952">
        <ele>1051.7</ele>
        <time>2026-08-27T11:39:02.286Z</time>
      </trkpt>
      <trkpt lat="47.83261" lon="6.9952">
        <ele>1051.7</ele>
        <time>2026-08-27T11:39:03.348Z</time>
      </trkpt>
      <trkpt lat="47.8326" lon="6.99521">
        <ele>1052.1</ele>
        <time>2026-08-27T11:39:05.309Z</time>
      </trkpt>
      <trkpt lat="47.8326" lon="6.99521">
        <ele>1052.1</ele>
        <time>2026-08-27T11:39:06.317Z</time>
      </trkpt>
      <trkpt lat="47.83259" lon="6.99522">
        <ele>1052.2</ele>
        <time>2026-08-27T11:39:07.327Z</time>
      </trkpt>
      <trkpt lat="47.83258" lon="6.99522">
        <ele>1052.3</ele>
        <time>2026-08-27T11:39:08.335Z</time>
      </trkpt>
      <trkpt lat="47.83257" lon="6.99523">
        <ele>1052.3</ele>
        <time>2026-08-27T11:39:09.342Z</time>
      </trkpt>
      <trkpt lat="47.83256" lon="6.99524">
        <ele>1052.4</ele>
        <time>2026-08-27T11:39:11.253Z</time>
      </trkpt>
      <trkpt lat="47.83255" lon="6.99524">
        <ele>1052.6</ele>
        <time>2026-08-27T11:39:12.368Z</time>
      </trkpt>
      <trkpt lat="47.83253" lon="6.99526">
        <ele>1052.6</ele>
        <time>2026-08-27T11:39:14.282Z</time>
      </trkpt>
      <trkpt lat="47.83253" lon="6.99526">
        <ele>1052.6</ele>
        <time>2026-08-27T11:39:15.291Z</time>
      </trkpt>
      <trkpt lat="47.83252" lon="6.99527">
        <ele>1052.6</ele>
        <time>2026-08-27T11:39:17.308Z</time>
      </trkpt>
      <trkpt lat="47.83251" lon="6.99528">
        <ele>1052.6</ele>
        <time>2026-08-27T11:39:18.371Z</time>
      </trkpt>
      <trkpt lat="47.83249" lon="6.99529">
        <ele>1052.8</ele>
        <time>2026-08-27T11:39:20.331Z</time>
      </trkpt>
      <trkpt lat="47.83248" lon="6.9953">
        <ele>1052.9</ele>
        <time>2026-08-27T11:39:22.348Z</time>
      </trkpt>
      <trkpt lat="47.83247" lon="6.99531">
        <ele>1053</ele>
        <time>2026-08-27T11:39:23.356Z</time>
      </trkpt>
      <trkpt lat="47.83247" lon="6.99531">
        <ele>1052.9</ele>
        <time>2026-08-27T11:39:24.364Z</time>
      </trkpt>
      <trkpt lat="47.83245" lon="6.99533">
        <ele>1053.1</ele>
        <time>2026-08-27T11:39:26.267Z</time>
      </trkpt>
      <trkpt lat="47.83244" lon="6.99534">
        <ele>1053.2</ele>
        <time>2026-08-27T11:39:27.289Z</time>
      </trkpt>
      <trkpt lat="47.83243" lon="6.99535">
        <ele>1053.2</ele>
        <time>2026-08-27T11:39:28.296Z</time>
      </trkpt>
      <trkpt lat="47.83242" lon="6.99536">
        <ele>1053.3</ele>
        <time>2026-08-27T11:39:29.304Z</time>
      </trkpt>
      <trkpt lat="47.83242" lon="6.99536">
        <ele>1053.3</ele>
        <time>2026-08-27T11:39:30.312Z</time>
      </trkpt>
      <trkpt lat="47.8324" lon="6.99538">
        <ele>1053.5</ele>
        <time>2026-08-27T11:39:32.329Z</time>
      </trkpt>
      <trkpt lat="47.83238" lon="6.99538">
        <ele>1053.7</ele>
        <time>2026-08-27T11:39:34.345Z</time>
      </trkpt>
      <trkpt lat="47.83237" lon="6.9954">
        <ele>1053.8</ele>
        <time>2026-08-27T11:39:36.362Z</time>
      </trkpt>
      <trkpt lat="47.83236" lon="6.99541">
        <ele>1053.9</ele>
        <time>2026-08-27T11:39:38.278Z</time>
      </trkpt>
      <trkpt lat="47.83236" lon="6.99542">
        <ele>1053.9</ele>
        <time>2026-08-27T11:39:39.348Z</time>
      </trkpt>
      <trkpt lat="47.83234" lon="6.99543">
        <ele>1054.1</ele>
        <time>2026-08-27T11:39:41.302Z</time>
      </trkpt>
      <trkpt lat="47.83233" lon="6.99546">
        <ele>1054.1</ele>
        <time>2026-08-27T11:39:43.318Z</time>
      </trkpt>
      <trkpt lat="47.83233" lon="6.99547">
        <ele>1054.2</ele>
        <time>2026-08-27T11:39:44.327Z</time>
      </trkpt>
      <trkpt lat="47.83232" lon="6.99549">
        <ele>1054.3</ele>
        <time>2026-08-27T11:39:45.334Z</time>
      </trkpt>
      <trkpt lat="47.83232" lon="6.9955">
        <ele>1054.3</ele>
        <time>2026-08-27T11:39:46.347Z</time>
      </trkpt>
      <trkpt lat="47.83231" lon="6.99552">
        <ele>1054.6</ele>
        <time>2026-08-27T11:39:47.351Z</time>
      </trkpt>
      <trkpt lat="47.8323" lon="6.99553">
        <ele>1054.7</ele>
        <time>2026-08-27T11:39:48.359Z</time>
      </trkpt>
      <trkpt lat="47.8323" lon="6.99554">
        <ele>1054.7</ele>
        <time>2026-08-27T11:39:49.367Z</time>
      </trkpt>
      <trkpt lat="47.83229" lon="6.99556">
        <ele>1054.8</ele>
        <time>2026-08-27T11:39:51.355Z</time>
      </trkpt>
      <trkpt lat="47.83228" lon="6.99558">
        <ele>1054.8</ele>
        <time>2026-08-27T11:39:53.287Z</time>
      </trkpt>
      <trkpt lat="47.83228" lon="6.99559">
        <ele>1054.7</ele>
        <time>2026-08-27T11:39:54.307Z</time>
      </trkpt>
      <trkpt lat="47.83227" lon="6.99562">
        <ele>1054.8</ele>
        <time>2026-08-27T11:39:56.325Z</time>
      </trkpt>
      <trkpt lat="47.83226" lon="6.99563">
        <ele>1054.9</ele>
        <time>2026-08-27T11:39:57.333Z</time>
      </trkpt>
      <trkpt lat="47.83226" lon="6.99564">
        <ele>1054.8</ele>
        <time>2026-08-27T11:39:58.341Z</time>
      </trkpt>
      <trkpt lat="47.83225" lon="6.99565">
        <ele>1054.9</ele>
        <time>2026-08-27T11:39:59.348Z</time>
      </trkpt>
      <trkpt lat="47.83224" lon="6.99566">
        <ele>1054.9</ele>
        <time>2026-08-27T11:40:00.356Z</time>
      </trkpt>
      <trkpt lat="47.83224" lon="6.99568">
        <ele>1055</ele>
        <time>2026-08-27T11:40:01.366Z</time>
      </trkpt>
      <trkpt lat="47.83223" lon="6.9957">
        <ele>1055</ele>
        <time>2026-08-27T11:40:03.280Z</time>
      </trkpt>
      <trkpt lat="47.83223" lon="6.99571">
        <ele>1055</ele>
        <time>2026-08-27T11:40:04.288Z</time>
      </trkpt>
      <trkpt lat="47.83222" lon="6.99574">
        <ele>1055.2</ele>
        <time>2026-08-27T11:40:06.305Z</time>
      </trkpt>
      <trkpt lat="47.83222" lon="6.99575">
        <ele>1055.1</ele>
        <time>2026-08-27T11:40:07.313Z</time>
      </trkpt>
      <trkpt lat="47.83222" lon="6.99577">
        <ele>1055.2</ele>
        <time>2026-08-27T11:40:08.321Z</time>
      </trkpt>
      <trkpt lat="47.83222" lon="6.99578">
        <ele>1055.2</ele>
        <time>2026-08-27T11:40:09.329Z</time>
      </trkpt>
      <trkpt lat="47.83221" lon="6.9958">
        <ele>1055.3</ele>
        <time>2026-08-27T11:40:11.346Z</time>
      </trkpt>
      <trkpt lat="47.83221" lon="6.99581">
        <ele>1055.4</ele>
        <time>2026-08-27T11:40:12.355Z</time>
      </trkpt>
      <trkpt lat="47.83221" lon="6.99581">
        <ele>1055.4</ele>
        <time>2026-08-27T11:40:13.363Z</time>
      </trkpt>
      <trkpt lat="47.8322" lon="6.99583">
        <ele>1055.7</ele>
        <time>2026-08-27T11:40:15.278Z</time>
      </trkpt>
      <trkpt lat="47.8322" lon="6.99584">
        <ele>1055.8</ele>
        <time>2026-08-27T11:40:16.287Z</time>
      </trkpt>
      <trkpt lat="47.8322" lon="6.99585">
        <ele>1055.9</ele>
        <time>2026-08-27T11:40:17.294Z</time>
      </trkpt>
      <trkpt lat="47.83219" lon="6.99586">
        <ele>1055.9</ele>
        <time>2026-08-27T11:40:18.374Z</time>
      </trkpt>
      <trkpt lat="47.83218" lon="6.99588">
        <ele>1056.3</ele>
        <time>2026-08-27T11:40:20.319Z</time>
      </trkpt>
      <trkpt lat="47.83217" lon="6.99589">
        <ele>1056.4</ele>
        <time>2026-08-27T11:40:21.327Z</time>
      </trkpt>
      <trkpt lat="47.83217" lon="6.9959">
        <ele>1056.5</ele>
        <time>2026-08-27T11:40:22.336Z</time>
      </trkpt>
      <trkpt lat="47.83216" lon="6.99593">
        <ele>1056.8</ele>
        <time>2026-08-27T11:40:24.352Z</time>
      </trkpt>
      <trkpt lat="47.83215" lon="6.99594">
        <ele>1056.8</ele>
        <time>2026-08-27T11:40:25.359Z</time>
      </trkpt>
      <trkpt lat="47.83214" lon="6.99596">
        <ele>1056.9</ele>
        <time>2026-08-27T11:40:27.275Z</time>
      </trkpt>
      <trkpt lat="47.83213" lon="6.99597">
        <ele>1056.9</ele>
        <time>2026-08-27T11:40:28.371Z</time>
      </trkpt>
      <trkpt lat="47.83212" lon="6.99598">
        <ele>1057.1</ele>
        <time>2026-08-27T11:40:30.301Z</time>
      </trkpt>
      <trkpt lat="47.83211" lon="6.99599">
        <ele>1057.3</ele>
        <time>2026-08-27T11:40:31.309Z</time>
      </trkpt>
      <trkpt lat="47.83211" lon="6.99599">
        <ele>1057.3</ele>
        <time>2026-08-27T11:40:32.316Z</time>
      </trkpt>
      <trkpt lat="47.83211" lon="6.99598">
        <ele>1057.4</ele>
        <time>2026-08-27T11:40:33.324Z</time>
      </trkpt>
      <trkpt lat="47.83212" lon="6.99598">
        <ele>1057.3</ele>
        <time>2026-08-27T11:40:34.332Z</time>
      </trkpt>
      <trkpt lat="47.83212" lon="6.99597">
        <ele>1057.4</ele>
        <time>2026-08-27T11:40:35.342Z</time>
      </trkpt>
      <trkpt lat="47.83212" lon="6.99597">
        <ele>1057.4</ele>
        <time>2026-08-27T11:40:36.349Z</time>
      </trkpt>
      <trkpt lat="47.83212" lon="6.99597">
        <ele>1057.4</ele>
        <time>2026-08-27T11:40:37.358Z</time>
      </trkpt>
      <trkpt lat="47.83213" lon="6.99597">
        <ele>1057.4</ele>
        <time>2026-08-27T11:40:38.365Z</time>
      </trkpt>
      <trkpt lat="47.83213" lon="6.99597">
        <ele>1057.4</ele>
        <time>2026-08-27T11:40:40.282Z</time>
      </trkpt>
      <trkpt lat="47.83213" lon="6.99597">
        <ele>1057.4</ele>
        <time>2026-08-27T11:40:41.289Z</time>
      </trkpt>
      <trkpt lat="47.83213" lon="6.99597">
        <ele>1057.5</ele>
        <time>2026-08-27T11:40:42.297Z</time>
      </trkpt>
      <trkpt lat="47.83213" lon="6.99597">
        <ele>1057.5</ele>
        <time>2026-08-27T11:40:43.305Z</time>
      </trkpt>
      <trkpt lat="47.83213" lon="6.99597">
        <ele>1057.5</ele>
        <time>2026-08-27T11:40:44.313Z</time>
      </trkpt>
      <trkpt lat="47.83213" lon="6.99597">
        <ele>1057.7</ele>
        <time>2026-08-27T11:40:45.323Z</time>
      </trkpt>
      <trkpt lat="47.83213" lon="6.99597">
        <ele>1057.5</ele>
        <time>2026-08-27T11:40:46.330Z</time>
      </trkpt>
      <trkpt lat="47.83213" lon="6.99597">
        <ele>1057.5</ele>
        <time>2026-08-27T11:40:47.339Z</time>
      </trkpt>
      <trkpt lat="47.83213" lon="6.99597">
        <ele>1058</ele>
        <time>2026-08-27T11:40:48.347Z</time>
      </trkpt>
      <trkpt lat="47.83213" lon="6.99597">
        <ele>1057.5</ele>
        <time>2026-08-27T11:40:49.354Z</time>
      </trkpt>
      <trkpt lat="47.83213" lon="6.99597">
        <ele>1057.6</ele>
        <time>2026-08-27T11:40:50.363Z</time>
      </trkpt>
      <trkpt lat="47.83213" lon="6.99597">
        <ele>1057.6</ele>
        <time>2026-08-27T11:40:52.278Z</time>
      </trkpt>
      <trkpt lat="47.83213" lon="6.99598">
        <ele>1057.6</ele>
        <time>2026-08-27T11:40:53.286Z</time>
      </trkpt>
      <trkpt lat="47.83213" lon="6.99598">
        <ele>1057.6</ele>
        <time>2026-08-27T11:40:54.295Z</time>
      </trkpt>
      <trkpt lat="47.83213" lon="6.99598">
        <ele>1057.5</ele>
        <time>2026-08-27T11:40:55.304Z</time>
      </trkpt>
      <trkpt lat="47.83213" lon="6.99599">
        <ele>1057.5</ele>
        <time>2026-08-27T11:40:56.311Z</time>
      </trkpt>
      <trkpt lat="47.83213" lon="6.99599">
        <ele>1057.6</ele>
        <time>2026-08-27T11:40:57.320Z</time>
      </trkpt>
      <trkpt lat="47.83213" lon="6.99599">
        <ele>1057.6</ele>
        <time>2026-08-27T11:40:58.327Z</time>
      </trkpt>
      <trkpt lat="47.83213" lon="6.99599">
        <ele>1057.7</ele>
        <time>2026-08-27T11:40:59.335Z</time>
      </trkpt>
      <trkpt lat="47.83213" lon="6.99599">
        <ele>1058.1</ele>
        <time>2026-08-27T11:41:00.344Z</time>
      </trkpt>
      <trkpt lat="47.83214" lon="6.99599">
        <ele>1058</ele>
        <time>2026-08-27T11:41:01.352Z</time>
      </trkpt>
      <trkpt lat="47.83214" lon="6.996">
        <ele>1058</ele>
        <time>2026-08-27T11:41:02.360Z</time>
      </trkpt>
      <trkpt lat="47.83214" lon="6.996">
        <ele>1058.1</ele>
        <time>2026-08-27T11:41:03.369Z</time>
      </trkpt>
      <trkpt lat="47.83214" lon="6.996">
        <ele>1058</ele>
        <time>2026-08-27T11:41:05.284Z</time>
      </trkpt>
      <trkpt lat="47.83214" lon="6.996">
        <ele>1058</ele>
        <time>2026-08-27T11:41:06.293Z</time>
      </trkpt>
      <trkpt lat="47.83214" lon="6.996">
        <ele>1058.1</ele>
        <time>2026-08-27T11:41:07.301Z</time>
      </trkpt>
      <trkpt lat="47.83214" lon="6.996">
        <ele>1057.8</ele>
        <time>2026-08-27T11:41:09.317Z</time>
      </trkpt>
      <trkpt lat="47.83213" lon="6.996">
        <ele>1057.7</ele>
        <time>2026-08-27T11:41:10.325Z</time>
      </trkpt>
      <trkpt lat="47.83212" lon="6.996">
        <ele>1057.7</ele>
        <time>2026-08-27T11:41:12.341Z</time>
      </trkpt>
      <trkpt lat="47.83211" lon="6.99601">
        <ele>1057.6</ele>
        <time>2026-08-27T11:41:13.349Z</time>
      </trkpt>
      <trkpt lat="47.83209" lon="6.99602">
        <ele>1057.6</ele>
        <time>2026-08-27T11:41:14.357Z</time>
      </trkpt>
      <trkpt lat="47.83207" lon="6.99605">
        <ele>1057.7</ele>
        <time>2026-08-27T11:41:16.274Z</time>
      </trkpt>
      <trkpt lat="47.83206" lon="6.99606">
        <ele>1057.9</ele>
        <time>2026-08-27T11:41:17.281Z</time>
      </trkpt>
      <trkpt lat="47.83205" lon="6.99607">
        <ele>1058</ele>
        <time>2026-08-27T11:41:18.289Z</time>
      </trkpt>
      <trkpt lat="47.83205" lon="6.99607">
        <ele>1058.1</ele>
        <time>2026-08-27T11:41:19.297Z</time>
      </trkpt>
      <trkpt lat="47.83205" lon="6.99607">
        <ele>1058.4</ele>
        <time>2026-08-27T11:41:20.306Z</time>
      </trkpt>
      <trkpt lat="47.83205" lon="6.99607">
        <ele>1058.5</ele>
        <time>2026-08-27T11:41:21.314Z</time>
      </trkpt>
      <trkpt lat="47.83205" lon="6.99607">
        <ele>1058.2</ele>
        <time>2026-08-27T11:41:22.323Z</time>
      </trkpt>
      <trkpt lat="47.83205" lon="6.99606">
        <ele>1058.1</ele>
        <time>2026-08-27T11:41:23.330Z</time>
      </trkpt>
      <trkpt lat="47.83206" lon="6.99606">
        <ele>1057.9</ele>
        <time>2026-08-27T11:41:24.339Z</time>
      </trkpt>
      <trkpt lat="47.83206" lon="6.99606">
        <ele>1058</ele>
        <time>2026-08-27T11:41:25.347Z</time>
      </trkpt>
      <trkpt lat="47.83206" lon="6.99606">
        <ele>1058</ele>
        <time>2026-08-27T11:41:26.355Z</time>
      </trkpt>
      <trkpt lat="47.83206" lon="6.99606">
        <ele>1058.2</ele>
        <time>2026-08-27T11:41:27.364Z</time>
      </trkpt>
      <trkpt lat="47.83206" lon="6.99606">
        <ele>1058.4</ele>
        <time>2026-08-27T11:41:28.371Z</time>
      </trkpt>
      <trkpt lat="47.83206" lon="6.99605">
        <ele>1058.6</ele>
        <time>2026-08-27T11:41:30.288Z</time>
      </trkpt>
      <trkpt lat="47.83206" lon="6.99605">
        <ele>1058.6</ele>
        <time>2026-08-27T11:41:31.295Z</time>
      </trkpt>
      <trkpt lat="47.83206" lon="6.99605">
        <ele>1058.5</ele>
        <time>2026-08-27T11:41:32.303Z</time>
      </trkpt>
      <trkpt lat="47.83206" lon="6.99605">
        <ele>1058.6</ele>
        <time>2026-08-27T11:41:33.311Z</time>
      </trkpt>
      <trkpt lat="47.83206" lon="6.99605">
        <ele>1058.6</ele>
        <time>2026-08-27T11:41:34.319Z</time>
      </trkpt>
      <trkpt lat="47.83206" lon="6.99605">
        <ele>1058.5</ele>
        <time>2026-08-27T11:41:35.328Z</time>
      </trkpt>
      <trkpt lat="47.83206" lon="6.99605">
        <ele>1058.7</ele>
        <time>2026-08-27T11:41:36.337Z</time>
      </trkpt>
      <trkpt lat="47.83206" lon="6.99605">
        <ele>1058.6</ele>
        <time>2026-08-27T11:41:37.345Z</time>
      </trkpt>
      <trkpt lat="47.83206" lon="6.99605">
        <ele>1058.4</ele>
        <time>2026-08-27T11:41:38.352Z</time>
      </trkpt>
      <trkpt lat="47.83206" lon="6.99606">
        <ele>1058.4</ele>
        <time>2026-08-27T11:41:40.269Z</time>
      </trkpt>
      <trkpt lat="47.83206" lon="6.99606">
        <ele>1058.3</ele>
        <time>2026-08-27T11:41:41.277Z</time>
      </trkpt>
      <trkpt lat="47.83206" lon="6.99606">
        <ele>1058.3</ele>
        <time>2026-08-27T11:41:42.284Z</time>
      </trkpt>
      <trkpt lat="47.83206" lon="6.99606">
        <ele>1058.3</ele>
        <time>2026-08-27T11:41:43.292Z</time>
      </trkpt>
      <trkpt lat="47.83205" lon="6.99606">
        <ele>1058.3</ele>
        <time>2026-08-27T11:41:44.300Z</time>
      </trkpt>
      <trkpt lat="47.83205" lon="6.99606">
        <ele>1058.5</ele>
        <time>2026-08-27T11:41:45.310Z</time>
      </trkpt>
      <trkpt lat="47.83205" lon="6.99606">
        <ele>1058.4</ele>
        <time>2026-08-27T11:41:46.318Z</time>
      </trkpt>
      <trkpt lat="47.83205" lon="6.99606">
        <ele>1058.4</ele>
        <time>2026-08-27T11:41:47.325Z</time>
      </trkpt>
      <trkpt lat="47.83205" lon="6.99606">
        <ele>1058.7</ele>
        <time>2026-08-27T11:41:48.333Z</time>
      </trkpt>
      <trkpt lat="47.83205" lon="6.99607">
        <ele>1058.7</ele>
        <time>2026-08-27T11:41:49.342Z</time>
      </trkpt>
      <trkpt lat="47.83205" lon="6.99607">
        <ele>1058.7</ele>
        <time>2026-08-27T11:41:50.350Z</time>
      </trkpt>
      <trkpt lat="47.83205" lon="6.99607">
        <ele>1058.5</ele>
        <time>2026-08-27T11:41:51.358Z</time>
      </trkpt>
      <trkpt lat="47.83205" lon="6.99607">
        <ele>1058.4</ele>
        <time>2026-08-27T11:41:52.366Z</time>
      </trkpt>
      <trkpt lat="47.83203" lon="6.99609">
        <ele>1058.3</ele>
        <time>2026-08-27T11:41:54.281Z</time>
      </trkpt>
      <trkpt lat="47.83202" lon="6.9961">
        <ele>1058.2</ele>
        <time>2026-08-27T11:41:55.290Z</time>
      </trkpt>
      <trkpt lat="47.83201" lon="6.99611">
        <ele>1058.5</ele>
        <time>2026-08-27T11:41:56.299Z</time>
      </trkpt>
      <trkpt lat="47.832" lon="6.99612">
        <ele>1058.7</ele>
        <time>2026-08-27T11:41:57.306Z</time>
      </trkpt>
      <trkpt lat="47.83199" lon="6.99614">
        <ele>1058.9</ele>
        <time>2026-08-27T11:41:58.315Z</time>
      </trkpt>
      <trkpt lat="47.83199" lon="6.99615">
        <ele>1059.1</ele>
        <time>2026-08-27T11:41:59.322Z</time>
      </trkpt>
      <trkpt lat="47.83198" lon="6.99617">
        <ele>1059.1</ele>
        <time>2026-08-27T11:42:00.332Z</time>
      </trkpt>
      <trkpt lat="47.83198" lon="6.99618">
        <ele>1059.2</ele>
        <time>2026-08-27T11:42:01.340Z</time>
      </trkpt>
      <trkpt lat="47.83197" lon="6.99619">
        <ele>1059.2</ele>
        <time>2026-08-27T11:42:02.347Z</time>
      </trkpt>
      <trkpt lat="47.83196" lon="6.9962">
        <ele>1059.3</ele>
        <time>2026-08-27T11:42:03.356Z</time>
      </trkpt>
      <trkpt lat="47.83195" lon="6.99621">
        <ele>1059.5</ele>
        <time>2026-08-27T11:42:04.364Z</time>
      </trkpt>
      <trkpt lat="47.83194" lon="6.99624">
        <ele>1059.5</ele>
        <time>2026-08-27T11:42:06.308Z</time>
      </trkpt>
      <trkpt lat="47.83193" lon="6.99627">
        <ele>1059.3</ele>
        <time>2026-08-27T11:42:08.296Z</time>
      </trkpt>
      <trkpt lat="47.83192" lon="6.99628">
        <ele>1059.4</ele>
        <time>2026-08-27T11:42:09.303Z</time>
      </trkpt>
      <trkpt lat="47.83192" lon="6.99629">
        <ele>1059.4</ele>
        <time>2026-08-27T11:42:10.308Z</time>
      </trkpt>
      <trkpt lat="47.83192" lon="6.99631">
        <ele>1059.5</ele>
        <time>2026-08-27T11:42:11.320Z</time>
      </trkpt>
      <trkpt lat="47.83191" lon="6.99632">
        <ele>1059.4</ele>
        <time>2026-08-27T11:42:12.332Z</time>
      </trkpt>
      <trkpt lat="47.8319" lon="6.99633">
        <ele>1059.7</ele>
        <time>2026-08-27T11:42:14.264Z</time>
      </trkpt>
      <trkpt lat="47.8319" lon="6.99635">
        <ele>1059.8</ele>
        <time>2026-08-27T11:42:15.274Z</time>
      </trkpt>
      <trkpt lat="47.83189" lon="6.99637">
        <ele>1060.1</ele>
        <time>2026-08-27T11:42:17.289Z</time>
      </trkpt>
      <trkpt lat="47.83188" lon="6.99638">
        <ele>1059.9</ele>
        <time>2026-08-27T11:42:18.298Z</time>
      </trkpt>
      <trkpt lat="47.83187" lon="6.99639">
        <ele>1059.8</ele>
        <time>2026-08-27T11:42:19.331Z</time>
      </trkpt>
      <trkpt lat="47.83186" lon="6.99642">
        <ele>1059.9</ele>
        <time>2026-08-27T11:42:21.323Z</time>
      </trkpt>
      <trkpt lat="47.83185" lon="6.99643">
        <ele>1059.9</ele>
        <time>2026-08-27T11:42:22.331Z</time>
      </trkpt>
      <trkpt lat="47.83184" lon="6.99644">
        <ele>1059.8</ele>
        <time>2026-08-27T11:42:23.338Z</time>
      </trkpt>
      <trkpt lat="47.83183" lon="6.99645">
        <ele>1060</ele>
        <time>2026-08-27T11:42:25.254Z</time>
      </trkpt>
      <trkpt lat="47.83183" lon="6.99646">
        <ele>1060.2</ele>
        <time>2026-08-27T11:42:26.262Z</time>
      </trkpt>
      <trkpt lat="47.83182" lon="6.99647">
        <ele>1060.3</ele>
        <time>2026-08-27T11:42:27.270Z</time>
      </trkpt>
      <trkpt lat="47.83182" lon="6.99649">
        <ele>1060.5</ele>
        <time>2026-08-27T11:42:28.279Z</time>
      </trkpt>
      <trkpt lat="47.83181" lon="6.9965">
        <ele>1060.5</ele>
        <time>2026-08-27T11:42:29.287Z</time>
      </trkpt>
      <trkpt lat="47.8318" lon="6.99651">
        <ele>1060.5</ele>
        <time>2026-08-27T11:42:30.312Z</time>
      </trkpt>
      <trkpt lat="47.83179" lon="6.99653">
        <ele>1060.3</ele>
        <time>2026-08-27T11:42:32.311Z</time>
      </trkpt>
      <trkpt lat="47.83179" lon="6.99654">
        <ele>1060.2</ele>
        <time>2026-08-27T11:42:33.321Z</time>
      </trkpt>
      <trkpt lat="47.83179" lon="6.99655">
        <ele>1060.2</ele>
        <time>2026-08-27T11:42:34.353Z</time>
      </trkpt>
      <trkpt lat="47.83178" lon="6.99657">
        <ele>1060.2</ele>
        <time>2026-08-27T11:42:36.344Z</time>
      </trkpt>
      <trkpt lat="47.83178" lon="6.99659">
        <ele>1060.2</ele>
        <time>2026-08-27T11:42:38.268Z</time>
      </trkpt>
      <trkpt lat="47.83178" lon="6.99661">
        <ele>1060</ele>
        <time>2026-08-27T11:42:39.370Z</time>
      </trkpt>
      <trkpt lat="47.83176" lon="6.99663">
        <ele>1060</ele>
        <time>2026-08-27T11:42:41.285Z</time>
      </trkpt>
      <trkpt lat="47.83176" lon="6.99664">
        <ele>1060</ele>
        <time>2026-08-27T11:42:42.293Z</time>
      </trkpt>
      <trkpt lat="47.83175" lon="6.99665">
        <ele>1060.1</ele>
        <time>2026-08-27T11:42:43.301Z</time>
      </trkpt>
      <trkpt lat="47.83174" lon="6.99666">
        <ele>1060.1</ele>
        <time>2026-08-27T11:42:44.336Z</time>
      </trkpt>
      <trkpt lat="47.83173" lon="6.99669">
        <ele>1060.4</ele>
        <time>2026-08-27T11:42:46.326Z</time>
      </trkpt>
      <trkpt lat="47.83173" lon="6.9967">
        <ele>1060.8</ele>
        <time>2026-08-27T11:42:47.334Z</time>
      </trkpt>
      <trkpt lat="47.83173" lon="6.99671">
        <ele>1060.5</ele>
        <time>2026-08-27T11:42:48.342Z</time>
      </trkpt>
      <trkpt lat="47.83173" lon="6.99672">
        <ele>1060.6</ele>
        <time>2026-08-27T11:42:49.376Z</time>
      </trkpt>
      <trkpt lat="47.83173" lon="6.99674">
        <ele>1060.8</ele>
        <time>2026-08-27T11:42:51.368Z</time>
      </trkpt>
      <trkpt lat="47.83172" lon="6.99676">
        <ele>1061</ele>
        <time>2026-08-27T11:42:53.283Z</time>
      </trkpt>
      <trkpt lat="47.83172" lon="6.99677">
        <ele>1061.3</ele>
        <time>2026-08-27T11:42:54.291Z</time>
      </trkpt>
      <trkpt lat="47.83172" lon="6.99679">
        <ele>1061.6</ele>
        <time>2026-08-27T11:42:56.307Z</time>
      </trkpt>
      <trkpt lat="47.83171" lon="6.9968">
        <ele>1061.9</ele>
        <time>2026-08-27T11:42:57.316Z</time>
      </trkpt>
      <trkpt lat="47.83171" lon="6.99681">
        <ele>1062</ele>
        <time>2026-08-27T11:42:58.325Z</time>
      </trkpt>
      <trkpt lat="47.83171" lon="6.99682">
        <ele>1062.1</ele>
        <time>2026-08-27T11:42:59.333Z</time>
      </trkpt>
      <trkpt lat="47.83171" lon="6.99683">
        <ele>1061.9</ele>
        <time>2026-08-27T11:43:00.340Z</time>
      </trkpt>
      <trkpt lat="47.83171" lon="6.99684">
        <ele>1062.1</ele>
        <time>2026-08-27T11:43:01.349Z</time>
      </trkpt>
      <trkpt lat="47.8317" lon="6.99685">
        <ele>1062.3</ele>
        <time>2026-08-27T11:43:02.357Z</time>
      </trkpt>
      <trkpt lat="47.8317" lon="6.99686">
        <ele>1062.7</ele>
        <time>2026-08-27T11:43:04.374Z</time>
      </trkpt>
      <trkpt lat="47.8317" lon="6.99688">
        <ele>1062.8</ele>
        <time>2026-08-27T11:43:06.289Z</time>
      </trkpt>
      <trkpt lat="47.8317" lon="6.99689">
        <ele>1062.8</ele>
        <time>2026-08-27T11:43:07.297Z</time>
      </trkpt>
      <trkpt lat="47.8317" lon="6.9969">
        <ele>1062.8</ele>
        <time>2026-08-27T11:43:08.331Z</time>
      </trkpt>
      <trkpt lat="47.8317" lon="6.99691">
        <ele>1063.1</ele>
        <time>2026-08-27T11:43:10.321Z</time>
      </trkpt>
      <trkpt lat="47.8317" lon="6.99692">
        <ele>1063.3</ele>
        <time>2026-08-27T11:43:11.331Z</time>
      </trkpt>
      <trkpt lat="47.83169" lon="6.99693">
        <ele>1063.3</ele>
        <time>2026-08-27T11:43:12.356Z</time>
      </trkpt>
      <trkpt lat="47.83169" lon="6.99695">
        <ele>1063.6</ele>
        <time>2026-08-27T11:43:14.354Z</time>
      </trkpt>
      <trkpt lat="47.83168" lon="6.99695">
        <ele>1063.9</ele>
        <time>2026-08-27T11:43:15.362Z</time>
      </trkpt>
      <trkpt lat="47.83168" lon="6.99696">
        <ele>1064.2</ele>
        <time>2026-08-27T11:43:16.371Z</time>
      </trkpt>
      <trkpt lat="47.83168" lon="6.99698">
        <ele>1064.3</ele>
        <time>2026-08-27T11:43:18.286Z</time>
      </trkpt>
      <trkpt lat="47.83168" lon="6.99698">
        <ele>1064.4</ele>
        <time>2026-08-27T11:43:19.294Z</time>
      </trkpt>
      <trkpt lat="47.83168" lon="6.99698">
        <ele>1064.7</ele>
        <time>2026-08-27T11:43:20.302Z</time>
      </trkpt>
      <trkpt lat="47.83168" lon="6.99698">
        <ele>1064.7</ele>
        <time>2026-08-27T11:43:21.312Z</time>
      </trkpt>
      <trkpt lat="47.83168" lon="6.99697">
        <ele>1064.7</ele>
        <time>2026-08-27T11:43:22.319Z</time>
      </trkpt>
      <trkpt lat="47.83168" lon="6.99697">
        <ele>1064.8</ele>
        <time>2026-08-27T11:43:23.327Z</time>
      </trkpt>
      <trkpt lat="47.83168" lon="6.99696">
        <ele>1065</ele>
        <time>2026-08-27T11:43:24.336Z</time>
      </trkpt>
      <trkpt lat="47.83167" lon="6.99696">
        <ele>1065.1</ele>
        <time>2026-08-27T11:43:25.344Z</time>
      </trkpt>
      <trkpt lat="47.83167" lon="6.99696">
        <ele>1065.1</ele>
        <time>2026-08-27T11:43:26.352Z</time>
      </trkpt>
      <trkpt lat="47.83167" lon="6.99696">
        <ele>1065</ele>
        <time>2026-08-27T11:43:27.360Z</time>
      </trkpt>
      <trkpt lat="47.83167" lon="6.99696">
        <ele>1065</ele>
        <time>2026-08-27T11:43:28.368Z</time>
      </trkpt>
      <trkpt lat="47.83167" lon="6.99695">
        <ele>1064.8</ele>
        <time>2026-08-27T11:43:30.309Z</time>
      </trkpt>
      <trkpt lat="47.83167" lon="6.99696">
        <ele>1065.2</ele>
        <time>2026-08-27T11:43:32.300Z</time>
      </trkpt>
      <trkpt lat="47.83168" lon="6.99696">
        <ele>1065.2</ele>
        <time>2026-08-27T11:43:33.308Z</time>
      </trkpt>
      <trkpt lat="47.83168" lon="6.99696">
        <ele>1064.9</ele>
        <time>2026-08-27T11:43:34.316Z</time>
      </trkpt>
      <trkpt lat="47.83168" lon="6.99697">
        <ele>1064.8</ele>
        <time>2026-08-27T11:43:35.325Z</time>
      </trkpt>
      <trkpt lat="47.83168" lon="6.99697">
        <ele>1064.8</ele>
        <time>2026-08-27T11:43:36.333Z</time>
      </trkpt>
      <trkpt lat="47.83168" lon="6.99697">
        <ele>1064.7</ele>
        <time>2026-08-27T11:43:37.342Z</time>
      </trkpt>
      <trkpt lat="47.83168" lon="6.99697">
        <ele>1064.7</ele>
        <time>2026-08-27T11:43:38.349Z</time>
      </trkpt>
      <trkpt lat="47.83168" lon="6.99697">
        <ele>1064.8</ele>
        <time>2026-08-27T11:43:39.357Z</time>
      </trkpt>
      <trkpt lat="47.83168" lon="6.99698">
        <ele>1065</ele>
        <time>2026-08-27T11:43:40.365Z</time>
      </trkpt>
      <trkpt lat="47.83168" lon="6.99698">
        <ele>1065</ele>
        <time>2026-08-27T11:43:42.281Z</time>
      </trkpt>
      <trkpt lat="47.83168" lon="6.99698">
        <ele>1065.1</ele>
        <time>2026-08-27T11:43:43.289Z</time>
      </trkpt>
      <trkpt lat="47.83168" lon="6.99698">
        <ele>1065.3</ele>
        <time>2026-08-27T11:43:44.298Z</time>
      </trkpt>
      <trkpt lat="47.83168" lon="6.99698">
        <ele>1065.1</ele>
        <time>2026-08-27T11:43:45.305Z</time>
      </trkpt>
      <trkpt lat="47.83168" lon="6.99698">
        <ele>1064.8</ele>
        <time>2026-08-27T11:43:46.315Z</time>
      </trkpt>
      <trkpt lat="47.83168" lon="6.99699">
        <ele>1064.8</ele>
        <time>2026-08-27T11:43:48.330Z</time>
      </trkpt>
      <trkpt lat="47.83168" lon="6.99701">
        <ele>1064.9</ele>
        <time>2026-08-27T11:43:49.338Z</time>
      </trkpt>
      <trkpt lat="47.83167" lon="6.99705">
        <ele>1065.2</ele>
        <time>2026-08-27T11:43:51.354Z</time>
      </trkpt>
      <trkpt lat="47.83167" lon="6.99708">
        <ele>1065.6</ele>
        <time>2026-08-27T11:43:53.270Z</time>
      </trkpt>
      <trkpt lat="47.83169" lon="6.9971">
        <ele>1065.9</ele>
        <time>2026-08-27T11:43:55.286Z</time>
      </trkpt>
      <trkpt lat="47.8317" lon="6.9971">
        <ele>1066.1</ele>
        <time>2026-08-27T11:43:56.295Z</time>
      </trkpt>
      <trkpt lat="47.8317" lon="6.99711">
        <ele>1066.1</ele>
        <time>2026-08-27T11:43:57.354Z</time>
      </trkpt>
      <trkpt lat="47.83171" lon="6.99713">
        <ele>1066</ele>
        <time>2026-08-27T11:43:59.320Z</time>
      </trkpt>
      <trkpt lat="47.83171" lon="6.99714">
        <ele>1066.3</ele>
        <time>2026-08-27T11:44:00.328Z</time>
      </trkpt>
      <trkpt lat="47.83171" lon="6.99715">
        <ele>1066.6</ele>
        <time>2026-08-27T11:44:01.335Z</time>
      </trkpt>
      <trkpt lat="47.83171" lon="6.99716">
        <ele>1066.7</ele>
        <time>2026-08-27T11:44:02.344Z</time>
      </trkpt>
      <trkpt lat="47.83171" lon="6.99717">
        <ele>1066.5</ele>
        <time>2026-08-27T11:44:03.352Z</time>
      </trkpt>
      <trkpt lat="47.83171" lon="6.99718">
        <ele>1066.5</ele>
        <time>2026-08-27T11:44:04.361Z</time>
      </trkpt>
      <trkpt lat="47.83171" lon="6.99719">
        <ele>1066.5</ele>
        <time>2026-08-27T11:44:05.368Z</time>
      </trkpt>
      <trkpt lat="47.83172" lon="6.9972">
        <ele>1066.6</ele>
        <time>2026-08-27T11:44:07.292Z</time>
      </trkpt>
      <trkpt lat="47.83172" lon="6.9972">
        <ele>1067.1</ele>
        <time>2026-08-27T11:44:08.292Z</time>
      </trkpt>
      <trkpt lat="47.83173" lon="6.99721">
        <ele>1067.2</ele>
        <time>2026-08-27T11:44:09.300Z</time>
      </trkpt>
      <trkpt lat="47.83173" lon="6.99722">
        <ele>1067.4</ele>
        <time>2026-08-27T11:44:10.308Z</time>
      </trkpt>
      <trkpt lat="47.83174" lon="6.99722">
        <ele>1067.4</ele>
        <time>2026-08-27T11:44:11.317Z</time>
      </trkpt>
      <trkpt lat="47.83174" lon="6.99723">
        <ele>1067.6</ele>
        <time>2026-08-27T11:44:12.324Z</time>
      </trkpt>
      <trkpt lat="47.83174" lon="6.99724">
        <ele>1067.7</ele>
        <time>2026-08-27T11:44:13.333Z</time>
      </trkpt>
      <trkpt lat="47.83175" lon="6.99725">
        <ele>1067.8</ele>
        <time>2026-08-27T11:44:14.375Z</time>
      </trkpt>
      <trkpt lat="47.83175" lon="6.99727">
        <ele>1067.8</ele>
        <time>2026-08-27T11:44:16.357Z</time>
      </trkpt>
      <trkpt lat="47.83175" lon="6.99728">
        <ele>1067.8</ele>
        <time>2026-08-27T11:44:17.366Z</time>
      </trkpt>
      <trkpt lat="47.83175" lon="6.99729">
        <ele>1068.1</ele>
        <time>2026-08-27T11:44:19.282Z</time>
      </trkpt>
      <trkpt lat="47.83175" lon="6.9973">
        <ele>1068.3</ele>
        <time>2026-08-27T11:44:20.289Z</time>
      </trkpt>
      <trkpt lat="47.83176" lon="6.99731">
        <ele>1068.6</ele>
        <time>2026-08-27T11:44:21.298Z</time>
      </trkpt>
      <trkpt lat="47.83176" lon="6.99731">
        <ele>1068.6</ele>
        <time>2026-08-27T11:44:22.356Z</time>
      </trkpt>
      <trkpt lat="47.83177" lon="6.99733">
        <ele>1069.3</ele>
        <time>2026-08-27T11:44:24.322Z</time>
      </trkpt>
      <trkpt lat="47.83178" lon="6.99734">
        <ele>1069.3</ele>
        <time>2026-08-27T11:44:25.330Z</time>
      </trkpt>
      <trkpt lat="47.83178" lon="6.99735">
        <ele>1069.3</ele>
        <time>2026-08-27T11:44:26.338Z</time>
      </trkpt>
      <trkpt lat="47.83178" lon="6.99736">
        <ele>1069.7</ele>
        <time>2026-08-27T11:44:27.346Z</time>
      </trkpt>
      <trkpt lat="47.83179" lon="6.99737">
        <ele>1069.7</ele>
        <time>2026-08-27T11:44:28.354Z</time>
      </trkpt>
      <trkpt lat="47.83179" lon="6.99738">
        <ele>1069.8</ele>
        <time>2026-08-27T11:44:29.364Z</time>
      </trkpt>
      <trkpt lat="47.8318" lon="6.99739">
        <ele>1069.8</ele>
        <time>2026-08-27T11:44:31.279Z</time>
      </trkpt>
      <trkpt lat="47.8318" lon="6.9974">
        <ele>1069.8</ele>
        <time>2026-08-27T11:44:32.286Z</time>
      </trkpt>
      <trkpt lat="47.8318" lon="6.99741">
        <ele>1069.9</ele>
        <time>2026-08-27T11:44:33.294Z</time>
      </trkpt>
      <trkpt lat="47.83181" lon="6.99742">
        <ele>1069.9</ele>
        <time>2026-08-27T11:44:34.337Z</time>
      </trkpt>
      <trkpt lat="47.83181" lon="6.99744">
        <ele>1070.3</ele>
        <time>2026-08-27T11:44:36.319Z</time>
      </trkpt>
      <trkpt lat="47.83181" lon="6.99745">
        <ele>1070.5</ele>
        <time>2026-08-27T11:44:37.328Z</time>
      </trkpt>
      <trkpt lat="47.83181" lon="6.99745">
        <ele>1070.7</ele>
        <time>2026-08-27T11:44:38.335Z</time>
      </trkpt>
      <trkpt lat="47.83182" lon="6.99748">
        <ele>1070.8</ele>
        <time>2026-08-27T11:44:40.335Z</time>
      </trkpt>
      <trkpt lat="47.83182" lon="6.99749">
        <ele>1071.1</ele>
        <time>2026-08-27T11:44:41.360Z</time>
      </trkpt>
      <trkpt lat="47.83182" lon="6.99749">
        <ele>1071.1</ele>
        <time>2026-08-27T11:44:42.369Z</time>
      </trkpt>
      <trkpt lat="47.83183" lon="6.9975">
        <ele>1071</ele>
        <time>2026-08-27T11:44:44.293Z</time>
      </trkpt>
      <trkpt lat="47.83183" lon="6.99751">
        <ele>1071.6</ele>
        <time>2026-08-27T11:44:46.300Z</time>
      </trkpt>
      <trkpt lat="47.83184" lon="6.99752">
        <ele>1071.7</ele>
        <time>2026-08-27T11:44:47.309Z</time>
      </trkpt>
      <trkpt lat="47.83184" lon="6.99753">
        <ele>1072</ele>
        <time>2026-08-27T11:44:48.317Z</time>
      </trkpt>
      <trkpt lat="47.83184" lon="6.99753">
        <ele>1072</ele>
        <time>2026-08-27T11:44:49.324Z</time>
      </trkpt>
      <trkpt lat="47.83184" lon="6.99754">
        <ele>1072</ele>
        <time>2026-08-27T11:44:50.332Z</time>
      </trkpt>
      <trkpt lat="47.83184" lon="6.99754">
        <ele>1072.4</ele>
        <time>2026-08-27T11:44:51.341Z</time>
      </trkpt>
      <trkpt lat="47.83184" lon="6.99755">
        <ele>1072.4</ele>
        <time>2026-08-27T11:44:52.350Z</time>
      </trkpt>
      <trkpt lat="47.83185" lon="6.99757">
        <ele>1072.7</ele>
        <time>2026-08-27T11:44:54.366Z</time>
      </trkpt>
      <trkpt lat="47.83185" lon="6.99758">
        <ele>1073</ele>
        <time>2026-08-27T11:44:55.373Z</time>
      </trkpt>
      <trkpt lat="47.83185" lon="6.99759">
        <ele>1073.1</ele>
        <time>2026-08-27T11:44:57.356Z</time>
      </trkpt>
      <trkpt lat="47.83185" lon="6.99761">
        <ele>1073.3</ele>
        <time>2026-08-27T11:44:59.305Z</time>
      </trkpt>
      <trkpt lat="47.83185" lon="6.99762">
        <ele>1073.5</ele>
        <time>2026-08-27T11:45:00.314Z</time>
      </trkpt>
      <trkpt lat="47.83185" lon="6.99763">
        <ele>1073.5</ele>
        <time>2026-08-27T11:45:01.321Z</time>
      </trkpt>
      <trkpt lat="47.83185" lon="6.99764">
        <ele>1073.6</ele>
        <time>2026-08-27T11:45:02.330Z</time>
      </trkpt>
      <trkpt lat="47.83185" lon="6.99765">
        <ele>1073.7</ele>
        <time>2026-08-27T11:45:03.338Z</time>
      </trkpt>
      <trkpt lat="47.83185" lon="6.99765">
        <ele>1073.9</ele>
        <time>2026-08-27T11:45:04.346Z</time>
      </trkpt>
      <trkpt lat="47.83185" lon="6.99764">
        <ele>1074</ele>
        <time>2026-08-27T11:45:05.354Z</time>
      </trkpt>
      <trkpt lat="47.83185" lon="6.99764">
        <ele>1074</ele>
        <time>2026-08-27T11:45:06.362Z</time>
      </trkpt>
      <trkpt lat="47.83185" lon="6.99764">
        <ele>1074.3</ele>
        <time>2026-08-27T11:45:08.380Z</time>
      </trkpt>
      <trkpt lat="47.83185" lon="6.99764">
        <ele>1074.3</ele>
        <time>2026-08-27T11:45:10.294Z</time>
      </trkpt>
      <trkpt lat="47.83185" lon="6.99764">
        <ele>1074.2</ele>
        <time>2026-08-27T11:45:11.302Z</time>
      </trkpt>
      <trkpt lat="47.83185" lon="6.99764">
        <ele>1074.1</ele>
        <time>2026-08-27T11:45:12.310Z</time>
      </trkpt>
      <trkpt lat="47.83186" lon="6.99764">
        <ele>1074</ele>
        <time>2026-08-27T11:45:13.320Z</time>
      </trkpt>
      <trkpt lat="47.83185" lon="6.99764">
        <ele>1074.1</ele>
        <time>2026-08-27T11:45:14.327Z</time>
      </trkpt>
      <trkpt lat="47.83185" lon="6.99764">
        <ele>1074.2</ele>
        <time>2026-08-27T11:45:15.336Z</time>
      </trkpt>
      <trkpt lat="47.83185" lon="6.99764">
        <ele>1074.2</ele>
        <time>2026-08-27T11:45:16.344Z</time>
      </trkpt>
      <trkpt lat="47.83185" lon="6.99765">
        <ele>1074.3</ele>
        <time>2026-08-27T11:45:18.259Z</time>
      </trkpt>
      <trkpt lat="47.83186" lon="6.99765">
        <ele>1074.3</ele>
        <time>2026-08-27T11:45:19.268Z</time>
      </trkpt>
      <trkpt lat="47.83186" lon="6.99764">
        <ele>1074.6</ele>
        <time>2026-08-27T11:45:20.276Z</time>
      </trkpt>
      <trkpt lat="47.83186" lon="6.99764">
        <ele>1074.8</ele>
        <time>2026-08-27T11:45:21.283Z</time>
      </trkpt>
      <trkpt lat="47.83187" lon="6.99764">
        <ele>1074.5</ele>
        <time>2026-08-27T11:45:22.291Z</time>
      </trkpt>
      <trkpt lat="47.83187" lon="6.99764">
        <ele>1074.7</ele>
        <time>2026-08-27T11:45:23.300Z</time>
      </trkpt>
      <trkpt lat="47.83187" lon="6.99763">
        <ele>1074.7</ele>
        <time>2026-08-27T11:45:24.308Z</time>
      </trkpt>
      <trkpt lat="47.83187" lon="6.99763">
        <ele>1074.7</ele>
        <time>2026-08-27T11:45:25.317Z</time>
      </trkpt>
      <trkpt lat="47.83187" lon="6.99763">
        <ele>1074.8</ele>
        <time>2026-08-27T11:45:26.324Z</time>
      </trkpt>
      <trkpt lat="47.83187" lon="6.99763">
        <ele>1074.6</ele>
        <time>2026-08-27T11:45:27.332Z</time>
      </trkpt>
      <trkpt lat="47.83187" lon="6.99763">
        <ele>1074.4</ele>
        <time>2026-08-27T11:45:28.341Z</time>
      </trkpt>
      <trkpt lat="47.83187" lon="6.99763">
        <ele>1074.4</ele>
        <time>2026-08-27T11:45:30.256Z</time>
      </trkpt>
      <trkpt lat="47.83187" lon="6.99763">
        <ele>1074.3</ele>
        <time>2026-08-27T11:45:31.264Z</time>
      </trkpt>
      <trkpt lat="47.83187" lon="6.99763">
        <ele>1074.5</ele>
        <time>2026-08-27T11:45:32.272Z</time>
      </trkpt>
      <trkpt lat="47.83187" lon="6.99763">
        <ele>1074.6</ele>
        <time>2026-08-27T11:45:33.280Z</time>
      </trkpt>
      <trkpt lat="47.83187" lon="6.99763">
        <ele>1074.5</ele>
        <time>2026-08-27T11:45:34.289Z</time>
      </trkpt>
      <trkpt lat="47.83187" lon="6.99763">
        <ele>1074.7</ele>
        <time>2026-08-27T11:45:35.297Z</time>
      </trkpt>
      <trkpt lat="47.83187" lon="6.99763">
        <ele>1074.7</ele>
        <time>2026-08-27T11:45:36.306Z</time>
      </trkpt>
      <trkpt lat="47.83187" lon="6.99763">
        <ele>1074.7</ele>
        <time>2026-08-27T11:45:37.314Z</time>
      </trkpt>
      <trkpt lat="47.83187" lon="6.99763">
        <ele>1074.7</ele>
        <time>2026-08-27T11:45:38.321Z</time>
      </trkpt>
      <trkpt lat="47.83187" lon="6.99763">
        <ele>1074.5</ele>
        <time>2026-08-27T11:45:39.330Z</time>
      </trkpt>
      <trkpt lat="47.83187" lon="6.99763">
        <ele>1074.6</ele>
        <time>2026-08-27T11:45:40.338Z</time>
      </trkpt>
      <trkpt lat="47.83187" lon="6.99763">
        <ele>1074.6</ele>
        <time>2026-08-27T11:45:41.347Z</time>
      </trkpt>
      <trkpt lat="47.83187" lon="6.99763">
        <ele>1074.7</ele>
        <time>2026-08-27T11:45:43.262Z</time>
      </trkpt>
      <trkpt lat="47.83187" lon="6.99763">
        <ele>1074.8</ele>
        <time>2026-08-27T11:45:44.271Z</time>
      </trkpt>
      <trkpt lat="47.83187" lon="6.99763">
        <ele>1074.9</ele>
        <time>2026-08-27T11:45:45.278Z</time>
      </trkpt>
      <trkpt lat="47.83187" lon="6.99763">
        <ele>1074.8</ele>
        <time>2026-08-27T11:45:46.286Z</time>
      </trkpt>
      <trkpt lat="47.83187" lon="6.99763">
        <ele>1074.8</ele>
        <time>2026-08-27T11:45:47.295Z</time>
      </trkpt>
      <trkpt lat="47.83187" lon="6.99763">
        <ele>1075</ele>
        <time>2026-08-27T11:45:48.303Z</time>
      </trkpt>
      <trkpt lat="47.83187" lon="6.99763">
        <ele>1074.8</ele>
        <time>2026-08-27T11:45:49.311Z</time>
      </trkpt>
      <trkpt lat="47.83187" lon="6.99763">
        <ele>1074.7</ele>
        <time>2026-08-27T11:45:50.319Z</time>
      </trkpt>
      <trkpt lat="47.83187" lon="6.99763">
        <ele>1074.9</ele>
        <time>2026-08-27T11:45:51.328Z</time>
      </trkpt>
      <trkpt lat="47.83187" lon="6.99763">
        <ele>1075</ele>
        <time>2026-08-27T11:45:52.337Z</time>
      </trkpt>
      <trkpt lat="47.83187" lon="6.99763">
        <ele>1074.9</ele>
        <time>2026-08-27T11:45:53.345Z</time>
      </trkpt>
      <trkpt lat="47.83187" lon="6.99763">
        <ele>1074.8</ele>
        <time>2026-08-27T11:45:55.260Z</time>
      </trkpt>
      <trkpt lat="47.83187" lon="6.99763">
        <ele>1074.7</ele>
        <time>2026-08-27T11:45:56.268Z</time>
      </trkpt>
      <trkpt lat="47.83187" lon="6.99763">
        <ele>1074.8</ele>
        <time>2026-08-27T11:45:57.277Z</time>
      </trkpt>
      <trkpt lat="47.83187" lon="6.99763">
        <ele>1074.7</ele>
        <time>2026-08-27T11:45:58.285Z</time>
      </trkpt>
      <trkpt lat="47.83187" lon="6.99763">
        <ele>1074.6</ele>
        <time>2026-08-27T11:45:59.293Z</time>
      </trkpt>
      <trkpt lat="47.83187" lon="6.99763">
        <ele>1074.7</ele>
        <time>2026-08-27T11:46:00.302Z</time>
      </trkpt>
      <trkpt lat="47.83188" lon="6.99763">
        <ele>1074.8</ele>
        <time>2026-08-27T11:46:01.309Z</time>
      </trkpt>
      <trkpt lat="47.83188" lon="6.99763">
        <ele>1075.1</ele>
        <time>2026-08-27T11:46:02.318Z</time>
      </trkpt>
      <trkpt lat="47.83188" lon="6.99763">
        <ele>1074.8</ele>
        <time>2026-08-27T11:46:03.326Z</time>
      </trkpt>
      <trkpt lat="47.83188" lon="6.99763">
        <ele>1074.9</ele>
        <time>2026-08-27T11:46:04.334Z</time>
      </trkpt>
      <trkpt lat="47.83188" lon="6.99763">
        <ele>1074.8</ele>
        <time>2026-08-27T11:46:06.249Z</time>
      </trkpt>
      <trkpt lat="47.83188" lon="6.99763">
        <ele>1074.6</ele>
        <time>2026-08-27T11:46:07.258Z</time>
      </trkpt>
      <trkpt lat="47.83188" lon="6.99763">
        <ele>1074.7</ele>
        <time>2026-08-27T11:46:08.267Z</time>
      </trkpt>
      <trkpt lat="47.83188" lon="6.99763">
        <ele>1074.6</ele>
        <time>2026-08-27T11:46:09.274Z</time>
      </trkpt>
      <trkpt lat="47.83188" lon="6.99763">
        <ele>1074.7</ele>
        <time>2026-08-27T11:46:10.283Z</time>
      </trkpt>
      <trkpt lat="47.83188" lon="6.99763">
        <ele>1074.6</ele>
        <time>2026-08-27T11:46:11.291Z</time>
      </trkpt>
      <trkpt lat="47.83188" lon="6.99763">
        <ele>1074.8</ele>
        <time>2026-08-27T11:46:12.299Z</time>
      </trkpt>
      <trkpt lat="47.83188" lon="6.99763">
        <ele>1074.9</ele>
        <time>2026-08-27T11:46:13.308Z</time>
      </trkpt>
      <trkpt lat="47.83188" lon="6.99763">
        <ele>1075</ele>
        <time>2026-08-27T11:46:14.316Z</time>
      </trkpt>
      <trkpt lat="47.83188" lon="6.99763">
        <ele>1074.9</ele>
        <time>2026-08-27T11:46:15.324Z</time>
      </trkpt>
      <trkpt lat="47.83188" lon="6.99764">
        <ele>1074.9</ele>
        <time>2026-08-27T11:46:16.333Z</time>
      </trkpt>
      <trkpt lat="47.83188" lon="6.99764">
        <ele>1074.8</ele>
        <time>2026-08-27T11:46:18.249Z</time>
      </trkpt>
      <trkpt lat="47.83188" lon="6.99764">
        <ele>1074.7</ele>
        <time>2026-08-27T11:46:19.257Z</time>
      </trkpt>
      <trkpt lat="47.83188" lon="6.99764">
        <ele>1074.9</ele>
        <time>2026-08-27T11:46:20.264Z</time>
      </trkpt>
      <trkpt lat="47.83188" lon="6.99764">
        <ele>1074.9</ele>
        <time>2026-08-27T11:46:21.273Z</time>
      </trkpt>
      <trkpt lat="47.83188" lon="6.99764">
        <ele>1075</ele>
        <time>2026-08-27T11:46:22.281Z</time>
      </trkpt>
      <trkpt lat="47.83188" lon="6.99764">
        <ele>1075</ele>
        <time>2026-08-27T11:46:23.289Z</time>
      </trkpt>
      <trkpt lat="47.83188" lon="6.99764">
        <ele>1074.9</ele>
        <time>2026-08-27T11:46:24.297Z</time>
      </trkpt>
      <trkpt lat="47.83187" lon="6.99764">
        <ele>1074.8</ele>
        <time>2026-08-27T11:46:25.306Z</time>
      </trkpt>
      <trkpt lat="47.83187" lon="6.99764">
        <ele>1074.8</ele>
        <time>2026-08-27T11:46:26.314Z</time>
      </trkpt>
      <trkpt lat="47.83187" lon="6.99764">
        <ele>1074.9</ele>
        <time>2026-08-27T11:46:27.323Z</time>
      </trkpt>
      <trkpt lat="47.83187" lon="6.99764">
        <ele>1074.8</ele>
        <time>2026-08-27T11:46:28.332Z</time>
      </trkpt>
      <trkpt lat="47.83187" lon="6.99764">
        <ele>1074.7</ele>
        <time>2026-08-27T11:46:29.339Z</time>
      </trkpt>
      <trkpt lat="47.83187" lon="6.99763">
        <ele>1074.9</ele>
        <time>2026-08-27T11:46:30.347Z</time>
      </trkpt>
      <trkpt lat="47.83187" lon="6.99763">
        <ele>1075.1</ele>
        <time>2026-08-27T11:46:32.254Z</time>
      </trkpt>
      <trkpt lat="47.83187" lon="6.99763">
        <ele>1075.1</ele>
        <time>2026-08-27T11:46:33.271Z</time>
      </trkpt>
      <trkpt lat="47.83187" lon="6.99763">
        <ele>1075</ele>
        <time>2026-08-27T11:46:34.279Z</time>
      </trkpt>
      <trkpt lat="47.83187" lon="6.99763">
        <ele>1074.8</ele>
        <time>2026-08-27T11:46:35.289Z</time>
      </trkpt>
      <trkpt lat="47.83187" lon="6.99763">
        <ele>1074.4</ele>
        <time>2026-08-27T11:46:36.296Z</time>
      </trkpt>
      <trkpt lat="47.83187" lon="6.99763">
        <ele>1074.4</ele>
        <time>2026-08-27T11:46:37.304Z</time>
      </trkpt>
      <trkpt lat="47.83186" lon="6.99763">
        <ele>1074.4</ele>
        <time>2026-08-27T11:46:38.313Z</time>
      </trkpt>
      <trkpt lat="47.83186" lon="6.99764">
        <ele>1074.4</ele>
        <time>2026-08-27T11:46:40.329Z</time>
      </trkpt>
      <trkpt lat="47.83185" lon="6.99765">
        <ele>1074.4</ele>
        <time>2026-08-27T11:46:41.337Z</time>
      </trkpt>
      <trkpt lat="47.83185" lon="6.99766">
        <ele>1074.6</ele>
        <time>2026-08-27T11:46:42.346Z</time>
      </trkpt>
      <trkpt lat="47.83185" lon="6.99769">
        <ele>1074.6</ele>
        <time>2026-08-27T11:46:44.362Z</time>
      </trkpt>
      <trkpt lat="47.83185" lon="6.9977">
        <ele>1074.6</ele>
        <time>2026-08-27T11:46:45.367Z</time>
      </trkpt>
      <trkpt lat="47.83185" lon="6.9977">
        <ele>1074.6</ele>
        <time>2026-08-27T11:46:46.370Z</time>
      </trkpt>
      <trkpt lat="47.83185" lon="6.99771">
        <ele>1074.9</ele>
        <time>2026-08-27T11:46:48.296Z</time>
      </trkpt>
      <trkpt lat="47.83185" lon="6.99772">
        <ele>1075.1</ele>
        <time>2026-08-27T11:46:49.303Z</time>
      </trkpt>
      <trkpt lat="47.83185" lon="6.99773">
        <ele>1075.1</ele>
        <time>2026-08-27T11:46:50.413Z</time>
      </trkpt>
      <trkpt lat="47.83185" lon="6.99774">
        <ele>1075.7</ele>
        <time>2026-08-27T11:46:52.328Z</time>
      </trkpt>
      <trkpt lat="47.83186" lon="6.99775">
        <ele>1075.8</ele>
        <time>2026-08-27T11:46:53.336Z</time>
      </trkpt>
      <trkpt lat="47.83185" lon="6.99775">
        <ele>1075.9</ele>
        <time>2026-08-27T11:46:54.344Z</time>
      </trkpt>
      <trkpt lat="47.83185" lon="6.99775">
        <ele>1075.9</ele>
        <time>2026-08-27T11:46:55.369Z</time>
      </trkpt>
      <trkpt lat="47.83185" lon="6.99775">
        <ele>1076</ele>
        <time>2026-08-27T11:46:56.394Z</time>
      </trkpt>
      <trkpt lat="47.83185" lon="6.99776">
        <ele>1076.1</ele>
        <time>2026-08-27T11:46:58.377Z</time>
      </trkpt>
      <trkpt lat="47.83185" lon="6.99777">
        <ele>1076.4</ele>
        <time>2026-08-27T11:46:59.385Z</time>
      </trkpt>
      <trkpt lat="47.83185" lon="6.99778">
        <ele>1076.6</ele>
        <time>2026-08-27T11:47:00.393Z</time>
      </trkpt>
      <trkpt lat="47.83186" lon="6.99779">
        <ele>1076.8</ele>
        <time>2026-08-27T11:47:02.310Z</time>
      </trkpt>
      <trkpt lat="47.83186" lon="6.9978">
        <ele>1076.9</ele>
        <time>2026-08-27T11:47:03.317Z</time>
      </trkpt>
      <trkpt lat="47.83185" lon="6.99782">
        <ele>1077</ele>
        <time>2026-08-27T11:47:04.326Z</time>
      </trkpt>
      <trkpt lat="47.83185" lon="6.99782">
        <ele>1077</ele>
        <time>2026-08-27T11:47:05.335Z</time>
      </trkpt>
      <trkpt lat="47.83185" lon="6.99783">
        <ele>1077.1</ele>
        <time>2026-08-27T11:47:06.342Z</time>
      </trkpt>
      <trkpt lat="47.83185" lon="6.99784">
        <ele>1077.4</ele>
        <time>2026-08-27T11:47:07.351Z</time>
      </trkpt>
      <trkpt lat="47.83185" lon="6.99784">
        <ele>1077.6</ele>
        <time>2026-08-27T11:47:08.393Z</time>
      </trkpt>
      <trkpt lat="47.83185" lon="6.99785">
        <ele>1077.7</ele>
        <time>2026-08-27T11:47:10.275Z</time>
      </trkpt>
      <trkpt lat="47.83185" lon="6.99785">
        <ele>1078.1</ele>
        <time>2026-08-27T11:47:11.384Z</time>
      </trkpt>
      <trkpt lat="47.83185" lon="6.99787">
        <ele>1078.5</ele>
        <time>2026-08-27T11:47:13.299Z</time>
      </trkpt>
      <trkpt lat="47.83185" lon="6.99788">
        <ele>1078.4</ele>
        <time>2026-08-27T11:47:14.308Z</time>
      </trkpt>
      <trkpt lat="47.83185" lon="6.99789">
        <ele>1078.4</ele>
        <time>2026-08-27T11:47:15.332Z</time>
      </trkpt>
      <trkpt lat="47.83184" lon="6.9979">
        <ele>1078.9</ele>
        <time>2026-08-27T11:47:16.407Z</time>
      </trkpt>
      <trkpt lat="47.83184" lon="6.99791">
        <ele>1078.7</ele>
        <time>2026-08-27T11:47:18.374Z</time>
      </trkpt>
      <trkpt lat="47.83184" lon="6.99792">
        <ele>1079.5</ele>
        <time>2026-08-27T11:47:20.357Z</time>
      </trkpt>
      <trkpt lat="47.83184" lon="6.99793">
        <ele>1079.6</ele>
        <time>2026-08-27T11:47:21.364Z</time>
      </trkpt>
      <trkpt lat="47.83184" lon="6.99793">
        <ele>1079.6</ele>
        <time>2026-08-27T11:47:22.372Z</time>
      </trkpt>
      <trkpt lat="47.83184" lon="6.99793">
        <ele>1079.5</ele>
        <time>2026-08-27T11:47:24.390Z</time>
      </trkpt>
      <trkpt lat="47.83184" lon="6.99793">
        <ele>1079.6</ele>
        <time>2026-08-27T11:47:25.397Z</time>
      </trkpt>
      <trkpt lat="47.83184" lon="6.99793">
        <ele>1079.6</ele>
        <time>2026-08-27T11:47:26.405Z</time>
      </trkpt>
      <trkpt lat="47.83183" lon="6.99793">
        <ele>1079.7</ele>
        <time>2026-08-27T11:47:28.322Z</time>
      </trkpt>
      <trkpt lat="47.83183" lon="6.99794">
        <ele>1079.8</ele>
        <time>2026-08-27T11:47:29.330Z</time>
      </trkpt>
      <trkpt lat="47.83183" lon="6.99795">
        <ele>1079.8</ele>
        <time>2026-08-27T11:47:30.337Z</time>
      </trkpt>
      <trkpt lat="47.83183" lon="6.99795">
        <ele>1079.9</ele>
        <time>2026-08-27T11:47:31.345Z</time>
      </trkpt>
      <trkpt lat="47.83183" lon="6.99797">
        <ele>1080.1</ele>
        <time>2026-08-27T11:47:33.363Z</time>
      </trkpt>
      <trkpt lat="47.83183" lon="6.99798">
        <ele>1080.1</ele>
        <time>2026-08-27T11:47:34.370Z</time>
      </trkpt>
      <trkpt lat="47.83183" lon="6.99799">
        <ele>1080.2</ele>
        <time>2026-08-27T11:47:35.378Z</time>
      </trkpt>
      <trkpt lat="47.83183" lon="6.998">
        <ele>1080.4</ele>
        <time>2026-08-27T11:47:36.411Z</time>
      </trkpt>
      <trkpt lat="47.83183" lon="6.99801">
        <ele>1080.7</ele>
        <time>2026-08-27T11:47:38.404Z</time>
      </trkpt>
      <trkpt lat="47.83182" lon="6.99801">
        <ele>1081.2</ele>
        <time>2026-08-27T11:47:40.319Z</time>
      </trkpt>
      <trkpt lat="47.83182" lon="6.99802">
        <ele>1081.3</ele>
        <time>2026-08-27T11:47:42.335Z</time>
      </trkpt>
      <trkpt lat="47.83182" lon="6.99803">
        <ele>1081.3</ele>
        <time>2026-08-27T11:47:43.344Z</time>
      </trkpt>
      <trkpt lat="47.83182" lon="6.99804">
        <ele>1081.3</ele>
        <time>2026-08-27T11:47:44.410Z</time>
      </trkpt>
      <trkpt lat="47.83182" lon="6.99805">
        <ele>1081.9</ele>
        <time>2026-08-27T11:47:46.367Z</time>
      </trkpt>
      <trkpt lat="47.83182" lon="6.99806">
        <ele>1082.6</ele>
        <time>2026-08-27T11:47:48.283Z</time>
      </trkpt>
      <trkpt lat="47.83182" lon="6.99805">
        <ele>1083</ele>
        <time>2026-08-27T11:47:49.392Z</time>
      </trkpt>
      <trkpt lat="47.83182" lon="6.99805">
        <ele>1082.9</ele>
        <time>2026-08-27T11:47:50.400Z</time>
      </trkpt>
      <trkpt lat="47.83182" lon="6.99805">
        <ele>1082.9</ele>
        <time>2026-08-27T11:47:52.316Z</time>
      </trkpt>
      <trkpt lat="47.83182" lon="6.99806">
        <ele>1082.7</ele>
        <time>2026-08-27T11:47:53.324Z</time>
      </trkpt>
      <trkpt lat="47.83182" lon="6.99806">
        <ele>1082.7</ele>
        <time>2026-08-27T11:47:54.332Z</time>
      </trkpt>
      <trkpt lat="47.83182" lon="6.99806">
        <ele>1082.7</ele>
        <time>2026-08-27T11:47:55.341Z</time>
      </trkpt>
      <trkpt lat="47.83182" lon="6.99807">
        <ele>1082.7</ele>
        <time>2026-08-27T11:47:56.348Z</time>
      </trkpt>
      <trkpt lat="47.83182" lon="6.99808">
        <ele>1082.7</ele>
        <time>2026-08-27T11:47:57.356Z</time>
      </trkpt>
      <trkpt lat="47.83181" lon="6.99808">
        <ele>1082.9</ele>
        <time>2026-08-27T11:47:58.365Z</time>
      </trkpt>
      <trkpt lat="47.83181" lon="6.99809">
        <ele>1082.9</ele>
        <time>2026-08-27T11:47:59.373Z</time>
      </trkpt>
      <trkpt lat="47.8318" lon="6.99811">
        <ele>1083</ele>
        <time>2026-08-27T11:48:01.288Z</time>
      </trkpt>
      <trkpt lat="47.8318" lon="6.99811">
        <ele>1083.1</ele>
        <time>2026-08-27T11:48:02.398Z</time>
      </trkpt>
      <trkpt lat="47.83179" lon="6.99812">
        <ele>1083.2</ele>
        <time>2026-08-27T11:48:03.415Z</time>
      </trkpt>
      <trkpt lat="47.83179" lon="6.99812">
        <ele>1083.3</ele>
        <time>2026-08-27T11:48:04.489Z</time>
      </trkpt>
      <trkpt lat="47.83178" lon="6.99813">
        <ele>1083.8</ele>
        <time>2026-08-27T11:48:06.170Z</time>
      </trkpt>
      <trkpt lat="47.83178" lon="6.99814">
        <ele>1083.7</ele>
        <time>2026-08-27T11:48:07.338Z</time>
      </trkpt>
      <trkpt lat="47.83178" lon="6.99815">
        <ele>1084</ele>
        <time>2026-08-27T11:48:08.346Z</time>
      </trkpt>
      <trkpt lat="47.83178" lon="6.99815">
        <ele>1084.1</ele>
        <time>2026-08-27T11:48:09.354Z</time>
      </trkpt>
      <trkpt lat="47.83177" lon="6.99815">
        <ele>1084.3</ele>
        <time>2026-08-27T11:48:10.363Z</time>
      </trkpt>
      <trkpt lat="47.83177" lon="6.99816">
        <ele>1084.8</ele>
        <time>2026-08-27T11:48:12.378Z</time>
      </trkpt>
      <trkpt lat="47.83177" lon="6.99817">
        <ele>1084.8</ele>
        <time>2026-08-27T11:48:13.386Z</time>
      </trkpt>
      <trkpt lat="47.83176" lon="6.99818">
        <ele>1085.1</ele>
        <time>2026-08-27T11:48:14.396Z</time>
      </trkpt>
      <trkpt lat="47.83176" lon="6.99818">
        <ele>1085.1</ele>
        <time>2026-08-27T11:48:15.403Z</time>
      </trkpt>
      <trkpt lat="47.83176" lon="6.99819">
        <ele>1085.2</ele>
        <time>2026-08-27T11:48:16.411Z</time>
      </trkpt>
      <trkpt lat="47.83176" lon="6.99819">
        <ele>1085.8</ele>
        <time>2026-08-27T11:48:18.327Z</time>
      </trkpt>
      <trkpt lat="47.83176" lon="6.9982">
        <ele>1085.8</ele>
        <time>2026-08-27T11:48:19.336Z</time>
      </trkpt>
      <trkpt lat="47.83176" lon="6.9982">
        <ele>1085.7</ele>
        <time>2026-08-27T11:48:20.343Z</time>
      </trkpt>
      <trkpt lat="47.83176" lon="6.9982">
        <ele>1085.9</ele>
        <time>2026-08-27T11:48:21.352Z</time>
      </trkpt>
      <trkpt lat="47.83176" lon="6.99821">
        <ele>1085.9</ele>
        <time>2026-08-27T11:48:22.359Z</time>
      </trkpt>
      <trkpt lat="47.83176" lon="6.99821">
        <ele>1085.9</ele>
        <time>2026-08-27T11:48:23.392Z</time>
      </trkpt>
      <trkpt lat="47.83175" lon="6.99822">
        <ele>1086.3</ele>
        <time>2026-08-27T11:48:25.274Z</time>
      </trkpt>
      <trkpt lat="47.83174" lon="6.99823">
        <ele>1086.3</ele>
        <time>2026-08-27T11:48:26.393Z</time>
      </trkpt>
      <trkpt lat="47.83174" lon="6.99824">
        <ele>1086.8</ele>
        <time>2026-08-27T11:48:27.400Z</time>
      </trkpt>
      <trkpt lat="47.83174" lon="6.99824">
        <ele>1086.8</ele>
        <time>2026-08-27T11:48:28.408Z</time>
      </trkpt>
      <trkpt lat="47.83174" lon="6.99824">
        <ele>1087.1</ele>
        <time>2026-08-27T11:48:29.416Z</time>
      </trkpt>
      <trkpt lat="47.83173" lon="6.99825">
        <ele>1087</ele>
        <time>2026-08-27T11:48:31.332Z</time>
      </trkpt>
      <trkpt lat="47.83173" lon="6.99826">
        <ele>1087.4</ele>
        <time>2026-08-27T11:48:32.340Z</time>
      </trkpt>
      <trkpt lat="47.83172" lon="6.99828">
        <ele>1087.4</ele>
        <time>2026-08-27T11:48:33.348Z</time>
      </trkpt>
      <trkpt lat="47.83172" lon="6.99829">
        <ele>1087.7</ele>
        <time>2026-08-27T11:48:34.357Z</time>
      </trkpt>
      <trkpt lat="47.83172" lon="6.99829">
        <ele>1088</ele>
        <time>2026-08-27T11:48:35.364Z</time>
      </trkpt>
      <trkpt lat="47.83172" lon="6.99829">
        <ele>1087.9</ele>
        <time>2026-08-27T11:48:36.373Z</time>
      </trkpt>
      <trkpt lat="47.83172" lon="6.99829">
        <ele>1088</ele>
        <time>2026-08-27T11:48:37.381Z</time>
      </trkpt>
      <trkpt lat="47.83172" lon="6.99829">
        <ele>1088</ele>
        <time>2026-08-27T11:48:38.389Z</time>
      </trkpt>
      <trkpt lat="47.83172" lon="6.99829">
        <ele>1088.1</ele>
        <time>2026-08-27T11:48:39.397Z</time>
      </trkpt>
      <trkpt lat="47.83172" lon="6.99829">
        <ele>1088.3</ele>
        <time>2026-08-27T11:48:40.405Z</time>
      </trkpt>
      <trkpt lat="47.83172" lon="6.99829">
        <ele>1088.1</ele>
        <time>2026-08-27T11:48:41.413Z</time>
      </trkpt>
      <trkpt lat="47.83171" lon="6.99831">
        <ele>1088.3</ele>
        <time>2026-08-27T11:48:43.330Z</time>
      </trkpt>
      <trkpt lat="47.8317" lon="6.99832">
        <ele>1088.2</ele>
        <time>2026-08-27T11:48:44.337Z</time>
      </trkpt>
      <trkpt lat="47.8317" lon="6.99832">
        <ele>1088.1</ele>
        <time>2026-08-27T11:48:45.346Z</time>
      </trkpt>
      <trkpt lat="47.83169" lon="6.99833">
        <ele>1088.3</ele>
        <time>2026-08-27T11:48:46.353Z</time>
      </trkpt>
      <trkpt lat="47.83168" lon="6.99833">
        <ele>1088.6</ele>
        <time>2026-08-27T11:48:47.412Z</time>
      </trkpt>
      <trkpt lat="47.83166" lon="6.99834">
        <ele>1088.5</ele>
        <time>2026-08-27T11:48:49.378Z</time>
      </trkpt>
      <trkpt lat="47.83165" lon="6.99836">
        <ele>1088.7</ele>
        <time>2026-08-27T11:48:51.394Z</time>
      </trkpt>
      <trkpt lat="47.83164" lon="6.99837">
        <ele>1088.8</ele>
        <time>2026-08-27T11:48:52.402Z</time>
      </trkpt>
      <trkpt lat="47.83163" lon="6.99838">
        <ele>1088.9</ele>
        <time>2026-08-27T11:48:54.318Z</time>
      </trkpt>
      <trkpt lat="47.83163" lon="6.99839">
        <ele>1089.2</ele>
        <time>2026-08-27T11:48:55.327Z</time>
      </trkpt>
      <trkpt lat="47.83162" lon="6.9984">
        <ele>1089.4</ele>
        <time>2026-08-27T11:48:56.335Z</time>
      </trkpt>
      <trkpt lat="47.83162" lon="6.99841">
        <ele>1089.4</ele>
        <time>2026-08-27T11:48:57.351Z</time>
      </trkpt>
      <trkpt lat="47.83161" lon="6.99842">
        <ele>1089.5</ele>
        <time>2026-08-27T11:48:59.359Z</time>
      </trkpt>
      <trkpt lat="47.83161" lon="6.99842">
        <ele>1089.5</ele>
        <time>2026-08-27T11:49:00.367Z</time>
      </trkpt>
      <trkpt lat="47.8316" lon="6.99842">
        <ele>1089.7</ele>
        <time>2026-08-27T11:49:01.376Z</time>
      </trkpt>
      <trkpt lat="47.83159" lon="6.99843">
        <ele>1089.8</ele>
        <time>2026-08-27T11:49:02.384Z</time>
      </trkpt>
      <trkpt lat="47.83159" lon="6.99844">
        <ele>1089.9</ele>
        <time>2026-08-27T11:49:03.391Z</time>
      </trkpt>
      <trkpt lat="47.83157" lon="6.99845">
        <ele>1090.2</ele>
        <time>2026-08-27T11:49:05.407Z</time>
      </trkpt>
      <trkpt lat="47.83156" lon="6.99847">
        <ele>1090.4</ele>
        <time>2026-08-27T11:49:07.323Z</time>
      </trkpt>
      <trkpt lat="47.83156" lon="6.99847">
        <ele>1090.4</ele>
        <time>2026-08-27T11:49:08.349Z</time>
      </trkpt>
      <trkpt lat="47.83154" lon="6.99849">
        <ele>1090.7</ele>
        <time>2026-08-27T11:49:10.348Z</time>
      </trkpt>
      <trkpt lat="47.83153" lon="6.99851">
        <ele>1091</ele>
        <time>2026-08-27T11:49:12.365Z</time>
      </trkpt>
      <trkpt lat="47.83152" lon="6.99852">
        <ele>1091</ele>
        <time>2026-08-27T11:49:13.373Z</time>
      </trkpt>
      <trkpt lat="47.83152" lon="6.99852">
        <ele>1091</ele>
        <time>2026-08-27T11:49:14.388Z</time>
      </trkpt>
      <trkpt lat="47.83152" lon="6.99853">
        <ele>1091.2</ele>
        <time>2026-08-27T11:49:15.388Z</time>
      </trkpt>
      <trkpt lat="47.83152" lon="6.99853">
        <ele>1091.4</ele>
        <time>2026-08-27T11:49:16.397Z</time>
      </trkpt>
      <trkpt lat="47.83152" lon="6.99853">
        <ele>1091.3</ele>
        <time>2026-08-27T11:49:17.405Z</time>
      </trkpt>
      <trkpt lat="47.83151" lon="6.99855">
        <ele>1091.5</ele>
        <time>2026-08-27T11:49:19.320Z</time>
      </trkpt>
      <trkpt lat="47.83151" lon="6.99856">
        <ele>1091.4</ele>
        <time>2026-08-27T11:49:20.329Z</time>
      </trkpt>
      <trkpt lat="47.83151" lon="6.99857">
        <ele>1091.4</ele>
        <time>2026-08-27T11:49:21.429Z</time>
      </trkpt>
      <trkpt lat="47.83151" lon="6.99858">
        <ele>1091.8</ele>
        <time>2026-08-27T11:49:23.354Z</time>
      </trkpt>
      <trkpt lat="47.83151" lon="6.99859">
        <ele>1092.2</ele>
        <time>2026-08-27T11:49:24.362Z</time>
      </trkpt>
      <trkpt lat="47.8315" lon="6.9986">
        <ele>1092.2</ele>
        <time>2026-08-27T11:49:25.369Z</time>
      </trkpt>
      <trkpt lat="47.8315" lon="6.99861">
        <ele>1092.2</ele>
        <time>2026-08-27T11:49:26.377Z</time>
      </trkpt>
      <trkpt lat="47.83149" lon="6.99863">
        <ele>1092.5</ele>
        <time>2026-08-27T11:49:28.393Z</time>
      </trkpt>
      <trkpt lat="47.83148" lon="6.99864">
        <ele>1092.6</ele>
        <time>2026-08-27T11:49:29.402Z</time>
      </trkpt>
      <trkpt lat="47.83148" lon="6.99864">
        <ele>1092.7</ele>
        <time>2026-08-27T11:49:30.410Z</time>
      </trkpt>
      <trkpt lat="47.83147" lon="6.99867">
        <ele>1093.2</ele>
        <time>2026-08-27T11:49:32.326Z</time>
      </trkpt>
      <trkpt lat="47.83147" lon="6.99868">
        <ele>1093.2</ele>
        <time>2026-08-27T11:49:33.333Z</time>
      </trkpt>
      <trkpt lat="47.83147" lon="6.99868">
        <ele>1093.3</ele>
        <time>2026-08-27T11:49:34.341Z</time>
      </trkpt>
      <trkpt lat="47.83147" lon="6.99869">
        <ele>1093.4</ele>
        <time>2026-08-27T11:49:35.350Z</time>
      </trkpt>
      <trkpt lat="47.83147" lon="6.99869">
        <ele>1093.6</ele>
        <time>2026-08-27T11:49:36.359Z</time>
      </trkpt>
      <trkpt lat="47.83146" lon="6.99869">
        <ele>1093.7</ele>
        <time>2026-08-27T11:49:37.366Z</time>
      </trkpt>
      <trkpt lat="47.83146" lon="6.9987">
        <ele>1093.9</ele>
        <time>2026-08-27T11:49:38.374Z</time>
      </trkpt>
      <trkpt lat="47.83146" lon="6.9987">
        <ele>1094.2</ele>
        <time>2026-08-27T11:49:39.383Z</time>
      </trkpt>
      <trkpt lat="47.83146" lon="6.99871">
        <ele>1094.5</ele>
        <time>2026-08-27T11:49:40.391Z</time>
      </trkpt>
      <trkpt lat="47.83145" lon="6.99872">
        <ele>1094.6</ele>
        <time>2026-08-27T11:49:41.400Z</time>
      </trkpt>
      <trkpt lat="47.83145" lon="6.99873">
        <ele>1094.5</ele>
        <time>2026-08-27T11:49:42.408Z</time>
      </trkpt>
      <trkpt lat="47.83144" lon="6.99874">
        <ele>1094.6</ele>
        <time>2026-08-27T11:49:44.322Z</time>
      </trkpt>
      <trkpt lat="47.83143" lon="6.99875">
        <ele>1094.7</ele>
        <time>2026-08-27T11:49:45.330Z</time>
      </trkpt>
      <trkpt lat="47.83143" lon="6.99876">
        <ele>1094.8</ele>
        <time>2026-08-27T11:49:46.338Z</time>
      </trkpt>
      <trkpt lat="47.83142" lon="6.99878">
        <ele>1095</ele>
        <time>2026-08-27T11:49:47.389Z</time>
      </trkpt>
      <trkpt lat="47.83141" lon="6.9988">
        <ele>1094.7</ele>
        <time>2026-08-27T11:49:49.363Z</time>
      </trkpt>
      <trkpt lat="47.83141" lon="6.9988">
        <ele>1094.8</ele>
        <time>2026-08-27T11:49:50.371Z</time>
      </trkpt>
      <trkpt lat="47.83141" lon="6.99881">
        <ele>1094.8</ele>
        <time>2026-08-27T11:49:51.379Z</time>
      </trkpt>
      <trkpt lat="47.8314" lon="6.99881">
        <ele>1095</ele>
        <time>2026-08-27T11:49:52.388Z</time>
      </trkpt>
      <trkpt lat="47.8314" lon="6.99882">
        <ele>1095.5</ele>
        <time>2026-08-27T11:49:54.430Z</time>
      </trkpt>
      <trkpt lat="47.83139" lon="6.99882">
        <ele>1095.4</ele>
        <time>2026-08-27T11:49:56.319Z</time>
      </trkpt>
      <trkpt lat="47.83138" lon="6.99883">
        <ele>1095.6</ele>
        <time>2026-08-27T11:49:57.327Z</time>
      </trkpt>
      <trkpt lat="47.83137" lon="6.99883">
        <ele>1095.6</ele>
        <time>2026-08-27T11:49:58.411Z</time>
      </trkpt>
      <trkpt lat="47.83135" lon="6.99884">
        <ele>1095.9</ele>
        <time>2026-08-27T11:50:00.352Z</time>
      </trkpt>
      <trkpt lat="47.83134" lon="6.99885">
        <ele>1096.3</ele>
        <time>2026-08-27T11:50:01.361Z</time>
      </trkpt>
      <trkpt lat="47.83133" lon="6.99886">
        <ele>1096.3</ele>
        <time>2026-08-27T11:50:02.410Z</time>
      </trkpt>
      <trkpt lat="47.83132" lon="6.99887">
        <ele>1096.6</ele>
        <time>2026-08-27T11:50:04.385Z</time>
      </trkpt>
      <trkpt lat="47.83132" lon="6.99888">
        <ele>1096.6</ele>
        <time>2026-08-27T11:50:05.393Z</time>
      </trkpt>
      <trkpt lat="47.83132" lon="6.99889">
        <ele>1096.9</ele>
        <time>2026-08-27T11:50:07.308Z</time>
      </trkpt>
      <trkpt lat="47.83132" lon="6.9989">
        <ele>1097.1</ele>
        <time>2026-08-27T11:50:08.317Z</time>
      </trkpt>
      <trkpt lat="47.83131" lon="6.99891">
        <ele>1097.3</ele>
        <time>2026-08-27T11:50:09.433Z</time>
      </trkpt>
      <trkpt lat="47.8313" lon="6.99892">
        <ele>1097.5</ele>
        <time>2026-08-27T11:50:10.971Z</time>
      </trkpt>
      <trkpt lat="47.8313" lon="6.99892">
        <ele>1097.3</ele>
        <time>2026-08-27T11:50:12.350Z</time>
      </trkpt>
      <trkpt lat="47.8313" lon="6.99893">
        <ele>1097.4</ele>
        <time>2026-08-27T11:50:13.357Z</time>
      </trkpt>
      <trkpt lat="47.8313" lon="6.99894">
        <ele>1097.4</ele>
        <time>2026-08-27T11:50:14.373Z</time>
      </trkpt>
      <trkpt lat="47.8313" lon="6.99895">
        <ele>1097.6</ele>
        <time>2026-08-27T11:50:15.373Z</time>
      </trkpt>
      <trkpt lat="47.8313" lon="6.99896">
        <ele>1097.7</ele>
        <time>2026-08-27T11:50:16.381Z</time>
      </trkpt>
      <trkpt lat="47.83129" lon="6.99897">
        <ele>1097.8</ele>
        <time>2026-08-27T11:50:17.390Z</time>
      </trkpt>
      <trkpt lat="47.83129" lon="6.99898">
        <ele>1097.7</ele>
        <time>2026-08-27T11:50:18.397Z</time>
      </trkpt>
      <trkpt lat="47.83129" lon="6.999">
        <ele>1097.7</ele>
        <time>2026-08-27T11:50:20.330Z</time>
      </trkpt>
      <trkpt lat="47.83128" lon="6.99902">
        <ele>1098.4</ele>
        <time>2026-08-27T11:50:22.329Z</time>
      </trkpt>
      <trkpt lat="47.83128" lon="6.99903">
        <ele>1098.4</ele>
        <time>2026-08-27T11:50:23.338Z</time>
      </trkpt>
      <trkpt lat="47.83128" lon="6.99904">
        <ele>1098.4</ele>
        <time>2026-08-27T11:50:24.346Z</time>
      </trkpt>
      <trkpt lat="47.83127" lon="6.99905">
        <ele>1098.4</ele>
        <time>2026-08-27T11:50:25.413Z</time>
      </trkpt>
      <trkpt lat="47.83126" lon="6.99907">
        <ele>1099</ele>
        <time>2026-08-27T11:50:27.371Z</time>
      </trkpt>
      <trkpt lat="47.83126" lon="6.99907">
        <ele>1099.1</ele>
        <time>2026-08-27T11:50:28.378Z</time>
      </trkpt>
      <trkpt lat="47.83125" lon="6.99908">
        <ele>1099.1</ele>
        <time>2026-08-27T11:50:29.386Z</time>
      </trkpt>
      <trkpt lat="47.83125" lon="6.99908">
        <ele>1099.4</ele>
        <time>2026-08-27T11:50:30.394Z</time>
      </trkpt>
      <trkpt lat="47.83125" lon="6.99909">
        <ele>1099.5</ele>
        <time>2026-08-27T11:50:31.402Z</time>
      </trkpt>
      <trkpt lat="47.83125" lon="6.99911">
        <ele>1099.6</ele>
        <time>2026-08-27T11:50:33.319Z</time>
      </trkpt>
      <trkpt lat="47.83125" lon="6.99912">
        <ele>1099.9</ele>
        <time>2026-08-27T11:50:34.326Z</time>
      </trkpt>
      <trkpt lat="47.83124" lon="6.99913">
        <ele>1100</ele>
        <time>2026-08-27T11:50:35.334Z</time>
      </trkpt>
      <trkpt lat="47.83124" lon="6.99914">
        <ele>1100.3</ele>
        <time>2026-08-27T11:50:36.342Z</time>
      </trkpt>
      <trkpt lat="47.83124" lon="6.99914">
        <ele>1100.6</ele>
        <time>2026-08-27T11:50:37.351Z</time>
      </trkpt>
      <trkpt lat="47.83124" lon="6.99913">
        <ele>1100.6</ele>
        <time>2026-08-27T11:50:38.359Z</time>
      </trkpt>
      <trkpt lat="47.83124" lon="6.99912">
        <ele>1100.4</ele>
        <time>2026-08-27T11:50:40.375Z</time>
      </trkpt>
      <trkpt lat="47.83123" lon="6.99912">
        <ele>1100.4</ele>
        <time>2026-08-27T11:50:42.290Z</time>
      </trkpt>
      <trkpt lat="47.83123" lon="6.99912">
        <ele>1100.4</ele>
        <time>2026-08-27T11:50:43.332Z</time>
      </trkpt>
      <trkpt lat="47.83123" lon="6.99913">
        <ele>1100.6</ele>
        <time>2026-08-27T11:50:45.315Z</time>
      </trkpt>
      <trkpt lat="47.83123" lon="6.99913">
        <ele>1100.5</ele>
        <time>2026-08-27T11:50:46.323Z</time>
      </trkpt>
      <trkpt lat="47.83123" lon="6.99914">
        <ele>1100.4</ele>
        <time>2026-08-27T11:50:47.331Z</time>
      </trkpt>
      <trkpt lat="47.83123" lon="6.99915">
        <ele>1100.8</ele>
        <time>2026-08-27T11:50:49.249Z</time>
      </trkpt>
      <trkpt lat="47.83123" lon="6.99915">
        <ele>1100.8</ele>
        <time>2026-08-27T11:50:50.255Z</time>
      </trkpt>
      <trkpt lat="47.83123" lon="6.99915">
        <ele>1100.8</ele>
        <time>2026-08-27T11:50:51.263Z</time>
      </trkpt>
      <trkpt lat="47.83124" lon="6.99915">
        <ele>1100.6</ele>
        <time>2026-08-27T11:50:52.271Z</time>
      </trkpt>
      <trkpt lat="47.83124" lon="6.99916">
        <ele>1100.8</ele>
        <time>2026-08-27T11:50:53.279Z</time>
      </trkpt>
      <trkpt lat="47.83124" lon="6.99916">
        <ele>1100.7</ele>
        <time>2026-08-27T11:50:54.287Z</time>
      </trkpt>
      <trkpt lat="47.83124" lon="6.99916">
        <ele>1101</ele>
        <time>2026-08-27T11:50:55.295Z</time>
      </trkpt>
      <trkpt lat="47.83124" lon="6.99917">
        <ele>1101.1</ele>
        <time>2026-08-27T11:50:56.305Z</time>
      </trkpt>
      <trkpt lat="47.83124" lon="6.99917">
        <ele>1100.9</ele>
        <time>2026-08-27T11:50:57.313Z</time>
      </trkpt>
      <trkpt lat="47.83124" lon="6.99917">
        <ele>1101</ele>
        <time>2026-08-27T11:50:58.320Z</time>
      </trkpt>
      <trkpt lat="47.83124" lon="6.99917">
        <ele>1101</ele>
        <time>2026-08-27T11:50:59.328Z</time>
      </trkpt>
      <trkpt lat="47.83124" lon="6.99917">
        <ele>1100.9</ele>
        <time>2026-08-27T11:51:00.336Z</time>
      </trkpt>
      <trkpt lat="47.83124" lon="6.99917">
        <ele>1100.9</ele>
        <time>2026-08-27T11:51:01.344Z</time>
      </trkpt>
      <trkpt lat="47.83124" lon="6.99918">
        <ele>1100.8</ele>
        <time>2026-08-27T11:51:03.260Z</time>
      </trkpt>
      <trkpt lat="47.83124" lon="6.99918">
        <ele>1100.8</ele>
        <time>2026-08-27T11:51:04.268Z</time>
      </trkpt>
      <trkpt lat="47.83124" lon="6.99918">
        <ele>1100.9</ele>
        <time>2026-08-27T11:51:05.277Z</time>
      </trkpt>
      <trkpt lat="47.83124" lon="6.99918">
        <ele>1101.1</ele>
        <time>2026-08-27T11:51:06.285Z</time>
      </trkpt>
      <trkpt lat="47.83124" lon="6.99918">
        <ele>1101.1</ele>
        <time>2026-08-27T11:51:07.343Z</time>
      </trkpt>
      <trkpt lat="47.83124" lon="6.99918">
        <ele>1101.2</ele>
        <time>2026-08-27T11:51:08.402Z</time>
      </trkpt>
      <trkpt lat="47.83124" lon="6.99918">
        <ele>1100.8</ele>
        <time>2026-08-27T11:51:10.344Z</time>
      </trkpt>
      <trkpt lat="47.83124" lon="6.99918">
        <ele>1100.5</ele>
        <time>2026-08-27T11:51:12.335Z</time>
      </trkpt>
      <trkpt lat="47.83124" lon="6.99918">
        <ele>1100.3</ele>
        <time>2026-08-27T11:51:13.342Z</time>
      </trkpt>
      <trkpt lat="47.83124" lon="6.99918">
        <ele>1100.5</ele>
        <time>2026-08-27T11:51:14.350Z</time>
      </trkpt>
      <trkpt lat="47.83124" lon="6.99917">
        <ele>1100.5</ele>
        <time>2026-08-27T11:51:16.367Z</time>
      </trkpt>
      <trkpt lat="47.83123" lon="6.99917">
        <ele>1100.5</ele>
        <time>2026-08-27T11:51:18.282Z</time>
      </trkpt>
      <trkpt lat="47.83121" lon="6.99918">
        <ele>1100.5</ele>
        <time>2026-08-27T11:51:20.400Z</time>
      </trkpt>
      <trkpt lat="47.8312" lon="6.9992">
        <ele>1100.5</ele>
        <time>2026-08-27T11:51:22.248Z</time>
      </trkpt>
      <trkpt lat="47.8312" lon="6.99921">
        <ele>1100.7</ele>
        <time>2026-08-27T11:51:23.323Z</time>
      </trkpt>
      <trkpt lat="47.83119" lon="6.99922">
        <ele>1101</ele>
        <time>2026-08-27T11:51:24.331Z</time>
      </trkpt>
      <trkpt lat="47.83119" lon="6.99924">
        <ele>1101</ele>
        <time>2026-08-27T11:51:25.348Z</time>
      </trkpt>
      <trkpt lat="47.83119" lon="6.99924">
        <ele>1101.2</ele>
        <time>2026-08-27T11:51:26.348Z</time>
      </trkpt>
      <trkpt lat="47.83119" lon="6.99925">
        <ele>1101.3</ele>
        <time>2026-08-27T11:51:27.356Z</time>
      </trkpt>
      <trkpt lat="47.83118" lon="6.99925">
        <ele>1101.4</ele>
        <time>2026-08-27T11:51:28.365Z</time>
      </trkpt>
      <trkpt lat="47.83118" lon="6.99925">
        <ele>1101.3</ele>
        <time>2026-08-27T11:51:29.372Z</time>
      </trkpt>
      <trkpt lat="47.83117" lon="6.99926">
        <ele>1101.5</ele>
        <time>2026-08-27T11:51:30.381Z</time>
      </trkpt>
      <trkpt lat="47.83117" lon="6.99928">
        <ele>1101.7</ele>
        <time>2026-08-27T11:51:32.397Z</time>
      </trkpt>
      <trkpt lat="47.83116" lon="6.99928">
        <ele>1101.7</ele>
        <time>2026-08-27T11:51:33.405Z</time>
      </trkpt>
      <trkpt lat="47.83115" lon="6.99928">
        <ele>1102.4</ele>
        <time>2026-08-27T11:51:35.320Z</time>
      </trkpt>
      <trkpt lat="47.83114" lon="6.99929">
        <ele>1102.6</ele>
        <time>2026-08-27T11:51:36.328Z</time>
      </trkpt>
      <trkpt lat="47.83113" lon="6.99929">
        <ele>1102.8</ele>
        <time>2026-08-27T11:51:37.337Z</time>
      </trkpt>
      <trkpt lat="47.83113" lon="6.99929">
        <ele>1102.7</ele>
        <time>2026-08-27T11:51:38.345Z</time>
      </trkpt>
      <trkpt lat="47.83113" lon="6.9993">
        <ele>1102.7</ele>
        <time>2026-08-27T11:51:39.361Z</time>
      </trkpt>
      <trkpt lat="47.83112" lon="6.9993">
        <ele>1102.6</ele>
        <time>2026-08-27T11:51:40.361Z</time>
      </trkpt>
      <trkpt lat="47.83112" lon="6.99931">
        <ele>1102.8</ele>
        <time>2026-08-27T11:51:41.370Z</time>
      </trkpt>
      <trkpt lat="47.83112" lon="6.99932">
        <ele>1102.8</ele>
        <time>2026-08-27T11:51:42.377Z</time>
      </trkpt>
      <trkpt lat="47.83111" lon="6.99934">
        <ele>1103</ele>
        <time>2026-08-27T11:51:43.386Z</time>
      </trkpt>
      <trkpt lat="47.8311" lon="6.99937">
        <ele>1103.2</ele>
        <time>2026-08-27T11:51:45.402Z</time>
      </trkpt>
      <trkpt lat="47.8311" lon="6.9994">
        <ele>1103.5</ele>
        <time>2026-08-27T11:51:47.317Z</time>
      </trkpt>
      <trkpt lat="47.8311" lon="6.99941">
        <ele>1103.6</ele>
        <time>2026-08-27T11:51:48.327Z</time>
      </trkpt>
      <trkpt lat="47.8311" lon="6.99943">
        <ele>1103.6</ele>
        <time>2026-08-27T11:51:49.367Z</time>
      </trkpt>
      <trkpt lat="47.83109" lon="6.99945">
        <ele>1103.9</ele>
        <time>2026-08-27T11:51:51.350Z</time>
      </trkpt>
      <trkpt lat="47.83109" lon="6.99945">
        <ele>1103.9</ele>
        <time>2026-08-27T11:51:52.358Z</time>
      </trkpt>
      <trkpt lat="47.83109" lon="6.99946">
        <ele>1104.3</ele>
        <time>2026-08-27T11:51:53.366Z</time>
      </trkpt>
      <trkpt lat="47.83108" lon="6.99948">
        <ele>1104.4</ele>
        <time>2026-08-27T11:51:55.282Z</time>
      </trkpt>
      <trkpt lat="47.83108" lon="6.99949">
        <ele>1104.6</ele>
        <time>2026-08-27T11:51:56.391Z</time>
      </trkpt>
      <trkpt lat="47.83108" lon="6.99949">
        <ele>1104.6</ele>
        <time>2026-08-27T11:51:57.400Z</time>
      </trkpt>
      <trkpt lat="47.83108" lon="6.99951">
        <ele>1104.7</ele>
        <time>2026-08-27T11:51:58.407Z</time>
      </trkpt>
      <trkpt lat="47.83107" lon="6.99952">
        <ele>1104.8</ele>
        <time>2026-08-27T11:52:00.423Z</time>
      </trkpt>
      <trkpt lat="47.83108" lon="6.99954">
        <ele>1105.3</ele>
        <time>2026-08-27T11:52:02.340Z</time>
      </trkpt>
      <trkpt lat="47.83108" lon="6.99955">
        <ele>1105.7</ele>
        <time>2026-08-27T11:52:03.347Z</time>
      </trkpt>
      <trkpt lat="47.83108" lon="6.99955">
        <ele>1105.8</ele>
        <time>2026-08-27T11:52:04.356Z</time>
      </trkpt>
      <trkpt lat="47.83108" lon="6.99956">
        <ele>1106.2</ele>
        <time>2026-08-27T11:52:05.363Z</time>
      </trkpt>
      <trkpt lat="47.83107" lon="6.99956">
        <ele>1106.2</ele>
        <time>2026-08-27T11:52:06.372Z</time>
      </trkpt>
      <trkpt lat="47.83107" lon="6.99957">
        <ele>1106.3</ele>
        <time>2026-08-27T11:52:07.380Z</time>
      </trkpt>
      <trkpt lat="47.83106" lon="6.99958">
        <ele>1106.2</ele>
        <time>2026-08-27T11:52:09.397Z</time>
      </trkpt>
      <trkpt lat="47.83106" lon="6.99958">
        <ele>1106.4</ele>
        <time>2026-08-27T11:52:11.311Z</time>
      </trkpt>
      <trkpt lat="47.83105" lon="6.99959">
        <ele>1106.7</ele>
        <time>2026-08-27T11:52:12.319Z</time>
      </trkpt>
      <trkpt lat="47.83105" lon="6.99959">
        <ele>1106.9</ele>
        <time>2026-08-27T11:52:13.329Z</time>
      </trkpt>
      <trkpt lat="47.83105" lon="6.99959">
        <ele>1107.1</ele>
        <time>2026-08-27T11:52:14.336Z</time>
      </trkpt>
      <trkpt lat="47.83105" lon="6.99959">
        <ele>1107.4</ele>
        <time>2026-08-27T11:52:15.345Z</time>
      </trkpt>
      <trkpt lat="47.83105" lon="6.9996">
        <ele>1107.5</ele>
        <time>2026-08-27T11:52:16.352Z</time>
      </trkpt>
      <trkpt lat="47.83105" lon="6.9996">
        <ele>1107.4</ele>
        <time>2026-08-27T11:52:17.360Z</time>
      </trkpt>
      <trkpt lat="47.83105" lon="6.9996">
        <ele>1107.4</ele>
        <time>2026-08-27T11:52:18.369Z</time>
      </trkpt>
      <trkpt lat="47.83105" lon="6.9996">
        <ele>1107.2</ele>
        <time>2026-08-27T11:52:19.376Z</time>
      </trkpt>
      <trkpt lat="47.83105" lon="6.99959">
        <ele>1107.3</ele>
        <time>2026-08-27T11:52:21.393Z</time>
      </trkpt>
      <trkpt lat="47.83105" lon="6.99959">
        <ele>1107.4</ele>
        <time>2026-08-27T11:52:22.401Z</time>
      </trkpt>
      <trkpt lat="47.83105" lon="6.99959">
        <ele>1107.4</ele>
        <time>2026-08-27T11:52:24.317Z</time>
      </trkpt>
      <trkpt lat="47.83105" lon="6.99959">
        <ele>1107.4</ele>
        <time>2026-08-27T11:52:25.324Z</time>
      </trkpt>
      <trkpt lat="47.83105" lon="6.99959">
        <ele>1107.5</ele>
        <time>2026-08-27T11:52:26.334Z</time>
      </trkpt>
      <trkpt lat="47.83104" lon="6.99958">
        <ele>1107.6</ele>
        <time>2026-08-27T11:52:27.341Z</time>
      </trkpt>
      <trkpt lat="47.83104" lon="6.99958">
        <ele>1107.4</ele>
        <time>2026-08-27T11:52:28.349Z</time>
      </trkpt>
      <trkpt lat="47.83104" lon="6.99959">
        <ele>1107.3</ele>
        <time>2026-08-27T11:52:29.358Z</time>
      </trkpt>
      <trkpt lat="47.83104" lon="6.99959">
        <ele>1107.4</ele>
        <time>2026-08-27T11:52:30.365Z</time>
      </trkpt>
      <trkpt lat="47.83104" lon="6.99959">
        <ele>1107.6</ele>
        <time>2026-08-27T11:52:31.374Z</time>
      </trkpt>
      <trkpt lat="47.83103" lon="6.99959">
        <ele>1107.8</ele>
        <time>2026-08-27T11:52:32.382Z</time>
      </trkpt>
      <trkpt lat="47.83103" lon="6.99959">
        <ele>1108</ele>
        <time>2026-08-27T11:52:34.398Z</time>
      </trkpt>
      <trkpt lat="47.83103" lon="6.9996">
        <ele>1108.1</ele>
        <time>2026-08-27T11:52:36.313Z</time>
      </trkpt>
      <trkpt lat="47.83102" lon="6.99961">
        <ele>1108.1</ele>
        <time>2026-08-27T11:52:37.321Z</time>
      </trkpt>
      <trkpt lat="47.83102" lon="6.99962">
        <ele>1108.1</ele>
        <time>2026-08-27T11:52:38.329Z</time>
      </trkpt>
      <trkpt lat="47.83102" lon="6.99963">
        <ele>1108.4</ele>
        <time>2026-08-27T11:52:39.339Z</time>
      </trkpt>
      <trkpt lat="47.83102" lon="6.99964">
        <ele>1108.4</ele>
        <time>2026-08-27T11:52:40.346Z</time>
      </trkpt>
      <trkpt lat="47.83102" lon="6.99965">
        <ele>1108.6</ele>
        <time>2026-08-27T11:52:41.354Z</time>
      </trkpt>
      <trkpt lat="47.83102" lon="6.99966">
        <ele>1108.6</ele>
        <time>2026-08-27T11:52:42.362Z</time>
      </trkpt>
      <trkpt lat="47.83101" lon="6.99968">
        <ele>1109.1</ele>
        <time>2026-08-27T11:52:44.378Z</time>
      </trkpt>
      <trkpt lat="47.83101" lon="6.99968">
        <ele>1109.3</ele>
        <time>2026-08-27T11:52:46.295Z</time>
      </trkpt>
      <trkpt lat="47.83101" lon="6.99968">
        <ele>1109.4</ele>
        <time>2026-08-27T11:52:47.403Z</time>
      </trkpt>
      <trkpt lat="47.83101" lon="6.99968">
        <ele>1109.4</ele>
        <time>2026-08-27T11:52:48.403Z</time>
      </trkpt>
      <trkpt lat="47.83101" lon="6.99968">
        <ele>1109.5</ele>
        <time>2026-08-27T11:52:50.327Z</time>
      </trkpt>
      <trkpt lat="47.83101" lon="6.99968">
        <ele>1109.9</ele>
        <time>2026-08-27T11:52:51.335Z</time>
      </trkpt>
      <trkpt lat="47.831" lon="6.99969">
        <ele>1109.9</ele>
        <time>2026-08-27T11:52:52.343Z</time>
      </trkpt>
      <trkpt lat="47.831" lon="6.9997">
        <ele>1109.9</ele>
        <time>2026-08-27T11:52:53.351Z</time>
      </trkpt>
      <trkpt lat="47.831" lon="6.99971">
        <ele>1109.9</ele>
        <time>2026-08-27T11:52:54.368Z</time>
      </trkpt>
      <trkpt lat="47.831" lon="6.99973">
        <ele>1110.6</ele>
        <time>2026-08-27T11:52:56.375Z</time>
      </trkpt>
      <trkpt lat="47.831" lon="6.99974">
        <ele>1110.5</ele>
        <time>2026-08-27T11:52:57.384Z</time>
      </trkpt>
      <trkpt lat="47.831" lon="6.99978">
        <ele>1110.8</ele>
        <time>2026-08-27T11:52:59.399Z</time>
      </trkpt>
      <trkpt lat="47.831" lon="6.9998">
        <ele>1111.5</ele>
        <time>2026-08-27T11:53:01.316Z</time>
      </trkpt>
      <trkpt lat="47.831" lon="6.9998">
        <ele>1111.5</ele>
        <time>2026-08-27T11:53:02.323Z</time>
      </trkpt>
      <trkpt lat="47.831" lon="6.99981">
        <ele>1111.8</ele>
        <time>2026-08-27T11:53:03.331Z</time>
      </trkpt>
      <trkpt lat="47.831" lon="6.99981">
        <ele>1111.7</ele>
        <time>2026-08-27T11:53:04.339Z</time>
      </trkpt>
      <trkpt lat="47.831" lon="6.99981">
        <ele>1111.8</ele>
        <time>2026-08-27T11:53:05.348Z</time>
      </trkpt>
      <trkpt lat="47.831" lon="6.99982">
        <ele>1111.7</ele>
        <time>2026-08-27T11:53:06.356Z</time>
      </trkpt>
      <trkpt lat="47.831" lon="6.99982">
        <ele>1111.7</ele>
        <time>2026-08-27T11:53:07.390Z</time>
      </trkpt>
      <trkpt lat="47.831" lon="6.99984">
        <ele>1111.9</ele>
        <time>2026-08-27T11:53:09.381Z</time>
      </trkpt>
      <trkpt lat="47.83099" lon="6.99985">
        <ele>1112.3</ele>
        <time>2026-08-27T11:53:11.396Z</time>
      </trkpt>
      <trkpt lat="47.83099" lon="6.99986">
        <ele>1112.5</ele>
        <time>2026-08-27T11:53:13.345Z</time>
      </trkpt>
      <trkpt lat="47.83099" lon="6.99986">
        <ele>1112.9</ele>
        <time>2026-08-27T11:53:14.429Z</time>
      </trkpt>
      <trkpt lat="47.83099" lon="6.99987">
        <ele>1113</ele>
        <time>2026-08-27T11:53:16.336Z</time>
      </trkpt>
      <trkpt lat="47.83098" lon="6.99988">
        <ele>1113.1</ele>
        <time>2026-08-27T11:53:18.353Z</time>
      </trkpt>
      <trkpt lat="47.83098" lon="6.99989">
        <ele>1113.4</ele>
        <time>2026-08-27T11:53:19.360Z</time>
      </trkpt>
      <trkpt lat="47.83098" lon="6.99989">
        <ele>1113.4</ele>
        <time>2026-08-27T11:53:20.369Z</time>
      </trkpt>
      <trkpt lat="47.83098" lon="6.99989">
        <ele>1113.5</ele>
        <time>2026-08-27T11:53:21.377Z</time>
      </trkpt>
      <trkpt lat="47.83097" lon="6.99989">
        <ele>1113.7</ele>
        <time>2026-08-27T11:53:22.385Z</time>
      </trkpt>
      <trkpt lat="47.83097" lon="6.99989">
        <ele>1114.2</ele>
        <time>2026-08-27T11:53:24.301Z</time>
      </trkpt>
      <trkpt lat="47.83097" lon="6.99989">
        <ele>1114.3</ele>
        <time>2026-08-27T11:53:25.309Z</time>
      </trkpt>
      <trkpt lat="47.83096" lon="6.99989">
        <ele>1114.6</ele>
        <time>2026-08-27T11:53:26.317Z</time>
      </trkpt>
      <trkpt lat="47.83096" lon="6.99989">
        <ele>1114.4</ele>
        <time>2026-08-27T11:53:27.326Z</time>
      </trkpt>
      <trkpt lat="47.83096" lon="6.99989">
        <ele>1114.5</ele>
        <time>2026-08-27T11:53:28.333Z</time>
      </trkpt>
      <trkpt lat="47.83096" lon="6.99989">
        <ele>1114.6</ele>
        <time>2026-08-27T11:53:29.341Z</time>
      </trkpt>
      <trkpt lat="47.83096" lon="6.99989">
        <ele>1114.7</ele>
        <time>2026-08-27T11:53:31.257Z</time>
      </trkpt>
      <trkpt lat="47.83096" lon="6.9999">
        <ele>1115</ele>
        <time>2026-08-27T11:53:32.265Z</time>
      </trkpt>
      <trkpt lat="47.83095" lon="6.9999">
        <ele>1115.1</ele>
        <time>2026-08-27T11:53:33.273Z</time>
      </trkpt>
      <trkpt lat="47.83095" lon="6.9999">
        <ele>1114.9</ele>
        <time>2026-08-27T11:53:34.282Z</time>
      </trkpt>
      <trkpt lat="47.83095" lon="6.99991">
        <ele>1114.9</ele>
        <time>2026-08-27T11:53:35.289Z</time>
      </trkpt>
      <trkpt lat="47.83095" lon="6.99991">
        <ele>1114.9</ele>
        <time>2026-08-27T11:53:36.298Z</time>
      </trkpt>
      <trkpt lat="47.83095" lon="6.99991">
        <ele>1114.7</ele>
        <time>2026-08-27T11:53:37.305Z</time>
      </trkpt>
      <trkpt lat="47.83095" lon="6.99992">
        <ele>1114.9</ele>
        <time>2026-08-27T11:53:38.313Z</time>
      </trkpt>
      <trkpt lat="47.83096" lon="6.99992">
        <ele>1114.9</ele>
        <time>2026-08-27T11:53:39.322Z</time>
      </trkpt>
      <trkpt lat="47.83096" lon="6.99992">
        <ele>1115</ele>
        <time>2026-08-27T11:53:40.331Z</time>
      </trkpt>
      <trkpt lat="47.83096" lon="6.99992">
        <ele>1115</ele>
        <time>2026-08-27T11:53:41.339Z</time>
      </trkpt>
      <trkpt lat="47.83096" lon="6.99993">
        <ele>1115.1</ele>
        <time>2026-08-27T11:53:42.347Z</time>
      </trkpt>
      <trkpt lat="47.83096" lon="6.99993">
        <ele>1115</ele>
        <time>2026-08-27T11:53:44.261Z</time>
      </trkpt>
      <trkpt lat="47.83096" lon="6.99993">
        <ele>1114.9</ele>
        <time>2026-08-27T11:53:45.270Z</time>
      </trkpt>
      <trkpt lat="47.83096" lon="6.99993">
        <ele>1115.1</ele>
        <time>2026-08-27T11:53:46.278Z</time>
      </trkpt>
      <trkpt lat="47.83096" lon="6.99994">
        <ele>1115.2</ele>
        <time>2026-08-27T11:53:47.286Z</time>
      </trkpt>
      <trkpt lat="47.83096" lon="6.99994">
        <ele>1115.1</ele>
        <time>2026-08-27T11:53:48.294Z</time>
      </trkpt>
      <trkpt lat="47.83096" lon="6.99994">
        <ele>1115</ele>
        <time>2026-08-27T11:53:49.302Z</time>
      </trkpt>
      <trkpt lat="47.83096" lon="6.99994">
        <ele>1115</ele>
        <time>2026-08-27T11:53:50.311Z</time>
      </trkpt>
      <trkpt lat="47.83096" lon="6.99994">
        <ele>1114.9</ele>
        <time>2026-08-27T11:53:51.319Z</time>
      </trkpt>
      <trkpt lat="47.83096" lon="6.99994">
        <ele>1114.9</ele>
        <time>2026-08-27T11:53:52.327Z</time>
      </trkpt>
      <trkpt lat="47.83096" lon="6.99995">
        <ele>1115.1</ele>
        <time>2026-08-27T11:53:53.335Z</time>
      </trkpt>
      <trkpt lat="47.83096" lon="6.99995">
        <ele>1115.1</ele>
        <time>2026-08-27T11:53:54.343Z</time>
      </trkpt>
      <trkpt lat="47.83096" lon="6.99995">
        <ele>1115.1</ele>
        <time>2026-08-27T11:53:56.259Z</time>
      </trkpt>
      <trkpt lat="47.83096" lon="6.99996">
        <ele>1114.8</ele>
        <time>2026-08-27T11:53:57.267Z</time>
      </trkpt>
      <trkpt lat="47.83096" lon="6.99996">
        <ele>1115.1</ele>
        <time>2026-08-27T11:53:58.275Z</time>
      </trkpt>
      <trkpt lat="47.83096" lon="6.99996">
        <ele>1115.3</ele>
        <time>2026-08-27T11:53:59.284Z</time>
      </trkpt>
      <trkpt lat="47.83096" lon="6.99996">
        <ele>1115.4</ele>
        <time>2026-08-27T11:54:00.292Z</time>
      </trkpt>
      <trkpt lat="47.83096" lon="6.99996">
        <ele>1115.3</ele>
        <time>2026-08-27T11:54:01.300Z</time>
      </trkpt>
      <trkpt lat="47.83096" lon="6.99997">
        <ele>1115.3</ele>
        <time>2026-08-27T11:54:02.308Z</time>
      </trkpt>
      <trkpt lat="47.83096" lon="6.99997">
        <ele>1115.2</ele>
        <time>2026-08-27T11:54:03.417Z</time>
      </trkpt>
      <trkpt lat="47.83096" lon="6.99997">
        <ele>1114.8</ele>
        <time>2026-08-27T11:54:05.334Z</time>
      </trkpt>
      <trkpt lat="47.83096" lon="6.99997">
        <ele>1114.3</ele>
        <time>2026-08-27T11:54:06.342Z</time>
      </trkpt>
      <trkpt lat="47.83096" lon="6.99997">
        <ele>1114.4</ele>
        <time>2026-08-27T11:54:07.349Z</time>
      </trkpt>
      <trkpt lat="47.83096" lon="6.99997">
        <ele>1114.7</ele>
        <time>2026-08-27T11:54:08.358Z</time>
      </trkpt>
      <trkpt lat="47.83096" lon="6.99997">
        <ele>1114.5</ele>
        <time>2026-08-27T11:54:09.367Z</time>
      </trkpt>
      <trkpt lat="47.83096" lon="6.99997">
        <ele>1114.7</ele>
        <time>2026-08-27T11:54:10.374Z</time>
      </trkpt>
      <trkpt lat="47.83096" lon="6.99997">
        <ele>1114.7</ele>
        <time>2026-08-27T11:54:11.416Z</time>
      </trkpt>
      <trkpt lat="47.83096" lon="6.99996">
        <ele>1114.3</ele>
        <time>2026-08-27T11:54:13.298Z</time>
      </trkpt>
      <trkpt lat="47.83095" lon="6.99996">
        <ele>1114.3</ele>
        <time>2026-08-27T11:54:14.307Z</time>
      </trkpt>
      <trkpt lat="47.83094" lon="6.99996">
        <ele>1114.8</ele>
        <time>2026-08-27T11:54:16.322Z</time>
      </trkpt>
      <trkpt lat="47.83094" lon="6.99997">
        <ele>1114.8</ele>
        <time>2026-08-27T11:54:17.330Z</time>
      </trkpt>
      <trkpt lat="47.83094" lon="6.99997">
        <ele>1114.8</ele>
        <time>2026-08-27T11:54:18.414Z</time>
      </trkpt>
      <trkpt lat="47.83094" lon="7">
        <ele>1115.1</ele>
        <time>2026-08-27T11:54:20.355Z</time>
      </trkpt>
      <trkpt lat="47.83094" lon="7.00001">
        <ele>1115.2</ele>
        <time>2026-08-27T11:54:21.363Z</time>
      </trkpt>
      <trkpt lat="47.83094" lon="7.00002">
        <ele>1115.6</ele>
        <time>2026-08-27T11:54:22.371Z</time>
      </trkpt>
      <trkpt lat="47.83094" lon="7.00003">
        <ele>1115.6</ele>
        <time>2026-08-27T11:54:23.397Z</time>
      </trkpt>
      <trkpt lat="47.83094" lon="7.00004">
        <ele>1115.9</ele>
        <time>2026-08-27T11:54:24.414Z</time>
      </trkpt>
      <trkpt lat="47.83094" lon="7.00006">
        <ele>1116.3</ele>
        <time>2026-08-27T11:54:26.303Z</time>
      </trkpt>
      <trkpt lat="47.83094" lon="7.00006">
        <ele>1116.5</ele>
        <time>2026-08-27T11:54:27.312Z</time>
      </trkpt>
      <trkpt lat="47.83094" lon="7.00007">
        <ele>1116.8</ele>
        <time>2026-08-27T11:54:28.320Z</time>
      </trkpt>
      <trkpt lat="47.83094" lon="7.00007">
        <ele>1117</ele>
        <time>2026-08-27T11:54:29.329Z</time>
      </trkpt>
      <trkpt lat="47.83094" lon="7.00007">
        <ele>1117.1</ele>
        <time>2026-08-27T11:54:30.336Z</time>
      </trkpt>
      <trkpt lat="47.83094" lon="7.00007">
        <ele>1117.2</ele>
        <time>2026-08-27T11:54:31.344Z</time>
      </trkpt>
      <trkpt lat="47.83094" lon="7.00007">
        <ele>1117.1</ele>
        <time>2026-08-27T11:54:32.352Z</time>
      </trkpt>
      <trkpt lat="47.83094" lon="7.00007">
        <ele>1117.1</ele>
        <time>2026-08-27T11:54:33.360Z</time>
      </trkpt>
      <trkpt lat="47.83094" lon="7.00008">
        <ele>1117.1</ele>
        <time>2026-08-27T11:54:34.368Z</time>
      </trkpt>
      <trkpt lat="47.83094" lon="7.00008">
        <ele>1117.2</ele>
        <time>2026-08-27T11:54:35.377Z</time>
      </trkpt>
      <trkpt lat="47.83094" lon="7.00008">
        <ele>1117.3</ele>
        <time>2026-08-27T11:54:36.385Z</time>
      </trkpt>
      <trkpt lat="47.83094" lon="7.00008">
        <ele>1117.7</ele>
        <time>2026-08-27T11:54:38.300Z</time>
      </trkpt>
      <trkpt lat="47.83094" lon="7.00009">
        <ele>1118</ele>
        <time>2026-08-27T11:54:39.409Z</time>
      </trkpt>
      <trkpt lat="47.83094" lon="7.00009">
        <ele>1118.2</ele>
        <time>2026-08-27T11:54:41.326Z</time>
      </trkpt>
      <trkpt lat="47.83094" lon="7.00009">
        <ele>1118</ele>
        <time>2026-08-27T11:54:42.334Z</time>
      </trkpt>
      <trkpt lat="47.83094" lon="7.0001">
        <ele>1118.1</ele>
        <time>2026-08-27T11:54:43.342Z</time>
      </trkpt>
      <trkpt lat="47.83094" lon="7.0001">
        <ele>1118.4</ele>
        <time>2026-08-27T11:54:44.349Z</time>
      </trkpt>
      <trkpt lat="47.83093" lon="7.00011">
        <ele>1118.8</ele>
        <time>2026-08-27T11:54:45.357Z</time>
      </trkpt>
      <trkpt lat="47.83093" lon="7.00012">
        <ele>1118.9</ele>
        <time>2026-08-27T11:54:46.365Z</time>
      </trkpt>
      <trkpt lat="47.83093" lon="7.00012">
        <ele>1118.9</ele>
        <time>2026-08-27T11:54:47.374Z</time>
      </trkpt>
      <trkpt lat="47.83093" lon="7.00013">
        <ele>1119.1</ele>
        <time>2026-08-27T11:54:48.383Z</time>
      </trkpt>
      <trkpt lat="47.83092" lon="7.00013">
        <ele>1119.2</ele>
        <time>2026-08-27T11:54:50.297Z</time>
      </trkpt>
      <trkpt lat="47.83092" lon="7.00013">
        <ele>1119.5</ele>
        <time>2026-08-27T11:54:51.305Z</time>
      </trkpt>
      <trkpt lat="47.83092" lon="7.00013">
        <ele>1119.7</ele>
        <time>2026-08-27T11:54:52.313Z</time>
      </trkpt>
      <trkpt lat="47.83092" lon="7.00014">
        <ele>1119.9</ele>
        <time>2026-08-27T11:54:53.422Z</time>
      </trkpt>
      <trkpt lat="47.83091" lon="7.00014">
        <ele>1120.1</ele>
        <time>2026-08-27T11:54:55.397Z</time>
      </trkpt>
      <trkpt lat="47.83091" lon="7.00015">
        <ele>1120.7</ele>
        <time>2026-08-27T11:54:57.355Z</time>
      </trkpt>
      <trkpt lat="47.83091" lon="7.00016">
        <ele>1120.9</ele>
        <time>2026-08-27T11:54:58.362Z</time>
      </trkpt>
      <trkpt lat="47.83091" lon="7.00016">
        <ele>1120.9</ele>
        <time>2026-08-27T11:54:59.371Z</time>
      </trkpt>
      <trkpt lat="47.83091" lon="7.00017">
        <ele>1121</ele>
        <time>2026-08-27T11:55:00.378Z</time>
      </trkpt>
      <trkpt lat="47.83091" lon="7.00018">
        <ele>1120.9</ele>
        <time>2026-08-27T11:55:02.395Z</time>
      </trkpt>
      <trkpt lat="47.83091" lon="7.0002">
        <ele>1120.9</ele>
        <time>2026-08-27T11:55:03.404Z</time>
      </trkpt>
      <trkpt lat="47.83091" lon="7.00022">
        <ele>1121.3</ele>
        <time>2026-08-27T11:55:05.318Z</time>
      </trkpt>
      <trkpt lat="47.83091" lon="7.00022">
        <ele>1121.3</ele>
        <time>2026-08-27T11:55:06.352Z</time>
      </trkpt>
      <trkpt lat="47.83091" lon="7.00024">
        <ele>1122</ele>
        <time>2026-08-27T11:55:08.344Z</time>
      </trkpt>
      <trkpt lat="47.83091" lon="7.00024">
        <ele>1122.3</ele>
        <time>2026-08-27T11:55:09.352Z</time>
      </trkpt>
      <trkpt lat="47.83091" lon="7.00024">
        <ele>1122.3</ele>
        <time>2026-08-27T11:55:10.360Z</time>
      </trkpt>
      <trkpt lat="47.83091" lon="7.00024">
        <ele>1122.3</ele>
        <time>2026-08-27T11:55:11.368Z</time>
      </trkpt>
      <trkpt lat="47.83091" lon="7.00025">
        <ele>1122.1</ele>
        <time>2026-08-27T11:55:12.375Z</time>
      </trkpt>
      <trkpt lat="47.83091" lon="7.00025">
        <ele>1122.3</ele>
        <time>2026-08-27T11:55:13.383Z</time>
      </trkpt>
      <trkpt lat="47.83091" lon="7.00025">
        <ele>1122.5</ele>
        <time>2026-08-27T11:55:14.392Z</time>
      </trkpt>
      <trkpt lat="47.83091" lon="7.00025">
        <ele>1122.6</ele>
        <time>2026-08-27T11:55:15.400Z</time>
      </trkpt>
      <trkpt lat="47.83091" lon="7.00025">
        <ele>1122.3</ele>
        <time>2026-08-27T11:55:16.408Z</time>
      </trkpt>
      <trkpt lat="47.83091" lon="7.00025">
        <ele>1122.2</ele>
        <time>2026-08-27T11:55:18.323Z</time>
      </trkpt>
      <trkpt lat="47.83091" lon="7.00026">
        <ele>1122.2</ele>
        <time>2026-08-27T11:55:19.331Z</time>
      </trkpt>
      <trkpt lat="47.83091" lon="7.00026">
        <ele>1122.4</ele>
        <time>2026-08-27T11:55:20.339Z</time>
      </trkpt>
      <trkpt lat="47.83091" lon="7.00027">
        <ele>1122.4</ele>
        <time>2026-08-27T11:55:21.399Z</time>
      </trkpt>
      <trkpt lat="47.83091" lon="7.00028">
        <ele>1122.6</ele>
        <time>2026-08-27T11:55:23.364Z</time>
      </trkpt>
      <trkpt lat="47.83091" lon="7.00029">
        <ele>1122.7</ele>
        <time>2026-08-27T11:55:24.372Z</time>
      </trkpt>
      <trkpt lat="47.83091" lon="7.0003">
        <ele>1123.4</ele>
        <time>2026-08-27T11:55:26.388Z</time>
      </trkpt>
      <trkpt lat="47.83091" lon="7.0003">
        <ele>1123.5</ele>
        <time>2026-08-27T11:55:27.396Z</time>
      </trkpt>
      <trkpt lat="47.83091" lon="7.00031">
        <ele>1123.7</ele>
        <time>2026-08-27T11:55:29.412Z</time>
      </trkpt>
      <trkpt lat="47.83091" lon="7.00032">
        <ele>1123.4</ele>
        <time>2026-08-27T11:55:31.328Z</time>
      </trkpt>
      <trkpt lat="47.83091" lon="7.00033">
        <ele>1123.6</ele>
        <time>2026-08-27T11:55:32.337Z</time>
      </trkpt>
      <trkpt lat="47.83091" lon="7.00033">
        <ele>1123.7</ele>
        <time>2026-08-27T11:55:33.345Z</time>
      </trkpt>
      <trkpt lat="47.83091" lon="7.00034">
        <ele>1123.7</ele>
        <time>2026-08-27T11:55:34.353Z</time>
      </trkpt>
      <trkpt lat="47.83091" lon="7.00034">
        <ele>1124.3</ele>
        <time>2026-08-27T11:55:35.360Z</time>
      </trkpt>
      <trkpt lat="47.83091" lon="7.00035">
        <ele>1124.4</ele>
        <time>2026-08-27T11:55:36.369Z</time>
      </trkpt>
      <trkpt lat="47.83091" lon="7.00036">
        <ele>1124.6</ele>
        <time>2026-08-27T11:55:37.378Z</time>
      </trkpt>
      <trkpt lat="47.83092" lon="7.00036">
        <ele>1125</ele>
        <time>2026-08-27T11:55:38.385Z</time>
      </trkpt>
      <trkpt lat="47.83092" lon="7.00037">
        <ele>1124.9</ele>
        <time>2026-08-27T11:55:40.402Z</time>
      </trkpt>
      <trkpt lat="47.83092" lon="7.00039">
        <ele>1125.1</ele>
        <time>2026-08-27T11:55:42.316Z</time>
      </trkpt>
      <trkpt lat="47.83092" lon="7.00039">
        <ele>1125.3</ele>
        <time>2026-08-27T11:55:43.425Z</time>
      </trkpt>
      <trkpt lat="47.83093" lon="7.00042">
        <ele>1125.6</ele>
        <time>2026-08-27T11:55:45.341Z</time>
      </trkpt>
      <trkpt lat="47.83093" lon="7.00044">
        <ele>1125.7</ele>
        <time>2026-08-27T11:55:46.349Z</time>
      </trkpt>
      <trkpt lat="47.83093" lon="7.00046">
        <ele>1125.8</ele>
        <time>2026-08-27T11:55:47.358Z</time>
      </trkpt>
      <trkpt lat="47.83093" lon="7.00047">
        <ele>1125.9</ele>
        <time>2026-08-27T11:55:48.366Z</time>
      </trkpt>
      <trkpt lat="47.83093" lon="7.00048">
        <ele>1126.3</ele>
        <time>2026-08-27T11:55:49.373Z</time>
      </trkpt>
      <trkpt lat="47.83092" lon="7.0005">
        <ele>1126.6</ele>
        <time>2026-08-27T11:55:51.289Z</time>
      </trkpt>
      <trkpt lat="47.83092" lon="7.0005">
        <ele>1126.8</ele>
        <time>2026-08-27T11:55:52.397Z</time>
      </trkpt>
      <trkpt lat="47.83092" lon="7.00051">
        <ele>1126.9</ele>
        <time>2026-08-27T11:55:54.313Z</time>
      </trkpt>
      <trkpt lat="47.83092" lon="7.00051">
        <ele>1127</ele>
        <time>2026-08-27T11:55:55.423Z</time>
      </trkpt>
      <trkpt lat="47.83092" lon="7.00052">
        <ele>1126.8</ele>
        <time>2026-08-27T11:55:57.337Z</time>
      </trkpt>
      <trkpt lat="47.83093" lon="7.00052">
        <ele>1126.9</ele>
        <time>2026-08-27T11:55:58.379Z</time>
      </trkpt>
      <trkpt lat="47.83093" lon="7.00052">
        <ele>1126.4</ele>
        <time>2026-08-27T11:56:00.362Z</time>
      </trkpt>
      <trkpt lat="47.83094" lon="7.00052">
        <ele>1126.5</ele>
        <time>2026-08-27T11:56:01.371Z</time>
      </trkpt>
      <trkpt lat="47.83094" lon="7.00053">
        <ele>1126.4</ele>
        <time>2026-08-27T11:56:02.378Z</time>
      </trkpt>
      <trkpt lat="47.83094" lon="7.00053">
        <ele>1127</ele>
        <time>2026-08-27T11:56:04.293Z</time>
      </trkpt>
      <trkpt lat="47.83094" lon="7.00055">
        <ele>1127.6</ele>
        <time>2026-08-27T11:56:06.309Z</time>
      </trkpt>
      <trkpt lat="47.83094" lon="7.00055">
        <ele>1127.6</ele>
        <time>2026-08-27T11:56:07.352Z</time>
      </trkpt>
      <trkpt lat="47.83093" lon="7.00057">
        <ele>1127.4</ele>
        <time>2026-08-27T11:56:09.334Z</time>
      </trkpt>
      <trkpt lat="47.83093" lon="7.00058">
        <ele>1127.3</ele>
        <time>2026-08-27T11:56:10.342Z</time>
      </trkpt>
      <trkpt lat="47.83093" lon="7.00058">
        <ele>1127.2</ele>
        <time>2026-08-27T11:56:11.418Z</time>
      </trkpt>
      <trkpt lat="47.83094" lon="7.00059">
        <ele>1128</ele>
        <time>2026-08-27T11:56:13.366Z</time>
      </trkpt>
      <trkpt lat="47.83094" lon="7.0006">
        <ele>1127.8</ele>
        <time>2026-08-27T11:56:14.374Z</time>
      </trkpt>
      <trkpt lat="47.83094" lon="7.00062">
        <ele>1127.8</ele>
        <time>2026-08-27T11:56:16.290Z</time>
      </trkpt>
      <trkpt lat="47.83094" lon="7.00063">
        <ele>1127.7</ele>
        <time>2026-08-27T11:56:17.399Z</time>
      </trkpt>
      <trkpt lat="47.83094" lon="7.00064">
        <ele>1128.1</ele>
        <time>2026-08-27T11:56:19.314Z</time>
      </trkpt>
      <trkpt lat="47.83094" lon="7.00065">
        <ele>1128.1</ele>
        <time>2026-08-27T11:56:20.322Z</time>
      </trkpt>
      <trkpt lat="47.83094" lon="7.00066">
        <ele>1128.3</ele>
        <time>2026-08-27T11:56:21.330Z</time>
      </trkpt>
      <trkpt lat="47.83094" lon="7.00067">
        <ele>1128.3</ele>
        <time>2026-08-27T11:56:22.355Z</time>
      </trkpt>
      <trkpt lat="47.83095" lon="7.00068">
        <ele>1128.6</ele>
        <time>2026-08-27T11:56:24.355Z</time>
      </trkpt>
      <trkpt lat="47.83095" lon="7.00069">
        <ele>1128.6</ele>
        <time>2026-08-27T11:56:25.364Z</time>
      </trkpt>
      <trkpt lat="47.83095" lon="7.0007">
        <ele>1128.7</ele>
        <time>2026-08-27T11:56:26.372Z</time>
      </trkpt>
      <trkpt lat="47.83095" lon="7.0007">
        <ele>1128.6</ele>
        <time>2026-08-27T11:56:27.380Z</time>
      </trkpt>
      <trkpt lat="47.83095" lon="7.00071">
        <ele>1128.6</ele>
        <time>2026-08-27T11:56:28.387Z</time>
      </trkpt>
      <trkpt lat="47.83095" lon="7.00072">
        <ele>1128.7</ele>
        <time>2026-08-27T11:56:30.235Z</time>
      </trkpt>
      <trkpt lat="47.83095" lon="7.00074">
        <ele>1128.8</ele>
        <time>2026-08-27T11:56:31.411Z</time>
      </trkpt>
      <trkpt lat="47.83095" lon="7.00076">
        <ele>1129.1</ele>
        <time>2026-08-27T11:56:33.353Z</time>
      </trkpt>
      <trkpt lat="47.83095" lon="7.00078">
        <ele>1129.6</ele>
        <time>2026-08-27T11:56:35.343Z</time>
      </trkpt>
      <trkpt lat="47.83095" lon="7.00079">
        <ele>1129.6</ele>
        <time>2026-08-27T11:56:36.351Z</time>
      </trkpt>
      <trkpt lat="47.83095" lon="7.0008">
        <ele>1129.5</ele>
        <time>2026-08-27T11:56:37.359Z</time>
      </trkpt>
      <trkpt lat="47.83095" lon="7.00081">
        <ele>1129.5</ele>
        <time>2026-08-27T11:56:39.375Z</time>
      </trkpt>
      <trkpt lat="47.83094" lon="7.00083">
        <ele>1129.7</ele>
        <time>2026-08-27T11:56:40.385Z</time>
      </trkpt>
      <trkpt lat="47.83094" lon="7.00085">
        <ele>1129.9</ele>
        <time>2026-08-27T11:56:41.393Z</time>
      </trkpt>
      <trkpt lat="47.83094" lon="7.00087">
        <ele>1130.1</ele>
        <time>2026-08-27T11:56:43.290Z</time>
      </trkpt>
      <trkpt lat="47.83094" lon="7.00088">
        <ele>1130.1</ele>
        <time>2026-08-27T11:56:44.315Z</time>
      </trkpt>
      <trkpt lat="47.83094" lon="7.0009">
        <ele>1130.1</ele>
        <time>2026-08-27T11:56:45.323Z</time>
      </trkpt>
      <trkpt lat="47.83093" lon="7.00091">
        <ele>1130.3</ele>
        <time>2026-08-27T11:56:46.331Z</time>
      </trkpt>
      <trkpt lat="47.83093" lon="7.00093">
        <ele>1130.6</ele>
        <time>2026-08-27T11:56:48.348Z</time>
      </trkpt>
      <trkpt lat="47.83092" lon="7.00094">
        <ele>1130.8</ele>
        <time>2026-08-27T11:56:49.356Z</time>
      </trkpt>
      <trkpt lat="47.83092" lon="7.00094">
        <ele>1131</ele>
        <time>2026-08-27T11:56:50.364Z</time>
      </trkpt>
      <trkpt lat="47.83092" lon="7.00095">
        <ele>1130.9</ele>
        <time>2026-08-27T11:56:51.372Z</time>
      </trkpt>
      <trkpt lat="47.83092" lon="7.00097">
        <ele>1131.3</ele>
        <time>2026-08-27T11:56:52.380Z</time>
      </trkpt>
      <trkpt lat="47.83092" lon="7.00098">
        <ele>1131.2</ele>
        <time>2026-08-27T11:56:54.296Z</time>
      </trkpt>
      <trkpt lat="47.83092" lon="7.00099">
        <ele>1131.2</ele>
        <time>2026-08-27T11:56:55.303Z</time>
      </trkpt>
      <trkpt lat="47.83092" lon="7.001">
        <ele>1131.3</ele>
        <time>2026-08-27T11:56:56.313Z</time>
      </trkpt>
      <trkpt lat="47.83092" lon="7.001">
        <ele>1131</ele>
        <time>2026-08-27T11:56:58.329Z</time>
      </trkpt>
      <trkpt lat="47.83092" lon="7.00101">
        <ele>1131.2</ele>
        <time>2026-08-27T11:56:59.337Z</time>
      </trkpt>
      <trkpt lat="47.83092" lon="7.00101">
        <ele>1131.4</ele>
        <time>2026-08-27T11:57:00.344Z</time>
      </trkpt>
      <trkpt lat="47.83092" lon="7.00102">
        <ele>1131.5</ele>
        <time>2026-08-27T11:57:01.353Z</time>
      </trkpt>
      <trkpt lat="47.83092" lon="7.00103">
        <ele>1132</ele>
        <time>2026-08-27T11:57:03.368Z</time>
      </trkpt>
      <trkpt lat="47.83092" lon="7.00104">
        <ele>1131.8</ele>
        <time>2026-08-27T11:57:04.377Z</time>
      </trkpt>
      <trkpt lat="47.83092" lon="7.00106">
        <ele>1132</ele>
        <time>2026-08-27T11:57:06.292Z</time>
      </trkpt>
      <trkpt lat="47.83092" lon="7.00107">
        <ele>1131.9</ele>
        <time>2026-08-27T11:57:07.401Z</time>
      </trkpt>
      <trkpt lat="47.83092" lon="7.00109">
        <ele>1131.9</ele>
        <time>2026-08-27T11:57:09.257Z</time>
      </trkpt>
      <trkpt lat="47.83092" lon="7.0011">
        <ele>1132.3</ele>
        <time>2026-08-27T11:57:10.324Z</time>
      </trkpt>
      <trkpt lat="47.83091" lon="7.0011">
        <ele>1132.5</ele>
        <time>2026-08-27T11:57:11.332Z</time>
      </trkpt>
      <trkpt lat="47.83091" lon="7.00111">
        <ele>1132.5</ele>
        <time>2026-08-27T11:57:12.340Z</time>
      </trkpt>
      <trkpt lat="47.83091" lon="7.00112">
        <ele>1132.4</ele>
        <time>2026-08-27T11:57:13.349Z</time>
      </trkpt>
      <trkpt lat="47.83091" lon="7.00113">
        <ele>1132.5</ele>
        <time>2026-08-27T11:57:14.357Z</time>
      </trkpt>
      <trkpt lat="47.8309" lon="7.00114">
        <ele>1132.7</ele>
        <time>2026-08-27T11:57:15.365Z</time>
      </trkpt>
      <trkpt lat="47.8309" lon="7.00115">
        <ele>1132.8</ele>
        <time>2026-08-27T11:57:16.373Z</time>
      </trkpt>
      <trkpt lat="47.8309" lon="7.00115">
        <ele>1132.9</ele>
        <time>2026-08-27T11:57:17.381Z</time>
      </trkpt>
      <trkpt lat="47.83089" lon="7.00117">
        <ele>1133.2</ele>
        <time>2026-08-27T11:57:19.397Z</time>
      </trkpt>
      <trkpt lat="47.83088" lon="7.00117">
        <ele>1133.6</ele>
        <time>2026-08-27T11:57:21.313Z</time>
      </trkpt>
      <trkpt lat="47.83088" lon="7.00118">
        <ele>1133.7</ele>
        <time>2026-08-27T11:57:22.322Z</time>
      </trkpt>
      <trkpt lat="47.83088" lon="7.00118">
        <ele>1133.7</ele>
        <time>2026-08-27T11:57:23.329Z</time>
      </trkpt>
      <trkpt lat="47.83088" lon="7.00119">
        <ele>1133.8</ele>
        <time>2026-08-27T11:57:24.337Z</time>
      </trkpt>
      <trkpt lat="47.83087" lon="7.00119">
        <ele>1133.7</ele>
        <time>2026-08-27T11:57:25.345Z</time>
      </trkpt>
      <trkpt lat="47.83087" lon="7.0012">
        <ele>1133.7</ele>
        <time>2026-08-27T11:57:26.353Z</time>
      </trkpt>
      <trkpt lat="47.83087" lon="7.0012">
        <ele>1133.7</ele>
        <time>2026-08-27T11:57:27.362Z</time>
      </trkpt>
      <trkpt lat="47.83087" lon="7.00121">
        <ele>1133.7</ele>
        <time>2026-08-27T11:57:28.369Z</time>
      </trkpt>
      <trkpt lat="47.83087" lon="7.00121">
        <ele>1133.9</ele>
        <time>2026-08-27T11:57:29.377Z</time>
      </trkpt>
      <trkpt lat="47.83086" lon="7.00121">
        <ele>1134.1</ele>
        <time>2026-08-27T11:57:30.386Z</time>
      </trkpt>
      <trkpt lat="47.83086" lon="7.00123">
        <ele>1134.7</ele>
        <time>2026-08-27T11:57:32.301Z</time>
      </trkpt>
      <trkpt lat="47.83086" lon="7.00123">
        <ele>1134.7</ele>
        <time>2026-08-27T11:57:33.310Z</time>
      </trkpt>
      <trkpt lat="47.83085" lon="7.00124">
        <ele>1134.9</ele>
        <time>2026-08-27T11:57:34.317Z</time>
      </trkpt>
      <trkpt lat="47.83085" lon="7.00125">
        <ele>1134.9</ele>
        <time>2026-08-27T11:57:35.326Z</time>
      </trkpt>
      <trkpt lat="47.83085" lon="7.00126">
        <ele>1134.9</ele>
        <time>2026-08-27T11:57:36.333Z</time>
      </trkpt>
      <trkpt lat="47.83085" lon="7.00127">
        <ele>1134.9</ele>
        <time>2026-08-27T11:57:37.341Z</time>
      </trkpt>
      <trkpt lat="47.83085" lon="7.00129">
        <ele>1135.1</ele>
        <time>2026-08-27T11:57:38.350Z</time>
      </trkpt>
      <trkpt lat="47.83084" lon="7.00131">
        <ele>1135.2</ele>
        <time>2026-08-27T11:57:39.358Z</time>
      </trkpt>
      <trkpt lat="47.83084" lon="7.00133">
        <ele>1135.5</ele>
        <time>2026-08-27T11:57:40.366Z</time>
      </trkpt>
      <trkpt lat="47.83082" lon="7.00136">
        <ele>1135.3</ele>
        <time>2026-08-27T11:57:42.281Z</time>
      </trkpt>
      <trkpt lat="47.83082" lon="7.00137">
        <ele>1135.3</ele>
        <time>2026-08-27T11:57:43.289Z</time>
      </trkpt>
      <trkpt lat="47.83081" lon="7.00138">
        <ele>1135.6</ele>
        <time>2026-08-27T11:57:44.298Z</time>
      </trkpt>
      <trkpt lat="47.83081" lon="7.00138">
        <ele>1135.6</ele>
        <time>2026-08-27T11:57:45.305Z</time>
      </trkpt>
      <trkpt lat="47.83081" lon="7.00139">
        <ele>1135.7</ele>
        <time>2026-08-27T11:57:46.315Z</time>
      </trkpt>
      <trkpt lat="47.83081" lon="7.00139">
        <ele>1135.7</ele>
        <time>2026-08-27T11:57:47.330Z</time>
      </trkpt>
      <trkpt lat="47.83081" lon="7.00139">
        <ele>1136.1</ele>
        <time>2026-08-27T11:57:48.330Z</time>
      </trkpt>
      <trkpt lat="47.83081" lon="7.00139">
        <ele>1136.2</ele>
        <time>2026-08-27T11:57:49.338Z</time>
      </trkpt>
      <trkpt lat="47.83081" lon="7.00139">
        <ele>1136.5</ele>
        <time>2026-08-27T11:57:50.346Z</time>
      </trkpt>
      <trkpt lat="47.8308" lon="7.0014">
        <ele>1136.4</ele>
        <time>2026-08-27T11:57:51.354Z</time>
      </trkpt>
      <trkpt lat="47.8308" lon="7.00142">
        <ele>1136.6</ele>
        <time>2026-08-27T11:57:52.362Z</time>
      </trkpt>
      <trkpt lat="47.83079" lon="7.00143">
        <ele>1136.8</ele>
        <time>2026-08-27T11:57:53.370Z</time>
      </trkpt>
      <trkpt lat="47.83078" lon="7.00144">
        <ele>1136.8</ele>
        <time>2026-08-27T11:57:54.379Z</time>
      </trkpt>
      <trkpt lat="47.83078" lon="7.00146">
        <ele>1136.8</ele>
        <time>2026-08-27T11:57:55.387Z</time>
      </trkpt>
      <trkpt lat="47.83078" lon="7.00147">
        <ele>1136.7</ele>
        <time>2026-08-27T11:57:56.395Z</time>
      </trkpt>
      <trkpt lat="47.83077" lon="7.00147">
        <ele>1136.7</ele>
        <time>2026-08-27T11:57:57.404Z</time>
      </trkpt>
      <trkpt lat="47.83077" lon="7.00148">
        <ele>1136.9</ele>
        <time>2026-08-27T11:57:58.411Z</time>
      </trkpt>
      <trkpt lat="47.83077" lon="7.0015">
        <ele>1137.3</ele>
        <time>2026-08-27T11:58:00.326Z</time>
      </trkpt>
      <trkpt lat="47.83077" lon="7.00152">
        <ele>1137.5</ele>
        <time>2026-08-27T11:58:01.334Z</time>
      </trkpt>
      <trkpt lat="47.83077" lon="7.00153">
        <ele>1137.5</ele>
        <time>2026-08-27T11:58:02.377Z</time>
      </trkpt>
      <trkpt lat="47.83076" lon="7.00156">
        <ele>1137.5</ele>
        <time>2026-08-27T11:58:04.360Z</time>
      </trkpt>
      <trkpt lat="47.83076" lon="7.00158">
        <ele>1137.6</ele>
        <time>2026-08-27T11:58:06.274Z</time>
      </trkpt>
      <trkpt lat="47.83076" lon="7.00159">
        <ele>1137.9</ele>
        <time>2026-08-27T11:58:07.383Z</time>
      </trkpt>
      <trkpt lat="47.83075" lon="7.00161">
        <ele>1138.2</ele>
        <time>2026-08-27T11:58:09.298Z</time>
      </trkpt>
      <trkpt lat="47.83075" lon="7.00162">
        <ele>1138.1</ele>
        <time>2026-08-27T11:58:10.306Z</time>
      </trkpt>
      <trkpt lat="47.83075" lon="7.00162">
        <ele>1138.1</ele>
        <time>2026-08-27T11:58:11.314Z</time>
      </trkpt>
      <trkpt lat="47.83074" lon="7.00163">
        <ele>1138.3</ele>
        <time>2026-08-27T11:58:12.323Z</time>
      </trkpt>
      <trkpt lat="47.83074" lon="7.00163">
        <ele>1138.3</ele>
        <time>2026-08-27T11:58:13.356Z</time>
      </trkpt>
      <trkpt lat="47.83074" lon="7.00164">
        <ele>1138.7</ele>
        <time>2026-08-27T11:58:15.348Z</time>
      </trkpt>
      <trkpt lat="47.83074" lon="7.00164">
        <ele>1138.8</ele>
        <time>2026-08-27T11:58:16.355Z</time>
      </trkpt>
      <trkpt lat="47.83074" lon="7.00165">
        <ele>1139</ele>
        <time>2026-08-27T11:58:17.363Z</time>
      </trkpt>
      <trkpt lat="47.83074" lon="7.00165">
        <ele>1139.2</ele>
        <time>2026-08-27T11:58:18.371Z</time>
      </trkpt>
      <trkpt lat="47.83073" lon="7.00168">
        <ele>1139.6</ele>
        <time>2026-08-27T11:58:20.253Z</time>
      </trkpt>
      <trkpt lat="47.83073" lon="7.00169">
        <ele>1139.6</ele>
        <time>2026-08-27T11:58:21.295Z</time>
      </trkpt>
      <trkpt lat="47.83072" lon="7.0017">
        <ele>1139.7</ele>
        <time>2026-08-27T11:58:22.303Z</time>
      </trkpt>
      <trkpt lat="47.83072" lon="7.00172">
        <ele>1139.8</ele>
        <time>2026-08-27T11:58:23.412Z</time>
      </trkpt>
      <trkpt lat="47.83071" lon="7.00172">
        <ele>1139.8</ele>
        <time>2026-08-27T11:58:24.420Z</time>
      </trkpt>
      <trkpt lat="47.83071" lon="7.00174">
        <ele>1139.8</ele>
        <time>2026-08-27T11:58:26.335Z</time>
      </trkpt>
      <trkpt lat="47.83071" lon="7.00174">
        <ele>1139.8</ele>
        <time>2026-08-27T11:58:27.352Z</time>
      </trkpt>
      <trkpt lat="47.83071" lon="7.00175">
        <ele>1140.5</ele>
        <time>2026-08-27T11:58:29.359Z</time>
      </trkpt>
      <trkpt lat="47.83071" lon="7.00175">
        <ele>1140.9</ele>
        <time>2026-08-27T11:58:30.368Z</time>
      </trkpt>
      <trkpt lat="47.83071" lon="7.00176">
        <ele>1140.7</ele>
        <time>2026-08-27T11:58:31.376Z</time>
      </trkpt>
      <trkpt lat="47.83071" lon="7.00176">
        <ele>1140.9</ele>
        <time>2026-08-27T11:58:32.384Z</time>
      </trkpt>
      <trkpt lat="47.83071" lon="7.00176">
        <ele>1140.9</ele>
        <time>2026-08-27T11:58:33.393Z</time>
      </trkpt>
      <trkpt lat="47.83071" lon="7.00177">
        <ele>1140.8</ele>
        <time>2026-08-27T11:58:34.400Z</time>
      </trkpt>
      <trkpt lat="47.8307" lon="7.00178">
        <ele>1141.2</ele>
        <time>2026-08-27T11:58:36.417Z</time>
      </trkpt>
      <trkpt lat="47.8307" lon="7.00179">
        <ele>1141.7</ele>
        <time>2026-08-27T11:58:38.332Z</time>
      </trkpt>
      <trkpt lat="47.8307" lon="7.0018">
        <ele>1141.5</ele>
        <time>2026-08-27T11:58:39.340Z</time>
      </trkpt>
      <trkpt lat="47.8307" lon="7.0018">
        <ele>1141.7</ele>
        <time>2026-08-27T11:58:40.348Z</time>
      </trkpt>
      <trkpt lat="47.8307" lon="7.00181">
        <ele>1141.7</ele>
        <time>2026-08-27T11:58:41.416Z</time>
      </trkpt>
      <trkpt lat="47.83069" lon="7.00183">
        <ele>1142</ele>
        <time>2026-08-27T11:58:43.372Z</time>
      </trkpt>
      <trkpt lat="47.83069" lon="7.00184">
        <ele>1142.1</ele>
        <time>2026-08-27T11:58:44.381Z</time>
      </trkpt>
      <trkpt lat="47.83068" lon="7.00186">
        <ele>1142.5</ele>
        <time>2026-08-27T11:58:46.396Z</time>
      </trkpt>
      <trkpt lat="47.83067" lon="7.00187">
        <ele>1143.1</ele>
        <time>2026-08-27T11:58:48.414Z</time>
      </trkpt>
      <trkpt lat="47.83066" lon="7.00188">
        <ele>1143.2</ele>
        <time>2026-08-27T11:58:50.328Z</time>
      </trkpt>
      <trkpt lat="47.83065" lon="7.00188">
        <ele>1143.3</ele>
        <time>2026-08-27T11:58:51.336Z</time>
      </trkpt>
      <trkpt lat="47.83064" lon="7.00189">
        <ele>1143.2</ele>
        <time>2026-08-27T11:58:52.345Z</time>
      </trkpt>
      <trkpt lat="47.83064" lon="7.00189">
        <ele>1143.4</ele>
        <time>2026-08-27T11:58:53.352Z</time>
      </trkpt>
      <trkpt lat="47.83063" lon="7.00189">
        <ele>1143.4</ele>
        <time>2026-08-27T11:58:54.361Z</time>
      </trkpt>
      <trkpt lat="47.83062" lon="7.00188">
        <ele>1143.5</ele>
        <time>2026-08-27T11:58:55.368Z</time>
      </trkpt>
      <trkpt lat="47.83062" lon="7.00187">
        <ele>1143.7</ele>
        <time>2026-08-27T11:58:56.378Z</time>
      </trkpt>
      <trkpt lat="47.83062" lon="7.00186">
        <ele>1143.9</ele>
        <time>2026-08-27T11:58:58.394Z</time>
      </trkpt>
      <trkpt lat="47.83062" lon="7.00186">
        <ele>1144.7</ele>
        <time>2026-08-27T11:59:00.392Z</time>
      </trkpt>
      <trkpt lat="47.83063" lon="7.00185">
        <ele>1144.6</ele>
        <time>2026-08-27T11:59:02.324Z</time>
      </trkpt>
      <trkpt lat="47.83063" lon="7.00184">
        <ele>1144.5</ele>
        <time>2026-08-27T11:59:03.333Z</time>
      </trkpt>
      <trkpt lat="47.83063" lon="7.00183">
        <ele>1144.4</ele>
        <time>2026-08-27T11:59:04.341Z</time>
      </trkpt>
      <trkpt lat="47.83064" lon="7.00183">
        <ele>1144.6</ele>
        <time>2026-08-27T11:59:05.349Z</time>
      </trkpt>
      <trkpt lat="47.83064" lon="7.00182">
        <ele>1144.6</ele>
        <time>2026-08-27T11:59:06.373Z</time>
      </trkpt>
      <trkpt lat="47.83064" lon="7.00181">
        <ele>1145</ele>
        <time>2026-08-27T11:59:08.373Z</time>
      </trkpt>
      <trkpt lat="47.83064" lon="7.0018">
        <ele>1145</ele>
        <time>2026-08-27T11:59:09.415Z</time>
      </trkpt>
      <trkpt lat="47.83065" lon="7.00179">
        <ele>1145</ele>
        <time>2026-08-27T11:59:11.296Z</time>
      </trkpt>
      <trkpt lat="47.83065" lon="7.00178">
        <ele>1145.2</ele>
        <time>2026-08-27T11:59:12.305Z</time>
      </trkpt>
      <trkpt lat="47.83065" lon="7.00178">
        <ele>1145.4</ele>
        <time>2026-08-27T11:59:13.355Z</time>
      </trkpt>
      <trkpt lat="47.83065" lon="7.00176">
        <ele>1145.6</ele>
        <time>2026-08-27T11:59:15.329Z</time>
      </trkpt>
      <trkpt lat="47.83065" lon="7.00176">
        <ele>1145.8</ele>
        <time>2026-08-27T11:59:16.337Z</time>
      </trkpt>
      <trkpt lat="47.83065" lon="7.00175">
        <ele>1145.8</ele>
        <time>2026-08-27T11:59:17.413Z</time>
      </trkpt>
      <trkpt lat="47.83065" lon="7.00174">
        <ele>1146.5</ele>
        <time>2026-08-27T11:59:19.361Z</time>
      </trkpt>
      <trkpt lat="47.83065" lon="7.00173">
        <ele>1146.3</ele>
        <time>2026-08-27T11:59:20.369Z</time>
      </trkpt>
      <trkpt lat="47.83066" lon="7.00171">
        <ele>1146.3</ele>
        <time>2026-08-27T11:59:22.285Z</time>
      </trkpt>
      <trkpt lat="47.83066" lon="7.0017">
        <ele>1146.2</ele>
        <time>2026-08-27T11:59:23.394Z</time>
      </trkpt>
      <trkpt lat="47.83066" lon="7.0017">
        <ele>1146.4</ele>
        <time>2026-08-27T11:59:24.402Z</time>
      </trkpt>
      <trkpt lat="47.83066" lon="7.00169">
        <ele>1146.5</ele>
        <time>2026-08-27T11:59:25.410Z</time>
      </trkpt>
      <trkpt lat="47.83066" lon="7.00168">
        <ele>1146.5</ele>
        <time>2026-08-27T11:59:27.325Z</time>
      </trkpt>
      <trkpt lat="47.83066" lon="7.00168">
        <ele>1146.5</ele>
        <time>2026-08-27T11:59:28.334Z</time>
      </trkpt>
      <trkpt lat="47.83066" lon="7.00168">
        <ele>1146.6</ele>
        <time>2026-08-27T11:59:29.341Z</time>
      </trkpt>
      <trkpt lat="47.83066" lon="7.00168">
        <ele>1146.6</ele>
        <time>2026-08-27T11:59:30.349Z</time>
      </trkpt>
      <trkpt lat="47.83067" lon="7.00167">
        <ele>1146.6</ele>
        <time>2026-08-27T11:59:32.265Z</time>
      </trkpt>
      <trkpt lat="47.83067" lon="7.00167">
        <ele>1146.4</ele>
        <time>2026-08-27T11:59:33.374Z</time>
      </trkpt>
      <trkpt lat="47.83067" lon="7.00166">
        <ele>1146.6</ele>
        <time>2026-08-27T11:59:35.307Z</time>
      </trkpt>
      <trkpt lat="47.83067" lon="7.00166">
        <ele>1147</ele>
        <time>2026-08-27T11:59:36.331Z</time>
      </trkpt>
      <trkpt lat="47.83067" lon="7.00166">
        <ele>1146.9</ele>
        <time>2026-08-27T11:59:37.339Z</time>
      </trkpt>
      <trkpt lat="47.83067" lon="7.00166">
        <ele>1146.9</ele>
        <time>2026-08-27T11:59:38.348Z</time>
      </trkpt>
      <trkpt lat="47.83066" lon="7.00166">
        <ele>1147.1</ele>
        <time>2026-08-27T11:59:40.262Z</time>
      </trkpt>
      <trkpt lat="47.83066" lon="7.00166">
        <ele>1147</ele>
        <time>2026-08-27T11:59:41.270Z</time>
      </trkpt>
      <trkpt lat="47.83066" lon="7.00166">
        <ele>1146.8</ele>
        <time>2026-08-27T11:59:42.279Z</time>
      </trkpt>
      <trkpt lat="47.83066" lon="7.00166">
        <ele>1146.8</ele>
        <time>2026-08-27T11:59:43.288Z</time>
      </trkpt>
      <trkpt lat="47.83066" lon="7.00166">
        <ele>1146.9</ele>
        <time>2026-08-27T11:59:44.295Z</time>
      </trkpt>
      <trkpt lat="47.83066" lon="7.00165">
        <ele>1147.1</ele>
        <time>2026-08-27T11:59:45.303Z</time>
      </trkpt>
      <trkpt lat="47.83066" lon="7.00165">
        <ele>1147.3</ele>
        <time>2026-08-27T11:59:46.311Z</time>
      </trkpt>
      <trkpt lat="47.83066" lon="7.00165">
        <ele>1147.4</ele>
        <time>2026-08-27T11:59:47.319Z</time>
      </trkpt>
      <trkpt lat="47.83066" lon="7.00165">
        <ele>1147.4</ele>
        <time>2026-08-27T11:59:48.328Z</time>
      </trkpt>
      <trkpt lat="47.83066" lon="7.00165">
        <ele>1147.2</ele>
        <time>2026-08-27T11:59:49.336Z</time>
      </trkpt>
      <trkpt lat="47.83066" lon="7.00165">
        <ele>1147.1</ele>
        <time>2026-08-27T11:59:50.344Z</time>
      </trkpt>
      <trkpt lat="47.83066" lon="7.00165">
        <ele>1146.9</ele>
        <time>2026-08-27T11:59:52.260Z</time>
      </trkpt>
      <trkpt lat="47.83066" lon="7.00165">
        <ele>1147</ele>
        <time>2026-08-27T11:59:53.267Z</time>
      </trkpt>
      <trkpt lat="47.83066" lon="7.00165">
        <ele>1147.1</ele>
        <time>2026-08-27T11:59:54.276Z</time>
      </trkpt>
      <trkpt lat="47.83066" lon="7.00165">
        <ele>1147.2</ele>
        <time>2026-08-27T11:59:55.284Z</time>
      </trkpt>
      <trkpt lat="47.83066" lon="7.00165">
        <ele>1147</ele>
        <time>2026-08-27T11:59:56.292Z</time>
      </trkpt>
      <trkpt lat="47.83066" lon="7.00165">
        <ele>1147.1</ele>
        <time>2026-08-27T11:59:57.301Z</time>
      </trkpt>
      <trkpt lat="47.83066" lon="7.00164">
        <ele>1147.1</ele>
        <time>2026-08-27T11:59:58.308Z</time>
      </trkpt>
      <trkpt lat="47.83066" lon="7.00164">
        <ele>1147</ele>
        <time>2026-08-27T12:00:00.324Z</time>
      </trkpt>
      <trkpt lat="47.83066" lon="7.00164">
        <ele>1147</ele>
        <time>2026-08-27T12:00:01.334Z</time>
      </trkpt>
      <trkpt lat="47.83065" lon="7.00164">
        <ele>1146.8</ele>
        <time>2026-08-27T12:00:02.341Z</time>
      </trkpt>
      <trkpt lat="47.83065" lon="7.00164">
        <ele>1147.1</ele>
        <time>2026-08-27T12:00:03.349Z</time>
      </trkpt>
      <trkpt lat="47.83065" lon="7.00165">
        <ele>1146.8</ele>
        <time>2026-08-27T12:00:04.357Z</time>
      </trkpt>
      <trkpt lat="47.83065" lon="7.00165">
        <ele>1147.1</ele>
        <time>2026-08-27T12:00:05.365Z</time>
      </trkpt>
      <trkpt lat="47.83065" lon="7.00165">
        <ele>1147</ele>
        <time>2026-08-27T12:00:06.374Z</time>
      </trkpt>
      <trkpt lat="47.83065" lon="7.00165">
        <ele>1147</ele>
        <time>2026-08-27T12:00:07.382Z</time>
      </trkpt>
      <trkpt lat="47.83065" lon="7.00165">
        <ele>1147</ele>
        <time>2026-08-27T12:00:08.433Z</time>
      </trkpt>
      <trkpt lat="47.83065" lon="7.00163">
        <ele>1146.9</ele>
        <time>2026-08-27T12:00:10.406Z</time>
      </trkpt>
      <trkpt lat="47.83065" lon="7.00161">
        <ele>1147</ele>
        <time>2026-08-27T12:00:11.415Z</time>
      </trkpt>
      <trkpt lat="47.83065" lon="7.0016">
        <ele>1146.8</ele>
        <time>2026-08-27T12:00:12.422Z</time>
      </trkpt>
      <trkpt lat="47.83065" lon="7.00159">
        <ele>1146.9</ele>
        <time>2026-08-27T12:00:13.431Z</time>
      </trkpt>
      <trkpt lat="47.83064" lon="7.00157">
        <ele>1147.5</ele>
        <time>2026-08-27T12:00:14.439Z</time>
      </trkpt>
      <trkpt lat="47.83064" lon="7.00155">
        <ele>1148.2</ele>
        <time>2026-08-27T12:00:16.354Z</time>
      </trkpt>
      <trkpt lat="47.83063" lon="7.00154">
        <ele>1148.2</ele>
        <time>2026-08-27T12:00:17.364Z</time>
      </trkpt>
      <trkpt lat="47.83062" lon="7.00153">
        <ele>1148.2</ele>
        <time>2026-08-27T12:00:19.379Z</time>
      </trkpt>
      <trkpt lat="47.83062" lon="7.00152">
        <ele>1148.2</ele>
        <time>2026-08-27T12:00:21.395Z</time>
      </trkpt>
      <trkpt lat="47.83061" lon="7.00152">
        <ele>1148.4</ele>
        <time>2026-08-27T12:00:22.404Z</time>
      </trkpt>
      <trkpt lat="47.83061" lon="7.00152">
        <ele>1148.3</ele>
        <time>2026-08-27T12:00:23.412Z</time>
      </trkpt>
      <trkpt lat="47.83061" lon="7.00151">
        <ele>1148.8</ele>
        <time>2026-08-27T12:00:24.421Z</time>
      </trkpt>
      <trkpt lat="47.8306" lon="7.00151">
        <ele>1148.9</ele>
        <time>2026-08-27T12:00:26.436Z</time>
      </trkpt>
      <trkpt lat="47.8306" lon="7.0015">
        <ele>1149.1</ele>
        <time>2026-08-27T12:00:28.351Z</time>
      </trkpt>
      <trkpt lat="47.83059" lon="7.0015">
        <ele>1149.3</ele>
        <time>2026-08-27T12:00:29.359Z</time>
      </trkpt>
      <trkpt lat="47.83059" lon="7.00149">
        <ele>1149.5</ele>
        <time>2026-08-27T12:00:30.368Z</time>
      </trkpt>
      <trkpt lat="47.83059" lon="7.00148">
        <ele>1149.4</ele>
        <time>2026-08-27T12:00:31.376Z</time>
      </trkpt>
      <trkpt lat="47.83058" lon="7.00147">
        <ele>1149.6</ele>
        <time>2026-08-27T12:00:32.384Z</time>
      </trkpt>
      <trkpt lat="47.83058" lon="7.00147">
        <ele>1149.9</ele>
        <time>2026-08-27T12:00:33.451Z</time>
      </trkpt>
      <trkpt lat="47.83058" lon="7.00146">
        <ele>1150.2</ele>
        <time>2026-08-27T12:00:35.408Z</time>
      </trkpt>
      <trkpt lat="47.83058" lon="7.00145">
        <ele>1150.5</ele>
        <time>2026-08-27T12:00:36.416Z</time>
      </trkpt>
      <trkpt lat="47.83057" lon="7.00144">
        <ele>1150.6</ele>
        <time>2026-08-27T12:00:38.332Z</time>
      </trkpt>
      <trkpt lat="47.83057" lon="7.00144">
        <ele>1151</ele>
        <time>2026-08-27T12:00:39.442Z</time>
      </trkpt>
      <trkpt lat="47.83057" lon="7.00144">
        <ele>1151.3</ele>
        <time>2026-08-27T12:00:40.449Z</time>
      </trkpt>
      <trkpt lat="47.83057" lon="7.00144">
        <ele>1151</ele>
        <time>2026-08-27T12:00:42.364Z</time>
      </trkpt>
      <trkpt lat="47.83057" lon="7.00144">
        <ele>1151.5</ele>
        <time>2026-08-27T12:00:43.372Z</time>
      </trkpt>
      <trkpt lat="47.83057" lon="7.00143">
        <ele>1151.8</ele>
        <time>2026-08-27T12:00:44.382Z</time>
      </trkpt>
      <trkpt lat="47.83058" lon="7.00143">
        <ele>1151.9</ele>
        <time>2026-08-27T12:00:45.390Z</time>
      </trkpt>
      <trkpt lat="47.83058" lon="7.00143">
        <ele>1151.7</ele>
        <time>2026-08-27T12:00:46.397Z</time>
      </trkpt>
      <trkpt lat="47.83058" lon="7.00143">
        <ele>1151.6</ele>
        <time>2026-08-27T12:00:47.406Z</time>
      </trkpt>
      <trkpt lat="47.83058" lon="7.00143">
        <ele>1151.5</ele>
        <time>2026-08-27T12:00:48.414Z</time>
      </trkpt>
      <trkpt lat="47.83058" lon="7.00143">
        <ele>1151.4</ele>
        <time>2026-08-27T12:00:49.421Z</time>
      </trkpt>
      <trkpt lat="47.83058" lon="7.00143">
        <ele>1151.2</ele>
        <time>2026-08-27T12:00:50.430Z</time>
      </trkpt>
      <trkpt lat="47.83058" lon="7.00143">
        <ele>1151.3</ele>
        <time>2026-08-27T12:00:51.437Z</time>
      </trkpt>
      <trkpt lat="47.83058" lon="7.00142">
        <ele>1151.2</ele>
        <time>2026-08-27T12:00:53.337Z</time>
      </trkpt>
      <trkpt lat="47.83058" lon="7.00141">
        <ele>1151.4</ele>
        <time>2026-08-27T12:00:54.361Z</time>
      </trkpt>
      <trkpt lat="47.83058" lon="7.0014">
        <ele>1151.4</ele>
        <time>2026-08-27T12:00:55.369Z</time>
      </trkpt>
      <trkpt lat="47.83058" lon="7.00139">
        <ele>1151.4</ele>
        <time>2026-08-27T12:00:56.378Z</time>
      </trkpt>
      <trkpt lat="47.83058" lon="7.00137">
        <ele>1151.4</ele>
        <time>2026-08-27T12:00:57.385Z</time>
      </trkpt>
      <trkpt lat="47.83058" lon="7.00136">
        <ele>1151.6</ele>
        <time>2026-08-27T12:00:58.394Z</time>
      </trkpt>
      <trkpt lat="47.83057" lon="7.00133">
        <ele>1151.6</ele>
        <time>2026-08-27T12:01:00.410Z</time>
      </trkpt>
      <trkpt lat="47.83057" lon="7.00131">
        <ele>1152.1</ele>
        <time>2026-08-27T12:01:01.419Z</time>
      </trkpt>
      <trkpt lat="47.83057" lon="7.0013">
        <ele>1151.9</ele>
        <time>2026-08-27T12:01:02.426Z</time>
      </trkpt>
      <trkpt lat="47.83057" lon="7.00128">
        <ele>1152.4</ele>
        <time>2026-08-27T12:01:03.434Z</time>
      </trkpt>
      <trkpt lat="47.83056" lon="7.00125">
        <ele>1152.7</ele>
        <time>2026-08-27T12:01:05.349Z</time>
      </trkpt>
      <trkpt lat="47.83056" lon="7.00124">
        <ele>1152.4</ele>
        <time>2026-08-27T12:01:06.357Z</time>
      </trkpt>
      <trkpt lat="47.83056" lon="7.00122">
        <ele>1152.6</ele>
        <time>2026-08-27T12:01:07.466Z</time>
      </trkpt>
      <trkpt lat="47.83056" lon="7.00121">
        <ele>1152.8</ele>
        <time>2026-08-27T12:01:09.382Z</time>
      </trkpt>
      <trkpt lat="47.83056" lon="7.0012">
        <ele>1152.7</ele>
        <time>2026-08-27T12:01:10.390Z</time>
      </trkpt>
      <trkpt lat="47.83056" lon="7.00119">
        <ele>1153.1</ele>
        <time>2026-08-27T12:01:11.399Z</time>
      </trkpt>
      <trkpt lat="47.83055" lon="7.00117">
        <ele>1153.7</ele>
        <time>2026-08-27T12:01:13.415Z</time>
      </trkpt>
      <trkpt lat="47.83055" lon="7.00116">
        <ele>1153.9</ele>
        <time>2026-08-27T12:01:14.422Z</time>
      </trkpt>
      <trkpt lat="47.83055" lon="7.00116">
        <ele>1153.9</ele>
        <time>2026-08-27T12:01:15.430Z</time>
      </trkpt>
      <trkpt lat="47.83054" lon="7.00115">
        <ele>1153.9</ele>
        <time>2026-08-27T12:01:16.438Z</time>
      </trkpt>
      <trkpt lat="47.83053" lon="7.00114">
        <ele>1153.8</ele>
        <time>2026-08-27T12:01:18.354Z</time>
      </trkpt>
      <trkpt lat="47.83053" lon="7.00114">
        <ele>1153.8</ele>
        <time>2026-08-27T12:01:19.362Z</time>
      </trkpt>
      <trkpt lat="47.83053" lon="7.00114">
        <ele>1154</ele>
        <time>2026-08-27T12:01:20.371Z</time>
      </trkpt>
      <trkpt lat="47.83052" lon="7.00114">
        <ele>1154.2</ele>
        <time>2026-08-27T12:01:21.378Z</time>
      </trkpt>
      <trkpt lat="47.83053" lon="7.00114">
        <ele>1154.4</ele>
        <time>2026-08-27T12:01:22.386Z</time>
      </trkpt>
      <trkpt lat="47.83053" lon="7.00114">
        <ele>1154.4</ele>
        <time>2026-08-27T12:01:23.394Z</time>
      </trkpt>
      <trkpt lat="47.83053" lon="7.00114">
        <ele>1154.4</ele>
        <time>2026-08-27T12:01:24.402Z</time>
      </trkpt>
      <trkpt lat="47.83053" lon="7.00114">
        <ele>1154.5</ele>
        <time>2026-08-27T12:01:25.410Z</time>
      </trkpt>
      <trkpt lat="47.83053" lon="7.00114">
        <ele>1154.5</ele>
        <time>2026-08-27T12:01:26.419Z</time>
      </trkpt>
      <trkpt lat="47.83053" lon="7.00114">
        <ele>1154.6</ele>
        <time>2026-08-27T12:01:27.426Z</time>
      </trkpt>
      <trkpt lat="47.83053" lon="7.00114">
        <ele>1154.4</ele>
        <time>2026-08-27T12:01:28.435Z</time>
      </trkpt>
      <trkpt lat="47.83053" lon="7.00114">
        <ele>1154.3</ele>
        <time>2026-08-27T12:01:30.351Z</time>
      </trkpt>
      <trkpt lat="47.83053" lon="7.00114">
        <ele>1154.3</ele>
        <time>2026-08-27T12:01:31.358Z</time>
      </trkpt>
      <trkpt lat="47.83053" lon="7.00114">
        <ele>1154.2</ele>
        <time>2026-08-27T12:01:32.366Z</time>
      </trkpt>
      <trkpt lat="47.83053" lon="7.00114">
        <ele>1154.6</ele>
        <time>2026-08-27T12:01:33.374Z</time>
      </trkpt>
      <trkpt lat="47.83053" lon="7.00113">
        <ele>1154.4</ele>
        <time>2026-08-27T12:01:34.382Z</time>
      </trkpt>
      <trkpt lat="47.83053" lon="7.00113">
        <ele>1154.5</ele>
        <time>2026-08-27T12:01:35.391Z</time>
      </trkpt>
      <trkpt lat="47.83053" lon="7.00114">
        <ele>1154.5</ele>
        <time>2026-08-27T12:01:36.398Z</time>
      </trkpt>
      <trkpt lat="47.83053" lon="7.00114">
        <ele>1154.5</ele>
        <time>2026-08-27T12:01:37.407Z</time>
      </trkpt>
      <trkpt lat="47.83053" lon="7.00114">
        <ele>1154.5</ele>
        <time>2026-08-27T12:01:38.415Z</time>
      </trkpt>
      <trkpt lat="47.83053" lon="7.00114">
        <ele>1154.3</ele>
        <time>2026-08-27T12:01:39.424Z</time>
      </trkpt>
      <trkpt lat="47.83053" lon="7.00114">
        <ele>1154.5</ele>
        <time>2026-08-27T12:01:40.431Z</time>
      </trkpt>
      <trkpt lat="47.83053" lon="7.00114">
        <ele>1154.8</ele>
        <time>2026-08-27T12:01:41.439Z</time>
      </trkpt>
      <trkpt lat="47.83053" lon="7.00114">
        <ele>1155.1</ele>
        <time>2026-08-27T12:01:43.355Z</time>
      </trkpt>
      <trkpt lat="47.83053" lon="7.00114">
        <ele>1154.9</ele>
        <time>2026-08-27T12:01:44.363Z</time>
      </trkpt>
      <trkpt lat="47.83053" lon="7.00114">
        <ele>1154.9</ele>
        <time>2026-08-27T12:01:45.370Z</time>
      </trkpt>
      <trkpt lat="47.83053" lon="7.00114">
        <ele>1154.8</ele>
        <time>2026-08-27T12:01:46.379Z</time>
      </trkpt>
      <trkpt lat="47.83053" lon="7.00114">
        <ele>1154.7</ele>
        <time>2026-08-27T12:01:47.387Z</time>
      </trkpt>
      <trkpt lat="47.83053" lon="7.00115">
        <ele>1154.3</ele>
        <time>2026-08-27T12:01:49.403Z</time>
      </trkpt>
      <trkpt lat="47.83053" lon="7.00115">
        <ele>1154.3</ele>
        <time>2026-08-27T12:01:50.436Z</time>
      </trkpt>
      <trkpt lat="47.83053" lon="7.00117">
        <ele>1154.6</ele>
        <time>2026-08-27T12:01:52.453Z</time>
      </trkpt>
      <trkpt lat="47.83052" lon="7.00119">
        <ele>1154.3</ele>
        <time>2026-08-27T12:01:53.830Z</time>
      </trkpt>
      <trkpt lat="47.83052" lon="7.0012">
        <ele>1154.6</ele>
        <time>2026-08-27T12:01:55.318Z</time>
      </trkpt>
      <trkpt lat="47.83052" lon="7.00121">
        <ele>1154.8</ele>
        <time>2026-08-27T12:01:56.359Z</time>
      </trkpt>
      <trkpt lat="47.83051" lon="7.00122">
        <ele>1154.9</ele>
        <time>2026-08-27T12:01:57.368Z</time>
      </trkpt>
      <trkpt lat="47.83051" lon="7.00123">
        <ele>1155</ele>
        <time>2026-08-27T12:01:58.375Z</time>
      </trkpt>
      <trkpt lat="47.8305" lon="7.00123">
        <ele>1155</ele>
        <time>2026-08-27T12:01:59.383Z</time>
      </trkpt>
      <trkpt lat="47.8305" lon="7.00124">
        <ele>1155</ele>
        <time>2026-08-27T12:02:00.391Z</time>
      </trkpt>
      <trkpt lat="47.83049" lon="7.00124">
        <ele>1155.2</ele>
        <time>2026-08-27T12:02:01.399Z</time>
      </trkpt>
      <trkpt lat="47.83049" lon="7.00125">
        <ele>1155.3</ele>
        <time>2026-08-27T12:02:02.407Z</time>
      </trkpt>
      <trkpt lat="47.83048" lon="7.00126">
        <ele>1155.8</ele>
        <time>2026-08-27T12:02:04.423Z</time>
      </trkpt>
      <trkpt lat="47.83047" lon="7.00127">
        <ele>1155.9</ele>
        <time>2026-08-27T12:02:05.431Z</time>
      </trkpt>
      <trkpt lat="47.83047" lon="7.00128">
        <ele>1156.1</ele>
        <time>2026-08-27T12:02:06.432Z</time>
      </trkpt>
      <trkpt lat="47.83046" lon="7.00129">
        <ele>1156.2</ele>
        <time>2026-08-27T12:02:08.355Z</time>
      </trkpt>
      <trkpt lat="47.83046" lon="7.0013">
        <ele>1156.6</ele>
        <time>2026-08-27T12:02:09.363Z</time>
      </trkpt>
      <trkpt lat="47.83044" lon="7.00131">
        <ele>1157.4</ele>
        <time>2026-08-27T12:02:11.380Z</time>
      </trkpt>
      <trkpt lat="47.83044" lon="7.00131">
        <ele>1157.4</ele>
        <time>2026-08-27T12:02:12.412Z</time>
      </trkpt>
      <trkpt lat="47.83043" lon="7.00132">
        <ele>1157.6</ele>
        <time>2026-08-27T12:02:14.404Z</time>
      </trkpt>
      <trkpt lat="47.83042" lon="7.00133">
        <ele>1157.6</ele>
        <time>2026-08-27T12:02:15.453Z</time>
      </trkpt>
      <trkpt lat="47.83041" lon="7.00133">
        <ele>1157.6</ele>
        <time>2026-08-27T12:02:17.427Z</time>
      </trkpt>
      <trkpt lat="47.8304" lon="7.00134">
        <ele>1157.8</ele>
        <time>2026-08-27T12:02:19.343Z</time>
      </trkpt>
      <trkpt lat="47.83039" lon="7.00134">
        <ele>1158.1</ele>
        <time>2026-08-27T12:02:20.352Z</time>
      </trkpt>
      <trkpt lat="47.83039" lon="7.00134">
        <ele>1158.1</ele>
        <time>2026-08-27T12:02:21.376Z</time>
      </trkpt>
      <trkpt lat="47.83037" lon="7.00135">
        <ele>1158.3</ele>
        <time>2026-08-27T12:02:23.376Z</time>
      </trkpt>
      <trkpt lat="47.83036" lon="7.00136">
        <ele>1158.4</ele>
        <time>2026-08-27T12:02:25.392Z</time>
      </trkpt>
      <trkpt lat="47.83036" lon="7.00137">
        <ele>1158.5</ele>
        <time>2026-08-27T12:02:26.399Z</time>
      </trkpt>
      <trkpt lat="47.83035" lon="7.00137">
        <ele>1158.5</ele>
        <time>2026-08-27T12:02:27.407Z</time>
      </trkpt>
      <trkpt lat="47.83035" lon="7.00137">
        <ele>1158.6</ele>
        <time>2026-08-27T12:02:28.416Z</time>
      </trkpt>
      <trkpt lat="47.83035" lon="7.00137">
        <ele>1158.7</ele>
        <time>2026-08-27T12:02:29.424Z</time>
      </trkpt>
      <trkpt lat="47.83035" lon="7.00137">
        <ele>1158.9</ele>
        <time>2026-08-27T12:02:30.432Z</time>
      </trkpt>
      <trkpt lat="47.83035" lon="7.00138">
        <ele>1159.1</ele>
        <time>2026-08-27T12:02:32.348Z</time>
      </trkpt>
      <trkpt lat="47.83035" lon="7.00139">
        <ele>1159.2</ele>
        <time>2026-08-27T12:02:33.355Z</time>
      </trkpt>
      <trkpt lat="47.83035" lon="7.00139">
        <ele>1159.2</ele>
        <time>2026-08-27T12:02:34.363Z</time>
      </trkpt>
      <trkpt lat="47.83035" lon="7.00139">
        <ele>1159.2</ele>
        <time>2026-08-27T12:02:35.372Z</time>
      </trkpt>
      <trkpt lat="47.83035" lon="7.00139">
        <ele>1159.2</ele>
        <time>2026-08-27T12:02:36.379Z</time>
      </trkpt>
      <trkpt lat="47.83035" lon="7.0014">
        <ele>1159.1</ele>
        <time>2026-08-27T12:02:37.387Z</time>
      </trkpt>
      <trkpt lat="47.83035" lon="7.0014">
        <ele>1159.1</ele>
        <time>2026-08-27T12:02:38.455Z</time>
      </trkpt>
      <trkpt lat="47.83034" lon="7.00142">
        <ele>1159.5</ele>
        <time>2026-08-27T12:02:40.354Z</time>
      </trkpt>
      <trkpt lat="47.83034" lon="7.00144">
        <ele>1159.8</ele>
        <time>2026-08-27T12:02:41.421Z</time>
      </trkpt>
      <trkpt lat="47.83033" lon="7.00145">
        <ele>1159.6</ele>
        <time>2026-08-27T12:02:42.428Z</time>
      </trkpt>
      <trkpt lat="47.83032" lon="7.00147">
        <ele>1159.7</ele>
        <time>2026-08-27T12:02:43.437Z</time>
      </trkpt>
      <trkpt lat="47.83032" lon="7.00148">
        <ele>1159.4</ele>
        <time>2026-08-27T12:02:44.445Z</time>
      </trkpt>
      <trkpt lat="47.83031" lon="7.0015">
        <ele>1159.2</ele>
        <time>2026-08-27T12:02:46.359Z</time>
      </trkpt>
      <trkpt lat="47.83031" lon="7.00151">
        <ele>1159.2</ele>
        <time>2026-08-27T12:02:47.367Z</time>
      </trkpt>
      <trkpt lat="47.83031" lon="7.00152">
        <ele>1159.3</ele>
        <time>2026-08-27T12:02:48.375Z</time>
      </trkpt>
      <trkpt lat="47.8303" lon="7.00152">
        <ele>1159.2</ele>
        <time>2026-08-27T12:02:49.384Z</time>
      </trkpt>
      <trkpt lat="47.8303" lon="7.00151">
        <ele>1159.2</ele>
        <time>2026-08-27T12:02:50.392Z</time>
      </trkpt>
      <trkpt lat="47.8303" lon="7.00151">
        <ele>1159</ele>
        <time>2026-08-27T12:02:51.400Z</time>
      </trkpt>
      <trkpt lat="47.8303" lon="7.00151">
        <ele>1158.8</ele>
        <time>2026-08-27T12:02:52.408Z</time>
      </trkpt>
      <trkpt lat="47.8303" lon="7.00151">
        <ele>1158.9</ele>
        <time>2026-08-27T12:02:53.417Z</time>
      </trkpt>
      <trkpt lat="47.8303" lon="7.00151">
        <ele>1159.2</ele>
        <time>2026-08-27T12:02:54.424Z</time>
      </trkpt>
      <trkpt lat="47.8303" lon="7.0015">
        <ele>1159.2</ele>
        <time>2026-08-27T12:02:55.433Z</time>
      </trkpt>
      <trkpt lat="47.8303" lon="7.0015">
        <ele>1159.1</ele>
        <time>2026-08-27T12:02:56.441Z</time>
      </trkpt>
      <trkpt lat="47.8303" lon="7.0015">
        <ele>1158.9</ele>
        <time>2026-08-27T12:02:58.431Z</time>
      </trkpt>
      <trkpt lat="47.8303" lon="7.00151">
        <ele>1159</ele>
        <time>2026-08-27T12:03:00.372Z</time>
      </trkpt>
      <trkpt lat="47.8303" lon="7.00151">
        <ele>1159</ele>
        <time>2026-08-27T12:03:01.381Z</time>
      </trkpt>
      <trkpt lat="47.8303" lon="7.00152">
        <ele>1159.1</ele>
        <time>2026-08-27T12:03:02.388Z</time>
      </trkpt>
      <trkpt lat="47.83029" lon="7.00154">
        <ele>1159.1</ele>
        <time>2026-08-27T12:03:03.396Z</time>
      </trkpt>
      <trkpt lat="47.83029" lon="7.00155">
        <ele>1159.2</ele>
        <time>2026-08-27T12:03:04.405Z</time>
      </trkpt>
      <trkpt lat="47.83028" lon="7.00157">
        <ele>1159.2</ele>
        <time>2026-08-27T12:03:05.412Z</time>
      </trkpt>
      <trkpt lat="47.83027" lon="7.00159">
        <ele>1159.1</ele>
        <time>2026-08-27T12:03:06.421Z</time>
      </trkpt>
      <trkpt lat="47.83027" lon="7.0016">
        <ele>1159.4</ele>
        <time>2026-08-27T12:03:07.429Z</time>
      </trkpt>
      <trkpt lat="47.83027" lon="7.00162">
        <ele>1159.9</ele>
        <time>2026-08-27T12:03:08.437Z</time>
      </trkpt>
      <trkpt lat="47.83026" lon="7.00165">
        <ele>1160.2</ele>
        <time>2026-08-27T12:03:10.351Z</time>
      </trkpt>
      <trkpt lat="47.83025" lon="7.00166">
        <ele>1160.4</ele>
        <time>2026-08-27T12:03:11.359Z</time>
      </trkpt>
      <trkpt lat="47.83025" lon="7.00167">
        <ele>1160.5</ele>
        <time>2026-08-27T12:03:12.368Z</time>
      </trkpt>
      <trkpt lat="47.83025" lon="7.00168">
        <ele>1160.5</ele>
        <time>2026-08-27T12:03:13.418Z</time>
      </trkpt>
      <trkpt lat="47.83024" lon="7.0017">
        <ele>1160.2</ele>
        <time>2026-08-27T12:03:15.393Z</time>
      </trkpt>
      <trkpt lat="47.83024" lon="7.00171">
        <ele>1160.2</ele>
        <time>2026-08-27T12:03:16.400Z</time>
      </trkpt>
      <trkpt lat="47.83024" lon="7.00172">
        <ele>1160.4</ele>
        <time>2026-08-27T12:03:17.408Z</time>
      </trkpt>
      <trkpt lat="47.83025" lon="7.00172">
        <ele>1160.4</ele>
        <time>2026-08-27T12:03:18.417Z</time>
      </trkpt>
      <trkpt lat="47.83025" lon="7.00173">
        <ele>1160.4</ele>
        <time>2026-08-27T12:03:19.424Z</time>
      </trkpt>
      <trkpt lat="47.83025" lon="7.00174">
        <ele>1160.2</ele>
        <time>2026-08-27T12:03:20.432Z</time>
      </trkpt>
      <trkpt lat="47.83025" lon="7.00175">
        <ele>1160.1</ele>
        <time>2026-08-27T12:03:22.347Z</time>
      </trkpt>
      <trkpt lat="47.83025" lon="7.00175">
        <ele>1160.3</ele>
        <time>2026-08-27T12:03:23.355Z</time>
      </trkpt>
      <trkpt lat="47.83025" lon="7.00176">
        <ele>1160.3</ele>
        <time>2026-08-27T12:03:24.364Z</time>
      </trkpt>
      <trkpt lat="47.83025" lon="7.00176">
        <ele>1160.1</ele>
        <time>2026-08-27T12:03:25.372Z</time>
      </trkpt>
      <trkpt lat="47.83025" lon="7.00175">
        <ele>1159.9</ele>
        <time>2026-08-27T12:03:27.388Z</time>
      </trkpt>
      <trkpt lat="47.83025" lon="7.00175">
        <ele>1159.8</ele>
        <time>2026-08-27T12:03:28.396Z</time>
      </trkpt>
      <trkpt lat="47.83025" lon="7.00175">
        <ele>1160</ele>
        <time>2026-08-27T12:03:29.405Z</time>
      </trkpt>
      <trkpt lat="47.83025" lon="7.00175">
        <ele>1160</ele>
        <time>2026-08-27T12:03:30.412Z</time>
      </trkpt>
      <trkpt lat="47.83025" lon="7.00175">
        <ele>1160.1</ele>
        <time>2026-08-27T12:03:31.420Z</time>
      </trkpt>
      <trkpt lat="47.83025" lon="7.00175">
        <ele>1160.1</ele>
        <time>2026-08-27T12:03:32.428Z</time>
      </trkpt>
      <trkpt lat="47.83025" lon="7.00175">
        <ele>1160.1</ele>
        <time>2026-08-27T12:03:33.437Z</time>
      </trkpt>
      <trkpt lat="47.83026" lon="7.00175">
        <ele>1159.9</ele>
        <time>2026-08-27T12:03:35.352Z</time>
      </trkpt>
      <trkpt lat="47.83026" lon="7.00175">
        <ele>1160.2</ele>
        <time>2026-08-27T12:03:36.360Z</time>
      </trkpt>
      <trkpt lat="47.83026" lon="7.00175">
        <ele>1160.4</ele>
        <time>2026-08-27T12:03:37.369Z</time>
      </trkpt>
      <trkpt lat="47.83025" lon="7.00175">
        <ele>1160.5</ele>
        <time>2026-08-27T12:03:38.377Z</time>
      </trkpt>
      <trkpt lat="47.83025" lon="7.00175">
        <ele>1160.5</ele>
        <time>2026-08-27T12:03:39.385Z</time>
      </trkpt>
      <trkpt lat="47.83025" lon="7.00175">
        <ele>1160.5</ele>
        <time>2026-08-27T12:03:40.392Z</time>
      </trkpt>
      <trkpt lat="47.83026" lon="7.00175">
        <ele>1160.6</ele>
        <time>2026-08-27T12:03:41.400Z</time>
      </trkpt>
      <trkpt lat="47.83026" lon="7.00174">
        <ele>1160.4</ele>
        <time>2026-08-27T12:03:42.408Z</time>
      </trkpt>
      <trkpt lat="47.83026" lon="7.00175">
        <ele>1160.4</ele>
        <time>2026-08-27T12:03:43.416Z</time>
      </trkpt>
      <trkpt lat="47.83026" lon="7.00175">
        <ele>1160.1</ele>
        <time>2026-08-27T12:03:44.425Z</time>
      </trkpt>
      <trkpt lat="47.83025" lon="7.00175">
        <ele>1160</ele>
        <time>2026-08-27T12:03:45.432Z</time>
      </trkpt>
      <trkpt lat="47.83026" lon="7.00175">
        <ele>1160.1</ele>
        <time>2026-08-27T12:03:47.448Z</time>
      </trkpt>
      <trkpt lat="47.83026" lon="7.00175">
        <ele>1159.7</ele>
        <time>2026-08-27T12:03:49.364Z</time>
      </trkpt>
      <trkpt lat="47.83026" lon="7.00175">
        <ele>1159.7</ele>
        <time>2026-08-27T12:03:50.373Z</time>
      </trkpt>
      <trkpt lat="47.83026" lon="7.00175">
        <ele>1159.7</ele>
        <time>2026-08-27T12:03:51.381Z</time>
      </trkpt>
      <trkpt lat="47.83026" lon="7.00175">
        <ele>1159.8</ele>
        <time>2026-08-27T12:03:52.389Z</time>
      </trkpt>
      <trkpt lat="47.83026" lon="7.00175">
        <ele>1160</ele>
        <time>2026-08-27T12:03:53.396Z</time>
      </trkpt>
      <trkpt lat="47.83026" lon="7.00175">
        <ele>1159.9</ele>
        <time>2026-08-27T12:03:54.404Z</time>
      </trkpt>
      <trkpt lat="47.83026" lon="7.00175">
        <ele>1159.9</ele>
        <time>2026-08-27T12:03:55.412Z</time>
      </trkpt>
      <trkpt lat="47.83026" lon="7.00175">
        <ele>1159.9</ele>
        <time>2026-08-27T12:03:57.328Z</time>
      </trkpt>
      <trkpt lat="47.83026" lon="7.00175">
        <ele>1159.9</ele>
        <time>2026-08-27T12:03:58.436Z</time>
      </trkpt>
      <trkpt lat="47.83026" lon="7.00175">
        <ele>1160</ele>
        <time>2026-08-27T12:04:00.353Z</time>
      </trkpt>
      <trkpt lat="47.83026" lon="7.00175">
        <ele>1160.2</ele>
        <time>2026-08-27T12:04:01.361Z</time>
      </trkpt>
      <trkpt lat="47.83026" lon="7.00175">
        <ele>1160.1</ele>
        <time>2026-08-27T12:04:02.369Z</time>
      </trkpt>
      <trkpt lat="47.83026" lon="7.00175">
        <ele>1159.9</ele>
        <time>2026-08-27T12:04:03.376Z</time>
      </trkpt>
      <trkpt lat="47.83026" lon="7.00175">
        <ele>1159.8</ele>
        <time>2026-08-27T12:04:04.384Z</time>
      </trkpt>
      <trkpt lat="47.83026" lon="7.00175">
        <ele>1160.3</ele>
        <time>2026-08-27T12:04:05.392Z</time>
      </trkpt>
      <trkpt lat="47.83026" lon="7.00175">
        <ele>1160.2</ele>
        <time>2026-08-27T12:04:06.401Z</time>
      </trkpt>
      <trkpt lat="47.83026" lon="7.00175">
        <ele>1160.3</ele>
        <time>2026-08-27T12:04:07.408Z</time>
      </trkpt>
      <trkpt lat="47.83026" lon="7.00175">
        <ele>1160.4</ele>
        <time>2026-08-27T12:04:08.417Z</time>
      </trkpt>
      <trkpt lat="47.83026" lon="7.00175">
        <ele>1160.2</ele>
        <time>2026-08-27T12:04:09.425Z</time>
      </trkpt>
      <trkpt lat="47.83026" lon="7.00175">
        <ele>1160.1</ele>
        <time>2026-08-27T12:04:11.340Z</time>
      </trkpt>
      <trkpt lat="47.83026" lon="7.00175">
        <ele>1160.1</ele>
        <time>2026-08-27T12:04:12.349Z</time>
      </trkpt>
      <trkpt lat="47.83026" lon="7.00175">
        <ele>1160.1</ele>
        <time>2026-08-27T12:04:13.356Z</time>
      </trkpt>
      <trkpt lat="47.83026" lon="7.00175">
        <ele>1160.1</ele>
        <time>2026-08-27T12:04:14.365Z</time>
      </trkpt>
      <trkpt lat="47.83026" lon="7.00175">
        <ele>1160.1</ele>
        <time>2026-08-27T12:04:15.372Z</time>
      </trkpt>
      <trkpt lat="47.83026" lon="7.00175">
        <ele>1160</ele>
        <time>2026-08-27T12:04:16.380Z</time>
      </trkpt>
      <trkpt lat="47.83025" lon="7.00175">
        <ele>1160</ele>
        <time>2026-08-27T12:04:17.388Z</time>
      </trkpt>
      <trkpt lat="47.83025" lon="7.00175">
        <ele>1159.9</ele>
        <time>2026-08-27T12:04:18.397Z</time>
      </trkpt>
      <trkpt lat="47.83024" lon="7.00177">
        <ele>1160.1</ele>
        <time>2026-08-27T12:04:20.412Z</time>
      </trkpt>
      <trkpt lat="47.83023" lon="7.00177">
        <ele>1160.2</ele>
        <time>2026-08-27T12:04:21.420Z</time>
      </trkpt>
      <trkpt lat="47.83022" lon="7.00179">
        <ele>1160.7</ele>
        <time>2026-08-27T12:04:23.437Z</time>
      </trkpt>
      <trkpt lat="47.83021" lon="7.00181">
        <ele>1160.8</ele>
        <time>2026-08-27T12:04:25.352Z</time>
      </trkpt>
      <trkpt lat="47.83021" lon="7.00182">
        <ele>1160.9</ele>
        <time>2026-08-27T12:04:26.361Z</time>
      </trkpt>
      <trkpt lat="47.8302" lon="7.00184">
        <ele>1161.1</ele>
        <time>2026-08-27T12:04:28.377Z</time>
      </trkpt>
      <trkpt lat="47.83019" lon="7.00186">
        <ele>1161.2</ele>
        <time>2026-08-27T12:04:29.384Z</time>
      </trkpt>
      <trkpt lat="47.83019" lon="7.00187">
        <ele>1161.3</ele>
        <time>2026-08-27T12:04:30.393Z</time>
      </trkpt>
      <trkpt lat="47.83018" lon="7.00188">
        <ele>1161.3</ele>
        <time>2026-08-27T12:04:31.400Z</time>
      </trkpt>
      <trkpt lat="47.83018" lon="7.00189">
        <ele>1161.5</ele>
        <time>2026-08-27T12:04:32.409Z</time>
      </trkpt>
      <trkpt lat="47.83017" lon="7.0019">
        <ele>1161.5</ele>
        <time>2026-08-27T12:04:33.416Z</time>
      </trkpt>
      <trkpt lat="47.83017" lon="7.00191">
        <ele>1161.8</ele>
        <time>2026-08-27T12:04:34.424Z</time>
      </trkpt>
      <trkpt lat="47.83016" lon="7.00192">
        <ele>1162</ele>
        <time>2026-08-27T12:04:35.432Z</time>
      </trkpt>
      <trkpt lat="47.83016" lon="7.00193">
        <ele>1161.9</ele>
        <time>2026-08-27T12:04:36.440Z</time>
      </trkpt>
      <trkpt lat="47.83015" lon="7.00195">
        <ele>1162.5</ele>
        <time>2026-08-27T12:04:38.356Z</time>
      </trkpt>
      <trkpt lat="47.83014" lon="7.00196">
        <ele>1162.2</ele>
        <time>2026-08-27T12:04:39.364Z</time>
      </trkpt>
      <trkpt lat="47.83014" lon="7.00197">
        <ele>1162.2</ele>
        <time>2026-08-27T12:04:40.373Z</time>
      </trkpt>
      <trkpt lat="47.83013" lon="7.00199">
        <ele>1162.3</ele>
        <time>2026-08-27T12:04:41.380Z</time>
      </trkpt>
      <trkpt lat="47.83012" lon="7.00201">
        <ele>1162.5</ele>
        <time>2026-08-27T12:04:43.396Z</time>
      </trkpt>
      <trkpt lat="47.83011" lon="7.00201">
        <ele>1162.5</ele>
        <time>2026-08-27T12:04:44.404Z</time>
      </trkpt>
      <trkpt lat="47.8301" lon="7.00202">
        <ele>1162.4</ele>
        <time>2026-08-27T12:04:46.320Z</time>
      </trkpt>
      <trkpt lat="47.83009" lon="7.00203">
        <ele>1162.3</ele>
        <time>2026-08-27T12:04:47.438Z</time>
      </trkpt>
      <trkpt lat="47.83008" lon="7.00203">
        <ele>1162.2</ele>
        <time>2026-08-27T12:04:49.345Z</time>
      </trkpt>
      <trkpt lat="47.83007" lon="7.00203">
        <ele>1162.6</ele>
        <time>2026-08-27T12:04:50.352Z</time>
      </trkpt>
      <trkpt lat="47.83007" lon="7.00203">
        <ele>1162.8</ele>
        <time>2026-08-27T12:04:51.361Z</time>
      </trkpt>
      <trkpt lat="47.83008" lon="7.00203">
        <ele>1162.9</ele>
        <time>2026-08-27T12:04:52.368Z</time>
      </trkpt>
      <trkpt lat="47.83008" lon="7.00203">
        <ele>1163.2</ele>
        <time>2026-08-27T12:04:53.377Z</time>
      </trkpt>
      <trkpt lat="47.83008" lon="7.00203">
        <ele>1163.1</ele>
        <time>2026-08-27T12:04:54.384Z</time>
      </trkpt>
      <trkpt lat="47.83008" lon="7.00203">
        <ele>1163</ele>
        <time>2026-08-27T12:04:55.392Z</time>
      </trkpt>
      <trkpt lat="47.83008" lon="7.00204">
        <ele>1163.2</ele>
        <time>2026-08-27T12:04:56.400Z</time>
      </trkpt>
      <trkpt lat="47.83008" lon="7.00204">
        <ele>1163.1</ele>
        <time>2026-08-27T12:04:57.408Z</time>
      </trkpt>
      <trkpt lat="47.83008" lon="7.00204">
        <ele>1163</ele>
        <time>2026-08-27T12:04:58.416Z</time>
      </trkpt>
      <trkpt lat="47.83008" lon="7.00204">
        <ele>1163.1</ele>
        <time>2026-08-27T12:04:59.424Z</time>
      </trkpt>
      <trkpt lat="47.83006" lon="7.00206">
        <ele>1163.2</ele>
        <time>2026-08-27T12:05:01.340Z</time>
      </trkpt>
      <trkpt lat="47.83006" lon="7.00207">
        <ele>1163.2</ele>
        <time>2026-08-27T12:05:02.348Z</time>
      </trkpt>
      <trkpt lat="47.83005" lon="7.00208">
        <ele>1163.3</ele>
        <time>2026-08-27T12:05:03.356Z</time>
      </trkpt>
      <trkpt lat="47.83005" lon="7.00208">
        <ele>1163.5</ele>
        <time>2026-08-27T12:05:04.364Z</time>
      </trkpt>
      <trkpt lat="47.83005" lon="7.00208">
        <ele>1163.5</ele>
        <time>2026-08-27T12:05:05.372Z</time>
      </trkpt>
      <trkpt lat="47.83005" lon="7.00208">
        <ele>1164</ele>
        <time>2026-08-27T12:05:06.380Z</time>
      </trkpt>
      <trkpt lat="47.83005" lon="7.00208">
        <ele>1163.8</ele>
        <time>2026-08-27T12:05:07.388Z</time>
      </trkpt>
      <trkpt lat="47.83005" lon="7.00208">
        <ele>1163.6</ele>
        <time>2026-08-27T12:05:08.397Z</time>
      </trkpt>
      <trkpt lat="47.83005" lon="7.00208">
        <ele>1163.4</ele>
        <time>2026-08-27T12:05:09.404Z</time>
      </trkpt>
      <trkpt lat="47.83005" lon="7.00208">
        <ele>1163.7</ele>
        <time>2026-08-27T12:05:11.320Z</time>
      </trkpt>
      <trkpt lat="47.83005" lon="7.00208">
        <ele>1163.7</ele>
        <time>2026-08-27T12:05:12.328Z</time>
      </trkpt>
      <trkpt lat="47.83005" lon="7.00208">
        <ele>1163.8</ele>
        <time>2026-08-27T12:05:13.337Z</time>
      </trkpt>
      <trkpt lat="47.83005" lon="7.00208">
        <ele>1163.7</ele>
        <time>2026-08-27T12:05:14.344Z</time>
      </trkpt>
      <trkpt lat="47.83005" lon="7.00208">
        <ele>1163.5</ele>
        <time>2026-08-27T12:05:15.352Z</time>
      </trkpt>
      <trkpt lat="47.83005" lon="7.00208">
        <ele>1163.4</ele>
        <time>2026-08-27T12:05:16.420Z</time>
      </trkpt>
      <trkpt lat="47.83004" lon="7.00211">
        <ele>1163</ele>
        <time>2026-08-27T12:05:18.376Z</time>
      </trkpt>
      <trkpt lat="47.83003" lon="7.00212">
        <ele>1163.3</ele>
        <time>2026-08-27T12:05:19.384Z</time>
      </trkpt>
      <trkpt lat="47.83001" lon="7.00213">
        <ele>1163.3</ele>
        <time>2026-08-27T12:05:20.393Z</time>
      </trkpt>
      <trkpt lat="47.83" lon="7.00214">
        <ele>1163.2</ele>
        <time>2026-08-27T12:05:21.401Z</time>
      </trkpt>
      <trkpt lat="47.82999" lon="7.00217">
        <ele>1163.1</ele>
        <time>2026-08-27T12:05:23.342Z</time>
      </trkpt>
      <trkpt lat="47.82998" lon="7.0022">
        <ele>1163</ele>
        <time>2026-08-27T12:05:25.332Z</time>
      </trkpt>
      <trkpt lat="47.82997" lon="7.00222">
        <ele>1162.8</ele>
        <time>2026-08-27T12:05:27.349Z</time>
      </trkpt>
      <trkpt lat="47.82996" lon="7.00223">
        <ele>1162.7</ele>
        <time>2026-08-27T12:05:28.357Z</time>
      </trkpt>
      <trkpt lat="47.82995" lon="7.00225">
        <ele>1162.3</ele>
        <time>2026-08-27T12:05:30.373Z</time>
      </trkpt>
      <trkpt lat="47.82994" lon="7.00226">
        <ele>1162</ele>
        <time>2026-08-27T12:05:31.382Z</time>
      </trkpt>
      <trkpt lat="47.82993" lon="7.00228">
        <ele>1162.2</ele>
        <time>2026-08-27T12:05:33.297Z</time>
      </trkpt>
      <trkpt lat="47.82991" lon="7.0023">
        <ele>1162.4</ele>
        <time>2026-08-27T12:05:35.313Z</time>
      </trkpt>
      <trkpt lat="47.82991" lon="7.00231">
        <ele>1162</ele>
        <time>2026-08-27T12:05:36.321Z</time>
      </trkpt>
      <trkpt lat="47.8299" lon="7.00232">
        <ele>1161.7</ele>
        <time>2026-08-27T12:05:37.330Z</time>
      </trkpt>
      <trkpt lat="47.82989" lon="7.00233">
        <ele>1161.6</ele>
        <time>2026-08-27T12:05:38.337Z</time>
      </trkpt>
      <trkpt lat="47.82989" lon="7.00234">
        <ele>1161.7</ele>
        <time>2026-08-27T12:05:39.350Z</time>
      </trkpt>
      <trkpt lat="47.82988" lon="7.00235">
        <ele>1161.8</ele>
        <time>2026-08-27T12:05:40.363Z</time>
      </trkpt>
      <trkpt lat="47.82987" lon="7.00236">
        <ele>1161.6</ele>
        <time>2026-08-27T12:05:41.370Z</time>
      </trkpt>
      <trkpt lat="47.82986" lon="7.00237">
        <ele>1161.6</ele>
        <time>2026-08-27T12:05:42.378Z</time>
      </trkpt>
      <trkpt lat="47.82986" lon="7.00238">
        <ele>1161.3</ele>
        <time>2026-08-27T12:05:43.386Z</time>
      </trkpt>
      <trkpt lat="47.82985" lon="7.00241">
        <ele>1161.2</ele>
        <time>2026-08-27T12:05:45.303Z</time>
      </trkpt>
      <trkpt lat="47.82985" lon="7.00243">
        <ele>1161.3</ele>
        <time>2026-08-27T12:05:46.310Z</time>
      </trkpt>
      <trkpt lat="47.82985" lon="7.00244">
        <ele>1160.9</ele>
        <time>2026-08-27T12:05:47.318Z</time>
      </trkpt>
      <trkpt lat="47.82984" lon="7.00244">
        <ele>1161.2</ele>
        <time>2026-08-27T12:05:48.326Z</time>
      </trkpt>
      <trkpt lat="47.82984" lon="7.00245">
        <ele>1161.3</ele>
        <time>2026-08-27T12:05:49.334Z</time>
      </trkpt>
      <trkpt lat="47.82985" lon="7.00247">
        <ele>1161.3</ele>
        <time>2026-08-27T12:05:50.343Z</time>
      </trkpt>
      <trkpt lat="47.82985" lon="7.00247">
        <ele>1161.5</ele>
        <time>2026-08-27T12:05:51.351Z</time>
      </trkpt>
      <trkpt lat="47.82984" lon="7.00245">
        <ele>1161.6</ele>
        <time>2026-08-27T12:05:52.358Z</time>
      </trkpt>
      <trkpt lat="47.82984" lon="7.00244">
        <ele>1161.5</ele>
        <time>2026-08-27T12:05:53.366Z</time>
      </trkpt>
      <trkpt lat="47.82985" lon="7.00244">
        <ele>1161.5</ele>
        <time>2026-08-27T12:05:54.374Z</time>
      </trkpt>
      <trkpt lat="47.82985" lon="7.00244">
        <ele>1161.3</ele>
        <time>2026-08-27T12:05:56.290Z</time>
      </trkpt>
      <trkpt lat="47.82985" lon="7.00244">
        <ele>1161.4</ele>
        <time>2026-08-27T12:05:57.298Z</time>
      </trkpt>
      <trkpt lat="47.82985" lon="7.00244">
        <ele>1161.5</ele>
        <time>2026-08-27T12:05:58.306Z</time>
      </trkpt>
      <trkpt lat="47.82984" lon="7.00243">
        <ele>1161.6</ele>
        <time>2026-08-27T12:05:59.314Z</time>
      </trkpt>
      <trkpt lat="47.82984" lon="7.00243">
        <ele>1161.5</ele>
        <time>2026-08-27T12:06:00.323Z</time>
      </trkpt>
      <trkpt lat="47.82983" lon="7.00244">
        <ele>1161.5</ele>
        <time>2026-08-27T12:06:01.356Z</time>
      </trkpt>
      <trkpt lat="47.82981" lon="7.00248">
        <ele>1161.7</ele>
        <time>2026-08-27T12:06:03.346Z</time>
      </trkpt>
      <trkpt lat="47.8298" lon="7.0025">
        <ele>1162.2</ele>
        <time>2026-08-27T12:06:04.356Z</time>
      </trkpt>
      <trkpt lat="47.82979" lon="7.00253">
        <ele>1161.5</ele>
        <time>2026-08-27T12:06:06.372Z</time>
      </trkpt>
      <trkpt lat="47.82979" lon="7.00254">
        <ele>1161.3</ele>
        <time>2026-08-27T12:06:07.380Z</time>
      </trkpt>
      <trkpt lat="47.82978" lon="7.00256">
        <ele>1161.5</ele>
        <time>2026-08-27T12:06:08.387Z</time>
      </trkpt>
      <trkpt lat="47.82977" lon="7.00258">
        <ele>1161.7</ele>
        <time>2026-08-27T12:06:10.395Z</time>
      </trkpt>
      <trkpt lat="47.82976" lon="7.0026">
        <ele>1161.6</ele>
        <time>2026-08-27T12:06:12.319Z</time>
      </trkpt>
      <trkpt lat="47.82975" lon="7.00261">
        <ele>1161.4</ele>
        <time>2026-08-27T12:06:13.326Z</time>
      </trkpt>
      <trkpt lat="47.82975" lon="7.00262">
        <ele>1161.4</ele>
        <time>2026-08-27T12:06:14.336Z</time>
      </trkpt>
      <trkpt lat="47.82974" lon="7.00264">
        <ele>1161.4</ele>
        <time>2026-08-27T12:06:15.343Z</time>
      </trkpt>
      <trkpt lat="47.82974" lon="7.00265">
        <ele>1161.8</ele>
        <time>2026-08-27T12:06:16.352Z</time>
      </trkpt>
      <trkpt lat="47.82973" lon="7.00268">
        <ele>1161.8</ele>
        <time>2026-08-27T12:06:18.368Z</time>
      </trkpt>
      <trkpt lat="47.82973" lon="7.00269">
        <ele>1162</ele>
        <time>2026-08-27T12:06:19.376Z</time>
      </trkpt>
      <trkpt lat="47.82972" lon="7.0027">
        <ele>1161.6</ele>
        <time>2026-08-27T12:06:20.383Z</time>
      </trkpt>
      <trkpt lat="47.82971" lon="7.00273">
        <ele>1161.6</ele>
        <time>2026-08-27T12:06:22.298Z</time>
      </trkpt>
      <trkpt lat="47.82971" lon="7.00274">
        <ele>1161.6</ele>
        <time>2026-08-27T12:06:23.332Z</time>
      </trkpt>
      <trkpt lat="47.82971" lon="7.00277">
        <ele>1161.6</ele>
        <time>2026-08-27T12:06:25.356Z</time>
      </trkpt>
      <trkpt lat="47.8297" lon="7.0028">
        <ele>1161.6</ele>
        <time>2026-08-27T12:06:27.330Z</time>
      </trkpt>
      <trkpt lat="47.8297" lon="7.00281">
        <ele>1161.7</ele>
        <time>2026-08-27T12:06:28.347Z</time>
      </trkpt>
      <trkpt lat="47.82969" lon="7.00282">
        <ele>1161.8</ele>
        <time>2026-08-27T12:06:29.356Z</time>
      </trkpt>
      <trkpt lat="47.82968" lon="7.00283">
        <ele>1162.1</ele>
        <time>2026-08-27T12:06:30.363Z</time>
      </trkpt>
      <trkpt lat="47.82968" lon="7.00285">
        <ele>1162.1</ele>
        <time>2026-08-27T12:06:31.396Z</time>
      </trkpt>
      <trkpt lat="47.82967" lon="7.00287">
        <ele>1162.5</ele>
        <time>2026-08-27T12:06:33.370Z</time>
      </trkpt>
      <trkpt lat="47.82966" lon="7.00289">
        <ele>1161.8</ele>
        <time>2026-08-27T12:06:35.303Z</time>
      </trkpt>
      <trkpt lat="47.82966" lon="7.0029">
        <ele>1162.1</ele>
        <time>2026-08-27T12:06:36.312Z</time>
      </trkpt>
      <trkpt lat="47.82965" lon="7.00291">
        <ele>1161.9</ele>
        <time>2026-08-27T12:06:37.319Z</time>
      </trkpt>
      <trkpt lat="47.82964" lon="7.00293">
        <ele>1161.8</ele>
        <time>2026-08-27T12:06:39.335Z</time>
      </trkpt>
      <trkpt lat="47.82964" lon="7.00295">
        <ele>1161.8</ele>
        <time>2026-08-27T12:06:40.343Z</time>
      </trkpt>
      <trkpt lat="47.82964" lon="7.00297">
        <ele>1161.8</ele>
        <time>2026-08-27T12:06:41.394Z</time>
      </trkpt>
      <trkpt lat="47.82963" lon="7.00299">
        <ele>1161.8</ele>
        <time>2026-08-27T12:06:43.367Z</time>
      </trkpt>
      <trkpt lat="47.82963" lon="7.00301">
        <ele>1162.1</ele>
        <time>2026-08-27T12:06:45.383Z</time>
      </trkpt>
      <trkpt lat="47.82963" lon="7.00304">
        <ele>1162.1</ele>
        <time>2026-08-27T12:06:47.299Z</time>
      </trkpt>
      <trkpt lat="47.82962" lon="7.00306">
        <ele>1162.5</ele>
        <time>2026-08-27T12:06:48.307Z</time>
      </trkpt>
      <trkpt lat="47.82962" lon="7.00307">
        <ele>1162.1</ele>
        <time>2026-08-27T12:06:49.316Z</time>
      </trkpt>
      <trkpt lat="47.82962" lon="7.00308">
        <ele>1162.1</ele>
        <time>2026-08-27T12:06:50.323Z</time>
      </trkpt>
      <trkpt lat="47.82961" lon="7.00309">
        <ele>1162</ele>
        <time>2026-08-27T12:06:51.332Z</time>
      </trkpt>
      <trkpt lat="47.82961" lon="7.00311">
        <ele>1162.3</ele>
        <time>2026-08-27T12:06:52.339Z</time>
      </trkpt>
      <trkpt lat="47.82961" lon="7.00314">
        <ele>1162</ele>
        <time>2026-08-27T12:06:54.355Z</time>
      </trkpt>
      <trkpt lat="47.8296" lon="7.00315">
        <ele>1162.1</ele>
        <time>2026-08-27T12:06:55.364Z</time>
      </trkpt>
      <trkpt lat="47.8296" lon="7.00317">
        <ele>1162.2</ele>
        <time>2026-08-27T12:06:57.379Z</time>
      </trkpt>
      <trkpt lat="47.82959" lon="7.00318">
        <ele>1162.4</ele>
        <time>2026-08-27T12:06:58.388Z</time>
      </trkpt>
      <trkpt lat="47.82958" lon="7.0032">
        <ele>1162.6</ele>
        <time>2026-08-27T12:07:00.304Z</time>
      </trkpt>
      <trkpt lat="47.82957" lon="7.00322">
        <ele>1162.6</ele>
        <time>2026-08-27T12:07:01.311Z</time>
      </trkpt>
      <trkpt lat="47.82957" lon="7.00325">
        <ele>1162.7</ele>
        <time>2026-08-27T12:07:03.327Z</time>
      </trkpt>
      <trkpt lat="47.82956" lon="7.00326">
        <ele>1162.7</ele>
        <time>2026-08-27T12:07:04.377Z</time>
      </trkpt>
      <trkpt lat="47.82956" lon="7.00329">
        <ele>1162.9</ele>
        <time>2026-08-27T12:07:06.393Z</time>
      </trkpt>
      <trkpt lat="47.82955" lon="7.00331">
        <ele>1162.9</ele>
        <time>2026-08-27T12:07:08.267Z</time>
      </trkpt>
      <trkpt lat="47.82955" lon="7.00332">
        <ele>1163</ele>
        <time>2026-08-27T12:07:09.375Z</time>
      </trkpt>
      <trkpt lat="47.82954" lon="7.00333">
        <ele>1162.9</ele>
        <time>2026-08-27T12:07:10.383Z</time>
      </trkpt>
      <trkpt lat="47.82954" lon="7.00335">
        <ele>1162.9</ele>
        <time>2026-08-27T12:07:12.300Z</time>
      </trkpt>
      <trkpt lat="47.82953" lon="7.00337">
        <ele>1162.9</ele>
        <time>2026-08-27T12:07:13.308Z</time>
      </trkpt>
      <trkpt lat="47.82953" lon="7.00338">
        <ele>1163.1</ele>
        <time>2026-08-27T12:07:14.316Z</time>
      </trkpt>
      <trkpt lat="47.82953" lon="7.00339">
        <ele>1163</ele>
        <time>2026-08-27T12:07:15.323Z</time>
      </trkpt>
      <trkpt lat="47.82952" lon="7.00341">
        <ele>1163.4</ele>
        <time>2026-08-27T12:07:16.332Z</time>
      </trkpt>
      <trkpt lat="47.82952" lon="7.00342">
        <ele>1163.9</ele>
        <time>2026-08-27T12:07:17.340Z</time>
      </trkpt>
      <trkpt lat="47.82952" lon="7.00344">
        <ele>1163.6</ele>
        <time>2026-08-27T12:07:19.355Z</time>
      </trkpt>
      <trkpt lat="47.82951" lon="7.00345">
        <ele>1163.6</ele>
        <time>2026-08-27T12:07:20.398Z</time>
      </trkpt>
      <trkpt lat="47.82951" lon="7.00347">
        <ele>1163.6</ele>
        <time>2026-08-27T12:07:22.380Z</time>
      </trkpt>
      <trkpt lat="47.8295" lon="7.0035">
        <ele>1163.6</ele>
        <time>2026-08-27T12:07:24.295Z</time>
      </trkpt>
      <trkpt lat="47.8295" lon="7.00351">
        <ele>1163.8</ele>
        <time>2026-08-27T12:07:25.303Z</time>
      </trkpt>
      <trkpt lat="47.82949" lon="7.00352">
        <ele>1163.9</ele>
        <time>2026-08-27T12:07:26.311Z</time>
      </trkpt>
      <trkpt lat="47.82949" lon="7.00353">
        <ele>1164.1</ele>
        <time>2026-08-27T12:07:27.319Z</time>
      </trkpt>
      <trkpt lat="47.82949" lon="7.00354">
        <ele>1164.2</ele>
        <time>2026-08-27T12:07:28.327Z</time>
      </trkpt>
      <trkpt lat="47.82949" lon="7.00356">
        <ele>1164.3</ele>
        <time>2026-08-27T12:07:29.335Z</time>
      </trkpt>
      <trkpt lat="47.82948" lon="7.00357">
        <ele>1164.4</ele>
        <time>2026-08-27T12:07:30.343Z</time>
      </trkpt>
      <trkpt lat="47.82948" lon="7.00358">
        <ele>1164.8</ele>
        <time>2026-08-27T12:07:31.352Z</time>
      </trkpt>
      <trkpt lat="47.82948" lon="7.00359">
        <ele>1164.6</ele>
        <time>2026-08-27T12:07:32.359Z</time>
      </trkpt>
      <trkpt lat="47.82947" lon="7.00362">
        <ele>1164.8</ele>
        <time>2026-08-27T12:07:34.375Z</time>
      </trkpt>
      <trkpt lat="47.82947" lon="7.00363">
        <ele>1164.8</ele>
        <time>2026-08-27T12:07:35.383Z</time>
      </trkpt>
      <trkpt lat="47.82947" lon="7.00364">
        <ele>1164.8</ele>
        <time>2026-08-27T12:07:36.391Z</time>
      </trkpt>
      <trkpt lat="47.82946" lon="7.00367">
        <ele>1164.9</ele>
        <time>2026-08-27T12:07:38.273Z</time>
      </trkpt>
      <trkpt lat="47.82946" lon="7.00368">
        <ele>1164.8</ele>
        <time>2026-08-27T12:07:39.315Z</time>
      </trkpt>
      <trkpt lat="47.82946" lon="7.00369">
        <ele>1164.8</ele>
        <time>2026-08-27T12:07:40.315Z</time>
      </trkpt>
      <trkpt lat="47.82945" lon="7.0037">
        <ele>1164.9</ele>
        <time>2026-08-27T12:07:41.331Z</time>
      </trkpt>
      <trkpt lat="47.82945" lon="7.00372">
        <ele>1164.9</ele>
        <time>2026-08-27T12:07:42.339Z</time>
      </trkpt>
      <trkpt lat="47.82945" lon="7.00373">
        <ele>1165.2</ele>
        <time>2026-08-27T12:07:43.347Z</time>
      </trkpt>
      <trkpt lat="47.82944" lon="7.00374">
        <ele>1165.3</ele>
        <time>2026-08-27T12:07:44.355Z</time>
      </trkpt>
      <trkpt lat="47.82944" lon="7.00376">
        <ele>1165.7</ele>
        <time>2026-08-27T12:07:46.371Z</time>
      </trkpt>
      <trkpt lat="47.82944" lon="7.00377">
        <ele>1166</ele>
        <time>2026-08-27T12:07:47.379Z</time>
      </trkpt>
      <trkpt lat="47.82944" lon="7.00378">
        <ele>1165.6</ele>
        <time>2026-08-27T12:07:49.295Z</time>
      </trkpt>
      <trkpt lat="47.82944" lon="7.00378">
        <ele>1165.7</ele>
        <time>2026-08-27T12:07:50.304Z</time>
      </trkpt>
      <trkpt lat="47.82943" lon="7.0038">
        <ele>1165.6</ele>
        <time>2026-08-27T12:07:52.319Z</time>
      </trkpt>
      <trkpt lat="47.82943" lon="7.00381">
        <ele>1165.7</ele>
        <time>2026-08-27T12:07:53.327Z</time>
      </trkpt>
      <trkpt lat="47.82942" lon="7.00382">
        <ele>1165.8</ele>
        <time>2026-08-27T12:07:54.335Z</time>
      </trkpt>
      <trkpt lat="47.82942" lon="7.00383">
        <ele>1166</ele>
        <time>2026-08-27T12:07:55.343Z</time>
      </trkpt>
      <trkpt lat="47.82941" lon="7.00384">
        <ele>1166.1</ele>
        <time>2026-08-27T12:07:56.351Z</time>
      </trkpt>
      <trkpt lat="47.82941" lon="7.00385">
        <ele>1166.6</ele>
        <time>2026-08-27T12:07:57.359Z</time>
      </trkpt>
      <trkpt lat="47.82941" lon="7.00386">
        <ele>1166.7</ele>
        <time>2026-08-27T12:07:58.367Z</time>
      </trkpt>
      <trkpt lat="47.8294" lon="7.00388">
        <ele>1166.6</ele>
        <time>2026-08-27T12:08:00.275Z</time>
      </trkpt>
      <trkpt lat="47.8294" lon="7.00389">
        <ele>1166.7</ele>
        <time>2026-08-27T12:08:01.290Z</time>
      </trkpt>
      <trkpt lat="47.8294" lon="7.0039">
        <ele>1166.8</ele>
        <time>2026-08-27T12:08:02.298Z</time>
      </trkpt>
      <trkpt lat="47.82939" lon="7.00393">
        <ele>1167</ele>
        <time>2026-08-27T12:08:04.316Z</time>
      </trkpt>
      <trkpt lat="47.82939" lon="7.00394">
        <ele>1167.2</ele>
        <time>2026-08-27T12:08:05.323Z</time>
      </trkpt>
      <trkpt lat="47.82939" lon="7.00395">
        <ele>1167.3</ele>
        <time>2026-08-27T12:08:06.331Z</time>
      </trkpt>
      <trkpt lat="47.82939" lon="7.00397">
        <ele>1167.3</ele>
        <time>2026-08-27T12:08:08.347Z</time>
      </trkpt>
      <trkpt lat="47.82939" lon="7.00398">
        <ele>1167.4</ele>
        <time>2026-08-27T12:08:09.355Z</time>
      </trkpt>
      <trkpt lat="47.82939" lon="7.00399">
        <ele>1167.6</ele>
        <time>2026-08-27T12:08:10.363Z</time>
      </trkpt>
      <trkpt lat="47.82938" lon="7.004">
        <ele>1167.6</ele>
        <time>2026-08-27T12:08:11.371Z</time>
      </trkpt>
      <trkpt lat="47.82939" lon="7.00401">
        <ele>1168</ele>
        <time>2026-08-27T12:08:12.380Z</time>
      </trkpt>
      <trkpt lat="47.82939" lon="7.00401">
        <ele>1168</ele>
        <time>2026-08-27T12:08:13.387Z</time>
      </trkpt>
      <trkpt lat="47.82939" lon="7.00401">
        <ele>1168.1</ele>
        <time>2026-08-27T12:08:14.395Z</time>
      </trkpt>
      <trkpt lat="47.82939" lon="7.004">
        <ele>1168.5</ele>
        <time>2026-08-27T12:08:16.310Z</time>
      </trkpt>
      <trkpt lat="47.82938" lon="7.004">
        <ele>1168.4</ele>
        <time>2026-08-27T12:08:17.320Z</time>
      </trkpt>
      <trkpt lat="47.82938" lon="7.004">
        <ele>1168.1</ele>
        <time>2026-08-27T12:08:18.327Z</time>
      </trkpt>
      <trkpt lat="47.82938" lon="7.00399">
        <ele>1168.1</ele>
        <time>2026-08-27T12:08:19.335Z</time>
      </trkpt>
      <trkpt lat="47.82938" lon="7.00399">
        <ele>1167.9</ele>
        <time>2026-08-27T12:08:20.344Z</time>
      </trkpt>
      <trkpt lat="47.82938" lon="7.00399">
        <ele>1167.9</ele>
        <time>2026-08-27T12:08:21.351Z</time>
      </trkpt>
      <trkpt lat="47.82938" lon="7.00399">
        <ele>1167.9</ele>
        <time>2026-08-27T12:08:22.360Z</time>
      </trkpt>
      <trkpt lat="47.82938" lon="7.00399">
        <ele>1167.9</ele>
        <time>2026-08-27T12:08:23.368Z</time>
      </trkpt>
      <trkpt lat="47.82938" lon="7.00399">
        <ele>1168</ele>
        <time>2026-08-27T12:08:24.376Z</time>
      </trkpt>
      <trkpt lat="47.82938" lon="7.00399">
        <ele>1168</ele>
        <time>2026-08-27T12:08:25.383Z</time>
      </trkpt>
      <trkpt lat="47.82938" lon="7.00399">
        <ele>1168.2</ele>
        <time>2026-08-27T12:08:26.391Z</time>
      </trkpt>
      <trkpt lat="47.82938" lon="7.00399">
        <ele>1168.1</ele>
        <time>2026-08-27T12:08:28.307Z</time>
      </trkpt>
      <trkpt lat="47.82938" lon="7.00399">
        <ele>1168.2</ele>
        <time>2026-08-27T12:08:29.314Z</time>
      </trkpt>
      <trkpt lat="47.82938" lon="7.00399">
        <ele>1167.9</ele>
        <time>2026-08-27T12:08:30.322Z</time>
      </trkpt>
      <trkpt lat="47.82938" lon="7.00399">
        <ele>1167.8</ele>
        <time>2026-08-27T12:08:31.331Z</time>
      </trkpt>
      <trkpt lat="47.82938" lon="7.00399">
        <ele>1167.9</ele>
        <time>2026-08-27T12:08:32.340Z</time>
      </trkpt>
      <trkpt lat="47.82938" lon="7.00399">
        <ele>1168</ele>
        <time>2026-08-27T12:08:33.347Z</time>
      </trkpt>
      <trkpt lat="47.82938" lon="7.004">
        <ele>1168</ele>
        <time>2026-08-27T12:08:34.355Z</time>
      </trkpt>
      <trkpt lat="47.82938" lon="7.004">
        <ele>1168.1</ele>
        <time>2026-08-27T12:08:35.363Z</time>
      </trkpt>
      <trkpt lat="47.82938" lon="7.004">
        <ele>1168</ele>
        <time>2026-08-27T12:08:36.372Z</time>
      </trkpt>
      <trkpt lat="47.82937" lon="7.004">
        <ele>1167.8</ele>
        <time>2026-08-27T12:08:37.379Z</time>
      </trkpt>
      <trkpt lat="47.82937" lon="7.004">
        <ele>1167.8</ele>
        <time>2026-08-27T12:08:38.387Z</time>
      </trkpt>
      <trkpt lat="47.82937" lon="7.004">
        <ele>1167.8</ele>
        <time>2026-08-27T12:08:40.302Z</time>
      </trkpt>
      <trkpt lat="47.82937" lon="7.00401">
        <ele>1168</ele>
        <time>2026-08-27T12:08:41.310Z</time>
      </trkpt>
      <trkpt lat="47.82937" lon="7.00403">
        <ele>1168</ele>
        <time>2026-08-27T12:08:42.319Z</time>
      </trkpt>
      <trkpt lat="47.82936" lon="7.00405">
        <ele>1168</ele>
        <time>2026-08-27T12:08:43.327Z</time>
      </trkpt>
      <trkpt lat="47.82936" lon="7.00407">
        <ele>1168.4</ele>
        <time>2026-08-27T12:08:44.335Z</time>
      </trkpt>
      <trkpt lat="47.82935" lon="7.00408">
        <ele>1168.6</ele>
        <time>2026-08-27T12:08:45.342Z</time>
      </trkpt>
      <trkpt lat="47.82935" lon="7.00409">
        <ele>1168.7</ele>
        <time>2026-08-27T12:08:46.350Z</time>
      </trkpt>
      <trkpt lat="47.82935" lon="7.00411">
        <ele>1168.7</ele>
        <time>2026-08-27T12:08:47.359Z</time>
      </trkpt>
      <trkpt lat="47.82935" lon="7.00412">
        <ele>1168.6</ele>
        <time>2026-08-27T12:08:48.367Z</time>
      </trkpt>
      <trkpt lat="47.82934" lon="7.00413">
        <ele>1168.7</ele>
        <time>2026-08-27T12:08:49.375Z</time>
      </trkpt>
      <trkpt lat="47.82934" lon="7.00415">
        <ele>1168.8</ele>
        <time>2026-08-27T12:08:51.231Z</time>
      </trkpt>
      <trkpt lat="47.82934" lon="7.00416">
        <ele>1169.1</ele>
        <time>2026-08-27T12:08:52.298Z</time>
      </trkpt>
      <trkpt lat="47.82934" lon="7.00418">
        <ele>1169.1</ele>
        <time>2026-08-27T12:08:53.373Z</time>
      </trkpt>
      <trkpt lat="47.82934" lon="7.0042">
        <ele>1169.6</ele>
        <time>2026-08-27T12:08:55.322Z</time>
      </trkpt>
      <trkpt lat="47.82934" lon="7.00421">
        <ele>1169.7</ele>
        <time>2026-08-27T12:08:56.331Z</time>
      </trkpt>
      <trkpt lat="47.82934" lon="7.00422">
        <ele>1169.7</ele>
        <time>2026-08-27T12:08:57.338Z</time>
      </trkpt>
      <trkpt lat="47.82934" lon="7.00423">
        <ele>1169.9</ele>
        <time>2026-08-27T12:08:58.347Z</time>
      </trkpt>
      <trkpt lat="47.82933" lon="7.00424">
        <ele>1169.7</ele>
        <time>2026-08-27T12:08:59.354Z</time>
      </trkpt>
      <trkpt lat="47.82933" lon="7.00425">
        <ele>1169.6</ele>
        <time>2026-08-27T12:09:00.362Z</time>
      </trkpt>
      <trkpt lat="47.82933" lon="7.00426">
        <ele>1169.8</ele>
        <time>2026-08-27T12:09:01.370Z</time>
      </trkpt>
      <trkpt lat="47.82932" lon="7.00427">
        <ele>1170.1</ele>
        <time>2026-08-27T12:09:02.380Z</time>
      </trkpt>
      <trkpt lat="47.82932" lon="7.00428">
        <ele>1170.2</ele>
        <time>2026-08-27T12:09:03.388Z</time>
      </trkpt>
      <trkpt lat="47.82932" lon="7.00429">
        <ele>1170.4</ele>
        <time>2026-08-27T12:09:04.396Z</time>
      </trkpt>
      <trkpt lat="47.82932" lon="7.00432">
        <ele>1170.4</ele>
        <time>2026-08-27T12:09:06.310Z</time>
      </trkpt>
      <trkpt lat="47.82931" lon="7.00433">
        <ele>1170.5</ele>
        <time>2026-08-27T12:09:07.318Z</time>
      </trkpt>
      <trkpt lat="47.82931" lon="7.00434">
        <ele>1170.5</ele>
        <time>2026-08-27T12:09:08.326Z</time>
      </trkpt>
      <trkpt lat="47.82931" lon="7.00435">
        <ele>1170.6</ele>
        <time>2026-08-27T12:09:09.334Z</time>
      </trkpt>
      <trkpt lat="47.8293" lon="7.00436">
        <ele>1170.8</ele>
        <time>2026-08-27T12:09:10.342Z</time>
      </trkpt>
      <trkpt lat="47.8293" lon="7.00437">
        <ele>1170.9</ele>
        <time>2026-08-27T12:09:11.351Z</time>
      </trkpt>
      <trkpt lat="47.8293" lon="7.00439">
        <ele>1171</ele>
        <time>2026-08-27T12:09:13.366Z</time>
      </trkpt>
      <trkpt lat="47.82929" lon="7.0044">
        <ele>1171.5</ele>
        <time>2026-08-27T12:09:14.374Z</time>
      </trkpt>
      <trkpt lat="47.82929" lon="7.00441">
        <ele>1171.5</ele>
        <time>2026-08-27T12:09:15.382Z</time>
      </trkpt>
      <trkpt lat="47.82929" lon="7.00443">
        <ele>1171.6</ele>
        <time>2026-08-27T12:09:17.299Z</time>
      </trkpt>
      <trkpt lat="47.82928" lon="7.00444">
        <ele>1171.6</ele>
        <time>2026-08-27T12:09:18.373Z</time>
      </trkpt>
      <trkpt lat="47.82928" lon="7.00446">
        <ele>1171.9</ele>
        <time>2026-08-27T12:09:20.322Z</time>
      </trkpt>
      <trkpt lat="47.82928" lon="7.00447">
        <ele>1171.8</ele>
        <time>2026-08-27T12:09:21.330Z</time>
      </trkpt>
      <trkpt lat="47.82928" lon="7.00449">
        <ele>1172</ele>
        <time>2026-08-27T12:09:22.338Z</time>
      </trkpt>
      <trkpt lat="47.82927" lon="7.0045">
        <ele>1172.4</ele>
        <time>2026-08-27T12:09:23.346Z</time>
      </trkpt>
      <trkpt lat="47.82927" lon="7.00452">
        <ele>1172.1</ele>
        <time>2026-08-27T12:09:25.363Z</time>
      </trkpt>
      <trkpt lat="47.82927" lon="7.00453">
        <ele>1172.5</ele>
        <time>2026-08-27T12:09:26.370Z</time>
      </trkpt>
      <trkpt lat="47.82926" lon="7.00454">
        <ele>1172.5</ele>
        <time>2026-08-27T12:09:27.370Z</time>
      </trkpt>
      <trkpt lat="47.82926" lon="7.00455">
        <ele>1172.4</ele>
        <time>2026-08-27T12:09:29.294Z</time>
      </trkpt>
      <trkpt lat="47.82926" lon="7.00456">
        <ele>1172.7</ele>
        <time>2026-08-27T12:09:30.302Z</time>
      </trkpt>
      <trkpt lat="47.82926" lon="7.00457">
        <ele>1172.7</ele>
        <time>2026-08-27T12:09:31.310Z</time>
      </trkpt>
      <trkpt lat="47.82925" lon="7.00458">
        <ele>1173.1</ele>
        <time>2026-08-27T12:09:32.318Z</time>
      </trkpt>
      <trkpt lat="47.82925" lon="7.0046">
        <ele>1173.3</ele>
        <time>2026-08-27T12:09:33.326Z</time>
      </trkpt>
      <trkpt lat="47.82925" lon="7.00462">
        <ele>1173.3</ele>
        <time>2026-08-27T12:09:35.342Z</time>
      </trkpt>
      <trkpt lat="47.82925" lon="7.00463">
        <ele>1173.4</ele>
        <time>2026-08-27T12:09:36.350Z</time>
      </trkpt>
      <trkpt lat="47.82924" lon="7.00463">
        <ele>1173.5</ele>
        <time>2026-08-27T12:09:37.358Z</time>
      </trkpt>
      <trkpt lat="47.82924" lon="7.00464">
        <ele>1173.6</ele>
        <time>2026-08-27T12:09:38.367Z</time>
      </trkpt>
      <trkpt lat="47.82924" lon="7.00465">
        <ele>1173.9</ele>
        <time>2026-08-27T12:09:39.374Z</time>
      </trkpt>
      <trkpt lat="47.82924" lon="7.00466">
        <ele>1174</ele>
        <time>2026-08-27T12:09:40.382Z</time>
      </trkpt>
      <trkpt lat="47.82924" lon="7.00468">
        <ele>1174.2</ele>
        <time>2026-08-27T12:09:42.298Z</time>
      </trkpt>
      <trkpt lat="47.82923" lon="7.00469">
        <ele>1174.4</ele>
        <time>2026-08-27T12:09:43.306Z</time>
      </trkpt>
      <trkpt lat="47.82923" lon="7.0047">
        <ele>1174.6</ele>
        <time>2026-08-27T12:09:44.314Z</time>
      </trkpt>
      <trkpt lat="47.82923" lon="7.00471">
        <ele>1174.7</ele>
        <time>2026-08-27T12:09:45.322Z</time>
      </trkpt>
      <trkpt lat="47.82922" lon="7.00471">
        <ele>1174.8</ele>
        <time>2026-08-27T12:09:46.330Z</time>
      </trkpt>
      <trkpt lat="47.82921" lon="7.00473">
        <ele>1175</ele>
        <time>2026-08-27T12:09:48.347Z</time>
      </trkpt>
      <trkpt lat="47.82921" lon="7.00474">
        <ele>1175.1</ele>
        <time>2026-08-27T12:09:49.354Z</time>
      </trkpt>
      <trkpt lat="47.8292" lon="7.00474">
        <ele>1175.1</ele>
        <time>2026-08-27T12:09:50.354Z</time>
      </trkpt>
      <trkpt lat="47.8292" lon="7.00475">
        <ele>1175.3</ele>
        <time>2026-08-27T12:09:51.370Z</time>
      </trkpt>
      <trkpt lat="47.82919" lon="7.00476">
        <ele>1175.4</ele>
        <time>2026-08-27T12:09:52.378Z</time>
      </trkpt>
      <trkpt lat="47.82918" lon="7.00476">
        <ele>1175.7</ele>
        <time>2026-08-27T12:09:53.387Z</time>
      </trkpt>
      <trkpt lat="47.82917" lon="7.00477">
        <ele>1175.7</ele>
        <time>2026-08-27T12:09:55.302Z</time>
      </trkpt>
      <trkpt lat="47.82916" lon="7.00478">
        <ele>1175.8</ele>
        <time>2026-08-27T12:09:56.310Z</time>
      </trkpt>
      <trkpt lat="47.82916" lon="7.0048">
        <ele>1175.9</ele>
        <time>2026-08-27T12:09:58.325Z</time>
      </trkpt>
      <trkpt lat="47.82915" lon="7.00481">
        <ele>1176.1</ele>
        <time>2026-08-27T12:09:59.334Z</time>
      </trkpt>
      <trkpt lat="47.82915" lon="7.00482">
        <ele>1176.2</ele>
        <time>2026-08-27T12:10:00.393Z</time>
      </trkpt>
      <trkpt lat="47.82914" lon="7.00484">
        <ele>1176.5</ele>
        <time>2026-08-27T12:10:02.358Z</time>
      </trkpt>
      <trkpt lat="47.82913" lon="7.00485">
        <ele>1176.3</ele>
        <time>2026-08-27T12:10:03.366Z</time>
      </trkpt>
      <trkpt lat="47.82912" lon="7.00486">
        <ele>1176.3</ele>
        <time>2026-08-27T12:10:04.374Z</time>
      </trkpt>
      <trkpt lat="47.82912" lon="7.00487">
        <ele>1176.4</ele>
        <time>2026-08-27T12:10:05.383Z</time>
      </trkpt>
      <trkpt lat="47.82911" lon="7.00488">
        <ele>1176.4</ele>
        <time>2026-08-27T12:10:06.391Z</time>
      </trkpt>
      <trkpt lat="47.8291" lon="7.00489">
        <ele>1176.4</ele>
        <time>2026-08-27T12:10:08.297Z</time>
      </trkpt>
      <trkpt lat="47.82909" lon="7.0049">
        <ele>1176.7</ele>
        <time>2026-08-27T12:10:09.313Z</time>
      </trkpt>
      <trkpt lat="47.82907" lon="7.00492">
        <ele>1176.6</ele>
        <time>2026-08-27T12:10:11.329Z</time>
      </trkpt>
      <trkpt lat="47.82906" lon="7.00493">
        <ele>1176.7</ele>
        <time>2026-08-27T12:10:12.337Z</time>
      </trkpt>
      <trkpt lat="47.82906" lon="7.00494">
        <ele>1176.7</ele>
        <time>2026-08-27T12:10:13.346Z</time>
      </trkpt>
      <trkpt lat="47.82907" lon="7.00496">
        <ele>1176.9</ele>
        <time>2026-08-27T12:10:14.353Z</time>
      </trkpt>
      <trkpt lat="47.82907" lon="7.00496">
        <ele>1176.8</ele>
        <time>2026-08-27T12:10:15.361Z</time>
      </trkpt>
      <trkpt lat="47.82907" lon="7.00496">
        <ele>1176.8</ele>
        <time>2026-08-27T12:10:16.370Z</time>
      </trkpt>
      <trkpt lat="47.82907" lon="7.00497">
        <ele>1176.9</ele>
        <time>2026-08-27T12:10:17.378Z</time>
      </trkpt>
      <trkpt lat="47.82906" lon="7.00495">
        <ele>1177</ele>
        <time>2026-08-27T12:10:19.294Z</time>
      </trkpt>
      <trkpt lat="47.82905" lon="7.00496">
        <ele>1176.9</ele>
        <time>2026-08-27T12:10:20.302Z</time>
      </trkpt>
      <trkpt lat="47.82904" lon="7.00497">
        <ele>1176.9</ele>
        <time>2026-08-27T12:10:21.310Z</time>
      </trkpt>
      <trkpt lat="47.82903" lon="7.00499">
        <ele>1176.9</ele>
        <time>2026-08-27T12:10:22.317Z</time>
      </trkpt>
      <trkpt lat="47.82902" lon="7.00501">
        <ele>1176.7</ele>
        <time>2026-08-27T12:10:24.333Z</time>
      </trkpt>
      <trkpt lat="47.82901" lon="7.00501">
        <ele>1176.6</ele>
        <time>2026-08-27T12:10:25.341Z</time>
      </trkpt>
      <trkpt lat="47.82899" lon="7.005">
        <ele>1176.6</ele>
        <time>2026-08-27T12:10:27.287Z</time>
      </trkpt>
      <trkpt lat="47.82898" lon="7.00501">
        <ele>1176.8</ele>
        <time>2026-08-27T12:10:28.294Z</time>
      </trkpt>
      <trkpt lat="47.82897" lon="7.00503">
        <ele>1176.9</ele>
        <time>2026-08-27T12:10:29.302Z</time>
      </trkpt>
      <trkpt lat="47.82896" lon="7.00504">
        <ele>1177</ele>
        <time>2026-08-27T12:10:30.310Z</time>
      </trkpt>
      <trkpt lat="47.82896" lon="7.00504">
        <ele>1177.1</ele>
        <time>2026-08-27T12:10:31.318Z</time>
      </trkpt>
      <trkpt lat="47.82895" lon="7.00504">
        <ele>1177</ele>
        <time>2026-08-27T12:10:32.326Z</time>
      </trkpt>
      <trkpt lat="47.82896" lon="7.00504">
        <ele>1176.9</ele>
        <time>2026-08-27T12:10:33.335Z</time>
      </trkpt>
      <trkpt lat="47.82896" lon="7.00503">
        <ele>1176.9</ele>
        <time>2026-08-27T12:10:34.343Z</time>
      </trkpt>
      <trkpt lat="47.82897" lon="7.00503">
        <ele>1177</ele>
        <time>2026-08-27T12:10:35.350Z</time>
      </trkpt>
      <trkpt lat="47.82897" lon="7.00503">
        <ele>1176.9</ele>
        <time>2026-08-27T12:10:36.358Z</time>
      </trkpt>
      <trkpt lat="47.82897" lon="7.00503">
        <ele>1177.1</ele>
        <time>2026-08-27T12:10:38.275Z</time>
      </trkpt>
      <trkpt lat="47.82897" lon="7.00503">
        <ele>1176.9</ele>
        <time>2026-08-27T12:10:39.283Z</time>
      </trkpt>
      <trkpt lat="47.82897" lon="7.00503">
        <ele>1176.9</ele>
        <time>2026-08-27T12:10:40.291Z</time>
      </trkpt>
      <trkpt lat="47.82897" lon="7.00503">
        <ele>1176.8</ele>
        <time>2026-08-27T12:10:41.298Z</time>
      </trkpt>
      <trkpt lat="47.82897" lon="7.00503">
        <ele>1176.9</ele>
        <time>2026-08-27T12:10:42.306Z</time>
      </trkpt>
      <trkpt lat="47.82897" lon="7.00503">
        <ele>1177</ele>
        <time>2026-08-27T12:10:43.315Z</time>
      </trkpt>
      <trkpt lat="47.82897" lon="7.00503">
        <ele>1176.8</ele>
        <time>2026-08-27T12:10:44.322Z</time>
      </trkpt>
      <trkpt lat="47.82897" lon="7.00503">
        <ele>1176.9</ele>
        <time>2026-08-27T12:10:45.330Z</time>
      </trkpt>
      <trkpt lat="47.82897" lon="7.00503">
        <ele>1176.8</ele>
        <time>2026-08-27T12:10:46.339Z</time>
      </trkpt>
      <trkpt lat="47.82896" lon="7.00504">
        <ele>1177</ele>
        <time>2026-08-27T12:10:47.347Z</time>
      </trkpt>
      <trkpt lat="47.82895" lon="7.00504">
        <ele>1176.8</ele>
        <time>2026-08-27T12:10:48.356Z</time>
      </trkpt>
      <trkpt lat="47.82893" lon="7.00507">
        <ele>1176.7</ele>
        <time>2026-08-27T12:10:50.287Z</time>
      </trkpt>
      <trkpt lat="47.82892" lon="7.00508">
        <ele>1176.6</ele>
        <time>2026-08-27T12:10:51.308Z</time>
      </trkpt>
      <trkpt lat="47.82891" lon="7.00507">
        <ele>1176.4</ele>
        <time>2026-08-27T12:10:52.324Z</time>
      </trkpt>
      <trkpt lat="47.8289" lon="7.00508">
        <ele>1176.3</ele>
        <time>2026-08-27T12:10:53.333Z</time>
      </trkpt>
      <trkpt lat="47.82889" lon="7.00508">
        <ele>1176</ele>
        <time>2026-08-27T12:10:54.341Z</time>
      </trkpt>
      <trkpt lat="47.82889" lon="7.00509">
        <ele>1176.1</ele>
        <time>2026-08-27T12:10:55.349Z</time>
      </trkpt>
      <trkpt lat="47.82889" lon="7.00509">
        <ele>1176</ele>
        <time>2026-08-27T12:10:56.357Z</time>
      </trkpt>
      <trkpt lat="47.82889" lon="7.00508">
        <ele>1176.3</ele>
        <time>2026-08-27T12:10:58.273Z</time>
      </trkpt>
      <trkpt lat="47.8289" lon="7.00508">
        <ele>1176.3</ele>
        <time>2026-08-27T12:10:59.281Z</time>
      </trkpt>
      <trkpt lat="47.8289" lon="7.00508">
        <ele>1176.4</ele>
        <time>2026-08-27T12:11:00.289Z</time>
      </trkpt>
      <trkpt lat="47.8289" lon="7.00508">
        <ele>1176.4</ele>
        <time>2026-08-27T12:11:01.339Z</time>
      </trkpt>
      <trkpt lat="47.8289" lon="7.00508">
        <ele>1176</ele>
        <time>2026-08-27T12:11:03.314Z</time>
      </trkpt>
      <trkpt lat="47.8289" lon="7.00508">
        <ele>1176</ele>
        <time>2026-08-27T12:11:04.322Z</time>
      </trkpt>
      <trkpt lat="47.82889" lon="7.00509">
        <ele>1176.1</ele>
        <time>2026-08-27T12:11:05.330Z</time>
      </trkpt>
      <trkpt lat="47.82887" lon="7.0051">
        <ele>1176</ele>
        <time>2026-08-27T12:11:06.338Z</time>
      </trkpt>
      <trkpt lat="47.82886" lon="7.00511">
        <ele>1176.1</ele>
        <time>2026-08-27T12:11:07.346Z</time>
      </trkpt>
      <trkpt lat="47.82885" lon="7.00512">
        <ele>1175.9</ele>
        <time>2026-08-27T12:11:08.354Z</time>
      </trkpt>
      <trkpt lat="47.82883" lon="7.00512">
        <ele>1175.7</ele>
        <time>2026-08-27T12:11:10.345Z</time>
      </trkpt>
      <trkpt lat="47.82882" lon="7.00513">
        <ele>1175.7</ele>
        <time>2026-08-27T12:11:11.378Z</time>
      </trkpt>
      <trkpt lat="47.8288" lon="7.00512">
        <ele>1175.2</ele>
        <time>2026-08-27T12:11:13.395Z</time>
      </trkpt>
      <trkpt lat="47.82878" lon="7.00512">
        <ele>1175</ele>
        <time>2026-08-27T12:11:15.318Z</time>
      </trkpt>
      <trkpt lat="47.82876" lon="7.00513">
        <ele>1174.8</ele>
        <time>2026-08-27T12:11:17.343Z</time>
      </trkpt>
      <trkpt lat="47.82874" lon="7.00514">
        <ele>1174.5</ele>
        <time>2026-08-27T12:11:19.368Z</time>
      </trkpt>
      <trkpt lat="47.82873" lon="7.00514">
        <ele>1174.5</ele>
        <time>2026-08-27T12:11:20.376Z</time>
      </trkpt>
      <trkpt lat="47.82872" lon="7.00514">
        <ele>1174.2</ele>
        <time>2026-08-27T12:11:21.385Z</time>
      </trkpt>
      <trkpt lat="47.8287" lon="7.00514">
        <ele>1174.2</ele>
        <time>2026-08-27T12:11:23.275Z</time>
      </trkpt>
      <trkpt lat="47.82869" lon="7.00514">
        <ele>1174</ele>
        <time>2026-08-27T12:11:24.308Z</time>
      </trkpt>
      <trkpt lat="47.82867" lon="7.00515">
        <ele>1173.8</ele>
        <time>2026-08-27T12:11:25.316Z</time>
      </trkpt>
      <trkpt lat="47.82866" lon="7.00515">
        <ele>1173.8</ele>
        <time>2026-08-27T12:11:26.324Z</time>
      </trkpt>
      <trkpt lat="47.82865" lon="7.00515">
        <ele>1173.8</ele>
        <time>2026-08-27T12:11:27.333Z</time>
      </trkpt>
      <trkpt lat="47.82864" lon="7.00516">
        <ele>1173.7</ele>
        <time>2026-08-27T12:11:28.341Z</time>
      </trkpt>
      <trkpt lat="47.82863" lon="7.00516">
        <ele>1173.7</ele>
        <time>2026-08-27T12:11:29.348Z</time>
      </trkpt>
      <trkpt lat="47.82862" lon="7.00516">
        <ele>1173.4</ele>
        <time>2026-08-27T12:11:30.357Z</time>
      </trkpt>
      <trkpt lat="47.82861" lon="7.00517">
        <ele>1173.2</ele>
        <time>2026-08-27T12:11:31.365Z</time>
      </trkpt>
      <trkpt lat="47.8286" lon="7.00517">
        <ele>1173.3</ele>
        <time>2026-08-27T12:11:32.373Z</time>
      </trkpt>
      <trkpt lat="47.82859" lon="7.00517">
        <ele>1173.1</ele>
        <time>2026-08-27T12:11:33.382Z</time>
      </trkpt>
      <trkpt lat="47.82857" lon="7.00518">
        <ele>1173.1</ele>
        <time>2026-08-27T12:11:35.296Z</time>
      </trkpt>
      <trkpt lat="47.82856" lon="7.00519">
        <ele>1172.9</ele>
        <time>2026-08-27T12:11:37.312Z</time>
      </trkpt>
      <trkpt lat="47.82855" lon="7.00519">
        <ele>1172.7</ele>
        <time>2026-08-27T12:11:38.321Z</time>
      </trkpt>
      <trkpt lat="47.82854" lon="7.00519">
        <ele>1172.7</ele>
        <time>2026-08-27T12:11:39.330Z</time>
      </trkpt>
      <trkpt lat="47.82853" lon="7.0052">
        <ele>1172.7</ele>
        <time>2026-08-27T12:11:40.337Z</time>
      </trkpt>
      <trkpt lat="47.82852" lon="7.0052">
        <ele>1172.6</ele>
        <time>2026-08-27T12:11:41.345Z</time>
      </trkpt>
      <trkpt lat="47.82851" lon="7.0052">
        <ele>1172.4</ele>
        <time>2026-08-27T12:11:42.353Z</time>
      </trkpt>
      <trkpt lat="47.8285" lon="7.0052">
        <ele>1172.5</ele>
        <time>2026-08-27T12:11:43.362Z</time>
      </trkpt>
      <trkpt lat="47.82849" lon="7.0052">
        <ele>1172.3</ele>
        <time>2026-08-27T12:11:44.369Z</time>
      </trkpt>
      <trkpt lat="47.82848" lon="7.0052">
        <ele>1172.5</ele>
        <time>2026-08-27T12:11:45.377Z</time>
      </trkpt>
      <trkpt lat="47.82847" lon="7.0052">
        <ele>1172.2</ele>
        <time>2026-08-27T12:11:46.385Z</time>
      </trkpt>
      <trkpt lat="47.82846" lon="7.00519">
        <ele>1172.2</ele>
        <time>2026-08-27T12:11:47.393Z</time>
      </trkpt>
      <trkpt lat="47.82844" lon="7.00519">
        <ele>1172</ele>
        <time>2026-08-27T12:11:49.309Z</time>
      </trkpt>
      <trkpt lat="47.82843" lon="7.00519">
        <ele>1171.8</ele>
        <time>2026-08-27T12:11:50.318Z</time>
      </trkpt>
      <trkpt lat="47.82842" lon="7.0052">
        <ele>1171.7</ele>
        <time>2026-08-27T12:11:51.325Z</time>
      </trkpt>
      <trkpt lat="47.82841" lon="7.0052">
        <ele>1171.3</ele>
        <time>2026-08-27T12:11:52.334Z</time>
      </trkpt>
      <trkpt lat="47.8284" lon="7.00521">
        <ele>1171.7</ele>
        <time>2026-08-27T12:11:53.342Z</time>
      </trkpt>
      <trkpt lat="47.82839" lon="7.00521">
        <ele>1171.4</ele>
        <time>2026-08-27T12:11:54.349Z</time>
      </trkpt>
      <trkpt lat="47.82838" lon="7.00521">
        <ele>1171.5</ele>
        <time>2026-08-27T12:11:55.357Z</time>
      </trkpt>
      <trkpt lat="47.82838" lon="7.00522">
        <ele>1171.6</ele>
        <time>2026-08-27T12:11:56.365Z</time>
      </trkpt>
      <trkpt lat="47.82837" lon="7.00522">
        <ele>1171.5</ele>
        <time>2026-08-27T12:11:57.382Z</time>
      </trkpt>
      <trkpt lat="47.82836" lon="7.00523">
        <ele>1171.5</ele>
        <time>2026-08-27T12:11:58.390Z</time>
      </trkpt>
      <trkpt lat="47.82834" lon="7.00524">
        <ele>1170.9</ele>
        <time>2026-08-27T12:12:00.305Z</time>
      </trkpt>
      <trkpt lat="47.82833" lon="7.00525">
        <ele>1171.1</ele>
        <time>2026-08-27T12:12:01.313Z</time>
      </trkpt>
      <trkpt lat="47.82832" lon="7.00526">
        <ele>1171</ele>
        <time>2026-08-27T12:12:02.331Z</time>
      </trkpt>
      <trkpt lat="47.8283" lon="7.00528">
        <ele>1170.7</ele>
        <time>2026-08-27T12:12:04.354Z</time>
      </trkpt>
      <trkpt lat="47.82829" lon="7.00528">
        <ele>1170.8</ele>
        <time>2026-08-27T12:12:05.362Z</time>
      </trkpt>
      <trkpt lat="47.82828" lon="7.00528">
        <ele>1170.6</ele>
        <time>2026-08-27T12:12:06.371Z</time>
      </trkpt>
      <trkpt lat="47.82826" lon="7.00528">
        <ele>1170.3</ele>
        <time>2026-08-27T12:12:08.287Z</time>
      </trkpt>
      <trkpt lat="47.82825" lon="7.00528">
        <ele>1170.3</ele>
        <time>2026-08-27T12:12:09.319Z</time>
      </trkpt>
      <trkpt lat="47.82822" lon="7.00528">
        <ele>1169.9</ele>
        <time>2026-08-27T12:12:11.310Z</time>
      </trkpt>
      <trkpt lat="47.8282" lon="7.00529">
        <ele>1170</ele>
        <time>2026-08-27T12:12:13.276Z</time>
      </trkpt>
      <trkpt lat="47.82819" lon="7.00529">
        <ele>1170.1</ele>
        <time>2026-08-27T12:12:14.400Z</time>
      </trkpt>
      <trkpt lat="47.82817" lon="7.00531">
        <ele>1169.7</ele>
        <time>2026-08-27T12:12:16.351Z</time>
      </trkpt>
      <trkpt lat="47.82816" lon="7.00531">
        <ele>1169.5</ele>
        <time>2026-08-27T12:12:17.359Z</time>
      </trkpt>
      <trkpt lat="47.82815" lon="7.00532">
        <ele>1169.4</ele>
        <time>2026-08-27T12:12:18.367Z</time>
      </trkpt>
      <trkpt lat="47.82814" lon="7.00532">
        <ele>1169.2</ele>
        <time>2026-08-27T12:12:19.375Z</time>
      </trkpt>
      <trkpt lat="47.82813" lon="7.00533">
        <ele>1169.2</ele>
        <time>2026-08-27T12:12:20.400Z</time>
      </trkpt>
      <trkpt lat="47.82811" lon="7.00534">
        <ele>1168.8</ele>
        <time>2026-08-27T12:12:22.383Z</time>
      </trkpt>
      <trkpt lat="47.8281" lon="7.00535">
        <ele>1169</ele>
        <time>2026-08-27T12:12:24.314Z</time>
      </trkpt>
      <trkpt lat="47.82809" lon="7.00535">
        <ele>1169</ele>
        <time>2026-08-27T12:12:25.322Z</time>
      </trkpt>
      <trkpt lat="47.82807" lon="7.00535">
        <ele>1168.9</ele>
        <time>2026-08-27T12:12:26.331Z</time>
      </trkpt>
      <trkpt lat="47.82805" lon="7.00536">
        <ele>1168.7</ele>
        <time>2026-08-27T12:12:28.355Z</time>
      </trkpt>
      <trkpt lat="47.82805" lon="7.00537">
        <ele>1168.6</ele>
        <time>2026-08-27T12:12:29.363Z</time>
      </trkpt>
      <trkpt lat="47.82804" lon="7.00537">
        <ele>1168.5</ele>
        <time>2026-08-27T12:12:30.379Z</time>
      </trkpt>
      <trkpt lat="47.82803" lon="7.00538">
        <ele>1168.5</ele>
        <time>2026-08-27T12:12:31.385Z</time>
      </trkpt>
      <trkpt lat="47.82801" lon="7.00539">
        <ele>1168.3</ele>
        <time>2026-08-27T12:12:33.320Z</time>
      </trkpt>
      <trkpt lat="47.828" lon="7.0054">
        <ele>1168.4</ele>
        <time>2026-08-27T12:12:34.328Z</time>
      </trkpt>
      <trkpt lat="47.82799" lon="7.0054">
        <ele>1168.3</ele>
        <time>2026-08-27T12:12:35.337Z</time>
      </trkpt>
      <trkpt lat="47.82798" lon="7.00541">
        <ele>1168</ele>
        <time>2026-08-27T12:12:36.344Z</time>
      </trkpt>
      <trkpt lat="47.82797" lon="7.00542">
        <ele>1168</ele>
        <time>2026-08-27T12:12:37.353Z</time>
      </trkpt>
      <trkpt lat="47.82796" lon="7.00543">
        <ele>1168.1</ele>
        <time>2026-08-27T12:12:38.361Z</time>
      </trkpt>
      <trkpt lat="47.82795" lon="7.00544">
        <ele>1168</ele>
        <time>2026-08-27T12:12:39.369Z</time>
      </trkpt>
      <trkpt lat="47.82794" lon="7.00545">
        <ele>1167.8</ele>
        <time>2026-08-27T12:12:40.376Z</time>
      </trkpt>
      <trkpt lat="47.82793" lon="7.00545">
        <ele>1167.8</ele>
        <time>2026-08-27T12:12:41.418Z</time>
      </trkpt>
      <trkpt lat="47.82792" lon="7.00547">
        <ele>1167.9</ele>
        <time>2026-08-27T12:12:43.300Z</time>
      </trkpt>
      <trkpt lat="47.82791" lon="7.00548">
        <ele>1167.8</ele>
        <time>2026-08-27T12:12:44.316Z</time>
      </trkpt>
      <trkpt lat="47.8279" lon="7.00548">
        <ele>1167.7</ele>
        <time>2026-08-27T12:12:45.324Z</time>
      </trkpt>
      <trkpt lat="47.82788" lon="7.00549">
        <ele>1167.8</ele>
        <time>2026-08-27T12:12:47.389Z</time>
      </trkpt>
      <trkpt lat="47.82785" lon="7.0055">
        <ele>1167.6</ele>
        <time>2026-08-27T12:12:49.373Z</time>
      </trkpt>
      <trkpt lat="47.82784" lon="7.00551">
        <ele>1167.3</ele>
        <time>2026-08-27T12:12:50.381Z</time>
      </trkpt>
      <trkpt lat="47.82783" lon="7.00552">
        <ele>1167.5</ele>
        <time>2026-08-27T12:12:51.389Z</time>
      </trkpt>
      <trkpt lat="47.82781" lon="7.00553">
        <ele>1167.5</ele>
        <time>2026-08-27T12:12:53.398Z</time>
      </trkpt>
      <trkpt lat="47.82779" lon="7.00555">
        <ele>1167.7</ele>
        <time>2026-08-27T12:12:55.329Z</time>
      </trkpt>
      <trkpt lat="47.82778" lon="7.00556">
        <ele>1167.8</ele>
        <time>2026-08-27T12:12:56.338Z</time>
      </trkpt>
      <trkpt lat="47.82777" lon="7.00557">
        <ele>1167.6</ele>
        <time>2026-08-27T12:12:57.345Z</time>
      </trkpt>
      <trkpt lat="47.82775" lon="7.00559">
        <ele>1167.6</ele>
        <time>2026-08-27T12:12:59.362Z</time>
      </trkpt>
      <trkpt lat="47.82774" lon="7.0056">
        <ele>1167.6</ele>
        <time>2026-08-27T12:13:00.370Z</time>
      </trkpt>
      <trkpt lat="47.82774" lon="7.00561">
        <ele>1167.7</ele>
        <time>2026-08-27T12:13:01.377Z</time>
      </trkpt>
      <trkpt lat="47.82772" lon="7.00563">
        <ele>1167.8</ele>
        <time>2026-08-27T12:13:03.394Z</time>
      </trkpt>
      <trkpt lat="47.82771" lon="7.00564">
        <ele>1167.7</ele>
        <time>2026-08-27T12:13:04.402Z</time>
      </trkpt>
      <trkpt lat="47.82769" lon="7.00566">
        <ele>1167.6</ele>
        <time>2026-08-27T12:13:06.318Z</time>
      </trkpt>
      <trkpt lat="47.82768" lon="7.00567">
        <ele>1167.6</ele>
        <time>2026-08-27T12:13:07.325Z</time>
      </trkpt>
      <trkpt lat="47.82767" lon="7.00568">
        <ele>1167.6</ele>
        <time>2026-08-27T12:13:08.334Z</time>
      </trkpt>
      <trkpt lat="47.82766" lon="7.00569">
        <ele>1167.4</ele>
        <time>2026-08-27T12:13:09.341Z</time>
      </trkpt>
      <trkpt lat="47.82765" lon="7.00571">
        <ele>1167.6</ele>
        <time>2026-08-27T12:13:11.357Z</time>
      </trkpt>
      <trkpt lat="47.82764" lon="7.00571">
        <ele>1167.6</ele>
        <time>2026-08-27T12:13:12.365Z</time>
      </trkpt>
      <trkpt lat="47.82763" lon="7.00573">
        <ele>1167.5</ele>
        <time>2026-08-27T12:13:13.374Z</time>
      </trkpt>
      <trkpt lat="47.82762" lon="7.00575">
        <ele>1167.5</ele>
        <time>2026-08-27T12:13:15.289Z</time>
      </trkpt>
      <trkpt lat="47.82761" lon="7.00576">
        <ele>1167.6</ele>
        <time>2026-08-27T12:13:16.297Z</time>
      </trkpt>
      <trkpt lat="47.8276" lon="7.00577">
        <ele>1167.5</ele>
        <time>2026-08-27T12:13:17.314Z</time>
      </trkpt>
      <trkpt lat="47.8276" lon="7.00578">
        <ele>1167.5</ele>
        <time>2026-08-27T12:13:18.321Z</time>
      </trkpt>
      <trkpt lat="47.82759" lon="7.00579">
        <ele>1167.5</ele>
        <time>2026-08-27T12:13:19.330Z</time>
      </trkpt>
      <trkpt lat="47.82758" lon="7.0058">
        <ele>1167.7</ele>
        <time>2026-08-27T12:13:20.337Z</time>
      </trkpt>
      <trkpt lat="47.82757" lon="7.00581">
        <ele>1167.5</ele>
        <time>2026-08-27T12:13:21.346Z</time>
      </trkpt>
      <trkpt lat="47.82756" lon="7.00582">
        <ele>1167.3</ele>
        <time>2026-08-27T12:13:22.353Z</time>
      </trkpt>
      <trkpt lat="47.82755" lon="7.00583">
        <ele>1167.9</ele>
        <time>2026-08-27T12:13:23.361Z</time>
      </trkpt>
      <trkpt lat="47.82754" lon="7.00583">
        <ele>1167.9</ele>
        <time>2026-08-27T12:13:24.369Z</time>
      </trkpt>
      <trkpt lat="47.82753" lon="7.00584">
        <ele>1167.9</ele>
        <time>2026-08-27T12:13:25.387Z</time>
      </trkpt>
      <trkpt lat="47.82751" lon="7.00586">
        <ele>1167.6</ele>
        <time>2026-08-27T12:13:27.311Z</time>
      </trkpt>
      <trkpt lat="47.8275" lon="7.00587">
        <ele>1167.6</ele>
        <time>2026-08-27T12:13:28.402Z</time>
      </trkpt>
      <trkpt lat="47.82748" lon="7.00588">
        <ele>1167.9</ele>
        <time>2026-08-27T12:13:30.334Z</time>
      </trkpt>
      <trkpt lat="47.82748" lon="7.00588">
        <ele>1167.9</ele>
        <time>2026-08-27T12:13:31.342Z</time>
      </trkpt>
      <trkpt lat="47.82747" lon="7.00589">
        <ele>1168</ele>
        <time>2026-08-27T12:13:32.350Z</time>
      </trkpt>
      <trkpt lat="47.82746" lon="7.0059">
        <ele>1167.8</ele>
        <time>2026-08-27T12:13:33.358Z</time>
      </trkpt>
      <trkpt lat="47.82745" lon="7.00591">
        <ele>1167.8</ele>
        <time>2026-08-27T12:13:34.400Z</time>
      </trkpt>
      <trkpt lat="47.82743" lon="7.00592">
        <ele>1167.8</ele>
        <time>2026-08-27T12:13:36.382Z</time>
      </trkpt>
      <trkpt lat="47.82741" lon="7.00594">
        <ele>1167.5</ele>
        <time>2026-08-27T12:13:38.398Z</time>
      </trkpt>
      <trkpt lat="47.8274" lon="7.00595">
        <ele>1167.8</ele>
        <time>2026-08-27T12:13:40.314Z</time>
      </trkpt>
      <trkpt lat="47.82739" lon="7.00595">
        <ele>1167.7</ele>
        <time>2026-08-27T12:13:41.321Z</time>
      </trkpt>
      <trkpt lat="47.82738" lon="7.00596">
        <ele>1167.5</ele>
        <time>2026-08-27T12:13:42.330Z</time>
      </trkpt>
      <trkpt lat="47.82737" lon="7.00597">
        <ele>1167.4</ele>
        <time>2026-08-27T12:13:43.338Z</time>
      </trkpt>
      <trkpt lat="47.82736" lon="7.00597">
        <ele>1167.4</ele>
        <time>2026-08-27T12:13:44.346Z</time>
      </trkpt>
      <trkpt lat="47.82735" lon="7.00598">
        <ele>1167.4</ele>
        <time>2026-08-27T12:13:45.379Z</time>
      </trkpt>
      <trkpt lat="47.82733" lon="7.00599">
        <ele>1167.3</ele>
        <time>2026-08-27T12:13:47.343Z</time>
      </trkpt>
      <trkpt lat="47.82732" lon="7.00599">
        <ele>1167.2</ele>
        <time>2026-08-27T12:13:48.378Z</time>
      </trkpt>
      <trkpt lat="47.82731" lon="7.006">
        <ele>1167.1</ele>
        <time>2026-08-27T12:13:49.387Z</time>
      </trkpt>
      <trkpt lat="47.82729" lon="7.00601">
        <ele>1167.2</ele>
        <time>2026-08-27T12:13:51.361Z</time>
      </trkpt>
      <trkpt lat="47.82727" lon="7.00603">
        <ele>1167.3</ele>
        <time>2026-08-27T12:13:53.317Z</time>
      </trkpt>
      <trkpt lat="47.82726" lon="7.00604">
        <ele>1167.1</ele>
        <time>2026-08-27T12:13:54.325Z</time>
      </trkpt>
      <trkpt lat="47.82725" lon="7.00605">
        <ele>1167</ele>
        <time>2026-08-27T12:13:55.334Z</time>
      </trkpt>
      <trkpt lat="47.82724" lon="7.00605">
        <ele>1166.6</ele>
        <time>2026-08-27T12:13:56.341Z</time>
      </trkpt>
      <trkpt lat="47.82722" lon="7.00606">
        <ele>1166.5</ele>
        <time>2026-08-27T12:13:58.359Z</time>
      </trkpt>
      <trkpt lat="47.82721" lon="7.00606">
        <ele>1166.6</ele>
        <time>2026-08-27T12:13:59.366Z</time>
      </trkpt>
      <trkpt lat="47.8272" lon="7.00607">
        <ele>1166.6</ele>
        <time>2026-08-27T12:14:00.382Z</time>
      </trkpt>
      <trkpt lat="47.82719" lon="7.00607">
        <ele>1166.5</ele>
        <time>2026-08-27T12:14:01.382Z</time>
      </trkpt>
      <trkpt lat="47.82717" lon="7.00609">
        <ele>1166.1</ele>
        <time>2026-08-27T12:14:03.298Z</time>
      </trkpt>
      <trkpt lat="47.82716" lon="7.0061">
        <ele>1165.9</ele>
        <time>2026-08-27T12:14:04.305Z</time>
      </trkpt>
      <trkpt lat="47.82715" lon="7.00611">
        <ele>1165.9</ele>
        <time>2026-08-27T12:14:05.314Z</time>
      </trkpt>
      <trkpt lat="47.82714" lon="7.00612">
        <ele>1165.9</ele>
        <time>2026-08-27T12:14:06.396Z</time>
      </trkpt>
      <trkpt lat="47.82712" lon="7.00613">
        <ele>1165.6</ele>
        <time>2026-08-27T12:14:08.347Z</time>
      </trkpt>
      <trkpt lat="47.82711" lon="7.00613">
        <ele>1165.6</ele>
        <time>2026-08-27T12:14:09.354Z</time>
      </trkpt>
      <trkpt lat="47.82711" lon="7.00614">
        <ele>1165.4</ele>
        <time>2026-08-27T12:14:10.362Z</time>
      </trkpt>
      <trkpt lat="47.8271" lon="7.00614">
        <ele>1165.3</ele>
        <time>2026-08-27T12:14:11.371Z</time>
      </trkpt>
      <trkpt lat="47.82709" lon="7.00615">
        <ele>1165.2</ele>
        <time>2026-08-27T12:14:12.379Z</time>
      </trkpt>
      <trkpt lat="47.82708" lon="7.00616">
        <ele>1165.2</ele>
        <time>2026-08-27T12:14:13.387Z</time>
      </trkpt>
      <trkpt lat="47.82707" lon="7.00616">
        <ele>1164.9</ele>
        <time>2026-08-27T12:14:15.301Z</time>
      </trkpt>
      <trkpt lat="47.82706" lon="7.00616">
        <ele>1164.8</ele>
        <time>2026-08-27T12:14:16.309Z</time>
      </trkpt>
      <trkpt lat="47.82703" lon="7.00616">
        <ele>1164.6</ele>
        <time>2026-08-27T12:14:18.325Z</time>
      </trkpt>
      <trkpt lat="47.82702" lon="7.00616">
        <ele>1164.6</ele>
        <time>2026-08-27T12:14:19.333Z</time>
      </trkpt>
      <trkpt lat="47.82702" lon="7.00616">
        <ele>1164.6</ele>
        <time>2026-08-27T12:14:20.376Z</time>
      </trkpt>
      <trkpt lat="47.827" lon="7.00617">
        <ele>1164.4</ele>
        <time>2026-08-27T12:14:22.358Z</time>
      </trkpt>
      <trkpt lat="47.82699" lon="7.00618">
        <ele>1164</ele>
        <time>2026-08-27T12:14:23.366Z</time>
      </trkpt>
      <trkpt lat="47.82698" lon="7.00618">
        <ele>1164</ele>
        <time>2026-08-27T12:14:24.373Z</time>
      </trkpt>
      <trkpt lat="47.82697" lon="7.00619">
        <ele>1163.8</ele>
        <time>2026-08-27T12:14:25.382Z</time>
      </trkpt>
      <trkpt lat="47.82696" lon="7.00619">
        <ele>1163.8</ele>
        <time>2026-08-27T12:14:26.390Z</time>
      </trkpt>
      <trkpt lat="47.82694" lon="7.0062">
        <ele>1164</ele>
        <time>2026-08-27T12:14:28.306Z</time>
      </trkpt>
      <trkpt lat="47.82691" lon="7.00621">
        <ele>1163.9</ele>
        <time>2026-08-27T12:14:30.321Z</time>
      </trkpt>
      <trkpt lat="47.8269" lon="7.00621">
        <ele>1163.8</ele>
        <time>2026-08-27T12:14:31.330Z</time>
      </trkpt>
      <trkpt lat="47.82689" lon="7.00623">
        <ele>1163.7</ele>
        <time>2026-08-27T12:14:33.346Z</time>
      </trkpt>
      <trkpt lat="47.82688" lon="7.00623">
        <ele>1163.8</ele>
        <time>2026-08-27T12:14:34.353Z</time>
      </trkpt>
      <trkpt lat="47.82687" lon="7.00623">
        <ele>1163.9</ele>
        <time>2026-08-27T12:14:35.362Z</time>
      </trkpt>
      <trkpt lat="47.82685" lon="7.00623">
        <ele>1163.6</ele>
        <time>2026-08-27T12:14:37.285Z</time>
      </trkpt>
      <trkpt lat="47.82683" lon="7.00624">
        <ele>1163.5</ele>
        <time>2026-08-27T12:14:38.293Z</time>
      </trkpt>
      <trkpt lat="47.82682" lon="7.00624">
        <ele>1163.5</ele>
        <time>2026-08-27T12:14:39.351Z</time>
      </trkpt>
      <trkpt lat="47.8268" lon="7.00625">
        <ele>1163.1</ele>
        <time>2026-08-27T12:14:41.317Z</time>
      </trkpt>
      <trkpt lat="47.82678" lon="7.00626">
        <ele>1162.8</ele>
        <time>2026-08-27T12:14:43.333Z</time>
      </trkpt>
      <trkpt lat="47.82678" lon="7.00627">
        <ele>1162.8</ele>
        <time>2026-08-27T12:14:44.333Z</time>
      </trkpt>
      <trkpt lat="47.82678" lon="7.00628">
        <ele>1162.7</ele>
        <time>2026-08-27T12:14:45.391Z</time>
      </trkpt>
      <trkpt lat="47.82677" lon="7.00627">
        <ele>1162.5</ele>
        <time>2026-08-27T12:14:47.290Z</time>
      </trkpt>
      <trkpt lat="47.82677" lon="7.00627">
        <ele>1162.4</ele>
        <time>2026-08-27T12:14:48.373Z</time>
      </trkpt>
      <trkpt lat="47.82677" lon="7.00627">
        <ele>1162</ele>
        <time>2026-08-27T12:14:49.382Z</time>
      </trkpt>
      <trkpt lat="47.82676" lon="7.00629">
        <ele>1162.6</ele>
        <time>2026-08-27T12:14:50.389Z</time>
      </trkpt>
      <trkpt lat="47.82675" lon="7.00629">
        <ele>1162.3</ele>
        <time>2026-08-27T12:14:52.305Z</time>
      </trkpt>
      <trkpt lat="47.82675" lon="7.0063">
        <ele>1162.1</ele>
        <time>2026-08-27T12:14:53.314Z</time>
      </trkpt>
      <trkpt lat="47.82674" lon="7.0063">
        <ele>1162.1</ele>
        <time>2026-08-27T12:14:54.373Z</time>
      </trkpt>
      <trkpt lat="47.82673" lon="7.00632">
        <ele>1162</ele>
        <time>2026-08-27T12:14:56.380Z</time>
      </trkpt>
      <trkpt lat="47.82671" lon="7.00635">
        <ele>1162.2</ele>
        <time>2026-08-27T12:14:58.361Z</time>
      </trkpt>
      <trkpt lat="47.8267" lon="7.00636">
        <ele>1162</ele>
        <time>2026-08-27T12:14:59.369Z</time>
      </trkpt>
      <trkpt lat="47.82669" lon="7.00637">
        <ele>1161.8</ele>
        <time>2026-08-27T12:15:00.378Z</time>
      </trkpt>
      <trkpt lat="47.82669" lon="7.00638">
        <ele>1161.7</ele>
        <time>2026-08-27T12:15:01.385Z</time>
      </trkpt>
      <trkpt lat="47.82668" lon="7.00639">
        <ele>1161.6</ele>
        <time>2026-08-27T12:15:02.393Z</time>
      </trkpt>
      <trkpt lat="47.82666" lon="7.00641">
        <ele>1161.3</ele>
        <time>2026-08-27T12:15:04.310Z</time>
      </trkpt>
      <trkpt lat="47.82664" lon="7.00643">
        <ele>1161</ele>
        <time>2026-08-27T12:15:06.325Z</time>
      </trkpt>
      <trkpt lat="47.82662" lon="7.00645">
        <ele>1160.8</ele>
        <time>2026-08-27T12:15:08.341Z</time>
      </trkpt>
      <trkpt lat="47.82662" lon="7.00646">
        <ele>1160.8</ele>
        <time>2026-08-27T12:15:09.349Z</time>
      </trkpt>
      <trkpt lat="47.82661" lon="7.00647">
        <ele>1160.7</ele>
        <time>2026-08-27T12:15:10.357Z</time>
      </trkpt>
      <trkpt lat="47.82659" lon="7.00649">
        <ele>1160.5</ele>
        <time>2026-08-27T12:15:12.373Z</time>
      </trkpt>
      <trkpt lat="47.82657" lon="7.00651">
        <ele>1160.4</ele>
        <time>2026-08-27T12:15:14.389Z</time>
      </trkpt>
      <trkpt lat="47.82657" lon="7.00651">
        <ele>1160.2</ele>
        <time>2026-08-27T12:15:15.397Z</time>
      </trkpt>
      <trkpt lat="47.82655" lon="7.00653">
        <ele>1160</ele>
        <time>2026-08-27T12:15:17.312Z</time>
      </trkpt>
      <trkpt lat="47.82655" lon="7.00654">
        <ele>1159.5</ele>
        <time>2026-08-27T12:15:18.321Z</time>
      </trkpt>
      <trkpt lat="47.82654" lon="7.00655">
        <ele>1160</ele>
        <time>2026-08-27T12:15:19.329Z</time>
      </trkpt>
      <trkpt lat="47.82653" lon="7.00656">
        <ele>1159.8</ele>
        <time>2026-08-27T12:15:20.338Z</time>
      </trkpt>
      <trkpt lat="47.82652" lon="7.00657">
        <ele>1159.4</ele>
        <time>2026-08-27T12:15:21.346Z</time>
      </trkpt>
      <trkpt lat="47.82651" lon="7.00658">
        <ele>1159.2</ele>
        <time>2026-08-27T12:15:22.353Z</time>
      </trkpt>
      <trkpt lat="47.8265" lon="7.00659">
        <ele>1159</ele>
        <time>2026-08-27T12:15:23.361Z</time>
      </trkpt>
      <trkpt lat="47.8265" lon="7.0066">
        <ele>1158.9</ele>
        <time>2026-08-27T12:15:24.369Z</time>
      </trkpt>
      <trkpt lat="47.82648" lon="7.00662">
        <ele>1159</ele>
        <time>2026-08-27T12:15:26.385Z</time>
      </trkpt>
      <trkpt lat="47.82646" lon="7.00663">
        <ele>1159</ele>
        <time>2026-08-27T12:15:27.393Z</time>
      </trkpt>
      <trkpt lat="47.82644" lon="7.00664">
        <ele>1158.6</ele>
        <time>2026-08-27T12:15:29.317Z</time>
      </trkpt>
      <trkpt lat="47.82643" lon="7.00665">
        <ele>1158.5</ele>
        <time>2026-08-27T12:15:30.325Z</time>
      </trkpt>
      <trkpt lat="47.82641" lon="7.00667">
        <ele>1158.5</ele>
        <time>2026-08-27T12:15:32.342Z</time>
      </trkpt>
      <trkpt lat="47.82641" lon="7.00668">
        <ele>1158.5</ele>
        <time>2026-08-27T12:15:33.350Z</time>
      </trkpt>
      <trkpt lat="47.8264" lon="7.00669">
        <ele>1158</ele>
        <time>2026-08-27T12:15:34.358Z</time>
      </trkpt>
      <trkpt lat="47.82639" lon="7.00672">
        <ele>1158.1</ele>
        <time>2026-08-27T12:15:36.373Z</time>
      </trkpt>
      <trkpt lat="47.82638" lon="7.00674">
        <ele>1158</ele>
        <time>2026-08-27T12:15:37.381Z</time>
      </trkpt>
      <trkpt lat="47.82638" lon="7.00675">
        <ele>1157.9</ele>
        <time>2026-08-27T12:15:38.389Z</time>
      </trkpt>
      <trkpt lat="47.82637" lon="7.00677">
        <ele>1157.5</ele>
        <time>2026-08-27T12:15:40.305Z</time>
      </trkpt>
      <trkpt lat="47.82636" lon="7.00678">
        <ele>1157.3</ele>
        <time>2026-08-27T12:15:41.313Z</time>
      </trkpt>
      <trkpt lat="47.82635" lon="7.00679">
        <ele>1157.1</ele>
        <time>2026-08-27T12:15:42.320Z</time>
      </trkpt>
      <trkpt lat="47.82635" lon="7.0068">
        <ele>1157</ele>
        <time>2026-08-27T12:15:43.328Z</time>
      </trkpt>
      <trkpt lat="47.82634" lon="7.0068">
        <ele>1157</ele>
        <time>2026-08-27T12:15:44.337Z</time>
      </trkpt>
      <trkpt lat="47.82633" lon="7.00681">
        <ele>1156.8</ele>
        <time>2026-08-27T12:15:45.344Z</time>
      </trkpt>
      <trkpt lat="47.82632" lon="7.00682">
        <ele>1156.8</ele>
        <time>2026-08-27T12:15:46.353Z</time>
      </trkpt>
      <trkpt lat="47.82632" lon="7.00683">
        <ele>1156.5</ele>
        <time>2026-08-27T12:15:47.361Z</time>
      </trkpt>
      <trkpt lat="47.82631" lon="7.00684">
        <ele>1156.8</ele>
        <time>2026-08-27T12:15:48.369Z</time>
      </trkpt>
      <trkpt lat="47.8263" lon="7.00685">
        <ele>1156.7</ele>
        <time>2026-08-27T12:15:49.377Z</time>
      </trkpt>
      <trkpt lat="47.82629" lon="7.00685">
        <ele>1156.4</ele>
        <time>2026-08-27T12:15:50.386Z</time>
      </trkpt>
      <trkpt lat="47.82629" lon="7.00686">
        <ele>1156.2</ele>
        <time>2026-08-27T12:15:51.393Z</time>
      </trkpt>
      <trkpt lat="47.82627" lon="7.00689">
        <ele>1156</ele>
        <time>2026-08-27T12:15:53.309Z</time>
      </trkpt>
      <trkpt lat="47.82627" lon="7.0069">
        <ele>1155.9</ele>
        <time>2026-08-27T12:15:54.317Z</time>
      </trkpt>
      <trkpt lat="47.82626" lon="7.00691">
        <ele>1156.1</ele>
        <time>2026-08-27T12:15:55.324Z</time>
      </trkpt>
      <trkpt lat="47.82625" lon="7.00692">
        <ele>1156</ele>
        <time>2026-08-27T12:15:56.332Z</time>
      </trkpt>
      <trkpt lat="47.82624" lon="7.00693">
        <ele>1155.8</ele>
        <time>2026-08-27T12:15:57.341Z</time>
      </trkpt>
      <trkpt lat="47.82623" lon="7.00694">
        <ele>1155.5</ele>
        <time>2026-08-27T12:15:59.356Z</time>
      </trkpt>
      <trkpt lat="47.82621" lon="7.00696">
        <ele>1155.5</ele>
        <time>2026-08-27T12:16:01.373Z</time>
      </trkpt>
      <trkpt lat="47.8262" lon="7.00696">
        <ele>1155.5</ele>
        <time>2026-08-27T12:16:02.380Z</time>
      </trkpt>
      <trkpt lat="47.82618" lon="7.00699">
        <ele>1155.2</ele>
        <time>2026-08-27T12:16:04.304Z</time>
      </trkpt>
      <trkpt lat="47.82616" lon="7.007">
        <ele>1155.2</ele>
        <time>2026-08-27T12:16:06.320Z</time>
      </trkpt>
      <trkpt lat="47.82615" lon="7.007">
        <ele>1155</ele>
        <time>2026-08-27T12:16:07.329Z</time>
      </trkpt>
      <trkpt lat="47.82613" lon="7.00701">
        <ele>1155</ele>
        <time>2026-08-27T12:16:09.411Z</time>
      </trkpt>
      <trkpt lat="47.82612" lon="7.00704">
        <ele>1154.7</ele>
        <time>2026-08-27T12:16:11.394Z</time>
      </trkpt>
      <trkpt lat="47.82611" lon="7.00706">
        <ele>1154.7</ele>
        <time>2026-08-27T12:16:13.376Z</time>
      </trkpt>
      <trkpt lat="47.8261" lon="7.00708">
        <ele>1154.6</ele>
        <time>2026-08-27T12:16:15.292Z</time>
      </trkpt>
      <trkpt lat="47.82609" lon="7.00709">
        <ele>1154.6</ele>
        <time>2026-08-27T12:16:16.300Z</time>
      </trkpt>
      <trkpt lat="47.82608" lon="7.0071">
        <ele>1154.5</ele>
        <time>2026-08-27T12:16:17.308Z</time>
      </trkpt>
      <trkpt lat="47.82608" lon="7.00711">
        <ele>1154.5</ele>
        <time>2026-08-27T12:16:18.316Z</time>
      </trkpt>
      <trkpt lat="47.82607" lon="7.00711">
        <ele>1154</ele>
        <time>2026-08-27T12:16:19.324Z</time>
      </trkpt>
      <trkpt lat="47.82605" lon="7.00713">
        <ele>1153.8</ele>
        <time>2026-08-27T12:16:21.340Z</time>
      </trkpt>
      <trkpt lat="47.82604" lon="7.00715">
        <ele>1153.5</ele>
        <time>2026-08-27T12:16:22.349Z</time>
      </trkpt>
      <trkpt lat="47.82603" lon="7.00716">
        <ele>1153.5</ele>
        <time>2026-08-27T12:16:23.356Z</time>
      </trkpt>
      <trkpt lat="47.82602" lon="7.00717">
        <ele>1153.4</ele>
        <time>2026-08-27T12:16:24.364Z</time>
      </trkpt>
      <trkpt lat="47.82601" lon="7.00718">
        <ele>1153.2</ele>
        <time>2026-08-27T12:16:25.372Z</time>
      </trkpt>
      <trkpt lat="47.826" lon="7.0072">
        <ele>1153.2</ele>
        <time>2026-08-27T12:16:27.291Z</time>
      </trkpt>
      <trkpt lat="47.82599" lon="7.00722">
        <ele>1153</ele>
        <time>2026-08-27T12:16:28.295Z</time>
      </trkpt>
      <trkpt lat="47.82597" lon="7.00724">
        <ele>1152.8</ele>
        <time>2026-08-27T12:16:30.311Z</time>
      </trkpt>
      <trkpt lat="47.82596" lon="7.00724">
        <ele>1152.8</ele>
        <time>2026-08-27T12:16:31.320Z</time>
      </trkpt>
      <trkpt lat="47.82595" lon="7.00725">
        <ele>1152.6</ele>
        <time>2026-08-27T12:16:32.327Z</time>
      </trkpt>
      <trkpt lat="47.82595" lon="7.00727">
        <ele>1152.4</ele>
        <time>2026-08-27T12:16:33.335Z</time>
      </trkpt>
      <trkpt lat="47.82594" lon="7.00728">
        <ele>1152.4</ele>
        <time>2026-08-27T12:16:34.411Z</time>
      </trkpt>
      <trkpt lat="47.82592" lon="7.00729">
        <ele>1152.2</ele>
        <time>2026-08-27T12:16:36.375Z</time>
      </trkpt>
      <trkpt lat="47.82591" lon="7.0073">
        <ele>1152</ele>
        <time>2026-08-27T12:16:37.376Z</time>
      </trkpt>
      <trkpt lat="47.8259" lon="7.00731">
        <ele>1151.8</ele>
        <time>2026-08-27T12:16:38.384Z</time>
      </trkpt>
      <trkpt lat="47.8259" lon="7.00732">
        <ele>1151.7</ele>
        <time>2026-08-27T12:16:39.392Z</time>
      </trkpt>
      <trkpt lat="47.82588" lon="7.00735">
        <ele>1151.5</ele>
        <time>2026-08-27T12:16:41.248Z</time>
      </trkpt>
      <trkpt lat="47.82587" lon="7.00736">
        <ele>1151.4</ele>
        <time>2026-08-27T12:16:42.408Z</time>
      </trkpt>
      <trkpt lat="47.82586" lon="7.00737">
        <ele>1151.3</ele>
        <time>2026-08-27T12:16:44.332Z</time>
      </trkpt>
      <trkpt lat="47.82585" lon="7.00739">
        <ele>1151</ele>
        <time>2026-08-27T12:16:45.339Z</time>
      </trkpt>
      <trkpt lat="47.82584" lon="7.0074">
        <ele>1151.3</ele>
        <time>2026-08-27T12:16:46.347Z</time>
      </trkpt>
      <trkpt lat="47.82584" lon="7.00741">
        <ele>1151.2</ele>
        <time>2026-08-27T12:16:47.355Z</time>
      </trkpt>
      <trkpt lat="47.82583" lon="7.00742">
        <ele>1151</ele>
        <time>2026-08-27T12:16:48.363Z</time>
      </trkpt>
      <trkpt lat="47.82582" lon="7.00743">
        <ele>1150.7</ele>
        <time>2026-08-27T12:16:49.372Z</time>
      </trkpt>
      <trkpt lat="47.82582" lon="7.00745">
        <ele>1150.9</ele>
        <time>2026-08-27T12:16:50.380Z</time>
      </trkpt>
      <trkpt lat="47.8258" lon="7.00747">
        <ele>1150.8</ele>
        <time>2026-08-27T12:16:52.295Z</time>
      </trkpt>
      <trkpt lat="47.82579" lon="7.00748">
        <ele>1150.8</ele>
        <time>2026-08-27T12:16:53.303Z</time>
      </trkpt>
      <trkpt lat="47.82578" lon="7.00749">
        <ele>1150.9</ele>
        <time>2026-08-27T12:16:54.311Z</time>
      </trkpt>
      <trkpt lat="47.82577" lon="7.00751">
        <ele>1150.7</ele>
        <time>2026-08-27T12:16:56.277Z</time>
      </trkpt>
      <trkpt lat="47.82576" lon="7.00752">
        <ele>1150.6</ele>
        <time>2026-08-27T12:16:57.344Z</time>
      </trkpt>
      <trkpt lat="47.82575" lon="7.00753">
        <ele>1150.8</ele>
        <time>2026-08-27T12:16:58.351Z</time>
      </trkpt>
      <trkpt lat="47.82574" lon="7.00755">
        <ele>1150.7</ele>
        <time>2026-08-27T12:16:59.359Z</time>
      </trkpt>
      <trkpt lat="47.82573" lon="7.00757">
        <ele>1150.6</ele>
        <time>2026-08-27T12:17:01.376Z</time>
      </trkpt>
      <trkpt lat="47.82572" lon="7.0076">
        <ele>1150.4</ele>
        <time>2026-08-27T12:17:03.393Z</time>
      </trkpt>
      <trkpt lat="47.8257" lon="7.00764">
        <ele>1150.2</ele>
        <time>2026-08-27T12:17:05.308Z</time>
      </trkpt>
      <trkpt lat="47.82569" lon="7.00766">
        <ele>1150.3</ele>
        <time>2026-08-27T12:17:07.324Z</time>
      </trkpt>
      <trkpt lat="47.82568" lon="7.00768">
        <ele>1150.2</ele>
        <time>2026-08-27T12:17:08.332Z</time>
      </trkpt>
      <trkpt lat="47.82567" lon="7.00769">
        <ele>1150.1</ele>
        <time>2026-08-27T12:17:09.339Z</time>
      </trkpt>
      <trkpt lat="47.82566" lon="7.0077">
        <ele>1150</ele>
        <time>2026-08-27T12:17:10.347Z</time>
      </trkpt>
      <trkpt lat="47.82566" lon="7.00771">
        <ele>1150.3</ele>
        <time>2026-08-27T12:17:11.355Z</time>
      </trkpt>
      <trkpt lat="47.82565" lon="7.00772">
        <ele>1150.1</ele>
        <time>2026-08-27T12:17:12.363Z</time>
      </trkpt>
      <trkpt lat="47.82565" lon="7.00773">
        <ele>1150.1</ele>
        <time>2026-08-27T12:17:13.371Z</time>
      </trkpt>
      <trkpt lat="47.82564" lon="7.00775">
        <ele>1149.9</ele>
        <time>2026-08-27T12:17:14.379Z</time>
      </trkpt>
      <trkpt lat="47.82563" lon="7.00776">
        <ele>1149.8</ele>
        <time>2026-08-27T12:17:15.387Z</time>
      </trkpt>
      <trkpt lat="47.82563" lon="7.00778">
        <ele>1149.8</ele>
        <time>2026-08-27T12:17:16.395Z</time>
      </trkpt>
      <trkpt lat="47.82562" lon="7.00779">
        <ele>1149.8</ele>
        <time>2026-08-27T12:17:17.403Z</time>
      </trkpt>
      <trkpt lat="47.82561" lon="7.00781">
        <ele>1149.8</ele>
        <time>2026-08-27T12:17:19.319Z</time>
      </trkpt>
      <trkpt lat="47.8256" lon="7.00782">
        <ele>1149.8</ele>
        <time>2026-08-27T12:17:20.327Z</time>
      </trkpt>
      <trkpt lat="47.82559" lon="7.00784">
        <ele>1149.8</ele>
        <time>2026-08-27T12:17:21.336Z</time>
      </trkpt>
      <trkpt lat="47.82558" lon="7.00785">
        <ele>1150</ele>
        <time>2026-08-27T12:17:22.344Z</time>
      </trkpt>
      <trkpt lat="47.82558" lon="7.00786">
        <ele>1149.8</ele>
        <time>2026-08-27T12:17:23.351Z</time>
      </trkpt>
      <trkpt lat="47.82557" lon="7.00787">
        <ele>1149.8</ele>
        <time>2026-08-27T12:17:24.359Z</time>
      </trkpt>
      <trkpt lat="47.82556" lon="7.00788">
        <ele>1149.8</ele>
        <time>2026-08-27T12:17:25.367Z</time>
      </trkpt>
      <trkpt lat="47.82555" lon="7.0079">
        <ele>1149.8</ele>
        <time>2026-08-27T12:17:26.375Z</time>
      </trkpt>
      <trkpt lat="47.82555" lon="7.00791">
        <ele>1149.6</ele>
        <time>2026-08-27T12:17:27.383Z</time>
      </trkpt>
      <trkpt lat="47.82554" lon="7.00792">
        <ele>1149.9</ele>
        <time>2026-08-27T12:17:28.391Z</time>
      </trkpt>
      <trkpt lat="47.82552" lon="7.00794">
        <ele>1149.9</ele>
        <time>2026-08-27T12:17:30.307Z</time>
      </trkpt>
      <trkpt lat="47.82551" lon="7.00795">
        <ele>1149.7</ele>
        <time>2026-08-27T12:17:31.314Z</time>
      </trkpt>
      <trkpt lat="47.8255" lon="7.00796">
        <ele>1149.8</ele>
        <time>2026-08-27T12:17:32.323Z</time>
      </trkpt>
      <trkpt lat="47.8255" lon="7.00797">
        <ele>1149.8</ele>
        <time>2026-08-27T12:17:33.330Z</time>
      </trkpt>
      <trkpt lat="47.82549" lon="7.00798">
        <ele>1149.5</ele>
        <time>2026-08-27T12:17:34.338Z</time>
      </trkpt>
      <trkpt lat="47.82548" lon="7.00799">
        <ele>1149.6</ele>
        <time>2026-08-27T12:17:35.346Z</time>
      </trkpt>
      <trkpt lat="47.82547" lon="7.00801">
        <ele>1149.6</ele>
        <time>2026-08-27T12:17:36.347Z</time>
      </trkpt>
      <trkpt lat="47.82546" lon="7.00802">
        <ele>1149.3</ele>
        <time>2026-08-27T12:17:37.362Z</time>
      </trkpt>
      <trkpt lat="47.82545" lon="7.00803">
        <ele>1149.3</ele>
        <time>2026-08-27T12:17:38.370Z</time>
      </trkpt>
      <trkpt lat="47.82545" lon="7.00804">
        <ele>1149.2</ele>
        <time>2026-08-27T12:17:39.379Z</time>
      </trkpt>
      <trkpt lat="47.82543" lon="7.00806">
        <ele>1149.3</ele>
        <time>2026-08-27T12:17:41.269Z</time>
      </trkpt>
      <trkpt lat="47.82542" lon="7.00807">
        <ele>1149.1</ele>
        <time>2026-08-27T12:17:42.303Z</time>
      </trkpt>
      <trkpt lat="47.82541" lon="7.00808">
        <ele>1148.8</ele>
        <time>2026-08-27T12:17:43.310Z</time>
      </trkpt>
      <trkpt lat="47.8254" lon="7.00809">
        <ele>1148.9</ele>
        <time>2026-08-27T12:17:44.343Z</time>
      </trkpt>
      <trkpt lat="47.82539" lon="7.0081">
        <ele>1148.8</ele>
        <time>2026-08-27T12:17:45.401Z</time>
      </trkpt>
      <trkpt lat="47.82537" lon="7.00812">
        <ele>1148.7</ele>
        <time>2026-08-27T12:17:47.367Z</time>
      </trkpt>
      <trkpt lat="47.82535" lon="7.00814">
        <ele>1148.6</ele>
        <time>2026-08-27T12:17:49.383Z</time>
      </trkpt>
      <trkpt lat="47.82535" lon="7.00815">
        <ele>1148.5</ele>
        <time>2026-08-27T12:17:50.391Z</time>
      </trkpt>
      <trkpt lat="47.82534" lon="7.00816">
        <ele>1148.3</ele>
        <time>2026-08-27T12:17:51.400Z</time>
      </trkpt>
      <trkpt lat="47.82532" lon="7.00818">
        <ele>1148.2</ele>
        <time>2026-08-27T12:17:53.316Z</time>
      </trkpt>
      <trkpt lat="47.8253" lon="7.00819">
        <ele>1148.2</ele>
        <time>2026-08-27T12:17:55.331Z</time>
      </trkpt>
      <trkpt lat="47.82528" lon="7.0082">
        <ele>1148.3</ele>
        <time>2026-08-27T12:17:57.348Z</time>
      </trkpt>
      <trkpt lat="47.82527" lon="7.00821">
        <ele>1148.1</ele>
        <time>2026-08-27T12:17:58.355Z</time>
      </trkpt>
      <trkpt lat="47.82525" lon="7.00823">
        <ele>1148.1</ele>
        <time>2026-08-27T12:18:00.344Z</time>
      </trkpt>
      <trkpt lat="47.82524" lon="7.00824">
        <ele>1148</ele>
        <time>2026-08-27T12:18:01.387Z</time>
      </trkpt>
      <trkpt lat="47.82522" lon="7.00826">
        <ele>1147.7</ele>
        <time>2026-08-27T12:18:03.303Z</time>
      </trkpt>
      <trkpt lat="47.82521" lon="7.00827">
        <ele>1147.8</ele>
        <time>2026-08-27T12:18:04.312Z</time>
      </trkpt>
      <trkpt lat="47.8252" lon="7.00828">
        <ele>1147.7</ele>
        <time>2026-08-27T12:18:05.319Z</time>
      </trkpt>
      <trkpt lat="47.82519" lon="7.00829">
        <ele>1147.4</ele>
        <time>2026-08-27T12:18:06.327Z</time>
      </trkpt>
      <trkpt lat="47.82518" lon="7.0083">
        <ele>1147.4</ele>
        <time>2026-08-27T12:18:07.351Z</time>
      </trkpt>
      <trkpt lat="47.82517" lon="7.00832">
        <ele>1147.4</ele>
        <time>2026-08-27T12:18:09.351Z</time>
      </trkpt>
      <trkpt lat="47.82516" lon="7.00833">
        <ele>1147.1</ele>
        <time>2026-08-27T12:18:10.359Z</time>
      </trkpt>
      <trkpt lat="47.82515" lon="7.00834">
        <ele>1147.1</ele>
        <time>2026-08-27T12:18:11.367Z</time>
      </trkpt>
      <trkpt lat="47.82514" lon="7.00835">
        <ele>1147.1</ele>
        <time>2026-08-27T12:18:12.376Z</time>
      </trkpt>
      <trkpt lat="47.82513" lon="7.00836">
        <ele>1147</ele>
        <time>2026-08-27T12:18:13.383Z</time>
      </trkpt>
      <trkpt lat="47.82513" lon="7.00837">
        <ele>1147.1</ele>
        <time>2026-08-27T12:18:14.400Z</time>
      </trkpt>
      <trkpt lat="47.82511" lon="7.00839">
        <ele>1147</ele>
        <time>2026-08-27T12:18:16.315Z</time>
      </trkpt>
      <trkpt lat="47.8251" lon="7.0084">
        <ele>1146.7</ele>
        <time>2026-08-27T12:18:17.323Z</time>
      </trkpt>
      <trkpt lat="47.82509" lon="7.00841">
        <ele>1146.9</ele>
        <time>2026-08-27T12:18:18.398Z</time>
      </trkpt>
      <trkpt lat="47.82508" lon="7.00843">
        <ele>1146.9</ele>
        <time>2026-08-27T12:18:20.347Z</time>
      </trkpt>
      <trkpt lat="47.82507" lon="7.00844">
        <ele>1146.9</ele>
        <time>2026-08-27T12:18:21.361Z</time>
      </trkpt>
      <trkpt lat="47.82506" lon="7.00846">
        <ele>1146.7</ele>
        <time>2026-08-27T12:18:22.363Z</time>
      </trkpt>
      <trkpt lat="47.82505" lon="7.00847">
        <ele>1146.7</ele>
        <time>2026-08-27T12:18:23.379Z</time>
      </trkpt>
      <trkpt lat="47.82503" lon="7.00848">
        <ele>1146.6</ele>
        <time>2026-08-27T12:18:25.371Z</time>
      </trkpt>
      <trkpt lat="47.82502" lon="7.00849">
        <ele>1146.8</ele>
        <time>2026-08-27T12:18:26.403Z</time>
      </trkpt>
      <trkpt lat="47.82499" lon="7.0085">
        <ele>1146.6</ele>
        <time>2026-08-27T12:18:28.384Z</time>
      </trkpt>
      <trkpt lat="47.82497" lon="7.00852">
        <ele>1146.5</ele>
        <time>2026-08-27T12:18:30.351Z</time>
      </trkpt>
      <trkpt lat="47.82496" lon="7.00853">
        <ele>1146.7</ele>
        <time>2026-08-27T12:18:31.360Z</time>
      </trkpt>
      <trkpt lat="47.82495" lon="7.00855">
        <ele>1146.5</ele>
        <time>2026-08-27T12:18:33.275Z</time>
      </trkpt>
      <trkpt lat="47.82493" lon="7.00858">
        <ele>1146.2</ele>
        <time>2026-08-27T12:18:35.400Z</time>
      </trkpt>
      <trkpt lat="47.82492" lon="7.00861">
        <ele>1146</ele>
        <time>2026-08-27T12:18:37.315Z</time>
      </trkpt>
      <trkpt lat="47.82491" lon="7.00862">
        <ele>1146.1</ele>
        <time>2026-08-27T12:18:38.324Z</time>
      </trkpt>
      <trkpt lat="47.8249" lon="7.00863">
        <ele>1146.1</ele>
        <time>2026-08-27T12:18:39.366Z</time>
      </trkpt>
      <trkpt lat="47.82488" lon="7.00864">
        <ele>1145.9</ele>
        <time>2026-08-27T12:18:41.320Z</time>
      </trkpt>
      <trkpt lat="47.82487" lon="7.00866">
        <ele>1145.7</ele>
        <time>2026-08-27T12:18:42.365Z</time>
      </trkpt>
      <trkpt lat="47.82486" lon="7.00867">
        <ele>1145.7</ele>
        <time>2026-08-27T12:18:43.373Z</time>
      </trkpt>
      <trkpt lat="47.82485" lon="7.00868">
        <ele>1145.9</ele>
        <time>2026-08-27T12:18:44.380Z</time>
      </trkpt>
      <trkpt lat="47.82484" lon="7.0087">
        <ele>1145.4</ele>
        <time>2026-08-27T12:18:46.295Z</time>
      </trkpt>
      <trkpt lat="47.82483" lon="7.00871">
        <ele>1145.4</ele>
        <time>2026-08-27T12:18:47.312Z</time>
      </trkpt>
      <trkpt lat="47.82482" lon="7.00872">
        <ele>1145.4</ele>
        <time>2026-08-27T12:18:48.387Z</time>
      </trkpt>
      <trkpt lat="47.8248" lon="7.00874">
        <ele>1145.2</ele>
        <time>2026-08-27T12:18:50.336Z</time>
      </trkpt>
      <trkpt lat="47.82479" lon="7.00875">
        <ele>1145.1</ele>
        <time>2026-08-27T12:18:51.344Z</time>
      </trkpt>
      <trkpt lat="47.82478" lon="7.00877">
        <ele>1145.1</ele>
        <time>2026-08-27T12:18:52.350Z</time>
      </trkpt>
      <trkpt lat="47.82478" lon="7.00878">
        <ele>1144.9</ele>
        <time>2026-08-27T12:18:53.369Z</time>
      </trkpt>
      <trkpt lat="47.82477" lon="7.0088">
        <ele>1144.9</ele>
        <time>2026-08-27T12:18:54.377Z</time>
      </trkpt>
      <trkpt lat="47.82476" lon="7.00881">
        <ele>1145.2</ele>
        <time>2026-08-27T12:18:55.410Z</time>
      </trkpt>
      <trkpt lat="47.82475" lon="7.00883">
        <ele>1144.8</ele>
        <time>2026-08-27T12:18:57.064Z</time>
      </trkpt>
      <trkpt lat="47.82474" lon="7.00885">
        <ele>1144.7</ele>
        <time>2026-08-27T12:18:58.190Z</time>
      </trkpt>
      <trkpt lat="47.82474" lon="7.00886">
        <ele>1144.6</ele>
        <time>2026-08-27T12:18:59.316Z</time>
      </trkpt>
      <trkpt lat="47.82473" lon="7.00887">
        <ele>1144.7</ele>
        <time>2026-08-27T12:19:00.324Z</time>
      </trkpt>
      <trkpt lat="47.82472" lon="7.00889">
        <ele>1144.4</ele>
        <time>2026-08-27T12:19:01.332Z</time>
      </trkpt>
      <trkpt lat="47.82471" lon="7.0089">
        <ele>1144.4</ele>
        <time>2026-08-27T12:19:02.340Z</time>
      </trkpt>
      <trkpt lat="47.8247" lon="7.00891">
        <ele>1144.2</ele>
        <time>2026-08-27T12:19:03.348Z</time>
      </trkpt>
      <trkpt lat="47.82469" lon="7.00893">
        <ele>1144.2</ele>
        <time>2026-08-27T12:19:04.357Z</time>
      </trkpt>
      <trkpt lat="47.82468" lon="7.00895">
        <ele>1143.9</ele>
        <time>2026-08-27T12:19:06.389Z</time>
      </trkpt>
      <trkpt lat="47.82466" lon="7.00896">
        <ele>1143.9</ele>
        <time>2026-08-27T12:19:08.312Z</time>
      </trkpt>
      <trkpt lat="47.82465" lon="7.00897">
        <ele>1143.7</ele>
        <time>2026-08-27T12:19:09.320Z</time>
      </trkpt>
      <trkpt lat="47.82464" lon="7.00898">
        <ele>1143.9</ele>
        <time>2026-08-27T12:19:10.337Z</time>
      </trkpt>
      <trkpt lat="47.82462" lon="7.009">
        <ele>1143.6</ele>
        <time>2026-08-27T12:19:12.334Z</time>
      </trkpt>
      <trkpt lat="47.82461" lon="7.00901">
        <ele>1143.8</ele>
        <time>2026-08-27T12:19:13.370Z</time>
      </trkpt>
      <trkpt lat="47.82461" lon="7.00902">
        <ele>1143.6</ele>
        <time>2026-08-27T12:19:14.378Z</time>
      </trkpt>
      <trkpt lat="47.8246" lon="7.00904">
        <ele>1143.5</ele>
        <time>2026-08-27T12:19:15.385Z</time>
      </trkpt>
      <trkpt lat="47.82459" lon="7.00905">
        <ele>1143.5</ele>
        <time>2026-08-27T12:19:16.393Z</time>
      </trkpt>
      <trkpt lat="47.82458" lon="7.00907">
        <ele>1143.6</ele>
        <time>2026-08-27T12:19:18.309Z</time>
      </trkpt>
      <trkpt lat="47.82457" lon="7.00909">
        <ele>1143.5</ele>
        <time>2026-08-27T12:19:19.317Z</time>
      </trkpt>
      <trkpt lat="47.82455" lon="7.00911">
        <ele>1143.4</ele>
        <time>2026-08-27T12:19:21.333Z</time>
      </trkpt>
      <trkpt lat="47.82455" lon="7.00913">
        <ele>1143.4</ele>
        <time>2026-08-27T12:19:22.341Z</time>
      </trkpt>
      <trkpt lat="47.82454" lon="7.00914">
        <ele>1143.3</ele>
        <time>2026-08-27T12:19:23.350Z</time>
      </trkpt>
      <trkpt lat="47.82452" lon="7.00916">
        <ele>1143.1</ele>
        <time>2026-08-27T12:19:25.365Z</time>
      </trkpt>
      <trkpt lat="47.82451" lon="7.00918">
        <ele>1143.1</ele>
        <time>2026-08-27T12:19:27.381Z</time>
      </trkpt>
      <trkpt lat="47.8245" lon="7.0092">
        <ele>1142.9</ele>
        <time>2026-08-27T12:19:28.389Z</time>
      </trkpt>
      <trkpt lat="47.8245" lon="7.00921">
        <ele>1143.1</ele>
        <time>2026-08-27T12:19:29.398Z</time>
      </trkpt>
      <trkpt lat="47.82448" lon="7.00923">
        <ele>1142.8</ele>
        <time>2026-08-27T12:19:31.312Z</time>
      </trkpt>
      <trkpt lat="47.82448" lon="7.00925">
        <ele>1142.8</ele>
        <time>2026-08-27T12:19:32.371Z</time>
      </trkpt>
      <trkpt lat="47.82447" lon="7.00928">
        <ele>1142.5</ele>
        <time>2026-08-27T12:19:34.337Z</time>
      </trkpt>
      <trkpt lat="47.82446" lon="7.00929">
        <ele>1142.3</ele>
        <time>2026-08-27T12:19:35.354Z</time>
      </trkpt>
      <trkpt lat="47.82445" lon="7.0093">
        <ele>1142.2</ele>
        <time>2026-08-27T12:19:36.361Z</time>
      </trkpt>
      <trkpt lat="47.82445" lon="7.00931">
        <ele>1142</ele>
        <time>2026-08-27T12:19:37.369Z</time>
      </trkpt>
      <trkpt lat="47.82444" lon="7.00932">
        <ele>1142</ele>
        <time>2026-08-27T12:19:38.377Z</time>
      </trkpt>
      <trkpt lat="47.82443" lon="7.00933">
        <ele>1142</ele>
        <time>2026-08-27T12:19:39.393Z</time>
      </trkpt>
      <trkpt lat="47.82442" lon="7.00933">
        <ele>1141.7</ele>
        <time>2026-08-27T12:19:40.393Z</time>
      </trkpt>
      <trkpt lat="47.8244" lon="7.00935">
        <ele>1141.7</ele>
        <time>2026-08-27T12:19:42.216Z</time>
      </trkpt>
      <trkpt lat="47.82439" lon="7.00936">
        <ele>1141.3</ele>
        <time>2026-08-27T12:19:43.317Z</time>
      </trkpt>
      <trkpt lat="47.82439" lon="7.00937">
        <ele>1141.5</ele>
        <time>2026-08-27T12:19:44.324Z</time>
      </trkpt>
      <trkpt lat="47.82438" lon="7.00938">
        <ele>1141.4</ele>
        <time>2026-08-27T12:19:45.333Z</time>
      </trkpt>
      <trkpt lat="47.82437" lon="7.00939">
        <ele>1141.5</ele>
        <time>2026-08-27T12:19:46.349Z</time>
      </trkpt>
      <trkpt lat="47.82436" lon="7.00939">
        <ele>1141.5</ele>
        <time>2026-08-27T12:19:47.357Z</time>
      </trkpt>
      <trkpt lat="47.82435" lon="7.00942">
        <ele>1141.1</ele>
        <time>2026-08-27T12:19:49.381Z</time>
      </trkpt>
      <trkpt lat="47.82434" lon="7.00943">
        <ele>1141.1</ele>
        <time>2026-08-27T12:19:50.396Z</time>
      </trkpt>
      <trkpt lat="47.82433" lon="7.00944">
        <ele>1141.2</ele>
        <time>2026-08-27T12:19:51.406Z</time>
      </trkpt>
      <trkpt lat="47.82431" lon="7.00947">
        <ele>1141.3</ele>
        <time>2026-08-27T12:19:53.305Z</time>
      </trkpt>
      <trkpt lat="47.8243" lon="7.00948">
        <ele>1140.7</ele>
        <time>2026-08-27T12:19:54.337Z</time>
      </trkpt>
      <trkpt lat="47.82429" lon="7.00948">
        <ele>1140.8</ele>
        <time>2026-08-27T12:19:55.345Z</time>
      </trkpt>
      <trkpt lat="47.82428" lon="7.0095">
        <ele>1140.8</ele>
        <time>2026-08-27T12:19:56.376Z</time>
      </trkpt>
      <trkpt lat="47.82427" lon="7.00952">
        <ele>1140.6</ele>
        <time>2026-08-27T12:19:58.370Z</time>
      </trkpt>
      <trkpt lat="47.82425" lon="7.00954">
        <ele>1140.4</ele>
        <time>2026-08-27T12:20:00.385Z</time>
      </trkpt>
      <trkpt lat="47.82425" lon="7.00955">
        <ele>1140.4</ele>
        <time>2026-08-27T12:20:01.393Z</time>
      </trkpt>
      <trkpt lat="47.82424" lon="7.00956">
        <ele>1140.2</ele>
        <time>2026-08-27T12:20:02.401Z</time>
      </trkpt>
      <trkpt lat="47.82423" lon="7.00957">
        <ele>1140</ele>
        <time>2026-08-27T12:20:03.409Z</time>
      </trkpt>
      <trkpt lat="47.82421" lon="7.00959">
        <ele>1139.7</ele>
        <time>2026-08-27T12:20:05.325Z</time>
      </trkpt>
      <trkpt lat="47.82419" lon="7.00961">
        <ele>1139.5</ele>
        <time>2026-08-27T12:20:07.341Z</time>
      </trkpt>
      <trkpt lat="47.82418" lon="7.00962">
        <ele>1139.6</ele>
        <time>2026-08-27T12:20:08.349Z</time>
      </trkpt>
      <trkpt lat="47.82417" lon="7.00964">
        <ele>1139.6</ele>
        <time>2026-08-27T12:20:09.382Z</time>
      </trkpt>
      <trkpt lat="47.82415" lon="7.00965">
        <ele>1139</ele>
        <time>2026-08-27T12:20:11.382Z</time>
      </trkpt>
      <trkpt lat="47.82413" lon="7.00967">
        <ele>1139.1</ele>
        <time>2026-08-27T12:20:13.313Z</time>
      </trkpt>
      <trkpt lat="47.82413" lon="7.00969">
        <ele>1139.1</ele>
        <time>2026-08-27T12:20:14.321Z</time>
      </trkpt>
      <trkpt lat="47.82411" lon="7.00971">
        <ele>1139.2</ele>
        <time>2026-08-27T12:20:16.388Z</time>
      </trkpt>
      <trkpt lat="47.8241" lon="7.00974">
        <ele>1138.8</ele>
        <time>2026-08-27T12:20:18.354Z</time>
      </trkpt>
      <trkpt lat="47.82409" lon="7.00975">
        <ele>1138.8</ele>
        <time>2026-08-27T12:20:19.363Z</time>
      </trkpt>
      <trkpt lat="47.82408" lon="7.00979">
        <ele>1139.1</ele>
        <time>2026-08-27T12:20:21.387Z</time>
      </trkpt>
      <trkpt lat="47.82408" lon="7.0098">
        <ele>1138.8</ele>
        <time>2026-08-27T12:20:22.394Z</time>
      </trkpt>
      <trkpt lat="47.82406" lon="7.00983">
        <ele>1138.7</ele>
        <time>2026-08-27T12:20:24.309Z</time>
      </trkpt>
      <trkpt lat="47.82406" lon="7.00984">
        <ele>1138.7</ele>
        <time>2026-08-27T12:20:25.317Z</time>
      </trkpt>
      <trkpt lat="47.82406" lon="7.00986">
        <ele>1138.6</ele>
        <time>2026-08-27T12:20:26.325Z</time>
      </trkpt>
      <trkpt lat="47.82405" lon="7.00987">
        <ele>1138.5</ele>
        <time>2026-08-27T12:20:27.333Z</time>
      </trkpt>
      <trkpt lat="47.82405" lon="7.00988">
        <ele>1138.4</ele>
        <time>2026-08-27T12:20:28.341Z</time>
      </trkpt>
      <trkpt lat="47.82404" lon="7.00991">
        <ele>1138</ele>
        <time>2026-08-27T12:20:30.357Z</time>
      </trkpt>
      <trkpt lat="47.82403" lon="7.00992">
        <ele>1137.8</ele>
        <time>2026-08-27T12:20:31.366Z</time>
      </trkpt>
      <trkpt lat="47.82402" lon="7.00995">
        <ele>1137.5</ele>
        <time>2026-08-27T12:20:33.381Z</time>
      </trkpt>
      <trkpt lat="47.82402" lon="7.00996">
        <ele>1137.6</ele>
        <time>2026-08-27T12:20:34.389Z</time>
      </trkpt>
      <trkpt lat="47.824" lon="7.00998">
        <ele>1137.2</ele>
        <time>2026-08-27T12:20:36.314Z</time>
      </trkpt>
      <trkpt lat="47.82399" lon="7.01001">
        <ele>1137.2</ele>
        <time>2026-08-27T12:20:38.371Z</time>
      </trkpt>
      <trkpt lat="47.82398" lon="7.01003">
        <ele>1136.8</ele>
        <time>2026-08-27T12:20:40.312Z</time>
      </trkpt>
      <trkpt lat="47.82398" lon="7.01004">
        <ele>1136.6</ele>
        <time>2026-08-27T12:20:41.362Z</time>
      </trkpt>
      <trkpt lat="47.82397" lon="7.01006">
        <ele>1136.7</ele>
        <time>2026-08-27T12:20:42.370Z</time>
      </trkpt>
      <trkpt lat="47.82397" lon="7.01007">
        <ele>1136.7</ele>
        <time>2026-08-27T12:20:43.386Z</time>
      </trkpt>
      <trkpt lat="47.82396" lon="7.01008">
        <ele>1136.8</ele>
        <time>2026-08-27T12:20:44.394Z</time>
      </trkpt>
      <trkpt lat="47.82396" lon="7.0101">
        <ele>1136.7</ele>
        <time>2026-08-27T12:20:45.402Z</time>
      </trkpt>
      <trkpt lat="47.82394" lon="7.01012">
        <ele>1136.5</ele>
        <time>2026-08-27T12:20:47.317Z</time>
      </trkpt>
      <trkpt lat="47.82393" lon="7.01013">
        <ele>1136.3</ele>
        <time>2026-08-27T12:20:48.325Z</time>
      </trkpt>
      <trkpt lat="47.82392" lon="7.01014">
        <ele>1136.2</ele>
        <time>2026-08-27T12:20:49.333Z</time>
      </trkpt>
      <trkpt lat="47.82391" lon="7.01017">
        <ele>1136.1</ele>
        <time>2026-08-27T12:20:51.358Z</time>
      </trkpt>
      <trkpt lat="47.82391" lon="7.01019">
        <ele>1136.1</ele>
        <time>2026-08-27T12:20:53.374Z</time>
      </trkpt>
      <trkpt lat="47.8239" lon="7.0102">
        <ele>1136.1</ele>
        <time>2026-08-27T12:20:54.382Z</time>
      </trkpt>
      <trkpt lat="47.82388" lon="7.01023">
        <ele>1135.9</ele>
        <time>2026-08-27T12:20:56.399Z</time>
      </trkpt>
      <trkpt lat="47.82388" lon="7.01024">
        <ele>1135.9</ele>
        <time>2026-08-27T12:20:57.406Z</time>
      </trkpt>
      <trkpt lat="47.82386" lon="7.01027">
        <ele>1135.7</ele>
        <time>2026-08-27T12:20:59.322Z</time>
      </trkpt>
      <trkpt lat="47.82385" lon="7.01028">
        <ele>1135.5</ele>
        <time>2026-08-27T12:21:00.329Z</time>
      </trkpt>
      <trkpt lat="47.82385" lon="7.01029">
        <ele>1135.4</ele>
        <time>2026-08-27T12:21:01.337Z</time>
      </trkpt>
      <trkpt lat="47.82384" lon="7.01031">
        <ele>1135.4</ele>
        <time>2026-08-27T12:21:02.371Z</time>
      </trkpt>
      <trkpt lat="47.82382" lon="7.01033">
        <ele>1135.3</ele>
        <time>2026-08-27T12:21:04.361Z</time>
      </trkpt>
      <trkpt lat="47.82382" lon="7.01035">
        <ele>1135.3</ele>
        <time>2026-08-27T12:21:05.370Z</time>
      </trkpt>
      <trkpt lat="47.82381" lon="7.01036">
        <ele>1135.2</ele>
        <time>2026-08-27T12:21:06.377Z</time>
      </trkpt>
      <trkpt lat="47.8238" lon="7.01038">
        <ele>1135.1</ele>
        <time>2026-08-27T12:21:07.394Z</time>
      </trkpt>
      <trkpt lat="47.82379" lon="7.01039">
        <ele>1135.1</ele>
        <time>2026-08-27T12:21:08.402Z</time>
      </trkpt>
      <trkpt lat="47.82378" lon="7.01042">
        <ele>1135.1</ele>
        <time>2026-08-27T12:21:10.317Z</time>
      </trkpt>
      <trkpt lat="47.82376" lon="7.01044">
        <ele>1135.2</ele>
        <time>2026-08-27T12:21:12.343Z</time>
      </trkpt>
      <trkpt lat="47.82376" lon="7.01046">
        <ele>1135.4</ele>
        <time>2026-08-27T12:21:13.350Z</time>
      </trkpt>
      <trkpt lat="47.82375" lon="7.01048">
        <ele>1135.5</ele>
        <time>2026-08-27T12:21:14.374Z</time>
      </trkpt>
      <trkpt lat="47.82375" lon="7.01049">
        <ele>1135.4</ele>
        <time>2026-08-27T12:21:15.382Z</time>
      </trkpt>
      <trkpt lat="47.82374" lon="7.01051">
        <ele>1135.3</ele>
        <time>2026-08-27T12:21:16.391Z</time>
      </trkpt>
      <trkpt lat="47.82374" lon="7.01052">
        <ele>1135.3</ele>
        <time>2026-08-27T12:21:17.416Z</time>
      </trkpt>
      <trkpt lat="47.82374" lon="7.01054">
        <ele>1135.3</ele>
        <time>2026-08-27T12:21:18.575Z</time>
      </trkpt>
      <trkpt lat="47.82373" lon="7.01056">
        <ele>1135.2</ele>
        <time>2026-08-27T12:21:19.717Z</time>
      </trkpt>
      <trkpt lat="47.82372" lon="7.01058">
        <ele>1134.7</ele>
        <time>2026-08-27T12:21:20.960Z</time>
      </trkpt>
      <trkpt lat="47.82371" lon="7.01059">
        <ele>1134.8</ele>
        <time>2026-08-27T12:21:22.036Z</time>
      </trkpt>
      <trkpt lat="47.8237" lon="7.01061">
        <ele>1134.9</ele>
        <time>2026-08-27T12:21:23.178Z</time>
      </trkpt>
      <trkpt lat="47.82369" lon="7.01062">
        <ele>1135</ele>
        <time>2026-08-27T12:21:24.363Z</time>
      </trkpt>
      <trkpt lat="47.82368" lon="7.01064">
        <ele>1134.7</ele>
        <time>2026-08-27T12:21:25.370Z</time>
      </trkpt>
      <trkpt lat="47.82367" lon="7.01065">
        <ele>1134.7</ele>
        <time>2026-08-27T12:21:26.379Z</time>
      </trkpt>
      <trkpt lat="47.82366" lon="7.01068">
        <ele>1134.4</ele>
        <time>2026-08-27T12:21:28.394Z</time>
      </trkpt>
      <trkpt lat="47.82365" lon="7.01069">
        <ele>1134.1</ele>
        <time>2026-08-27T12:21:29.403Z</time>
      </trkpt>
      <trkpt lat="47.82364" lon="7.01071">
        <ele>1134</ele>
        <time>2026-08-27T12:21:31.309Z</time>
      </trkpt>
      <trkpt lat="47.82363" lon="7.01072">
        <ele>1133.9</ele>
        <time>2026-08-27T12:21:32.326Z</time>
      </trkpt>
      <trkpt lat="47.82363" lon="7.01074">
        <ele>1133.7</ele>
        <time>2026-08-27T12:21:33.334Z</time>
      </trkpt>
      <trkpt lat="47.82362" lon="7.01075">
        <ele>1133.7</ele>
        <time>2026-08-27T12:21:34.375Z</time>
      </trkpt>
      <trkpt lat="47.8236" lon="7.01078">
        <ele>1133.5</ele>
        <time>2026-08-27T12:21:36.358Z</time>
      </trkpt>
      <trkpt lat="47.82359" lon="7.0108">
        <ele>1133.2</ele>
        <time>2026-08-27T12:21:37.367Z</time>
      </trkpt>
      <trkpt lat="47.82359" lon="7.01082">
        <ele>1133</ele>
        <time>2026-08-27T12:21:38.375Z</time>
      </trkpt>
      <trkpt lat="47.82359" lon="7.01084">
        <ele>1133</ele>
        <time>2026-08-27T12:21:39.391Z</time>
      </trkpt>
      <trkpt lat="47.82358" lon="7.01087">
        <ele>1133.1</ele>
        <time>2026-08-27T12:21:41.331Z</time>
      </trkpt>
      <trkpt lat="47.82358" lon="7.01089">
        <ele>1133.1</ele>
        <time>2026-08-27T12:21:42.406Z</time>
      </trkpt>
      <trkpt lat="47.82357" lon="7.01092">
        <ele>1133</ele>
        <time>2026-08-27T12:21:44.321Z</time>
      </trkpt>
      <trkpt lat="47.82356" lon="7.01093">
        <ele>1133</ele>
        <time>2026-08-27T12:21:45.371Z</time>
      </trkpt>
      <trkpt lat="47.82355" lon="7.01095">
        <ele>1132.9</ele>
        <time>2026-08-27T12:21:46.389Z</time>
      </trkpt>
      <trkpt lat="47.82355" lon="7.01099">
        <ele>1132.9</ele>
        <time>2026-08-27T12:21:48.353Z</time>
      </trkpt>
      <trkpt lat="47.82355" lon="7.011">
        <ele>1132.7</ele>
        <time>2026-08-27T12:21:49.361Z</time>
      </trkpt>
      <trkpt lat="47.82354" lon="7.01102">
        <ele>1132.8</ele>
        <time>2026-08-27T12:21:50.369Z</time>
      </trkpt>
      <trkpt lat="47.82354" lon="7.01103">
        <ele>1132.8</ele>
        <time>2026-08-27T12:21:51.377Z</time>
      </trkpt>
      <trkpt lat="47.82353" lon="7.01105">
        <ele>1132.8</ele>
        <time>2026-08-27T12:21:52.386Z</time>
      </trkpt>
      <trkpt lat="47.82353" lon="7.01107">
        <ele>1132.9</ele>
        <time>2026-08-27T12:21:53.394Z</time>
      </trkpt>
      <trkpt lat="47.82352" lon="7.01108">
        <ele>1132.8</ele>
        <time>2026-08-27T12:21:54.402Z</time>
      </trkpt>
      <trkpt lat="47.82351" lon="7.01111">
        <ele>1132.7</ele>
        <time>2026-08-27T12:21:56.318Z</time>
      </trkpt>
      <trkpt lat="47.82351" lon="7.01112">
        <ele>1132.7</ele>
        <time>2026-08-27T12:21:57.325Z</time>
      </trkpt>
      <trkpt lat="47.82351" lon="7.01114">
        <ele>1132.7</ele>
        <time>2026-08-27T12:21:58.333Z</time>
      </trkpt>
      <trkpt lat="47.8235" lon="7.01115">
        <ele>1132.6</ele>
        <time>2026-08-27T12:21:59.374Z</time>
      </trkpt>
      <trkpt lat="47.8235" lon="7.01118">
        <ele>1132.5</ele>
        <time>2026-08-27T12:22:01.365Z</time>
      </trkpt>
      <trkpt lat="47.8235" lon="7.01119">
        <ele>1132.4</ele>
        <time>2026-08-27T12:22:02.374Z</time>
      </trkpt>
      <trkpt lat="47.82349" lon="7.01122">
        <ele>1132.5</ele>
        <time>2026-08-27T12:22:04.288Z</time>
      </trkpt>
      <trkpt lat="47.82348" lon="7.01124">
        <ele>1132.4</ele>
        <time>2026-08-27T12:22:05.396Z</time>
      </trkpt>
      <trkpt lat="47.82347" lon="7.01126">
        <ele>1132.4</ele>
        <time>2026-08-27T12:22:07.262Z</time>
      </trkpt>
      <trkpt lat="47.82346" lon="7.01128">
        <ele>1132.2</ele>
        <time>2026-08-27T12:22:08.337Z</time>
      </trkpt>
      <trkpt lat="47.82345" lon="7.01129">
        <ele>1132.2</ele>
        <time>2026-08-27T12:22:09.345Z</time>
      </trkpt>
      <trkpt lat="47.82344" lon="7.01131">
        <ele>1132.4</ele>
        <time>2026-08-27T12:22:10.353Z</time>
      </trkpt>
      <trkpt lat="47.82344" lon="7.01132">
        <ele>1132.7</ele>
        <time>2026-08-27T12:22:11.362Z</time>
      </trkpt>
      <trkpt lat="47.82343" lon="7.01133">
        <ele>1132.7</ele>
        <time>2026-08-27T12:22:12.378Z</time>
      </trkpt>
      <trkpt lat="47.82343" lon="7.01136">
        <ele>1132.6</ele>
        <time>2026-08-27T12:22:14.385Z</time>
      </trkpt>
      <trkpt lat="47.82342" lon="7.01138">
        <ele>1132.6</ele>
        <time>2026-08-27T12:22:15.393Z</time>
      </trkpt>
      <trkpt lat="47.82342" lon="7.01139">
        <ele>1132.5</ele>
        <time>2026-08-27T12:22:16.401Z</time>
      </trkpt>
      <trkpt lat="47.82341" lon="7.01143">
        <ele>1132.6</ele>
        <time>2026-08-27T12:22:18.359Z</time>
      </trkpt>
      <trkpt lat="47.8234" lon="7.01146">
        <ele>1132.5</ele>
        <time>2026-08-27T12:22:20.333Z</time>
      </trkpt>
      <trkpt lat="47.8234" lon="7.01148">
        <ele>1132.5</ele>
        <time>2026-08-27T12:22:21.342Z</time>
      </trkpt>
      <trkpt lat="47.82339" lon="7.01149">
        <ele>1132.4</ele>
        <time>2026-08-27T12:22:22.349Z</time>
      </trkpt>
      <trkpt lat="47.82339" lon="7.01151">
        <ele>1132.4</ele>
        <time>2026-08-27T12:22:23.357Z</time>
      </trkpt>
      <trkpt lat="47.82338" lon="7.01153">
        <ele>1132.4</ele>
        <time>2026-08-27T12:22:24.365Z</time>
      </trkpt>
      <trkpt lat="47.82338" lon="7.01154">
        <ele>1132.3</ele>
        <time>2026-08-27T12:22:25.373Z</time>
      </trkpt>
      <trkpt lat="47.82337" lon="7.01156">
        <ele>1132.3</ele>
        <time>2026-08-27T12:22:26.381Z</time>
      </trkpt>
      <trkpt lat="47.82337" lon="7.01157">
        <ele>1132.1</ele>
        <time>2026-08-27T12:22:27.389Z</time>
      </trkpt>
      <trkpt lat="47.82336" lon="7.01161">
        <ele>1131.9</ele>
        <time>2026-08-27T12:22:29.304Z</time>
      </trkpt>
      <trkpt lat="47.82335" lon="7.01163">
        <ele>1131.8</ele>
        <time>2026-08-27T12:22:30.312Z</time>
      </trkpt>
      <trkpt lat="47.82335" lon="7.01164">
        <ele>1131.9</ele>
        <time>2026-08-27T12:22:31.320Z</time>
      </trkpt>
      <trkpt lat="47.82334" lon="7.01166">
        <ele>1131.7</ele>
        <time>2026-08-27T12:22:32.328Z</time>
      </trkpt>
      <trkpt lat="47.82333" lon="7.01167">
        <ele>1131.8</ele>
        <time>2026-08-27T12:22:33.337Z</time>
      </trkpt>
      <trkpt lat="47.82333" lon="7.01168">
        <ele>1131.8</ele>
        <time>2026-08-27T12:22:34.344Z</time>
      </trkpt>
      <trkpt lat="47.82332" lon="7.01169">
        <ele>1131.8</ele>
        <time>2026-08-27T12:22:35.352Z</time>
      </trkpt>
      <trkpt lat="47.82331" lon="7.01171">
        <ele>1131.7</ele>
        <time>2026-08-27T12:22:36.360Z</time>
      </trkpt>
      <trkpt lat="47.8233" lon="7.01172">
        <ele>1131.6</ele>
        <time>2026-08-27T12:22:37.368Z</time>
      </trkpt>
      <trkpt lat="47.8233" lon="7.01173">
        <ele>1131.6</ele>
        <time>2026-08-27T12:22:38.377Z</time>
      </trkpt>
      <trkpt lat="47.82329" lon="7.01176">
        <ele>1131.8</ele>
        <time>2026-08-27T12:22:40.392Z</time>
      </trkpt>
      <trkpt lat="47.82328" lon="7.01178">
        <ele>1132</ele>
        <time>2026-08-27T12:22:41.400Z</time>
      </trkpt>
      <trkpt lat="47.82327" lon="7.01181">
        <ele>1131.8</ele>
        <time>2026-08-27T12:22:43.324Z</time>
      </trkpt>
      <trkpt lat="47.82326" lon="7.01183">
        <ele>1131.8</ele>
        <time>2026-08-27T12:22:44.333Z</time>
      </trkpt>
      <trkpt lat="47.82325" lon="7.01185">
        <ele>1131.9</ele>
        <time>2026-08-27T12:22:45.340Z</time>
      </trkpt>
      <trkpt lat="47.82323" lon="7.01187">
        <ele>1131.8</ele>
        <time>2026-08-27T12:22:47.407Z</time>
      </trkpt>
      <trkpt lat="47.82321" lon="7.0119">
        <ele>1131.9</ele>
        <time>2026-08-27T12:22:49.382Z</time>
      </trkpt>
      <trkpt lat="47.8232" lon="7.01191">
        <ele>1132</ele>
        <time>2026-08-27T12:22:50.390Z</time>
      </trkpt>
      <trkpt lat="47.8232" lon="7.01192">
        <ele>1132.1</ele>
        <time>2026-08-27T12:22:51.398Z</time>
      </trkpt>
      <trkpt lat="47.82318" lon="7.01194">
        <ele>1132</ele>
        <time>2026-08-27T12:22:53.313Z</time>
      </trkpt>
      <trkpt lat="47.82317" lon="7.01195">
        <ele>1132</ele>
        <time>2026-08-27T12:22:54.338Z</time>
      </trkpt>
      <trkpt lat="47.82316" lon="7.01197">
        <ele>1132</ele>
        <time>2026-08-27T12:22:56.260Z</time>
      </trkpt>
      <trkpt lat="47.82315" lon="7.01198">
        <ele>1131.9</ele>
        <time>2026-08-27T12:22:57.344Z</time>
      </trkpt>
      <trkpt lat="47.82314" lon="7.012">
        <ele>1132</ele>
        <time>2026-08-27T12:22:58.352Z</time>
      </trkpt>
      <trkpt lat="47.82313" lon="7.01202">
        <ele>1132.2</ele>
        <time>2026-08-27T12:23:00.368Z</time>
      </trkpt>
      <trkpt lat="47.82313" lon="7.01204">
        <ele>1132.1</ele>
        <time>2026-08-27T12:23:01.377Z</time>
      </trkpt>
      <trkpt lat="47.82313" lon="7.01208">
        <ele>1132.2</ele>
        <time>2026-08-27T12:23:03.300Z</time>
      </trkpt>
      <trkpt lat="47.82312" lon="7.0121">
        <ele>1132.1</ele>
        <time>2026-08-27T12:23:04.408Z</time>
      </trkpt>
      <trkpt lat="47.82312" lon="7.01213">
        <ele>1132</ele>
        <time>2026-08-27T12:23:06.248Z</time>
      </trkpt>
      <trkpt lat="47.82312" lon="7.01216">
        <ele>1131.9</ele>
        <time>2026-08-27T12:23:07.416Z</time>
      </trkpt>
      <trkpt lat="47.82312" lon="7.0122">
        <ele>1132</ele>
        <time>2026-08-27T12:23:09.331Z</time>
      </trkpt>
      <trkpt lat="47.82312" lon="7.01222">
        <ele>1132.2</ele>
        <time>2026-08-27T12:23:10.356Z</time>
      </trkpt>
      <trkpt lat="47.82311" lon="7.01224">
        <ele>1132.1</ele>
        <time>2026-08-27T12:23:11.364Z</time>
      </trkpt>
      <trkpt lat="47.8231" lon="7.01227">
        <ele>1132</ele>
        <time>2026-08-27T12:23:13.329Z</time>
      </trkpt>
      <trkpt lat="47.8231" lon="7.01228">
        <ele>1132</ele>
        <time>2026-08-27T12:23:14.388Z</time>
      </trkpt>
      <trkpt lat="47.82309" lon="7.0123">
        <ele>1131.7</ele>
        <time>2026-08-27T12:23:16.404Z</time>
      </trkpt>
      <trkpt lat="47.82308" lon="7.01233">
        <ele>1131.6</ele>
        <time>2026-08-27T12:23:18.320Z</time>
      </trkpt>
      <trkpt lat="47.82307" lon="7.01237">
        <ele>1131.6</ele>
        <time>2026-08-27T12:23:20.370Z</time>
      </trkpt>
      <trkpt lat="47.82307" lon="7.0124">
        <ele>1131.4</ele>
        <time>2026-08-27T12:23:22.352Z</time>
      </trkpt>
      <trkpt lat="47.82306" lon="7.01242">
        <ele>1131.2</ele>
        <time>2026-08-27T12:23:23.360Z</time>
      </trkpt>
      <trkpt lat="47.82306" lon="7.01244">
        <ele>1131</ele>
        <time>2026-08-27T12:23:24.377Z</time>
      </trkpt>
      <trkpt lat="47.82305" lon="7.01245">
        <ele>1130.9</ele>
        <time>2026-08-27T12:23:25.385Z</time>
      </trkpt>
      <trkpt lat="47.82305" lon="7.01248">
        <ele>1130.7</ele>
        <time>2026-08-27T12:23:27.330Z</time>
      </trkpt>
      <trkpt lat="47.82304" lon="7.01251">
        <ele>1130.6</ele>
        <time>2026-08-27T12:23:29.240Z</time>
      </trkpt>
      <trkpt lat="47.82303" lon="7.01253">
        <ele>1130.6</ele>
        <time>2026-08-27T12:23:30.363Z</time>
      </trkpt>
      <trkpt lat="47.82303" lon="7.01256">
        <ele>1130.2</ele>
        <time>2026-08-27T12:23:32.347Z</time>
      </trkpt>
      <trkpt lat="47.82302" lon="7.01258">
        <ele>1130.1</ele>
        <time>2026-08-27T12:23:33.365Z</time>
      </trkpt>
      <trkpt lat="47.82302" lon="7.0126">
        <ele>1130</ele>
        <time>2026-08-27T12:23:34.372Z</time>
      </trkpt>
      <trkpt lat="47.82301" lon="7.01263">
        <ele>1129.9</ele>
        <time>2026-08-27T12:23:36.389Z</time>
      </trkpt>
      <trkpt lat="47.82301" lon="7.01265">
        <ele>1130</ele>
        <time>2026-08-27T12:23:37.397Z</time>
      </trkpt>
      <trkpt lat="47.82301" lon="7.01267">
        <ele>1129.9</ele>
        <time>2026-08-27T12:23:38.404Z</time>
      </trkpt>
      <trkpt lat="47.82301" lon="7.0127">
        <ele>1130</ele>
        <time>2026-08-27T12:23:40.319Z</time>
      </trkpt>
      <trkpt lat="47.823" lon="7.01271">
        <ele>1129.9</ele>
        <time>2026-08-27T12:23:41.327Z</time>
      </trkpt>
      <trkpt lat="47.823" lon="7.01273">
        <ele>1129.9</ele>
        <time>2026-08-27T12:23:42.386Z</time>
      </trkpt>
      <trkpt lat="47.82299" lon="7.01275">
        <ele>1129.7</ele>
        <time>2026-08-27T12:23:44.351Z</time>
      </trkpt>
      <trkpt lat="47.82299" lon="7.01276">
        <ele>1129.5</ele>
        <time>2026-08-27T12:23:45.360Z</time>
      </trkpt>
      <trkpt lat="47.823" lon="7.01278">
        <ele>1129.3</ele>
        <time>2026-08-27T12:23:46.367Z</time>
      </trkpt>
      <trkpt lat="47.823" lon="7.01279">
        <ele>1129.5</ele>
        <time>2026-08-27T12:23:47.376Z</time>
      </trkpt>
      <trkpt lat="47.823" lon="7.0128">
        <ele>1129.4</ele>
        <time>2026-08-27T12:23:48.384Z</time>
      </trkpt>
      <trkpt lat="47.82299" lon="7.01282">
        <ele>1129.3</ele>
        <time>2026-08-27T12:23:49.391Z</time>
      </trkpt>
      <trkpt lat="47.82299" lon="7.01284">
        <ele>1129.1</ele>
        <time>2026-08-27T12:23:51.307Z</time>
      </trkpt>
      <trkpt lat="47.82299" lon="7.01286">
        <ele>1129.1</ele>
        <time>2026-08-27T12:23:52.365Z</time>
      </trkpt>
      <trkpt lat="47.82298" lon="7.01288">
        <ele>1128.8</ele>
        <time>2026-08-27T12:23:54.331Z</time>
      </trkpt>
      <trkpt lat="47.82298" lon="7.01289">
        <ele>1128.6</ele>
        <time>2026-08-27T12:23:55.340Z</time>
      </trkpt>
      <trkpt lat="47.82298" lon="7.01291">
        <ele>1128.6</ele>
        <time>2026-08-27T12:23:56.348Z</time>
      </trkpt>
      <trkpt lat="47.82298" lon="7.01292">
        <ele>1128.5</ele>
        <time>2026-08-27T12:23:57.355Z</time>
      </trkpt>
      <trkpt lat="47.82298" lon="7.01292">
        <ele>1128.6</ele>
        <time>2026-08-27T12:23:58.363Z</time>
      </trkpt>
      <trkpt lat="47.82298" lon="7.01291">
        <ele>1128.5</ele>
        <time>2026-08-27T12:24:00.316Z</time>
      </trkpt>
      <trkpt lat="47.82298" lon="7.01291">
        <ele>1128.7</ele>
        <time>2026-08-27T12:24:01.324Z</time>
      </trkpt>
      <trkpt lat="47.82298" lon="7.0129">
        <ele>1128.8</ele>
        <time>2026-08-27T12:24:02.332Z</time>
      </trkpt>
      <trkpt lat="47.82298" lon="7.0129">
        <ele>1128.8</ele>
        <time>2026-08-27T12:24:03.341Z</time>
      </trkpt>
      <trkpt lat="47.82299" lon="7.0129">
        <ele>1128.8</ele>
        <time>2026-08-27T12:24:04.348Z</time>
      </trkpt>
      <trkpt lat="47.82299" lon="7.0129">
        <ele>1128.8</ele>
        <time>2026-08-27T12:24:05.356Z</time>
      </trkpt>
      <trkpt lat="47.82299" lon="7.0129">
        <ele>1129</ele>
        <time>2026-08-27T12:24:06.364Z</time>
      </trkpt>
      <trkpt lat="47.82299" lon="7.01289">
        <ele>1129.2</ele>
        <time>2026-08-27T12:24:07.373Z</time>
      </trkpt>
      <trkpt lat="47.82299" lon="7.01289">
        <ele>1129.3</ele>
        <time>2026-08-27T12:24:09.288Z</time>
      </trkpt>
      <trkpt lat="47.82299" lon="7.01289">
        <ele>1129.3</ele>
        <time>2026-08-27T12:24:10.296Z</time>
      </trkpt>
      <trkpt lat="47.82299" lon="7.01289">
        <ele>1129.3</ele>
        <time>2026-08-27T12:24:11.303Z</time>
      </trkpt>
      <trkpt lat="47.82299" lon="7.01289">
        <ele>1129.4</ele>
        <time>2026-08-27T12:24:12.311Z</time>
      </trkpt>
      <trkpt lat="47.82299" lon="7.01289">
        <ele>1129.4</ele>
        <time>2026-08-27T12:24:13.320Z</time>
      </trkpt>
      <trkpt lat="47.82299" lon="7.01289">
        <ele>1129.2</ele>
        <time>2026-08-27T12:24:14.328Z</time>
      </trkpt>
      <trkpt lat="47.82299" lon="7.01289">
        <ele>1129.2</ele>
        <time>2026-08-27T12:24:15.336Z</time>
      </trkpt>
      <trkpt lat="47.82299" lon="7.0129">
        <ele>1129.3</ele>
        <time>2026-08-27T12:24:16.344Z</time>
      </trkpt>
      <trkpt lat="47.82299" lon="7.01291">
        <ele>1129.3</ele>
        <time>2026-08-27T12:24:17.364Z</time>
      </trkpt>
      <trkpt lat="47.82299" lon="7.01292">
        <ele>1129.2</ele>
        <time>2026-08-27T12:24:18.373Z</time>
      </trkpt>
      <trkpt lat="47.82298" lon="7.01294">
        <ele>1129.1</ele>
        <time>2026-08-27T12:24:19.380Z</time>
      </trkpt>
      <trkpt lat="47.82298" lon="7.01295">
        <ele>1129.2</ele>
        <time>2026-08-27T12:24:20.389Z</time>
      </trkpt>
      <trkpt lat="47.82297" lon="7.01297">
        <ele>1129</ele>
        <time>2026-08-27T12:24:21.398Z</time>
      </trkpt>
      <trkpt lat="47.82297" lon="7.01301">
        <ele>1128.5</ele>
        <time>2026-08-27T12:24:23.312Z</time>
      </trkpt>
      <trkpt lat="47.82297" lon="7.01302">
        <ele>1128.2</ele>
        <time>2026-08-27T12:24:24.329Z</time>
      </trkpt>
      <trkpt lat="47.82296" lon="7.01304">
        <ele>1128.2</ele>
        <time>2026-08-27T12:24:25.336Z</time>
      </trkpt>
      <trkpt lat="47.82296" lon="7.01306">
        <ele>1128.2</ele>
        <time>2026-08-27T12:24:26.403Z</time>
      </trkpt>
      <trkpt lat="47.82295" lon="7.01309">
        <ele>1128</ele>
        <time>2026-08-27T12:24:28.320Z</time>
      </trkpt>
      <trkpt lat="47.82294" lon="7.0131">
        <ele>1127.8</ele>
        <time>2026-08-27T12:24:29.328Z</time>
      </trkpt>
      <trkpt lat="47.82295" lon="7.01311">
        <ele>1127.5</ele>
        <time>2026-08-27T12:24:30.377Z</time>
      </trkpt>
      <trkpt lat="47.82295" lon="7.01312">
        <ele>1127.4</ele>
        <time>2026-08-27T12:24:31.386Z</time>
      </trkpt>
      <trkpt lat="47.82294" lon="7.01312">
        <ele>1127.3</ele>
        <time>2026-08-27T12:24:32.393Z</time>
      </trkpt>
      <trkpt lat="47.82293" lon="7.01313">
        <ele>1127.2</ele>
        <time>2026-08-27T12:24:34.308Z</time>
      </trkpt>
      <trkpt lat="47.82292" lon="7.01314">
        <ele>1127.4</ele>
        <time>2026-08-27T12:24:35.316Z</time>
      </trkpt>
      <trkpt lat="47.82292" lon="7.01316">
        <ele>1127.4</ele>
        <time>2026-08-27T12:24:36.340Z</time>
      </trkpt>
      <trkpt lat="47.82291" lon="7.01318">
        <ele>1127.4</ele>
        <time>2026-08-27T12:24:37.391Z</time>
      </trkpt>
      <trkpt lat="47.82292" lon="7.0132">
        <ele>1127.4</ele>
        <time>2026-08-27T12:24:39.366Z</time>
      </trkpt>
      <trkpt lat="47.82292" lon="7.0132">
        <ele>1127.3</ele>
        <time>2026-08-27T12:24:40.374Z</time>
      </trkpt>
      <trkpt lat="47.82292" lon="7.0132">
        <ele>1127.4</ele>
        <time>2026-08-27T12:24:41.383Z</time>
      </trkpt>
      <trkpt lat="47.82292" lon="7.01319">
        <ele>1127.4</ele>
        <time>2026-08-27T12:24:42.391Z</time>
      </trkpt>
      <trkpt lat="47.82292" lon="7.01319">
        <ele>1127.2</ele>
        <time>2026-08-27T12:24:43.398Z</time>
      </trkpt>
      <trkpt lat="47.82291" lon="7.0132">
        <ele>1127.3</ele>
        <time>2026-08-27T12:24:45.313Z</time>
      </trkpt>
      <trkpt lat="47.82289" lon="7.01322">
        <ele>1127.3</ele>
        <time>2026-08-27T12:24:46.411Z</time>
      </trkpt>
      <trkpt lat="47.82288" lon="7.01326">
        <ele>1127.1</ele>
        <time>2026-08-27T12:24:48.263Z</time>
      </trkpt>
      <trkpt lat="47.82288" lon="7.01329">
        <ele>1126.5</ele>
        <time>2026-08-27T12:24:50.353Z</time>
      </trkpt>
      <trkpt lat="47.82287" lon="7.01332">
        <ele>1126.1</ele>
        <time>2026-08-27T12:24:52.369Z</time>
      </trkpt>
      <trkpt lat="47.82287" lon="7.01333">
        <ele>1125.8</ele>
        <time>2026-08-27T12:24:53.377Z</time>
      </trkpt>
      <trkpt lat="47.82287" lon="7.01335">
        <ele>1125.7</ele>
        <time>2026-08-27T12:24:54.386Z</time>
      </trkpt>
      <trkpt lat="47.82286" lon="7.01336">
        <ele>1125.6</ele>
        <time>2026-08-27T12:24:55.395Z</time>
      </trkpt>
      <trkpt lat="47.82286" lon="7.01337">
        <ele>1125.5</ele>
        <time>2026-08-27T12:24:56.402Z</time>
      </trkpt>
      <trkpt lat="47.82286" lon="7.01339">
        <ele>1125.3</ele>
        <time>2026-08-27T12:24:57.410Z</time>
      </trkpt>
      <trkpt lat="47.82285" lon="7.01343">
        <ele>1124.9</ele>
        <time>2026-08-27T12:24:59.326Z</time>
      </trkpt>
      <trkpt lat="47.82284" lon="7.01344">
        <ele>1124.9</ele>
        <time>2026-08-27T12:25:00.333Z</time>
      </trkpt>
      <trkpt lat="47.82284" lon="7.01347">
        <ele>1124.6</ele>
        <time>2026-08-27T12:25:02.349Z</time>
      </trkpt>
      <trkpt lat="47.82284" lon="7.01348">
        <ele>1124.6</ele>
        <time>2026-08-27T12:25:03.349Z</time>
      </trkpt>
      <trkpt lat="47.82284" lon="7.0135">
        <ele>1124.4</ele>
        <time>2026-08-27T12:25:04.365Z</time>
      </trkpt>
      <trkpt lat="47.82284" lon="7.01351">
        <ele>1124.6</ele>
        <time>2026-08-27T12:25:05.374Z</time>
      </trkpt>
      <trkpt lat="47.82283" lon="7.01352">
        <ele>1124.3</ele>
        <time>2026-08-27T12:25:06.381Z</time>
      </trkpt>
      <trkpt lat="47.82283" lon="7.01354">
        <ele>1124.2</ele>
        <time>2026-08-27T12:25:07.389Z</time>
      </trkpt>
      <trkpt lat="47.82283" lon="7.01355">
        <ele>1124</ele>
        <time>2026-08-27T12:25:08.398Z</time>
      </trkpt>
      <trkpt lat="47.82283" lon="7.01357">
        <ele>1124</ele>
        <time>2026-08-27T12:25:09.406Z</time>
      </trkpt>
      <trkpt lat="47.82283" lon="7.0136">
        <ele>1123.8</ele>
        <time>2026-08-27T12:25:11.322Z</time>
      </trkpt>
      <trkpt lat="47.82282" lon="7.01361">
        <ele>1123.5</ele>
        <time>2026-08-27T12:25:12.329Z</time>
      </trkpt>
      <trkpt lat="47.82282" lon="7.01364">
        <ele>1123.2</ele>
        <time>2026-08-27T12:25:14.370Z</time>
      </trkpt>
      <trkpt lat="47.82282" lon="7.01366">
        <ele>1123.1</ele>
        <time>2026-08-27T12:25:16.370Z</time>
      </trkpt>
      <trkpt lat="47.82282" lon="7.01368">
        <ele>1123</ele>
        <time>2026-08-27T12:25:17.377Z</time>
      </trkpt>
      <trkpt lat="47.82281" lon="7.01369">
        <ele>1122.8</ele>
        <time>2026-08-27T12:25:18.385Z</time>
      </trkpt>
      <trkpt lat="47.82281" lon="7.01371">
        <ele>1122.6</ele>
        <time>2026-08-27T12:25:19.393Z</time>
      </trkpt>
      <trkpt lat="47.82281" lon="7.01372">
        <ele>1122.5</ele>
        <time>2026-08-27T12:25:20.410Z</time>
      </trkpt>
      <trkpt lat="47.8228" lon="7.01374">
        <ele>1122.2</ele>
        <time>2026-08-27T12:25:21.527Z</time>
      </trkpt>
      <trkpt lat="47.8228" lon="7.01375">
        <ele>1122</ele>
        <time>2026-08-27T12:25:22.829Z</time>
      </trkpt>
      <trkpt lat="47.82279" lon="7.01377">
        <ele>1122</ele>
        <time>2026-08-27T12:25:23.930Z</time>
      </trkpt>
      <trkpt lat="47.82279" lon="7.01378">
        <ele>1121.8</ele>
        <time>2026-08-27T12:25:24.989Z</time>
      </trkpt>
      <trkpt lat="47.82278" lon="7.0138">
        <ele>1121.7</ele>
        <time>2026-08-27T12:25:26.231Z</time>
      </trkpt>
      <trkpt lat="47.82278" lon="7.01381">
        <ele>1121.5</ele>
        <time>2026-08-27T12:25:27.365Z</time>
      </trkpt>
      <trkpt lat="47.82277" lon="7.01382">
        <ele>1121.2</ele>
        <time>2026-08-27T12:25:28.365Z</time>
      </trkpt>
      <trkpt lat="47.82277" lon="7.01383">
        <ele>1121.3</ele>
        <time>2026-08-27T12:25:29.373Z</time>
      </trkpt>
      <trkpt lat="47.82276" lon="7.01384">
        <ele>1121.2</ele>
        <time>2026-08-27T12:25:30.381Z</time>
      </trkpt>
      <trkpt lat="47.82275" lon="7.01387">
        <ele>1121</ele>
        <time>2026-08-27T12:25:32.330Z</time>
      </trkpt>
      <trkpt lat="47.82274" lon="7.01388">
        <ele>1121</ele>
        <time>2026-08-27T12:25:33.405Z</time>
      </trkpt>
      <trkpt lat="47.82274" lon="7.0139">
        <ele>1121.1</ele>
        <time>2026-08-27T12:25:35.320Z</time>
      </trkpt>
      <trkpt lat="47.82274" lon="7.01391">
        <ele>1121.1</ele>
        <time>2026-08-27T12:25:36.387Z</time>
      </trkpt>
      <trkpt lat="47.82273" lon="7.01392">
        <ele>1121.1</ele>
        <time>2026-08-27T12:25:37.413Z</time>
      </trkpt>
      <trkpt lat="47.82274" lon="7.01393">
        <ele>1121.1</ele>
        <time>2026-08-27T12:25:39.369Z</time>
      </trkpt>
      <trkpt lat="47.82273" lon="7.01395">
        <ele>1121.2</ele>
        <time>2026-08-27T12:25:41.370Z</time>
      </trkpt>
      <trkpt lat="47.82273" lon="7.01396">
        <ele>1121</ele>
        <time>2026-08-27T12:25:42.377Z</time>
      </trkpt>
      <trkpt lat="47.82273" lon="7.01398">
        <ele>1121</ele>
        <time>2026-08-27T12:25:43.386Z</time>
      </trkpt>
      <trkpt lat="47.82274" lon="7.014">
        <ele>1121</ele>
        <time>2026-08-27T12:25:44.409Z</time>
      </trkpt>
      <trkpt lat="47.82275" lon="7.01401">
        <ele>1120.7</ele>
        <time>2026-08-27T12:25:45.528Z</time>
      </trkpt>
      <trkpt lat="47.82277" lon="7.01405">
        <ele>1120.3</ele>
        <time>2026-08-27T12:25:47.744Z</time>
      </trkpt>
      <trkpt lat="47.82277" lon="7.01407">
        <ele>1120.1</ele>
        <time>2026-08-27T12:25:48.913Z</time>
      </trkpt>
      <trkpt lat="47.82278" lon="7.01409">
        <ele>1119.9</ele>
        <time>2026-08-27T12:25:50.106Z</time>
      </trkpt>
      <trkpt lat="47.82278" lon="7.0141">
        <ele>1119.5</ele>
        <time>2026-08-27T12:25:51.131Z</time>
      </trkpt>
      <trkpt lat="47.82278" lon="7.01414">
        <ele>1119</ele>
        <time>2026-08-27T12:25:53.230Z</time>
      </trkpt>
      <trkpt lat="47.82279" lon="7.01415">
        <ele>1118.8</ele>
        <time>2026-08-27T12:25:54.288Z</time>
      </trkpt>
      <trkpt lat="47.82279" lon="7.01417">
        <ele>1118</ele>
        <time>2026-08-27T12:25:55.380Z</time>
      </trkpt>
      <trkpt lat="47.82279" lon="7.01419">
        <ele>1117.8</ele>
        <time>2026-08-27T12:25:56.388Z</time>
      </trkpt>
      <trkpt lat="47.8228" lon="7.0142">
        <ele>1117.4</ele>
        <time>2026-08-27T12:25:57.397Z</time>
      </trkpt>
      <trkpt lat="47.8228" lon="7.01423">
        <ele>1116.9</ele>
        <time>2026-08-27T12:25:59.321Z</time>
      </trkpt>
      <trkpt lat="47.82281" lon="7.01425">
        <ele>1116.7</ele>
        <time>2026-08-27T12:26:00.329Z</time>
      </trkpt>
      <trkpt lat="47.82281" lon="7.01426">
        <ele>1116.6</ele>
        <time>2026-08-27T12:26:01.336Z</time>
      </trkpt>
      <trkpt lat="47.82282" lon="7.01428">
        <ele>1116.4</ele>
        <time>2026-08-27T12:26:02.344Z</time>
      </trkpt>
      <trkpt lat="47.82283" lon="7.01429">
        <ele>1116.2</ele>
        <time>2026-08-27T12:26:03.360Z</time>
      </trkpt>
      <trkpt lat="47.82283" lon="7.01431">
        <ele>1115.9</ele>
        <time>2026-08-27T12:26:04.369Z</time>
      </trkpt>
      <trkpt lat="47.82284" lon="7.01432">
        <ele>1115.7</ele>
        <time>2026-08-27T12:26:05.378Z</time>
      </trkpt>
      <trkpt lat="47.82285" lon="7.01435">
        <ele>1115.2</ele>
        <time>2026-08-27T12:26:07.393Z</time>
      </trkpt>
      <trkpt lat="47.82286" lon="7.01438">
        <ele>1114.7</ele>
        <time>2026-08-27T12:26:09.325Z</time>
      </trkpt>
      <trkpt lat="47.82286" lon="7.01439">
        <ele>1114.4</ele>
        <time>2026-08-27T12:26:10.333Z</time>
      </trkpt>
      <trkpt lat="47.82287" lon="7.0144">
        <ele>1114.1</ele>
        <time>2026-08-27T12:26:11.341Z</time>
      </trkpt>
      <trkpt lat="47.82288" lon="7.01442">
        <ele>1113.7</ele>
        <time>2026-08-27T12:26:13.357Z</time>
      </trkpt>
      <trkpt lat="47.82289" lon="7.01442">
        <ele>1113.4</ele>
        <time>2026-08-27T12:26:14.398Z</time>
      </trkpt>
      <trkpt lat="47.82291" lon="7.01444">
        <ele>1112.9</ele>
        <time>2026-08-27T12:26:16.381Z</time>
      </trkpt>
      <trkpt lat="47.82293" lon="7.01445">
        <ele>1112.4</ele>
        <time>2026-08-27T12:26:18.398Z</time>
      </trkpt>
      <trkpt lat="47.82294" lon="7.01446">
        <ele>1111.9</ele>
        <time>2026-08-27T12:26:20.245Z</time>
      </trkpt>
      <trkpt lat="47.82295" lon="7.01446">
        <ele>1111.6</ele>
        <time>2026-08-27T12:26:21.329Z</time>
      </trkpt>
      <trkpt lat="47.82296" lon="7.01446">
        <ele>1111.4</ele>
        <time>2026-08-27T12:26:22.337Z</time>
      </trkpt>
      <trkpt lat="47.82297" lon="7.01447">
        <ele>1111.1</ele>
        <time>2026-08-27T12:26:23.346Z</time>
      </trkpt>
      <trkpt lat="47.82298" lon="7.01448">
        <ele>1111</ele>
        <time>2026-08-27T12:26:24.361Z</time>
      </trkpt>
      <trkpt lat="47.82299" lon="7.01448">
        <ele>1110.6</ele>
        <time>2026-08-27T12:26:25.369Z</time>
      </trkpt>
      <trkpt lat="47.823" lon="7.01448">
        <ele>1110.5</ele>
        <time>2026-08-27T12:26:26.377Z</time>
      </trkpt>
      <trkpt lat="47.82301" lon="7.01447">
        <ele>1110.5</ele>
        <time>2026-08-27T12:26:27.385Z</time>
      </trkpt>
      <trkpt lat="47.82302" lon="7.01447">
        <ele>1110.4</ele>
        <time>2026-08-27T12:26:28.393Z</time>
      </trkpt>
      <trkpt lat="47.82303" lon="7.01446">
        <ele>1110.2</ele>
        <time>2026-08-27T12:26:29.402Z</time>
      </trkpt>
      <trkpt lat="47.82304" lon="7.01446">
        <ele>1109.9</ele>
        <time>2026-08-27T12:26:30.409Z</time>
      </trkpt>
      <trkpt lat="47.82305" lon="7.01444">
        <ele>1110</ele>
        <time>2026-08-27T12:26:32.325Z</time>
      </trkpt>
      <trkpt lat="47.82305" lon="7.01443">
        <ele>1110</ele>
        <time>2026-08-27T12:26:33.333Z</time>
      </trkpt>
      <trkpt lat="47.82305" lon="7.01441">
        <ele>1110.1</ele>
        <time>2026-08-27T12:26:34.342Z</time>
      </trkpt>
      <trkpt lat="47.82305" lon="7.01441">
        <ele>1110</ele>
        <time>2026-08-27T12:26:35.349Z</time>
      </trkpt>
      <trkpt lat="47.82305" lon="7.01442">
        <ele>1110.3</ele>
        <time>2026-08-27T12:26:37.365Z</time>
      </trkpt>
      <trkpt lat="47.82305" lon="7.01443">
        <ele>1110.2</ele>
        <time>2026-08-27T12:26:39.280Z</time>
      </trkpt>
      <trkpt lat="47.82305" lon="7.01443">
        <ele>1110.3</ele>
        <time>2026-08-27T12:26:40.389Z</time>
      </trkpt>
      <trkpt lat="47.82304" lon="7.01443">
        <ele>1110.2</ele>
        <time>2026-08-27T12:26:41.397Z</time>
      </trkpt>
      <trkpt lat="47.82304" lon="7.01443">
        <ele>1110.2</ele>
        <time>2026-08-27T12:26:42.405Z</time>
      </trkpt>
      <trkpt lat="47.82304" lon="7.01443">
        <ele>1110.2</ele>
        <time>2026-08-27T12:26:44.404Z</time>
      </trkpt>
      <trkpt lat="47.82304" lon="7.01441">
        <ele>1110</ele>
        <time>2026-08-27T12:26:46.336Z</time>
      </trkpt>
      <trkpt lat="47.82305" lon="7.01439">
        <ele>1109.7</ele>
        <time>2026-08-27T12:26:48.352Z</time>
      </trkpt>
      <trkpt lat="47.82306" lon="7.01438">
        <ele>1109.7</ele>
        <time>2026-08-27T12:26:49.360Z</time>
      </trkpt>
      <trkpt lat="47.82307" lon="7.01436">
        <ele>1109.8</ele>
        <time>2026-08-27T12:26:50.368Z</time>
      </trkpt>
      <trkpt lat="47.82308" lon="7.01436">
        <ele>1109.8</ele>
        <time>2026-08-27T12:26:51.377Z</time>
      </trkpt>
      <trkpt lat="47.82309" lon="7.01435">
        <ele>1109.6</ele>
        <time>2026-08-27T12:26:52.385Z</time>
      </trkpt>
      <trkpt lat="47.82311" lon="7.01436">
        <ele>1109.5</ele>
        <time>2026-08-27T12:26:54.401Z</time>
      </trkpt>
      <trkpt lat="47.82312" lon="7.01437">
        <ele>1109.7</ele>
        <time>2026-08-27T12:26:56.316Z</time>
      </trkpt>
      <trkpt lat="47.82312" lon="7.01438">
        <ele>1109.7</ele>
        <time>2026-08-27T12:26:57.324Z</time>
      </trkpt>
      <trkpt lat="47.82312" lon="7.01438">
        <ele>1109.6</ele>
        <time>2026-08-27T12:26:58.332Z</time>
      </trkpt>
      <trkpt lat="47.82314" lon="7.01439">
        <ele>1109.9</ele>
        <time>2026-08-27T12:27:00.349Z</time>
      </trkpt>
      <trkpt lat="47.82314" lon="7.01439">
        <ele>1110</ele>
        <time>2026-08-27T12:27:01.356Z</time>
      </trkpt>
      <trkpt lat="47.82314" lon="7.01439">
        <ele>1110.1</ele>
        <time>2026-08-27T12:27:02.365Z</time>
      </trkpt>
      <trkpt lat="47.82314" lon="7.01439">
        <ele>1110.1</ele>
        <time>2026-08-27T12:27:03.372Z</time>
      </trkpt>
      <trkpt lat="47.82314" lon="7.0144">
        <ele>1110</ele>
        <time>2026-08-27T12:27:04.380Z</time>
      </trkpt>
      <trkpt lat="47.82314" lon="7.0144">
        <ele>1110.1</ele>
        <time>2026-08-27T12:27:05.388Z</time>
      </trkpt>
      <trkpt lat="47.82314" lon="7.0144">
        <ele>1110.2</ele>
        <time>2026-08-27T12:27:06.396Z</time>
      </trkpt>
      <trkpt lat="47.82314" lon="7.01441">
        <ele>1110.2</ele>
        <time>2026-08-27T12:27:08.387Z</time>
      </trkpt>
      <trkpt lat="47.82315" lon="7.01442">
        <ele>1110</ele>
        <time>2026-08-27T12:27:10.327Z</time>
      </trkpt>
      <trkpt lat="47.82318" lon="7.01441">
        <ele>1110.1</ele>
        <time>2026-08-27T12:27:12.444Z</time>
      </trkpt>
      <trkpt lat="47.82319" lon="7.01441">
        <ele>1109.9</ele>
        <time>2026-08-27T12:27:14.360Z</time>
      </trkpt>
      <trkpt lat="47.82319" lon="7.0144">
        <ele>1109.8</ele>
        <time>2026-08-27T12:27:15.369Z</time>
      </trkpt>
      <trkpt lat="47.82319" lon="7.01439">
        <ele>1109.8</ele>
        <time>2026-08-27T12:27:16.376Z</time>
      </trkpt>
      <trkpt lat="47.8232" lon="7.01438">
        <ele>1109.6</ele>
        <time>2026-08-27T12:27:17.384Z</time>
      </trkpt>
      <trkpt lat="47.82319" lon="7.01437">
        <ele>1109.6</ele>
        <time>2026-08-27T12:27:18.393Z</time>
      </trkpt>
      <trkpt lat="47.82319" lon="7.01436">
        <ele>1109.8</ele>
        <time>2026-08-27T12:27:19.400Z</time>
      </trkpt>
      <trkpt lat="47.82319" lon="7.01435">
        <ele>1109.9</ele>
        <time>2026-08-27T12:27:21.416Z</time>
      </trkpt>
      <trkpt lat="47.82318" lon="7.01435">
        <ele>1109.8</ele>
        <time>2026-08-27T12:27:22.425Z</time>
      </trkpt>
      <trkpt lat="47.82318" lon="7.01435">
        <ele>1109.7</ele>
        <time>2026-08-27T12:27:23.432Z</time>
      </trkpt>
      <trkpt lat="47.82318" lon="7.01435">
        <ele>1109.8</ele>
        <time>2026-08-27T12:27:24.440Z</time>
      </trkpt>
      <trkpt lat="47.82319" lon="7.01435">
        <ele>1109.9</ele>
        <time>2026-08-27T12:27:26.355Z</time>
      </trkpt>
      <trkpt lat="47.82319" lon="7.01434">
        <ele>1109.8</ele>
        <time>2026-08-27T12:27:27.364Z</time>
      </trkpt>
      <trkpt lat="47.8232" lon="7.01433">
        <ele>1109.8</ele>
        <time>2026-08-27T12:27:28.364Z</time>
      </trkpt>
      <trkpt lat="47.82321" lon="7.01432">
        <ele>1109.9</ele>
        <time>2026-08-27T12:27:29.380Z</time>
      </trkpt>
      <trkpt lat="47.82322" lon="7.0143">
        <ele>1110.2</ele>
        <time>2026-08-27T12:27:30.388Z</time>
      </trkpt>
      <trkpt lat="47.82322" lon="7.01429">
        <ele>1110.1</ele>
        <time>2026-08-27T12:27:31.395Z</time>
      </trkpt>
      <trkpt lat="47.82322" lon="7.01427">
        <ele>1110.3</ele>
        <time>2026-08-27T12:27:32.403Z</time>
      </trkpt>
      <trkpt lat="47.82322" lon="7.01426">
        <ele>1110.2</ele>
        <time>2026-08-27T12:27:33.411Z</time>
      </trkpt>
      <trkpt lat="47.82322" lon="7.01425">
        <ele>1110.3</ele>
        <time>2026-08-27T12:27:34.419Z</time>
      </trkpt>
      <trkpt lat="47.82322" lon="7.01425">
        <ele>1110.5</ele>
        <time>2026-08-27T12:27:35.427Z</time>
      </trkpt>
      <trkpt lat="47.82322" lon="7.01424">
        <ele>1110.5</ele>
        <time>2026-08-27T12:27:37.444Z</time>
      </trkpt>
      <trkpt lat="47.82322" lon="7.01424">
        <ele>1110.4</ele>
        <time>2026-08-27T12:27:38.453Z</time>
      </trkpt>
      <trkpt lat="47.82322" lon="7.01423">
        <ele>1110.4</ele>
        <time>2026-08-27T12:27:40.368Z</time>
      </trkpt>
      <trkpt lat="47.82322" lon="7.01423">
        <ele>1110.3</ele>
        <time>2026-08-27T12:27:41.375Z</time>
      </trkpt>
      <trkpt lat="47.82322" lon="7.01423">
        <ele>1110.2</ele>
        <time>2026-08-27T12:27:42.383Z</time>
      </trkpt>
      <trkpt lat="47.82322" lon="7.01423">
        <ele>1110.1</ele>
        <time>2026-08-27T12:27:43.391Z</time>
      </trkpt>
      <trkpt lat="47.82323" lon="7.01423">
        <ele>1110</ele>
        <time>2026-08-27T12:27:44.399Z</time>
      </trkpt>
      <trkpt lat="47.82323" lon="7.01423">
        <ele>1110</ele>
        <time>2026-08-27T12:27:45.407Z</time>
      </trkpt>
      <trkpt lat="47.82323" lon="7.01422">
        <ele>1110</ele>
        <time>2026-08-27T12:27:46.415Z</time>
      </trkpt>
      <trkpt lat="47.82323" lon="7.01422">
        <ele>1109.9</ele>
        <time>2026-08-27T12:27:47.423Z</time>
      </trkpt>
      <trkpt lat="47.82323" lon="7.01422">
        <ele>1109.7</ele>
        <time>2026-08-27T12:27:48.432Z</time>
      </trkpt>
      <trkpt lat="47.82323" lon="7.01422">
        <ele>1109.8</ele>
        <time>2026-08-27T12:27:49.439Z</time>
      </trkpt>
      <trkpt lat="47.82323" lon="7.01422">
        <ele>1109.9</ele>
        <time>2026-08-27T12:27:50.447Z</time>
      </trkpt>
      <trkpt lat="47.82323" lon="7.01423">
        <ele>1109.9</ele>
        <time>2026-08-27T12:27:52.362Z</time>
      </trkpt>
      <trkpt lat="47.82323" lon="7.01423">
        <ele>1109.7</ele>
        <time>2026-08-27T12:27:53.370Z</time>
      </trkpt>
      <trkpt lat="47.82323" lon="7.01423">
        <ele>1109.8</ele>
        <time>2026-08-27T12:27:54.379Z</time>
      </trkpt>
      <trkpt lat="47.82323" lon="7.01423">
        <ele>1109.8</ele>
        <time>2026-08-27T12:27:55.387Z</time>
      </trkpt>
      <trkpt lat="47.82323" lon="7.01423">
        <ele>1109.8</ele>
        <time>2026-08-27T12:27:56.396Z</time>
      </trkpt>
      <trkpt lat="47.82323" lon="7.01424">
        <ele>1109.7</ele>
        <time>2026-08-27T12:27:57.404Z</time>
      </trkpt>
      <trkpt lat="47.82323" lon="7.01424">
        <ele>1109.7</ele>
        <time>2026-08-27T12:27:58.412Z</time>
      </trkpt>
      <trkpt lat="47.82323" lon="7.01424">
        <ele>1109.8</ele>
        <time>2026-08-27T12:27:59.419Z</time>
      </trkpt>
      <trkpt lat="47.82323" lon="7.01424">
        <ele>1109.9</ele>
        <time>2026-08-27T12:28:00.428Z</time>
      </trkpt>
      <trkpt lat="47.82323" lon="7.01424">
        <ele>1109.9</ele>
        <time>2026-08-27T12:28:02.443Z</time>
      </trkpt>
      <trkpt lat="47.82323" lon="7.01423">
        <ele>1110</ele>
        <time>2026-08-27T12:28:03.451Z</time>
      </trkpt>
      <trkpt lat="47.82323" lon="7.01423">
        <ele>1110</ele>
        <time>2026-08-27T12:28:04.459Z</time>
      </trkpt>
      <trkpt lat="47.82323" lon="7.01423">
        <ele>1110</ele>
        <time>2026-08-27T12:28:05.467Z</time>
      </trkpt>
      <trkpt lat="47.82323" lon="7.01423">
        <ele>1110.1</ele>
        <time>2026-08-27T12:28:07.382Z</time>
      </trkpt>
      <trkpt lat="47.82323" lon="7.01423">
        <ele>1110.1</ele>
        <time>2026-08-27T12:28:08.390Z</time>
      </trkpt>
      <trkpt lat="47.82323" lon="7.01423">
        <ele>1110.1</ele>
        <time>2026-08-27T12:28:09.398Z</time>
      </trkpt>
      <trkpt lat="47.82323" lon="7.01424">
        <ele>1110</ele>
        <time>2026-08-27T12:28:10.406Z</time>
      </trkpt>
      <trkpt lat="47.82323" lon="7.01424">
        <ele>1109.9</ele>
        <time>2026-08-27T12:28:11.415Z</time>
      </trkpt>
      <trkpt lat="47.82323" lon="7.01424">
        <ele>1109.9</ele>
        <time>2026-08-27T12:28:12.423Z</time>
      </trkpt>
      <trkpt lat="47.82323" lon="7.01424">
        <ele>1109.9</ele>
        <time>2026-08-27T12:28:13.430Z</time>
      </trkpt>
      <trkpt lat="47.82323" lon="7.01424">
        <ele>1109.8</ele>
        <time>2026-08-27T12:28:14.439Z</time>
      </trkpt>
      <trkpt lat="47.82323" lon="7.01424">
        <ele>1109.8</ele>
        <time>2026-08-27T12:28:15.446Z</time>
      </trkpt>
      <trkpt lat="47.82323" lon="7.01424">
        <ele>1109.8</ele>
        <time>2026-08-27T12:28:16.455Z</time>
      </trkpt>
      <trkpt lat="47.82323" lon="7.01424">
        <ele>1109.7</ele>
        <time>2026-08-27T12:28:18.370Z</time>
      </trkpt>
      <trkpt lat="47.82323" lon="7.01424">
        <ele>1109.8</ele>
        <time>2026-08-27T12:28:19.379Z</time>
      </trkpt>
      <trkpt lat="47.82324" lon="7.01424">
        <ele>1109.8</ele>
        <time>2026-08-27T12:28:20.387Z</time>
      </trkpt>
      <trkpt lat="47.82324" lon="7.01425">
        <ele>1109.7</ele>
        <time>2026-08-27T12:28:21.395Z</time>
      </trkpt>
      <trkpt lat="47.82324" lon="7.01425">
        <ele>1109.6</ele>
        <time>2026-08-27T12:28:22.402Z</time>
      </trkpt>
      <trkpt lat="47.82324" lon="7.01425">
        <ele>1109.6</ele>
        <time>2026-08-27T12:28:23.410Z</time>
      </trkpt>
      <trkpt lat="47.82324" lon="7.01425">
        <ele>1109.6</ele>
        <time>2026-08-27T12:28:24.418Z</time>
      </trkpt>
      <trkpt lat="47.82324" lon="7.01425">
        <ele>1109.7</ele>
        <time>2026-08-27T12:28:25.426Z</time>
      </trkpt>
      <trkpt lat="47.82324" lon="7.01425">
        <ele>1109.7</ele>
        <time>2026-08-27T12:28:26.434Z</time>
      </trkpt>
      <trkpt lat="47.82324" lon="7.01425">
        <ele>1109.6</ele>
        <time>2026-08-27T12:28:27.443Z</time>
      </trkpt>
      <trkpt lat="47.82324" lon="7.01425">
        <ele>1109.7</ele>
        <time>2026-08-27T12:28:28.451Z</time>
      </trkpt>
      <trkpt lat="47.82324" lon="7.01425">
        <ele>1109.9</ele>
        <time>2026-08-27T12:28:29.459Z</time>
      </trkpt>
      <trkpt lat="47.82324" lon="7.01426">
        <ele>1109.9</ele>
        <time>2026-08-27T12:28:31.374Z</time>
      </trkpt>
      <trkpt lat="47.82324" lon="7.01426">
        <ele>1110.1</ele>
        <time>2026-08-27T12:28:32.381Z</time>
      </trkpt>
      <trkpt lat="47.82325" lon="7.01426">
        <ele>1110</ele>
        <time>2026-08-27T12:28:33.389Z</time>
      </trkpt>
      <trkpt lat="47.82325" lon="7.01426">
        <ele>1110.1</ele>
        <time>2026-08-27T12:28:34.397Z</time>
      </trkpt>
      <trkpt lat="47.82325" lon="7.01426">
        <ele>1110.1</ele>
        <time>2026-08-27T12:28:35.405Z</time>
      </trkpt>
      <trkpt lat="47.82325" lon="7.01426">
        <ele>1110.1</ele>
        <time>2026-08-27T12:28:36.414Z</time>
      </trkpt>
      <trkpt lat="47.82325" lon="7.01426">
        <ele>1110.1</ele>
        <time>2026-08-27T12:28:37.422Z</time>
      </trkpt>
      <trkpt lat="47.82325" lon="7.01426">
        <ele>1110.1</ele>
        <time>2026-08-27T12:28:38.430Z</time>
      </trkpt>
      <trkpt lat="47.82325" lon="7.01426">
        <ele>1110</ele>
        <time>2026-08-27T12:28:39.438Z</time>
      </trkpt>
      <trkpt lat="47.82325" lon="7.01426">
        <ele>1109.9</ele>
        <time>2026-08-27T12:28:40.446Z</time>
      </trkpt>
      <trkpt lat="47.82325" lon="7.01426">
        <ele>1109.8</ele>
        <time>2026-08-27T12:28:41.454Z</time>
      </trkpt>
      <trkpt lat="47.82325" lon="7.01426">
        <ele>1109.7</ele>
        <time>2026-08-27T12:28:43.370Z</time>
      </trkpt>
      <trkpt lat="47.82325" lon="7.01426">
        <ele>1109.7</ele>
        <time>2026-08-27T12:28:44.377Z</time>
      </trkpt>
      <trkpt lat="47.82325" lon="7.01426">
        <ele>1109.5</ele>
        <time>2026-08-27T12:28:45.385Z</time>
      </trkpt>
      <trkpt lat="47.82325" lon="7.01426">
        <ele>1109.6</ele>
        <time>2026-08-27T12:28:46.393Z</time>
      </trkpt>
      <trkpt lat="47.82325" lon="7.01426">
        <ele>1109.5</ele>
        <time>2026-08-27T12:28:47.402Z</time>
      </trkpt>
      <trkpt lat="47.82325" lon="7.01426">
        <ele>1109.6</ele>
        <time>2026-08-27T12:28:48.410Z</time>
      </trkpt>
      <trkpt lat="47.82325" lon="7.01427">
        <ele>1109.6</ele>
        <time>2026-08-27T12:28:49.417Z</time>
      </trkpt>
      <trkpt lat="47.82325" lon="7.01426">
        <ele>1109.6</ele>
        <time>2026-08-27T12:28:50.425Z</time>
      </trkpt>
      <trkpt lat="47.82325" lon="7.01426">
        <ele>1109.7</ele>
        <time>2026-08-27T12:28:51.433Z</time>
      </trkpt>
      <trkpt lat="47.82325" lon="7.01426">
        <ele>1109.6</ele>
        <time>2026-08-27T12:28:52.441Z</time>
      </trkpt>
      <trkpt lat="47.82325" lon="7.01426">
        <ele>1109.6</ele>
        <time>2026-08-27T12:28:53.449Z</time>
      </trkpt>
      <trkpt lat="47.82324" lon="7.01426">
        <ele>1109.7</ele>
        <time>2026-08-27T12:28:54.457Z</time>
      </trkpt>
      <trkpt lat="47.82324" lon="7.01425">
        <ele>1109.6</ele>
        <time>2026-08-27T12:28:56.374Z</time>
      </trkpt>
      <trkpt lat="47.82324" lon="7.01425">
        <ele>1109.7</ele>
        <time>2026-08-27T12:28:57.381Z</time>
      </trkpt>
      <trkpt lat="47.82324" lon="7.01425">
        <ele>1109.9</ele>
        <time>2026-08-27T12:28:58.389Z</time>
      </trkpt>
      <trkpt lat="47.82324" lon="7.01425">
        <ele>1109.9</ele>
        <time>2026-08-27T12:28:59.398Z</time>
      </trkpt>
      <trkpt lat="47.82324" lon="7.01425">
        <ele>1109.9</ele>
        <time>2026-08-27T12:29:00.405Z</time>
      </trkpt>
      <trkpt lat="47.82324" lon="7.01425">
        <ele>1109.9</ele>
        <time>2026-08-27T12:29:01.414Z</time>
      </trkpt>
      <trkpt lat="47.82324" lon="7.01425">
        <ele>1110</ele>
        <time>2026-08-27T12:29:02.421Z</time>
      </trkpt>
      <trkpt lat="47.82324" lon="7.01425">
        <ele>1110.2</ele>
        <time>2026-08-27T12:29:03.429Z</time>
      </trkpt>
      <trkpt lat="47.82324" lon="7.01425">
        <ele>1110.2</ele>
        <time>2026-08-27T12:29:04.438Z</time>
      </trkpt>
      <trkpt lat="47.82324" lon="7.01425">
        <ele>1110.2</ele>
        <time>2026-08-27T12:29:05.445Z</time>
      </trkpt>
      <trkpt lat="47.82324" lon="7.01425">
        <ele>1110.2</ele>
        <time>2026-08-27T12:29:06.453Z</time>
      </trkpt>
      <trkpt lat="47.82324" lon="7.01425">
        <ele>1110.2</ele>
        <time>2026-08-27T12:29:07.461Z</time>
      </trkpt>
      <trkpt lat="47.82324" lon="7.01425">
        <ele>1110.1</ele>
        <time>2026-08-27T12:29:09.376Z</time>
      </trkpt>
      <trkpt lat="47.82324" lon="7.01425">
        <ele>1110</ele>
        <time>2026-08-27T12:29:10.385Z</time>
      </trkpt>
      <trkpt lat="47.82324" lon="7.01425">
        <ele>1110</ele>
        <time>2026-08-27T12:29:11.393Z</time>
      </trkpt>
      <trkpt lat="47.82324" lon="7.01425">
        <ele>1109.9</ele>
        <time>2026-08-27T12:29:12.401Z</time>
      </trkpt>
      <trkpt lat="47.82324" lon="7.01425">
        <ele>1109.9</ele>
        <time>2026-08-27T12:29:13.408Z</time>
      </trkpt>
      <trkpt lat="47.82325" lon="7.01425">
        <ele>1109.8</ele>
        <time>2026-08-27T12:29:14.416Z</time>
      </trkpt>
      <trkpt lat="47.82325" lon="7.01425">
        <ele>1109.8</ele>
        <time>2026-08-27T12:29:15.424Z</time>
      </trkpt>
      <trkpt lat="47.82325" lon="7.01425">
        <ele>1109.8</ele>
        <time>2026-08-27T12:29:16.432Z</time>
      </trkpt>
      <trkpt lat="47.82325" lon="7.01424">
        <ele>1109.8</ele>
        <time>2026-08-27T12:29:17.441Z</time>
      </trkpt>
      <trkpt lat="47.82325" lon="7.01424">
        <ele>1109.7</ele>
        <time>2026-08-27T12:29:18.449Z</time>
      </trkpt>
      <trkpt lat="47.82325" lon="7.01424">
        <ele>1109.7</ele>
        <time>2026-08-27T12:29:19.458Z</time>
      </trkpt>
      <trkpt lat="47.82325" lon="7.01424">
        <ele>1109.5</ele>
        <time>2026-08-27T12:29:21.372Z</time>
      </trkpt>
      <trkpt lat="47.82325" lon="7.01424">
        <ele>1109.5</ele>
        <time>2026-08-27T12:29:22.380Z</time>
      </trkpt>
      <trkpt lat="47.82325" lon="7.01423">
        <ele>1109.4</ele>
        <time>2026-08-27T12:29:23.388Z</time>
      </trkpt>
      <trkpt lat="47.82325" lon="7.01423">
        <ele>1109.4</ele>
        <time>2026-08-27T12:29:24.397Z</time>
      </trkpt>
      <trkpt lat="47.82325" lon="7.01422">
        <ele>1109.5</ele>
        <time>2026-08-27T12:29:25.404Z</time>
      </trkpt>
      <trkpt lat="47.82325" lon="7.01421">
        <ele>1109.6</ele>
        <time>2026-08-27T12:29:26.413Z</time>
      </trkpt>
      <trkpt lat="47.82325" lon="7.01421">
        <ele>1109.8</ele>
        <time>2026-08-27T12:29:27.420Z</time>
      </trkpt>
      <trkpt lat="47.82325" lon="7.01421">
        <ele>1109.8</ele>
        <time>2026-08-27T12:29:28.428Z</time>
      </trkpt>
      <trkpt lat="47.82325" lon="7.01421">
        <ele>1109.8</ele>
        <time>2026-08-27T12:29:29.437Z</time>
      </trkpt>
      <trkpt lat="47.82325" lon="7.0142">
        <ele>1109.8</ele>
        <time>2026-08-27T12:29:30.444Z</time>
      </trkpt>
      <trkpt lat="47.82325" lon="7.01419">
        <ele>1110</ele>
        <time>2026-08-27T12:29:31.452Z</time>
      </trkpt>
      <trkpt lat="47.82326" lon="7.0142">
        <ele>1110.1</ele>
        <time>2026-08-27T12:29:32.461Z</time>
      </trkpt>
      <trkpt lat="47.82326" lon="7.01419">
        <ele>1110.2</ele>
        <time>2026-08-27T12:29:33.469Z</time>
      </trkpt>
      <trkpt lat="47.82327" lon="7.01422">
        <ele>1110.1</ele>
        <time>2026-08-27T12:29:35.384Z</time>
      </trkpt>
      <trkpt lat="47.82327" lon="7.01423">
        <ele>1110</ele>
        <time>2026-08-27T12:29:36.392Z</time>
      </trkpt>
      <trkpt lat="47.82327" lon="7.01424">
        <ele>1110</ele>
        <time>2026-08-27T12:29:37.400Z</time>
      </trkpt>
      <trkpt lat="47.82328" lon="7.01426">
        <ele>1109.8</ele>
        <time>2026-08-27T12:29:38.409Z</time>
      </trkpt>
      <trkpt lat="47.82328" lon="7.01427">
        <ele>1109.8</ele>
        <time>2026-08-27T12:29:39.416Z</time>
      </trkpt>
      <trkpt lat="47.82328" lon="7.01428">
        <ele>1109.8</ele>
        <time>2026-08-27T12:29:40.467Z</time>
      </trkpt>
      <trkpt lat="47.82328" lon="7.01429">
        <ele>1109.7</ele>
        <time>2026-08-27T12:29:42.440Z</time>
      </trkpt>
      <trkpt lat="47.82327" lon="7.01429">
        <ele>1109.6</ele>
        <time>2026-08-27T12:29:43.449Z</time>
      </trkpt>
      <trkpt lat="47.82327" lon="7.01429">
        <ele>1109.7</ele>
        <time>2026-08-27T12:29:44.456Z</time>
      </trkpt>
      <trkpt lat="47.82326" lon="7.01429">
        <ele>1109.9</ele>
        <time>2026-08-27T12:29:46.371Z</time>
      </trkpt>
      <trkpt lat="47.82326" lon="7.01429">
        <ele>1109.8</ele>
        <time>2026-08-27T12:29:47.380Z</time>
      </trkpt>
      <trkpt lat="47.82325" lon="7.0143">
        <ele>1110</ele>
        <time>2026-08-27T12:29:48.387Z</time>
      </trkpt>
      <trkpt lat="47.82325" lon="7.0143">
        <ele>1109.8</ele>
        <time>2026-08-27T12:29:49.395Z</time>
      </trkpt>
      <trkpt lat="47.82325" lon="7.0143">
        <ele>1109.8</ele>
        <time>2026-08-27T12:29:50.403Z</time>
      </trkpt>
      <trkpt lat="47.82324" lon="7.0143">
        <ele>1109.8</ele>
        <time>2026-08-27T12:29:51.411Z</time>
      </trkpt>
      <trkpt lat="47.82323" lon="7.0143">
        <ele>1109.8</ele>
        <time>2026-08-27T12:29:53.427Z</time>
      </trkpt>
      <trkpt lat="47.82322" lon="7.0143">
        <ele>1109.7</ele>
        <time>2026-08-27T12:29:54.435Z</time>
      </trkpt>
      <trkpt lat="47.82321" lon="7.01431">
        <ele>1110</ele>
        <time>2026-08-27T12:29:55.445Z</time>
      </trkpt>
      <trkpt lat="47.8232" lon="7.01432">
        <ele>1110.2</ele>
        <time>2026-08-27T12:29:56.453Z</time>
      </trkpt>
      <trkpt lat="47.8232" lon="7.01432">
        <ele>1110.2</ele>
        <time>2026-08-27T12:29:57.461Z</time>
      </trkpt>
      <trkpt lat="47.82319" lon="7.01432">
        <ele>1110.2</ele>
        <time>2026-08-27T12:29:59.375Z</time>
      </trkpt>
      <trkpt lat="47.82319" lon="7.01432">
        <ele>1110.2</ele>
        <time>2026-08-27T12:30:00.425Z</time>
      </trkpt>
      <trkpt lat="47.82319" lon="7.01431">
        <ele>1110.4</ele>
        <time>2026-08-27T12:30:05.844Z</time>
      </trkpt>
      <trkpt lat="47.82319" lon="7.01431">
        <ele>1110.2</ele>
        <time>2026-08-27T12:30:08.985Z</time>
      </trkpt>
      <trkpt lat="47.82319" lon="7.01431">
        <ele>1110.2</ele>
        <time>2026-08-27T12:30:10.304Z</time>
      </trkpt>
      <trkpt lat="47.82319" lon="7.0143">
        <ele>1110</ele>
        <time>2026-08-27T12:30:11.405Z</time>
      </trkpt>
    </trkseg>
  </trk>
</gpx>